<?xml version="1.0" encoding="UTF-8"?>
<gpx
  version="1.0"
  creator="GPSBabel - http://www.gpsbabel.org"
  xmlns:xsi="http://www.w3.org/2001/XMLSchema-instance"
  xmlns="http://www.topografix.com/GPX/1/0"
  xsi:schemaLocation="http://www.topografix.com/GPX/1/0 http://www.topografix.com/GPX/1/0/gpx.xsd">
<time>2011-10-15T11:59:53Z</time>
<bounds minlat="32.982696533" minlon="35.491550446" maxlat="33.011257172" maxlon="35.540927887"/>
<trk>
  <name>Holux2011/10/15_07:06</name>
<trkseg>
<trkpt lat="32.982910156" lon="35.539325714">
  <ele>411.736816</ele>
  <time>2011-10-15T05:06:37Z</time>
  <speed>0.180000</speed>
</trkpt>
<trkpt lat="32.982921600" lon="35.539352417">
  <ele>410.057129</ele>
  <time>2011-10-15T05:06:40Z</time>
  <speed>0.030000</speed>
</trkpt>
<trkpt lat="32.982898712" lon="35.539337158">
  <ele>410.689941</ele>
  <time>2011-10-15T05:06:41Z</time>
  <speed>0.080000</speed>
</trkpt>
<trkpt lat="32.982875824" lon="35.539352417">
  <ele>411.533691</ele>
  <time>2011-10-15T05:06:44Z</time>
  <speed>0.180000</speed>
</trkpt>
<trkpt lat="32.982868195" lon="35.539390564">
  <ele>412.807129</ele>
  <time>2011-10-15T05:06:57Z</time>
  <speed>0.660000</speed>
</trkpt>
<trkpt lat="32.982868195" lon="35.539436340">
  <ele>412.939941</ele>
  <time>2011-10-15T05:07:00Z</time>
  <speed>1.790000</speed>
</trkpt>
<trkpt lat="32.982860565" lon="35.539482117">
  <ele>412.588379</ele>
  <time>2011-10-15T05:07:02Z</time>
  <speed>2.270000</speed>
</trkpt>
<trkpt lat="32.982860565" lon="35.539520264">
  <ele>411.877441</ele>
  <time>2011-10-15T05:07:04Z</time>
  <speed>1.900000</speed>
</trkpt>
<trkpt lat="32.982841492" lon="35.539543152">
  <ele>410.314941</ele>
  <time>2011-10-15T05:07:07Z</time>
  <speed>0.490000</speed>
</trkpt>
<trkpt lat="32.982826233" lon="35.539524078">
  <ele>408.791504</ele>
  <time>2011-10-15T05:07:20Z</time>
  <speed>0.090000</speed>
</trkpt>
<trkpt lat="32.982822418" lon="35.539497375">
  <ele>407.127441</ele>
  <time>2011-10-15T05:07:44Z</time>
  <speed>0.120000</speed>
</trkpt>
<trkpt lat="32.982818604" lon="35.539535522">
  <ele>408.174316</ele>
  <time>2011-10-15T05:07:57Z</time>
  <speed>1.910000</speed>
</trkpt>
<trkpt lat="32.982826233" lon="35.539604187">
  <ele>409.221191</ele>
  <time>2011-10-15T05:07:59Z</time>
  <speed>2.550000</speed>
</trkpt>
<trkpt lat="32.982837677" lon="35.539634705">
  <ele>409.689941</ele>
  <time>2011-10-15T05:08:00Z</time>
  <speed>2.540000</speed>
</trkpt>
<trkpt lat="32.982856750" lon="35.539657593">
  <ele>409.580566</ele>
  <time>2011-10-15T05:08:01Z</time>
  <speed>2.560000</speed>
</trkpt>
<trkpt lat="32.982898712" lon="35.539688110">
  <ele>410.635254</ele>
  <time>2011-10-15T05:08:03Z</time>
  <speed>2.590000</speed>
</trkpt>
<trkpt lat="32.982940674" lon="35.539703369">
  <ele>411.033691</ele>
  <time>2011-10-15T05:08:05Z</time>
  <speed>2.290000</speed>
</trkpt>
<trkpt lat="32.982990265" lon="35.539707184">
  <ele>411.361816</ele>
  <time>2011-10-15T05:08:07Z</time>
  <speed>2.380000</speed>
</trkpt>
<trkpt lat="32.983039856" lon="35.539710999">
  <ele>411.283691</ele>
  <time>2011-10-15T05:08:09Z</time>
  <speed>2.420000</speed>
</trkpt>
<trkpt lat="32.983081818" lon="35.539722443">
  <ele>411.799316</ele>
  <time>2011-10-15T05:08:11Z</time>
  <speed>2.280000</speed>
</trkpt>
<trkpt lat="32.983131409" lon="35.539737701">
  <ele>412.291504</ele>
  <time>2011-10-15T05:08:13Z</time>
  <speed>2.530000</speed>
</trkpt>
<trkpt lat="32.983161926" lon="35.539756775">
  <ele>412.518066</ele>
  <time>2011-10-15T05:08:14Z</time>
  <speed>2.720000</speed>
</trkpt>
<trkpt lat="32.983184814" lon="35.539768219">
  <ele>412.471191</ele>
  <time>2011-10-15T05:08:15Z</time>
  <speed>2.530000</speed>
</trkpt>
<trkpt lat="32.983215332" lon="35.539779663">
  <ele>412.166504</ele>
  <time>2011-10-15T05:08:16Z</time>
  <speed>2.680000</speed>
</trkpt>
<trkpt lat="32.983257294" lon="35.539802551">
  <ele>412.635254</ele>
  <time>2011-10-15T05:08:18Z</time>
  <speed>2.440000</speed>
</trkpt>
<trkpt lat="32.983291626" lon="35.539825439">
  <ele>413.533691</ele>
  <time>2011-10-15T05:08:20Z</time>
  <speed>2.030000</speed>
</trkpt>
<trkpt lat="32.983322144" lon="35.539836884">
  <ele>414.189941</ele>
  <time>2011-10-15T05:08:21Z</time>
  <speed>2.170000</speed>
</trkpt>
<trkpt lat="32.983367920" lon="35.539863586">
  <ele>413.236816</ele>
  <time>2011-10-15T05:08:23Z</time>
  <speed>2.100000</speed>
</trkpt>
<trkpt lat="32.983398438" lon="35.539882660">
  <ele>414.510254</ele>
  <time>2011-10-15T05:08:25Z</time>
  <speed>2.330000</speed>
</trkpt>
<trkpt lat="32.983436584" lon="35.539901733">
  <ele>415.072754</ele>
  <time>2011-10-15T05:08:27Z</time>
  <speed>1.820000</speed>
</trkpt>
<trkpt lat="32.983470917" lon="35.539916992">
  <ele>415.361816</ele>
  <time>2011-10-15T05:08:29Z</time>
  <speed>2.210000</speed>
</trkpt>
<trkpt lat="32.983501434" lon="35.539928436">
  <ele>415.104004</ele>
  <time>2011-10-15T05:08:31Z</time>
  <speed>2.110000</speed>
</trkpt>
<trkpt lat="32.983543396" lon="35.539936066">
  <ele>415.424316</ele>
  <time>2011-10-15T05:08:33Z</time>
  <speed>1.810000</speed>
</trkpt>
<trkpt lat="32.983577728" lon="35.539962769">
  <ele>415.682129</ele>
  <time>2011-10-15T05:08:36Z</time>
  <speed>1.610000</speed>
</trkpt>
<trkpt lat="32.983615875" lon="35.539974213">
  <ele>415.760254</ele>
  <time>2011-10-15T05:08:39Z</time>
  <speed>1.850000</speed>
</trkpt>
<trkpt lat="32.983642578" lon="35.539997101">
  <ele>415.682129</ele>
  <time>2011-10-15T05:08:42Z</time>
  <speed>0.870000</speed>
</trkpt>
<trkpt lat="32.983676910" lon="35.540008545">
  <ele>415.119629</ele>
  <time>2011-10-15T05:08:46Z</time>
  <speed>0.940000</speed>
</trkpt>
<trkpt lat="32.983703613" lon="35.540016174">
  <ele>416.182129</ele>
  <time>2011-10-15T05:08:52Z</time>
  <speed>0.060000</speed>
</trkpt>
<trkpt lat="32.983730316" lon="35.540016174">
  <ele>416.689941</ele>
  <time>2011-10-15T05:09:06Z</time>
  <speed>1.330000</speed>
</trkpt>
<trkpt lat="32.983768463" lon="35.540027618">
  <ele>416.721191</ele>
  <time>2011-10-15T05:09:08Z</time>
  <speed>1.860000</speed>
</trkpt>
<trkpt lat="32.983810425" lon="35.540050507">
  <ele>416.916504</ele>
  <time>2011-10-15T05:09:10Z</time>
  <speed>2.230000</speed>
</trkpt>
<trkpt lat="32.983840942" lon="35.540065765">
  <ele>417.189941</ele>
  <time>2011-10-15T05:09:12Z</time>
  <speed>2.190000</speed>
</trkpt>
<trkpt lat="32.983867645" lon="35.540096283">
  <ele>417.807129</ele>
  <time>2011-10-15T05:09:14Z</time>
  <speed>2.240000</speed>
</trkpt>
<trkpt lat="32.983913422" lon="35.540115356">
  <ele>418.783691</ele>
  <time>2011-10-15T05:09:16Z</time>
  <speed>2.320000</speed>
</trkpt>
<trkpt lat="32.983963013" lon="35.540134430">
  <ele>419.189941</ele>
  <time>2011-10-15T05:09:18Z</time>
  <speed>2.580000</speed>
</trkpt>
<trkpt lat="32.984004974" lon="35.540164948">
  <ele>419.650879</ele>
  <time>2011-10-15T05:09:20Z</time>
  <speed>2.550000</speed>
</trkpt>
<trkpt lat="32.984043121" lon="35.540184021">
  <ele>421.025879</ele>
  <time>2011-10-15T05:09:22Z</time>
  <speed>2.560000</speed>
</trkpt>
<trkpt lat="32.984085083" lon="35.540206909">
  <ele>420.994629</ele>
  <time>2011-10-15T05:09:24Z</time>
  <speed>2.580000</speed>
</trkpt>
<trkpt lat="32.984123230" lon="35.540225983">
  <ele>420.439941</ele>
  <time>2011-10-15T05:09:26Z</time>
  <speed>2.670000</speed>
</trkpt>
<trkpt lat="32.984161377" lon="35.540241241">
  <ele>421.416504</ele>
  <time>2011-10-15T05:09:28Z</time>
  <speed>2.360000</speed>
</trkpt>
<trkpt lat="32.984199524" lon="35.540260315">
  <ele>422.057129</ele>
  <time>2011-10-15T05:09:30Z</time>
  <speed>2.420000</speed>
</trkpt>
<trkpt lat="32.984241486" lon="35.540283203">
  <ele>422.471191</ele>
  <time>2011-10-15T05:09:32Z</time>
  <speed>2.390000</speed>
</trkpt>
<trkpt lat="32.984287262" lon="35.540298462">
  <ele>423.221191</ele>
  <time>2011-10-15T05:09:34Z</time>
  <speed>2.450000</speed>
</trkpt>
<trkpt lat="32.984325409" lon="35.540321350">
  <ele>422.893066</ele>
  <time>2011-10-15T05:09:36Z</time>
  <speed>2.310000</speed>
</trkpt>
<trkpt lat="32.984355927" lon="35.540328979">
  <ele>423.150879</ele>
  <time>2011-10-15T05:09:37Z</time>
  <speed>2.290000</speed>
</trkpt>
<trkpt lat="32.984397888" lon="35.540351868">
  <ele>423.424316</ele>
  <time>2011-10-15T05:09:39Z</time>
  <speed>2.580000</speed>
</trkpt>
<trkpt lat="32.984447479" lon="35.540370941">
  <ele>422.674316</ele>
  <time>2011-10-15T05:09:41Z</time>
  <speed>2.900000</speed>
</trkpt>
<trkpt lat="32.984489441" lon="35.540393829">
  <ele>423.885254</ele>
  <time>2011-10-15T05:09:43Z</time>
  <speed>2.130000</speed>
</trkpt>
<trkpt lat="32.984516144" lon="35.540397644">
  <ele>423.260254</ele>
  <time>2011-10-15T05:09:44Z</time>
  <speed>1.690000</speed>
</trkpt>
<trkpt lat="32.984546661" lon="35.540405273">
  <ele>423.650879</ele>
  <time>2011-10-15T05:09:45Z</time>
  <speed>2.730000</speed>
</trkpt>
<trkpt lat="32.984580994" lon="35.540420532">
  <ele>424.197754</ele>
  <time>2011-10-15T05:09:47Z</time>
  <speed>2.520000</speed>
</trkpt>
<trkpt lat="32.984630585" lon="35.540435791">
  <ele>425.244629</ele>
  <time>2011-10-15T05:09:49Z</time>
  <speed>2.510000</speed>
</trkpt>
<trkpt lat="32.984657288" lon="35.540443420">
  <ele>426.080566</ele>
  <time>2011-10-15T05:09:50Z</time>
  <speed>2.490000</speed>
</trkpt>
<trkpt lat="32.984706879" lon="35.540454865">
  <ele>425.158691</ele>
  <time>2011-10-15T05:09:52Z</time>
  <speed>2.500000</speed>
</trkpt>
<trkpt lat="32.984737396" lon="35.540454865">
  <ele>425.674316</ele>
  <time>2011-10-15T05:09:53Z</time>
  <speed>2.490000</speed>
</trkpt>
<trkpt lat="32.984779358" lon="35.540473938">
  <ele>427.072754</ele>
  <time>2011-10-15T05:09:55Z</time>
  <speed>2.040000</speed>
</trkpt>
<trkpt lat="32.984821320" lon="35.540500641">
  <ele>429.838379</ele>
  <time>2011-10-15T05:09:57Z</time>
  <speed>2.680000</speed>
</trkpt>
<trkpt lat="32.984859467" lon="35.540519714">
  <ele>430.400879</ele>
  <time>2011-10-15T05:09:59Z</time>
  <speed>2.520000</speed>
</trkpt>
<trkpt lat="32.984893799" lon="35.540527344">
  <ele>431.166504</ele>
  <time>2011-10-15T05:10:01Z</time>
  <speed>2.040000</speed>
</trkpt>
<trkpt lat="32.984931946" lon="35.540550232">
  <ele>432.166504</ele>
  <time>2011-10-15T05:10:03Z</time>
  <speed>2.330000</speed>
</trkpt>
<trkpt lat="32.984973907" lon="35.540573120">
  <ele>432.010254</ele>
  <time>2011-10-15T05:10:05Z</time>
  <speed>2.630000</speed>
</trkpt>
<trkpt lat="32.985015869" lon="35.540596008">
  <ele>432.408691</ele>
  <time>2011-10-15T05:10:07Z</time>
  <speed>2.440000</speed>
</trkpt>
<trkpt lat="32.985050201" lon="35.540618896">
  <ele>433.127441</ele>
  <time>2011-10-15T05:10:09Z</time>
  <speed>2.270000</speed>
</trkpt>
<trkpt lat="32.985088348" lon="35.540630341">
  <ele>433.260254</ele>
  <time>2011-10-15T05:10:11Z</time>
  <speed>2.100000</speed>
</trkpt>
<trkpt lat="32.985130310" lon="35.540660858">
  <ele>434.041504</ele>
  <time>2011-10-15T05:10:13Z</time>
  <speed>2.520000</speed>
</trkpt>
<trkpt lat="32.985157013" lon="35.540668488">
  <ele>433.877441</ele>
  <time>2011-10-15T05:10:14Z</time>
  <speed>2.410000</speed>
</trkpt>
<trkpt lat="32.985202789" lon="35.540687561">
  <ele>433.986816</ele>
  <time>2011-10-15T05:10:16Z</time>
  <speed>2.430000</speed>
</trkpt>
<trkpt lat="32.985240936" lon="35.540718079">
  <ele>434.549316</ele>
  <time>2011-10-15T05:10:18Z</time>
  <speed>1.760000</speed>
</trkpt>
<trkpt lat="32.985279083" lon="35.540740967">
  <ele>434.518066</ele>
  <time>2011-10-15T05:10:20Z</time>
  <speed>2.410000</speed>
</trkpt>
<trkpt lat="32.985305786" lon="35.540744781">
  <ele>435.768066</ele>
  <time>2011-10-15T05:10:21Z</time>
  <speed>2.350000</speed>
</trkpt>
<trkpt lat="32.985336304" lon="35.540752411">
  <ele>436.135254</ele>
  <time>2011-10-15T05:10:22Z</time>
  <speed>2.480000</speed>
</trkpt>
<trkpt lat="32.985363007" lon="35.540763855">
  <ele>436.877441</ele>
  <time>2011-10-15T05:10:23Z</time>
  <speed>2.220000</speed>
</trkpt>
<trkpt lat="32.985401154" lon="35.540790558">
  <ele>436.924316</ele>
  <time>2011-10-15T05:10:25Z</time>
  <speed>2.300000</speed>
</trkpt>
<trkpt lat="32.985443115" lon="35.540813446">
  <ele>436.650879</ele>
  <time>2011-10-15T05:10:27Z</time>
  <speed>2.410000</speed>
</trkpt>
<trkpt lat="32.985469818" lon="35.540813446">
  <ele>437.760254</ele>
  <time>2011-10-15T05:10:28Z</time>
  <speed>2.070000</speed>
</trkpt>
<trkpt lat="32.985515594" lon="35.540828705">
  <ele>437.080566</ele>
  <time>2011-10-15T05:10:30Z</time>
  <speed>2.100000</speed>
</trkpt>
<trkpt lat="32.985565186" lon="35.540843964">
  <ele>436.564941</ele>
  <time>2011-10-15T05:10:32Z</time>
  <speed>2.130000</speed>
</trkpt>
<trkpt lat="32.985610962" lon="35.540866852">
  <ele>435.635254</ele>
  <time>2011-10-15T05:10:34Z</time>
  <speed>2.510000</speed>
</trkpt>
<trkpt lat="32.985645294" lon="35.540885925">
  <ele>435.986816</ele>
  <time>2011-10-15T05:10:36Z</time>
  <speed>2.380000</speed>
</trkpt>
<trkpt lat="32.985691071" lon="35.540893555">
  <ele>436.010254</ele>
  <time>2011-10-15T05:10:38Z</time>
  <speed>2.500000</speed>
</trkpt>
<trkpt lat="32.985721588" lon="35.540897369">
  <ele>436.361816</ele>
  <time>2011-10-15T05:10:39Z</time>
  <speed>2.480000</speed>
</trkpt>
<trkpt lat="32.985763550" lon="35.540901184">
  <ele>436.955566</ele>
  <time>2011-10-15T05:10:41Z</time>
  <speed>1.930000</speed>
</trkpt>
<trkpt lat="32.985794067" lon="35.540901184">
  <ele>438.807129</ele>
  <time>2011-10-15T05:10:43Z</time>
  <speed>1.670000</speed>
</trkpt>
<trkpt lat="32.985836029" lon="35.540901184">
  <ele>440.260254</ele>
  <time>2011-10-15T05:10:46Z</time>
  <speed>2.010000</speed>
</trkpt>
<trkpt lat="32.985881805" lon="35.540901184">
  <ele>441.494629</ele>
  <time>2011-10-15T05:10:48Z</time>
  <speed>2.060000</speed>
</trkpt>
<trkpt lat="32.985916138" lon="35.540889740">
  <ele>441.447754</ele>
  <time>2011-10-15T05:10:50Z</time>
  <speed>1.920000</speed>
</trkpt>
<trkpt lat="32.985950470" lon="35.540874481">
  <ele>442.760254</ele>
  <time>2011-10-15T05:10:52Z</time>
  <speed>1.680000</speed>
</trkpt>
<trkpt lat="32.985980988" lon="35.540859222">
  <ele>443.916504</ele>
  <time>2011-10-15T05:10:54Z</time>
  <speed>1.600000</speed>
</trkpt>
<trkpt lat="32.986007690" lon="35.540851593">
  <ele>444.963379</ele>
  <time>2011-10-15T05:10:56Z</time>
  <speed>1.710000</speed>
</trkpt>
<trkpt lat="32.986038208" lon="35.540840149">
  <ele>446.471191</ele>
  <time>2011-10-15T05:10:58Z</time>
  <speed>1.520000</speed>
</trkpt>
<trkpt lat="32.986068726" lon="35.540824890">
  <ele>447.955566</ele>
  <time>2011-10-15T05:11:00Z</time>
  <speed>1.660000</speed>
</trkpt>
<trkpt lat="32.986103058" lon="35.540828705">
  <ele>448.791504</ele>
  <time>2011-10-15T05:11:02Z</time>
  <speed>1.670000</speed>
</trkpt>
<trkpt lat="32.986133575" lon="35.540821075">
  <ele>448.939941</ele>
  <time>2011-10-15T05:11:04Z</time>
  <speed>1.680000</speed>
</trkpt>
<trkpt lat="32.986171722" lon="35.540802002">
  <ele>449.963379</ele>
  <time>2011-10-15T05:11:07Z</time>
  <speed>1.470000</speed>
</trkpt>
<trkpt lat="32.986202240" lon="35.540802002">
  <ele>449.807129</ele>
  <time>2011-10-15T05:11:09Z</time>
  <speed>1.540000</speed>
</trkpt>
<trkpt lat="32.986232758" lon="35.540790558">
  <ele>450.002441</ele>
  <time>2011-10-15T05:11:11Z</time>
  <speed>1.610000</speed>
</trkpt>
<trkpt lat="32.986267090" lon="35.540779114">
  <ele>450.111816</ele>
  <time>2011-10-15T05:11:14Z</time>
  <speed>1.460000</speed>
</trkpt>
<trkpt lat="32.986293793" lon="35.540771484">
  <ele>448.666504</ele>
  <time>2011-10-15T05:11:16Z</time>
  <speed>1.530000</speed>
</trkpt>
<trkpt lat="32.986324310" lon="35.540760040">
  <ele>448.721191</ele>
  <time>2011-10-15T05:11:19Z</time>
  <speed>1.460000</speed>
</trkpt>
<trkpt lat="32.986354828" lon="35.540767670">
  <ele>448.424316</ele>
  <time>2011-10-15T05:11:21Z</time>
  <speed>1.530000</speed>
</trkpt>
<trkpt lat="32.986381531" lon="35.540752411">
  <ele>447.643066</ele>
  <time>2011-10-15T05:11:23Z</time>
  <speed>1.550000</speed>
</trkpt>
<trkpt lat="32.986408234" lon="35.540748596">
  <ele>447.291504</ele>
  <time>2011-10-15T05:11:25Z</time>
  <speed>1.740000</speed>
</trkpt>
<trkpt lat="32.986446381" lon="35.540744781">
  <ele>446.486816</ele>
  <time>2011-10-15T05:11:27Z</time>
  <speed>1.470000</speed>
</trkpt>
<trkpt lat="32.986488342" lon="35.540744781">
  <ele>447.314941</ele>
  <time>2011-10-15T05:11:30Z</time>
  <speed>1.600000</speed>
</trkpt>
<trkpt lat="32.986515045" lon="35.540718079">
  <ele>448.064941</ele>
  <time>2011-10-15T05:11:33Z</time>
  <speed>1.660000</speed>
</trkpt>
<trkpt lat="32.986545563" lon="35.540702820">
  <ele>447.838379</ele>
  <time>2011-10-15T05:11:35Z</time>
  <speed>1.700000</speed>
</trkpt>
<trkpt lat="32.986583710" lon="35.540691376">
  <ele>447.182129</ele>
  <time>2011-10-15T05:11:37Z</time>
  <speed>1.830000</speed>
</trkpt>
<trkpt lat="32.986618042" lon="35.540676117">
  <ele>447.018066</ele>
  <time>2011-10-15T05:11:39Z</time>
  <speed>1.860000</speed>
</trkpt>
<trkpt lat="32.986648560" lon="35.540668488">
  <ele>447.729004</ele>
  <time>2011-10-15T05:11:41Z</time>
  <speed>1.670000</speed>
</trkpt>
<trkpt lat="32.986679077" lon="35.540660858">
  <ele>448.033691</ele>
  <time>2011-10-15T05:11:43Z</time>
  <speed>1.650000</speed>
</trkpt>
<trkpt lat="32.986709595" lon="35.540649414">
  <ele>449.486816</ele>
  <time>2011-10-15T05:11:45Z</time>
  <speed>1.780000</speed>
</trkpt>
<trkpt lat="32.986740112" lon="35.540637970">
  <ele>448.596191</ele>
  <time>2011-10-15T05:11:47Z</time>
  <speed>1.480000</speed>
</trkpt>
<trkpt lat="32.986766815" lon="35.540622711">
  <ele>449.268066</ele>
  <time>2011-10-15T05:11:49Z</time>
  <speed>1.310000</speed>
</trkpt>
<trkpt lat="32.986808777" lon="35.540615082">
  <ele>448.908691</ele>
  <time>2011-10-15T05:11:52Z</time>
  <speed>1.760000</speed>
</trkpt>
<trkpt lat="32.986835480" lon="35.540615082">
  <ele>449.525879</ele>
  <time>2011-10-15T05:11:54Z</time>
  <speed>1.390000</speed>
</trkpt>
<trkpt lat="32.986865997" lon="35.540611267">
  <ele>450.518066</ele>
  <time>2011-10-15T05:11:56Z</time>
  <speed>1.630000</speed>
</trkpt>
<trkpt lat="32.986904144" lon="35.540603638">
  <ele>452.002441</ele>
  <time>2011-10-15T05:11:59Z</time>
  <speed>1.560000</speed>
</trkpt>
<trkpt lat="32.986934662" lon="35.540611267">
  <ele>453.463379</ele>
  <time>2011-10-15T05:12:01Z</time>
  <speed>1.440000</speed>
</trkpt>
<trkpt lat="32.986965179" lon="35.540618896">
  <ele>454.424316</ele>
  <time>2011-10-15T05:12:03Z</time>
  <speed>1.580000</speed>
</trkpt>
<trkpt lat="32.987007141" lon="35.540615082">
  <ele>455.174316</ele>
  <time>2011-10-15T05:12:06Z</time>
  <speed>1.500000</speed>
</trkpt>
<trkpt lat="32.987045288" lon="35.540599823">
  <ele>454.369629</ele>
  <time>2011-10-15T05:12:08Z</time>
  <speed>1.450000</speed>
</trkpt>
<trkpt lat="32.987071991" lon="35.540603638">
  <ele>455.260254</ele>
  <time>2011-10-15T05:12:10Z</time>
  <speed>1.370000</speed>
</trkpt>
<trkpt lat="32.987102509" lon="35.540599823">
  <ele>456.322754</ele>
  <time>2011-10-15T05:12:13Z</time>
  <speed>1.580000</speed>
</trkpt>
<trkpt lat="32.987140656" lon="35.540596008">
  <ele>457.182129</ele>
  <time>2011-10-15T05:12:16Z</time>
  <speed>1.600000</speed>
</trkpt>
<trkpt lat="32.987178802" lon="35.540599823">
  <ele>457.197754</ele>
  <time>2011-10-15T05:12:18Z</time>
  <speed>1.550000</speed>
</trkpt>
<trkpt lat="32.987205505" lon="35.540596008">
  <ele>457.611816</ele>
  <time>2011-10-15T05:12:20Z</time>
  <speed>1.360000</speed>
</trkpt>
<trkpt lat="32.987236023" lon="35.540596008">
  <ele>457.736816</ele>
  <time>2011-10-15T05:12:22Z</time>
  <speed>1.500000</speed>
</trkpt>
<trkpt lat="32.987262726" lon="35.540576935">
  <ele>458.783691</ele>
  <time>2011-10-15T05:12:25Z</time>
  <speed>1.400000</speed>
</trkpt>
<trkpt lat="32.987289429" lon="35.540576935">
  <ele>458.893066</ele>
  <time>2011-10-15T05:12:27Z</time>
  <speed>1.180000</speed>
</trkpt>
<trkpt lat="32.987323761" lon="35.540588379">
  <ele>459.939941</ele>
  <time>2011-10-15T05:12:30Z</time>
  <speed>1.330000</speed>
</trkpt>
<trkpt lat="32.987350464" lon="35.540569305">
  <ele>459.244629</ele>
  <time>2011-10-15T05:12:33Z</time>
  <speed>1.140000</speed>
</trkpt>
<trkpt lat="32.987380981" lon="35.540546417">
  <ele>459.979004</ele>
  <time>2011-10-15T05:12:36Z</time>
  <speed>1.430000</speed>
</trkpt>
<trkpt lat="32.987415314" lon="35.540550232">
  <ele>461.572754</ele>
  <time>2011-10-15T05:12:38Z</time>
  <speed>1.320000</speed>
</trkpt>
<trkpt lat="32.987449646" lon="35.540546417">
  <ele>461.799316</ele>
  <time>2011-10-15T05:12:41Z</time>
  <speed>1.360000</speed>
</trkpt>
<trkpt lat="32.987483978" lon="35.540534973">
  <ele>461.596191</ele>
  <time>2011-10-15T05:12:44Z</time>
  <speed>1.100000</speed>
</trkpt>
<trkpt lat="32.987518311" lon="35.540531158">
  <ele>461.580566</ele>
  <time>2011-10-15T05:12:46Z</time>
  <speed>1.400000</speed>
</trkpt>
<trkpt lat="32.987548828" lon="35.540515900">
  <ele>461.650879</ele>
  <time>2011-10-15T05:12:49Z</time>
  <speed>1.110000</speed>
</trkpt>
<trkpt lat="32.987579346" lon="35.540500641">
  <ele>462.963379</ele>
  <time>2011-10-15T05:12:52Z</time>
  <speed>1.370000</speed>
</trkpt>
<trkpt lat="32.987613678" lon="35.540489197">
  <ele>463.518066</ele>
  <time>2011-10-15T05:12:55Z</time>
  <speed>1.870000</speed>
</trkpt>
<trkpt lat="32.987640381" lon="35.540489197">
  <ele>463.979004</ele>
  <time>2011-10-15T05:12:57Z</time>
  <speed>1.500000</speed>
</trkpt>
<trkpt lat="32.987674713" lon="35.540466309">
  <ele>464.814941</ele>
  <time>2011-10-15T05:13:00Z</time>
  <speed>1.490000</speed>
</trkpt>
<trkpt lat="32.987701416" lon="35.540443420">
  <ele>464.979004</ele>
  <time>2011-10-15T05:13:03Z</time>
  <speed>1.230000</speed>
</trkpt>
<trkpt lat="32.987724304" lon="35.540424347">
  <ele>465.236816</ele>
  <time>2011-10-15T05:13:05Z</time>
  <speed>1.410000</speed>
</trkpt>
<trkpt lat="32.987751007" lon="35.540424347">
  <ele>466.189941</ele>
  <time>2011-10-15T05:13:07Z</time>
  <speed>1.690000</speed>
</trkpt>
<trkpt lat="32.987781525" lon="35.540416718">
  <ele>466.330566</ele>
  <time>2011-10-15T05:13:09Z</time>
  <speed>1.560000</speed>
</trkpt>
<trkpt lat="32.987808228" lon="35.540405273">
  <ele>467.486816</ele>
  <time>2011-10-15T05:13:11Z</time>
  <speed>1.560000</speed>
</trkpt>
<trkpt lat="32.987846375" lon="35.540382385">
  <ele>468.424316</ele>
  <time>2011-10-15T05:13:14Z</time>
  <speed>1.690000</speed>
</trkpt>
<trkpt lat="32.987876892" lon="35.540374756">
  <ele>468.869629</ele>
  <time>2011-10-15T05:13:16Z</time>
  <speed>1.540000</speed>
</trkpt>
<trkpt lat="32.987915039" lon="35.540363312">
  <ele>469.393066</ele>
  <time>2011-10-15T05:13:19Z</time>
  <speed>1.670000</speed>
</trkpt>
<trkpt lat="32.987953186" lon="35.540348053">
  <ele>469.354004</ele>
  <time>2011-10-15T05:13:22Z</time>
  <speed>1.690000</speed>
</trkpt>
<trkpt lat="32.987991333" lon="35.540332794">
  <ele>469.455566</ele>
  <time>2011-10-15T05:13:25Z</time>
  <speed>1.530000</speed>
</trkpt>
<trkpt lat="32.988025665" lon="35.540325165">
  <ele>469.893066</ele>
  <time>2011-10-15T05:13:27Z</time>
  <speed>1.470000</speed>
</trkpt>
<trkpt lat="32.988056183" lon="35.540328979">
  <ele>469.619629</ele>
  <time>2011-10-15T05:13:29Z</time>
  <speed>1.420000</speed>
</trkpt>
<trkpt lat="32.988086700" lon="35.540317535">
  <ele>471.127441</ele>
  <time>2011-10-15T05:13:31Z</time>
  <speed>1.470000</speed>
</trkpt>
<trkpt lat="32.988121033" lon="35.540306091">
  <ele>471.041504</ele>
  <time>2011-10-15T05:13:34Z</time>
  <speed>1.310000</speed>
</trkpt>
<trkpt lat="32.988151550" lon="35.540290833">
  <ele>471.869629</ele>
  <time>2011-10-15T05:13:37Z</time>
  <speed>1.250000</speed>
</trkpt>
<trkpt lat="32.988182068" lon="35.540267944">
  <ele>472.479004</ele>
  <time>2011-10-15T05:13:40Z</time>
  <speed>1.400000</speed>
</trkpt>
<trkpt lat="32.988216400" lon="35.540260315">
  <ele>473.299316</ele>
  <time>2011-10-15T05:13:43Z</time>
  <speed>1.280000</speed>
</trkpt>
<trkpt lat="32.988250732" lon="35.540248871">
  <ele>474.557129</ele>
  <time>2011-10-15T05:13:46Z</time>
  <speed>1.540000</speed>
</trkpt>
<trkpt lat="32.988281250" lon="35.540237427">
  <ele>474.947754</ele>
  <time>2011-10-15T05:13:49Z</time>
  <speed>0.930000</speed>
</trkpt>
<trkpt lat="32.988311768" lon="35.540222168">
  <ele>475.596191</ele>
  <time>2011-10-15T05:13:52Z</time>
  <speed>1.310000</speed>
</trkpt>
<trkpt lat="32.988338470" lon="35.540199280">
  <ele>477.564941</ele>
  <time>2011-10-15T05:13:55Z</time>
  <speed>1.370000</speed>
</trkpt>
<trkpt lat="32.988368988" lon="35.540184021">
  <ele>478.049316</ele>
  <time>2011-10-15T05:13:58Z</time>
  <speed>1.210000</speed>
</trkpt>
<trkpt lat="32.988399506" lon="35.540172577">
  <ele>479.439941</ele>
  <time>2011-10-15T05:14:01Z</time>
  <speed>1.320000</speed>
</trkpt>
<trkpt lat="32.988422394" lon="35.540149689">
  <ele>480.275879</ele>
  <time>2011-10-15T05:14:03Z</time>
  <speed>1.390000</speed>
</trkpt>
<trkpt lat="32.988449097" lon="35.540142059">
  <ele>481.080566</ele>
  <time>2011-10-15T05:14:05Z</time>
  <speed>1.290000</speed>
</trkpt>
<trkpt lat="32.988471985" lon="35.540126801">
  <ele>483.096191</ele>
  <time>2011-10-15T05:14:08Z</time>
  <speed>1.130000</speed>
</trkpt>
<trkpt lat="32.988498688" lon="35.540107727">
  <ele>484.564941</ele>
  <time>2011-10-15T05:14:11Z</time>
  <speed>1.200000</speed>
</trkpt>
<trkpt lat="32.988525391" lon="35.540100098">
  <ele>485.768066</ele>
  <time>2011-10-15T05:14:14Z</time>
  <speed>1.220000</speed>
</trkpt>
<trkpt lat="32.988555908" lon="35.540084839">
  <ele>485.955566</ele>
  <time>2011-10-15T05:14:17Z</time>
  <speed>1.230000</speed>
</trkpt>
<trkpt lat="32.988586426" lon="35.540096283">
  <ele>485.674316</ele>
  <time>2011-10-15T05:14:19Z</time>
  <speed>1.080000</speed>
</trkpt>
<trkpt lat="32.988616943" lon="35.540077209">
  <ele>485.080566</ele>
  <time>2011-10-15T05:14:21Z</time>
  <speed>1.070000</speed>
</trkpt>
<trkpt lat="32.988655090" lon="35.540069580">
  <ele>485.221191</ele>
  <time>2011-10-15T05:14:24Z</time>
  <speed>1.390000</speed>
</trkpt>
<trkpt lat="32.988681793" lon="35.540050507">
  <ele>485.018066</ele>
  <time>2011-10-15T05:14:27Z</time>
  <speed>1.340000</speed>
</trkpt>
<trkpt lat="32.988704681" lon="35.540027618">
  <ele>486.471191</ele>
  <time>2011-10-15T05:14:29Z</time>
  <speed>1.380000</speed>
</trkpt>
<trkpt lat="32.988742828" lon="35.540023804">
  <ele>485.799316</ele>
  <time>2011-10-15T05:14:32Z</time>
  <speed>1.280000</speed>
</trkpt>
<trkpt lat="32.988765717" lon="35.540016174">
  <ele>487.260254</ele>
  <time>2011-10-15T05:14:35Z</time>
  <speed>0.920000</speed>
</trkpt>
<trkpt lat="32.988796234" lon="35.540004730">
  <ele>486.705566</ele>
  <time>2011-10-15T05:14:38Z</time>
  <speed>1.390000</speed>
</trkpt>
<trkpt lat="32.988822937" lon="35.539997101">
  <ele>487.299316</ele>
  <time>2011-10-15T05:14:40Z</time>
  <speed>1.180000</speed>
</trkpt>
<trkpt lat="32.988861084" lon="35.539989471">
  <ele>486.322754</ele>
  <time>2011-10-15T05:14:43Z</time>
  <speed>1.380000</speed>
</trkpt>
<trkpt lat="32.988887787" lon="35.539978027">
  <ele>485.838379</ele>
  <time>2011-10-15T05:14:45Z</time>
  <speed>1.390000</speed>
</trkpt>
<trkpt lat="32.988914490" lon="35.539962769">
  <ele>485.908691</ele>
  <time>2011-10-15T05:14:47Z</time>
  <speed>1.540000</speed>
</trkpt>
<trkpt lat="32.988941193" lon="35.539939880">
  <ele>484.525879</ele>
  <time>2011-10-15T05:14:49Z</time>
  <speed>1.810000</speed>
</trkpt>
<trkpt lat="32.988975525" lon="35.539920807">
  <ele>484.244629</ele>
  <time>2011-10-15T05:14:51Z</time>
  <speed>1.630000</speed>
</trkpt>
<trkpt lat="32.988998413" lon="35.539909363">
  <ele>484.674316</ele>
  <time>2011-10-15T05:14:53Z</time>
  <speed>1.460000</speed>
</trkpt>
<trkpt lat="32.989028931" lon="35.539886475">
  <ele>484.189941</ele>
  <time>2011-10-15T05:14:56Z</time>
  <speed>1.780000</speed>
</trkpt>
<trkpt lat="32.989051819" lon="35.539867401">
  <ele>484.604004</ele>
  <time>2011-10-15T05:14:58Z</time>
  <speed>1.490000</speed>
</trkpt>
<trkpt lat="32.989074707" lon="35.539852142">
  <ele>484.674316</ele>
  <time>2011-10-15T05:15:00Z</time>
  <speed>1.540000</speed>
</trkpt>
<trkpt lat="32.989101410" lon="35.539840698">
  <ele>485.127441</ele>
  <time>2011-10-15T05:15:02Z</time>
  <speed>1.460000</speed>
</trkpt>
<trkpt lat="32.989116669" lon="35.539813995">
  <ele>486.416504</ele>
  <time>2011-10-15T05:15:04Z</time>
  <speed>1.570000</speed>
</trkpt>
<trkpt lat="32.989143372" lon="35.539798737">
  <ele>485.658691</ele>
  <time>2011-10-15T05:15:06Z</time>
  <speed>1.510000</speed>
</trkpt>
<trkpt lat="32.989170074" lon="35.539775848">
  <ele>485.877441</ele>
  <time>2011-10-15T05:15:08Z</time>
  <speed>1.450000</speed>
</trkpt>
<trkpt lat="32.989196777" lon="35.539741516">
  <ele>485.369629</ele>
  <time>2011-10-15T05:15:11Z</time>
  <speed>1.450000</speed>
</trkpt>
<trkpt lat="32.989219666" lon="35.539730072">
  <ele>484.658691</ele>
  <time>2011-10-15T05:15:13Z</time>
  <speed>1.380000</speed>
</trkpt>
<trkpt lat="32.989253998" lon="35.539703369">
  <ele>483.916504</ele>
  <time>2011-10-15T05:15:16Z</time>
  <speed>1.420000</speed>
</trkpt>
<trkpt lat="32.989288330" lon="35.539691925">
  <ele>483.908691</ele>
  <time>2011-10-15T05:15:19Z</time>
  <speed>1.340000</speed>
</trkpt>
<trkpt lat="32.989322662" lon="35.539680481">
  <ele>483.119629</ele>
  <time>2011-10-15T05:15:22Z</time>
  <speed>1.720000</speed>
</trkpt>
<trkpt lat="32.989360809" lon="35.539657593">
  <ele>482.963379</ele>
  <time>2011-10-15T05:15:24Z</time>
  <speed>1.820000</speed>
</trkpt>
<trkpt lat="32.989379883" lon="35.539634705">
  <ele>484.096191</ele>
  <time>2011-10-15T05:15:27Z</time>
  <speed>0.880000</speed>
</trkpt>
<trkpt lat="32.989418030" lon="35.539634705">
  <ele>486.229004</ele>
  <time>2011-10-15T05:15:29Z</time>
  <speed>1.280000</speed>
</trkpt>
<trkpt lat="32.989448547" lon="35.539623260">
  <ele>486.080566</ele>
  <time>2011-10-15T05:15:31Z</time>
  <speed>1.340000</speed>
</trkpt>
<trkpt lat="32.989475250" lon="35.539623260">
  <ele>486.549316</ele>
  <time>2011-10-15T05:15:33Z</time>
  <speed>1.510000</speed>
</trkpt>
<trkpt lat="32.989505768" lon="35.539627075">
  <ele>487.971191</ele>
  <time>2011-10-15T05:15:35Z</time>
  <speed>1.240000</speed>
</trkpt>
<trkpt lat="32.989536285" lon="35.539634705">
  <ele>489.002441</ele>
  <time>2011-10-15T05:15:37Z</time>
  <speed>1.430000</speed>
</trkpt>
<trkpt lat="32.989562988" lon="35.539657593">
  <ele>489.018066</ele>
  <time>2011-10-15T05:15:39Z</time>
  <speed>1.480000</speed>
</trkpt>
<trkpt lat="32.989589691" lon="35.539665222">
  <ele>490.127441</ele>
  <time>2011-10-15T05:15:42Z</time>
  <speed>1.620000</speed>
</trkpt>
<trkpt lat="32.989631653" lon="35.539665222">
  <ele>491.057129</ele>
  <time>2011-10-15T05:15:45Z</time>
  <speed>1.580000</speed>
</trkpt>
<trkpt lat="32.989665985" lon="35.539669037">
  <ele>491.111816</ele>
  <time>2011-10-15T05:15:47Z</time>
  <speed>1.500000</speed>
</trkpt>
<trkpt lat="32.989685059" lon="35.539691925">
  <ele>491.744629</ele>
  <time>2011-10-15T05:15:49Z</time>
  <speed>1.160000</speed>
</trkpt>
<trkpt lat="32.989723206" lon="35.539699554">
  <ele>492.432129</ele>
  <time>2011-10-15T05:15:52Z</time>
  <speed>1.500000</speed>
</trkpt>
<trkpt lat="32.989757538" lon="35.539703369">
  <ele>493.041504</ele>
  <time>2011-10-15T05:15:54Z</time>
  <speed>1.460000</speed>
</trkpt>
<trkpt lat="32.989780426" lon="35.539710999">
  <ele>496.049316</ele>
  <time>2011-10-15T05:15:56Z</time>
  <speed>1.530000</speed>
</trkpt>
<trkpt lat="32.989807129" lon="35.539722443">
  <ele>497.291504</ele>
  <time>2011-10-15T05:15:58Z</time>
  <speed>1.510000</speed>
</trkpt>
<trkpt lat="32.989841461" lon="35.539710999">
  <ele>496.861816</ele>
  <time>2011-10-15T05:16:00Z</time>
  <speed>1.650000</speed>
</trkpt>
<trkpt lat="32.989875793" lon="35.539710999">
  <ele>498.143066</ele>
  <time>2011-10-15T05:16:02Z</time>
  <speed>1.580000</speed>
</trkpt>
<trkpt lat="32.989906311" lon="35.539730072">
  <ele>499.486816</ele>
  <time>2011-10-15T05:16:04Z</time>
  <speed>1.520000</speed>
</trkpt>
<trkpt lat="32.989940643" lon="35.539730072">
  <ele>499.674316</ele>
  <time>2011-10-15T05:16:06Z</time>
  <speed>1.530000</speed>
</trkpt>
<trkpt lat="32.989971161" lon="35.539737701">
  <ele>498.861816</ele>
  <time>2011-10-15T05:16:08Z</time>
  <speed>1.590000</speed>
</trkpt>
<trkpt lat="32.990005493" lon="35.539752960">
  <ele>498.400879</ele>
  <time>2011-10-15T05:16:11Z</time>
  <speed>1.510000</speed>
</trkpt>
<trkpt lat="32.990047455" lon="35.539749146">
  <ele>498.213379</ele>
  <time>2011-10-15T05:16:14Z</time>
  <speed>1.810000</speed>
</trkpt>
<trkpt lat="32.990081787" lon="35.539752960">
  <ele>499.057129</ele>
  <time>2011-10-15T05:16:16Z</time>
  <speed>1.690000</speed>
</trkpt>
<trkpt lat="32.990108490" lon="35.539756775">
  <ele>499.697754</ele>
  <time>2011-10-15T05:16:18Z</time>
  <speed>1.440000</speed>
</trkpt>
<trkpt lat="32.990146637" lon="35.539756775">
  <ele>499.846191</ele>
  <time>2011-10-15T05:16:20Z</time>
  <speed>1.440000</speed>
</trkpt>
<trkpt lat="32.990173340" lon="35.539760590">
  <ele>499.955566</ele>
  <time>2011-10-15T05:16:22Z</time>
  <speed>1.600000</speed>
</trkpt>
<trkpt lat="32.990207672" lon="35.539768219">
  <ele>500.510254</ele>
  <time>2011-10-15T05:16:24Z</time>
  <speed>1.790000</speed>
</trkpt>
<trkpt lat="32.990245819" lon="35.539772034">
  <ele>500.807129</ele>
  <time>2011-10-15T05:16:26Z</time>
  <speed>1.690000</speed>
</trkpt>
<trkpt lat="32.990287781" lon="35.539779663">
  <ele>501.916504</ele>
  <time>2011-10-15T05:16:29Z</time>
  <speed>1.590000</speed>
</trkpt>
<trkpt lat="32.990329742" lon="35.539775848">
  <ele>502.689941</ele>
  <time>2011-10-15T05:16:32Z</time>
  <speed>1.700000</speed>
</trkpt>
<trkpt lat="32.990352631" lon="35.539779663">
  <ele>504.885254</ele>
  <time>2011-10-15T05:16:34Z</time>
  <speed>1.540000</speed>
</trkpt>
<trkpt lat="32.990379333" lon="35.539779663">
  <ele>506.338379</ele>
  <time>2011-10-15T05:16:36Z</time>
  <speed>1.450000</speed>
</trkpt>
<trkpt lat="32.990417480" lon="35.539775848">
  <ele>507.018066</ele>
  <time>2011-10-15T05:16:39Z</time>
  <speed>1.480000</speed>
</trkpt>
<trkpt lat="32.990447998" lon="35.539779663">
  <ele>506.939941</ele>
  <time>2011-10-15T05:16:41Z</time>
  <speed>1.520000</speed>
</trkpt>
<trkpt lat="32.990474701" lon="35.539783478">
  <ele>508.182129</ele>
  <time>2011-10-15T05:16:43Z</time>
  <speed>1.600000</speed>
</trkpt>
<trkpt lat="32.990509033" lon="35.539791107">
  <ele>508.033691</ele>
  <time>2011-10-15T05:16:45Z</time>
  <speed>1.560000</speed>
</trkpt>
<trkpt lat="32.990543365" lon="35.539779663">
  <ele>506.666504</ele>
  <time>2011-10-15T05:16:48Z</time>
  <speed>1.310000</speed>
</trkpt>
<trkpt lat="32.990570068" lon="35.539756775">
  <ele>506.330566</ele>
  <time>2011-10-15T05:16:50Z</time>
  <speed>1.500000</speed>
</trkpt>
<trkpt lat="32.990604401" lon="35.539730072">
  <ele>506.635254</ele>
  <time>2011-10-15T05:16:53Z</time>
  <speed>1.660000</speed>
</trkpt>
<trkpt lat="32.990627289" lon="35.539699554">
  <ele>505.510254</ele>
  <time>2011-10-15T05:16:55Z</time>
  <speed>1.400000</speed>
</trkpt>
<trkpt lat="32.990642548" lon="35.539672852">
  <ele>504.869629</ele>
  <time>2011-10-15T05:16:57Z</time>
  <speed>1.530000</speed>
</trkpt>
<trkpt lat="32.990661621" lon="35.539642334">
  <ele>504.650879</ele>
  <time>2011-10-15T05:16:59Z</time>
  <speed>1.400000</speed>
</trkpt>
<trkpt lat="32.990680695" lon="35.539611816">
  <ele>503.814941</ele>
  <time>2011-10-15T05:17:01Z</time>
  <speed>1.560000</speed>
</trkpt>
<trkpt lat="32.990695953" lon="35.539566040">
  <ele>504.893066</ele>
  <time>2011-10-15T05:17:03Z</time>
  <speed>1.620000</speed>
</trkpt>
<trkpt lat="32.990726471" lon="35.539550781">
  <ele>507.299316</ele>
  <time>2011-10-15T05:17:06Z</time>
  <speed>1.420000</speed>
</trkpt>
<trkpt lat="32.990753174" lon="35.539535522">
  <ele>508.588379</ele>
  <time>2011-10-15T05:17:08Z</time>
  <speed>1.640000</speed>
</trkpt>
<trkpt lat="32.990768433" lon="35.539493561">
  <ele>508.588379</ele>
  <time>2011-10-15T05:17:10Z</time>
  <speed>1.590000</speed>
</trkpt>
<trkpt lat="32.990787506" lon="35.539470673">
  <ele>508.979004</ele>
  <time>2011-10-15T05:17:12Z</time>
  <speed>1.450000</speed>
</trkpt>
<trkpt lat="32.990810394" lon="35.539443970">
  <ele>509.619629</ele>
  <time>2011-10-15T05:17:15Z</time>
  <speed>0.790000</speed>
</trkpt>
<trkpt lat="32.990833282" lon="35.539421082">
  <ele>509.689941</ele>
  <time>2011-10-15T05:17:17Z</time>
  <speed>1.090000</speed>
</trkpt>
<trkpt lat="32.990859985" lon="35.539394379">
  <ele>510.658691</ele>
  <time>2011-10-15T05:17:20Z</time>
  <speed>1.110000</speed>
</trkpt>
<trkpt lat="32.990879059" lon="35.539360046">
  <ele>512.145508</ele>
  <time>2011-10-15T05:17:23Z</time>
  <speed>0.980000</speed>
</trkpt>
<trkpt lat="32.990898132" lon="35.539337158">
  <ele>512.036133</ele>
  <time>2011-10-15T05:17:26Z</time>
  <speed>1.230000</speed>
</trkpt>
<trkpt lat="32.990909576" lon="35.539302826">
  <ele>512.786133</ele>
  <time>2011-10-15T05:17:28Z</time>
  <speed>1.110000</speed>
</trkpt>
<trkpt lat="32.990921021" lon="35.539268494">
  <ele>513.239258</ele>
  <time>2011-10-15T05:17:30Z</time>
  <speed>1.470000</speed>
</trkpt>
<trkpt lat="32.990936279" lon="35.539234161">
  <ele>514.098633</ele>
  <time>2011-10-15T05:17:33Z</time>
  <speed>1.300000</speed>
</trkpt>
<trkpt lat="32.990951538" lon="35.539188385">
  <ele>514.661133</ele>
  <time>2011-10-15T05:17:35Z</time>
  <speed>1.380000</speed>
</trkpt>
<trkpt lat="32.990970612" lon="35.539157867">
  <ele>515.958008</ele>
  <time>2011-10-15T05:17:38Z</time>
  <speed>1.110000</speed>
</trkpt>
<trkpt lat="32.990997314" lon="35.539142609">
  <ele>515.942383</ele>
  <time>2011-10-15T05:17:41Z</time>
  <speed>1.270000</speed>
</trkpt>
<trkpt lat="32.991001129" lon="35.539100647">
  <ele>517.223633</ele>
  <time>2011-10-15T05:17:44Z</time>
  <speed>0.900000</speed>
</trkpt>
<trkpt lat="32.991016388" lon="35.539070129">
  <ele>518.036133</ele>
  <time>2011-10-15T05:17:47Z</time>
  <speed>0.930000</speed>
</trkpt>
<trkpt lat="32.991035461" lon="35.539043427">
  <ele>519.067383</ele>
  <time>2011-10-15T05:17:50Z</time>
  <speed>0.800000</speed>
</trkpt>
<trkpt lat="32.991046906" lon="35.539012909">
  <ele>519.926758</ele>
  <time>2011-10-15T05:17:53Z</time>
  <speed>1.010000</speed>
</trkpt>
<trkpt lat="32.991065979" lon="35.539012909">
  <ele>522.551758</ele>
  <time>2011-10-15T05:17:55Z</time>
  <speed>0.900000</speed>
</trkpt>
<trkpt lat="32.991085052" lon="35.538967133">
  <ele>524.426758</ele>
  <time>2011-10-15T05:17:58Z</time>
  <speed>1.000000</speed>
</trkpt>
<trkpt lat="32.991104126" lon="35.538944244">
  <ele>524.551758</ele>
  <time>2011-10-15T05:18:01Z</time>
  <speed>1.180000</speed>
</trkpt>
<trkpt lat="32.991115570" lon="35.538913727">
  <ele>523.942383</ele>
  <time>2011-10-15T05:18:03Z</time>
  <speed>1.180000</speed>
</trkpt>
<trkpt lat="32.991142273" lon="35.538894653">
  <ele>525.083008</ele>
  <time>2011-10-15T05:18:06Z</time>
  <speed>1.060000</speed>
</trkpt>
<trkpt lat="32.991161346" lon="35.538860321">
  <ele>526.129883</ele>
  <time>2011-10-15T05:18:09Z</time>
  <speed>1.240000</speed>
</trkpt>
<trkpt lat="32.991176605" lon="35.538822174">
  <ele>527.036133</ele>
  <time>2011-10-15T05:18:12Z</time>
  <speed>1.100000</speed>
</trkpt>
<trkpt lat="32.991188049" lon="35.538791656">
  <ele>526.895508</ele>
  <time>2011-10-15T05:18:14Z</time>
  <speed>1.160000</speed>
</trkpt>
<trkpt lat="32.991222382" lon="35.538784027">
  <ele>527.442383</ele>
  <time>2011-10-15T05:18:16Z</time>
  <speed>1.310000</speed>
</trkpt>
<trkpt lat="32.991252899" lon="35.538764954">
  <ele>528.911133</ele>
  <time>2011-10-15T05:18:18Z</time>
  <speed>1.000000</speed>
</trkpt>
<trkpt lat="32.991279602" lon="35.538738251">
  <ele>529.926758</ele>
  <time>2011-10-15T05:18:22Z</time>
  <speed>1.230000</speed>
</trkpt>
<trkpt lat="32.991306305" lon="35.538719177">
  <ele>530.614258</ele>
  <time>2011-10-15T05:18:25Z</time>
  <speed>1.100000</speed>
</trkpt>
<trkpt lat="32.991340637" lon="35.538700104">
  <ele>530.770508</ele>
  <time>2011-10-15T05:18:27Z</time>
  <speed>1.220000</speed>
</trkpt>
<trkpt lat="32.991367340" lon="35.538696289">
  <ele>531.395508</ele>
  <time>2011-10-15T05:18:29Z</time>
  <speed>0.880000</speed>
</trkpt>
<trkpt lat="32.991401672" lon="35.538696289">
  <ele>531.395508</ele>
  <time>2011-10-15T05:18:32Z</time>
  <speed>1.160000</speed>
</trkpt>
<trkpt lat="32.991436005" lon="35.538700104">
  <ele>532.036133</ele>
  <time>2011-10-15T05:18:35Z</time>
  <speed>1.280000</speed>
</trkpt>
<trkpt lat="32.991466522" lon="35.538692474">
  <ele>533.254883</ele>
  <time>2011-10-15T05:18:39Z</time>
  <speed>0.700000</speed>
</trkpt>
<trkpt lat="32.991493225" lon="35.538715363">
  <ele>532.254883</ele>
  <time>2011-10-15T05:18:42Z</time>
  <speed>0.680000</speed>
</trkpt>
<trkpt lat="32.991527557" lon="35.538711548">
  <ele>532.536133</ele>
  <time>2011-10-15T05:18:44Z</time>
  <speed>1.020000</speed>
</trkpt>
<trkpt lat="32.991550446" lon="35.538726807">
  <ele>533.817383</ele>
  <time>2011-10-15T05:18:46Z</time>
  <speed>0.930000</speed>
</trkpt>
<trkpt lat="32.991573334" lon="35.538749695">
  <ele>534.583008</ele>
  <time>2011-10-15T05:18:49Z</time>
  <speed>1.010000</speed>
</trkpt>
<trkpt lat="32.991600037" lon="35.538753510">
  <ele>534.348633</ele>
  <time>2011-10-15T05:18:51Z</time>
  <speed>1.190000</speed>
</trkpt>
<trkpt lat="32.991630554" lon="35.538757324">
  <ele>534.036133</ele>
  <time>2011-10-15T05:18:54Z</time>
  <speed>0.900000</speed>
</trkpt>
<trkpt lat="32.991661072" lon="35.538761139">
  <ele>534.676758</ele>
  <time>2011-10-15T05:18:57Z</time>
  <speed>1.330000</speed>
</trkpt>
<trkpt lat="32.991695404" lon="35.538761139">
  <ele>532.489258</ele>
  <time>2011-10-15T05:19:00Z</time>
  <speed>1.160000</speed>
</trkpt>
<trkpt lat="32.991733551" lon="35.538734436">
  <ele>531.286133</ele>
  <time>2011-10-15T05:19:03Z</time>
  <speed>1.340000</speed>
</trkpt>
<trkpt lat="32.991767883" lon="35.538730621">
  <ele>531.676758</ele>
  <time>2011-10-15T05:19:05Z</time>
  <speed>1.450000</speed>
</trkpt>
<trkpt lat="32.991790771" lon="35.538707733">
  <ele>530.629883</ele>
  <time>2011-10-15T05:19:08Z</time>
  <speed>1.070000</speed>
</trkpt>
<trkpt lat="32.991809845" lon="35.538681030">
  <ele>530.614258</ele>
  <time>2011-10-15T05:19:11Z</time>
  <speed>1.230000</speed>
</trkpt>
<trkpt lat="32.991840363" lon="35.538661957">
  <ele>530.754883</ele>
  <time>2011-10-15T05:19:14Z</time>
  <speed>1.240000</speed>
</trkpt>
<trkpt lat="32.991867065" lon="35.538642883">
  <ele>529.629883</ele>
  <time>2011-10-15T05:19:17Z</time>
  <speed>0.940000</speed>
</trkpt>
<trkpt lat="32.991886139" lon="35.538608551">
  <ele>530.208008</ele>
  <time>2011-10-15T05:19:20Z</time>
  <speed>0.920000</speed>
</trkpt>
<trkpt lat="32.991901398" lon="35.538574219">
  <ele>530.114258</ele>
  <time>2011-10-15T05:19:22Z</time>
  <speed>1.340000</speed>
</trkpt>
<trkpt lat="32.991916656" lon="35.538536072">
  <ele>530.458008</ele>
  <time>2011-10-15T05:19:25Z</time>
  <speed>1.330000</speed>
</trkpt>
<trkpt lat="32.991924286" lon="35.538505554">
  <ele>530.817383</ele>
  <time>2011-10-15T05:19:28Z</time>
  <speed>1.030000</speed>
</trkpt>
<trkpt lat="32.991893768" lon="35.538478851">
  <ele>531.161133</ele>
  <time>2011-10-15T05:19:31Z</time>
  <speed>1.190000</speed>
</trkpt>
<trkpt lat="32.991870880" lon="35.538452148">
  <ele>531.083008</ele>
  <time>2011-10-15T05:19:34Z</time>
  <speed>1.060000</speed>
</trkpt>
<trkpt lat="32.991851807" lon="35.538421631">
  <ele>532.254883</ele>
  <time>2011-10-15T05:19:36Z</time>
  <speed>1.240000</speed>
</trkpt>
<trkpt lat="32.991825104" lon="35.538391113">
  <ele>532.223633</ele>
  <time>2011-10-15T05:19:39Z</time>
  <speed>1.080000</speed>
</trkpt>
<trkpt lat="32.991794586" lon="35.538372040">
  <ele>534.708008</ele>
  <time>2011-10-15T05:19:42Z</time>
  <speed>1.320000</speed>
</trkpt>
<trkpt lat="32.991775513" lon="35.538356781">
  <ele>535.786133</ele>
  <time>2011-10-15T05:19:44Z</time>
  <speed>1.220000</speed>
</trkpt>
<trkpt lat="32.991741180" lon="35.538341522">
  <ele>537.036133</ele>
  <time>2011-10-15T05:19:46Z</time>
  <speed>1.510000</speed>
</trkpt>
<trkpt lat="32.991703033" lon="35.538337708">
  <ele>538.551758</ele>
  <time>2011-10-15T05:19:48Z</time>
  <speed>1.220000</speed>
</trkpt>
<trkpt lat="32.991672516" lon="35.538337708">
  <ele>538.926758</ele>
  <time>2011-10-15T05:19:50Z</time>
  <speed>1.240000</speed>
</trkpt>
<trkpt lat="32.991645813" lon="35.538326263">
  <ele>539.817383</ele>
  <time>2011-10-15T05:19:52Z</time>
  <speed>1.170000</speed>
</trkpt>
<trkpt lat="32.991615295" lon="35.538322449">
  <ele>540.239258</ele>
  <time>2011-10-15T05:19:55Z</time>
  <speed>1.140000</speed>
</trkpt>
<trkpt lat="32.991577148" lon="35.538314819">
  <ele>540.411133</ele>
  <time>2011-10-15T05:19:58Z</time>
  <speed>1.180000</speed>
</trkpt>
<trkpt lat="32.991546631" lon="35.538303375">
  <ele>541.239258</ele>
  <time>2011-10-15T05:20:01Z</time>
  <speed>0.700000</speed>
</trkpt>
<trkpt lat="32.991508484" lon="35.538291931">
  <ele>542.067383</ele>
  <time>2011-10-15T05:20:04Z</time>
  <speed>1.040000</speed>
</trkpt>
<trkpt lat="32.991474152" lon="35.538288116">
  <ele>542.536133</ele>
  <time>2011-10-15T05:20:06Z</time>
  <speed>1.880000</speed>
</trkpt>
<trkpt lat="32.991436005" lon="35.538261414">
  <ele>542.020508</ele>
  <time>2011-10-15T05:20:08Z</time>
  <speed>1.890000</speed>
</trkpt>
<trkpt lat="32.991413116" lon="35.538246155">
  <ele>542.192383</ele>
  <time>2011-10-15T05:20:10Z</time>
  <speed>1.800000</speed>
</trkpt>
<trkpt lat="32.991367340" lon="35.538234711">
  <ele>542.770508</ele>
  <time>2011-10-15T05:20:13Z</time>
  <speed>1.410000</speed>
</trkpt>
<trkpt lat="32.991336823" lon="35.538234711">
  <ele>543.989258</ele>
  <time>2011-10-15T05:20:15Z</time>
  <speed>1.340000</speed>
</trkpt>
<trkpt lat="32.991310120" lon="35.538219452">
  <ele>544.645508</ele>
  <time>2011-10-15T05:20:17Z</time>
  <speed>1.540000</speed>
</trkpt>
<trkpt lat="32.991275787" lon="35.538196564">
  <ele>545.254883</ele>
  <time>2011-10-15T05:20:19Z</time>
  <speed>1.760000</speed>
</trkpt>
<trkpt lat="32.991237640" lon="35.538169861">
  <ele>546.004883</ele>
  <time>2011-10-15T05:20:22Z</time>
  <speed>1.740000</speed>
</trkpt>
<trkpt lat="32.991214752" lon="35.538139343">
  <ele>545.817383</ele>
  <time>2011-10-15T05:20:24Z</time>
  <speed>1.390000</speed>
</trkpt>
<trkpt lat="32.991191864" lon="35.538105011">
  <ele>545.708008</ele>
  <time>2011-10-15T05:20:27Z</time>
  <speed>1.430000</speed>
</trkpt>
<trkpt lat="32.991172791" lon="35.538078308">
  <ele>546.348633</ele>
  <time>2011-10-15T05:20:29Z</time>
  <speed>1.290000</speed>
</trkpt>
<trkpt lat="32.991146088" lon="35.538047791">
  <ele>546.426758</ele>
  <time>2011-10-15T05:20:31Z</time>
  <speed>1.520000</speed>
</trkpt>
<trkpt lat="32.991119385" lon="35.538024902">
  <ele>546.754883</ele>
  <time>2011-10-15T05:20:33Z</time>
  <speed>1.300000</speed>
</trkpt>
<trkpt lat="32.991104126" lon="35.537990570">
  <ele>547.426758</ele>
  <time>2011-10-15T05:20:35Z</time>
  <speed>1.500000</speed>
</trkpt>
<trkpt lat="32.991088867" lon="35.537956238">
  <ele>546.567383</ele>
  <time>2011-10-15T05:20:38Z</time>
  <speed>1.060000</speed>
</trkpt>
<trkpt lat="32.991062164" lon="35.537937164">
  <ele>547.629883</ele>
  <time>2011-10-15T05:20:40Z</time>
  <speed>1.390000</speed>
</trkpt>
<trkpt lat="32.991050720" lon="35.537910461">
  <ele>547.864258</ele>
  <time>2011-10-15T05:20:42Z</time>
  <speed>1.300000</speed>
</trkpt>
<trkpt lat="32.991027832" lon="35.537883759">
  <ele>547.661133</ele>
  <time>2011-10-15T05:20:44Z</time>
  <speed>1.090000</speed>
</trkpt>
<trkpt lat="32.991016388" lon="35.537845612">
  <ele>548.379883</ele>
  <time>2011-10-15T05:20:46Z</time>
  <speed>1.080000</speed>
</trkpt>
<trkpt lat="32.991004944" lon="35.537818909">
  <ele>549.676758</ele>
  <time>2011-10-15T05:20:49Z</time>
  <speed>0.830000</speed>
</trkpt>
<trkpt lat="32.991008759" lon="35.537780762">
  <ele>550.083008</ele>
  <time>2011-10-15T05:20:52Z</time>
  <speed>0.890000</speed>
</trkpt>
<trkpt lat="32.991008759" lon="35.537750244">
  <ele>551.145508</ele>
  <time>2011-10-15T05:20:55Z</time>
  <speed>1.050000</speed>
</trkpt>
<trkpt lat="32.991004944" lon="35.537715912">
  <ele>551.551758</ele>
  <time>2011-10-15T05:20:57Z</time>
  <speed>1.080000</speed>
</trkpt>
<trkpt lat="32.990997314" lon="35.537673950">
  <ele>552.270508</ele>
  <time>2011-10-15T05:20:59Z</time>
  <speed>1.180000</speed>
</trkpt>
<trkpt lat="32.991001129" lon="35.537631989">
  <ele>552.723633</ele>
  <time>2011-10-15T05:21:01Z</time>
  <speed>1.100000</speed>
</trkpt>
<trkpt lat="32.990997314" lon="35.537593842">
  <ele>553.567383</ele>
  <time>2011-10-15T05:21:03Z</time>
  <speed>1.120000</speed>
</trkpt>
<trkpt lat="32.990982056" lon="35.537544250">
  <ele>554.020508</ele>
  <time>2011-10-15T05:21:06Z</time>
  <speed>0.990000</speed>
</trkpt>
<trkpt lat="32.990970612" lon="35.537509918">
  <ele>554.020508</ele>
  <time>2011-10-15T05:21:09Z</time>
  <speed>0.810000</speed>
</trkpt>
<trkpt lat="32.990955353" lon="35.537475586">
  <ele>554.473633</ele>
  <time>2011-10-15T05:21:12Z</time>
  <speed>1.080000</speed>
</trkpt>
<trkpt lat="32.990970612" lon="35.537445068">
  <ele>555.208008</ele>
  <time>2011-10-15T05:21:14Z</time>
  <speed>1.180000</speed>
</trkpt>
<trkpt lat="32.990989685" lon="35.537418365">
  <ele>555.739258</ele>
  <time>2011-10-15T05:21:16Z</time>
  <speed>1.260000</speed>
</trkpt>
<trkpt lat="32.991020203" lon="35.537387848">
  <ele>556.458008</ele>
  <time>2011-10-15T05:21:19Z</time>
  <speed>1.070000</speed>
</trkpt>
<trkpt lat="32.991031647" lon="35.537357330">
  <ele>556.286133</ele>
  <time>2011-10-15T05:21:21Z</time>
  <speed>1.270000</speed>
</trkpt>
<trkpt lat="32.991050720" lon="35.537334442">
  <ele>557.473633</ele>
  <time>2011-10-15T05:21:24Z</time>
  <speed>1.190000</speed>
</trkpt>
<trkpt lat="32.991077423" lon="35.537319183">
  <ele>558.333008</ele>
  <time>2011-10-15T05:21:26Z</time>
  <speed>1.370000</speed>
</trkpt>
<trkpt lat="32.991100311" lon="35.537292480">
  <ele>560.411133</ele>
  <time>2011-10-15T05:21:28Z</time>
  <speed>1.030000</speed>
</trkpt>
<trkpt lat="32.991127014" lon="35.537281036">
  <ele>560.239258</ele>
  <time>2011-10-15T05:21:31Z</time>
  <speed>0.600000</speed>
</trkpt>
<trkpt lat="32.991157532" lon="35.537281036">
  <ele>559.801758</ele>
  <time>2011-10-15T05:21:34Z</time>
  <speed>0.800000</speed>
</trkpt>
<trkpt lat="32.991180420" lon="35.537265778">
  <ele>559.942383</ele>
  <time>2011-10-15T05:21:36Z</time>
  <speed>1.060000</speed>
</trkpt>
<trkpt lat="32.991210938" lon="35.537235260">
  <ele>561.458008</ele>
  <time>2011-10-15T05:21:39Z</time>
  <speed>1.150000</speed>
</trkpt>
<trkpt lat="32.991241455" lon="35.537223816">
  <ele>562.583008</ele>
  <time>2011-10-15T05:21:42Z</time>
  <speed>1.210000</speed>
</trkpt>
<trkpt lat="32.991275787" lon="35.537220001">
  <ele>562.661133</ele>
  <time>2011-10-15T05:21:44Z</time>
  <speed>1.280000</speed>
</trkpt>
<trkpt lat="32.991306305" lon="35.537200928">
  <ele>562.598633</ele>
  <time>2011-10-15T05:21:46Z</time>
  <speed>0.910000</speed>
</trkpt>
<trkpt lat="32.991336823" lon="35.537181854">
  <ele>561.833008</ele>
  <time>2011-10-15T05:21:49Z</time>
  <speed>1.250000</speed>
</trkpt>
<trkpt lat="32.991359711" lon="35.537162781">
  <ele>561.176758</ele>
  <time>2011-10-15T05:21:51Z</time>
  <speed>1.290000</speed>
</trkpt>
<trkpt lat="32.991390228" lon="35.537143707">
  <ele>561.004883</ele>
  <time>2011-10-15T05:21:53Z</time>
  <speed>0.980000</speed>
</trkpt>
<trkpt lat="32.991432190" lon="35.537120819">
  <ele>560.989258</ele>
  <time>2011-10-15T05:21:56Z</time>
  <speed>1.310000</speed>
</trkpt>
<trkpt lat="32.991462708" lon="35.537105560">
  <ele>561.223633</ele>
  <time>2011-10-15T05:21:58Z</time>
  <speed>1.350000</speed>
</trkpt>
<trkpt lat="32.991497040" lon="35.537086487">
  <ele>561.989258</ele>
  <time>2011-10-15T05:22:00Z</time>
  <speed>1.600000</speed>
</trkpt>
<trkpt lat="32.991523743" lon="35.537067413">
  <ele>562.036133</ele>
  <time>2011-10-15T05:22:02Z</time>
  <speed>1.550000</speed>
</trkpt>
<trkpt lat="32.991550446" lon="35.537040710">
  <ele>562.333008</ele>
  <time>2011-10-15T05:22:05Z</time>
  <speed>1.340000</speed>
</trkpt>
<trkpt lat="32.991577148" lon="35.537021637">
  <ele>562.036133</ele>
  <time>2011-10-15T05:22:07Z</time>
  <speed>1.490000</speed>
</trkpt>
<trkpt lat="32.991607666" lon="35.536998749">
  <ele>561.692383</ele>
  <time>2011-10-15T05:22:10Z</time>
  <speed>1.160000</speed>
</trkpt>
<trkpt lat="32.991645813" lon="35.536979675">
  <ele>562.083008</ele>
  <time>2011-10-15T05:22:13Z</time>
  <speed>1.130000</speed>
</trkpt>
<trkpt lat="32.991676331" lon="35.536964417">
  <ele>562.692383</ele>
  <time>2011-10-15T05:22:16Z</time>
  <speed>1.220000</speed>
</trkpt>
<trkpt lat="32.991706848" lon="35.536933899">
  <ele>562.676758</ele>
  <time>2011-10-15T05:22:19Z</time>
  <speed>1.270000</speed>
</trkpt>
<trkpt lat="32.991737366" lon="35.536918640">
  <ele>562.645508</ele>
  <time>2011-10-15T05:22:21Z</time>
  <speed>1.420000</speed>
</trkpt>
<trkpt lat="32.991771698" lon="35.536888123">
  <ele>562.004883</ele>
  <time>2011-10-15T05:22:24Z</time>
  <speed>1.200000</speed>
</trkpt>
<trkpt lat="32.991794586" lon="35.536876678">
  <ele>561.692383</ele>
  <time>2011-10-15T05:22:26Z</time>
  <speed>1.040000</speed>
</trkpt>
<trkpt lat="32.991825104" lon="35.536849976">
  <ele>561.536133</ele>
  <time>2011-10-15T05:22:29Z</time>
  <speed>1.280000</speed>
</trkpt>
<trkpt lat="32.991851807" lon="35.536823273">
  <ele>561.020508</ele>
  <time>2011-10-15T05:22:31Z</time>
  <speed>1.420000</speed>
</trkpt>
<trkpt lat="32.991882324" lon="35.536796570">
  <ele>562.114258</ele>
  <time>2011-10-15T05:22:34Z</time>
  <speed>0.920000</speed>
</trkpt>
<trkpt lat="32.991905212" lon="35.536766052">
  <ele>561.567383</ele>
  <time>2011-10-15T05:22:37Z</time>
  <speed>0.980000</speed>
</trkpt>
<trkpt lat="32.991916656" lon="35.536731720">
  <ele>562.301758</ele>
  <time>2011-10-15T05:22:39Z</time>
  <speed>1.190000</speed>
</trkpt>
<trkpt lat="32.991943359" lon="35.536708832">
  <ele>562.614258</ele>
  <time>2011-10-15T05:22:41Z</time>
  <speed>1.070000</speed>
</trkpt>
<trkpt lat="32.991973877" lon="35.536678314">
  <ele>562.676758</ele>
  <time>2011-10-15T05:22:44Z</time>
  <speed>1.370000</speed>
</trkpt>
<trkpt lat="32.991992950" lon="35.536655426">
  <ele>562.176758</ele>
  <time>2011-10-15T05:22:46Z</time>
  <speed>1.130000</speed>
</trkpt>
<trkpt lat="32.992015839" lon="35.536632538">
  <ele>561.911133</ele>
  <time>2011-10-15T05:22:48Z</time>
  <speed>1.260000</speed>
</trkpt>
<trkpt lat="32.992038727" lon="35.536605835">
  <ele>561.098633</ele>
  <time>2011-10-15T05:22:50Z</time>
  <speed>1.430000</speed>
</trkpt>
<trkpt lat="32.992061615" lon="35.536586761">
  <ele>561.973633</ele>
  <time>2011-10-15T05:22:52Z</time>
  <speed>1.490000</speed>
</trkpt>
<trkpt lat="32.992095947" lon="35.536560059">
  <ele>562.692383</ele>
  <time>2011-10-15T05:22:54Z</time>
  <speed>0.830000</speed>
</trkpt>
<trkpt lat="32.992118835" lon="35.536533356">
  <ele>563.770508</ele>
  <time>2011-10-15T05:22:57Z</time>
  <speed>1.100000</speed>
</trkpt>
<trkpt lat="32.992126465" lon="35.536506653">
  <ele>565.004883</ele>
  <time>2011-10-15T05:22:59Z</time>
  <speed>0.930000</speed>
</trkpt>
<trkpt lat="32.992130280" lon="35.536472321">
  <ele>565.286133</ele>
  <time>2011-10-15T05:23:01Z</time>
  <speed>1.130000</speed>
</trkpt>
<trkpt lat="32.992164612" lon="35.536457062">
  <ele>565.020508</ele>
  <time>2011-10-15T05:23:04Z</time>
  <speed>0.900000</speed>
</trkpt>
<trkpt lat="32.992198944" lon="35.536426544">
  <ele>564.411133</ele>
  <time>2011-10-15T05:23:07Z</time>
  <speed>1.020000</speed>
</trkpt>
<trkpt lat="32.992233276" lon="35.536403656">
  <ele>564.692383</ele>
  <time>2011-10-15T05:23:10Z</time>
  <speed>1.160000</speed>
</trkpt>
<trkpt lat="32.992259979" lon="35.536376953">
  <ele>566.270508</ele>
  <time>2011-10-15T05:23:13Z</time>
  <speed>1.010000</speed>
</trkpt>
<trkpt lat="32.992294312" lon="35.536354065">
  <ele>567.176758</ele>
  <time>2011-10-15T05:23:16Z</time>
  <speed>0.940000</speed>
</trkpt>
<trkpt lat="32.992324829" lon="35.536334991">
  <ele>567.817383</ele>
  <time>2011-10-15T05:23:19Z</time>
  <speed>1.120000</speed>
</trkpt>
<trkpt lat="32.992347717" lon="35.536308289">
  <ele>568.051758</ele>
  <time>2011-10-15T05:23:22Z</time>
  <speed>1.060000</speed>
</trkpt>
<trkpt lat="32.992370605" lon="35.536285400">
  <ele>568.129883</ele>
  <time>2011-10-15T05:23:24Z</time>
  <speed>1.160000</speed>
</trkpt>
<trkpt lat="32.992389679" lon="35.536258698">
  <ele>568.176758</ele>
  <time>2011-10-15T05:23:27Z</time>
  <speed>0.820000</speed>
</trkpt>
<trkpt lat="32.992416382" lon="35.536247253">
  <ele>567.708008</ele>
  <time>2011-10-15T05:23:29Z</time>
  <speed>1.080000</speed>
</trkpt>
<trkpt lat="32.992439270" lon="35.536220551">
  <ele>567.739258</ele>
  <time>2011-10-15T05:23:31Z</time>
  <speed>1.000000</speed>
</trkpt>
<trkpt lat="32.992469788" lon="35.536201477">
  <ele>567.770508</ele>
  <time>2011-10-15T05:23:34Z</time>
  <speed>1.110000</speed>
</trkpt>
<trkpt lat="32.992492676" lon="35.536178589">
  <ele>567.583008</ele>
  <time>2011-10-15T05:23:37Z</time>
  <speed>1.090000</speed>
</trkpt>
<trkpt lat="32.992523193" lon="35.536167145">
  <ele>567.801758</ele>
  <time>2011-10-15T05:23:40Z</time>
  <speed>1.090000</speed>
</trkpt>
<trkpt lat="32.992553711" lon="35.536159515">
  <ele>567.176758</ele>
  <time>2011-10-15T05:23:44Z</time>
  <speed>0.760000</speed>
</trkpt>
<trkpt lat="32.992588043" lon="35.536151886">
  <ele>567.129883</ele>
  <time>2011-10-15T05:23:47Z</time>
  <speed>0.910000</speed>
</trkpt>
<trkpt lat="32.992622375" lon="35.536136627">
  <ele>566.926758</ele>
  <time>2011-10-15T05:23:50Z</time>
  <speed>1.130000</speed>
</trkpt>
<trkpt lat="32.992649078" lon="35.536102295">
  <ele>566.583008</ele>
  <time>2011-10-15T05:23:54Z</time>
  <speed>1.060000</speed>
</trkpt>
<trkpt lat="32.992671967" lon="35.536087036">
  <ele>566.489258</ele>
  <time>2011-10-15T05:23:57Z</time>
  <speed>0.990000</speed>
</trkpt>
<trkpt lat="32.992698669" lon="35.536079407">
  <ele>566.629883</ele>
  <time>2011-10-15T05:23:59Z</time>
  <speed>0.840000</speed>
</trkpt>
<trkpt lat="32.992733002" lon="35.536087036">
  <ele>567.161133</ele>
  <time>2011-10-15T05:24:01Z</time>
  <speed>1.410000</speed>
</trkpt>
<trkpt lat="32.992755890" lon="35.536071777">
  <ele>567.426758</ele>
  <time>2011-10-15T05:24:03Z</time>
  <speed>1.450000</speed>
</trkpt>
<trkpt lat="32.992790222" lon="35.536067963">
  <ele>567.301758</ele>
  <time>2011-10-15T05:24:05Z</time>
  <speed>1.460000</speed>
</trkpt>
<trkpt lat="32.992832184" lon="35.536071777">
  <ele>568.051758</ele>
  <time>2011-10-15T05:24:07Z</time>
  <speed>1.090000</speed>
</trkpt>
<trkpt lat="32.992855072" lon="35.536079407">
  <ele>570.317383</ele>
  <time>2011-10-15T05:24:10Z</time>
  <speed>0.700000</speed>
</trkpt>
<trkpt lat="32.992877960" lon="35.536067963">
  <ele>572.083008</ele>
  <time>2011-10-15T05:24:14Z</time>
  <speed>0.580000</speed>
</trkpt>
<trkpt lat="32.992900848" lon="35.536067963">
  <ele>573.379883</ele>
  <time>2011-10-15T05:24:31Z</time>
  <speed>0.080000</speed>
</trkpt>
<trkpt lat="32.992931366" lon="35.536071777">
  <ele>574.426758</ele>
  <time>2011-10-15T05:25:42Z</time>
  <speed>0.650000</speed>
</trkpt>
<trkpt lat="32.992969513" lon="35.536079407">
  <ele>573.473633</ele>
  <time>2011-10-15T05:25:44Z</time>
  <speed>1.120000</speed>
</trkpt>
<trkpt lat="32.993007660" lon="35.536067963">
  <ele>573.801758</ele>
  <time>2011-10-15T05:25:47Z</time>
  <speed>1.300000</speed>
</trkpt>
<trkpt lat="32.993041992" lon="35.536067963">
  <ele>573.364258</ele>
  <time>2011-10-15T05:25:49Z</time>
  <speed>1.720000</speed>
</trkpt>
<trkpt lat="32.993087769" lon="35.536083221">
  <ele>573.145508</ele>
  <time>2011-10-15T05:25:51Z</time>
  <speed>2.340000</speed>
</trkpt>
<trkpt lat="32.993137360" lon="35.536075592">
  <ele>573.114258</ele>
  <time>2011-10-15T05:25:53Z</time>
  <speed>3.440000</speed>
</trkpt>
<trkpt lat="32.993175507" lon="35.536083221">
  <ele>574.145508</ele>
  <time>2011-10-15T05:25:54Z</time>
  <speed>3.850000</speed>
</trkpt>
<trkpt lat="32.993209839" lon="35.536083221">
  <ele>573.895508</ele>
  <time>2011-10-15T05:25:55Z</time>
  <speed>3.800000</speed>
</trkpt>
<trkpt lat="32.993251801" lon="35.536094666">
  <ele>574.129883</ele>
  <time>2011-10-15T05:25:56Z</time>
  <speed>3.850000</speed>
</trkpt>
<trkpt lat="32.993293762" lon="35.536109924">
  <ele>572.192383</ele>
  <time>2011-10-15T05:25:57Z</time>
  <speed>4.080000</speed>
</trkpt>
<trkpt lat="32.993335724" lon="35.536106110">
  <ele>571.254883</ele>
  <time>2011-10-15T05:25:58Z</time>
  <speed>3.990000</speed>
</trkpt>
<trkpt lat="32.993373871" lon="35.536102295">
  <ele>571.223633</ele>
  <time>2011-10-15T05:25:59Z</time>
  <speed>4.090000</speed>
</trkpt>
<trkpt lat="32.993419647" lon="35.536083221">
  <ele>570.348633</ele>
  <time>2011-10-15T05:26:00Z</time>
  <speed>4.720000</speed>
</trkpt>
<trkpt lat="32.993469238" lon="35.536067963">
  <ele>570.176758</ele>
  <time>2011-10-15T05:26:01Z</time>
  <speed>3.940000</speed>
</trkpt>
<trkpt lat="32.993507385" lon="35.536060333">
  <ele>569.723633</ele>
  <time>2011-10-15T05:26:02Z</time>
  <speed>2.900000</speed>
</trkpt>
<trkpt lat="32.993537903" lon="35.536048889">
  <ele>569.708008</ele>
  <time>2011-10-15T05:26:04Z</time>
  <speed>0.370000</speed>
</trkpt>
<trkpt lat="32.993537903" lon="35.536018372">
  <ele>570.833008</ele>
  <time>2011-10-15T05:26:41Z</time>
  <speed>1.560000</speed>
</trkpt>
<trkpt lat="32.993572235" lon="35.535999298">
  <ele>570.598633</ele>
  <time>2011-10-15T05:26:42Z</time>
  <speed>3.150000</speed>
</trkpt>
<trkpt lat="32.993606567" lon="35.535980225">
  <ele>570.520508</ele>
  <time>2011-10-15T05:26:43Z</time>
  <speed>4.260000</speed>
</trkpt>
<trkpt lat="32.993640900" lon="35.535934448">
  <ele>570.239258</ele>
  <time>2011-10-15T05:26:44Z</time>
  <speed>4.830000</speed>
</trkpt>
<trkpt lat="32.993671417" lon="35.535884857">
  <ele>570.442383</ele>
  <time>2011-10-15T05:26:45Z</time>
  <speed>4.500000</speed>
</trkpt>
<trkpt lat="32.993690491" lon="35.535835266">
  <ele>570.754883</ele>
  <time>2011-10-15T05:26:46Z</time>
  <speed>3.750000</speed>
</trkpt>
<trkpt lat="32.993701935" lon="35.535800934">
  <ele>570.739258</ele>
  <time>2011-10-15T05:26:47Z</time>
  <speed>2.960000</speed>
</trkpt>
<trkpt lat="32.993713379" lon="35.535755157">
  <ele>569.989258</ele>
  <time>2011-10-15T05:26:48Z</time>
  <speed>3.250000</speed>
</trkpt>
<trkpt lat="32.993728638" lon="35.535713196">
  <ele>569.083008</ele>
  <time>2011-10-15T05:26:49Z</time>
  <speed>3.200000</speed>
</trkpt>
<trkpt lat="32.993740082" lon="35.535675049">
  <ele>568.379883</ele>
  <time>2011-10-15T05:26:50Z</time>
  <speed>3.200000</speed>
</trkpt>
<trkpt lat="32.993755341" lon="35.535636902">
  <ele>568.551758</ele>
  <time>2011-10-15T05:26:51Z</time>
  <speed>3.500000</speed>
</trkpt>
<trkpt lat="32.993801117" lon="35.535591125">
  <ele>567.536133</ele>
  <time>2011-10-15T05:26:52Z</time>
  <speed>4.580000</speed>
</trkpt>
<trkpt lat="32.993824005" lon="35.535526276">
  <ele>568.083008</ele>
  <time>2011-10-15T05:26:53Z</time>
  <speed>5.160000</speed>
</trkpt>
<trkpt lat="32.993854523" lon="35.535484314">
  <ele>567.989258</ele>
  <time>2011-10-15T05:26:54Z</time>
  <speed>4.290000</speed>
</trkpt>
<trkpt lat="32.993885040" lon="35.535453796">
  <ele>567.254883</ele>
  <time>2011-10-15T05:26:55Z</time>
  <speed>2.530000</speed>
</trkpt>
<trkpt lat="32.993907928" lon="35.535434723">
  <ele>567.254883</ele>
  <time>2011-10-15T05:26:57Z</time>
  <speed>0.560000</speed>
</trkpt>
<trkpt lat="32.993915558" lon="35.535396576">
  <ele>567.208008</ele>
  <time>2011-10-15T05:27:26Z</time>
  <speed>0.590000</speed>
</trkpt>
<trkpt lat="32.993953705" lon="35.535369873">
  <ele>567.192383</ele>
  <time>2011-10-15T05:27:30Z</time>
  <speed>2.450000</speed>
</trkpt>
<trkpt lat="32.993991852" lon="35.535327911">
  <ele>566.879883</ele>
  <time>2011-10-15T05:27:32Z</time>
  <speed>2.600000</speed>
</trkpt>
<trkpt lat="32.994022369" lon="35.535282135">
  <ele>566.317383</ele>
  <time>2011-10-15T05:27:34Z</time>
  <speed>2.200000</speed>
</trkpt>
<trkpt lat="32.994037628" lon="35.535255432">
  <ele>566.833008</ele>
  <time>2011-10-15T05:27:35Z</time>
  <speed>2.230000</speed>
</trkpt>
<trkpt lat="32.994060516" lon="35.535209656">
  <ele>567.411133</ele>
  <time>2011-10-15T05:27:37Z</time>
  <speed>2.240000</speed>
</trkpt>
<trkpt lat="32.994075775" lon="35.535175323">
  <ele>565.958008</ele>
  <time>2011-10-15T05:27:38Z</time>
  <speed>2.440000</speed>
</trkpt>
<trkpt lat="32.994091034" lon="35.535121918">
  <ele>565.645508</ele>
  <time>2011-10-15T05:27:40Z</time>
  <speed>2.180000</speed>
</trkpt>
<trkpt lat="32.994121552" lon="35.535072327">
  <ele>565.723633</ele>
  <time>2011-10-15T05:27:42Z</time>
  <speed>2.580000</speed>
</trkpt>
<trkpt lat="32.994140625" lon="35.535037994">
  <ele>565.614258</ele>
  <time>2011-10-15T05:27:44Z</time>
  <speed>1.780000</speed>
</trkpt>
<trkpt lat="32.994163513" lon="35.534992218">
  <ele>564.989258</ele>
  <time>2011-10-15T05:27:46Z</time>
  <speed>2.050000</speed>
</trkpt>
<trkpt lat="32.994186401" lon="35.534957886">
  <ele>565.958008</ele>
  <time>2011-10-15T05:27:48Z</time>
  <speed>1.890000</speed>
</trkpt>
<trkpt lat="32.994209290" lon="35.534934998">
  <ele>567.067383</ele>
  <time>2011-10-15T05:27:50Z</time>
  <speed>1.790000</speed>
</trkpt>
<trkpt lat="32.994235992" lon="35.534919739">
  <ele>565.942383</ele>
  <time>2011-10-15T05:27:51Z</time>
  <speed>2.550000</speed>
</trkpt>
<trkpt lat="32.994274139" lon="35.534893036">
  <ele>565.926758</ele>
  <time>2011-10-15T05:27:53Z</time>
  <speed>2.360000</speed>
</trkpt>
<trkpt lat="32.994308472" lon="35.534862518">
  <ele>565.958008</ele>
  <time>2011-10-15T05:27:55Z</time>
  <speed>2.210000</speed>
</trkpt>
<trkpt lat="32.994331360" lon="35.534839630">
  <ele>566.614258</ele>
  <time>2011-10-15T05:27:56Z</time>
  <speed>2.810000</speed>
</trkpt>
<trkpt lat="32.994354248" lon="35.534812927">
  <ele>566.708008</ele>
  <time>2011-10-15T05:27:57Z</time>
  <speed>3.120000</speed>
</trkpt>
<trkpt lat="32.994384766" lon="35.534755707">
  <ele>566.879883</ele>
  <time>2011-10-15T05:27:59Z</time>
  <speed>3.560000</speed>
</trkpt>
<trkpt lat="32.994403839" lon="35.534729004">
  <ele>565.754883</ele>
  <time>2011-10-15T05:28:00Z</time>
  <speed>3.900000</speed>
</trkpt>
<trkpt lat="32.994430542" lon="35.534687042">
  <ele>564.895508</ele>
  <time>2011-10-15T05:28:01Z</time>
  <speed>4.290000</speed>
</trkpt>
<trkpt lat="32.994453430" lon="35.534652710">
  <ele>564.958008</ele>
  <time>2011-10-15T05:28:02Z</time>
  <speed>4.290000</speed>
</trkpt>
<trkpt lat="32.994476318" lon="35.534606934">
  <ele>564.598633</ele>
  <time>2011-10-15T05:28:03Z</time>
  <speed>4.520000</speed>
</trkpt>
<trkpt lat="32.994495392" lon="35.534564972">
  <ele>564.114258</ele>
  <time>2011-10-15T05:28:04Z</time>
  <speed>4.390000</speed>
</trkpt>
<trkpt lat="32.994510651" lon="35.534511566">
  <ele>563.786133</ele>
  <time>2011-10-15T05:28:05Z</time>
  <speed>5.100000</speed>
</trkpt>
<trkpt lat="32.994522095" lon="35.534458160">
  <ele>563.551758</ele>
  <time>2011-10-15T05:28:06Z</time>
  <speed>4.610000</speed>
</trkpt>
<trkpt lat="32.994518280" lon="35.534412384">
  <ele>562.723633</ele>
  <time>2011-10-15T05:28:07Z</time>
  <speed>3.910000</speed>
</trkpt>
<trkpt lat="32.994503021" lon="35.534378052">
  <ele>562.958008</ele>
  <time>2011-10-15T05:28:08Z</time>
  <speed>3.220000</speed>
</trkpt>
<trkpt lat="32.994472504" lon="35.534324646">
  <ele>563.145508</ele>
  <time>2011-10-15T05:28:10Z</time>
  <speed>2.820000</speed>
</trkpt>
<trkpt lat="32.994457245" lon="35.534297943">
  <ele>563.208008</ele>
  <time>2011-10-15T05:28:11Z</time>
  <speed>3.230000</speed>
</trkpt>
<trkpt lat="32.994441986" lon="35.534263611">
  <ele>563.254883</ele>
  <time>2011-10-15T05:28:12Z</time>
  <speed>3.150000</speed>
</trkpt>
<trkpt lat="32.994434357" lon="35.534229279">
  <ele>562.942383</ele>
  <time>2011-10-15T05:28:13Z</time>
  <speed>3.580000</speed>
</trkpt>
<trkpt lat="32.994422913" lon="35.534183502">
  <ele>563.254883</ele>
  <time>2011-10-15T05:28:14Z</time>
  <speed>3.700000</speed>
</trkpt>
<trkpt lat="32.994419098" lon="35.534141541">
  <ele>563.239258</ele>
  <time>2011-10-15T05:28:15Z</time>
  <speed>4.190000</speed>
</trkpt>
<trkpt lat="32.994407654" lon="35.534095764">
  <ele>562.942383</ele>
  <time>2011-10-15T05:28:16Z</time>
  <speed>4.570000</speed>
</trkpt>
<trkpt lat="32.994400024" lon="35.534049988">
  <ele>562.614258</ele>
  <time>2011-10-15T05:28:17Z</time>
  <speed>3.950000</speed>
</trkpt>
<trkpt lat="32.994392395" lon="35.534004211">
  <ele>562.286133</ele>
  <time>2011-10-15T05:28:18Z</time>
  <speed>4.430000</speed>
</trkpt>
<trkpt lat="32.994392395" lon="35.533954620">
  <ele>561.942383</ele>
  <time>2011-10-15T05:28:19Z</time>
  <speed>4.580000</speed>
</trkpt>
<trkpt lat="32.994380951" lon="35.533908844">
  <ele>561.786133</ele>
  <time>2011-10-15T05:28:20Z</time>
  <speed>3.960000</speed>
</trkpt>
<trkpt lat="32.994365692" lon="35.533866882">
  <ele>562.239258</ele>
  <time>2011-10-15T05:28:21Z</time>
  <speed>3.710000</speed>
</trkpt>
<trkpt lat="32.994354248" lon="35.533832550">
  <ele>562.286133</ele>
  <time>2011-10-15T05:28:22Z</time>
  <speed>3.750000</speed>
</trkpt>
<trkpt lat="32.994346619" lon="35.533794403">
  <ele>562.254883</ele>
  <time>2011-10-15T05:28:23Z</time>
  <speed>3.610000</speed>
</trkpt>
<trkpt lat="32.994338989" lon="35.533752441">
  <ele>562.520508</ele>
  <time>2011-10-15T05:28:24Z</time>
  <speed>4.000000</speed>
</trkpt>
<trkpt lat="32.994335175" lon="35.533710480">
  <ele>562.692383</ele>
  <time>2011-10-15T05:28:25Z</time>
  <speed>4.250000</speed>
</trkpt>
<trkpt lat="32.994338989" lon="35.533657074">
  <ele>562.645508</ele>
  <time>2011-10-15T05:28:26Z</time>
  <speed>4.610000</speed>
</trkpt>
<trkpt lat="32.994346619" lon="35.533607483">
  <ele>562.489258</ele>
  <time>2011-10-15T05:28:27Z</time>
  <speed>4.630000</speed>
</trkpt>
<trkpt lat="32.994354248" lon="35.533561707">
  <ele>562.426758</ele>
  <time>2011-10-15T05:28:28Z</time>
  <speed>4.720000</speed>
</trkpt>
<trkpt lat="32.994369507" lon="35.533512115">
  <ele>562.395508</ele>
  <time>2011-10-15T05:28:29Z</time>
  <speed>4.830000</speed>
</trkpt>
<trkpt lat="32.994384766" lon="35.533473969">
  <ele>562.161133</ele>
  <time>2011-10-15T05:28:30Z</time>
  <speed>4.150000</speed>
</trkpt>
<trkpt lat="32.994400024" lon="35.533435822">
  <ele>562.114258</ele>
  <time>2011-10-15T05:28:31Z</time>
  <speed>4.340000</speed>
</trkpt>
<trkpt lat="32.994422913" lon="35.533390045">
  <ele>562.083008</ele>
  <time>2011-10-15T05:28:32Z</time>
  <speed>4.910000</speed>
</trkpt>
<trkpt lat="32.994449615" lon="35.533344269">
  <ele>562.004883</ele>
  <time>2011-10-15T05:28:33Z</time>
  <speed>5.460000</speed>
</trkpt>
<trkpt lat="32.994483948" lon="35.533302307">
  <ele>562.192383</ele>
  <time>2011-10-15T05:28:34Z</time>
  <speed>5.010000</speed>
</trkpt>
<trkpt lat="32.994522095" lon="35.533248901">
  <ele>562.301758</ele>
  <time>2011-10-15T05:28:35Z</time>
  <speed>5.500000</speed>
</trkpt>
<trkpt lat="32.994560242" lon="35.533214569">
  <ele>562.411133</ele>
  <time>2011-10-15T05:28:36Z</time>
  <speed>4.880000</speed>
</trkpt>
<trkpt lat="32.994590759" lon="35.533176422">
  <ele>562.239258</ele>
  <time>2011-10-15T05:28:37Z</time>
  <speed>4.070000</speed>
</trkpt>
<trkpt lat="32.994621277" lon="35.533149719">
  <ele>562.411133</ele>
  <time>2011-10-15T05:28:38Z</time>
  <speed>3.880000</speed>
</trkpt>
<trkpt lat="32.994647980" lon="35.533130646">
  <ele>561.676758</ele>
  <time>2011-10-15T05:28:39Z</time>
  <speed>3.580000</speed>
</trkpt>
<trkpt lat="32.994682312" lon="35.533111572">
  <ele>561.817383</ele>
  <time>2011-10-15T05:28:40Z</time>
  <speed>3.480000</speed>
</trkpt>
<trkpt lat="32.994712830" lon="35.533107758">
  <ele>562.895508</ele>
  <time>2011-10-15T05:28:41Z</time>
  <speed>3.550000</speed>
</trkpt>
<trkpt lat="32.994750977" lon="35.533103943">
  <ele>563.176758</ele>
  <time>2011-10-15T05:28:42Z</time>
  <speed>4.540000</speed>
</trkpt>
<trkpt lat="32.994796753" lon="35.533107758">
  <ele>564.004883</ele>
  <time>2011-10-15T05:28:43Z</time>
  <speed>5.020000</speed>
</trkpt>
<trkpt lat="32.994838715" lon="35.533115387">
  <ele>564.223633</ele>
  <time>2011-10-15T05:28:44Z</time>
  <speed>4.610000</speed>
</trkpt>
<trkpt lat="32.994888306" lon="35.533126831">
  <ele>563.629883</ele>
  <time>2011-10-15T05:28:45Z</time>
  <speed>4.770000</speed>
</trkpt>
<trkpt lat="32.994934082" lon="35.533123016">
  <ele>563.833008</ele>
  <time>2011-10-15T05:28:46Z</time>
  <speed>5.210000</speed>
</trkpt>
<trkpt lat="32.994983673" lon="35.533119202">
  <ele>562.911133</ele>
  <time>2011-10-15T05:28:47Z</time>
  <speed>4.760000</speed>
</trkpt>
<trkpt lat="32.995025635" lon="35.533115387">
  <ele>562.692383</ele>
  <time>2011-10-15T05:28:48Z</time>
  <speed>4.670000</speed>
</trkpt>
<trkpt lat="32.995079041" lon="35.533100128">
  <ele>562.114258</ele>
  <time>2011-10-15T05:28:49Z</time>
  <speed>4.750000</speed>
</trkpt>
<trkpt lat="32.995121002" lon="35.533081055">
  <ele>561.833008</ele>
  <time>2011-10-15T05:28:50Z</time>
  <speed>5.000000</speed>
</trkpt>
<trkpt lat="32.995155334" lon="35.533046722">
  <ele>561.676758</ele>
  <time>2011-10-15T05:28:51Z</time>
  <speed>4.760000</speed>
</trkpt>
<trkpt lat="32.995182037" lon="35.533000946">
  <ele>561.411133</ele>
  <time>2011-10-15T05:28:52Z</time>
  <speed>4.520000</speed>
</trkpt>
<trkpt lat="32.995189667" lon="35.532951355">
  <ele>561.317383</ele>
  <time>2011-10-15T05:28:53Z</time>
  <speed>3.810000</speed>
</trkpt>
<trkpt lat="32.995197296" lon="35.532909393">
  <ele>561.004883</ele>
  <time>2011-10-15T05:28:54Z</time>
  <speed>3.850000</speed>
</trkpt>
<trkpt lat="32.995204926" lon="35.532867432">
  <ele>560.879883</ele>
  <time>2011-10-15T05:28:55Z</time>
  <speed>3.960000</speed>
</trkpt>
<trkpt lat="32.995212555" lon="35.532817841">
  <ele>560.536133</ele>
  <time>2011-10-15T05:28:56Z</time>
  <speed>4.290000</speed>
</trkpt>
<trkpt lat="32.995223999" lon="35.532768250">
  <ele>560.098633</ele>
  <time>2011-10-15T05:28:57Z</time>
  <speed>4.640000</speed>
</trkpt>
<trkpt lat="32.995239258" lon="35.532722473">
  <ele>560.067383</ele>
  <time>2011-10-15T05:28:58Z</time>
  <speed>4.240000</speed>
</trkpt>
<trkpt lat="32.995254517" lon="35.532680511">
  <ele>559.692383</ele>
  <time>2011-10-15T05:28:59Z</time>
  <speed>4.580000</speed>
</trkpt>
<trkpt lat="32.995273590" lon="35.532634735">
  <ele>559.286133</ele>
  <time>2011-10-15T05:29:00Z</time>
  <speed>4.720000</speed>
</trkpt>
<trkpt lat="32.995288849" lon="35.532585144">
  <ele>558.629883</ele>
  <time>2011-10-15T05:29:01Z</time>
  <speed>4.560000</speed>
</trkpt>
<trkpt lat="32.995311737" lon="35.532543182">
  <ele>558.864258</ele>
  <time>2011-10-15T05:29:02Z</time>
  <speed>4.750000</speed>
</trkpt>
<trkpt lat="32.995334625" lon="35.532489777">
  <ele>558.301758</ele>
  <time>2011-10-15T05:29:03Z</time>
  <speed>4.880000</speed>
</trkpt>
<trkpt lat="32.995365143" lon="35.532444000">
  <ele>557.864258</ele>
  <time>2011-10-15T05:29:04Z</time>
  <speed>5.430000</speed>
</trkpt>
<trkpt lat="32.995395660" lon="35.532390594">
  <ele>558.020508</ele>
  <time>2011-10-15T05:29:05Z</time>
  <speed>6.110000</speed>
</trkpt>
<trkpt lat="32.995426178" lon="35.532337189">
  <ele>558.129883</ele>
  <time>2011-10-15T05:29:06Z</time>
  <speed>6.100000</speed>
</trkpt>
<trkpt lat="32.995464325" lon="35.532283783">
  <ele>558.176758</ele>
  <time>2011-10-15T05:29:07Z</time>
  <speed>6.100000</speed>
</trkpt>
<trkpt lat="32.995491028" lon="35.532222748">
  <ele>558.411133</ele>
  <time>2011-10-15T05:29:08Z</time>
  <speed>5.980000</speed>
</trkpt>
<trkpt lat="32.995513916" lon="35.532161713">
  <ele>557.926758</ele>
  <time>2011-10-15T05:29:09Z</time>
  <speed>5.770000</speed>
</trkpt>
<trkpt lat="32.995536804" lon="35.532112122">
  <ele>557.692383</ele>
  <time>2011-10-15T05:29:10Z</time>
  <speed>5.380000</speed>
</trkpt>
<trkpt lat="32.995559692" lon="35.532058716">
  <ele>557.629883</ele>
  <time>2011-10-15T05:29:11Z</time>
  <speed>5.910000</speed>
</trkpt>
<trkpt lat="32.995601654" lon="35.531997681">
  <ele>557.692383</ele>
  <time>2011-10-15T05:29:12Z</time>
  <speed>5.460000</speed>
</trkpt>
<trkpt lat="32.995628357" lon="35.531944275">
  <ele>557.614258</ele>
  <time>2011-10-15T05:29:13Z</time>
  <speed>5.280000</speed>
</trkpt>
<trkpt lat="32.995655060" lon="35.531894684">
  <ele>557.426758</ele>
  <time>2011-10-15T05:29:14Z</time>
  <speed>5.090000</speed>
</trkpt>
<trkpt lat="32.995677948" lon="35.531848907">
  <ele>557.223633</ele>
  <time>2011-10-15T05:29:15Z</time>
  <speed>4.950000</speed>
</trkpt>
<trkpt lat="32.995697021" lon="35.531803131">
  <ele>557.270508</ele>
  <time>2011-10-15T05:29:16Z</time>
  <speed>4.710000</speed>
</trkpt>
<trkpt lat="32.995719910" lon="35.531761169">
  <ele>557.208008</ele>
  <time>2011-10-15T05:29:17Z</time>
  <speed>4.500000</speed>
</trkpt>
<trkpt lat="32.995750427" lon="35.531715393">
  <ele>557.676758</ele>
  <time>2011-10-15T05:29:18Z</time>
  <speed>4.730000</speed>
</trkpt>
<trkpt lat="32.995777130" lon="35.531677246">
  <ele>557.270508</ele>
  <time>2011-10-15T05:29:19Z</time>
  <speed>4.390000</speed>
</trkpt>
<trkpt lat="32.995822906" lon="35.531639099">
  <ele>557.348633</ele>
  <time>2011-10-15T05:29:20Z</time>
  <speed>6.350000</speed>
</trkpt>
<trkpt lat="32.995864868" lon="35.531589508">
  <ele>557.864258</ele>
  <time>2011-10-15T05:29:21Z</time>
  <speed>6.570000</speed>
</trkpt>
<trkpt lat="32.995903015" lon="35.531513214">
  <ele>558.536133</ele>
  <time>2011-10-15T05:29:22Z</time>
  <speed>6.450000</speed>
</trkpt>
<trkpt lat="32.995929718" lon="35.531452179">
  <ele>557.958008</ele>
  <time>2011-10-15T05:29:23Z</time>
  <speed>5.370000</speed>
</trkpt>
<trkpt lat="32.995941162" lon="35.531402588">
  <ele>557.864258</ele>
  <time>2011-10-15T05:29:24Z</time>
  <speed>4.890000</speed>
</trkpt>
<trkpt lat="32.995960236" lon="35.531352997">
  <ele>558.317383</ele>
  <time>2011-10-15T05:29:25Z</time>
  <speed>4.150000</speed>
</trkpt>
<trkpt lat="32.995975494" lon="35.531318665">
  <ele>558.895508</ele>
  <time>2011-10-15T05:29:26Z</time>
  <speed>4.030000</speed>
</trkpt>
<trkpt lat="32.995994568" lon="35.531272888">
  <ele>559.379883</ele>
  <time>2011-10-15T05:29:27Z</time>
  <speed>4.540000</speed>
</trkpt>
<trkpt lat="32.996021271" lon="35.531227112">
  <ele>559.301758</ele>
  <time>2011-10-15T05:29:28Z</time>
  <speed>4.930000</speed>
</trkpt>
<trkpt lat="32.996044159" lon="35.531177521">
  <ele>559.411133</ele>
  <time>2011-10-15T05:29:29Z</time>
  <speed>5.730000</speed>
</trkpt>
<trkpt lat="32.996059418" lon="35.531120300">
  <ele>558.942383</ele>
  <time>2011-10-15T05:29:30Z</time>
  <speed>5.890000</speed>
</trkpt>
<trkpt lat="32.996063232" lon="35.531055450">
  <ele>558.770508</ele>
  <time>2011-10-15T05:29:31Z</time>
  <speed>5.470000</speed>
</trkpt>
<trkpt lat="32.996059418" lon="35.530998230">
  <ele>558.801758</ele>
  <time>2011-10-15T05:29:32Z</time>
  <speed>4.580000</speed>
</trkpt>
<trkpt lat="32.996063232" lon="35.530952454">
  <ele>558.786133</ele>
  <time>2011-10-15T05:29:33Z</time>
  <speed>4.310000</speed>
</trkpt>
<trkpt lat="32.996070862" lon="35.530906677">
  <ele>559.036133</ele>
  <time>2011-10-15T05:29:34Z</time>
  <speed>4.610000</speed>
</trkpt>
<trkpt lat="32.996089935" lon="35.530857086">
  <ele>559.645508</ele>
  <time>2011-10-15T05:29:35Z</time>
  <speed>4.770000</speed>
</trkpt>
<trkpt lat="32.996101379" lon="35.530803680">
  <ele>559.770508</ele>
  <time>2011-10-15T05:29:36Z</time>
  <speed>5.200000</speed>
</trkpt>
<trkpt lat="32.996112823" lon="35.530746460">
  <ele>560.114258</ele>
  <time>2011-10-15T05:29:37Z</time>
  <speed>5.390000</speed>
</trkpt>
<trkpt lat="32.996124268" lon="35.530696869">
  <ele>560.067383</ele>
  <time>2011-10-15T05:29:38Z</time>
  <speed>5.320000</speed>
</trkpt>
<trkpt lat="32.996135712" lon="35.530643463">
  <ele>560.114258</ele>
  <time>2011-10-15T05:29:39Z</time>
  <speed>4.890000</speed>
</trkpt>
<trkpt lat="32.996158600" lon="35.530597687">
  <ele>560.083008</ele>
  <time>2011-10-15T05:29:40Z</time>
  <speed>5.530000</speed>
</trkpt>
<trkpt lat="32.996189117" lon="35.530548096">
  <ele>560.129883</ele>
  <time>2011-10-15T05:29:41Z</time>
  <speed>5.590000</speed>
</trkpt>
<trkpt lat="32.996215820" lon="35.530490875">
  <ele>560.208008</ele>
  <time>2011-10-15T05:29:42Z</time>
  <speed>6.390000</speed>
</trkpt>
<trkpt lat="32.996242523" lon="35.530426025">
  <ele>560.583008</ele>
  <time>2011-10-15T05:29:43Z</time>
  <speed>6.410000</speed>
</trkpt>
<trkpt lat="32.996273041" lon="35.530372620">
  <ele>560.598633</ele>
  <time>2011-10-15T05:29:44Z</time>
  <speed>5.240000</speed>
</trkpt>
<trkpt lat="32.996299744" lon="35.530326843">
  <ele>560.192383</ele>
  <time>2011-10-15T05:29:45Z</time>
  <speed>4.700000</speed>
</trkpt>
<trkpt lat="32.996326447" lon="35.530300140">
  <ele>560.598633</ele>
  <time>2011-10-15T05:29:46Z</time>
  <speed>3.680000</speed>
</trkpt>
<trkpt lat="32.996356964" lon="35.530273438">
  <ele>560.864258</ele>
  <time>2011-10-15T05:29:47Z</time>
  <speed>3.840000</speed>
</trkpt>
<trkpt lat="32.996387482" lon="35.530254364">
  <ele>560.942383</ele>
  <time>2011-10-15T05:29:48Z</time>
  <speed>3.830000</speed>
</trkpt>
<trkpt lat="32.996421814" lon="35.530254364">
  <ele>560.004883</ele>
  <time>2011-10-15T05:29:49Z</time>
  <speed>3.710000</speed>
</trkpt>
<trkpt lat="32.996452332" lon="35.530258179">
  <ele>559.192383</ele>
  <time>2011-10-15T05:29:50Z</time>
  <speed>3.280000</speed>
</trkpt>
<trkpt lat="32.996494293" lon="35.530265808">
  <ele>558.754883</ele>
  <time>2011-10-15T05:29:52Z</time>
  <speed>1.470000</speed>
</trkpt>
<trkpt lat="32.996520996" lon="35.530261993">
  <ele>557.833008</ele>
  <time>2011-10-15T05:29:53Z</time>
  <speed>0.510000</speed>
</trkpt>
<trkpt lat="32.996559143" lon="35.530261993">
  <ele>557.458008</ele>
  <time>2011-10-15T05:29:54Z</time>
  <speed>0.510000</speed>
</trkpt>
<trkpt lat="32.996582031" lon="35.530269623">
  <ele>559.176758</ele>
  <time>2011-10-15T05:30:54Z</time>
  <speed>2.070000</speed>
</trkpt>
<trkpt lat="32.996635437" lon="35.530269623">
  <ele>559.317383</ele>
  <time>2011-10-15T05:30:56Z</time>
  <speed>2.230000</speed>
</trkpt>
<trkpt lat="32.996650696" lon="35.530311584">
  <ele>559.629883</ele>
  <time>2011-10-15T05:30:58Z</time>
  <speed>2.030000</speed>
</trkpt>
<trkpt lat="32.996662140" lon="35.530372620">
  <ele>559.614258</ele>
  <time>2011-10-15T05:31:00Z</time>
  <speed>3.370000</speed>
</trkpt>
<trkpt lat="32.996669769" lon="35.530410767">
  <ele>559.223633</ele>
  <time>2011-10-15T05:31:01Z</time>
  <speed>3.280000</speed>
</trkpt>
<trkpt lat="32.996677399" lon="35.530452728">
  <ele>558.895508</ele>
  <time>2011-10-15T05:31:02Z</time>
  <speed>3.040000</speed>
</trkpt>
<trkpt lat="32.996681213" lon="35.530487061">
  <ele>558.754883</ele>
  <time>2011-10-15T05:31:03Z</time>
  <speed>3.410000</speed>
</trkpt>
<trkpt lat="32.996696472" lon="35.530536652">
  <ele>558.364258</ele>
  <time>2011-10-15T05:31:04Z</time>
  <speed>3.690000</speed>
</trkpt>
<trkpt lat="32.996715546" lon="35.530582428">
  <ele>558.645508</ele>
  <time>2011-10-15T05:31:05Z</time>
  <speed>4.110000</speed>
</trkpt>
<trkpt lat="32.996723175" lon="35.530632019">
  <ele>558.098633</ele>
  <time>2011-10-15T05:31:06Z</time>
  <speed>4.270000</speed>
</trkpt>
<trkpt lat="32.996742249" lon="35.530673981">
  <ele>557.817383</ele>
  <time>2011-10-15T05:31:07Z</time>
  <speed>3.360000</speed>
</trkpt>
<trkpt lat="32.996757507" lon="35.530704498">
  <ele>557.442383</ele>
  <time>2011-10-15T05:31:08Z</time>
  <speed>2.180000</speed>
</trkpt>
<trkpt lat="32.996776581" lon="35.530727386">
  <ele>557.176758</ele>
  <time>2011-10-15T05:31:10Z</time>
  <speed>0.830000</speed>
</trkpt>
<trkpt lat="32.996795654" lon="35.530754089">
  <ele>557.161133</ele>
  <time>2011-10-15T05:31:42Z</time>
  <speed>0.130000</speed>
</trkpt>
<trkpt lat="32.996810913" lon="35.530780792">
  <ele>557.051758</ele>
  <time>2011-10-15T05:32:16Z</time>
  <speed>0.200000</speed>
</trkpt>
<trkpt lat="32.996822357" lon="35.530811310">
  <ele>556.551758</ele>
  <time>2011-10-15T05:33:20Z</time>
  <speed>0.160000</speed>
</trkpt>
<trkpt lat="32.996849060" lon="35.530834198">
  <ele>556.364258</ele>
  <time>2011-10-15T05:33:42Z</time>
  <speed>2.630000</speed>
</trkpt>
<trkpt lat="32.996875763" lon="35.530857086">
  <ele>556.489258</ele>
  <time>2011-10-15T05:33:43Z</time>
  <speed>3.620000</speed>
</trkpt>
<trkpt lat="32.996906281" lon="35.530879974">
  <ele>556.583008</ele>
  <time>2011-10-15T05:33:44Z</time>
  <speed>3.750000</speed>
</trkpt>
<trkpt lat="32.996940613" lon="35.530906677">
  <ele>556.801758</ele>
  <time>2011-10-15T05:33:45Z</time>
  <speed>3.680000</speed>
</trkpt>
<trkpt lat="32.996971130" lon="35.530937195">
  <ele>557.098633</ele>
  <time>2011-10-15T05:33:46Z</time>
  <speed>4.060000</speed>
</trkpt>
<trkpt lat="32.997009277" lon="35.530963898">
  <ele>557.379883</ele>
  <time>2011-10-15T05:33:47Z</time>
  <speed>4.450000</speed>
</trkpt>
<trkpt lat="32.997043610" lon="35.530990601">
  <ele>557.536133</ele>
  <time>2011-10-15T05:33:48Z</time>
  <speed>4.120000</speed>
</trkpt>
<trkpt lat="32.997081757" lon="35.531005859">
  <ele>557.411133</ele>
  <time>2011-10-15T05:33:49Z</time>
  <speed>4.330000</speed>
</trkpt>
<trkpt lat="32.997123718" lon="35.531024933">
  <ele>557.411133</ele>
  <time>2011-10-15T05:33:50Z</time>
  <speed>4.360000</speed>
</trkpt>
<trkpt lat="32.997177124" lon="35.531036377">
  <ele>557.098633</ele>
  <time>2011-10-15T05:33:51Z</time>
  <speed>4.450000</speed>
</trkpt>
<trkpt lat="32.997215271" lon="35.531044006">
  <ele>557.223633</ele>
  <time>2011-10-15T05:33:52Z</time>
  <speed>4.470000</speed>
</trkpt>
<trkpt lat="32.997257233" lon="35.531055450">
  <ele>557.192383</ele>
  <time>2011-10-15T05:33:53Z</time>
  <speed>4.100000</speed>
</trkpt>
<trkpt lat="32.997295380" lon="35.531063080">
  <ele>557.223633</ele>
  <time>2011-10-15T05:33:54Z</time>
  <speed>3.980000</speed>
</trkpt>
<trkpt lat="32.997329712" lon="35.531070709">
  <ele>557.051758</ele>
  <time>2011-10-15T05:33:55Z</time>
  <speed>3.680000</speed>
</trkpt>
<trkpt lat="32.997360229" lon="35.531078339">
  <ele>556.676758</ele>
  <time>2011-10-15T05:33:56Z</time>
  <speed>3.730000</speed>
</trkpt>
<trkpt lat="32.997398376" lon="35.531089783">
  <ele>556.239258</ele>
  <time>2011-10-15T05:33:57Z</time>
  <speed>3.880000</speed>
</trkpt>
<trkpt lat="32.997436523" lon="35.531101227">
  <ele>556.317383</ele>
  <time>2011-10-15T05:33:58Z</time>
  <speed>4.690000</speed>
</trkpt>
<trkpt lat="32.997474670" lon="35.531120300">
  <ele>556.129883</ele>
  <time>2011-10-15T05:33:59Z</time>
  <speed>4.630000</speed>
</trkpt>
<trkpt lat="32.997516632" lon="35.531143188">
  <ele>555.723633</ele>
  <time>2011-10-15T05:34:00Z</time>
  <speed>5.000000</speed>
</trkpt>
<trkpt lat="32.997554779" lon="35.531162262">
  <ele>555.645508</ele>
  <time>2011-10-15T05:34:01Z</time>
  <speed>4.070000</speed>
</trkpt>
<trkpt lat="32.997581482" lon="35.531185150">
  <ele>555.661133</ele>
  <time>2011-10-15T05:34:02Z</time>
  <speed>3.560000</speed>
</trkpt>
<trkpt lat="32.997650146" lon="35.531188965">
  <ele>553.833008</ele>
  <time>2011-10-15T05:34:03Z</time>
  <speed>4.810000</speed>
</trkpt>
<trkpt lat="32.997692108" lon="35.531208038">
  <ele>554.020508</ele>
  <time>2011-10-15T05:34:04Z</time>
  <speed>4.940000</speed>
</trkpt>
<trkpt lat="32.997749329" lon="35.531238556">
  <ele>554.208008</ele>
  <time>2011-10-15T05:34:05Z</time>
  <speed>5.860000</speed>
</trkpt>
<trkpt lat="32.997795105" lon="35.531272888">
  <ele>554.270508</ele>
  <time>2011-10-15T05:34:06Z</time>
  <speed>5.640000</speed>
</trkpt>
<trkpt lat="32.997844696" lon="35.531303406">
  <ele>554.301758</ele>
  <time>2011-10-15T05:34:07Z</time>
  <speed>5.880000</speed>
</trkpt>
<trkpt lat="32.997890472" lon="35.531341553">
  <ele>554.098633</ele>
  <time>2011-10-15T05:34:08Z</time>
  <speed>6.220000</speed>
</trkpt>
<trkpt lat="32.997951508" lon="35.531394958">
  <ele>553.661133</ele>
  <time>2011-10-15T05:34:09Z</time>
  <speed>6.640000</speed>
</trkpt>
<trkpt lat="32.997978210" lon="35.531455994">
  <ele>553.504883</ele>
  <time>2011-10-15T05:34:10Z</time>
  <speed>6.300000</speed>
</trkpt>
<trkpt lat="32.997997284" lon="35.531517029">
  <ele>553.270508</ele>
  <time>2011-10-15T05:34:11Z</time>
  <speed>6.770000</speed>
</trkpt>
<trkpt lat="32.998012543" lon="35.531585693">
  <ele>553.223633</ele>
  <time>2011-10-15T05:34:12Z</time>
  <speed>6.670000</speed>
</trkpt>
<trkpt lat="32.998027802" lon="35.531661987">
  <ele>553.379883</ele>
  <time>2011-10-15T05:34:13Z</time>
  <speed>7.320000</speed>
</trkpt>
<trkpt lat="32.998054504" lon="35.531749725">
  <ele>552.473633</ele>
  <time>2011-10-15T05:34:14Z</time>
  <speed>8.380000</speed>
</trkpt>
<trkpt lat="32.998073578" lon="35.531841278">
  <ele>552.598633</ele>
  <time>2011-10-15T05:34:15Z</time>
  <speed>8.250000</speed>
</trkpt>
<trkpt lat="32.998100281" lon="35.531936646">
  <ele>552.801758</ele>
  <time>2011-10-15T05:34:16Z</time>
  <speed>8.370000</speed>
</trkpt>
<trkpt lat="32.998134613" lon="35.532020569">
  <ele>552.754883</ele>
  <time>2011-10-15T05:34:17Z</time>
  <speed>7.800000</speed>
</trkpt>
<trkpt lat="32.998176575" lon="35.532093048">
  <ele>553.161133</ele>
  <time>2011-10-15T05:34:18Z</time>
  <speed>7.760000</speed>
</trkpt>
<trkpt lat="32.998229980" lon="35.532142639">
  <ele>553.270508</ele>
  <time>2011-10-15T05:34:19Z</time>
  <speed>7.310000</speed>
</trkpt>
<trkpt lat="32.998291016" lon="35.532169342">
  <ele>553.067383</ele>
  <time>2011-10-15T05:34:20Z</time>
  <speed>6.990000</speed>
</trkpt>
<trkpt lat="32.998348236" lon="35.532154083">
  <ele>551.786133</ele>
  <time>2011-10-15T05:34:21Z</time>
  <speed>6.110000</speed>
</trkpt>
<trkpt lat="32.998405457" lon="35.532150269">
  <ele>551.067383</ele>
  <time>2011-10-15T05:34:22Z</time>
  <speed>5.840000</speed>
</trkpt>
<trkpt lat="32.998458862" lon="35.532154083">
  <ele>550.739258</ele>
  <time>2011-10-15T05:34:23Z</time>
  <speed>5.420000</speed>
</trkpt>
<trkpt lat="32.998508453" lon="35.532154083">
  <ele>550.098633</ele>
  <time>2011-10-15T05:34:24Z</time>
  <speed>5.170000</speed>
</trkpt>
<trkpt lat="32.998554230" lon="35.532150269">
  <ele>549.239258</ele>
  <time>2011-10-15T05:34:25Z</time>
  <speed>4.820000</speed>
</trkpt>
<trkpt lat="32.998596191" lon="35.532150269">
  <ele>548.629883</ele>
  <time>2011-10-15T05:34:26Z</time>
  <speed>4.410000</speed>
</trkpt>
<trkpt lat="32.998634338" lon="35.532146454">
  <ele>549.270508</ele>
  <time>2011-10-15T05:34:27Z</time>
  <speed>4.720000</speed>
</trkpt>
<trkpt lat="32.998680115" lon="35.532146454">
  <ele>549.145508</ele>
  <time>2011-10-15T05:34:28Z</time>
  <speed>4.640000</speed>
</trkpt>
<trkpt lat="32.998722076" lon="35.532154083">
  <ele>548.895508</ele>
  <time>2011-10-15T05:34:29Z</time>
  <speed>4.400000</speed>
</trkpt>
<trkpt lat="32.998764038" lon="35.532154083">
  <ele>548.051758</ele>
  <time>2011-10-15T05:34:30Z</time>
  <speed>4.420000</speed>
</trkpt>
<trkpt lat="32.998806000" lon="35.532150269">
  <ele>548.004883</ele>
  <time>2011-10-15T05:34:31Z</time>
  <speed>4.130000</speed>
</trkpt>
<trkpt lat="32.998851776" lon="35.532154083">
  <ele>547.520508</ele>
  <time>2011-10-15T05:34:32Z</time>
  <speed>4.110000</speed>
</trkpt>
<trkpt lat="32.998893738" lon="35.532154083">
  <ele>547.270508</ele>
  <time>2011-10-15T05:34:33Z</time>
  <speed>3.840000</speed>
</trkpt>
<trkpt lat="32.998924255" lon="35.532157898">
  <ele>547.254883</ele>
  <time>2011-10-15T05:34:34Z</time>
  <speed>3.350000</speed>
</trkpt>
<trkpt lat="32.998954773" lon="35.532169342">
  <ele>547.895508</ele>
  <time>2011-10-15T05:34:35Z</time>
  <speed>3.340000</speed>
</trkpt>
<trkpt lat="32.998989105" lon="35.532176971">
  <ele>547.083008</ele>
  <time>2011-10-15T05:34:36Z</time>
  <speed>3.000000</speed>
</trkpt>
<trkpt lat="32.999015808" lon="35.532180786">
  <ele>547.114258</ele>
  <time>2011-10-15T05:34:37Z</time>
  <speed>2.700000</speed>
</trkpt>
<trkpt lat="32.999065399" lon="35.532173157">
  <ele>546.520508</ele>
  <time>2011-10-15T05:34:39Z</time>
  <speed>2.190000</speed>
</trkpt>
<trkpt lat="32.999092102" lon="35.532180786">
  <ele>547.254883</ele>
  <time>2011-10-15T05:34:40Z</time>
  <speed>2.310000</speed>
</trkpt>
<trkpt lat="32.999134064" lon="35.532192230">
  <ele>548.364258</ele>
  <time>2011-10-15T05:34:42Z</time>
  <speed>2.220000</speed>
</trkpt>
<trkpt lat="32.999176025" lon="35.532207489">
  <ele>547.364258</ele>
  <time>2011-10-15T05:34:44Z</time>
  <speed>2.130000</speed>
</trkpt>
<trkpt lat="32.999206543" lon="35.532234192">
  <ele>547.911133</ele>
  <time>2011-10-15T05:34:46Z</time>
  <speed>2.180000</speed>
</trkpt>
<trkpt lat="32.999233246" lon="35.532283783">
  <ele>547.145508</ele>
  <time>2011-10-15T05:34:48Z</time>
  <speed>2.530000</speed>
</trkpt>
<trkpt lat="32.999271393" lon="35.532314301">
  <ele>546.911133</ele>
  <time>2011-10-15T05:34:50Z</time>
  <speed>2.560000</speed>
</trkpt>
<trkpt lat="32.999320984" lon="35.532344818">
  <ele>547.301758</ele>
  <time>2011-10-15T05:34:52Z</time>
  <speed>3.120000</speed>
</trkpt>
<trkpt lat="32.999347687" lon="35.532356262">
  <ele>547.411133</ele>
  <time>2011-10-15T05:34:53Z</time>
  <speed>2.790000</speed>
</trkpt>
<trkpt lat="32.999378204" lon="35.532363892">
  <ele>546.473633</ele>
  <time>2011-10-15T05:34:54Z</time>
  <speed>3.180000</speed>
</trkpt>
<trkpt lat="32.999412537" lon="35.532367706">
  <ele>545.770508</ele>
  <time>2011-10-15T05:34:55Z</time>
  <speed>3.240000</speed>
</trkpt>
<trkpt lat="32.999454498" lon="35.532382965">
  <ele>545.895508</ele>
  <time>2011-10-15T05:34:57Z</time>
  <speed>2.200000</speed>
</trkpt>
<trkpt lat="32.999481201" lon="35.532375336">
  <ele>545.239258</ele>
  <time>2011-10-15T05:34:58Z</time>
  <speed>2.330000</speed>
</trkpt>
<trkpt lat="32.999519348" lon="35.532356262">
  <ele>545.161133</ele>
  <time>2011-10-15T05:35:00Z</time>
  <speed>2.950000</speed>
</trkpt>
<trkpt lat="32.999546051" lon="35.532341003">
  <ele>544.645508</ele>
  <time>2011-10-15T05:35:01Z</time>
  <speed>3.270000</speed>
</trkpt>
<trkpt lat="32.999580383" lon="35.532318115">
  <ele>545.129883</ele>
  <time>2011-10-15T05:35:02Z</time>
  <speed>3.690000</speed>
</trkpt>
<trkpt lat="32.999603271" lon="35.532291412">
  <ele>545.301758</ele>
  <time>2011-10-15T05:35:03Z</time>
  <speed>3.890000</speed>
</trkpt>
<trkpt lat="32.999629974" lon="35.532241821">
  <ele>544.536133</ele>
  <time>2011-10-15T05:35:04Z</time>
  <speed>4.620000</speed>
</trkpt>
<trkpt lat="32.999660492" lon="35.532211304">
  <ele>544.348633</ele>
  <time>2011-10-15T05:35:05Z</time>
  <speed>4.560000</speed>
</trkpt>
<trkpt lat="32.999694824" lon="35.532165527">
  <ele>543.911133</ele>
  <time>2011-10-15T05:35:06Z</time>
  <speed>5.460000</speed>
</trkpt>
<trkpt lat="32.999736786" lon="35.532127380">
  <ele>543.817383</ele>
  <time>2011-10-15T05:35:07Z</time>
  <speed>6.130000</speed>
</trkpt>
<trkpt lat="32.999782562" lon="35.532070160">
  <ele>545.208008</ele>
  <time>2011-10-15T05:35:08Z</time>
  <speed>6.520000</speed>
</trkpt>
<trkpt lat="32.999839783" lon="35.532012939">
  <ele>545.098633</ele>
  <time>2011-10-15T05:35:09Z</time>
  <speed>6.790000</speed>
</trkpt>
<trkpt lat="32.999881744" lon="35.531955719">
  <ele>545.145508</ele>
  <time>2011-10-15T05:35:10Z</time>
  <speed>6.630000</speed>
</trkpt>
<trkpt lat="32.999919891" lon="35.531909943">
  <ele>545.145508</ele>
  <time>2011-10-15T05:35:11Z</time>
  <speed>6.120000</speed>
</trkpt>
<trkpt lat="32.999961853" lon="35.531860352">
  <ele>544.770508</ele>
  <time>2011-10-15T05:35:12Z</time>
  <speed>6.000000</speed>
</trkpt>
<trkpt lat="33.000003815" lon="35.531806946">
  <ele>544.442383</ele>
  <time>2011-10-15T05:35:13Z</time>
  <speed>6.310000</speed>
</trkpt>
<trkpt lat="33.000038147" lon="35.531749725">
  <ele>544.364258</ele>
  <time>2011-10-15T05:35:14Z</time>
  <speed>6.200000</speed>
</trkpt>
<trkpt lat="33.000072479" lon="35.531684875">
  <ele>544.426758</ele>
  <time>2011-10-15T05:35:15Z</time>
  <speed>6.300000</speed>
</trkpt>
<trkpt lat="33.000095367" lon="35.531620026">
  <ele>543.723633</ele>
  <time>2011-10-15T05:35:16Z</time>
  <speed>6.150000</speed>
</trkpt>
<trkpt lat="33.000118256" lon="35.531562805">
  <ele>543.723633</ele>
  <time>2011-10-15T05:35:17Z</time>
  <speed>5.660000</speed>
</trkpt>
<trkpt lat="33.000122070" lon="35.531494141">
  <ele>543.504883</ele>
  <time>2011-10-15T05:35:18Z</time>
  <speed>6.270000</speed>
</trkpt>
<trkpt lat="33.000125885" lon="35.531429291">
  <ele>543.129883</ele>
  <time>2011-10-15T05:35:19Z</time>
  <speed>5.820000</speed>
</trkpt>
<trkpt lat="33.000137329" lon="35.531360626">
  <ele>542.723633</ele>
  <time>2011-10-15T05:35:20Z</time>
  <speed>5.570000</speed>
</trkpt>
<trkpt lat="33.000148773" lon="35.531303406">
  <ele>542.754883</ele>
  <time>2011-10-15T05:35:21Z</time>
  <speed>4.880000</speed>
</trkpt>
<trkpt lat="33.000156403" lon="35.531250000">
  <ele>542.661133</ele>
  <time>2011-10-15T05:35:22Z</time>
  <speed>4.480000</speed>
</trkpt>
<trkpt lat="33.000160217" lon="35.531196594">
  <ele>542.426758</ele>
  <time>2011-10-15T05:35:23Z</time>
  <speed>4.070000</speed>
</trkpt>
<trkpt lat="33.000164032" lon="35.531143188">
  <ele>542.520508</ele>
  <time>2011-10-15T05:35:24Z</time>
  <speed>4.490000</speed>
</trkpt>
<trkpt lat="33.000167847" lon="35.531085968">
  <ele>542.801758</ele>
  <time>2011-10-15T05:35:25Z</time>
  <speed>4.590000</speed>
</trkpt>
<trkpt lat="33.000171661" lon="35.531024933">
  <ele>542.598633</ele>
  <time>2011-10-15T05:35:26Z</time>
  <speed>4.990000</speed>
</trkpt>
<trkpt lat="33.000186920" lon="35.530963898">
  <ele>542.536133</ele>
  <time>2011-10-15T05:35:27Z</time>
  <speed>4.860000</speed>
</trkpt>
<trkpt lat="33.000194550" lon="35.530895233">
  <ele>542.583008</ele>
  <time>2011-10-15T05:35:28Z</time>
  <speed>4.840000</speed>
</trkpt>
<trkpt lat="33.000198364" lon="35.530822754">
  <ele>542.661133</ele>
  <time>2011-10-15T05:35:29Z</time>
  <speed>4.720000</speed>
</trkpt>
<trkpt lat="33.000205994" lon="35.530765533">
  <ele>542.286133</ele>
  <time>2011-10-15T05:35:30Z</time>
  <speed>3.740000</speed>
</trkpt>
<trkpt lat="33.000202179" lon="35.530715942">
  <ele>541.786133</ele>
  <time>2011-10-15T05:35:31Z</time>
  <speed>3.460000</speed>
</trkpt>
<trkpt lat="33.000202179" lon="35.530673981">
  <ele>541.629883</ele>
  <time>2011-10-15T05:35:32Z</time>
  <speed>3.320000</speed>
</trkpt>
<trkpt lat="33.000209808" lon="35.530609131">
  <ele>541.786133</ele>
  <time>2011-10-15T05:35:33Z</time>
  <speed>4.120000</speed>
</trkpt>
<trkpt lat="33.000183105" lon="35.530536652">
  <ele>540.379883</ele>
  <time>2011-10-15T05:35:34Z</time>
  <speed>4.660000</speed>
</trkpt>
<trkpt lat="33.000194550" lon="35.530475616">
  <ele>540.036133</ele>
  <time>2011-10-15T05:35:35Z</time>
  <speed>4.630000</speed>
</trkpt>
<trkpt lat="33.000217438" lon="35.530414581">
  <ele>538.739258</ele>
  <time>2011-10-15T05:35:36Z</time>
  <speed>5.890000</speed>
</trkpt>
<trkpt lat="33.000255585" lon="35.530376434">
  <ele>538.583008</ele>
  <time>2011-10-15T05:35:37Z</time>
  <speed>5.240000</speed>
</trkpt>
<trkpt lat="33.000297546" lon="35.530330658">
  <ele>538.208008</ele>
  <time>2011-10-15T05:35:38Z</time>
  <speed>5.080000</speed>
</trkpt>
<trkpt lat="33.000339508" lon="35.530288696">
  <ele>538.192383</ele>
  <time>2011-10-15T05:35:39Z</time>
  <speed>4.370000</speed>
</trkpt>
<trkpt lat="33.000358582" lon="35.530261993">
  <ele>537.286133</ele>
  <time>2011-10-15T05:35:40Z</time>
  <speed>2.440000</speed>
</trkpt>
<trkpt lat="33.000370026" lon="35.530220032">
  <ele>538.129883</ele>
  <time>2011-10-15T05:35:42Z</time>
  <speed>0.170000</speed>
</trkpt>
<trkpt lat="33.000358582" lon="35.530185699">
  <ele>537.958008</ele>
  <time>2011-10-15T05:35:45Z</time>
  <speed>0.090000</speed>
</trkpt>
<trkpt lat="33.000373840" lon="35.530158997">
  <ele>537.504883</ele>
  <time>2011-10-15T05:35:59Z</time>
  <speed>0.150000</speed>
</trkpt>
<trkpt lat="33.000400543" lon="35.530128479">
  <ele>537.676758</ele>
  <time>2011-10-15T05:36:14Z</time>
  <speed>0.810000</speed>
</trkpt>
<trkpt lat="33.000450134" lon="35.530117035">
  <ele>538.895508</ele>
  <time>2011-10-15T05:36:16Z</time>
  <speed>1.270000</speed>
</trkpt>
<trkpt lat="33.000484467" lon="35.530105591">
  <ele>539.754883</ele>
  <time>2011-10-15T05:36:18Z</time>
  <speed>1.250000</speed>
</trkpt>
<trkpt lat="33.000541687" lon="35.530105591">
  <ele>540.395508</ele>
  <time>2011-10-15T05:36:21Z</time>
  <speed>1.830000</speed>
</trkpt>
<trkpt lat="33.000576019" lon="35.530094147">
  <ele>540.864258</ele>
  <time>2011-10-15T05:36:23Z</time>
  <speed>0.950000</speed>
</trkpt>
<trkpt lat="33.000602722" lon="35.530075073">
  <ele>540.551758</ele>
  <time>2011-10-15T05:36:26Z</time>
  <speed>0.490000</speed>
</trkpt>
<trkpt lat="33.000606537" lon="35.530052185">
  <ele>538.348633</ele>
  <time>2011-10-15T05:36:29Z</time>
  <speed>0.070000</speed>
</trkpt>
<trkpt lat="33.000617981" lon="35.530017853">
  <ele>537.067383</ele>
  <time>2011-10-15T05:36:35Z</time>
  <speed>0.070000</speed>
</trkpt>
<trkpt lat="33.000659943" lon="35.529998779">
  <ele>536.254883</ele>
  <time>2011-10-15T05:36:39Z</time>
  <speed>0.080000</speed>
</trkpt>
<trkpt lat="33.000671387" lon="35.529979706">
  <ele>534.301758</ele>
  <time>2011-10-15T05:36:42Z</time>
  <speed>0.070000</speed>
</trkpt>
<trkpt lat="33.000675201" lon="35.530014038">
  <ele>532.926758</ele>
  <time>2011-10-15T05:36:52Z</time>
</trkpt>
<trkpt lat="33.000694275" lon="35.530033112">
  <ele>531.208008</ele>
  <time>2011-10-15T05:36:56Z</time>
  <speed>0.310000</speed>
</trkpt>
<trkpt lat="33.000720978" lon="35.530082703">
  <ele>530.786133</ele>
  <time>2011-10-15T05:36:59Z</time>
  <speed>2.310000</speed>
</trkpt>
<trkpt lat="33.000743866" lon="35.530109406">
  <ele>530.817383</ele>
  <time>2011-10-15T05:37:00Z</time>
  <speed>3.050000</speed>
</trkpt>
<trkpt lat="33.000770569" lon="35.530132294">
  <ele>531.114258</ele>
  <time>2011-10-15T05:37:01Z</time>
  <speed>3.390000</speed>
</trkpt>
<trkpt lat="33.000801086" lon="35.530158997">
  <ele>531.083008</ele>
  <time>2011-10-15T05:37:02Z</time>
  <speed>4.400000</speed>
</trkpt>
<trkpt lat="33.000839233" lon="35.530193329">
  <ele>530.989258</ele>
  <time>2011-10-15T05:37:03Z</time>
  <speed>4.670000</speed>
</trkpt>
<trkpt lat="33.000877380" lon="35.530235291">
  <ele>530.801758</ele>
  <time>2011-10-15T05:37:04Z</time>
  <speed>5.030000</speed>
</trkpt>
<trkpt lat="33.000919342" lon="35.530273438">
  <ele>530.895508</ele>
  <time>2011-10-15T05:37:05Z</time>
  <speed>5.860000</speed>
</trkpt>
<trkpt lat="33.000988007" lon="35.530323029">
  <ele>530.489258</ele>
  <time>2011-10-15T05:37:06Z</time>
  <speed>6.640000</speed>
</trkpt>
<trkpt lat="33.001037598" lon="35.530353546">
  <ele>530.536133</ele>
  <time>2011-10-15T05:37:07Z</time>
  <speed>4.120000</speed>
</trkpt>
<trkpt lat="33.001083374" lon="35.530387878">
  <ele>530.629883</ele>
  <time>2011-10-15T05:37:08Z</time>
  <speed>3.110000</speed>
</trkpt>
<trkpt lat="33.001110077" lon="35.530410767">
  <ele>530.661133</ele>
  <time>2011-10-15T05:37:09Z</time>
  <speed>2.250000</speed>
</trkpt>
<trkpt lat="33.001140594" lon="35.530418396">
  <ele>530.551758</ele>
  <time>2011-10-15T05:37:10Z</time>
  <speed>2.050000</speed>
</trkpt>
<trkpt lat="33.001182556" lon="35.530452728">
  <ele>530.067383</ele>
  <time>2011-10-15T05:37:12Z</time>
  <speed>2.020000</speed>
</trkpt>
<trkpt lat="33.001220703" lon="35.530498505">
  <ele>530.317383</ele>
  <time>2011-10-15T05:37:14Z</time>
  <speed>3.000000</speed>
</trkpt>
<trkpt lat="33.001247406" lon="35.530540466">
  <ele>530.161133</ele>
  <time>2011-10-15T05:37:15Z</time>
  <speed>4.480000</speed>
</trkpt>
<trkpt lat="33.001274109" lon="35.530578613">
  <ele>529.708008</ele>
  <time>2011-10-15T05:37:16Z</time>
  <speed>4.420000</speed>
</trkpt>
<trkpt lat="33.001304626" lon="35.530624390">
  <ele>529.583008</ele>
  <time>2011-10-15T05:37:17Z</time>
  <speed>3.860000</speed>
</trkpt>
<trkpt lat="33.001331329" lon="35.530647278">
  <ele>529.833008</ele>
  <time>2011-10-15T05:37:18Z</time>
  <speed>2.770000</speed>
</trkpt>
<trkpt lat="33.001377106" lon="35.530662537">
  <ele>529.333008</ele>
  <time>2011-10-15T05:37:19Z</time>
  <speed>2.280000</speed>
</trkpt>
<trkpt lat="33.001419067" lon="35.530689240">
  <ele>529.458008</ele>
  <time>2011-10-15T05:37:21Z</time>
  <speed>0.810000</speed>
</trkpt>
<trkpt lat="33.001407623" lon="35.530727386">
  <ele>530.020508</ele>
  <time>2011-10-15T05:37:23Z</time>
  <speed>0.050000</speed>
</trkpt>
<trkpt lat="33.001434326" lon="35.530735016">
  <ele>529.864258</ele>
  <time>2011-10-15T05:38:33Z</time>
  <speed>0.100000</speed>
</trkpt>
<trkpt lat="33.001457214" lon="35.530757904">
  <ele>529.645508</ele>
  <time>2011-10-15T05:38:42Z</time>
  <speed>2.060000</speed>
</trkpt>
<trkpt lat="33.001472473" lon="35.530788422">
  <ele>530.083008</ele>
  <time>2011-10-15T05:38:43Z</time>
  <speed>2.930000</speed>
</trkpt>
<trkpt lat="33.001522064" lon="35.530834198">
  <ele>529.708008</ele>
  <time>2011-10-15T05:38:45Z</time>
  <speed>3.500000</speed>
</trkpt>
<trkpt lat="33.001548767" lon="35.530860901">
  <ele>529.379883</ele>
  <time>2011-10-15T05:38:46Z</time>
  <speed>3.800000</speed>
</trkpt>
<trkpt lat="33.001571655" lon="35.530895233">
  <ele>529.598633</ele>
  <time>2011-10-15T05:38:47Z</time>
  <speed>3.870000</speed>
</trkpt>
<trkpt lat="33.001598358" lon="35.530929565">
  <ele>529.504883</ele>
  <time>2011-10-15T05:38:48Z</time>
  <speed>3.810000</speed>
</trkpt>
<trkpt lat="33.001625061" lon="35.530960083">
  <ele>529.567383</ele>
  <time>2011-10-15T05:38:49Z</time>
  <speed>3.480000</speed>
</trkpt>
<trkpt lat="33.001647949" lon="35.530986786">
  <ele>529.801758</ele>
  <time>2011-10-15T05:38:50Z</time>
  <speed>3.120000</speed>
</trkpt>
<trkpt lat="33.001670837" lon="35.531009674">
  <ele>529.989258</ele>
  <time>2011-10-15T05:38:51Z</time>
  <speed>2.900000</speed>
</trkpt>
<trkpt lat="33.001693726" lon="35.531028748">
  <ele>529.739258</ele>
  <time>2011-10-15T05:38:52Z</time>
  <speed>2.840000</speed>
</trkpt>
<trkpt lat="33.001716614" lon="35.531051636">
  <ele>529.504883</ele>
  <time>2011-10-15T05:38:53Z</time>
  <speed>3.400000</speed>
</trkpt>
<trkpt lat="33.001750946" lon="35.531078339">
  <ele>529.426758</ele>
  <time>2011-10-15T05:38:54Z</time>
  <speed>4.050000</speed>
</trkpt>
<trkpt lat="33.001800537" lon="35.531105042">
  <ele>529.879883</ele>
  <time>2011-10-15T05:38:55Z</time>
  <speed>4.040000</speed>
</trkpt>
<trkpt lat="33.001831055" lon="35.531124115">
  <ele>530.004883</ele>
  <time>2011-10-15T05:38:56Z</time>
  <speed>3.870000</speed>
</trkpt>
<trkpt lat="33.001876831" lon="35.531147003">
  <ele>528.833008</ele>
  <time>2011-10-15T05:38:58Z</time>
  <speed>2.150000</speed>
</trkpt>
<trkpt lat="33.001926422" lon="35.531166077">
  <ele>528.770508</ele>
  <time>2011-10-15T05:39:00Z</time>
  <speed>2.210000</speed>
</trkpt>
<trkpt lat="33.001953125" lon="35.531181335">
  <ele>529.317383</ele>
  <time>2011-10-15T05:39:01Z</time>
  <speed>2.160000</speed>
</trkpt>
<trkpt lat="33.002002716" lon="35.531208038">
  <ele>529.270508</ele>
  <time>2011-10-15T05:39:03Z</time>
  <speed>3.220000</speed>
</trkpt>
<trkpt lat="33.002044678" lon="35.531246185">
  <ele>529.254883</ele>
  <time>2011-10-15T05:39:05Z</time>
  <speed>2.650000</speed>
</trkpt>
<trkpt lat="33.002079010" lon="35.531257629">
  <ele>528.411133</ele>
  <time>2011-10-15T05:39:06Z</time>
  <speed>2.880000</speed>
</trkpt>
<trkpt lat="33.002101898" lon="35.531280518">
  <ele>528.833008</ele>
  <time>2011-10-15T05:39:07Z</time>
  <speed>3.050000</speed>
</trkpt>
<trkpt lat="33.002136230" lon="35.531295776">
  <ele>528.551758</ele>
  <time>2011-10-15T05:39:08Z</time>
  <speed>2.570000</speed>
</trkpt>
<trkpt lat="33.002185822" lon="35.531330109">
  <ele>528.129883</ele>
  <time>2011-10-15T05:39:10Z</time>
  <speed>2.730000</speed>
</trkpt>
<trkpt lat="33.002216339" lon="35.531349182">
  <ele>527.708008</ele>
  <time>2011-10-15T05:39:11Z</time>
  <speed>3.230000</speed>
</trkpt>
<trkpt lat="33.002243042" lon="35.531368256">
  <ele>527.536133</ele>
  <time>2011-10-15T05:39:12Z</time>
  <speed>3.160000</speed>
</trkpt>
<trkpt lat="33.002273560" lon="35.531387329">
  <ele>527.567383</ele>
  <time>2011-10-15T05:39:13Z</time>
  <speed>2.880000</speed>
</trkpt>
<trkpt lat="33.002292633" lon="35.531402588">
  <ele>527.817383</ele>
  <time>2011-10-15T05:39:14Z</time>
  <speed>3.010000</speed>
</trkpt>
<trkpt lat="33.002315521" lon="35.531421661">
  <ele>528.458008</ele>
  <time>2011-10-15T05:39:15Z</time>
  <speed>2.700000</speed>
</trkpt>
<trkpt lat="33.002338409" lon="35.531448364">
  <ele>528.286133</ele>
  <time>2011-10-15T05:39:16Z</time>
  <speed>2.550000</speed>
</trkpt>
<trkpt lat="33.002372742" lon="35.531486511">
  <ele>528.192383</ele>
  <time>2011-10-15T05:39:18Z</time>
  <speed>2.530000</speed>
</trkpt>
<trkpt lat="33.002422333" lon="35.531520844">
  <ele>528.442383</ele>
  <time>2011-10-15T05:39:20Z</time>
  <speed>2.860000</speed>
</trkpt>
<trkpt lat="33.002449036" lon="35.531543732">
  <ele>528.301758</ele>
  <time>2011-10-15T05:39:21Z</time>
  <speed>2.870000</speed>
</trkpt>
<trkpt lat="33.002483368" lon="35.531578064">
  <ele>529.036133</ele>
  <time>2011-10-15T05:39:23Z</time>
  <speed>2.230000</speed>
</trkpt>
<trkpt lat="33.002513885" lon="35.531593323">
  <ele>529.629883</ele>
  <time>2011-10-15T05:39:24Z</time>
  <speed>2.460000</speed>
</trkpt>
<trkpt lat="33.002536774" lon="35.531608582">
  <ele>530.301758</ele>
  <time>2011-10-15T05:39:25Z</time>
  <speed>2.440000</speed>
</trkpt>
<trkpt lat="33.002571106" lon="35.531631470">
  <ele>532.223633</ele>
  <time>2011-10-15T05:39:27Z</time>
  <speed>1.430000</speed>
</trkpt>
<trkpt lat="33.002605438" lon="35.531665802">
  <ele>533.426758</ele>
  <time>2011-10-15T05:39:29Z</time>
  <speed>2.080000</speed>
</trkpt>
<trkpt lat="33.002651215" lon="35.531703949">
  <ele>533.817383</ele>
  <time>2011-10-15T05:39:31Z</time>
  <speed>2.330000</speed>
</trkpt>
<trkpt lat="33.002681732" lon="35.531742096">
  <ele>534.083008</ele>
  <time>2011-10-15T05:39:32Z</time>
  <speed>2.560000</speed>
</trkpt>
<trkpt lat="33.002719879" lon="35.531772614">
  <ele>535.129883</ele>
  <time>2011-10-15T05:39:34Z</time>
  <speed>2.350000</speed>
</trkpt>
<trkpt lat="33.002746582" lon="35.531791687">
  <ele>535.192383</ele>
  <time>2011-10-15T05:39:35Z</time>
  <speed>2.590000</speed>
</trkpt>
<trkpt lat="33.002769470" lon="35.531806946">
  <ele>535.083008</ele>
  <time>2011-10-15T05:39:36Z</time>
  <speed>2.460000</speed>
</trkpt>
<trkpt lat="33.002788544" lon="35.531829834">
  <ele>535.598633</ele>
  <time>2011-10-15T05:39:37Z</time>
  <speed>2.830000</speed>
</trkpt>
<trkpt lat="33.002822876" lon="35.531852722">
  <ele>535.083008</ele>
  <time>2011-10-15T05:39:38Z</time>
  <speed>3.380000</speed>
</trkpt>
<trkpt lat="33.002853394" lon="35.531871796">
  <ele>535.458008</ele>
  <time>2011-10-15T05:39:39Z</time>
  <speed>3.260000</speed>
</trkpt>
<trkpt lat="33.002880096" lon="35.531887054">
  <ele>535.114258</ele>
  <time>2011-10-15T05:39:40Z</time>
  <speed>2.460000</speed>
</trkpt>
<trkpt lat="33.002910614" lon="35.531898499">
  <ele>535.145508</ele>
  <time>2011-10-15T05:39:41Z</time>
  <speed>3.390000</speed>
</trkpt>
<trkpt lat="33.002941132" lon="35.531917572">
  <ele>535.051758</ele>
  <time>2011-10-15T05:39:42Z</time>
  <speed>2.850000</speed>
</trkpt>
<trkpt lat="33.002975464" lon="35.531936646">
  <ele>534.379883</ele>
  <time>2011-10-15T05:39:43Z</time>
  <speed>3.370000</speed>
</trkpt>
<trkpt lat="33.003005981" lon="35.531944275">
  <ele>534.645508</ele>
  <time>2011-10-15T05:39:44Z</time>
  <speed>3.000000</speed>
</trkpt>
<trkpt lat="33.003036499" lon="35.531955719">
  <ele>535.598633</ele>
  <time>2011-10-15T05:39:45Z</time>
  <speed>2.840000</speed>
</trkpt>
<trkpt lat="33.003067017" lon="35.531963348">
  <ele>535.879883</ele>
  <time>2011-10-15T05:39:46Z</time>
  <speed>3.010000</speed>
</trkpt>
<trkpt lat="33.003101349" lon="35.531978607">
  <ele>536.692383</ele>
  <time>2011-10-15T05:39:47Z</time>
  <speed>3.080000</speed>
</trkpt>
<trkpt lat="33.003135681" lon="35.531986237">
  <ele>536.848633</ele>
  <time>2011-10-15T05:39:48Z</time>
  <speed>3.050000</speed>
</trkpt>
<trkpt lat="33.003166199" lon="35.531997681">
  <ele>536.551758</ele>
  <time>2011-10-15T05:39:49Z</time>
  <speed>2.890000</speed>
</trkpt>
<trkpt lat="33.003200531" lon="35.531997681">
  <ele>536.098633</ele>
  <time>2011-10-15T05:39:50Z</time>
  <speed>2.660000</speed>
</trkpt>
<trkpt lat="33.003227234" lon="35.531997681">
  <ele>535.739258</ele>
  <time>2011-10-15T05:39:51Z</time>
  <speed>3.210000</speed>
</trkpt>
<trkpt lat="33.003273010" lon="35.532005310">
  <ele>535.551758</ele>
  <time>2011-10-15T05:39:52Z</time>
  <speed>3.640000</speed>
</trkpt>
<trkpt lat="33.003311157" lon="35.532009125">
  <ele>534.770508</ele>
  <time>2011-10-15T05:39:53Z</time>
  <speed>3.620000</speed>
</trkpt>
<trkpt lat="33.003345490" lon="35.532012939">
  <ele>535.004883</ele>
  <time>2011-10-15T05:39:54Z</time>
  <speed>3.700000</speed>
</trkpt>
<trkpt lat="33.003379822" lon="35.532020569">
  <ele>534.817383</ele>
  <time>2011-10-15T05:39:55Z</time>
  <speed>3.280000</speed>
</trkpt>
<trkpt lat="33.003410339" lon="35.532028198">
  <ele>534.598633</ele>
  <time>2011-10-15T05:39:56Z</time>
  <speed>3.120000</speed>
</trkpt>
<trkpt lat="33.003448486" lon="35.532028198">
  <ele>533.848633</ele>
  <time>2011-10-15T05:39:57Z</time>
  <speed>3.510000</speed>
</trkpt>
<trkpt lat="33.003482819" lon="35.532035828">
  <ele>533.458008</ele>
  <time>2011-10-15T05:39:58Z</time>
  <speed>3.700000</speed>
</trkpt>
<trkpt lat="33.003532410" lon="35.532043457">
  <ele>533.504883</ele>
  <time>2011-10-15T05:39:59Z</time>
  <speed>4.710000</speed>
</trkpt>
<trkpt lat="33.003597260" lon="35.532051086">
  <ele>533.348633</ele>
  <time>2011-10-15T05:40:00Z</time>
  <speed>5.720000</speed>
</trkpt>
<trkpt lat="33.003658295" lon="35.532054901">
  <ele>532.489258</ele>
  <time>2011-10-15T05:40:01Z</time>
  <speed>6.170000</speed>
</trkpt>
<trkpt lat="33.003730774" lon="35.532054901">
  <ele>532.676758</ele>
  <time>2011-10-15T05:40:02Z</time>
  <speed>7.380000</speed>
</trkpt>
<trkpt lat="33.003799438" lon="35.532054901">
  <ele>531.629883</ele>
  <time>2011-10-15T05:40:03Z</time>
  <speed>7.890000</speed>
</trkpt>
<trkpt lat="33.003875732" lon="35.532039642">
  <ele>530.239258</ele>
  <time>2011-10-15T05:40:04Z</time>
  <speed>8.470000</speed>
</trkpt>
<trkpt lat="33.003971100" lon="35.532009125">
  <ele>530.098633</ele>
  <time>2011-10-15T05:40:05Z</time>
  <speed>8.820000</speed>
</trkpt>
<trkpt lat="33.004043579" lon="35.531967163">
  <ele>529.364258</ele>
  <time>2011-10-15T05:40:06Z</time>
  <speed>7.760000</speed>
</trkpt>
<trkpt lat="33.004096985" lon="35.531921387">
  <ele>529.583008</ele>
  <time>2011-10-15T05:40:07Z</time>
  <speed>6.410000</speed>
</trkpt>
<trkpt lat="33.004158020" lon="35.531871796">
  <ele>527.114258</ele>
  <time>2011-10-15T05:40:08Z</time>
  <speed>5.740000</speed>
</trkpt>
<trkpt lat="33.004199982" lon="35.531822205">
  <ele>526.208008</ele>
  <time>2011-10-15T05:40:09Z</time>
  <speed>5.130000</speed>
</trkpt>
<trkpt lat="33.004238129" lon="35.531784058">
  <ele>527.067383</ele>
  <time>2011-10-15T05:40:10Z</time>
  <speed>4.390000</speed>
</trkpt>
<trkpt lat="33.004272461" lon="35.531761169">
  <ele>526.473633</ele>
  <time>2011-10-15T05:40:11Z</time>
  <speed>4.210000</speed>
</trkpt>
<trkpt lat="33.004299164" lon="35.531730652">
  <ele>523.989258</ele>
  <time>2011-10-15T05:40:12Z</time>
  <speed>3.630000</speed>
</trkpt>
<trkpt lat="33.004329681" lon="35.531696320">
  <ele>522.973633</ele>
  <time>2011-10-15T05:40:13Z</time>
  <speed>3.530000</speed>
</trkpt>
<trkpt lat="33.004352570" lon="35.531669617">
  <ele>523.817383</ele>
  <time>2011-10-15T05:40:14Z</time>
  <speed>3.680000</speed>
</trkpt>
<trkpt lat="33.004379272" lon="35.531646729">
  <ele>522.817383</ele>
  <time>2011-10-15T05:40:15Z</time>
  <speed>3.650000</speed>
</trkpt>
<trkpt lat="33.004409790" lon="35.531623840">
  <ele>522.317383</ele>
  <time>2011-10-15T05:40:16Z</time>
  <speed>4.040000</speed>
</trkpt>
<trkpt lat="33.004444122" lon="35.531604767">
  <ele>521.739258</ele>
  <time>2011-10-15T05:40:17Z</time>
  <speed>4.290000</speed>
</trkpt>
<trkpt lat="33.004482269" lon="35.531589508">
  <ele>521.583008</ele>
  <time>2011-10-15T05:40:18Z</time>
  <speed>4.650000</speed>
</trkpt>
<trkpt lat="33.004520416" lon="35.531566620">
  <ele>521.504883</ele>
  <time>2011-10-15T05:40:19Z</time>
  <speed>4.690000</speed>
</trkpt>
<trkpt lat="33.004554749" lon="35.531551361">
  <ele>521.051758</ele>
  <time>2011-10-15T05:40:20Z</time>
  <speed>3.900000</speed>
</trkpt>
<trkpt lat="33.004589081" lon="35.531532288">
  <ele>519.473633</ele>
  <time>2011-10-15T05:40:21Z</time>
  <speed>3.920000</speed>
</trkpt>
<trkpt lat="33.004627228" lon="35.531513214">
  <ele>518.442383</ele>
  <time>2011-10-15T05:40:22Z</time>
  <speed>4.550000</speed>
</trkpt>
<trkpt lat="33.004673004" lon="35.531497955">
  <ele>517.770508</ele>
  <time>2011-10-15T05:40:23Z</time>
  <speed>5.020000</speed>
</trkpt>
<trkpt lat="33.004718781" lon="35.531497955">
  <ele>516.770508</ele>
  <time>2011-10-15T05:40:24Z</time>
  <speed>4.530000</speed>
</trkpt>
<trkpt lat="33.004760742" lon="35.531486511">
  <ele>516.958008</ele>
  <time>2011-10-15T05:40:25Z</time>
  <speed>4.840000</speed>
</trkpt>
<trkpt lat="33.004810333" lon="35.531490326">
  <ele>515.176758</ele>
  <time>2011-10-15T05:40:26Z</time>
  <speed>5.080000</speed>
</trkpt>
<trkpt lat="33.004859924" lon="35.531497955">
  <ele>514.833008</ele>
  <time>2011-10-15T05:40:27Z</time>
  <speed>5.400000</speed>
</trkpt>
<trkpt lat="33.004913330" lon="35.531520844">
  <ele>513.817383</ele>
  <time>2011-10-15T05:40:28Z</time>
  <speed>5.980000</speed>
</trkpt>
<trkpt lat="33.004966736" lon="35.531555176">
  <ele>513.301758</ele>
  <time>2011-10-15T05:40:29Z</time>
  <speed>6.100000</speed>
</trkpt>
<trkpt lat="33.005020142" lon="35.531597137">
  <ele>512.942383</ele>
  <time>2011-10-15T05:40:30Z</time>
  <speed>6.530000</speed>
</trkpt>
<trkpt lat="33.005084991" lon="35.531639099">
  <ele>511.494629</ele>
  <time>2011-10-15T05:40:31Z</time>
  <speed>6.520000</speed>
</trkpt>
<trkpt lat="33.005126953" lon="35.531684875">
  <ele>510.697754</ele>
  <time>2011-10-15T05:40:32Z</time>
  <speed>6.250000</speed>
</trkpt>
<trkpt lat="33.005168915" lon="35.531726837">
  <ele>509.604004</ele>
  <time>2011-10-15T05:40:33Z</time>
  <speed>5.550000</speed>
</trkpt>
<trkpt lat="33.005207062" lon="35.531772614">
  <ele>509.049316</ele>
  <time>2011-10-15T05:40:34Z</time>
  <speed>5.660000</speed>
</trkpt>
<trkpt lat="33.005249023" lon="35.531803131">
  <ele>508.572754</ele>
  <time>2011-10-15T05:40:35Z</time>
  <speed>4.310000</speed>
</trkpt>
<trkpt lat="33.005290985" lon="35.531806946">
  <ele>508.611816</ele>
  <time>2011-10-15T05:40:36Z</time>
  <speed>3.430000</speed>
</trkpt>
<trkpt lat="33.005332947" lon="35.531806946">
  <ele>507.775879</ele>
  <time>2011-10-15T05:40:37Z</time>
  <speed>3.890000</speed>
</trkpt>
<trkpt lat="33.005367279" lon="35.531776428">
  <ele>506.549316</ele>
  <time>2011-10-15T05:40:38Z</time>
  <speed>3.420000</speed>
</trkpt>
<trkpt lat="33.005393982" lon="35.531730652">
  <ele>504.650879</ele>
  <time>2011-10-15T05:40:39Z</time>
  <speed>3.390000</speed>
</trkpt>
<trkpt lat="33.005424500" lon="35.531707764">
  <ele>504.408691</ele>
  <time>2011-10-15T05:40:40Z</time>
  <speed>3.790000</speed>
</trkpt>
<trkpt lat="33.005451202" lon="35.531661987">
  <ele>503.361816</ele>
  <time>2011-10-15T05:40:41Z</time>
  <speed>4.210000</speed>
</trkpt>
<trkpt lat="33.005485535" lon="35.531620026">
  <ele>501.924316</ele>
  <time>2011-10-15T05:40:42Z</time>
  <speed>4.320000</speed>
</trkpt>
<trkpt lat="33.005531311" lon="35.531566620">
  <ele>500.455566</ele>
  <time>2011-10-15T05:40:43Z</time>
  <speed>4.830000</speed>
</trkpt>
<trkpt lat="33.005527496" lon="35.531505585">
  <ele>499.846191</ele>
  <time>2011-10-15T05:40:44Z</time>
  <speed>5.720000</speed>
</trkpt>
<trkpt lat="33.005500793" lon="35.531436920">
  <ele>499.408691</ele>
  <time>2011-10-15T05:40:45Z</time>
  <speed>5.710000</speed>
</trkpt>
<trkpt lat="33.005477905" lon="35.531379700">
  <ele>499.229004</ele>
  <time>2011-10-15T05:40:46Z</time>
  <speed>4.710000</speed>
</trkpt>
<trkpt lat="33.005455017" lon="35.531326294">
  <ele>499.283691</ele>
  <time>2011-10-15T05:40:47Z</time>
  <speed>4.130000</speed>
</trkpt>
<trkpt lat="33.005420685" lon="35.531272888">
  <ele>499.619629</ele>
  <time>2011-10-15T05:40:48Z</time>
  <speed>5.570000</speed>
</trkpt>
<trkpt lat="33.005374908" lon="35.531211853">
  <ele>499.736816</ele>
  <time>2011-10-15T05:40:49Z</time>
  <speed>6.770000</speed>
</trkpt>
<trkpt lat="33.005332947" lon="35.531150818">
  <ele>499.346191</ele>
  <time>2011-10-15T05:40:50Z</time>
  <speed>6.880000</speed>
</trkpt>
<trkpt lat="33.005283356" lon="35.531074524">
  <ele>497.885254</ele>
  <time>2011-10-15T05:40:51Z</time>
  <speed>6.910000</speed>
</trkpt>
<trkpt lat="33.005264282" lon="35.530998230">
  <ele>496.760254</ele>
  <time>2011-10-15T05:40:52Z</time>
  <speed>6.380000</speed>
</trkpt>
<trkpt lat="33.005249023" lon="35.530921936">
  <ele>495.861816</ele>
  <time>2011-10-15T05:40:53Z</time>
  <speed>7.330000</speed>
</trkpt>
<trkpt lat="33.005241394" lon="35.530834198">
  <ele>494.619629</ele>
  <time>2011-10-15T05:40:54Z</time>
  <speed>7.430000</speed>
</trkpt>
<trkpt lat="33.005256653" lon="35.530746460">
  <ele>492.854004</ele>
  <time>2011-10-15T05:40:55Z</time>
  <speed>7.750000</speed>
</trkpt>
<trkpt lat="33.005264282" lon="35.530658722">
  <ele>491.994629</ele>
  <time>2011-10-15T05:40:56Z</time>
  <speed>7.780000</speed>
</trkpt>
<trkpt lat="33.005279541" lon="35.530559540">
  <ele>491.299316</ele>
  <time>2011-10-15T05:40:57Z</time>
  <speed>8.620000</speed>
</trkpt>
<trkpt lat="33.005294800" lon="35.530464172">
  <ele>490.768066</ele>
  <time>2011-10-15T05:40:58Z</time>
  <speed>9.100000</speed>
</trkpt>
<trkpt lat="33.005310059" lon="35.530357361">
  <ele>489.924316</ele>
  <time>2011-10-15T05:40:59Z</time>
  <speed>9.610000</speed>
</trkpt>
<trkpt lat="33.005332947" lon="35.530254364">
  <ele>489.369629</ele>
  <time>2011-10-15T05:41:00Z</time>
  <speed>9.680000</speed>
</trkpt>
<trkpt lat="33.005352020" lon="35.530147552">
  <ele>488.604004</ele>
  <time>2011-10-15T05:41:01Z</time>
  <speed>9.260000</speed>
</trkpt>
<trkpt lat="33.005371094" lon="35.530044556">
  <ele>488.111816</ele>
  <time>2011-10-15T05:41:02Z</time>
  <speed>9.290000</speed>
</trkpt>
<trkpt lat="33.005374908" lon="35.529945374">
  <ele>487.385254</ele>
  <time>2011-10-15T05:41:03Z</time>
  <speed>9.020000</speed>
</trkpt>
<trkpt lat="33.005390167" lon="35.529850006">
  <ele>486.307129</ele>
  <time>2011-10-15T05:41:04Z</time>
  <speed>8.670000</speed>
</trkpt>
<trkpt lat="33.005393982" lon="35.529739380">
  <ele>485.455566</ele>
  <time>2011-10-15T05:41:05Z</time>
  <speed>9.520000</speed>
</trkpt>
<trkpt lat="33.005401611" lon="35.529624939">
  <ele>484.549316</ele>
  <time>2011-10-15T05:41:06Z</time>
  <speed>9.420000</speed>
</trkpt>
<trkpt lat="33.005397797" lon="35.529518127">
  <ele>483.643066</ele>
  <time>2011-10-15T05:41:07Z</time>
  <speed>8.850000</speed>
</trkpt>
<trkpt lat="33.005424500" lon="35.529426575">
  <ele>482.994629</ele>
  <time>2011-10-15T05:41:08Z</time>
  <speed>8.340000</speed>
</trkpt>
<trkpt lat="33.005458832" lon="35.529331207">
  <ele>482.619629</ele>
  <time>2011-10-15T05:41:09Z</time>
  <speed>7.800000</speed>
</trkpt>
<trkpt lat="33.005516052" lon="35.529247284">
  <ele>481.408691</ele>
  <time>2011-10-15T05:41:10Z</time>
  <speed>8.400000</speed>
</trkpt>
<trkpt lat="33.005577087" lon="35.529170990">
  <ele>480.752441</ele>
  <time>2011-10-15T05:41:11Z</time>
  <speed>8.770000</speed>
</trkpt>
<trkpt lat="33.005634308" lon="35.529106140">
  <ele>480.275879</ele>
  <time>2011-10-15T05:41:12Z</time>
  <speed>8.560000</speed>
</trkpt>
<trkpt lat="33.005695343" lon="35.529052734">
  <ele>479.510254</ele>
  <time>2011-10-15T05:41:13Z</time>
  <speed>8.140000</speed>
</trkpt>
<trkpt lat="33.005756378" lon="35.528987885">
  <ele>479.314941</ele>
  <time>2011-10-15T05:41:14Z</time>
  <speed>8.820000</speed>
</trkpt>
<trkpt lat="33.005821228" lon="35.528919220">
  <ele>478.213379</ele>
  <time>2011-10-15T05:41:15Z</time>
  <speed>9.120000</speed>
</trkpt>
<trkpt lat="33.005882263" lon="35.528846741">
  <ele>477.885254</ele>
  <time>2011-10-15T05:41:16Z</time>
  <speed>9.140000</speed>
</trkpt>
<trkpt lat="33.005943298" lon="35.528759003">
  <ele>478.213379</ele>
  <time>2011-10-15T05:41:17Z</time>
  <speed>9.560000</speed>
</trkpt>
<trkpt lat="33.006004333" lon="35.528682709">
  <ele>477.697754</ele>
  <time>2011-10-15T05:41:18Z</time>
  <speed>8.910000</speed>
</trkpt>
<trkpt lat="33.006057739" lon="35.528602600">
  <ele>477.400879</ele>
  <time>2011-10-15T05:41:19Z</time>
  <speed>8.460000</speed>
</trkpt>
<trkpt lat="33.006114960" lon="35.528545380">
  <ele>476.947754</ele>
  <time>2011-10-15T05:41:20Z</time>
  <speed>6.700000</speed>
</trkpt>
<trkpt lat="33.006160736" lon="35.528522491">
  <ele>477.346191</ele>
  <time>2011-10-15T05:41:21Z</time>
  <speed>5.160000</speed>
</trkpt>
<trkpt lat="33.006206512" lon="35.528511047">
  <ele>477.064941</ele>
  <time>2011-10-15T05:41:22Z</time>
  <speed>4.210000</speed>
</trkpt>
<trkpt lat="33.006233215" lon="35.528526306">
  <ele>476.111816</ele>
  <time>2011-10-15T05:41:23Z</time>
  <speed>3.060000</speed>
</trkpt>
<trkpt lat="33.006263733" lon="35.528560638">
  <ele>476.002441</ele>
  <time>2011-10-15T05:41:24Z</time>
  <speed>4.550000</speed>
</trkpt>
<trkpt lat="33.006278992" lon="35.528610229">
  <ele>474.049316</ele>
  <time>2011-10-15T05:41:25Z</time>
  <speed>5.040000</speed>
</trkpt>
<trkpt lat="33.006317139" lon="35.528656006">
  <ele>473.736816</ele>
  <time>2011-10-15T05:41:26Z</time>
  <speed>5.160000</speed>
</trkpt>
<trkpt lat="33.006355286" lon="35.528705597">
  <ele>472.924316</ele>
  <time>2011-10-15T05:41:27Z</time>
  <speed>5.530000</speed>
</trkpt>
<trkpt lat="33.006408691" lon="35.528736115">
  <ele>472.502441</ele>
  <time>2011-10-15T05:41:28Z</time>
  <speed>6.050000</speed>
</trkpt>
<trkpt lat="33.006507874" lon="35.528755188">
  <ele>470.994629</ele>
  <time>2011-10-15T05:41:29Z</time>
  <speed>6.740000</speed>
</trkpt>
<trkpt lat="33.006587982" lon="35.528751373">
  <ele>470.393066</ele>
  <time>2011-10-15T05:41:30Z</time>
  <speed>6.930000</speed>
</trkpt>
<trkpt lat="33.006645203" lon="35.528747559">
  <ele>470.502441</ele>
  <time>2011-10-15T05:41:31Z</time>
  <speed>5.920000</speed>
</trkpt>
<trkpt lat="33.006694794" lon="35.528739929">
  <ele>470.330566</ele>
  <time>2011-10-15T05:41:32Z</time>
  <speed>5.050000</speed>
</trkpt>
<trkpt lat="33.006736755" lon="35.528724670">
  <ele>470.150879</ele>
  <time>2011-10-15T05:41:33Z</time>
  <speed>4.430000</speed>
</trkpt>
<trkpt lat="33.006778717" lon="35.528705597">
  <ele>469.924316</ele>
  <time>2011-10-15T05:41:34Z</time>
  <speed>3.690000</speed>
</trkpt>
<trkpt lat="33.006805420" lon="35.528682709">
  <ele>469.900879</ele>
  <time>2011-10-15T05:41:35Z</time>
  <speed>3.780000</speed>
</trkpt>
<trkpt lat="33.006835938" lon="35.528667450">
  <ele>469.635254</ele>
  <time>2011-10-15T05:41:36Z</time>
  <speed>3.380000</speed>
</trkpt>
<trkpt lat="33.006862640" lon="35.528648376">
  <ele>469.455566</ele>
  <time>2011-10-15T05:41:37Z</time>
  <speed>3.260000</speed>
</trkpt>
<trkpt lat="33.006885529" lon="35.528633118">
  <ele>469.447754</ele>
  <time>2011-10-15T05:41:38Z</time>
  <speed>3.030000</speed>
</trkpt>
<trkpt lat="33.006916046" lon="35.528625488">
  <ele>469.221191</ele>
  <time>2011-10-15T05:41:39Z</time>
  <speed>2.710000</speed>
</trkpt>
<trkpt lat="33.006961823" lon="35.528598785">
  <ele>468.432129</ele>
  <time>2011-10-15T05:41:41Z</time>
  <speed>2.510000</speed>
</trkpt>
<trkpt lat="33.006999969" lon="35.528575897">
  <ele>467.596191</ele>
  <time>2011-10-15T05:41:43Z</time>
  <speed>2.080000</speed>
</trkpt>
<trkpt lat="33.007030487" lon="35.528564453">
  <ele>466.869629</ele>
  <time>2011-10-15T05:41:44Z</time>
  <speed>1.860000</speed>
</trkpt>
<trkpt lat="33.007072449" lon="35.528553009">
  <ele>467.885254</ele>
  <time>2011-10-15T05:41:46Z</time>
  <speed>1.890000</speed>
</trkpt>
<trkpt lat="33.007110596" lon="35.528549194">
  <ele>467.854004</ele>
  <time>2011-10-15T05:41:48Z</time>
  <speed>1.830000</speed>
</trkpt>
<trkpt lat="33.007144928" lon="35.528541565">
  <ele>468.010254</ele>
  <time>2011-10-15T05:41:50Z</time>
  <speed>1.980000</speed>
</trkpt>
<trkpt lat="33.007183075" lon="35.528530121">
  <ele>468.119629</ele>
  <time>2011-10-15T05:41:52Z</time>
  <speed>2.050000</speed>
</trkpt>
<trkpt lat="33.007225037" lon="35.528533936">
  <ele>468.643066</ele>
  <time>2011-10-15T05:41:54Z</time>
  <speed>2.070000</speed>
</trkpt>
<trkpt lat="33.007259369" lon="35.528533936">
  <ele>468.924316</ele>
  <time>2011-10-15T05:41:56Z</time>
  <speed>1.400000</speed>
</trkpt>
<trkpt lat="33.007286072" lon="35.528522491">
  <ele>469.885254</ele>
  <time>2011-10-15T05:41:58Z</time>
  <speed>1.010000</speed>
</trkpt>
<trkpt lat="33.007308960" lon="35.528514862">
  <ele>471.205566</ele>
  <time>2011-10-15T05:42:00Z</time>
  <speed>1.450000</speed>
</trkpt>
<trkpt lat="33.007343292" lon="35.528511047">
  <ele>476.814941</ele>
  <time>2011-10-15T05:42:02Z</time>
  <speed>1.980000</speed>
</trkpt>
<trkpt lat="33.007373810" lon="35.528514862">
  <ele>483.291504</ele>
  <time>2011-10-15T05:42:04Z</time>
  <speed>1.190000</speed>
</trkpt>
<trkpt lat="33.007408142" lon="35.528514862">
  <ele>484.213379</ele>
  <time>2011-10-15T05:42:07Z</time>
  <speed>0.910000</speed>
</trkpt>
<trkpt lat="33.007446289" lon="35.528514862">
  <ele>486.518066</ele>
  <time>2011-10-15T05:42:10Z</time>
  <speed>1.290000</speed>
</trkpt>
<trkpt lat="33.007480621" lon="35.528511047">
  <ele>487.486816</ele>
  <time>2011-10-15T05:42:12Z</time>
  <speed>1.600000</speed>
</trkpt>
<trkpt lat="33.007511139" lon="35.528499603">
  <ele>488.119629</ele>
  <time>2011-10-15T05:42:14Z</time>
  <speed>1.700000</speed>
</trkpt>
<trkpt lat="33.007549286" lon="35.528491974">
  <ele>489.510254</ele>
  <time>2011-10-15T05:42:16Z</time>
  <speed>1.270000</speed>
</trkpt>
<trkpt lat="33.007575989" lon="35.528495789">
  <ele>490.643066</ele>
  <time>2011-10-15T05:42:18Z</time>
  <speed>1.650000</speed>
</trkpt>
<trkpt lat="33.007606506" lon="35.528495789">
  <ele>492.861816</ele>
  <time>2011-10-15T05:42:20Z</time>
  <speed>1.450000</speed>
</trkpt>
<trkpt lat="33.007633209" lon="35.528495789">
  <ele>492.768066</ele>
  <time>2011-10-15T05:42:22Z</time>
  <speed>1.120000</speed>
</trkpt>
<trkpt lat="33.007667542" lon="35.528491974">
  <ele>492.658691</ele>
  <time>2011-10-15T05:42:24Z</time>
  <speed>1.080000</speed>
</trkpt>
<trkpt lat="33.007698059" lon="35.528484344">
  <ele>488.666504</ele>
  <time>2011-10-15T05:42:26Z</time>
  <speed>1.080000</speed>
</trkpt>
<trkpt lat="33.007728577" lon="35.528480530">
  <ele>487.752441</ele>
  <time>2011-10-15T05:42:28Z</time>
  <speed>1.050000</speed>
</trkpt>
<trkpt lat="33.007755280" lon="35.528480530">
  <ele>488.643066</ele>
  <time>2011-10-15T05:42:30Z</time>
  <speed>1.230000</speed>
</trkpt>
<trkpt lat="33.007789612" lon="35.528480530">
  <ele>487.150879</ele>
  <time>2011-10-15T05:42:32Z</time>
  <speed>1.280000</speed>
</trkpt>
<trkpt lat="33.007816315" lon="35.528484344">
  <ele>485.963379</ele>
  <time>2011-10-15T05:42:34Z</time>
  <speed>1.420000</speed>
</trkpt>
<trkpt lat="33.007846832" lon="35.528488159">
  <ele>485.166504</ele>
  <time>2011-10-15T05:42:36Z</time>
  <speed>1.290000</speed>
</trkpt>
<trkpt lat="33.007873535" lon="35.528511047">
  <ele>487.275879</ele>
  <time>2011-10-15T05:42:39Z</time>
  <speed>1.130000</speed>
</trkpt>
<trkpt lat="33.007915497" lon="35.528511047">
  <ele>485.291504</ele>
  <time>2011-10-15T05:42:41Z</time>
  <speed>1.510000</speed>
</trkpt>
<trkpt lat="33.007946014" lon="35.528541565">
  <ele>485.041504</ele>
  <time>2011-10-15T05:42:44Z</time>
  <speed>1.520000</speed>
</trkpt>
<trkpt lat="33.007953644" lon="35.528579712">
  <ele>485.354004</ele>
  <time>2011-10-15T05:42:46Z</time>
  <speed>1.240000</speed>
</trkpt>
<trkpt lat="33.007953644" lon="35.528614044">
  <ele>487.424316</ele>
  <time>2011-10-15T05:42:48Z</time>
  <speed>1.550000</speed>
</trkpt>
<trkpt lat="33.007953644" lon="35.528652191">
  <ele>489.057129</ele>
  <time>2011-10-15T05:42:50Z</time>
  <speed>1.480000</speed>
</trkpt>
<trkpt lat="33.007957458" lon="35.528682709">
  <ele>490.205566</ele>
  <time>2011-10-15T05:42:52Z</time>
  <speed>1.630000</speed>
</trkpt>
<trkpt lat="33.007987976" lon="35.528717041">
  <ele>491.283691</ele>
  <time>2011-10-15T05:42:55Z</time>
  <speed>1.660000</speed>
</trkpt>
<trkpt lat="33.008010864" lon="35.528736115">
  <ele>492.057129</ele>
  <time>2011-10-15T05:42:57Z</time>
  <speed>1.160000</speed>
</trkpt>
<trkpt lat="33.008033752" lon="35.528766632">
  <ele>493.252441</ele>
  <time>2011-10-15T05:43:01Z</time>
  <speed>1.240000</speed>
</trkpt>
<trkpt lat="33.008056641" lon="35.528781891">
  <ele>494.088379</ele>
  <time>2011-10-15T05:43:03Z</time>
  <speed>1.820000</speed>
</trkpt>
<trkpt lat="33.008087158" lon="35.528785706">
  <ele>495.111816</ele>
  <time>2011-10-15T05:43:05Z</time>
  <speed>1.710000</speed>
</trkpt>
<trkpt lat="33.008117676" lon="35.528778076">
  <ele>497.596191</ele>
  <time>2011-10-15T05:43:07Z</time>
  <speed>1.870000</speed>
</trkpt>
<trkpt lat="33.008159637" lon="35.528785706">
  <ele>497.846191</ele>
  <time>2011-10-15T05:43:09Z</time>
  <speed>2.030000</speed>
</trkpt>
<trkpt lat="33.008201599" lon="35.528770447">
  <ele>499.291504</ele>
  <time>2011-10-15T05:43:11Z</time>
  <speed>1.790000</speed>
</trkpt>
<trkpt lat="33.008228302" lon="35.528762817">
  <ele>499.807129</ele>
  <time>2011-10-15T05:43:12Z</time>
  <speed>1.860000</speed>
</trkpt>
<trkpt lat="33.008270264" lon="35.528762817">
  <ele>501.408691</ele>
  <time>2011-10-15T05:43:14Z</time>
  <speed>1.880000</speed>
</trkpt>
<trkpt lat="33.008308411" lon="35.528755188">
  <ele>501.736816</ele>
  <time>2011-10-15T05:43:16Z</time>
  <speed>1.570000</speed>
</trkpt>
<trkpt lat="33.008354187" lon="35.528736115">
  <ele>500.611816</ele>
  <time>2011-10-15T05:43:18Z</time>
  <speed>2.830000</speed>
</trkpt>
<trkpt lat="33.008407593" lon="35.528713226">
  <ele>501.072754</ele>
  <time>2011-10-15T05:43:20Z</time>
  <speed>2.820000</speed>
</trkpt>
<trkpt lat="33.008430481" lon="35.528697968">
  <ele>502.760254</ele>
  <time>2011-10-15T05:43:21Z</time>
  <speed>2.720000</speed>
</trkpt>
<trkpt lat="33.008457184" lon="35.528686523">
  <ele>504.010254</ele>
  <time>2011-10-15T05:43:22Z</time>
  <speed>2.410000</speed>
</trkpt>
<trkpt lat="33.008483887" lon="35.528682709">
  <ele>503.994629</ele>
  <time>2011-10-15T05:43:23Z</time>
  <speed>2.520000</speed>
</trkpt>
<trkpt lat="33.008533478" lon="35.528667450">
  <ele>504.814941</ele>
  <time>2011-10-15T05:43:25Z</time>
  <speed>2.950000</speed>
</trkpt>
<trkpt lat="33.008560181" lon="35.528659821">
  <ele>505.291504</ele>
  <time>2011-10-15T05:43:26Z</time>
  <speed>2.430000</speed>
</trkpt>
<trkpt lat="33.008594513" lon="35.528656006">
  <ele>504.846191</ele>
  <time>2011-10-15T05:43:27Z</time>
  <speed>2.400000</speed>
</trkpt>
<trkpt lat="33.008628845" lon="35.528652191">
  <ele>505.299316</ele>
  <time>2011-10-15T05:43:28Z</time>
  <speed>2.420000</speed>
</trkpt>
<trkpt lat="33.008666992" lon="35.528640747">
  <ele>502.814941</ele>
  <time>2011-10-15T05:43:29Z</time>
  <speed>2.880000</speed>
</trkpt>
<trkpt lat="33.008693695" lon="35.528625488">
  <ele>503.486816</ele>
  <time>2011-10-15T05:43:30Z</time>
  <speed>3.020000</speed>
</trkpt>
<trkpt lat="33.008720398" lon="35.528617859">
  <ele>504.002441</ele>
  <time>2011-10-15T05:43:31Z</time>
  <speed>2.860000</speed>
</trkpt>
<trkpt lat="33.008747101" lon="35.528614044">
  <ele>504.135254</ele>
  <time>2011-10-15T05:43:32Z</time>
  <speed>2.380000</speed>
</trkpt>
<trkpt lat="33.008796692" lon="35.528594971">
  <ele>503.424316</ele>
  <time>2011-10-15T05:43:34Z</time>
  <speed>1.820000</speed>
</trkpt>
<trkpt lat="33.008857727" lon="35.528583527">
  <ele>502.252441</ele>
  <time>2011-10-15T05:43:36Z</time>
  <speed>2.060000</speed>
</trkpt>
<trkpt lat="33.008903503" lon="35.528553009">
  <ele>502.518066</ele>
  <time>2011-10-15T05:43:38Z</time>
  <speed>2.220000</speed>
</trkpt>
<trkpt lat="33.008930206" lon="35.528537750">
  <ele>502.783691</ele>
  <time>2011-10-15T05:43:39Z</time>
  <speed>1.770000</speed>
</trkpt>
<trkpt lat="33.008964539" lon="35.528495789">
  <ele>502.135254</ele>
  <time>2011-10-15T05:43:41Z</time>
  <speed>1.880000</speed>
</trkpt>
<trkpt lat="33.008995056" lon="35.528446198">
  <ele>502.252441</ele>
  <time>2011-10-15T05:43:43Z</time>
  <speed>2.300000</speed>
</trkpt>
<trkpt lat="33.009014130" lon="35.528419495">
  <ele>501.275879</ele>
  <time>2011-10-15T05:43:44Z</time>
  <speed>2.340000</speed>
</trkpt>
<trkpt lat="33.009040833" lon="35.528373718">
  <ele>501.572754</ele>
  <time>2011-10-15T05:43:46Z</time>
  <speed>2.400000</speed>
</trkpt>
<trkpt lat="33.009048462" lon="35.528339386">
  <ele>501.916504</ele>
  <time>2011-10-15T05:43:47Z</time>
  <speed>2.020000</speed>
</trkpt>
<trkpt lat="33.009078979" lon="35.528324127">
  <ele>500.471191</ele>
  <time>2011-10-15T05:43:48Z</time>
  <speed>2.580000</speed>
</trkpt>
<trkpt lat="33.009124756" lon="35.528308868">
  <ele>500.869629</ele>
  <time>2011-10-15T05:43:50Z</time>
  <speed>2.190000</speed>
</trkpt>
<trkpt lat="33.009155273" lon="35.528305054">
  <ele>499.174316</ele>
  <time>2011-10-15T05:43:51Z</time>
  <speed>2.420000</speed>
</trkpt>
<trkpt lat="33.009197235" lon="35.528289795">
  <ele>500.807129</ele>
  <time>2011-10-15T05:43:53Z</time>
  <speed>1.780000</speed>
</trkpt>
<trkpt lat="33.009246826" lon="35.528270721">
  <ele>500.900879</ele>
  <time>2011-10-15T05:43:55Z</time>
  <speed>1.970000</speed>
</trkpt>
<trkpt lat="33.009292603" lon="35.528259277">
  <ele>501.205566</ele>
  <time>2011-10-15T05:43:57Z</time>
  <speed>1.850000</speed>
</trkpt>
<trkpt lat="33.009323120" lon="35.528247833">
  <ele>502.322754</ele>
  <time>2011-10-15T05:43:59Z</time>
  <speed>1.870000</speed>
</trkpt>
<trkpt lat="33.009346008" lon="35.528228760">
  <ele>503.018066</ele>
  <time>2011-10-15T05:44:00Z</time>
  <speed>1.800000</speed>
</trkpt>
<trkpt lat="33.009372711" lon="35.528202057">
  <ele>504.432129</ele>
  <time>2011-10-15T05:44:02Z</time>
  <speed>1.350000</speed>
</trkpt>
<trkpt lat="33.009410858" lon="35.528190613">
  <ele>504.229004</ele>
  <time>2011-10-15T05:44:04Z</time>
  <speed>1.620000</speed>
</trkpt>
<trkpt lat="33.009449005" lon="35.528175354">
  <ele>505.572754</ele>
  <time>2011-10-15T05:44:06Z</time>
  <speed>1.600000</speed>
</trkpt>
<trkpt lat="33.009487152" lon="35.528160095">
  <ele>506.025879</ele>
  <time>2011-10-15T05:44:08Z</time>
  <speed>1.860000</speed>
</trkpt>
<trkpt lat="33.009529114" lon="35.528144836">
  <ele>506.260254</ele>
  <time>2011-10-15T05:44:10Z</time>
  <speed>1.860000</speed>
</trkpt>
<trkpt lat="33.009574890" lon="35.528137207">
  <ele>506.697754</ele>
  <time>2011-10-15T05:44:12Z</time>
  <speed>1.850000</speed>
</trkpt>
<trkpt lat="33.009616852" lon="35.528137207">
  <ele>508.252441</ele>
  <time>2011-10-15T05:44:14Z</time>
  <speed>1.230000</speed>
</trkpt>
<trkpt lat="33.009643555" lon="35.528148651">
  <ele>509.955566</ele>
  <time>2011-10-15T05:44:16Z</time>
  <speed>1.740000</speed>
</trkpt>
<trkpt lat="33.009681702" lon="35.528152466">
  <ele>511.947754</ele>
  <time>2011-10-15T05:44:18Z</time>
  <speed>1.840000</speed>
</trkpt>
<trkpt lat="33.009716034" lon="35.528175354">
  <ele>512.520508</ele>
  <time>2011-10-15T05:44:20Z</time>
  <speed>1.840000</speed>
</trkpt>
<trkpt lat="33.009754181" lon="35.528198242">
  <ele>512.567383</ele>
  <time>2011-10-15T05:44:22Z</time>
  <speed>1.710000</speed>
</trkpt>
<trkpt lat="33.009796143" lon="35.528205872">
  <ele>512.270508</ele>
  <time>2011-10-15T05:44:23Z</time>
  <speed>1.800000</speed>
</trkpt>
<trkpt lat="33.009834290" lon="35.528232574">
  <ele>510.877441</ele>
  <time>2011-10-15T05:44:25Z</time>
  <speed>2.280000</speed>
</trkpt>
<trkpt lat="33.009880066" lon="35.528259277">
  <ele>511.650879</ele>
  <time>2011-10-15T05:44:27Z</time>
  <speed>2.330000</speed>
</trkpt>
<trkpt lat="33.009906769" lon="35.528274536">
  <ele>511.854004</ele>
  <time>2011-10-15T05:44:28Z</time>
  <speed>2.150000</speed>
</trkpt>
<trkpt lat="33.009941101" lon="35.528305054">
  <ele>512.145508</ele>
  <time>2011-10-15T05:44:29Z</time>
  <speed>2.720000</speed>
</trkpt>
<trkpt lat="33.009967804" lon="35.528312683">
  <ele>512.864258</ele>
  <time>2011-10-15T05:44:30Z</time>
  <speed>2.140000</speed>
</trkpt>
<trkpt lat="33.010009766" lon="35.528331757">
  <ele>514.145508</ele>
  <time>2011-10-15T05:44:32Z</time>
  <speed>1.540000</speed>
</trkpt>
<trkpt lat="33.010059357" lon="35.528354645">
  <ele>513.848633</ele>
  <time>2011-10-15T05:44:34Z</time>
  <speed>2.170000</speed>
</trkpt>
<trkpt lat="33.010097504" lon="35.528377533">
  <ele>512.848633</ele>
  <time>2011-10-15T05:44:35Z</time>
  <speed>2.420000</speed>
</trkpt>
<trkpt lat="33.010143280" lon="35.528396606">
  <ele>513.395508</ele>
  <time>2011-10-15T05:44:37Z</time>
  <speed>1.650000</speed>
</trkpt>
<trkpt lat="33.010177612" lon="35.528411865">
  <ele>514.129883</ele>
  <time>2011-10-15T05:44:39Z</time>
  <speed>1.760000</speed>
</trkpt>
<trkpt lat="33.010208130" lon="35.528415680">
  <ele>514.176758</ele>
  <time>2011-10-15T05:44:40Z</time>
  <speed>1.700000</speed>
</trkpt>
<trkpt lat="33.010238647" lon="35.528438568">
  <ele>514.895508</ele>
  <time>2011-10-15T05:44:42Z</time>
  <speed>1.710000</speed>
</trkpt>
<trkpt lat="33.010269165" lon="35.528472900">
  <ele>515.723633</ele>
  <time>2011-10-15T05:44:44Z</time>
  <speed>1.800000</speed>
</trkpt>
<trkpt lat="33.010322571" lon="35.528499603">
  <ele>516.661133</ele>
  <time>2011-10-15T05:44:46Z</time>
  <speed>1.610000</speed>
</trkpt>
<trkpt lat="33.010349274" lon="35.528549194">
  <ele>517.489258</ele>
  <time>2011-10-15T05:44:48Z</time>
  <speed>2.320000</speed>
</trkpt>
<trkpt lat="33.010368347" lon="35.528594971">
  <ele>518.926758</ele>
  <time>2011-10-15T05:44:50Z</time>
  <speed>1.830000</speed>
</trkpt>
<trkpt lat="33.010395050" lon="35.528633118">
  <ele>520.348633</ele>
  <time>2011-10-15T05:44:52Z</time>
  <speed>2.090000</speed>
</trkpt>
<trkpt lat="33.010417938" lon="35.528675079">
  <ele>521.661133</ele>
  <time>2011-10-15T05:44:54Z</time>
  <speed>1.890000</speed>
</trkpt>
<trkpt lat="33.010452271" lon="35.528717041">
  <ele>523.192383</ele>
  <time>2011-10-15T05:44:56Z</time>
  <speed>1.880000</speed>
</trkpt>
<trkpt lat="33.010486603" lon="35.528770447">
  <ele>522.848633</ele>
  <time>2011-10-15T05:44:58Z</time>
  <speed>1.570000</speed>
</trkpt>
<trkpt lat="33.010517120" lon="35.528800964">
  <ele>522.614258</ele>
  <time>2011-10-15T05:45:00Z</time>
  <speed>1.630000</speed>
</trkpt>
<trkpt lat="33.010543823" lon="35.528827667">
  <ele>522.395508</ele>
  <time>2011-10-15T05:45:02Z</time>
  <speed>1.650000</speed>
</trkpt>
<trkpt lat="33.010574341" lon="35.528846741">
  <ele>521.723633</ele>
  <time>2011-10-15T05:45:04Z</time>
  <speed>1.670000</speed>
</trkpt>
<trkpt lat="33.010597229" lon="35.528892517">
  <ele>522.754883</ele>
  <time>2011-10-15T05:45:06Z</time>
  <speed>2.130000</speed>
</trkpt>
<trkpt lat="33.010616302" lon="35.528926849">
  <ele>521.520508</ele>
  <time>2011-10-15T05:45:07Z</time>
  <speed>2.380000</speed>
</trkpt>
<trkpt lat="33.010635376" lon="35.528972626">
  <ele>521.395508</ele>
  <time>2011-10-15T05:45:09Z</time>
  <speed>2.110000</speed>
</trkpt>
<trkpt lat="33.010658264" lon="35.529033661">
  <ele>520.723633</ele>
  <time>2011-10-15T05:45:11Z</time>
  <speed>2.760000</speed>
</trkpt>
<trkpt lat="33.010673523" lon="35.529071808">
  <ele>521.098633</ele>
  <time>2011-10-15T05:45:12Z</time>
  <speed>3.320000</speed>
</trkpt>
<trkpt lat="33.010688782" lon="35.529117584">
  <ele>520.973633</ele>
  <time>2011-10-15T05:45:13Z</time>
  <speed>3.200000</speed>
</trkpt>
<trkpt lat="33.010711670" lon="35.529151917">
  <ele>520.801758</ele>
  <time>2011-10-15T05:45:14Z</time>
  <speed>3.380000</speed>
</trkpt>
<trkpt lat="33.010730743" lon="35.529178619">
  <ele>521.067383</ele>
  <time>2011-10-15T05:45:15Z</time>
  <speed>2.270000</speed>
</trkpt>
<trkpt lat="33.010749817" lon="35.529228210">
  <ele>521.864258</ele>
  <time>2011-10-15T05:45:17Z</time>
  <speed>2.200000</speed>
</trkpt>
<trkpt lat="33.010784149" lon="35.529266357">
  <ele>522.489258</ele>
  <time>2011-10-15T05:45:19Z</time>
  <speed>2.280000</speed>
</trkpt>
<trkpt lat="33.010814667" lon="35.529304504">
  <ele>522.598633</ele>
  <time>2011-10-15T05:45:21Z</time>
  <speed>1.970000</speed>
</trkpt>
<trkpt lat="33.010845184" lon="35.529365540">
  <ele>523.083008</ele>
  <time>2011-10-15T05:45:23Z</time>
  <speed>2.650000</speed>
</trkpt>
<trkpt lat="33.010860443" lon="35.529399872">
  <ele>523.067383</ele>
  <time>2011-10-15T05:45:24Z</time>
  <speed>2.760000</speed>
</trkpt>
<trkpt lat="33.010875702" lon="35.529426575">
  <ele>521.926758</ele>
  <time>2011-10-15T05:45:25Z</time>
  <speed>2.570000</speed>
</trkpt>
<trkpt lat="33.010894775" lon="35.529453278">
  <ele>521.442383</ele>
  <time>2011-10-15T05:45:26Z</time>
  <speed>2.340000</speed>
</trkpt>
<trkpt lat="33.010917664" lon="35.529499054">
  <ele>522.208008</ele>
  <time>2011-10-15T05:45:28Z</time>
  <speed>2.290000</speed>
</trkpt>
<trkpt lat="33.010932922" lon="35.529541016">
  <ele>522.567383</ele>
  <time>2011-10-15T05:45:30Z</time>
  <speed>2.270000</speed>
</trkpt>
<trkpt lat="33.010932922" lon="35.529609680">
  <ele>522.176758</ele>
  <time>2011-10-15T05:45:32Z</time>
  <speed>3.170000</speed>
</trkpt>
<trkpt lat="33.010936737" lon="35.529647827">
  <ele>523.551758</ele>
  <time>2011-10-15T05:45:33Z</time>
  <speed>2.840000</speed>
</trkpt>
<trkpt lat="33.010940552" lon="35.529708862">
  <ele>523.926758</ele>
  <time>2011-10-15T05:45:35Z</time>
  <speed>2.210000</speed>
</trkpt>
<trkpt lat="33.010955811" lon="35.529769897">
  <ele>524.879883</ele>
  <time>2011-10-15T05:45:37Z</time>
  <speed>2.600000</speed>
</trkpt>
<trkpt lat="33.010978699" lon="35.529804230">
  <ele>524.504883</ele>
  <time>2011-10-15T05:45:38Z</time>
  <speed>2.640000</speed>
</trkpt>
<trkpt lat="33.011013031" lon="35.529834747">
  <ele>525.770508</ele>
  <time>2011-10-15T05:45:40Z</time>
  <speed>2.240000</speed>
</trkpt>
<trkpt lat="33.011062622" lon="35.529850006">
  <ele>524.926758</ele>
  <time>2011-10-15T05:45:42Z</time>
  <speed>2.200000</speed>
</trkpt>
<trkpt lat="33.011089325" lon="35.529857635">
  <ele>523.458008</ele>
  <time>2011-10-15T05:45:43Z</time>
  <speed>2.070000</speed>
</trkpt>
<trkpt lat="33.011135101" lon="35.529861450">
  <ele>521.426758</ele>
  <time>2011-10-15T05:45:45Z</time>
  <speed>1.920000</speed>
</trkpt>
<trkpt lat="33.011169434" lon="35.529869080">
  <ele>519.723633</ele>
  <time>2011-10-15T05:45:47Z</time>
  <speed>1.600000</speed>
</trkpt>
<trkpt lat="33.011199951" lon="35.529857635">
  <ele>522.286133</ele>
  <time>2011-10-15T05:45:49Z</time>
  <speed>2.680000</speed>
</trkpt>
<trkpt lat="33.011226654" lon="35.529830933">
  <ele>521.708008</ele>
  <time>2011-10-15T05:45:51Z</time>
  <speed>1.470000</speed>
</trkpt>
<trkpt lat="33.011238098" lon="35.529796600">
  <ele>521.676758</ele>
  <time>2011-10-15T05:45:53Z</time>
  <speed>1.680000</speed>
</trkpt>
<trkpt lat="33.011257172" lon="35.529769897">
  <ele>522.958008</ele>
  <time>2011-10-15T05:45:55Z</time>
  <speed>1.160000</speed>
</trkpt>
<trkpt lat="33.011257172" lon="35.529727936">
  <ele>523.692383</ele>
  <time>2011-10-15T05:45:57Z</time>
  <speed>1.550000</speed>
</trkpt>
<trkpt lat="33.011257172" lon="35.529693604">
  <ele>521.692383</ele>
  <time>2011-10-15T05:45:59Z</time>
  <speed>1.560000</speed>
</trkpt>
<trkpt lat="33.011245728" lon="35.529659271">
  <ele>521.286133</ele>
  <time>2011-10-15T05:46:01Z</time>
  <speed>1.760000</speed>
</trkpt>
<trkpt lat="33.011249542" lon="35.529621124">
  <ele>520.254883</ele>
  <time>2011-10-15T05:46:03Z</time>
  <speed>1.380000</speed>
</trkpt>
<trkpt lat="33.011253357" lon="35.529586792">
  <ele>518.536133</ele>
  <time>2011-10-15T05:46:05Z</time>
  <speed>1.730000</speed>
</trkpt>
<trkpt lat="33.011253357" lon="35.529552460">
  <ele>517.317383</ele>
  <time>2011-10-15T05:46:07Z</time>
  <speed>1.130000</speed>
</trkpt>
<trkpt lat="33.011249542" lon="35.529518127">
  <ele>516.708008</ele>
  <time>2011-10-15T05:46:09Z</time>
  <speed>1.360000</speed>
</trkpt>
<trkpt lat="33.011238098" lon="35.529483795">
  <ele>514.973633</ele>
  <time>2011-10-15T05:46:11Z</time>
  <speed>1.570000</speed>
</trkpt>
<trkpt lat="33.011230469" lon="35.529441833">
  <ele>514.692383</ele>
  <time>2011-10-15T05:46:13Z</time>
  <speed>1.750000</speed>
</trkpt>
<trkpt lat="33.011222839" lon="35.529396057">
  <ele>513.926758</ele>
  <time>2011-10-15T05:46:15Z</time>
  <speed>2.060000</speed>
</trkpt>
<trkpt lat="33.011219025" lon="35.529342651">
  <ele>512.676758</ele>
  <time>2011-10-15T05:46:17Z</time>
  <speed>2.420000</speed>
</trkpt>
<trkpt lat="33.011219025" lon="35.529289246">
  <ele>511.166504</ele>
  <time>2011-10-15T05:46:19Z</time>
  <speed>2.510000</speed>
</trkpt>
<trkpt lat="33.011215210" lon="35.529228210">
  <ele>510.010254</ele>
  <time>2011-10-15T05:46:21Z</time>
  <speed>2.900000</speed>
</trkpt>
<trkpt lat="33.011211395" lon="35.529190063">
  <ele>509.604004</ele>
  <time>2011-10-15T05:46:22Z</time>
  <speed>2.890000</speed>
</trkpt>
<trkpt lat="33.011203766" lon="35.529155731">
  <ele>509.033691</ele>
  <time>2011-10-15T05:46:23Z</time>
  <speed>3.040000</speed>
</trkpt>
<trkpt lat="33.011196136" lon="35.529125214">
  <ele>508.104004</ele>
  <time>2011-10-15T05:46:24Z</time>
  <speed>3.260000</speed>
</trkpt>
<trkpt lat="33.011184692" lon="35.529094696">
  <ele>508.096191</ele>
  <time>2011-10-15T05:46:25Z</time>
  <speed>3.070000</speed>
</trkpt>
<trkpt lat="33.011165619" lon="35.529041290">
  <ele>508.049316</ele>
  <time>2011-10-15T05:46:27Z</time>
  <speed>2.850000</speed>
</trkpt>
<trkpt lat="33.011146545" lon="35.528995514">
  <ele>506.736816</ele>
  <time>2011-10-15T05:46:29Z</time>
  <speed>2.430000</speed>
</trkpt>
<trkpt lat="33.011127472" lon="35.528949738">
  <ele>506.119629</ele>
  <time>2011-10-15T05:46:31Z</time>
  <speed>2.330000</speed>
</trkpt>
<trkpt lat="33.011104584" lon="35.528911591">
  <ele>506.275879</ele>
  <time>2011-10-15T05:46:33Z</time>
  <speed>2.490000</speed>
</trkpt>
<trkpt lat="33.011081696" lon="35.528865814">
  <ele>506.861816</ele>
  <time>2011-10-15T05:46:35Z</time>
  <speed>2.480000</speed>
</trkpt>
<trkpt lat="33.011058807" lon="35.528812408">
  <ele>506.979004</ele>
  <time>2011-10-15T05:46:37Z</time>
  <speed>2.420000</speed>
</trkpt>
<trkpt lat="33.011039734" lon="35.528766632">
  <ele>507.564941</ele>
  <time>2011-10-15T05:46:39Z</time>
  <speed>2.400000</speed>
</trkpt>
<trkpt lat="33.011024475" lon="35.528728485">
  <ele>508.424316</ele>
  <time>2011-10-15T05:46:41Z</time>
  <speed>2.220000</speed>
</trkpt>
<trkpt lat="33.011009216" lon="35.528686523">
  <ele>508.307129</ele>
  <time>2011-10-15T05:46:43Z</time>
  <speed>1.860000</speed>
</trkpt>
<trkpt lat="33.010990143" lon="35.528648376">
  <ele>508.166504</ele>
  <time>2011-10-15T05:46:45Z</time>
  <speed>2.020000</speed>
</trkpt>
<trkpt lat="33.010978699" lon="35.528614044">
  <ele>508.760254</ele>
  <time>2011-10-15T05:46:47Z</time>
  <speed>2.100000</speed>
</trkpt>
<trkpt lat="33.010963440" lon="35.528572083">
  <ele>508.643066</ele>
  <time>2011-10-15T05:46:49Z</time>
  <speed>1.810000</speed>
</trkpt>
<trkpt lat="33.010951996" lon="35.528530121">
  <ele>508.197754</ele>
  <time>2011-10-15T05:46:51Z</time>
  <speed>1.750000</speed>
</trkpt>
<trkpt lat="33.010936737" lon="35.528495789">
  <ele>508.494629</ele>
  <time>2011-10-15T05:46:53Z</time>
  <speed>1.660000</speed>
</trkpt>
<trkpt lat="33.010929108" lon="35.528457642">
  <ele>508.275879</ele>
  <time>2011-10-15T05:46:55Z</time>
  <speed>2.000000</speed>
</trkpt>
<trkpt lat="33.010917664" lon="35.528411865">
  <ele>509.080566</ele>
  <time>2011-10-15T05:46:57Z</time>
  <speed>1.940000</speed>
</trkpt>
<trkpt lat="33.010902405" lon="35.528373718">
  <ele>509.018066</ele>
  <time>2011-10-15T05:46:59Z</time>
  <speed>1.680000</speed>
</trkpt>
<trkpt lat="33.010890961" lon="35.528339386">
  <ele>509.525879</ele>
  <time>2011-10-15T05:47:01Z</time>
  <speed>1.990000</speed>
</trkpt>
<trkpt lat="33.010875702" lon="35.528301239">
  <ele>509.455566</ele>
  <time>2011-10-15T05:47:03Z</time>
  <speed>1.800000</speed>
</trkpt>
<trkpt lat="33.010860443" lon="35.528266907">
  <ele>510.135254</ele>
  <time>2011-10-15T05:47:05Z</time>
  <speed>1.850000</speed>
</trkpt>
<trkpt lat="33.010845184" lon="35.528228760">
  <ele>510.518066</ele>
  <time>2011-10-15T05:47:07Z</time>
  <speed>1.820000</speed>
</trkpt>
<trkpt lat="33.010833740" lon="35.528198242">
  <ele>510.807129</ele>
  <time>2011-10-15T05:47:09Z</time>
  <speed>1.930000</speed>
</trkpt>
<trkpt lat="33.010818481" lon="35.528167725">
  <ele>510.604004</ele>
  <time>2011-10-15T05:47:11Z</time>
  <speed>1.670000</speed>
</trkpt>
<trkpt lat="33.010803223" lon="35.528137207">
  <ele>511.072754</ele>
  <time>2011-10-15T05:47:13Z</time>
  <speed>1.540000</speed>
</trkpt>
<trkpt lat="33.010791779" lon="35.528106689">
  <ele>511.947754</ele>
  <time>2011-10-15T05:47:15Z</time>
  <speed>1.480000</speed>
</trkpt>
<trkpt lat="33.010776520" lon="35.528076172">
  <ele>512.208008</ele>
  <time>2011-10-15T05:47:17Z</time>
  <speed>1.400000</speed>
</trkpt>
<trkpt lat="33.010761261" lon="35.528038025">
  <ele>513.176758</ele>
  <time>2011-10-15T05:47:21Z</time>
  <speed>0.040000</speed>
</trkpt>
<trkpt lat="33.010761261" lon="35.528007507">
  <ele>513.301758</ele>
  <time>2011-10-15T05:47:30Z</time>
  <speed>0.500000</speed>
</trkpt>
<trkpt lat="33.010738373" lon="35.527969360">
  <ele>513.458008</ele>
  <time>2011-10-15T05:48:15Z</time>
  <speed>1.540000</speed>
</trkpt>
<trkpt lat="33.010723114" lon="35.527931213">
  <ele>513.801758</ele>
  <time>2011-10-15T05:48:17Z</time>
  <speed>1.900000</speed>
</trkpt>
<trkpt lat="33.010711670" lon="35.527885437">
  <ele>514.473633</ele>
  <time>2011-10-15T05:48:19Z</time>
  <speed>2.210000</speed>
</trkpt>
<trkpt lat="33.010696411" lon="35.527832031">
  <ele>514.614258</ele>
  <time>2011-10-15T05:48:21Z</time>
  <speed>2.530000</speed>
</trkpt>
<trkpt lat="33.010692596" lon="35.527797699">
  <ele>514.333008</ele>
  <time>2011-10-15T05:48:22Z</time>
  <speed>2.380000</speed>
</trkpt>
<trkpt lat="33.010681152" lon="35.527748108">
  <ele>514.942383</ele>
  <time>2011-10-15T05:48:24Z</time>
  <speed>1.570000</speed>
</trkpt>
<trkpt lat="33.010677338" lon="35.527702332">
  <ele>515.489258</ele>
  <time>2011-10-15T05:48:26Z</time>
  <speed>2.070000</speed>
</trkpt>
<trkpt lat="33.010662079" lon="35.527652740">
  <ele>515.067383</ele>
  <time>2011-10-15T05:48:28Z</time>
  <speed>1.800000</speed>
</trkpt>
<trkpt lat="33.010654449" lon="35.527599335">
  <ele>515.067383</ele>
  <time>2011-10-15T05:48:30Z</time>
  <speed>2.060000</speed>
</trkpt>
<trkpt lat="33.010639191" lon="35.527542114">
  <ele>514.958008</ele>
  <time>2011-10-15T05:48:32Z</time>
  <speed>2.580000</speed>
</trkpt>
<trkpt lat="33.010620117" lon="35.527477264">
  <ele>515.614258</ele>
  <time>2011-10-15T05:48:34Z</time>
  <speed>3.830000</speed>
</trkpt>
<trkpt lat="33.010601044" lon="35.527435303">
  <ele>515.676758</ele>
  <time>2011-10-15T05:48:35Z</time>
  <speed>4.190000</speed>
</trkpt>
<trkpt lat="33.010585785" lon="35.527381897">
  <ele>515.676758</ele>
  <time>2011-10-15T05:48:36Z</time>
  <speed>4.640000</speed>
</trkpt>
<trkpt lat="33.010570526" lon="35.527328491">
  <ele>515.239258</ele>
  <time>2011-10-15T05:48:37Z</time>
  <speed>5.140000</speed>
</trkpt>
<trkpt lat="33.010547638" lon="35.527263641">
  <ele>514.551758</ele>
  <time>2011-10-15T05:48:38Z</time>
  <speed>5.820000</speed>
</trkpt>
<trkpt lat="33.010524750" lon="35.527198792">
  <ele>514.895508</ele>
  <time>2011-10-15T05:48:39Z</time>
  <speed>6.260000</speed>
</trkpt>
<trkpt lat="33.010498047" lon="35.527133942">
  <ele>515.176758</ele>
  <time>2011-10-15T05:48:40Z</time>
  <speed>6.640000</speed>
</trkpt>
<trkpt lat="33.010471344" lon="35.527076721">
  <ele>515.536133</ele>
  <time>2011-10-15T05:48:41Z</time>
  <speed>5.960000</speed>
</trkpt>
<trkpt lat="33.010444641" lon="35.527019501">
  <ele>515.692383</ele>
  <time>2011-10-15T05:48:42Z</time>
  <speed>6.010000</speed>
</trkpt>
<trkpt lat="33.010414124" lon="35.526973724">
  <ele>515.895508</ele>
  <time>2011-10-15T05:48:43Z</time>
  <speed>5.610000</speed>
</trkpt>
<trkpt lat="33.010387421" lon="35.526927948">
  <ele>516.161133</ele>
  <time>2011-10-15T05:48:44Z</time>
  <speed>5.000000</speed>
</trkpt>
<trkpt lat="33.010360718" lon="35.526882172">
  <ele>516.067383</ele>
  <time>2011-10-15T05:48:45Z</time>
  <speed>4.360000</speed>
</trkpt>
<trkpt lat="33.010341644" lon="35.526832581">
  <ele>515.989258</ele>
  <time>2011-10-15T05:48:46Z</time>
  <speed>5.040000</speed>
</trkpt>
<trkpt lat="33.010314941" lon="35.526775360">
  <ele>516.364258</ele>
  <time>2011-10-15T05:48:47Z</time>
  <speed>5.750000</speed>
</trkpt>
<trkpt lat="33.010284424" lon="35.526706696">
  <ele>516.161133</ele>
  <time>2011-10-15T05:48:48Z</time>
  <speed>6.580000</speed>
</trkpt>
<trkpt lat="33.010253906" lon="35.526634216">
  <ele>516.301758</ele>
  <time>2011-10-15T05:48:49Z</time>
  <speed>6.210000</speed>
</trkpt>
<trkpt lat="33.010223389" lon="35.526569366">
  <ele>516.364258</ele>
  <time>2011-10-15T05:48:50Z</time>
  <speed>5.510000</speed>
</trkpt>
<trkpt lat="33.010208130" lon="35.526508331">
  <ele>516.317383</ele>
  <time>2011-10-15T05:48:51Z</time>
  <speed>4.920000</speed>
</trkpt>
<trkpt lat="33.010189056" lon="35.526447296">
  <ele>516.176758</ele>
  <time>2011-10-15T05:48:52Z</time>
  <speed>4.910000</speed>
</trkpt>
<trkpt lat="33.010185242" lon="35.526390076">
  <ele>515.801758</ele>
  <time>2011-10-15T05:48:53Z</time>
  <speed>4.790000</speed>
</trkpt>
<trkpt lat="33.010177612" lon="35.526340485">
  <ele>515.473633</ele>
  <time>2011-10-15T05:48:54Z</time>
  <speed>4.670000</speed>
</trkpt>
<trkpt lat="33.010169983" lon="35.526294708">
  <ele>515.692383</ele>
  <time>2011-10-15T05:48:55Z</time>
  <speed>4.210000</speed>
</trkpt>
<trkpt lat="33.010166168" lon="35.526245117">
  <ele>515.598633</ele>
  <time>2011-10-15T05:48:56Z</time>
  <speed>4.030000</speed>
</trkpt>
<trkpt lat="33.010166168" lon="35.526203156">
  <ele>515.864258</ele>
  <time>2011-10-15T05:48:57Z</time>
  <speed>3.690000</speed>
</trkpt>
<trkpt lat="33.010162354" lon="35.526157379">
  <ele>516.223633</ele>
  <time>2011-10-15T05:48:58Z</time>
  <speed>3.960000</speed>
</trkpt>
<trkpt lat="33.010162354" lon="35.526111603">
  <ele>516.442383</ele>
  <time>2011-10-15T05:48:59Z</time>
  <speed>4.210000</speed>
</trkpt>
<trkpt lat="33.010154724" lon="35.526058197">
  <ele>516.067383</ele>
  <time>2011-10-15T05:49:00Z</time>
  <speed>4.850000</speed>
</trkpt>
<trkpt lat="33.010135651" lon="35.526008606">
  <ele>516.145508</ele>
  <time>2011-10-15T05:49:01Z</time>
  <speed>5.290000</speed>
</trkpt>
<trkpt lat="33.010116577" lon="35.525951385">
  <ele>516.254883</ele>
  <time>2011-10-15T05:49:02Z</time>
  <speed>5.180000</speed>
</trkpt>
<trkpt lat="33.010089874" lon="35.525897980">
  <ele>516.379883</ele>
  <time>2011-10-15T05:49:03Z</time>
  <speed>5.480000</speed>
</trkpt>
<trkpt lat="33.010051727" lon="35.525821686">
  <ele>516.848633</ele>
  <time>2011-10-15T05:49:04Z</time>
  <speed>5.540000</speed>
</trkpt>
<trkpt lat="33.010005951" lon="35.525783539">
  <ele>517.114258</ele>
  <time>2011-10-15T05:49:05Z</time>
  <speed>5.900000</speed>
</trkpt>
<trkpt lat="33.009967804" lon="35.525753021">
  <ele>517.270508</ele>
  <time>2011-10-15T05:49:06Z</time>
  <speed>4.150000</speed>
</trkpt>
<trkpt lat="33.009925842" lon="35.525726318">
  <ele>517.598633</ele>
  <time>2011-10-15T05:49:07Z</time>
  <speed>3.770000</speed>
</trkpt>
<trkpt lat="33.009899139" lon="35.525703430">
  <ele>517.676758</ele>
  <time>2011-10-15T05:49:08Z</time>
  <speed>3.210000</speed>
</trkpt>
<trkpt lat="33.009857178" lon="35.525676727">
  <ele>518.051758</ele>
  <time>2011-10-15T05:49:09Z</time>
  <speed>4.320000</speed>
</trkpt>
<trkpt lat="33.009826660" lon="35.525646210">
  <ele>518.161133</ele>
  <time>2011-10-15T05:49:10Z</time>
  <speed>4.830000</speed>
</trkpt>
<trkpt lat="33.009803772" lon="35.525592804">
  <ele>518.083008</ele>
  <time>2011-10-15T05:49:11Z</time>
  <speed>5.370000</speed>
</trkpt>
<trkpt lat="33.009765625" lon="35.525535583">
  <ele>517.629883</ele>
  <time>2011-10-15T05:49:12Z</time>
  <speed>5.990000</speed>
</trkpt>
<trkpt lat="33.009738922" lon="35.525466919">
  <ele>517.489258</ele>
  <time>2011-10-15T05:49:13Z</time>
  <speed>6.790000</speed>
</trkpt>
<trkpt lat="33.009704590" lon="35.525398254">
  <ele>516.645508</ele>
  <time>2011-10-15T05:49:14Z</time>
  <speed>6.020000</speed>
</trkpt>
<trkpt lat="33.009685516" lon="35.525333405">
  <ele>516.254883</ele>
  <time>2011-10-15T05:49:15Z</time>
  <speed>5.260000</speed>
</trkpt>
<trkpt lat="33.009677887" lon="35.525268555">
  <ele>515.911133</ele>
  <time>2011-10-15T05:49:16Z</time>
  <speed>4.360000</speed>
</trkpt>
<trkpt lat="33.009658813" lon="35.525211334">
  <ele>514.973633</ele>
  <time>2011-10-15T05:49:17Z</time>
  <speed>3.670000</speed>
</trkpt>
<trkpt lat="33.009647369" lon="35.525165558">
  <ele>514.364258</ele>
  <time>2011-10-15T05:49:18Z</time>
  <speed>3.950000</speed>
</trkpt>
<trkpt lat="33.009632111" lon="35.525115967">
  <ele>513.848633</ele>
  <time>2011-10-15T05:49:19Z</time>
  <speed>3.960000</speed>
</trkpt>
<trkpt lat="33.009620667" lon="35.525077820">
  <ele>513.817383</ele>
  <time>2011-10-15T05:49:20Z</time>
  <speed>3.350000</speed>
</trkpt>
<trkpt lat="33.009613037" lon="35.525039673">
  <ele>513.411133</ele>
  <time>2011-10-15T05:49:21Z</time>
  <speed>3.170000</speed>
</trkpt>
<trkpt lat="33.009593964" lon="35.525016785">
  <ele>513.614258</ele>
  <time>2011-10-15T05:49:22Z</time>
  <speed>3.130000</speed>
</trkpt>
<trkpt lat="33.009590149" lon="35.524978638">
  <ele>513.426758</ele>
  <time>2011-10-15T05:49:23Z</time>
  <speed>2.600000</speed>
</trkpt>
<trkpt lat="33.009574890" lon="35.524948120">
  <ele>512.692383</ele>
  <time>2011-10-15T05:49:24Z</time>
  <speed>3.150000</speed>
</trkpt>
<trkpt lat="33.009559631" lon="35.524917603">
  <ele>512.676758</ele>
  <time>2011-10-15T05:49:25Z</time>
  <speed>2.830000</speed>
</trkpt>
<trkpt lat="33.009536743" lon="35.524887085">
  <ele>512.739258</ele>
  <time>2011-10-15T05:49:26Z</time>
  <speed>2.770000</speed>
</trkpt>
<trkpt lat="33.009525299" lon="35.524845123">
  <ele>513.723633</ele>
  <time>2011-10-15T05:49:27Z</time>
  <speed>1.270000</speed>
</trkpt>
<trkpt lat="33.009506226" lon="35.524814606">
  <ele>514.442383</ele>
  <time>2011-10-15T05:49:57Z</time>
  <speed>1.610000</speed>
</trkpt>
<trkpt lat="33.009487152" lon="35.524787903">
  <ele>515.036133</ele>
  <time>2011-10-15T05:49:58Z</time>
  <speed>2.840000</speed>
</trkpt>
<trkpt lat="33.009468079" lon="35.524757385">
  <ele>515.489258</ele>
  <time>2011-10-15T05:49:59Z</time>
  <speed>3.190000</speed>
</trkpt>
<trkpt lat="33.009433746" lon="35.524703979">
  <ele>516.411133</ele>
  <time>2011-10-15T05:50:01Z</time>
  <speed>3.190000</speed>
</trkpt>
<trkpt lat="33.009418488" lon="35.524673462">
  <ele>516.958008</ele>
  <time>2011-10-15T05:50:02Z</time>
  <speed>3.190000</speed>
</trkpt>
<trkpt lat="33.009414673" lon="35.524616241">
  <ele>516.692383</ele>
  <time>2011-10-15T05:50:03Z</time>
  <speed>4.200000</speed>
</trkpt>
<trkpt lat="33.009395599" lon="35.524566650">
  <ele>516.411133</ele>
  <time>2011-10-15T05:50:04Z</time>
  <speed>4.640000</speed>
</trkpt>
<trkpt lat="33.009361267" lon="35.524520874">
  <ele>516.473633</ele>
  <time>2011-10-15T05:50:05Z</time>
  <speed>3.800000</speed>
</trkpt>
<trkpt lat="33.009349823" lon="35.524467468">
  <ele>516.442383</ele>
  <time>2011-10-15T05:50:06Z</time>
  <speed>5.060000</speed>
</trkpt>
<trkpt lat="33.009323120" lon="35.524398804">
  <ele>515.676758</ele>
  <time>2011-10-15T05:50:07Z</time>
  <speed>5.500000</speed>
</trkpt>
<trkpt lat="33.009300232" lon="35.524341583">
  <ele>515.364258</ele>
  <time>2011-10-15T05:50:08Z</time>
  <speed>4.960000</speed>
</trkpt>
<trkpt lat="33.009281158" lon="35.524291992">
  <ele>515.114258</ele>
  <time>2011-10-15T05:50:09Z</time>
  <speed>3.910000</speed>
</trkpt>
<trkpt lat="33.009273529" lon="35.524242401">
  <ele>514.973633</ele>
  <time>2011-10-15T05:50:10Z</time>
  <speed>3.550000</speed>
</trkpt>
<trkpt lat="33.009269714" lon="35.524196625">
  <ele>514.598633</ele>
  <time>2011-10-15T05:50:11Z</time>
  <speed>3.220000</speed>
</trkpt>
<trkpt lat="33.009269714" lon="35.524139404">
  <ele>513.708008</ele>
  <time>2011-10-15T05:50:12Z</time>
  <speed>4.800000</speed>
</trkpt>
<trkpt lat="33.009265900" lon="35.524082184">
  <ele>513.458008</ele>
  <time>2011-10-15T05:50:13Z</time>
  <speed>5.160000</speed>
</trkpt>
<trkpt lat="33.009265900" lon="35.524005890">
  <ele>512.708008</ele>
  <time>2011-10-15T05:50:14Z</time>
  <speed>5.980000</speed>
</trkpt>
<trkpt lat="33.009288788" lon="35.523925781">
  <ele>512.176758</ele>
  <time>2011-10-15T05:50:15Z</time>
  <speed>6.790000</speed>
</trkpt>
<trkpt lat="33.009288788" lon="35.523838043">
  <ele>511.189941</ele>
  <time>2011-10-15T05:50:16Z</time>
  <speed>7.140000</speed>
</trkpt>
<trkpt lat="33.009277344" lon="35.523757935">
  <ele>510.494629</ele>
  <time>2011-10-15T05:50:17Z</time>
  <speed>7.360000</speed>
</trkpt>
<trkpt lat="33.009265900" lon="35.523677826">
  <ele>510.158691</ele>
  <time>2011-10-15T05:50:18Z</time>
  <speed>7.010000</speed>
</trkpt>
<trkpt lat="33.009250641" lon="35.523593903">
  <ele>509.549316</ele>
  <time>2011-10-15T05:50:19Z</time>
  <speed>7.270000</speed>
</trkpt>
<trkpt lat="33.009235382" lon="35.523498535">
  <ele>508.658691</ele>
  <time>2011-10-15T05:50:20Z</time>
  <speed>7.790000</speed>
</trkpt>
<trkpt lat="33.009223938" lon="35.523410797">
  <ele>508.002441</ele>
  <time>2011-10-15T05:50:21Z</time>
  <speed>7.940000</speed>
</trkpt>
<trkpt lat="33.009208679" lon="35.523319244">
  <ele>507.557129</ele>
  <time>2011-10-15T05:50:22Z</time>
  <speed>7.830000</speed>
</trkpt>
<trkpt lat="33.009193420" lon="35.523227692">
  <ele>506.986816</ele>
  <time>2011-10-15T05:50:23Z</time>
  <speed>8.580000</speed>
</trkpt>
<trkpt lat="33.009155273" lon="35.523139954">
  <ele>506.494629</ele>
  <time>2011-10-15T05:50:24Z</time>
  <speed>8.450000</speed>
</trkpt>
<trkpt lat="33.009120941" lon="35.523056030">
  <ele>505.900879</ele>
  <time>2011-10-15T05:50:25Z</time>
  <speed>7.940000</speed>
</trkpt>
<trkpt lat="33.009090424" lon="35.522983551">
  <ele>505.729004</ele>
  <time>2011-10-15T05:50:26Z</time>
  <speed>7.150000</speed>
</trkpt>
<trkpt lat="33.009056091" lon="35.522922516">
  <ele>505.361816</ele>
  <time>2011-10-15T05:50:27Z</time>
  <speed>6.130000</speed>
</trkpt>
<trkpt lat="33.009002686" lon="35.522876740">
  <ele>505.275879</ele>
  <time>2011-10-15T05:50:28Z</time>
  <speed>6.030000</speed>
</trkpt>
<trkpt lat="33.008964539" lon="35.522827148">
  <ele>505.049316</ele>
  <time>2011-10-15T05:50:29Z</time>
  <speed>5.580000</speed>
</trkpt>
<trkpt lat="33.008926392" lon="35.522796631">
  <ele>504.080566</ele>
  <time>2011-10-15T05:50:30Z</time>
  <speed>4.610000</speed>
</trkpt>
<trkpt lat="33.008888245" lon="35.522762299">
  <ele>503.666504</ele>
  <time>2011-10-15T05:50:31Z</time>
  <speed>3.870000</speed>
</trkpt>
<trkpt lat="33.008861542" lon="35.522727966">
  <ele>502.908691</ele>
  <time>2011-10-15T05:50:32Z</time>
  <speed>3.860000</speed>
</trkpt>
<trkpt lat="33.008834839" lon="35.522697449">
  <ele>502.166504</ele>
  <time>2011-10-15T05:50:33Z</time>
  <speed>3.720000</speed>
</trkpt>
<trkpt lat="33.008808136" lon="35.522666931">
  <ele>501.588379</ele>
  <time>2011-10-15T05:50:34Z</time>
  <speed>3.560000</speed>
</trkpt>
<trkpt lat="33.008781433" lon="35.522647858">
  <ele>501.658691</ele>
  <time>2011-10-15T05:50:35Z</time>
  <speed>3.520000</speed>
</trkpt>
<trkpt lat="33.008758545" lon="35.522609711">
  <ele>501.041504</ele>
  <time>2011-10-15T05:50:36Z</time>
  <speed>3.620000</speed>
</trkpt>
<trkpt lat="33.008731842" lon="35.522583008">
  <ele>500.783691</ele>
  <time>2011-10-15T05:50:37Z</time>
  <speed>3.270000</speed>
</trkpt>
<trkpt lat="33.008708954" lon="35.522563934">
  <ele>500.424316</ele>
  <time>2011-10-15T05:50:38Z</time>
  <speed>3.090000</speed>
</trkpt>
<trkpt lat="33.008689880" lon="35.522537231">
  <ele>500.604004</ele>
  <time>2011-10-15T05:50:39Z</time>
  <speed>2.990000</speed>
</trkpt>
<trkpt lat="33.008644104" lon="35.522521973">
  <ele>500.299316</ele>
  <time>2011-10-15T05:50:41Z</time>
  <speed>2.290000</speed>
</trkpt>
<trkpt lat="33.008609772" lon="35.522487640">
  <ele>499.924316</ele>
  <time>2011-10-15T05:50:43Z</time>
  <speed>2.180000</speed>
</trkpt>
<trkpt lat="33.008586884" lon="35.522457123">
  <ele>499.252441</ele>
  <time>2011-10-15T05:50:45Z</time>
  <speed>1.510000</speed>
</trkpt>
<trkpt lat="33.008552551" lon="35.522464752">
  <ele>499.252441</ele>
  <time>2011-10-15T05:50:47Z</time>
  <speed>1.070000</speed>
</trkpt>
<trkpt lat="33.008529663" lon="35.522449493">
  <ele>498.064941</ele>
  <time>2011-10-15T05:50:50Z</time>
  <speed>0.730000</speed>
</trkpt>
<trkpt lat="33.008502960" lon="35.522438049">
  <ele>497.354004</ele>
  <time>2011-10-15T05:50:53Z</time>
  <speed>0.990000</speed>
</trkpt>
<trkpt lat="33.008480072" lon="35.522403717">
  <ele>497.033691</ele>
  <time>2011-10-15T05:50:55Z</time>
  <speed>1.450000</speed>
</trkpt>
<trkpt lat="33.008449554" lon="35.522377014">
  <ele>496.447754</ele>
  <time>2011-10-15T05:50:57Z</time>
  <speed>1.980000</speed>
</trkpt>
<trkpt lat="33.008441925" lon="35.522350311">
  <ele>497.744629</ele>
  <time>2011-10-15T05:50:58Z</time>
  <speed>1.790000</speed>
</trkpt>
<trkpt lat="33.008407593" lon="35.522331238">
  <ele>497.439941</ele>
  <time>2011-10-15T05:51:00Z</time>
  <speed>2.200000</speed>
</trkpt>
<trkpt lat="33.008380890" lon="35.522300720">
  <ele>496.697754</ele>
  <time>2011-10-15T05:51:02Z</time>
  <speed>2.180000</speed>
</trkpt>
<trkpt lat="33.008346558" lon="35.522281647">
  <ele>496.041504</ele>
  <time>2011-10-15T05:51:04Z</time>
  <speed>2.040000</speed>
</trkpt>
<trkpt lat="33.008312225" lon="35.522247314">
  <ele>495.744629</ele>
  <time>2011-10-15T05:51:06Z</time>
  <speed>2.510000</speed>
</trkpt>
<trkpt lat="33.008266449" lon="35.522224426">
  <ele>494.893066</ele>
  <time>2011-10-15T05:51:08Z</time>
  <speed>2.450000</speed>
</trkpt>
<trkpt lat="33.008220673" lon="35.522201538">
  <ele>495.229004</ele>
  <time>2011-10-15T05:51:10Z</time>
  <speed>2.230000</speed>
</trkpt>
<trkpt lat="33.008182526" lon="35.522174835">
  <ele>494.947754</ele>
  <time>2011-10-15T05:51:12Z</time>
  <speed>2.500000</speed>
</trkpt>
<trkpt lat="33.008125305" lon="35.522163391">
  <ele>495.385254</ele>
  <time>2011-10-15T05:51:14Z</time>
  <speed>2.570000</speed>
</trkpt>
<trkpt lat="33.008087158" lon="35.522136688">
  <ele>495.197754</ele>
  <time>2011-10-15T05:51:16Z</time>
  <speed>2.440000</speed>
</trkpt>
<trkpt lat="33.008060455" lon="35.522136688">
  <ele>495.893066</ele>
  <time>2011-10-15T05:51:17Z</time>
  <speed>2.420000</speed>
</trkpt>
<trkpt lat="33.008026123" lon="35.522102356">
  <ele>495.525879</ele>
  <time>2011-10-15T05:51:19Z</time>
  <speed>2.560000</speed>
</trkpt>
<trkpt lat="33.007984161" lon="35.522064209">
  <ele>495.908691</ele>
  <time>2011-10-15T05:51:21Z</time>
  <speed>2.480000</speed>
</trkpt>
<trkpt lat="33.007946014" lon="35.522045135">
  <ele>496.424316</ele>
  <time>2011-10-15T05:51:23Z</time>
  <speed>2.500000</speed>
</trkpt>
<trkpt lat="33.007907867" lon="35.522014618">
  <ele>497.611816</ele>
  <time>2011-10-15T05:51:25Z</time>
  <speed>2.410000</speed>
</trkpt>
<trkpt lat="33.007869720" lon="35.521991730">
  <ele>497.768066</ele>
  <time>2011-10-15T05:51:27Z</time>
  <speed>2.550000</speed>
</trkpt>
<trkpt lat="33.007843018" lon="35.521968842">
  <ele>497.674316</ele>
  <time>2011-10-15T05:51:29Z</time>
  <speed>2.630000</speed>
</trkpt>
<trkpt lat="33.007804871" lon="35.521945953">
  <ele>498.338379</ele>
  <time>2011-10-15T05:51:31Z</time>
  <speed>2.570000</speed>
</trkpt>
<trkpt lat="33.007770538" lon="35.521923065">
  <ele>498.908691</ele>
  <time>2011-10-15T05:51:33Z</time>
  <speed>2.480000</speed>
</trkpt>
<trkpt lat="33.007720947" lon="35.521896362">
  <ele>500.439941</ele>
  <time>2011-10-15T05:51:35Z</time>
  <speed>2.710000</speed>
</trkpt>
<trkpt lat="33.007682800" lon="35.521869659">
  <ele>500.814941</ele>
  <time>2011-10-15T05:51:37Z</time>
  <speed>2.660000</speed>
</trkpt>
<trkpt lat="33.007656097" lon="35.521862030">
  <ele>501.689941</ele>
  <time>2011-10-15T05:51:38Z</time>
  <speed>2.780000</speed>
</trkpt>
<trkpt lat="33.007617950" lon="35.521835327">
  <ele>501.330566</ele>
  <time>2011-10-15T05:51:40Z</time>
  <speed>2.510000</speed>
</trkpt>
<trkpt lat="33.007572174" lon="35.521812439">
  <ele>501.244629</ele>
  <time>2011-10-15T05:51:42Z</time>
  <speed>2.590000</speed>
</trkpt>
<trkpt lat="33.007530212" lon="35.521789551">
  <ele>501.455566</ele>
  <time>2011-10-15T05:51:44Z</time>
  <speed>2.400000</speed>
</trkpt>
<trkpt lat="33.007476807" lon="35.521789551">
  <ele>503.307129</ele>
  <time>2011-10-15T05:51:46Z</time>
  <speed>2.300000</speed>
</trkpt>
<trkpt lat="33.007431030" lon="35.521774292">
  <ele>503.807129</ele>
  <time>2011-10-15T05:51:48Z</time>
  <speed>2.500000</speed>
</trkpt>
<trkpt lat="33.007385254" lon="35.521762848">
  <ele>504.213379</ele>
  <time>2011-10-15T05:51:50Z</time>
  <speed>2.410000</speed>
</trkpt>
<trkpt lat="33.007328033" lon="35.521770477">
  <ele>504.744629</ele>
  <time>2011-10-15T05:51:52Z</time>
  <speed>2.520000</speed>
</trkpt>
<trkpt lat="33.007278442" lon="35.521759033">
  <ele>506.088379</ele>
  <time>2011-10-15T05:51:54Z</time>
  <speed>2.700000</speed>
</trkpt>
<trkpt lat="33.007228851" lon="35.521766663">
  <ele>506.369629</ele>
  <time>2011-10-15T05:51:56Z</time>
  <speed>3.010000</speed>
</trkpt>
<trkpt lat="33.007194519" lon="35.521781921">
  <ele>507.143066</ele>
  <time>2011-10-15T05:51:57Z</time>
  <speed>3.210000</speed>
</trkpt>
<trkpt lat="33.007160187" lon="35.521781921">
  <ele>507.361816</ele>
  <time>2011-10-15T05:51:58Z</time>
  <speed>3.160000</speed>
</trkpt>
<trkpt lat="33.007133484" lon="35.521789551">
  <ele>507.533691</ele>
  <time>2011-10-15T05:51:59Z</time>
  <speed>3.360000</speed>
</trkpt>
<trkpt lat="33.007099152" lon="35.521793365">
  <ele>507.924316</ele>
  <time>2011-10-15T05:52:00Z</time>
  <speed>3.340000</speed>
</trkpt>
<trkpt lat="33.007068634" lon="35.521797180">
  <ele>509.111816</ele>
  <time>2011-10-15T05:52:01Z</time>
  <speed>3.340000</speed>
</trkpt>
<trkpt lat="33.007034302" lon="35.521797180">
  <ele>509.174316</ele>
  <time>2011-10-15T05:52:02Z</time>
  <speed>3.710000</speed>
</trkpt>
<trkpt lat="33.006996155" lon="35.521793365">
  <ele>508.869629</ele>
  <time>2011-10-15T05:52:03Z</time>
  <speed>4.520000</speed>
</trkpt>
<trkpt lat="33.006950378" lon="35.521793365">
  <ele>508.924316</ele>
  <time>2011-10-15T05:52:04Z</time>
  <speed>4.130000</speed>
</trkpt>
<trkpt lat="33.006916046" lon="35.521797180">
  <ele>508.611816</ele>
  <time>2011-10-15T05:52:05Z</time>
  <speed>3.600000</speed>
</trkpt>
<trkpt lat="33.006881714" lon="35.521797180">
  <ele>509.268066</ele>
  <time>2011-10-15T05:52:06Z</time>
  <speed>3.680000</speed>
</trkpt>
<trkpt lat="33.006843567" lon="35.521797180">
  <ele>509.463379</ele>
  <time>2011-10-15T05:52:07Z</time>
  <speed>3.640000</speed>
</trkpt>
<trkpt lat="33.006809235" lon="35.521808624">
  <ele>509.627441</ele>
  <time>2011-10-15T05:52:08Z</time>
  <speed>3.720000</speed>
</trkpt>
<trkpt lat="33.006767273" lon="35.521816254">
  <ele>509.674316</ele>
  <time>2011-10-15T05:52:09Z</time>
  <speed>3.930000</speed>
</trkpt>
<trkpt lat="33.006729126" lon="35.521831512">
  <ele>509.846191</ele>
  <time>2011-10-15T05:52:10Z</time>
  <speed>4.220000</speed>
</trkpt>
<trkpt lat="33.006690979" lon="35.521846771">
  <ele>510.307129</ele>
  <time>2011-10-15T05:52:11Z</time>
  <speed>4.410000</speed>
</trkpt>
<trkpt lat="33.006652832" lon="35.521873474">
  <ele>509.939941</ele>
  <time>2011-10-15T05:52:12Z</time>
  <speed>4.660000</speed>
</trkpt>
<trkpt lat="33.006607056" lon="35.521903992">
  <ele>509.799316</ele>
  <time>2011-10-15T05:52:13Z</time>
  <speed>4.970000</speed>
</trkpt>
<trkpt lat="33.006565094" lon="35.521926880">
  <ele>510.510254</ele>
  <time>2011-10-15T05:52:14Z</time>
  <speed>4.150000</speed>
</trkpt>
<trkpt lat="33.006515503" lon="35.521938324">
  <ele>511.182129</ele>
  <time>2011-10-15T05:52:15Z</time>
  <speed>4.100000</speed>
</trkpt>
<trkpt lat="33.006473541" lon="35.521965027">
  <ele>510.939941</ele>
  <time>2011-10-15T05:52:16Z</time>
  <speed>3.820000</speed>
</trkpt>
<trkpt lat="33.006435394" lon="35.521984100">
  <ele>510.291504</ele>
  <time>2011-10-15T05:52:17Z</time>
  <speed>3.590000</speed>
</trkpt>
<trkpt lat="33.006408691" lon="35.521999359">
  <ele>510.697754</ele>
  <time>2011-10-15T05:52:18Z</time>
  <speed>3.120000</speed>
</trkpt>
<trkpt lat="33.006381989" lon="35.522014618">
  <ele>511.127441</ele>
  <time>2011-10-15T05:52:19Z</time>
  <speed>2.710000</speed>
</trkpt>
<trkpt lat="33.006355286" lon="35.522022247">
  <ele>511.385254</ele>
  <time>2011-10-15T05:52:20Z</time>
  <speed>2.830000</speed>
</trkpt>
<trkpt lat="33.006324768" lon="35.522026062">
  <ele>511.705566</ele>
  <time>2011-10-15T05:52:21Z</time>
  <speed>2.780000</speed>
</trkpt>
<trkpt lat="33.006298065" lon="35.522018433">
  <ele>511.775879</ele>
  <time>2011-10-15T05:52:22Z</time>
  <speed>2.650000</speed>
</trkpt>
<trkpt lat="33.006267548" lon="35.522014618">
  <ele>512.020508</ele>
  <time>2011-10-15T05:52:23Z</time>
  <speed>3.200000</speed>
</trkpt>
<trkpt lat="33.006229401" lon="35.522003174">
  <ele>512.192383</ele>
  <time>2011-10-15T05:52:24Z</time>
  <speed>3.910000</speed>
</trkpt>
<trkpt lat="33.006198883" lon="35.521995544">
  <ele>513.114258</ele>
  <time>2011-10-15T05:52:25Z</time>
  <speed>3.560000</speed>
</trkpt>
<trkpt lat="33.006156921" lon="35.521991730">
  <ele>513.223633</ele>
  <time>2011-10-15T05:52:26Z</time>
  <speed>3.400000</speed>
</trkpt>
<trkpt lat="33.006118774" lon="35.521980286">
  <ele>513.192383</ele>
  <time>2011-10-15T05:52:27Z</time>
  <speed>3.190000</speed>
</trkpt>
<trkpt lat="33.006084442" lon="35.521984100">
  <ele>513.708008</ele>
  <time>2011-10-15T05:52:28Z</time>
  <speed>2.840000</speed>
</trkpt>
<trkpt lat="33.006050110" lon="35.521984100">
  <ele>514.411133</ele>
  <time>2011-10-15T05:52:29Z</time>
  <speed>3.300000</speed>
</trkpt>
<trkpt lat="33.006011963" lon="35.521987915">
  <ele>514.708008</ele>
  <time>2011-10-15T05:52:30Z</time>
  <speed>3.790000</speed>
</trkpt>
<trkpt lat="33.005970001" lon="35.521984100">
  <ele>515.067383</ele>
  <time>2011-10-15T05:52:31Z</time>
  <speed>4.070000</speed>
</trkpt>
<trkpt lat="33.005928040" lon="35.521999359">
  <ele>514.473633</ele>
  <time>2011-10-15T05:52:32Z</time>
  <speed>4.590000</speed>
</trkpt>
<trkpt lat="33.005878448" lon="35.521995544">
  <ele>514.348633</ele>
  <time>2011-10-15T05:52:33Z</time>
  <speed>4.770000</speed>
</trkpt>
<trkpt lat="33.005825043" lon="35.522003174">
  <ele>514.458008</ele>
  <time>2011-10-15T05:52:34Z</time>
  <speed>4.950000</speed>
</trkpt>
<trkpt lat="33.005752563" lon="35.522022247">
  <ele>516.161133</ele>
  <time>2011-10-15T05:52:35Z</time>
  <speed>5.120000</speed>
</trkpt>
<trkpt lat="33.005702972" lon="35.522026062">
  <ele>515.848633</ele>
  <time>2011-10-15T05:52:36Z</time>
  <speed>5.010000</speed>
</trkpt>
<trkpt lat="33.005661011" lon="35.522022247">
  <ele>515.583008</ele>
  <time>2011-10-15T05:52:37Z</time>
  <speed>4.320000</speed>
</trkpt>
<trkpt lat="33.005599976" lon="35.522026062">
  <ele>515.989258</ele>
  <time>2011-10-15T05:52:38Z</time>
  <speed>3.920000</speed>
</trkpt>
<trkpt lat="33.005538940" lon="35.522037506">
  <ele>518.536133</ele>
  <time>2011-10-15T05:52:39Z</time>
  <speed>3.620000</speed>
</trkpt>
<trkpt lat="33.005504608" lon="35.522033691">
  <ele>518.583008</ele>
  <time>2011-10-15T05:52:40Z</time>
  <speed>3.140000</speed>
</trkpt>
<trkpt lat="33.005477905" lon="35.522033691">
  <ele>518.223633</ele>
  <time>2011-10-15T05:52:41Z</time>
  <speed>2.930000</speed>
</trkpt>
<trkpt lat="33.005447388" lon="35.522026062">
  <ele>518.786133</ele>
  <time>2011-10-15T05:52:42Z</time>
  <speed>2.890000</speed>
</trkpt>
<trkpt lat="33.005416870" lon="35.522022247">
  <ele>518.676758</ele>
  <time>2011-10-15T05:52:43Z</time>
  <speed>3.180000</speed>
</trkpt>
<trkpt lat="33.005374908" lon="35.522029877">
  <ele>518.004883</ele>
  <time>2011-10-15T05:52:44Z</time>
  <speed>3.490000</speed>
</trkpt>
<trkpt lat="33.005340576" lon="35.522029877">
  <ele>517.911133</ele>
  <time>2011-10-15T05:52:45Z</time>
  <speed>3.270000</speed>
</trkpt>
<trkpt lat="33.005310059" lon="35.522029877">
  <ele>517.661133</ele>
  <time>2011-10-15T05:52:46Z</time>
  <speed>2.850000</speed>
</trkpt>
<trkpt lat="33.005283356" lon="35.522026062">
  <ele>517.379883</ele>
  <time>2011-10-15T05:52:47Z</time>
  <speed>2.750000</speed>
</trkpt>
<trkpt lat="33.005245209" lon="35.522029877">
  <ele>516.973633</ele>
  <time>2011-10-15T05:52:48Z</time>
  <speed>3.140000</speed>
</trkpt>
<trkpt lat="33.005218506" lon="35.522033691">
  <ele>516.770508</ele>
  <time>2011-10-15T05:52:49Z</time>
  <speed>2.560000</speed>
</trkpt>
<trkpt lat="33.005187988" lon="35.522033691">
  <ele>516.958008</ele>
  <time>2011-10-15T05:52:50Z</time>
  <speed>2.610000</speed>
</trkpt>
<trkpt lat="33.005161285" lon="35.522029877">
  <ele>517.020508</ele>
  <time>2011-10-15T05:52:51Z</time>
  <speed>2.570000</speed>
</trkpt>
<trkpt lat="33.005134583" lon="35.522018433">
  <ele>517.411133</ele>
  <time>2011-10-15T05:52:52Z</time>
  <speed>2.050000</speed>
</trkpt>
<trkpt lat="33.005073547" lon="35.522022247">
  <ele>517.817383</ele>
  <time>2011-10-15T05:52:54Z</time>
  <speed>2.590000</speed>
</trkpt>
<trkpt lat="33.005035400" lon="35.522010803">
  <ele>517.661133</ele>
  <time>2011-10-15T05:52:55Z</time>
  <speed>3.490000</speed>
</trkpt>
<trkpt lat="33.004997253" lon="35.522018433">
  <ele>517.692383</ele>
  <time>2011-10-15T05:52:56Z</time>
  <speed>3.950000</speed>
</trkpt>
<trkpt lat="33.004962921" lon="35.522006989">
  <ele>517.567383</ele>
  <time>2011-10-15T05:52:57Z</time>
  <speed>3.610000</speed>
</trkpt>
<trkpt lat="33.004917145" lon="35.521995544">
  <ele>517.708008</ele>
  <time>2011-10-15T05:52:58Z</time>
  <speed>3.350000</speed>
</trkpt>
<trkpt lat="33.004882813" lon="35.521999359">
  <ele>517.801758</ele>
  <time>2011-10-15T05:52:59Z</time>
  <speed>2.750000</speed>
</trkpt>
<trkpt lat="33.004848480" lon="35.521995544">
  <ele>517.520508</ele>
  <time>2011-10-15T05:53:00Z</time>
  <speed>2.480000</speed>
</trkpt>
<trkpt lat="33.004795074" lon="35.522006989">
  <ele>517.489258</ele>
  <time>2011-10-15T05:53:01Z</time>
  <speed>3.060000</speed>
</trkpt>
<trkpt lat="33.004756927" lon="35.522003174">
  <ele>517.661133</ele>
  <time>2011-10-15T05:53:02Z</time>
  <speed>3.070000</speed>
</trkpt>
<trkpt lat="33.004673004" lon="35.522029877">
  <ele>518.989258</ele>
  <time>2011-10-15T05:53:03Z</time>
  <speed>3.710000</speed>
</trkpt>
<trkpt lat="33.004631042" lon="35.522014618">
  <ele>518.739258</ele>
  <time>2011-10-15T05:53:04Z</time>
  <speed>4.320000</speed>
</trkpt>
<trkpt lat="33.004589081" lon="35.521995544">
  <ele>518.973633</ele>
  <time>2011-10-15T05:53:05Z</time>
  <speed>3.820000</speed>
</trkpt>
<trkpt lat="33.004562378" lon="35.521965027">
  <ele>518.879883</ele>
  <time>2011-10-15T05:53:06Z</time>
  <speed>4.500000</speed>
</trkpt>
<trkpt lat="33.004531860" lon="35.521938324">
  <ele>518.926758</ele>
  <time>2011-10-15T05:53:07Z</time>
  <speed>3.780000</speed>
</trkpt>
<trkpt lat="33.004508972" lon="35.521892548">
  <ele>518.911133</ele>
  <time>2011-10-15T05:53:08Z</time>
  <speed>4.050000</speed>
</trkpt>
<trkpt lat="33.004478455" lon="35.521831512">
  <ele>519.145508</ele>
  <time>2011-10-15T05:53:09Z</time>
  <speed>4.390000</speed>
</trkpt>
<trkpt lat="33.004459381" lon="35.521800995">
  <ele>519.036133</ele>
  <time>2011-10-15T05:53:10Z</time>
  <speed>3.100000</speed>
</trkpt>
<trkpt lat="33.004402161" lon="35.521778107">
  <ele>519.489258</ele>
  <time>2011-10-15T05:53:11Z</time>
  <speed>5.370000</speed>
</trkpt>
<trkpt lat="33.004360199" lon="35.521736145">
  <ele>519.504883</ele>
  <time>2011-10-15T05:53:12Z</time>
  <speed>5.950000</speed>
</trkpt>
<trkpt lat="33.004322052" lon="35.521667480">
  <ele>518.004883</ele>
  <time>2011-10-15T05:53:13Z</time>
  <speed>6.560000</speed>
</trkpt>
<trkpt lat="33.004295349" lon="35.521602631">
  <ele>517.192383</ele>
  <time>2011-10-15T05:53:14Z</time>
  <speed>6.220000</speed>
</trkpt>
<trkpt lat="33.004276276" lon="35.521537781">
  <ele>516.176758</ele>
  <time>2011-10-15T05:53:15Z</time>
  <speed>6.050000</speed>
</trkpt>
<trkpt lat="33.004253387" lon="35.521472931">
  <ele>515.442383</ele>
  <time>2011-10-15T05:53:16Z</time>
  <speed>5.540000</speed>
</trkpt>
<trkpt lat="33.004241943" lon="35.521419525">
  <ele>514.723633</ele>
  <time>2011-10-15T05:53:17Z</time>
  <speed>4.480000</speed>
</trkpt>
<trkpt lat="33.004230499" lon="35.521381378">
  <ele>514.958008</ele>
  <time>2011-10-15T05:53:18Z</time>
  <speed>3.750000</speed>
</trkpt>
<trkpt lat="33.004230499" lon="35.521347046">
  <ele>515.254883</ele>
  <time>2011-10-15T05:53:19Z</time>
  <speed>3.590000</speed>
</trkpt>
<trkpt lat="33.004222870" lon="35.521305084">
  <ele>514.692383</ele>
  <time>2011-10-15T05:53:20Z</time>
  <speed>3.520000</speed>
</trkpt>
<trkpt lat="33.004219055" lon="35.521270752">
  <ele>514.489258</ele>
  <time>2011-10-15T05:53:21Z</time>
  <speed>3.100000</speed>
</trkpt>
<trkpt lat="33.004215240" lon="35.521236420">
  <ele>514.301758</ele>
  <time>2011-10-15T05:53:22Z</time>
  <speed>2.990000</speed>
</trkpt>
<trkpt lat="33.004199982" lon="35.521167755">
  <ele>514.098633</ele>
  <time>2011-10-15T05:53:24Z</time>
  <speed>3.250000</speed>
</trkpt>
<trkpt lat="33.004199982" lon="35.521133423">
  <ele>514.239258</ele>
  <time>2011-10-15T05:53:25Z</time>
  <speed>3.040000</speed>
</trkpt>
<trkpt lat="33.004188538" lon="35.521099091">
  <ele>513.958008</ele>
  <time>2011-10-15T05:53:26Z</time>
  <speed>3.210000</speed>
</trkpt>
<trkpt lat="33.004180908" lon="35.521064758">
  <ele>513.739258</ele>
  <time>2011-10-15T05:53:27Z</time>
  <speed>3.180000</speed>
</trkpt>
<trkpt lat="33.004165649" lon="35.521030426">
  <ele>513.973633</ele>
  <time>2011-10-15T05:53:28Z</time>
  <speed>3.460000</speed>
</trkpt>
<trkpt lat="33.004146576" lon="35.520999908">
  <ele>513.536133</ele>
  <time>2011-10-15T05:53:29Z</time>
  <speed>2.820000</speed>
</trkpt>
<trkpt lat="33.004131317" lon="35.520969391">
  <ele>513.364258</ele>
  <time>2011-10-15T05:53:30Z</time>
  <speed>2.660000</speed>
</trkpt>
<trkpt lat="33.004119873" lon="35.520938873">
  <ele>513.864258</ele>
  <time>2011-10-15T05:53:31Z</time>
  <speed>2.880000</speed>
</trkpt>
<trkpt lat="33.004089355" lon="35.520885468">
  <ele>514.333008</ele>
  <time>2011-10-15T05:53:33Z</time>
  <speed>2.960000</speed>
</trkpt>
<trkpt lat="33.004074097" lon="35.520851135">
  <ele>515.348633</ele>
  <time>2011-10-15T05:53:34Z</time>
  <speed>2.910000</speed>
</trkpt>
<trkpt lat="33.004058838" lon="35.520816803">
  <ele>516.317383</ele>
  <time>2011-10-15T05:53:35Z</time>
  <speed>3.190000</speed>
</trkpt>
<trkpt lat="33.004047394" lon="35.520786285">
  <ele>517.426758</ele>
  <time>2011-10-15T05:53:36Z</time>
  <speed>2.850000</speed>
</trkpt>
<trkpt lat="33.004028320" lon="35.520729065">
  <ele>518.301758</ele>
  <time>2011-10-15T05:53:38Z</time>
  <speed>2.830000</speed>
</trkpt>
<trkpt lat="33.004001617" lon="35.520687103">
  <ele>518.333008</ele>
  <time>2011-10-15T05:53:40Z</time>
  <speed>2.460000</speed>
</trkpt>
<trkpt lat="33.003982544" lon="35.520664215">
  <ele>519.223633</ele>
  <time>2011-10-15T05:53:41Z</time>
  <speed>2.500000</speed>
</trkpt>
<trkpt lat="33.003952026" lon="35.520614624">
  <ele>520.098633</ele>
  <time>2011-10-15T05:53:43Z</time>
  <speed>2.680000</speed>
</trkpt>
<trkpt lat="33.003910065" lon="35.520584106">
  <ele>520.333008</ele>
  <time>2011-10-15T05:53:45Z</time>
  <speed>2.960000</speed>
</trkpt>
<trkpt lat="33.003879547" lon="35.520538330">
  <ele>522.598633</ele>
  <time>2011-10-15T05:53:47Z</time>
  <speed>2.300000</speed>
</trkpt>
<trkpt lat="33.003856659" lon="35.520503998">
  <ele>523.239258</ele>
  <time>2011-10-15T05:53:49Z</time>
  <speed>2.430000</speed>
</trkpt>
<trkpt lat="33.003829956" lon="35.520473480">
  <ele>524.473633</ele>
  <time>2011-10-15T05:53:51Z</time>
  <speed>2.520000</speed>
</trkpt>
<trkpt lat="33.003803253" lon="35.520427704">
  <ele>524.114258</ele>
  <time>2011-10-15T05:53:53Z</time>
  <speed>1.990000</speed>
</trkpt>
<trkpt lat="33.003780365" lon="35.520401001">
  <ele>524.676758</ele>
  <time>2011-10-15T05:53:55Z</time>
  <speed>1.990000</speed>
</trkpt>
<trkpt lat="33.003749847" lon="35.520378113">
  <ele>525.411133</ele>
  <time>2011-10-15T05:53:57Z</time>
  <speed>1.950000</speed>
</trkpt>
<trkpt lat="33.003719330" lon="35.520366669">
  <ele>525.598633</ele>
  <time>2011-10-15T05:53:59Z</time>
  <speed>1.750000</speed>
</trkpt>
<trkpt lat="33.003681183" lon="35.520355225">
  <ele>526.504883</ele>
  <time>2011-10-15T05:54:01Z</time>
  <speed>1.870000</speed>
</trkpt>
<trkpt lat="33.003650665" lon="35.520359039">
  <ele>526.661133</ele>
  <time>2011-10-15T05:54:03Z</time>
  <speed>1.660000</speed>
</trkpt>
<trkpt lat="33.003620148" lon="35.520351410">
  <ele>526.395508</ele>
  <time>2011-10-15T05:54:05Z</time>
  <speed>1.780000</speed>
</trkpt>
<trkpt lat="33.003589630" lon="35.520351410">
  <ele>527.161133</ele>
  <time>2011-10-15T05:54:07Z</time>
  <speed>1.950000</speed>
</trkpt>
<trkpt lat="33.003551483" lon="35.520343781">
  <ele>528.161133</ele>
  <time>2011-10-15T05:54:09Z</time>
  <speed>1.470000</speed>
</trkpt>
<trkpt lat="33.003517151" lon="35.520339966">
  <ele>529.067383</ele>
  <time>2011-10-15T05:54:11Z</time>
  <speed>1.480000</speed>
</trkpt>
<trkpt lat="33.003486633" lon="35.520339966">
  <ele>529.567383</ele>
  <time>2011-10-15T05:54:13Z</time>
  <speed>1.610000</speed>
</trkpt>
<trkpt lat="33.003452301" lon="35.520332336">
  <ele>529.661133</ele>
  <time>2011-10-15T05:54:15Z</time>
  <speed>1.760000</speed>
</trkpt>
<trkpt lat="33.003421783" lon="35.520324707">
  <ele>530.895508</ele>
  <time>2011-10-15T05:54:17Z</time>
  <speed>1.510000</speed>
</trkpt>
<trkpt lat="33.003391266" lon="35.520332336">
  <ele>531.583008</ele>
  <time>2011-10-15T05:54:19Z</time>
  <speed>1.710000</speed>
</trkpt>
<trkpt lat="33.003356934" lon="35.520336151">
  <ele>531.926758</ele>
  <time>2011-10-15T05:54:21Z</time>
  <speed>1.810000</speed>
</trkpt>
<trkpt lat="33.003326416" lon="35.520339966">
  <ele>533.254883</ele>
  <time>2011-10-15T05:54:23Z</time>
  <speed>1.650000</speed>
</trkpt>
<trkpt lat="33.003295898" lon="35.520332336">
  <ele>533.723633</ele>
  <time>2011-10-15T05:54:25Z</time>
  <speed>1.810000</speed>
</trkpt>
<trkpt lat="33.003265381" lon="35.520313263">
  <ele>534.629883</ele>
  <time>2011-10-15T05:54:28Z</time>
  <speed>1.400000</speed>
</trkpt>
<trkpt lat="33.003234863" lon="35.520313263">
  <ele>534.973633</ele>
  <time>2011-10-15T05:54:30Z</time>
  <speed>1.560000</speed>
</trkpt>
<trkpt lat="33.003196716" lon="35.520313263">
  <ele>535.083008</ele>
  <time>2011-10-15T05:54:32Z</time>
  <speed>1.990000</speed>
</trkpt>
<trkpt lat="33.003162384" lon="35.520309448">
  <ele>535.520508</ele>
  <time>2011-10-15T05:54:34Z</time>
  <speed>2.170000</speed>
</trkpt>
<trkpt lat="33.003124237" lon="35.520305634">
  <ele>536.786133</ele>
  <time>2011-10-15T05:54:36Z</time>
  <speed>1.740000</speed>
</trkpt>
<trkpt lat="33.003097534" lon="35.520286560">
  <ele>537.286133</ele>
  <time>2011-10-15T05:54:38Z</time>
  <speed>2.010000</speed>
</trkpt>
<trkpt lat="33.003070831" lon="35.520275116">
  <ele>537.598633</ele>
  <time>2011-10-15T05:54:40Z</time>
  <speed>1.780000</speed>
</trkpt>
<trkpt lat="33.003040314" lon="35.520263672">
  <ele>539.192383</ele>
  <time>2011-10-15T05:54:42Z</time>
  <speed>1.650000</speed>
</trkpt>
<trkpt lat="33.003005981" lon="35.520244598">
  <ele>540.520508</ele>
  <time>2011-10-15T05:54:44Z</time>
  <speed>1.890000</speed>
</trkpt>
<trkpt lat="33.002975464" lon="35.520229340">
  <ele>540.661133</ele>
  <time>2011-10-15T05:54:47Z</time>
  <speed>1.410000</speed>
</trkpt>
<trkpt lat="33.002944946" lon="35.520236969">
  <ele>542.301758</ele>
  <time>2011-10-15T05:54:49Z</time>
  <speed>1.610000</speed>
</trkpt>
<trkpt lat="33.002910614" lon="35.520233154">
  <ele>543.286133</ele>
  <time>2011-10-15T05:54:51Z</time>
  <speed>1.850000</speed>
</trkpt>
<trkpt lat="33.002880096" lon="35.520221710">
  <ele>544.676758</ele>
  <time>2011-10-15T05:54:53Z</time>
  <speed>1.510000</speed>
</trkpt>
<trkpt lat="33.002845764" lon="35.520217896">
  <ele>544.348633</ele>
  <time>2011-10-15T05:54:55Z</time>
  <speed>1.780000</speed>
</trkpt>
<trkpt lat="33.002815247" lon="35.520210266">
  <ele>544.754883</ele>
  <time>2011-10-15T05:54:57Z</time>
  <speed>1.660000</speed>
</trkpt>
<trkpt lat="33.002777100" lon="35.520221710">
  <ele>546.161133</ele>
  <time>2011-10-15T05:54:59Z</time>
  <speed>1.620000</speed>
</trkpt>
<trkpt lat="33.002746582" lon="35.520214081">
  <ele>546.895508</ele>
  <time>2011-10-15T05:55:01Z</time>
  <speed>1.650000</speed>
</trkpt>
<trkpt lat="33.002719879" lon="35.520202637">
  <ele>547.317383</ele>
  <time>2011-10-15T05:55:03Z</time>
  <speed>1.600000</speed>
</trkpt>
<trkpt lat="33.002689362" lon="35.520202637">
  <ele>549.083008</ele>
  <time>2011-10-15T05:55:05Z</time>
  <speed>1.370000</speed>
</trkpt>
<trkpt lat="33.002674103" lon="35.520168304">
  <ele>548.895508</ele>
  <time>2011-10-15T05:55:07Z</time>
  <speed>1.520000</speed>
</trkpt>
<trkpt lat="33.002639771" lon="35.520164490">
  <ele>549.879883</ele>
  <time>2011-10-15T05:55:10Z</time>
  <speed>1.740000</speed>
</trkpt>
<trkpt lat="33.002613068" lon="35.520153046">
  <ele>549.458008</ele>
  <time>2011-10-15T05:55:12Z</time>
  <speed>1.400000</speed>
</trkpt>
<trkpt lat="33.002578735" lon="35.520126343">
  <ele>549.895508</ele>
  <time>2011-10-15T05:55:15Z</time>
  <speed>1.470000</speed>
</trkpt>
<trkpt lat="33.002555847" lon="35.520107269">
  <ele>549.942383</ele>
  <time>2011-10-15T05:55:17Z</time>
  <speed>1.430000</speed>
</trkpt>
<trkpt lat="33.002521515" lon="35.520084381">
  <ele>550.489258</ele>
  <time>2011-10-15T05:55:20Z</time>
  <speed>1.370000</speed>
</trkpt>
<trkpt lat="33.002487183" lon="35.520069122">
  <ele>550.754883</ele>
  <time>2011-10-15T05:55:23Z</time>
  <speed>1.360000</speed>
</trkpt>
<trkpt lat="33.002452850" lon="35.520057678">
  <ele>551.629883</ele>
  <time>2011-10-15T05:55:26Z</time>
  <speed>1.420000</speed>
</trkpt>
<trkpt lat="33.002426147" lon="35.520046234">
  <ele>552.161133</ele>
  <time>2011-10-15T05:55:28Z</time>
  <speed>1.470000</speed>
</trkpt>
<trkpt lat="33.002399445" lon="35.520027161">
  <ele>552.770508</ele>
  <time>2011-10-15T05:55:30Z</time>
  <speed>1.560000</speed>
</trkpt>
<trkpt lat="33.002372742" lon="35.520023346">
  <ele>554.083008</ele>
  <time>2011-10-15T05:55:32Z</time>
  <speed>1.470000</speed>
</trkpt>
<trkpt lat="33.002342224" lon="35.520004272">
  <ele>554.458008</ele>
  <time>2011-10-15T05:55:35Z</time>
  <speed>1.450000</speed>
</trkpt>
<trkpt lat="33.002315521" lon="35.519989014">
  <ele>553.489258</ele>
  <time>2011-10-15T05:55:37Z</time>
  <speed>1.490000</speed>
</trkpt>
<trkpt lat="33.002288818" lon="35.519973755">
  <ele>553.114258</ele>
  <time>2011-10-15T05:55:39Z</time>
  <speed>1.550000</speed>
</trkpt>
<trkpt lat="33.002254486" lon="35.519958496">
  <ele>554.239258</ele>
  <time>2011-10-15T05:55:42Z</time>
  <speed>1.130000</speed>
</trkpt>
<trkpt lat="33.002220154" lon="35.519958496">
  <ele>555.567383</ele>
  <time>2011-10-15T05:55:44Z</time>
  <speed>1.450000</speed>
</trkpt>
<trkpt lat="33.002189636" lon="35.519969940">
  <ele>556.348633</ele>
  <time>2011-10-15T05:55:46Z</time>
  <speed>1.670000</speed>
</trkpt>
<trkpt lat="33.002162933" lon="35.519954681">
  <ele>556.801758</ele>
  <time>2011-10-15T05:55:49Z</time>
  <speed>1.580000</speed>
</trkpt>
<trkpt lat="33.002128601" lon="35.519935608">
  <ele>557.504883</ele>
  <time>2011-10-15T05:55:51Z</time>
  <speed>1.850000</speed>
</trkpt>
<trkpt lat="33.002101898" lon="35.519927979">
  <ele>557.848633</ele>
  <time>2011-10-15T05:55:53Z</time>
  <speed>2.010000</speed>
</trkpt>
<trkpt lat="33.002071381" lon="35.519916534">
  <ele>557.426758</ele>
  <time>2011-10-15T05:55:55Z</time>
  <speed>1.480000</speed>
</trkpt>
<trkpt lat="33.002037048" lon="35.519889832">
  <ele>557.567383</ele>
  <time>2011-10-15T05:55:58Z</time>
  <speed>1.410000</speed>
</trkpt>
<trkpt lat="33.002037048" lon="35.519847870">
  <ele>555.536133</ele>
  <time>2011-10-15T05:56:01Z</time>
  <speed>1.330000</speed>
</trkpt>
<trkpt lat="33.002025604" lon="35.519809723">
  <ele>555.551758</ele>
  <time>2011-10-15T05:56:04Z</time>
  <speed>1.290000</speed>
</trkpt>
<trkpt lat="33.002006531" lon="35.519786835">
  <ele>555.473633</ele>
  <time>2011-10-15T05:56:06Z</time>
  <speed>1.410000</speed>
</trkpt>
<trkpt lat="33.001995087" lon="35.519748688">
  <ele>555.208008</ele>
  <time>2011-10-15T05:56:09Z</time>
  <speed>0.930000</speed>
</trkpt>
<trkpt lat="33.001979828" lon="35.519702911">
  <ele>555.754883</ele>
  <time>2011-10-15T05:56:12Z</time>
  <speed>1.090000</speed>
</trkpt>
<trkpt lat="33.001976013" lon="35.519672394">
  <ele>556.723633</ele>
  <time>2011-10-15T05:56:15Z</time>
  <speed>1.060000</speed>
</trkpt>
<trkpt lat="33.001976013" lon="35.519634247">
  <ele>556.676758</ele>
  <time>2011-10-15T05:56:17Z</time>
  <speed>1.380000</speed>
</trkpt>
<trkpt lat="33.001976013" lon="35.519596100">
  <ele>556.442383</ele>
  <time>2011-10-15T05:56:19Z</time>
  <speed>1.230000</speed>
</trkpt>
<trkpt lat="33.001976013" lon="35.519561768">
  <ele>556.739258</ele>
  <time>2011-10-15T05:56:21Z</time>
  <speed>1.470000</speed>
</trkpt>
<trkpt lat="33.001991272" lon="35.519527435">
  <ele>555.520508</ele>
  <time>2011-10-15T05:56:24Z</time>
  <speed>1.070000</speed>
</trkpt>
<trkpt lat="33.002010345" lon="35.519493103">
  <ele>555.473633</ele>
  <time>2011-10-15T05:56:27Z</time>
  <speed>1.160000</speed>
</trkpt>
<trkpt lat="33.002029419" lon="35.519466400">
  <ele>555.614258</ele>
  <time>2011-10-15T05:56:30Z</time>
  <speed>0.860000</speed>
</trkpt>
<trkpt lat="33.002056122" lon="35.519432068">
  <ele>556.739258</ele>
  <time>2011-10-15T05:56:33Z</time>
  <speed>1.450000</speed>
</trkpt>
<trkpt lat="33.002079010" lon="35.519405365">
  <ele>558.254883</ele>
  <time>2011-10-15T05:56:36Z</time>
  <speed>1.100000</speed>
</trkpt>
<trkpt lat="33.002105713" lon="35.519374847">
  <ele>559.801758</ele>
  <time>2011-10-15T05:56:40Z</time>
  <speed>0.950000</speed>
</trkpt>
<trkpt lat="33.002117157" lon="35.519317627">
  <ele>561.176758</ele>
  <time>2011-10-15T05:56:44Z</time>
  <speed>1.090000</speed>
</trkpt>
<trkpt lat="33.002140045" lon="35.519287109">
  <ele>561.583008</ele>
  <time>2011-10-15T05:56:47Z</time>
  <speed>1.240000</speed>
</trkpt>
<trkpt lat="33.002170563" lon="35.519260406">
  <ele>562.317383</ele>
  <time>2011-10-15T05:56:50Z</time>
  <speed>1.560000</speed>
</trkpt>
<trkpt lat="33.002208710" lon="35.519248962">
  <ele>562.739258</ele>
  <time>2011-10-15T05:56:53Z</time>
  <speed>1.000000</speed>
</trkpt>
<trkpt lat="33.002254486" lon="35.519256592">
  <ele>561.958008</ele>
  <time>2011-10-15T05:56:56Z</time>
  <speed>1.370000</speed>
</trkpt>
<trkpt lat="33.002292633" lon="35.519260406">
  <ele>561.661133</ele>
  <time>2011-10-15T05:56:58Z</time>
  <speed>1.320000</speed>
</trkpt>
<trkpt lat="33.002334595" lon="35.519245148">
  <ele>563.270508</ele>
  <time>2011-10-15T05:57:01Z</time>
  <speed>1.540000</speed>
</trkpt>
<trkpt lat="33.002361298" lon="35.519226074">
  <ele>563.989258</ele>
  <time>2011-10-15T05:57:03Z</time>
  <speed>1.140000</speed>
</trkpt>
<trkpt lat="33.002399445" lon="35.519226074">
  <ele>564.395508</ele>
  <time>2011-10-15T05:57:06Z</time>
  <speed>1.450000</speed>
</trkpt>
<trkpt lat="33.002433777" lon="35.519226074">
  <ele>563.817383</ele>
  <time>2011-10-15T05:57:08Z</time>
  <speed>1.320000</speed>
</trkpt>
<trkpt lat="33.002464294" lon="35.519233704">
  <ele>563.333008</ele>
  <time>2011-10-15T05:57:11Z</time>
  <speed>1.240000</speed>
</trkpt>
<trkpt lat="33.002494812" lon="35.519241333">
  <ele>562.879883</ele>
  <time>2011-10-15T05:57:14Z</time>
  <speed>1.330000</speed>
</trkpt>
<trkpt lat="33.002529144" lon="35.519241333">
  <ele>562.754883</ele>
  <time>2011-10-15T05:57:17Z</time>
  <speed>1.280000</speed>
</trkpt>
<trkpt lat="33.002563477" lon="35.519245148">
  <ele>562.520508</ele>
  <time>2011-10-15T05:57:20Z</time>
  <speed>1.450000</speed>
</trkpt>
<trkpt lat="33.002586365" lon="35.519229889">
  <ele>561.458008</ele>
  <time>2011-10-15T05:57:21Z</time>
  <speed>1.700000</speed>
</trkpt>
<trkpt lat="33.002616882" lon="35.519229889">
  <ele>561.176758</ele>
  <time>2011-10-15T05:57:23Z</time>
  <speed>1.740000</speed>
</trkpt>
<trkpt lat="33.002647400" lon="35.519241333">
  <ele>560.145508</ele>
  <time>2011-10-15T05:57:25Z</time>
  <speed>1.490000</speed>
</trkpt>
<trkpt lat="33.002674103" lon="35.519245148">
  <ele>558.989258</ele>
  <time>2011-10-15T05:57:27Z</time>
  <speed>1.780000</speed>
</trkpt>
<trkpt lat="33.002708435" lon="35.519237518">
  <ele>559.426758</ele>
  <time>2011-10-15T05:57:29Z</time>
  <speed>1.910000</speed>
</trkpt>
<trkpt lat="33.002738953" lon="35.519226074">
  <ele>559.004883</ele>
  <time>2011-10-15T05:57:31Z</time>
  <speed>1.930000</speed>
</trkpt>
<trkpt lat="33.002780914" lon="35.519237518">
  <ele>558.645508</ele>
  <time>2011-10-15T05:57:33Z</time>
  <speed>2.140000</speed>
</trkpt>
<trkpt lat="33.002822876" lon="35.519245148">
  <ele>558.223633</ele>
  <time>2011-10-15T05:57:35Z</time>
  <speed>2.160000</speed>
</trkpt>
<trkpt lat="33.002861023" lon="35.519248962">
  <ele>559.083008</ele>
  <time>2011-10-15T05:57:37Z</time>
  <speed>2.480000</speed>
</trkpt>
<trkpt lat="33.002895355" lon="35.519252777">
  <ele>561.317383</ele>
  <time>2011-10-15T05:57:39Z</time>
  <speed>1.950000</speed>
</trkpt>
<trkpt lat="33.002933502" lon="35.519245148">
  <ele>562.364258</ele>
  <time>2011-10-15T05:57:41Z</time>
  <speed>2.520000</speed>
</trkpt>
<trkpt lat="33.002960205" lon="35.519241333">
  <ele>563.879883</ele>
  <time>2011-10-15T05:57:42Z</time>
  <speed>2.970000</speed>
</trkpt>
<trkpt lat="33.002990723" lon="35.519237518">
  <ele>563.786133</ele>
  <time>2011-10-15T05:57:43Z</time>
  <speed>2.530000</speed>
</trkpt>
<trkpt lat="33.003036499" lon="35.519226074">
  <ele>565.161133</ele>
  <time>2011-10-15T05:57:45Z</time>
  <speed>2.370000</speed>
</trkpt>
<trkpt lat="33.003086090" lon="35.519207001">
  <ele>564.629883</ele>
  <time>2011-10-15T05:57:47Z</time>
  <speed>2.670000</speed>
</trkpt>
<trkpt lat="33.003124237" lon="35.519191742">
  <ele>564.192383</ele>
  <time>2011-10-15T05:57:49Z</time>
  <speed>1.710000</speed>
</trkpt>
<trkpt lat="33.003166199" lon="35.519168854">
  <ele>565.426758</ele>
  <time>2011-10-15T05:57:51Z</time>
  <speed>2.350000</speed>
</trkpt>
<trkpt lat="33.003215790" lon="35.519134521">
  <ele>565.692383</ele>
  <time>2011-10-15T05:57:53Z</time>
  <speed>2.630000</speed>
</trkpt>
<trkpt lat="33.003238678" lon="35.519111633">
  <ele>565.473633</ele>
  <time>2011-10-15T05:57:54Z</time>
  <speed>2.570000</speed>
</trkpt>
<trkpt lat="33.003284454" lon="35.519073486">
  <ele>565.504883</ele>
  <time>2011-10-15T05:57:56Z</time>
  <speed>2.480000</speed>
</trkpt>
<trkpt lat="33.003318787" lon="35.519023895">
  <ele>564.129883</ele>
  <time>2011-10-15T05:57:58Z</time>
  <speed>2.410000</speed>
</trkpt>
<trkpt lat="33.003353119" lon="35.518966675">
  <ele>562.692383</ele>
  <time>2011-10-15T05:58:00Z</time>
  <speed>2.530000</speed>
</trkpt>
<trkpt lat="33.003368378" lon="35.518936157">
  <ele>561.379883</ele>
  <time>2011-10-15T05:58:01Z</time>
  <speed>2.400000</speed>
</trkpt>
<trkpt lat="33.003383636" lon="35.518905640">
  <ele>560.286133</ele>
  <time>2011-10-15T05:58:02Z</time>
  <speed>2.240000</speed>
</trkpt>
<trkpt lat="33.003402710" lon="35.518863678">
  <ele>560.364258</ele>
  <time>2011-10-15T05:58:04Z</time>
  <speed>2.480000</speed>
</trkpt>
<trkpt lat="33.003410339" lon="35.518806458">
  <ele>559.458008</ele>
  <time>2011-10-15T05:58:06Z</time>
  <speed>2.180000</speed>
</trkpt>
<trkpt lat="33.003414154" lon="35.518749237">
  <ele>558.520508</ele>
  <time>2011-10-15T05:58:08Z</time>
  <speed>2.410000</speed>
</trkpt>
<trkpt lat="33.003406525" lon="35.518692017">
  <ele>557.489258</ele>
  <time>2011-10-15T05:58:10Z</time>
  <speed>2.350000</speed>
</trkpt>
<trkpt lat="33.003391266" lon="35.518638611">
  <ele>557.504883</ele>
  <time>2011-10-15T05:58:12Z</time>
  <speed>2.090000</speed>
</trkpt>
<trkpt lat="33.003379822" lon="35.518592834">
  <ele>557.301758</ele>
  <time>2011-10-15T05:58:14Z</time>
  <speed>2.100000</speed>
</trkpt>
<trkpt lat="33.003364563" lon="35.518543243">
  <ele>556.239258</ele>
  <time>2011-10-15T05:58:16Z</time>
  <speed>2.160000</speed>
</trkpt>
<trkpt lat="33.003356934" lon="35.518508911">
  <ele>555.504883</ele>
  <time>2011-10-15T05:58:18Z</time>
  <speed>2.010000</speed>
</trkpt>
<trkpt lat="33.003337860" lon="35.518463135">
  <ele>555.379883</ele>
  <time>2011-10-15T05:58:20Z</time>
  <speed>2.110000</speed>
</trkpt>
<trkpt lat="33.003318787" lon="35.518413544">
  <ele>555.223633</ele>
  <time>2011-10-15T05:58:22Z</time>
  <speed>2.230000</speed>
</trkpt>
<trkpt lat="33.003284454" lon="35.518367767">
  <ele>556.489258</ele>
  <time>2011-10-15T05:58:24Z</time>
  <speed>2.270000</speed>
</trkpt>
<trkpt lat="33.003261566" lon="35.518333435">
  <ele>558.520508</ele>
  <time>2011-10-15T05:58:26Z</time>
  <speed>2.580000</speed>
</trkpt>
<trkpt lat="33.003238678" lon="35.518299103">
  <ele>560.317383</ele>
  <time>2011-10-15T05:58:28Z</time>
  <speed>2.430000</speed>
</trkpt>
<trkpt lat="33.003204346" lon="35.518260956">
  <ele>560.426758</ele>
  <time>2011-10-15T05:58:30Z</time>
  <speed>2.390000</speed>
</trkpt>
<trkpt lat="33.003173828" lon="35.518222809">
  <ele>561.504883</ele>
  <time>2011-10-15T05:58:32Z</time>
  <speed>1.980000</speed>
</trkpt>
<trkpt lat="33.003147125" lon="35.518192291">
  <ele>560.942383</ele>
  <time>2011-10-15T05:58:34Z</time>
  <speed>2.150000</speed>
</trkpt>
<trkpt lat="33.003124237" lon="35.518177032">
  <ele>561.629883</ele>
  <time>2011-10-15T05:58:35Z</time>
  <speed>2.110000</speed>
</trkpt>
<trkpt lat="33.003078461" lon="35.518150330">
  <ele>561.911133</ele>
  <time>2011-10-15T05:58:37Z</time>
  <speed>2.250000</speed>
</trkpt>
<trkpt lat="33.003036499" lon="35.518131256">
  <ele>563.083008</ele>
  <time>2011-10-15T05:58:39Z</time>
  <speed>2.300000</speed>
</trkpt>
<trkpt lat="33.003002167" lon="35.518135071">
  <ele>562.958008</ele>
  <time>2011-10-15T05:58:41Z</time>
  <speed>1.730000</speed>
</trkpt>
<trkpt lat="33.002960205" lon="35.518131256">
  <ele>562.020508</ele>
  <time>2011-10-15T05:58:43Z</time>
  <speed>2.260000</speed>
</trkpt>
<trkpt lat="33.002918243" lon="35.518146515">
  <ele>562.879883</ele>
  <time>2011-10-15T05:58:45Z</time>
  <speed>2.160000</speed>
</trkpt>
<trkpt lat="33.002872467" lon="35.518146515">
  <ele>563.598633</ele>
  <time>2011-10-15T05:58:47Z</time>
  <speed>2.220000</speed>
</trkpt>
<trkpt lat="33.002834320" lon="35.518138885">
  <ele>564.598633</ele>
  <time>2011-10-15T05:58:49Z</time>
  <speed>1.920000</speed>
</trkpt>
<trkpt lat="33.002803802" lon="35.518123627">
  <ele>565.411133</ele>
  <time>2011-10-15T05:58:51Z</time>
  <speed>1.810000</speed>
</trkpt>
<trkpt lat="33.002773285" lon="35.518104553">
  <ele>565.317383</ele>
  <time>2011-10-15T05:58:53Z</time>
  <speed>1.840000</speed>
</trkpt>
<trkpt lat="33.002742767" lon="35.518081665">
  <ele>566.395508</ele>
  <time>2011-10-15T05:58:55Z</time>
  <speed>2.040000</speed>
</trkpt>
<trkpt lat="33.002712250" lon="35.518066406">
  <ele>566.254883</ele>
  <time>2011-10-15T05:58:57Z</time>
  <speed>1.790000</speed>
</trkpt>
<trkpt lat="33.002685547" lon="35.518047333">
  <ele>566.770508</ele>
  <time>2011-10-15T05:58:59Z</time>
  <speed>1.720000</speed>
</trkpt>
<trkpt lat="33.002651215" lon="35.518035889">
  <ele>567.848633</ele>
  <time>2011-10-15T05:59:01Z</time>
  <speed>1.810000</speed>
</trkpt>
<trkpt lat="33.002616882" lon="35.518028259">
  <ele>567.958008</ele>
  <time>2011-10-15T05:59:03Z</time>
  <speed>2.120000</speed>
</trkpt>
<trkpt lat="33.002578735" lon="35.518020630">
  <ele>569.129883</ele>
  <time>2011-10-15T05:59:05Z</time>
  <speed>1.840000</speed>
</trkpt>
<trkpt lat="33.002552032" lon="35.518005371">
  <ele>568.301758</ele>
  <time>2011-10-15T05:59:07Z</time>
  <speed>1.620000</speed>
</trkpt>
<trkpt lat="33.002521515" lon="35.517990112">
  <ele>568.379883</ele>
  <time>2011-10-15T05:59:09Z</time>
  <speed>1.920000</speed>
</trkpt>
<trkpt lat="33.002490997" lon="35.517967224">
  <ele>569.317383</ele>
  <time>2011-10-15T05:59:11Z</time>
  <speed>1.730000</speed>
</trkpt>
<trkpt lat="33.002452850" lon="35.517951965">
  <ele>570.426758</ele>
  <time>2011-10-15T05:59:13Z</time>
  <speed>2.110000</speed>
</trkpt>
<trkpt lat="33.002418518" lon="35.517929077">
  <ele>571.098633</ele>
  <time>2011-10-15T05:59:15Z</time>
  <speed>2.040000</speed>
</trkpt>
<trkpt lat="33.002380371" lon="35.517913818">
  <ele>571.989258</ele>
  <time>2011-10-15T05:59:17Z</time>
  <speed>2.070000</speed>
</trkpt>
<trkpt lat="33.002349854" lon="35.517898560">
  <ele>571.911133</ele>
  <time>2011-10-15T05:59:19Z</time>
  <speed>2.130000</speed>
</trkpt>
<trkpt lat="33.002319336" lon="35.517883301">
  <ele>572.254883</ele>
  <time>2011-10-15T05:59:21Z</time>
  <speed>2.200000</speed>
</trkpt>
<trkpt lat="33.002285004" lon="35.517852783">
  <ele>571.004883</ele>
  <time>2011-10-15T05:59:23Z</time>
  <speed>1.950000</speed>
</trkpt>
<trkpt lat="33.002246857" lon="35.517833710">
  <ele>572.114258</ele>
  <time>2011-10-15T05:59:25Z</time>
  <speed>2.410000</speed>
</trkpt>
<trkpt lat="33.002204895" lon="35.517807007">
  <ele>572.317383</ele>
  <time>2011-10-15T05:59:27Z</time>
  <speed>2.180000</speed>
</trkpt>
<trkpt lat="33.002162933" lon="35.517780304">
  <ele>572.458008</ele>
  <time>2011-10-15T05:59:29Z</time>
  <speed>2.300000</speed>
</trkpt>
<trkpt lat="33.002124786" lon="35.517753601">
  <ele>573.270508</ele>
  <time>2011-10-15T05:59:31Z</time>
  <speed>2.000000</speed>
</trkpt>
<trkpt lat="33.002094269" lon="35.517730713">
  <ele>574.176758</ele>
  <time>2011-10-15T05:59:33Z</time>
  <speed>2.090000</speed>
</trkpt>
<trkpt lat="33.002059937" lon="35.517707825">
  <ele>574.942383</ele>
  <time>2011-10-15T05:59:35Z</time>
  <speed>2.120000</speed>
</trkpt>
<trkpt lat="33.002017975" lon="35.517692566">
  <ele>576.176758</ele>
  <time>2011-10-15T05:59:37Z</time>
  <speed>2.250000</speed>
</trkpt>
<trkpt lat="33.001976013" lon="35.517665863">
  <ele>576.786133</ele>
  <time>2011-10-15T05:59:39Z</time>
  <speed>1.970000</speed>
</trkpt>
<trkpt lat="33.001937866" lon="35.517635345">
  <ele>577.473633</ele>
  <time>2011-10-15T05:59:41Z</time>
  <speed>1.870000</speed>
</trkpt>
<trkpt lat="33.001895905" lon="35.517608643">
  <ele>578.067383</ele>
  <time>2011-10-15T05:59:43Z</time>
  <speed>2.280000</speed>
</trkpt>
<trkpt lat="33.001850128" lon="35.517581940">
  <ele>579.067383</ele>
  <time>2011-10-15T05:59:45Z</time>
  <speed>2.150000</speed>
</trkpt>
<trkpt lat="33.001819611" lon="35.517555237">
  <ele>580.004883</ele>
  <time>2011-10-15T05:59:47Z</time>
  <speed>1.990000</speed>
</trkpt>
<trkpt lat="33.001777649" lon="35.517536163">
  <ele>579.598633</ele>
  <time>2011-10-15T05:59:49Z</time>
  <speed>2.240000</speed>
</trkpt>
<trkpt lat="33.001747131" lon="35.517509460">
  <ele>579.864258</ele>
  <time>2011-10-15T05:59:51Z</time>
  <speed>1.540000</speed>
</trkpt>
<trkpt lat="33.001724243" lon="35.517475128">
  <ele>579.895508</ele>
  <time>2011-10-15T05:59:54Z</time>
  <speed>1.520000</speed>
</trkpt>
<trkpt lat="33.001701355" lon="35.517444611">
  <ele>579.817383</ele>
  <time>2011-10-15T05:59:56Z</time>
  <speed>1.590000</speed>
</trkpt>
<trkpt lat="33.001678467" lon="35.517417908">
  <ele>581.520508</ele>
  <time>2011-10-15T05:59:58Z</time>
  <speed>1.620000</speed>
</trkpt>
<trkpt lat="33.001667023" lon="35.517391205">
  <ele>581.958008</ele>
  <time>2011-10-15T06:00:00Z</time>
  <speed>1.630000</speed>
</trkpt>
<trkpt lat="33.001647949" lon="35.517356873">
  <ele>582.364258</ele>
  <time>2011-10-15T06:00:02Z</time>
  <speed>1.340000</speed>
</trkpt>
<trkpt lat="33.001636505" lon="35.517330170">
  <ele>582.723633</ele>
  <time>2011-10-15T06:00:04Z</time>
  <speed>1.570000</speed>
</trkpt>
<trkpt lat="33.001625061" lon="35.517299652">
  <ele>583.567383</ele>
  <time>2011-10-15T06:00:06Z</time>
  <speed>1.180000</speed>
</trkpt>
<trkpt lat="33.001609802" lon="35.517272949">
  <ele>584.333008</ele>
  <time>2011-10-15T06:00:08Z</time>
  <speed>1.190000</speed>
</trkpt>
<trkpt lat="33.001594543" lon="35.517238617">
  <ele>584.833008</ele>
  <time>2011-10-15T06:00:10Z</time>
  <speed>1.590000</speed>
</trkpt>
<trkpt lat="33.001583099" lon="35.517208099">
  <ele>585.723633</ele>
  <time>2011-10-15T06:00:12Z</time>
  <speed>1.390000</speed>
</trkpt>
<trkpt lat="33.001560211" lon="35.517185211">
  <ele>586.629883</ele>
  <time>2011-10-15T06:00:14Z</time>
  <speed>1.330000</speed>
</trkpt>
<trkpt lat="33.001544952" lon="35.517154694">
  <ele>586.895508</ele>
  <time>2011-10-15T06:00:16Z</time>
  <speed>1.110000</speed>
</trkpt>
<trkpt lat="33.001529694" lon="35.517116547">
  <ele>587.051758</ele>
  <time>2011-10-15T06:00:18Z</time>
  <speed>1.700000</speed>
</trkpt>
<trkpt lat="33.001510620" lon="35.517066956">
  <ele>587.442383</ele>
  <time>2011-10-15T06:00:20Z</time>
  <speed>1.710000</speed>
</trkpt>
<trkpt lat="33.001491547" lon="35.517036438">
  <ele>587.473633</ele>
  <time>2011-10-15T06:00:22Z</time>
  <speed>1.550000</speed>
</trkpt>
<trkpt lat="33.001472473" lon="35.517005920">
  <ele>586.801758</ele>
  <time>2011-10-15T06:00:24Z</time>
  <speed>1.590000</speed>
</trkpt>
<trkpt lat="33.001453400" lon="35.516967773">
  <ele>586.567383</ele>
  <time>2011-10-15T06:00:26Z</time>
  <speed>1.710000</speed>
</trkpt>
<trkpt lat="33.001426697" lon="35.516921997">
  <ele>586.333008</ele>
  <time>2011-10-15T06:00:28Z</time>
  <speed>1.750000</speed>
</trkpt>
<trkpt lat="33.001403809" lon="35.516891479">
  <ele>585.645508</ele>
  <time>2011-10-15T06:00:30Z</time>
  <speed>1.790000</speed>
</trkpt>
<trkpt lat="33.001380920" lon="35.516868591">
  <ele>586.114258</ele>
  <time>2011-10-15T06:00:32Z</time>
  <speed>1.740000</speed>
</trkpt>
<trkpt lat="33.001350403" lon="35.516849518">
  <ele>586.536133</ele>
  <time>2011-10-15T06:00:34Z</time>
  <speed>1.660000</speed>
</trkpt>
<trkpt lat="33.001319885" lon="35.516830444">
  <ele>586.833008</ele>
  <time>2011-10-15T06:00:36Z</time>
  <speed>1.820000</speed>
</trkpt>
<trkpt lat="33.001293182" lon="35.516803741">
  <ele>586.739258</ele>
  <time>2011-10-15T06:00:38Z</time>
  <speed>2.020000</speed>
</trkpt>
<trkpt lat="33.001266479" lon="35.516780853">
  <ele>586.911133</ele>
  <time>2011-10-15T06:00:40Z</time>
  <speed>1.680000</speed>
</trkpt>
<trkpt lat="33.001228333" lon="35.516773224">
  <ele>587.145508</ele>
  <time>2011-10-15T06:00:42Z</time>
  <speed>2.060000</speed>
</trkpt>
<trkpt lat="33.001190186" lon="35.516754150">
  <ele>587.223633</ele>
  <time>2011-10-15T06:00:44Z</time>
  <speed>1.890000</speed>
</trkpt>
<trkpt lat="33.001155853" lon="35.516731262">
  <ele>585.817383</ele>
  <time>2011-10-15T06:00:46Z</time>
  <speed>1.980000</speed>
</trkpt>
<trkpt lat="33.001125336" lon="35.516700745">
  <ele>585.583008</ele>
  <time>2011-10-15T06:00:48Z</time>
  <speed>1.920000</speed>
</trkpt>
<trkpt lat="33.001098633" lon="35.516681671">
  <ele>585.801758</ele>
  <time>2011-10-15T06:00:50Z</time>
  <speed>1.810000</speed>
</trkpt>
<trkpt lat="33.001079559" lon="35.516658783">
  <ele>585.989258</ele>
  <time>2011-10-15T06:00:52Z</time>
  <speed>1.920000</speed>
</trkpt>
<trkpt lat="33.001056671" lon="35.516628265">
  <ele>585.520508</ele>
  <time>2011-10-15T06:00:54Z</time>
  <speed>1.680000</speed>
</trkpt>
<trkpt lat="33.001045227" lon="35.516601563">
  <ele>586.067383</ele>
  <time>2011-10-15T06:00:56Z</time>
  <speed>1.700000</speed>
</trkpt>
<trkpt lat="33.001022339" lon="35.516567230">
  <ele>586.692383</ele>
  <time>2011-10-15T06:00:59Z</time>
  <speed>1.100000</speed>
</trkpt>
<trkpt lat="33.001007080" lon="35.516525269">
  <ele>587.083008</ele>
  <time>2011-10-15T06:01:02Z</time>
  <speed>1.300000</speed>
</trkpt>
<trkpt lat="33.000984192" lon="35.516494751">
  <ele>587.098633</ele>
  <time>2011-10-15T06:01:04Z</time>
  <speed>1.470000</speed>
</trkpt>
<trkpt lat="33.000957489" lon="35.516460419">
  <ele>587.223633</ele>
  <time>2011-10-15T06:01:06Z</time>
  <speed>1.450000</speed>
</trkpt>
<trkpt lat="33.000934601" lon="35.516429901">
  <ele>586.536133</ele>
  <time>2011-10-15T06:01:08Z</time>
  <speed>1.610000</speed>
</trkpt>
<trkpt lat="33.000915527" lon="35.516391754">
  <ele>585.395508</ele>
  <time>2011-10-15T06:01:10Z</time>
  <speed>2.210000</speed>
</trkpt>
<trkpt lat="33.000881195" lon="35.516357422">
  <ele>585.239258</ele>
  <time>2011-10-15T06:01:12Z</time>
  <speed>2.780000</speed>
</trkpt>
<trkpt lat="33.000854492" lon="35.516342163">
  <ele>584.520508</ele>
  <time>2011-10-15T06:01:13Z</time>
  <speed>2.860000</speed>
</trkpt>
<trkpt lat="33.000831604" lon="35.516315460">
  <ele>584.098633</ele>
  <time>2011-10-15T06:01:14Z</time>
  <speed>2.960000</speed>
</trkpt>
<trkpt lat="33.000812531" lon="35.516269684">
  <ele>583.973633</ele>
  <time>2011-10-15T06:01:15Z</time>
  <speed>3.570000</speed>
</trkpt>
<trkpt lat="33.000789642" lon="35.516223907">
  <ele>584.239258</ele>
  <time>2011-10-15T06:01:16Z</time>
  <speed>3.740000</speed>
</trkpt>
<trkpt lat="33.000766754" lon="35.516197205">
  <ele>583.661133</ele>
  <time>2011-10-15T06:01:17Z</time>
  <speed>3.980000</speed>
</trkpt>
<trkpt lat="33.000743866" lon="35.516162872">
  <ele>583.020508</ele>
  <time>2011-10-15T06:01:18Z</time>
  <speed>4.030000</speed>
</trkpt>
<trkpt lat="33.000720978" lon="35.516132355">
  <ele>583.145508</ele>
  <time>2011-10-15T06:01:19Z</time>
  <speed>3.630000</speed>
</trkpt>
<trkpt lat="33.000701904" lon="35.516105652">
  <ele>582.879883</ele>
  <time>2011-10-15T06:01:20Z</time>
  <speed>3.240000</speed>
</trkpt>
<trkpt lat="33.000679016" lon="35.516082764">
  <ele>582.786133</ele>
  <time>2011-10-15T06:01:21Z</time>
  <speed>2.990000</speed>
</trkpt>
<trkpt lat="33.000671387" lon="35.516010284">
  <ele>583.504883</ele>
  <time>2011-10-15T06:01:23Z</time>
  <speed>2.230000</speed>
</trkpt>
<trkpt lat="33.000679016" lon="35.515964508">
  <ele>583.129883</ele>
  <time>2011-10-15T06:01:25Z</time>
  <speed>2.010000</speed>
</trkpt>
<trkpt lat="33.000698090" lon="35.515918732">
  <ele>582.926758</ele>
  <time>2011-10-15T06:01:27Z</time>
  <speed>2.410000</speed>
</trkpt>
<trkpt lat="33.000736237" lon="35.515899658">
  <ele>582.083008</ele>
  <time>2011-10-15T06:01:29Z</time>
  <speed>1.620000</speed>
</trkpt>
<trkpt lat="33.000766754" lon="35.515876770">
  <ele>581.254883</ele>
  <time>2011-10-15T06:01:31Z</time>
  <speed>1.760000</speed>
</trkpt>
<trkpt lat="33.000804901" lon="35.515857697">
  <ele>580.629883</ele>
  <time>2011-10-15T06:01:33Z</time>
  <speed>1.800000</speed>
</trkpt>
<trkpt lat="33.000839233" lon="35.515838623">
  <ele>581.176758</ele>
  <time>2011-10-15T06:01:36Z</time>
  <speed>1.020000</speed>
</trkpt>
<trkpt lat="33.000873566" lon="35.515838623">
  <ele>581.629883</ele>
  <time>2011-10-15T06:01:38Z</time>
  <speed>1.160000</speed>
</trkpt>
<trkpt lat="33.000911713" lon="35.515830994">
  <ele>581.754883</ele>
  <time>2011-10-15T06:01:41Z</time>
  <speed>1.090000</speed>
</trkpt>
<trkpt lat="33.000946045" lon="35.515811920">
  <ele>582.239258</ele>
  <time>2011-10-15T06:01:43Z</time>
  <speed>1.300000</speed>
</trkpt>
<trkpt lat="33.000980377" lon="35.515808105">
  <ele>582.270508</ele>
  <time>2011-10-15T06:01:45Z</time>
  <speed>1.500000</speed>
</trkpt>
<trkpt lat="33.001018524" lon="35.515808105">
  <ele>581.973633</ele>
  <time>2011-10-15T06:01:47Z</time>
  <speed>1.370000</speed>
</trkpt>
<trkpt lat="33.001052856" lon="35.515792847">
  <ele>581.723633</ele>
  <time>2011-10-15T06:01:48Z</time>
  <speed>1.760000</speed>
</trkpt>
<trkpt lat="33.001098633" lon="35.515789032">
  <ele>581.958008</ele>
  <time>2011-10-15T06:01:49Z</time>
  <speed>1.880000</speed>
</trkpt>
<trkpt lat="33.001148224" lon="35.515789032">
  <ele>582.411133</ele>
  <time>2011-10-15T06:01:51Z</time>
  <speed>2.050000</speed>
</trkpt>
<trkpt lat="33.001186371" lon="35.515789032">
  <ele>585.567383</ele>
  <time>2011-10-15T06:01:53Z</time>
  <speed>1.400000</speed>
</trkpt>
<trkpt lat="33.001220703" lon="35.515781403">
  <ele>586.629883</ele>
  <time>2011-10-15T06:01:55Z</time>
  <speed>1.540000</speed>
</trkpt>
<trkpt lat="33.001247406" lon="35.515777588">
  <ele>587.676758</ele>
  <time>2011-10-15T06:01:57Z</time>
  <speed>1.630000</speed>
</trkpt>
<trkpt lat="33.001266479" lon="35.515792847">
  <ele>592.786133</ele>
  <time>2011-10-15T06:01:59Z</time>
  <speed>1.160000</speed>
</trkpt>
<trkpt lat="33.001293182" lon="35.515808105">
  <ele>596.629883</ele>
  <time>2011-10-15T06:02:01Z</time>
  <speed>0.820000</speed>
</trkpt>
<trkpt lat="33.001296997" lon="35.515815735">
  <ele>599.770508</ele>
  <time>2011-10-15T06:02:03Z</time>
  <speed>1.280000</speed>
</trkpt>
<trkpt lat="33.001323700" lon="35.515804291">
  <ele>601.364258</ele>
  <time>2011-10-15T06:02:05Z</time>
  <speed>1.370000</speed>
</trkpt>
<trkpt lat="33.001350403" lon="35.515777588">
  <ele>602.801758</ele>
  <time>2011-10-15T06:02:08Z</time>
  <speed>1.550000</speed>
</trkpt>
<trkpt lat="33.001369476" lon="35.515750885">
  <ele>602.911133</ele>
  <time>2011-10-15T06:02:10Z</time>
  <speed>1.770000</speed>
</trkpt>
<trkpt lat="33.001392365" lon="35.515727997">
  <ele>602.520508</ele>
  <time>2011-10-15T06:02:11Z</time>
  <speed>1.610000</speed>
</trkpt>
<trkpt lat="33.001411438" lon="35.515697479">
  <ele>602.364258</ele>
  <time>2011-10-15T06:02:13Z</time>
  <speed>1.450000</speed>
</trkpt>
<trkpt lat="33.001430511" lon="35.515655518">
  <ele>603.364258</ele>
  <time>2011-10-15T06:02:15Z</time>
  <speed>1.510000</speed>
</trkpt>
<trkpt lat="33.001445770" lon="35.515621185">
  <ele>604.754883</ele>
  <time>2011-10-15T06:02:17Z</time>
  <speed>1.900000</speed>
</trkpt>
<trkpt lat="33.001461029" lon="35.515590668">
  <ele>605.067383</ele>
  <time>2011-10-15T06:02:19Z</time>
  <speed>1.670000</speed>
</trkpt>
<trkpt lat="33.001480103" lon="35.515556335">
  <ele>605.161133</ele>
  <time>2011-10-15T06:02:21Z</time>
  <speed>1.350000</speed>
</trkpt>
<trkpt lat="33.001487732" lon="35.515514374">
  <ele>605.926758</ele>
  <time>2011-10-15T06:02:24Z</time>
  <speed>1.140000</speed>
</trkpt>
<trkpt lat="33.001487732" lon="35.515480042">
  <ele>606.161133</ele>
  <time>2011-10-15T06:02:26Z</time>
  <speed>1.370000</speed>
</trkpt>
<trkpt lat="33.001495361" lon="35.515441895">
  <ele>606.489258</ele>
  <time>2011-10-15T06:02:29Z</time>
  <speed>1.080000</speed>
</trkpt>
<trkpt lat="33.001502991" lon="35.515411377">
  <ele>606.708008</ele>
  <time>2011-10-15T06:02:31Z</time>
  <speed>1.620000</speed>
</trkpt>
<trkpt lat="33.001510620" lon="35.515369415">
  <ele>605.442383</ele>
  <time>2011-10-15T06:02:33Z</time>
  <speed>1.330000</speed>
</trkpt>
<trkpt lat="33.001533508" lon="35.515335083">
  <ele>604.333008</ele>
  <time>2011-10-15T06:02:36Z</time>
  <speed>1.290000</speed>
</trkpt>
<trkpt lat="33.001556396" lon="35.515312195">
  <ele>603.536133</ele>
  <time>2011-10-15T06:02:39Z</time>
  <speed>0.780000</speed>
</trkpt>
<trkpt lat="33.001583099" lon="35.515308380">
  <ele>603.004883</ele>
  <time>2011-10-15T06:02:41Z</time>
  <speed>0.960000</speed>
</trkpt>
<trkpt lat="33.001617432" lon="35.515293121">
  <ele>602.958008</ele>
  <time>2011-10-15T06:02:43Z</time>
  <speed>1.430000</speed>
</trkpt>
<trkpt lat="33.001647949" lon="35.515289307">
  <ele>603.051758</ele>
  <time>2011-10-15T06:02:45Z</time>
  <speed>1.370000</speed>
</trkpt>
<trkpt lat="33.001674652" lon="35.515289307">
  <ele>603.036133</ele>
  <time>2011-10-15T06:02:47Z</time>
  <speed>0.960000</speed>
</trkpt>
<trkpt lat="33.001705170" lon="35.515289307">
  <ele>602.926758</ele>
  <time>2011-10-15T06:02:48Z</time>
  <speed>1.330000</speed>
</trkpt>
<trkpt lat="33.001743317" lon="35.515300751">
  <ele>602.848633</ele>
  <time>2011-10-15T06:02:50Z</time>
  <speed>1.240000</speed>
</trkpt>
<trkpt lat="33.001770020" lon="35.515304565">
  <ele>604.239258</ele>
  <time>2011-10-15T06:02:52Z</time>
  <speed>1.120000</speed>
</trkpt>
<trkpt lat="33.001808167" lon="35.515312195">
  <ele>604.911133</ele>
  <time>2011-10-15T06:02:54Z</time>
  <speed>1.370000</speed>
</trkpt>
<trkpt lat="33.001838684" lon="35.515323639">
  <ele>605.661133</ele>
  <time>2011-10-15T06:02:56Z</time>
  <speed>1.500000</speed>
</trkpt>
<trkpt lat="33.001869202" lon="35.515335083">
  <ele>605.754883</ele>
  <time>2011-10-15T06:02:58Z</time>
  <speed>1.290000</speed>
</trkpt>
<trkpt lat="33.001895905" lon="35.515346527">
  <ele>605.770508</ele>
  <time>2011-10-15T06:03:00Z</time>
  <speed>1.420000</speed>
</trkpt>
<trkpt lat="33.001937866" lon="35.515354156">
  <ele>606.129883</ele>
  <time>2011-10-15T06:03:03Z</time>
  <speed>1.360000</speed>
</trkpt>
<trkpt lat="33.001964569" lon="35.515354156">
  <ele>606.567383</ele>
  <time>2011-10-15T06:03:05Z</time>
  <speed>1.430000</speed>
</trkpt>
<trkpt lat="33.002006531" lon="35.515365601">
  <ele>607.379883</ele>
  <time>2011-10-15T06:03:08Z</time>
  <speed>1.610000</speed>
</trkpt>
<trkpt lat="33.002040863" lon="35.515361786">
  <ele>607.833008</ele>
  <time>2011-10-15T06:03:10Z</time>
  <speed>1.370000</speed>
</trkpt>
<trkpt lat="33.002067566" lon="35.515365601">
  <ele>609.051758</ele>
  <time>2011-10-15T06:03:12Z</time>
  <speed>1.420000</speed>
</trkpt>
<trkpt lat="33.002098083" lon="35.515357971">
  <ele>610.317383</ele>
  <time>2011-10-15T06:03:15Z</time>
  <speed>1.380000</speed>
</trkpt>
<trkpt lat="33.002128601" lon="35.515350342">
  <ele>610.426758</ele>
  <time>2011-10-15T06:03:17Z</time>
  <speed>0.970000</speed>
</trkpt>
<trkpt lat="33.002155304" lon="35.515338898">
  <ele>611.536133</ele>
  <time>2011-10-15T06:03:19Z</time>
  <speed>1.180000</speed>
</trkpt>
<trkpt lat="33.002178192" lon="35.515323639">
  <ele>613.129883</ele>
  <time>2011-10-15T06:03:21Z</time>
  <speed>1.460000</speed>
</trkpt>
<trkpt lat="33.002216339" lon="35.515319824">
  <ele>613.817383</ele>
  <time>2011-10-15T06:03:24Z</time>
  <speed>0.950000</speed>
</trkpt>
<trkpt lat="33.002254486" lon="35.515289307">
  <ele>612.583008</ele>
  <time>2011-10-15T06:03:27Z</time>
  <speed>1.160000</speed>
</trkpt>
<trkpt lat="33.002281189" lon="35.515266418">
  <ele>610.676758</ele>
  <time>2011-10-15T06:03:28Z</time>
  <speed>1.370000</speed>
</trkpt>
<trkpt lat="33.002304077" lon="35.515254974">
  <ele>611.911133</ele>
  <time>2011-10-15T06:03:30Z</time>
  <speed>1.560000</speed>
</trkpt>
<trkpt lat="33.002326965" lon="35.515247345">
  <ele>613.536133</ele>
  <time>2011-10-15T06:03:33Z</time>
  <speed>1.510000</speed>
</trkpt>
<trkpt lat="33.002353668" lon="35.515232086">
  <ele>613.395508</ele>
  <time>2011-10-15T06:03:35Z</time>
  <speed>1.840000</speed>
</trkpt>
<trkpt lat="33.002391815" lon="35.515205383">
  <ele>612.661133</ele>
  <time>2011-10-15T06:03:37Z</time>
  <speed>1.600000</speed>
</trkpt>
<trkpt lat="33.002410889" lon="35.515182495">
  <ele>613.051758</ele>
  <time>2011-10-15T06:03:39Z</time>
  <speed>1.780000</speed>
</trkpt>
<trkpt lat="33.002441406" lon="35.515159607">
  <ele>613.614258</ele>
  <time>2011-10-15T06:03:41Z</time>
  <speed>1.760000</speed>
</trkpt>
<trkpt lat="33.002468109" lon="35.515129089">
  <ele>612.614258</ele>
  <time>2011-10-15T06:03:44Z</time>
  <speed>1.750000</speed>
</trkpt>
<trkpt lat="33.002483368" lon="35.515102386">
  <ele>614.223633</ele>
  <time>2011-10-15T06:03:46Z</time>
  <speed>1.570000</speed>
</trkpt>
<trkpt lat="33.002513885" lon="35.515075684">
  <ele>614.598633</ele>
  <time>2011-10-15T06:03:49Z</time>
  <speed>1.390000</speed>
</trkpt>
<trkpt lat="33.002525330" lon="35.515041351">
  <ele>615.379883</ele>
  <time>2011-10-15T06:03:51Z</time>
  <speed>1.350000</speed>
</trkpt>
<trkpt lat="33.002544403" lon="35.515018463">
  <ele>615.083008</ele>
  <time>2011-10-15T06:03:53Z</time>
  <speed>1.010000</speed>
</trkpt>
<trkpt lat="33.002574921" lon="35.515018463">
  <ele>614.723633</ele>
  <time>2011-10-15T06:03:55Z</time>
  <speed>1.330000</speed>
</trkpt>
<trkpt lat="33.002590179" lon="35.514991760">
  <ele>615.254883</ele>
  <time>2011-10-15T06:03:57Z</time>
  <speed>1.420000</speed>
</trkpt>
<trkpt lat="33.002620697" lon="35.514984131">
  <ele>615.551758</ele>
  <time>2011-10-15T06:03:59Z</time>
  <speed>1.600000</speed>
</trkpt>
<trkpt lat="33.002651215" lon="35.514972687">
  <ele>615.145508</ele>
  <time>2011-10-15T06:04:01Z</time>
  <speed>1.290000</speed>
</trkpt>
<trkpt lat="33.002681732" lon="35.514949799">
  <ele>616.317383</ele>
  <time>2011-10-15T06:04:04Z</time>
  <speed>1.370000</speed>
</trkpt>
<trkpt lat="33.002708435" lon="35.514934540">
  <ele>616.786133</ele>
  <time>2011-10-15T06:04:06Z</time>
  <speed>1.470000</speed>
</trkpt>
<trkpt lat="33.002742767" lon="35.514919281">
  <ele>616.348633</ele>
  <time>2011-10-15T06:04:08Z</time>
  <speed>1.510000</speed>
</trkpt>
<trkpt lat="33.002769470" lon="35.514904022">
  <ele>615.551758</ele>
  <time>2011-10-15T06:04:10Z</time>
  <speed>1.350000</speed>
</trkpt>
<trkpt lat="33.002803802" lon="35.514884949">
  <ele>614.567383</ele>
  <time>2011-10-15T06:04:12Z</time>
  <speed>1.430000</speed>
</trkpt>
<trkpt lat="33.002845764" lon="35.514869690">
  <ele>614.911133</ele>
  <time>2011-10-15T06:04:15Z</time>
  <speed>1.560000</speed>
</trkpt>
<trkpt lat="33.002876282" lon="35.514850616">
  <ele>616.176758</ele>
  <time>2011-10-15T06:04:18Z</time>
  <speed>1.650000</speed>
</trkpt>
<trkpt lat="33.002906799" lon="35.514827728">
  <ele>617.473633</ele>
  <time>2011-10-15T06:04:21Z</time>
  <speed>1.200000</speed>
</trkpt>
<trkpt lat="33.002941132" lon="35.514820099">
  <ele>618.161133</ele>
  <time>2011-10-15T06:04:24Z</time>
  <speed>1.120000</speed>
</trkpt>
<trkpt lat="33.002971649" lon="35.514804840">
  <ele>619.458008</ele>
  <time>2011-10-15T06:04:27Z</time>
  <speed>1.280000</speed>
</trkpt>
<trkpt lat="33.003002167" lon="35.514785767">
  <ele>620.942383</ele>
  <time>2011-10-15T06:04:31Z</time>
  <speed>0.930000</speed>
</trkpt>
<trkpt lat="33.003040314" lon="35.514759064">
  <ele>621.192383</ele>
  <time>2011-10-15T06:04:34Z</time>
  <speed>1.420000</speed>
</trkpt>
<trkpt lat="33.003078461" lon="35.514739990">
  <ele>622.473633</ele>
  <time>2011-10-15T06:04:37Z</time>
  <speed>1.490000</speed>
</trkpt>
<trkpt lat="33.003105164" lon="35.514720917">
  <ele>621.770508</ele>
  <time>2011-10-15T06:04:39Z</time>
  <speed>1.100000</speed>
</trkpt>
<trkpt lat="33.003128052" lon="35.514694214">
  <ele>621.708008</ele>
  <time>2011-10-15T06:04:41Z</time>
  <speed>1.210000</speed>
</trkpt>
<trkpt lat="33.003150940" lon="35.514675140">
  <ele>622.176758</ele>
  <time>2011-10-15T06:04:43Z</time>
  <speed>1.330000</speed>
</trkpt>
<trkpt lat="33.003166199" lon="35.514648438">
  <ele>623.176758</ele>
  <time>2011-10-15T06:04:45Z</time>
  <speed>1.180000</speed>
</trkpt>
<trkpt lat="33.003189087" lon="35.514633179">
  <ele>623.567383</ele>
  <time>2011-10-15T06:04:47Z</time>
  <speed>1.060000</speed>
</trkpt>
<trkpt lat="33.003208160" lon="35.514602661">
  <ele>624.379883</ele>
  <time>2011-10-15T06:04:50Z</time>
  <speed>1.070000</speed>
</trkpt>
<trkpt lat="33.003223419" lon="35.514579773">
  <ele>625.567383</ele>
  <time>2011-10-15T06:04:52Z</time>
  <speed>1.080000</speed>
</trkpt>
<trkpt lat="33.003250122" lon="35.514564514">
  <ele>625.895508</ele>
  <time>2011-10-15T06:04:54Z</time>
  <speed>0.790000</speed>
</trkpt>
<trkpt lat="33.003276825" lon="35.514537811">
  <ele>627.020508</ele>
  <time>2011-10-15T06:04:57Z</time>
  <speed>1.260000</speed>
</trkpt>
<trkpt lat="33.003307343" lon="35.514514923">
  <ele>627.911133</ele>
  <time>2011-10-15T06:05:00Z</time>
  <speed>1.150000</speed>
</trkpt>
<trkpt lat="33.003334045" lon="35.514484406">
  <ele>628.395508</ele>
  <time>2011-10-15T06:05:02Z</time>
  <speed>1.450000</speed>
</trkpt>
<trkpt lat="33.003368378" lon="35.514503479">
  <ele>627.926758</ele>
  <time>2011-10-15T06:05:04Z</time>
  <speed>0.890000</speed>
</trkpt>
<trkpt lat="33.003395081" lon="35.514511108">
  <ele>628.458008</ele>
  <time>2011-10-15T06:05:07Z</time>
  <speed>0.660000</speed>
</trkpt>
<trkpt lat="33.003425598" lon="35.514511108">
  <ele>630.020508</ele>
  <time>2011-10-15T06:05:10Z</time>
  <speed>0.980000</speed>
</trkpt>
<trkpt lat="33.003452301" lon="35.514514923">
  <ele>630.692383</ele>
  <time>2011-10-15T06:05:12Z</time>
  <speed>1.050000</speed>
</trkpt>
<trkpt lat="33.003490448" lon="35.514522552">
  <ele>631.426758</ele>
  <time>2011-10-15T06:05:15Z</time>
  <speed>1.210000</speed>
</trkpt>
<trkpt lat="33.003520966" lon="35.514530182">
  <ele>631.286133</ele>
  <time>2011-10-15T06:05:17Z</time>
  <speed>1.270000</speed>
</trkpt>
<trkpt lat="33.003559113" lon="35.514545441">
  <ele>630.723633</ele>
  <time>2011-10-15T06:05:19Z</time>
  <speed>1.310000</speed>
</trkpt>
<trkpt lat="33.003585815" lon="35.514553070">
  <ele>630.223633</ele>
  <time>2011-10-15T06:05:21Z</time>
  <speed>1.540000</speed>
</trkpt>
<trkpt lat="33.003620148" lon="35.514579773">
  <ele>630.270508</ele>
  <time>2011-10-15T06:05:23Z</time>
  <speed>1.460000</speed>
</trkpt>
<trkpt lat="33.003646851" lon="35.514595032">
  <ele>631.536133</ele>
  <time>2011-10-15T06:05:25Z</time>
  <speed>1.040000</speed>
</trkpt>
<trkpt lat="33.003681183" lon="35.514595032">
  <ele>630.801758</ele>
  <time>2011-10-15T06:05:27Z</time>
  <speed>1.470000</speed>
</trkpt>
<trkpt lat="33.003715515" lon="35.514614105">
  <ele>631.895508</ele>
  <time>2011-10-15T06:05:30Z</time>
  <speed>1.190000</speed>
</trkpt>
<trkpt lat="33.003749847" lon="35.514644623">
  <ele>632.614258</ele>
  <time>2011-10-15T06:05:33Z</time>
  <speed>1.500000</speed>
</trkpt>
<trkpt lat="33.003784180" lon="35.514652252">
  <ele>633.223633</ele>
  <time>2011-10-15T06:05:36Z</time>
  <speed>1.580000</speed>
</trkpt>
<trkpt lat="33.003810883" lon="35.514686584">
  <ele>633.004883</ele>
  <time>2011-10-15T06:05:38Z</time>
  <speed>2.130000</speed>
</trkpt>
<trkpt lat="33.003845215" lon="35.514709473">
  <ele>633.223633</ele>
  <time>2011-10-15T06:05:40Z</time>
  <speed>1.950000</speed>
</trkpt>
<trkpt lat="33.003875732" lon="35.514739990">
  <ele>632.520508</ele>
  <time>2011-10-15T06:05:42Z</time>
  <speed>1.940000</speed>
</trkpt>
<trkpt lat="33.003906250" lon="35.514739990">
  <ele>632.145508</ele>
  <time>2011-10-15T06:05:44Z</time>
  <speed>0.370000</speed>
</trkpt>
<trkpt lat="33.003929138" lon="35.514732361">
  <ele>633.833008</ele>
  <time>2011-10-15T06:06:03Z</time>
</trkpt>
<trkpt lat="33.003932953" lon="35.514759064">
  <ele>632.926758</ele>
  <time>2011-10-15T06:06:17Z</time>
  <speed>0.020000</speed>
</trkpt>
<trkpt lat="33.003971100" lon="35.514778137">
  <ele>632.536133</ele>
  <time>2011-10-15T06:12:33Z</time>
  <speed>1.630000</speed>
</trkpt>
<trkpt lat="33.004009247" lon="35.514797211">
  <ele>632.239258</ele>
  <time>2011-10-15T06:12:36Z</time>
  <speed>1.340000</speed>
</trkpt>
<trkpt lat="33.004039764" lon="35.514793396">
  <ele>632.661133</ele>
  <time>2011-10-15T06:12:38Z</time>
  <speed>1.740000</speed>
</trkpt>
<trkpt lat="33.004081726" lon="35.514781952">
  <ele>633.254883</ele>
  <time>2011-10-15T06:12:40Z</time>
  <speed>2.480000</speed>
</trkpt>
<trkpt lat="33.004127502" lon="35.514751434">
  <ele>633.801758</ele>
  <time>2011-10-15T06:12:42Z</time>
  <speed>2.960000</speed>
</trkpt>
<trkpt lat="33.004173279" lon="35.514728546">
  <ele>634.833008</ele>
  <time>2011-10-15T06:12:44Z</time>
  <speed>2.460000</speed>
</trkpt>
<trkpt lat="33.004215240" lon="35.514705658">
  <ele>635.254883</ele>
  <time>2011-10-15T06:12:46Z</time>
  <speed>2.280000</speed>
</trkpt>
<trkpt lat="33.004249573" lon="35.514701843">
  <ele>635.583008</ele>
  <time>2011-10-15T06:12:48Z</time>
  <speed>1.600000</speed>
</trkpt>
<trkpt lat="33.004291534" lon="35.514686584">
  <ele>636.348633</ele>
  <time>2011-10-15T06:12:51Z</time>
  <speed>1.980000</speed>
</trkpt>
<trkpt lat="33.004314423" lon="35.514675140">
  <ele>635.004883</ele>
  <time>2011-10-15T06:12:52Z</time>
  <speed>2.250000</speed>
</trkpt>
<trkpt lat="33.004356384" lon="35.514663696">
  <ele>635.364258</ele>
  <time>2011-10-15T06:12:54Z</time>
  <speed>2.330000</speed>
</trkpt>
<trkpt lat="33.004390717" lon="35.514640808">
  <ele>635.973633</ele>
  <time>2011-10-15T06:12:56Z</time>
  <speed>1.940000</speed>
</trkpt>
<trkpt lat="33.004409790" lon="35.514610291">
  <ele>636.004883</ele>
  <time>2011-10-15T06:12:58Z</time>
  <speed>1.620000</speed>
</trkpt>
<trkpt lat="33.004444122" lon="35.514579773">
  <ele>635.676758</ele>
  <time>2011-10-15T06:13:00Z</time>
  <speed>2.160000</speed>
</trkpt>
<trkpt lat="33.004463196" lon="35.514556885">
  <ele>635.223633</ele>
  <time>2011-10-15T06:13:01Z</time>
  <speed>2.540000</speed>
</trkpt>
<trkpt lat="33.004489899" lon="35.514545441">
  <ele>636.301758</ele>
  <time>2011-10-15T06:13:02Z</time>
  <speed>2.010000</speed>
</trkpt>
<trkpt lat="33.004516602" lon="35.514537811">
  <ele>638.098633</ele>
  <time>2011-10-15T06:13:04Z</time>
  <speed>1.360000</speed>
</trkpt>
<trkpt lat="33.004535675" lon="35.514511108">
  <ele>638.208008</ele>
  <time>2011-10-15T06:13:06Z</time>
  <speed>1.420000</speed>
</trkpt>
<trkpt lat="33.004577637" lon="35.514492035">
  <ele>638.551758</ele>
  <time>2011-10-15T06:13:08Z</time>
  <speed>1.770000</speed>
</trkpt>
<trkpt lat="33.004604340" lon="35.514469147">
  <ele>638.254883</ele>
  <time>2011-10-15T06:13:10Z</time>
  <speed>1.760000</speed>
</trkpt>
<trkpt lat="33.004642487" lon="35.514461517">
  <ele>639.051758</ele>
  <time>2011-10-15T06:13:12Z</time>
  <speed>1.610000</speed>
</trkpt>
<trkpt lat="33.004669189" lon="35.514446259">
  <ele>638.817383</ele>
  <time>2011-10-15T06:13:14Z</time>
  <speed>1.270000</speed>
</trkpt>
<trkpt lat="33.004707336" lon="35.514419556">
  <ele>638.661133</ele>
  <time>2011-10-15T06:13:17Z</time>
  <speed>2.010000</speed>
</trkpt>
<trkpt lat="33.004749298" lon="35.514411926">
  <ele>638.489258</ele>
  <time>2011-10-15T06:13:19Z</time>
  <speed>1.890000</speed>
</trkpt>
<trkpt lat="33.004806519" lon="35.514404297">
  <ele>639.442383</ele>
  <time>2011-10-15T06:13:21Z</time>
  <speed>3.060000</speed>
</trkpt>
<trkpt lat="33.004833221" lon="35.514400482">
  <ele>639.739258</ele>
  <time>2011-10-15T06:13:22Z</time>
  <speed>3.080000</speed>
</trkpt>
<trkpt lat="33.004867554" lon="35.514392853">
  <ele>640.083008</ele>
  <time>2011-10-15T06:13:23Z</time>
  <speed>2.530000</speed>
</trkpt>
<trkpt lat="33.004917145" lon="35.514389038">
  <ele>641.442383</ele>
  <time>2011-10-15T06:13:25Z</time>
  <speed>2.850000</speed>
</trkpt>
<trkpt lat="33.004947662" lon="35.514389038">
  <ele>641.661133</ele>
  <time>2011-10-15T06:13:26Z</time>
  <speed>2.800000</speed>
</trkpt>
<trkpt lat="33.004978180" lon="35.514385223">
  <ele>641.958008</ele>
  <time>2011-10-15T06:13:27Z</time>
  <speed>2.460000</speed>
</trkpt>
<trkpt lat="33.005027771" lon="35.514400482">
  <ele>642.036133</ele>
  <time>2011-10-15T06:13:29Z</time>
  <speed>2.840000</speed>
</trkpt>
<trkpt lat="33.005062103" lon="35.514400482">
  <ele>641.348633</ele>
  <time>2011-10-15T06:13:30Z</time>
  <speed>3.190000</speed>
</trkpt>
<trkpt lat="33.005092621" lon="35.514400482">
  <ele>641.364258</ele>
  <time>2011-10-15T06:13:31Z</time>
  <speed>2.340000</speed>
</trkpt>
<trkpt lat="33.005138397" lon="35.514423370">
  <ele>641.723633</ele>
  <time>2011-10-15T06:13:33Z</time>
  <speed>2.440000</speed>
</trkpt>
<trkpt lat="33.005168915" lon="35.514431000">
  <ele>642.176758</ele>
  <time>2011-10-15T06:13:34Z</time>
  <speed>3.020000</speed>
</trkpt>
<trkpt lat="33.005226135" lon="35.514450073">
  <ele>641.692383</ele>
  <time>2011-10-15T06:13:36Z</time>
  <speed>2.990000</speed>
</trkpt>
<trkpt lat="33.005275726" lon="35.514465332">
  <ele>642.395508</ele>
  <time>2011-10-15T06:13:38Z</time>
  <speed>2.840000</speed>
</trkpt>
<trkpt lat="33.005313873" lon="35.514480591">
  <ele>642.661133</ele>
  <time>2011-10-15T06:13:39Z</time>
  <speed>3.530000</speed>
</trkpt>
<trkpt lat="33.005352020" lon="35.514495850">
  <ele>642.911133</ele>
  <time>2011-10-15T06:13:40Z</time>
  <speed>3.340000</speed>
</trkpt>
<trkpt lat="33.005390167" lon="35.514511108">
  <ele>643.161133</ele>
  <time>2011-10-15T06:13:41Z</time>
  <speed>3.320000</speed>
</trkpt>
<trkpt lat="33.005424500" lon="35.514518738">
  <ele>643.270508</ele>
  <time>2011-10-15T06:13:42Z</time>
  <speed>3.510000</speed>
</trkpt>
<trkpt lat="33.005466461" lon="35.514537811">
  <ele>643.067383</ele>
  <time>2011-10-15T06:13:43Z</time>
  <speed>3.350000</speed>
</trkpt>
<trkpt lat="33.005493164" lon="35.514560699">
  <ele>643.051758</ele>
  <time>2011-10-15T06:13:44Z</time>
  <speed>3.450000</speed>
</trkpt>
<trkpt lat="33.005523682" lon="35.514583588">
  <ele>642.833008</ele>
  <time>2011-10-15T06:13:45Z</time>
  <speed>3.150000</speed>
</trkpt>
<trkpt lat="33.005550385" lon="35.514598846">
  <ele>642.614258</ele>
  <time>2011-10-15T06:13:46Z</time>
  <speed>3.400000</speed>
</trkpt>
<trkpt lat="33.005584717" lon="35.514614105">
  <ele>643.067383</ele>
  <time>2011-10-15T06:13:47Z</time>
  <speed>2.790000</speed>
</trkpt>
<trkpt lat="33.005619049" lon="35.514652252">
  <ele>643.864258</ele>
  <time>2011-10-15T06:13:49Z</time>
  <speed>2.550000</speed>
</trkpt>
<trkpt lat="33.005645752" lon="35.514671326">
  <ele>644.098633</ele>
  <time>2011-10-15T06:13:50Z</time>
  <speed>2.950000</speed>
</trkpt>
<trkpt lat="33.005672455" lon="35.514698029">
  <ele>644.067383</ele>
  <time>2011-10-15T06:13:51Z</time>
  <speed>2.500000</speed>
</trkpt>
<trkpt lat="33.005695343" lon="35.514739990">
  <ele>644.895508</ele>
  <time>2011-10-15T06:13:52Z</time>
  <speed>3.070000</speed>
</trkpt>
<trkpt lat="33.005718231" lon="35.514774323">
  <ele>645.833008</ele>
  <time>2011-10-15T06:13:53Z</time>
  <speed>2.970000</speed>
</trkpt>
<trkpt lat="33.005733490" lon="35.514808655">
  <ele>646.286133</ele>
  <time>2011-10-15T06:13:54Z</time>
  <speed>3.240000</speed>
</trkpt>
<trkpt lat="33.005760193" lon="35.514842987">
  <ele>646.692383</ele>
  <time>2011-10-15T06:13:55Z</time>
  <speed>3.630000</speed>
</trkpt>
<trkpt lat="33.005783081" lon="35.514877319">
  <ele>644.989258</ele>
  <time>2011-10-15T06:13:56Z</time>
  <speed>3.870000</speed>
</trkpt>
<trkpt lat="33.005805969" lon="35.514911652">
  <ele>644.583008</ele>
  <time>2011-10-15T06:13:57Z</time>
  <speed>3.820000</speed>
</trkpt>
<trkpt lat="33.005832672" lon="35.514949799">
  <ele>643.723633</ele>
  <time>2011-10-15T06:13:58Z</time>
  <speed>4.510000</speed>
</trkpt>
<trkpt lat="33.005863190" lon="35.514987946">
  <ele>643.020508</ele>
  <time>2011-10-15T06:13:59Z</time>
  <speed>4.270000</speed>
</trkpt>
<trkpt lat="33.005905151" lon="35.515018463">
  <ele>642.801758</ele>
  <time>2011-10-15T06:14:00Z</time>
  <speed>4.050000</speed>
</trkpt>
<trkpt lat="33.005931854" lon="35.515048981">
  <ele>642.161133</ele>
  <time>2011-10-15T06:14:01Z</time>
  <speed>4.040000</speed>
</trkpt>
<trkpt lat="33.005962372" lon="35.515075684">
  <ele>642.270508</ele>
  <time>2011-10-15T06:14:02Z</time>
  <speed>3.940000</speed>
</trkpt>
<trkpt lat="33.005992889" lon="35.515106201">
  <ele>642.504883</ele>
  <time>2011-10-15T06:14:03Z</time>
  <speed>3.480000</speed>
</trkpt>
<trkpt lat="33.006027222" lon="35.515125275">
  <ele>641.958008</ele>
  <time>2011-10-15T06:14:04Z</time>
  <speed>3.750000</speed>
</trkpt>
<trkpt lat="33.006057739" lon="35.515155792">
  <ele>641.317383</ele>
  <time>2011-10-15T06:14:05Z</time>
  <speed>3.990000</speed>
</trkpt>
<trkpt lat="33.006088257" lon="35.515190125">
  <ele>640.379883</ele>
  <time>2011-10-15T06:14:06Z</time>
  <speed>4.180000</speed>
</trkpt>
<trkpt lat="33.006126404" lon="35.515213013">
  <ele>640.145508</ele>
  <time>2011-10-15T06:14:07Z</time>
  <speed>4.150000</speed>
</trkpt>
<trkpt lat="33.006160736" lon="35.515247345">
  <ele>639.676758</ele>
  <time>2011-10-15T06:14:08Z</time>
  <speed>4.740000</speed>
</trkpt>
<trkpt lat="33.006195068" lon="35.515285492">
  <ele>639.051758</ele>
  <time>2011-10-15T06:14:09Z</time>
  <speed>5.270000</speed>
</trkpt>
<trkpt lat="33.006240845" lon="35.515323639">
  <ele>638.036133</ele>
  <time>2011-10-15T06:14:10Z</time>
  <speed>5.250000</speed>
</trkpt>
<trkpt lat="33.006278992" lon="35.515361786">
  <ele>637.395508</ele>
  <time>2011-10-15T06:14:11Z</time>
  <speed>5.390000</speed>
</trkpt>
<trkpt lat="33.006313324" lon="35.515403748">
  <ele>637.067383</ele>
  <time>2011-10-15T06:14:12Z</time>
  <speed>5.570000</speed>
</trkpt>
<trkpt lat="33.006340027" lon="35.515445709">
  <ele>636.817383</ele>
  <time>2011-10-15T06:14:13Z</time>
  <speed>5.030000</speed>
</trkpt>
<trkpt lat="33.006370544" lon="35.515495300">
  <ele>635.833008</ele>
  <time>2011-10-15T06:14:14Z</time>
  <speed>5.940000</speed>
</trkpt>
<trkpt lat="33.006408691" lon="35.515548706">
  <ele>634.801758</ele>
  <time>2011-10-15T06:14:15Z</time>
  <speed>5.600000</speed>
</trkpt>
<trkpt lat="33.006439209" lon="35.515590668">
  <ele>634.364258</ele>
  <time>2011-10-15T06:14:16Z</time>
  <speed>4.980000</speed>
</trkpt>
<trkpt lat="33.006481171" lon="35.515628815">
  <ele>633.942383</ele>
  <time>2011-10-15T06:14:17Z</time>
  <speed>5.310000</speed>
</trkpt>
<trkpt lat="33.006523132" lon="35.515659332">
  <ele>633.739258</ele>
  <time>2011-10-15T06:14:18Z</time>
  <speed>4.780000</speed>
</trkpt>
<trkpt lat="33.006572723" lon="35.515686035">
  <ele>633.801758</ele>
  <time>2011-10-15T06:14:19Z</time>
  <speed>5.380000</speed>
</trkpt>
<trkpt lat="33.006622314" lon="35.515705109">
  <ele>633.614258</ele>
  <time>2011-10-15T06:14:20Z</time>
  <speed>5.150000</speed>
</trkpt>
<trkpt lat="33.006675720" lon="35.515720367">
  <ele>633.301758</ele>
  <time>2011-10-15T06:14:21Z</time>
  <speed>6.260000</speed>
</trkpt>
<trkpt lat="33.006729126" lon="35.515731812">
  <ele>633.161133</ele>
  <time>2011-10-15T06:14:22Z</time>
  <speed>6.060000</speed>
</trkpt>
<trkpt lat="33.006786346" lon="35.515750885">
  <ele>632.333008</ele>
  <time>2011-10-15T06:14:23Z</time>
  <speed>5.740000</speed>
</trkpt>
<trkpt lat="33.006839752" lon="35.515762329">
  <ele>632.504883</ele>
  <time>2011-10-15T06:14:24Z</time>
  <speed>5.680000</speed>
</trkpt>
<trkpt lat="33.006889343" lon="35.515777588">
  <ele>631.426758</ele>
  <time>2011-10-15T06:14:25Z</time>
  <speed>5.460000</speed>
</trkpt>
<trkpt lat="33.006942749" lon="35.515789032">
  <ele>631.223633</ele>
  <time>2011-10-15T06:14:26Z</time>
  <speed>5.810000</speed>
</trkpt>
<trkpt lat="33.006999969" lon="35.515804291">
  <ele>631.020508</ele>
  <time>2011-10-15T06:14:27Z</time>
  <speed>6.490000</speed>
</trkpt>
<trkpt lat="33.007057190" lon="35.515815735">
  <ele>630.004883</ele>
  <time>2011-10-15T06:14:28Z</time>
  <speed>6.380000</speed>
</trkpt>
<trkpt lat="33.007110596" lon="35.515815735">
  <ele>629.458008</ele>
  <time>2011-10-15T06:14:29Z</time>
  <speed>6.330000</speed>
</trkpt>
<trkpt lat="33.007160187" lon="35.515811920">
  <ele>629.317383</ele>
  <time>2011-10-15T06:14:30Z</time>
  <speed>5.010000</speed>
</trkpt>
<trkpt lat="33.007209778" lon="35.515800476">
  <ele>628.989258</ele>
  <time>2011-10-15T06:14:31Z</time>
  <speed>4.310000</speed>
</trkpt>
<trkpt lat="33.007251740" lon="35.515781403">
  <ele>628.208008</ele>
  <time>2011-10-15T06:14:32Z</time>
  <speed>3.780000</speed>
</trkpt>
<trkpt lat="33.007289886" lon="35.515762329">
  <ele>627.598633</ele>
  <time>2011-10-15T06:14:33Z</time>
  <speed>4.120000</speed>
</trkpt>
<trkpt lat="33.007324219" lon="35.515747070">
  <ele>627.911133</ele>
  <time>2011-10-15T06:14:34Z</time>
  <speed>4.350000</speed>
</trkpt>
<trkpt lat="33.007362366" lon="35.515739441">
  <ele>628.833008</ele>
  <time>2011-10-15T06:14:35Z</time>
  <speed>3.680000</speed>
</trkpt>
<trkpt lat="33.007400513" lon="35.515743256">
  <ele>629.411133</ele>
  <time>2011-10-15T06:14:36Z</time>
  <speed>3.030000</speed>
</trkpt>
<trkpt lat="33.007431030" lon="35.515724182">
  <ele>629.754883</ele>
  <time>2011-10-15T06:14:38Z</time>
  <speed>0.890000</speed>
</trkpt>
<trkpt lat="33.007457733" lon="35.515716553">
  <ele>630.473633</ele>
  <time>2011-10-15T06:14:47Z</time>
  <speed>1.520000</speed>
</trkpt>
<trkpt lat="33.007472992" lon="35.515693665">
  <ele>631.301758</ele>
  <time>2011-10-15T06:14:48Z</time>
  <speed>1.890000</speed>
</trkpt>
<trkpt lat="33.007514954" lon="35.515674591">
  <ele>631.129883</ele>
  <time>2011-10-15T06:14:50Z</time>
  <speed>2.390000</speed>
</trkpt>
<trkpt lat="33.007553101" lon="35.515659332">
  <ele>630.973633</ele>
  <time>2011-10-15T06:14:51Z</time>
  <speed>3.310000</speed>
</trkpt>
<trkpt lat="33.007591248" lon="35.515647888">
  <ele>631.239258</ele>
  <time>2011-10-15T06:14:52Z</time>
  <speed>3.540000</speed>
</trkpt>
<trkpt lat="33.007625580" lon="35.515640259">
  <ele>631.614258</ele>
  <time>2011-10-15T06:14:53Z</time>
  <speed>3.740000</speed>
</trkpt>
<trkpt lat="33.007667542" lon="35.515621185">
  <ele>631.020508</ele>
  <time>2011-10-15T06:14:54Z</time>
  <speed>3.910000</speed>
</trkpt>
<trkpt lat="33.007701874" lon="35.515605927">
  <ele>631.426758</ele>
  <time>2011-10-15T06:14:55Z</time>
  <speed>3.770000</speed>
</trkpt>
<trkpt lat="33.007736206" lon="35.515583038">
  <ele>631.020508</ele>
  <time>2011-10-15T06:14:56Z</time>
  <speed>3.250000</speed>
</trkpt>
<trkpt lat="33.007759094" lon="35.515567780">
  <ele>631.801758</ele>
  <time>2011-10-15T06:14:57Z</time>
  <speed>2.510000</speed>
</trkpt>
<trkpt lat="33.007785797" lon="35.515522003">
  <ele>631.239258</ele>
  <time>2011-10-15T06:14:59Z</time>
  <speed>3.260000</speed>
</trkpt>
<trkpt lat="33.007801056" lon="35.515491486">
  <ele>631.286133</ele>
  <time>2011-10-15T06:15:00Z</time>
  <speed>3.070000</speed>
</trkpt>
<trkpt lat="33.007808685" lon="35.515438080">
  <ele>631.301758</ele>
  <time>2011-10-15T06:15:02Z</time>
  <speed>2.490000</speed>
</trkpt>
<trkpt lat="33.007804871" lon="35.515380859">
  <ele>630.911133</ele>
  <time>2011-10-15T06:15:04Z</time>
  <speed>3.210000</speed>
</trkpt>
<trkpt lat="33.007816315" lon="35.515316010">
  <ele>630.723633</ele>
  <time>2011-10-15T06:15:06Z</time>
  <speed>3.030000</speed>
</trkpt>
<trkpt lat="33.007820129" lon="35.515285492">
  <ele>630.270508</ele>
  <time>2011-10-15T06:15:07Z</time>
  <speed>3.240000</speed>
</trkpt>
<trkpt lat="33.007816315" lon="35.515251160">
  <ele>629.895508</ele>
  <time>2011-10-15T06:15:08Z</time>
  <speed>2.980000</speed>
</trkpt>
<trkpt lat="33.007808685" lon="35.515213013">
  <ele>629.067383</ele>
  <time>2011-10-15T06:15:09Z</time>
  <speed>3.240000</speed>
</trkpt>
<trkpt lat="33.007797241" lon="35.515174866">
  <ele>628.676758</ele>
  <time>2011-10-15T06:15:10Z</time>
  <speed>3.480000</speed>
</trkpt>
<trkpt lat="33.007793427" lon="35.515136719">
  <ele>627.911133</ele>
  <time>2011-10-15T06:15:11Z</time>
  <speed>3.920000</speed>
</trkpt>
<trkpt lat="33.007778168" lon="35.515094757">
  <ele>627.801758</ele>
  <time>2011-10-15T06:15:12Z</time>
  <speed>3.820000</speed>
</trkpt>
<trkpt lat="33.007762909" lon="35.515052795">
  <ele>627.411133</ele>
  <time>2011-10-15T06:15:13Z</time>
  <speed>3.940000</speed>
</trkpt>
<trkpt lat="33.007743835" lon="35.515010834">
  <ele>627.239258</ele>
  <time>2011-10-15T06:15:14Z</time>
  <speed>3.940000</speed>
</trkpt>
<trkpt lat="33.007724762" lon="35.514976501">
  <ele>627.098633</ele>
  <time>2011-10-15T06:15:15Z</time>
  <speed>3.880000</speed>
</trkpt>
<trkpt lat="33.007698059" lon="35.514945984">
  <ele>626.895508</ele>
  <time>2011-10-15T06:15:16Z</time>
  <speed>3.850000</speed>
</trkpt>
<trkpt lat="33.007663727" lon="35.514907837">
  <ele>626.723633</ele>
  <time>2011-10-15T06:15:17Z</time>
  <speed>4.300000</speed>
</trkpt>
<trkpt lat="33.007629395" lon="35.514881134">
  <ele>626.629883</ele>
  <time>2011-10-15T06:15:18Z</time>
  <speed>4.580000</speed>
</trkpt>
<trkpt lat="33.007602692" lon="35.514846802">
  <ele>626.364258</ele>
  <time>2011-10-15T06:15:19Z</time>
  <speed>4.450000</speed>
</trkpt>
<trkpt lat="33.007575989" lon="35.514812469">
  <ele>626.114258</ele>
  <time>2011-10-15T06:15:20Z</time>
  <speed>4.910000</speed>
</trkpt>
<trkpt lat="33.007545471" lon="35.514778137">
  <ele>625.942383</ele>
  <time>2011-10-15T06:15:21Z</time>
  <speed>5.360000</speed>
</trkpt>
<trkpt lat="33.007507324" lon="35.514736176">
  <ele>625.739258</ele>
  <time>2011-10-15T06:15:22Z</time>
  <speed>5.760000</speed>
</trkpt>
<trkpt lat="33.007472992" lon="35.514690399">
  <ele>625.520508</ele>
  <time>2011-10-15T06:15:23Z</time>
  <speed>5.730000</speed>
</trkpt>
<trkpt lat="33.007438660" lon="35.514648438">
  <ele>625.192383</ele>
  <time>2011-10-15T06:15:24Z</time>
  <speed>5.430000</speed>
</trkpt>
<trkpt lat="33.007404327" lon="35.514606476">
  <ele>624.911133</ele>
  <time>2011-10-15T06:15:25Z</time>
  <speed>5.140000</speed>
</trkpt>
<trkpt lat="33.007373810" lon="35.514568329">
  <ele>624.754883</ele>
  <time>2011-10-15T06:15:26Z</time>
  <speed>4.890000</speed>
</trkpt>
<trkpt lat="33.007350922" lon="35.514530182">
  <ele>624.473633</ele>
  <time>2011-10-15T06:15:27Z</time>
  <speed>4.770000</speed>
</trkpt>
<trkpt lat="33.007331848" lon="35.514480591">
  <ele>624.098633</ele>
  <time>2011-10-15T06:15:28Z</time>
  <speed>4.500000</speed>
</trkpt>
<trkpt lat="33.007316589" lon="35.514442444">
  <ele>623.817383</ele>
  <time>2011-10-15T06:15:29Z</time>
  <speed>4.070000</speed>
</trkpt>
<trkpt lat="33.007297516" lon="35.514400482">
  <ele>623.614258</ele>
  <time>2011-10-15T06:15:30Z</time>
  <speed>3.800000</speed>
</trkpt>
<trkpt lat="33.007282257" lon="35.514366150">
  <ele>623.286133</ele>
  <time>2011-10-15T06:15:31Z</time>
  <speed>3.450000</speed>
</trkpt>
<trkpt lat="33.007266998" lon="35.514328003">
  <ele>623.083008</ele>
  <time>2011-10-15T06:15:32Z</time>
  <speed>3.590000</speed>
</trkpt>
<trkpt lat="33.007251740" lon="35.514293671">
  <ele>622.942383</ele>
  <time>2011-10-15T06:15:33Z</time>
  <speed>3.550000</speed>
</trkpt>
<trkpt lat="33.007232666" lon="35.514263153">
  <ele>622.645508</ele>
  <time>2011-10-15T06:15:34Z</time>
  <speed>3.350000</speed>
</trkpt>
<trkpt lat="33.007221222" lon="35.514228821">
  <ele>622.379883</ele>
  <time>2011-10-15T06:15:35Z</time>
  <speed>3.590000</speed>
</trkpt>
<trkpt lat="33.007209778" lon="35.514186859">
  <ele>621.614258</ele>
  <time>2011-10-15T06:15:36Z</time>
  <speed>4.080000</speed>
</trkpt>
<trkpt lat="33.007194519" lon="35.514144897">
  <ele>621.067383</ele>
  <time>2011-10-15T06:15:37Z</time>
  <speed>4.230000</speed>
</trkpt>
<trkpt lat="33.007152557" lon="35.514099121">
  <ele>620.489258</ele>
  <time>2011-10-15T06:15:38Z</time>
  <speed>4.160000</speed>
</trkpt>
<trkpt lat="33.007133484" lon="35.514053345">
  <ele>620.098633</ele>
  <time>2011-10-15T06:15:39Z</time>
  <speed>4.410000</speed>
</trkpt>
<trkpt lat="33.007110596" lon="35.514007568">
  <ele>619.458008</ele>
  <time>2011-10-15T06:15:40Z</time>
  <speed>4.490000</speed>
</trkpt>
<trkpt lat="33.007083893" lon="35.513969421">
  <ele>618.973633</ele>
  <time>2011-10-15T06:15:41Z</time>
  <speed>4.070000</speed>
</trkpt>
<trkpt lat="33.007061005" lon="35.513935089">
  <ele>618.583008</ele>
  <time>2011-10-15T06:15:42Z</time>
  <speed>4.270000</speed>
</trkpt>
<trkpt lat="33.007030487" lon="35.513893127">
  <ele>618.114258</ele>
  <time>2011-10-15T06:15:43Z</time>
  <speed>4.660000</speed>
</trkpt>
<trkpt lat="33.007003784" lon="35.513847351">
  <ele>617.926758</ele>
  <time>2011-10-15T06:15:44Z</time>
  <speed>4.380000</speed>
</trkpt>
<trkpt lat="33.006980896" lon="35.513801575">
  <ele>617.567383</ele>
  <time>2011-10-15T06:15:45Z</time>
  <speed>4.720000</speed>
</trkpt>
<trkpt lat="33.006958008" lon="35.513755798">
  <ele>616.833008</ele>
  <time>2011-10-15T06:15:46Z</time>
  <speed>4.530000</speed>
</trkpt>
<trkpt lat="33.006931305" lon="35.513710022">
  <ele>616.583008</ele>
  <time>2011-10-15T06:15:47Z</time>
  <speed>4.530000</speed>
</trkpt>
<trkpt lat="33.006904602" lon="35.513664246">
  <ele>616.442383</ele>
  <time>2011-10-15T06:15:48Z</time>
  <speed>4.390000</speed>
</trkpt>
<trkpt lat="33.006889343" lon="35.513626099">
  <ele>615.895508</ele>
  <time>2011-10-15T06:15:49Z</time>
  <speed>4.000000</speed>
</trkpt>
<trkpt lat="33.006866455" lon="35.513595581">
  <ele>615.551758</ele>
  <time>2011-10-15T06:15:50Z</time>
  <speed>3.610000</speed>
</trkpt>
<trkpt lat="33.006843567" lon="35.513565063">
  <ele>615.442383</ele>
  <time>2011-10-15T06:15:51Z</time>
  <speed>3.490000</speed>
</trkpt>
<trkpt lat="33.006813049" lon="35.513523102">
  <ele>615.176758</ele>
  <time>2011-10-15T06:15:52Z</time>
  <speed>4.050000</speed>
</trkpt>
<trkpt lat="33.006793976" lon="35.513484955">
  <ele>614.864258</ele>
  <time>2011-10-15T06:15:53Z</time>
  <speed>3.600000</speed>
</trkpt>
<trkpt lat="33.006774902" lon="35.513442993">
  <ele>614.223633</ele>
  <time>2011-10-15T06:15:54Z</time>
  <speed>3.770000</speed>
</trkpt>
<trkpt lat="33.006755829" lon="35.513397217">
  <ele>613.567383</ele>
  <time>2011-10-15T06:15:55Z</time>
  <speed>4.010000</speed>
</trkpt>
<trkpt lat="33.006736755" lon="35.513362885">
  <ele>613.520508</ele>
  <time>2011-10-15T06:15:56Z</time>
  <speed>3.650000</speed>
</trkpt>
<trkpt lat="33.006725311" lon="35.513317108">
  <ele>613.129883</ele>
  <time>2011-10-15T06:15:57Z</time>
  <speed>3.680000</speed>
</trkpt>
<trkpt lat="33.006710052" lon="35.513282776">
  <ele>612.817383</ele>
  <time>2011-10-15T06:15:58Z</time>
  <speed>3.070000</speed>
</trkpt>
<trkpt lat="33.006694794" lon="35.513244629">
  <ele>612.583008</ele>
  <time>2011-10-15T06:15:59Z</time>
  <speed>3.570000</speed>
</trkpt>
<trkpt lat="33.006683350" lon="35.513206482">
  <ele>612.536133</ele>
  <time>2011-10-15T06:16:00Z</time>
  <speed>3.740000</speed>
</trkpt>
<trkpt lat="33.006668091" lon="35.513164520">
  <ele>612.286133</ele>
  <time>2011-10-15T06:16:01Z</time>
  <speed>3.510000</speed>
</trkpt>
<trkpt lat="33.006641388" lon="35.513118744">
  <ele>612.067383</ele>
  <time>2011-10-15T06:16:02Z</time>
  <speed>3.730000</speed>
</trkpt>
<trkpt lat="33.006618500" lon="35.513072968">
  <ele>611.598633</ele>
  <time>2011-10-15T06:16:03Z</time>
  <speed>4.020000</speed>
</trkpt>
<trkpt lat="33.006595612" lon="35.513027191">
  <ele>611.739258</ele>
  <time>2011-10-15T06:16:04Z</time>
  <speed>3.990000</speed>
</trkpt>
<trkpt lat="33.006572723" lon="35.512992859">
  <ele>611.739258</ele>
  <time>2011-10-15T06:16:05Z</time>
  <speed>3.650000</speed>
</trkpt>
<trkpt lat="33.006538391" lon="35.512939453">
  <ele>612.208008</ele>
  <time>2011-10-15T06:16:06Z</time>
  <speed>3.850000</speed>
</trkpt>
<trkpt lat="33.006515503" lon="35.512901306">
  <ele>612.020508</ele>
  <time>2011-10-15T06:16:07Z</time>
  <speed>3.970000</speed>
</trkpt>
<trkpt lat="33.006492615" lon="35.512870789">
  <ele>611.786133</ele>
  <time>2011-10-15T06:16:08Z</time>
  <speed>3.870000</speed>
</trkpt>
<trkpt lat="33.006446838" lon="35.512809753">
  <ele>613.286133</ele>
  <time>2011-10-15T06:16:09Z</time>
  <speed>4.120000</speed>
</trkpt>
<trkpt lat="33.006416321" lon="35.512790680">
  <ele>613.426758</ele>
  <time>2011-10-15T06:16:10Z</time>
  <speed>3.770000</speed>
</trkpt>
<trkpt lat="33.006393433" lon="35.512760162">
  <ele>613.067383</ele>
  <time>2011-10-15T06:16:11Z</time>
  <speed>3.360000</speed>
</trkpt>
<trkpt lat="33.006374359" lon="35.512729645">
  <ele>612.786133</ele>
  <time>2011-10-15T06:16:12Z</time>
  <speed>3.390000</speed>
</trkpt>
<trkpt lat="33.006355286" lon="35.512691498">
  <ele>612.770508</ele>
  <time>2011-10-15T06:16:13Z</time>
  <speed>3.540000</speed>
</trkpt>
<trkpt lat="33.006336212" lon="35.512660980">
  <ele>612.958008</ele>
  <time>2011-10-15T06:16:14Z</time>
  <speed>3.250000</speed>
</trkpt>
<trkpt lat="33.006320953" lon="35.512626648">
  <ele>612.614258</ele>
  <time>2011-10-15T06:16:15Z</time>
  <speed>2.900000</speed>
</trkpt>
<trkpt lat="33.006301880" lon="35.512599945">
  <ele>612.317383</ele>
  <time>2011-10-15T06:16:16Z</time>
  <speed>2.740000</speed>
</trkpt>
<trkpt lat="33.006282806" lon="35.512573242">
  <ele>612.114258</ele>
  <time>2011-10-15T06:16:17Z</time>
  <speed>2.440000</speed>
</trkpt>
<trkpt lat="33.006263733" lon="35.512554169">
  <ele>612.254883</ele>
  <time>2011-10-15T06:16:18Z</time>
  <speed>2.560000</speed>
</trkpt>
<trkpt lat="33.006225586" lon="35.512493134">
  <ele>612.004883</ele>
  <time>2011-10-15T06:16:20Z</time>
  <speed>2.700000</speed>
</trkpt>
<trkpt lat="33.006198883" lon="35.512439728">
  <ele>612.004883</ele>
  <time>2011-10-15T06:16:22Z</time>
  <speed>2.990000</speed>
</trkpt>
<trkpt lat="33.006183624" lon="35.512413025">
  <ele>611.879883</ele>
  <time>2011-10-15T06:16:23Z</time>
  <speed>2.190000</speed>
</trkpt>
<trkpt lat="33.006164551" lon="35.512374878">
  <ele>611.411133</ele>
  <time>2011-10-15T06:16:25Z</time>
  <speed>1.140000</speed>
</trkpt>
<trkpt lat="33.006137848" lon="35.512336731">
  <ele>613.333008</ele>
  <time>2011-10-15T06:16:26Z</time>
  <speed>1.450000</speed>
</trkpt>
<trkpt lat="33.006114960" lon="35.512298584">
  <ele>613.692383</ele>
  <time>2011-10-15T06:16:28Z</time>
  <speed>1.350000</speed>
</trkpt>
<trkpt lat="33.006103516" lon="35.512256622">
  <ele>613.973633</ele>
  <time>2011-10-15T06:16:30Z</time>
  <speed>1.410000</speed>
</trkpt>
<trkpt lat="33.006057739" lon="35.512184143">
  <ele>617.895508</ele>
  <time>2011-10-15T06:16:32Z</time>
  <speed>1.600000</speed>
</trkpt>
<trkpt lat="33.006031036" lon="35.512123108">
  <ele>619.036133</ele>
  <time>2011-10-15T06:16:34Z</time>
  <speed>1.630000</speed>
</trkpt>
<trkpt lat="33.006023407" lon="35.512081146">
  <ele>620.458008</ele>
  <time>2011-10-15T06:16:36Z</time>
  <speed>1.210000</speed>
</trkpt>
<trkpt lat="33.006004333" lon="35.512046814">
  <ele>620.692383</ele>
  <time>2011-10-15T06:16:38Z</time>
  <speed>1.430000</speed>
</trkpt>
<trkpt lat="33.005992889" lon="35.511997223">
  <ele>622.161133</ele>
  <time>2011-10-15T06:16:40Z</time>
  <speed>1.370000</speed>
</trkpt>
<trkpt lat="33.005977631" lon="35.511932373">
  <ele>624.192383</ele>
  <time>2011-10-15T06:16:43Z</time>
  <speed>1.050000</speed>
</trkpt>
<trkpt lat="33.005992889" lon="35.511886597">
  <ele>624.817383</ele>
  <time>2011-10-15T06:16:45Z</time>
  <speed>1.730000</speed>
</trkpt>
<trkpt lat="33.005985260" lon="35.511840820">
  <ele>626.426758</ele>
  <time>2011-10-15T06:16:47Z</time>
  <speed>1.760000</speed>
</trkpt>
<trkpt lat="33.005977631" lon="35.511798859">
  <ele>627.458008</ele>
  <time>2011-10-15T06:16:49Z</time>
  <speed>1.930000</speed>
</trkpt>
<trkpt lat="33.005977631" lon="35.511753082">
  <ele>627.411133</ele>
  <time>2011-10-15T06:16:51Z</time>
  <speed>1.590000</speed>
</trkpt>
<trkpt lat="33.005977631" lon="35.511714935">
  <ele>627.848633</ele>
  <time>2011-10-15T06:16:53Z</time>
  <speed>1.690000</speed>
</trkpt>
<trkpt lat="33.005977631" lon="35.511665344">
  <ele>629.223633</ele>
  <time>2011-10-15T06:16:55Z</time>
  <speed>2.160000</speed>
</trkpt>
<trkpt lat="33.005977631" lon="35.511608124">
  <ele>629.411133</ele>
  <time>2011-10-15T06:16:57Z</time>
  <speed>2.560000</speed>
</trkpt>
<trkpt lat="33.005981445" lon="35.511558533">
  <ele>630.379883</ele>
  <time>2011-10-15T06:16:59Z</time>
  <speed>2.130000</speed>
</trkpt>
<trkpt lat="33.005981445" lon="35.511520386">
  <ele>630.239258</ele>
  <time>2011-10-15T06:17:01Z</time>
  <speed>2.080000</speed>
</trkpt>
<trkpt lat="33.005962372" lon="35.511444092">
  <ele>632.239258</ele>
  <time>2011-10-15T06:17:03Z</time>
  <speed>2.370000</speed>
</trkpt>
<trkpt lat="33.005954742" lon="35.511394501">
  <ele>632.239258</ele>
  <time>2011-10-15T06:17:05Z</time>
  <speed>2.190000</speed>
</trkpt>
<trkpt lat="33.005958557" lon="35.511341095">
  <ele>632.114258</ele>
  <time>2011-10-15T06:17:07Z</time>
  <speed>2.580000</speed>
</trkpt>
<trkpt lat="33.005947113" lon="35.511283875">
  <ele>632.129883</ele>
  <time>2011-10-15T06:17:09Z</time>
  <speed>2.370000</speed>
</trkpt>
<trkpt lat="33.005939484" lon="35.511245728">
  <ele>632.661133</ele>
  <time>2011-10-15T06:17:10Z</time>
  <speed>1.470000</speed>
</trkpt>
<trkpt lat="33.005931854" lon="35.511196136">
  <ele>631.989258</ele>
  <time>2011-10-15T06:17:12Z</time>
  <speed>2.650000</speed>
</trkpt>
<trkpt lat="33.005928040" lon="35.511157990">
  <ele>631.629883</ele>
  <time>2011-10-15T06:17:13Z</time>
  <speed>2.840000</speed>
</trkpt>
<trkpt lat="33.005920410" lon="35.511123657">
  <ele>630.708008</ele>
  <time>2011-10-15T06:17:14Z</time>
  <speed>3.080000</speed>
</trkpt>
<trkpt lat="33.005912781" lon="35.511062622">
  <ele>631.473633</ele>
  <time>2011-10-15T06:17:15Z</time>
  <speed>3.340000</speed>
</trkpt>
<trkpt lat="33.005908966" lon="35.511024475">
  <ele>631.583008</ele>
  <time>2011-10-15T06:17:16Z</time>
  <speed>3.240000</speed>
</trkpt>
<trkpt lat="33.005889893" lon="35.510959625">
  <ele>630.708008</ele>
  <time>2011-10-15T06:17:18Z</time>
  <speed>3.530000</speed>
</trkpt>
<trkpt lat="33.005882263" lon="35.510925293">
  <ele>630.129883</ele>
  <time>2011-10-15T06:17:19Z</time>
  <speed>3.710000</speed>
</trkpt>
<trkpt lat="33.005867004" lon="35.510883331">
  <ele>630.051758</ele>
  <time>2011-10-15T06:17:20Z</time>
  <speed>4.170000</speed>
</trkpt>
<trkpt lat="33.005844116" lon="35.510837555">
  <ele>629.333008</ele>
  <time>2011-10-15T06:17:21Z</time>
  <speed>4.800000</speed>
</trkpt>
<trkpt lat="33.005809784" lon="35.510795593">
  <ele>628.848633</ele>
  <time>2011-10-15T06:17:22Z</time>
  <speed>5.320000</speed>
</trkpt>
<trkpt lat="33.005783081" lon="35.510738373">
  <ele>627.770508</ele>
  <time>2011-10-15T06:17:23Z</time>
  <speed>6.140000</speed>
</trkpt>
<trkpt lat="33.005756378" lon="35.510681152">
  <ele>626.676758</ele>
  <time>2011-10-15T06:17:24Z</time>
  <speed>5.900000</speed>
</trkpt>
<trkpt lat="33.005722046" lon="35.510616302">
  <ele>626.114258</ele>
  <time>2011-10-15T06:17:25Z</time>
  <speed>7.420000</speed>
</trkpt>
<trkpt lat="33.005691528" lon="35.510551453">
  <ele>625.426758</ele>
  <time>2011-10-15T06:17:26Z</time>
  <speed>6.920000</speed>
</trkpt>
<trkpt lat="33.005672455" lon="35.510482788">
  <ele>624.723633</ele>
  <time>2011-10-15T06:17:27Z</time>
  <speed>7.220000</speed>
</trkpt>
<trkpt lat="33.005649567" lon="35.510417938">
  <ele>623.833008</ele>
  <time>2011-10-15T06:17:28Z</time>
  <speed>6.620000</speed>
</trkpt>
<trkpt lat="33.005622864" lon="35.510368347">
  <ele>623.801758</ele>
  <time>2011-10-15T06:17:29Z</time>
  <speed>4.920000</speed>
</trkpt>
<trkpt lat="33.005599976" lon="35.510334015">
  <ele>623.473633</ele>
  <time>2011-10-15T06:17:30Z</time>
  <speed>2.730000</speed>
</trkpt>
<trkpt lat="33.005561829" lon="35.510318756">
  <ele>623.770508</ele>
  <time>2011-10-15T06:17:31Z</time>
  <speed>2.250000</speed>
</trkpt>
<trkpt lat="33.005527496" lon="35.510318756">
  <ele>622.458008</ele>
  <time>2011-10-15T06:17:33Z</time>
  <speed>1.810000</speed>
</trkpt>
<trkpt lat="33.005481720" lon="35.510349274">
  <ele>621.708008</ele>
  <time>2011-10-15T06:17:35Z</time>
  <speed>3.020000</speed>
</trkpt>
<trkpt lat="33.005458832" lon="35.510368347">
  <ele>621.895508</ele>
  <time>2011-10-15T06:17:36Z</time>
  <speed>2.720000</speed>
</trkpt>
<trkpt lat="33.005428314" lon="35.510387421">
  <ele>622.489258</ele>
  <time>2011-10-15T06:17:37Z</time>
  <speed>2.910000</speed>
</trkpt>
<trkpt lat="33.005401611" lon="35.510410309">
  <ele>622.567383</ele>
  <time>2011-10-15T06:17:38Z</time>
  <speed>2.930000</speed>
</trkpt>
<trkpt lat="33.005371094" lon="35.510437012">
  <ele>622.551758</ele>
  <time>2011-10-15T06:17:39Z</time>
  <speed>2.890000</speed>
</trkpt>
<trkpt lat="33.005329132" lon="35.510471344">
  <ele>622.942383</ele>
  <time>2011-10-15T06:17:41Z</time>
  <speed>2.190000</speed>
</trkpt>
<trkpt lat="33.005283356" lon="35.510486603">
  <ele>621.786133</ele>
  <time>2011-10-15T06:17:43Z</time>
  <speed>2.850000</speed>
</trkpt>
<trkpt lat="33.005249023" lon="35.510501862">
  <ele>621.942383</ele>
  <time>2011-10-15T06:17:44Z</time>
  <speed>3.140000</speed>
</trkpt>
<trkpt lat="33.005222321" lon="35.510517120">
  <ele>621.567383</ele>
  <time>2011-10-15T06:17:45Z</time>
  <speed>2.870000</speed>
</trkpt>
<trkpt lat="33.005191803" lon="35.510532379">
  <ele>621.458008</ele>
  <time>2011-10-15T06:17:46Z</time>
  <speed>2.430000</speed>
</trkpt>
<trkpt lat="33.005146027" lon="35.510547638">
  <ele>620.536133</ele>
  <time>2011-10-15T06:17:48Z</time>
  <speed>2.690000</speed>
</trkpt>
<trkpt lat="33.005115509" lon="35.510562897">
  <ele>620.864258</ele>
  <time>2011-10-15T06:17:49Z</time>
  <speed>2.920000</speed>
</trkpt>
<trkpt lat="33.005065918" lon="35.510581970">
  <ele>620.786133</ele>
  <time>2011-10-15T06:17:51Z</time>
  <speed>2.320000</speed>
</trkpt>
<trkpt lat="33.005008698" lon="35.510581970">
  <ele>620.489258</ele>
  <time>2011-10-15T06:17:53Z</time>
  <speed>2.530000</speed>
</trkpt>
<trkpt lat="33.004985809" lon="35.510601044">
  <ele>620.723633</ele>
  <time>2011-10-15T06:17:54Z</time>
  <speed>2.500000</speed>
</trkpt>
<trkpt lat="33.004955292" lon="35.510604858">
  <ele>620.629883</ele>
  <time>2011-10-15T06:17:55Z</time>
  <speed>2.500000</speed>
</trkpt>
<trkpt lat="33.004909515" lon="35.510612488">
  <ele>620.379883</ele>
  <time>2011-10-15T06:17:57Z</time>
  <speed>2.410000</speed>
</trkpt>
<trkpt lat="33.004863739" lon="35.510616302">
  <ele>620.004883</ele>
  <time>2011-10-15T06:17:59Z</time>
  <speed>2.590000</speed>
</trkpt>
<trkpt lat="33.004817963" lon="35.510608673">
  <ele>619.286133</ele>
  <time>2011-10-15T06:18:01Z</time>
  <speed>2.140000</speed>
</trkpt>
<trkpt lat="33.004787445" lon="35.510604858">
  <ele>618.629883</ele>
  <time>2011-10-15T06:18:03Z</time>
  <speed>1.750000</speed>
</trkpt>
<trkpt lat="33.004756927" lon="35.510612488">
  <ele>618.176758</ele>
  <time>2011-10-15T06:18:05Z</time>
  <speed>1.980000</speed>
</trkpt>
<trkpt lat="33.004722595" lon="35.510616302">
  <ele>617.286133</ele>
  <time>2011-10-15T06:18:07Z</time>
  <speed>1.810000</speed>
</trkpt>
<trkpt lat="33.004688263" lon="35.510604858">
  <ele>616.395508</ele>
  <time>2011-10-15T06:18:09Z</time>
  <speed>1.820000</speed>
</trkpt>
<trkpt lat="33.004653931" lon="35.510608673">
  <ele>615.926758</ele>
  <time>2011-10-15T06:18:11Z</time>
  <speed>1.570000</speed>
</trkpt>
<trkpt lat="33.004608154" lon="35.510604858">
  <ele>615.739258</ele>
  <time>2011-10-15T06:18:13Z</time>
  <speed>1.820000</speed>
</trkpt>
<trkpt lat="33.004581451" lon="35.510585785">
  <ele>615.786133</ele>
  <time>2011-10-15T06:18:14Z</time>
  <speed>1.870000</speed>
</trkpt>
<trkpt lat="33.004543304" lon="35.510601044">
  <ele>616.114258</ele>
  <time>2011-10-15T06:18:16Z</time>
  <speed>1.730000</speed>
</trkpt>
<trkpt lat="33.004508972" lon="35.510597229">
  <ele>615.754883</ele>
  <time>2011-10-15T06:18:18Z</time>
  <speed>1.910000</speed>
</trkpt>
<trkpt lat="33.004470825" lon="35.510593414">
  <ele>615.567383</ele>
  <time>2011-10-15T06:18:20Z</time>
  <speed>1.720000</speed>
</trkpt>
<trkpt lat="33.004436493" lon="35.510581970">
  <ele>615.489258</ele>
  <time>2011-10-15T06:18:22Z</time>
  <speed>1.920000</speed>
</trkpt>
<trkpt lat="33.004394531" lon="35.510578156">
  <ele>616.395508</ele>
  <time>2011-10-15T06:18:24Z</time>
  <speed>1.710000</speed>
</trkpt>
<trkpt lat="33.004367828" lon="35.510585785">
  <ele>617.333008</ele>
  <time>2011-10-15T06:18:25Z</time>
  <speed>1.890000</speed>
</trkpt>
<trkpt lat="33.004344940" lon="35.510601044">
  <ele>618.286133</ele>
  <time>2011-10-15T06:18:26Z</time>
  <speed>1.840000</speed>
</trkpt>
<trkpt lat="33.004318237" lon="35.510601044">
  <ele>619.051758</ele>
  <time>2011-10-15T06:18:27Z</time>
  <speed>1.960000</speed>
</trkpt>
<trkpt lat="33.004280090" lon="35.510601044">
  <ele>619.598633</ele>
  <time>2011-10-15T06:18:29Z</time>
  <speed>1.770000</speed>
</trkpt>
<trkpt lat="33.004257202" lon="35.510604858">
  <ele>621.020508</ele>
  <time>2011-10-15T06:18:30Z</time>
  <speed>1.820000</speed>
</trkpt>
<trkpt lat="33.004230499" lon="35.510612488">
  <ele>622.395508</ele>
  <time>2011-10-15T06:18:31Z</time>
  <speed>1.620000</speed>
</trkpt>
<trkpt lat="33.004180908" lon="35.510604858">
  <ele>624.192383</ele>
  <time>2011-10-15T06:18:33Z</time>
  <speed>1.940000</speed>
</trkpt>
<trkpt lat="33.004138947" lon="35.510601044">
  <ele>624.708008</ele>
  <time>2011-10-15T06:18:35Z</time>
  <speed>2.090000</speed>
</trkpt>
<trkpt lat="33.004100800" lon="35.510601044">
  <ele>625.786133</ele>
  <time>2011-10-15T06:18:37Z</time>
  <speed>2.050000</speed>
</trkpt>
<trkpt lat="33.004047394" lon="35.510574341">
  <ele>627.145508</ele>
  <time>2011-10-15T06:18:39Z</time>
  <speed>2.210000</speed>
</trkpt>
<trkpt lat="33.004005432" lon="35.510559082">
  <ele>627.317383</ele>
  <time>2011-10-15T06:18:41Z</time>
  <speed>2.310000</speed>
</trkpt>
<trkpt lat="33.003978729" lon="35.510547638">
  <ele>628.458008</ele>
  <time>2011-10-15T06:18:42Z</time>
  <speed>2.280000</speed>
</trkpt>
<trkpt lat="33.003948212" lon="35.510543823">
  <ele>629.520508</ele>
  <time>2011-10-15T06:18:43Z</time>
  <speed>2.190000</speed>
</trkpt>
<trkpt lat="33.003906250" lon="35.510543823">
  <ele>631.067383</ele>
  <time>2011-10-15T06:18:45Z</time>
  <speed>2.100000</speed>
</trkpt>
<trkpt lat="33.003864288" lon="35.510513306">
  <ele>632.833008</ele>
  <time>2011-10-15T06:18:47Z</time>
  <speed>2.060000</speed>
</trkpt>
<trkpt lat="33.003837585" lon="35.510494232">
  <ele>633.942383</ele>
  <time>2011-10-15T06:18:48Z</time>
  <speed>2.430000</speed>
</trkpt>
<trkpt lat="33.003810883" lon="35.510482788">
  <ele>634.317383</ele>
  <time>2011-10-15T06:18:49Z</time>
  <speed>2.420000</speed>
</trkpt>
<trkpt lat="33.003787994" lon="35.510475159">
  <ele>635.817383</ele>
  <time>2011-10-15T06:18:50Z</time>
  <speed>2.180000</speed>
</trkpt>
<trkpt lat="33.003761292" lon="35.510459900">
  <ele>637.301758</ele>
  <time>2011-10-15T06:18:51Z</time>
  <speed>2.200000</speed>
</trkpt>
<trkpt lat="33.003719330" lon="35.510440826">
  <ele>638.473633</ele>
  <time>2011-10-15T06:18:53Z</time>
  <speed>2.010000</speed>
</trkpt>
<trkpt lat="33.003684998" lon="35.510429382">
  <ele>639.442383</ele>
  <time>2011-10-15T06:18:55Z</time>
  <speed>1.830000</speed>
</trkpt>
<trkpt lat="33.003654480" lon="35.510414124">
  <ele>640.598633</ele>
  <time>2011-10-15T06:18:57Z</time>
  <speed>1.780000</speed>
</trkpt>
<trkpt lat="33.003631592" lon="35.510383606">
  <ele>640.786133</ele>
  <time>2011-10-15T06:18:59Z</time>
  <speed>1.700000</speed>
</trkpt>
<trkpt lat="33.003608704" lon="35.510372162">
  <ele>642.411133</ele>
  <time>2011-10-15T06:19:00Z</time>
  <speed>1.730000</speed>
</trkpt>
<trkpt lat="33.003574371" lon="35.510353088">
  <ele>643.520508</ele>
  <time>2011-10-15T06:19:02Z</time>
  <speed>1.840000</speed>
</trkpt>
<trkpt lat="33.003540039" lon="35.510334015">
  <ele>644.364258</ele>
  <time>2011-10-15T06:19:04Z</time>
  <speed>1.840000</speed>
</trkpt>
<trkpt lat="33.003501892" lon="35.510311127">
  <ele>645.333008</ele>
  <time>2011-10-15T06:19:06Z</time>
  <speed>2.080000</speed>
</trkpt>
<trkpt lat="33.003463745" lon="35.510295868">
  <ele>646.067383</ele>
  <time>2011-10-15T06:19:08Z</time>
  <speed>1.750000</speed>
</trkpt>
<trkpt lat="33.003429413" lon="35.510284424">
  <ele>646.442383</ele>
  <time>2011-10-15T06:19:10Z</time>
  <speed>1.910000</speed>
</trkpt>
<trkpt lat="33.003395081" lon="35.510276794">
  <ele>647.067383</ele>
  <time>2011-10-15T06:19:12Z</time>
  <speed>2.000000</speed>
</trkpt>
<trkpt lat="33.003360748" lon="35.510272980">
  <ele>647.723633</ele>
  <time>2011-10-15T06:19:14Z</time>
  <speed>2.040000</speed>
</trkpt>
<trkpt lat="33.003330231" lon="35.510261536">
  <ele>647.848633</ele>
  <time>2011-10-15T06:19:16Z</time>
  <speed>1.840000</speed>
</trkpt>
<trkpt lat="33.003299713" lon="35.510250092">
  <ele>647.864258</ele>
  <time>2011-10-15T06:19:18Z</time>
  <speed>1.980000</speed>
</trkpt>
<trkpt lat="33.003261566" lon="35.510238647">
  <ele>648.020508</ele>
  <time>2011-10-15T06:19:20Z</time>
  <speed>2.080000</speed>
</trkpt>
<trkpt lat="33.003227234" lon="35.510219574">
  <ele>648.536133</ele>
  <time>2011-10-15T06:19:22Z</time>
  <speed>2.030000</speed>
</trkpt>
<trkpt lat="33.003192902" lon="35.510204315">
  <ele>648.379883</ele>
  <time>2011-10-15T06:19:24Z</time>
  <speed>2.190000</speed>
</trkpt>
<trkpt lat="33.003158569" lon="35.510189056">
  <ele>648.661133</ele>
  <time>2011-10-15T06:19:26Z</time>
  <speed>2.110000</speed>
</trkpt>
<trkpt lat="33.003120422" lon="35.510162354">
  <ele>648.567383</ele>
  <time>2011-10-15T06:19:28Z</time>
  <speed>2.210000</speed>
</trkpt>
<trkpt lat="33.003078461" lon="35.510143280">
  <ele>648.551758</ele>
  <time>2011-10-15T06:19:30Z</time>
  <speed>2.410000</speed>
</trkpt>
<trkpt lat="33.003036499" lon="35.510124207">
  <ele>648.504883</ele>
  <time>2011-10-15T06:19:32Z</time>
  <speed>2.390000</speed>
</trkpt>
<trkpt lat="33.002990723" lon="35.510108948">
  <ele>648.958008</ele>
  <time>2011-10-15T06:19:34Z</time>
  <speed>2.510000</speed>
</trkpt>
<trkpt lat="33.002944946" lon="35.510086060">
  <ele>649.395508</ele>
  <time>2011-10-15T06:19:36Z</time>
  <speed>2.530000</speed>
</trkpt>
<trkpt lat="33.002902985" lon="35.510066986">
  <ele>649.098633</ele>
  <time>2011-10-15T06:19:38Z</time>
  <speed>2.490000</speed>
</trkpt>
<trkpt lat="33.002845764" lon="35.510047913">
  <ele>649.520508</ele>
  <time>2011-10-15T06:19:40Z</time>
  <speed>3.260000</speed>
</trkpt>
<trkpt lat="33.002815247" lon="35.510044098">
  <ele>649.786133</ele>
  <time>2011-10-15T06:19:41Z</time>
  <speed>3.210000</speed>
</trkpt>
<trkpt lat="33.002788544" lon="35.510028839">
  <ele>649.895508</ele>
  <time>2011-10-15T06:19:42Z</time>
  <speed>3.440000</speed>
</trkpt>
<trkpt lat="33.002758026" lon="35.510013580">
  <ele>649.942383</ele>
  <time>2011-10-15T06:19:43Z</time>
  <speed>3.540000</speed>
</trkpt>
<trkpt lat="33.002731323" lon="35.509998322">
  <ele>650.208008</ele>
  <time>2011-10-15T06:19:44Z</time>
  <speed>3.460000</speed>
</trkpt>
<trkpt lat="33.002708435" lon="35.509983063">
  <ele>650.051758</ele>
  <time>2011-10-15T06:19:45Z</time>
  <speed>3.300000</speed>
</trkpt>
<trkpt lat="33.002681732" lon="35.509967804">
  <ele>649.489258</ele>
  <time>2011-10-15T06:19:46Z</time>
  <speed>3.070000</speed>
</trkpt>
<trkpt lat="33.002655029" lon="35.509956360">
  <ele>649.129883</ele>
  <time>2011-10-15T06:19:47Z</time>
  <speed>3.260000</speed>
</trkpt>
<trkpt lat="33.002613068" lon="35.509922028">
  <ele>647.801758</ele>
  <time>2011-10-15T06:19:49Z</time>
  <speed>3.000000</speed>
</trkpt>
<trkpt lat="33.002586365" lon="35.509899139">
  <ele>648.770508</ele>
  <time>2011-10-15T06:19:50Z</time>
  <speed>3.070000</speed>
</trkpt>
<trkpt lat="33.002563477" lon="35.509883881">
  <ele>649.364258</ele>
  <time>2011-10-15T06:19:51Z</time>
  <speed>3.260000</speed>
</trkpt>
<trkpt lat="33.002536774" lon="35.509864807">
  <ele>650.411133</ele>
  <time>2011-10-15T06:19:52Z</time>
  <speed>3.150000</speed>
</trkpt>
<trkpt lat="33.002510071" lon="35.509845734">
  <ele>650.739258</ele>
  <time>2011-10-15T06:19:53Z</time>
  <speed>3.150000</speed>
</trkpt>
<trkpt lat="33.002483368" lon="35.509826660">
  <ele>651.161133</ele>
  <time>2011-10-15T06:19:54Z</time>
  <speed>2.920000</speed>
</trkpt>
<trkpt lat="33.002441406" lon="35.509796143">
  <ele>651.473633</ele>
  <time>2011-10-15T06:19:56Z</time>
  <speed>2.890000</speed>
</trkpt>
<trkpt lat="33.002414703" lon="35.509777069">
  <ele>652.317383</ele>
  <time>2011-10-15T06:19:57Z</time>
  <speed>3.150000</speed>
</trkpt>
<trkpt lat="33.002384186" lon="35.509761810">
  <ele>653.645508</ele>
  <time>2011-10-15T06:19:58Z</time>
  <speed>3.240000</speed>
</trkpt>
<trkpt lat="33.002353668" lon="35.509738922">
  <ele>654.239258</ele>
  <time>2011-10-15T06:19:59Z</time>
  <speed>3.210000</speed>
</trkpt>
<trkpt lat="33.002326965" lon="35.509727478">
  <ele>655.348633</ele>
  <time>2011-10-15T06:20:00Z</time>
  <speed>3.280000</speed>
</trkpt>
<trkpt lat="33.002296448" lon="35.509716034">
  <ele>655.770508</ele>
  <time>2011-10-15T06:20:01Z</time>
  <speed>3.330000</speed>
</trkpt>
<trkpt lat="33.002269745" lon="35.509708405">
  <ele>655.098633</ele>
  <time>2011-10-15T06:20:02Z</time>
  <speed>3.150000</speed>
</trkpt>
<trkpt lat="33.002243042" lon="35.509696960">
  <ele>655.301758</ele>
  <time>2011-10-15T06:20:03Z</time>
  <speed>3.210000</speed>
</trkpt>
<trkpt lat="33.002212524" lon="35.509689331">
  <ele>655.239258</ele>
  <time>2011-10-15T06:20:04Z</time>
  <speed>3.330000</speed>
</trkpt>
<trkpt lat="33.002182007" lon="35.509685516">
  <ele>655.692383</ele>
  <time>2011-10-15T06:20:05Z</time>
  <speed>3.160000</speed>
</trkpt>
<trkpt lat="33.002155304" lon="35.509677887">
  <ele>655.786133</ele>
  <time>2011-10-15T06:20:06Z</time>
  <speed>3.000000</speed>
</trkpt>
<trkpt lat="33.002124786" lon="35.509670258">
  <ele>656.270508</ele>
  <time>2011-10-15T06:20:07Z</time>
  <speed>3.280000</speed>
</trkpt>
<trkpt lat="33.002098083" lon="35.509662628">
  <ele>655.473633</ele>
  <time>2011-10-15T06:20:08Z</time>
  <speed>3.150000</speed>
</trkpt>
<trkpt lat="33.002071381" lon="35.509654999">
  <ele>655.254883</ele>
  <time>2011-10-15T06:20:09Z</time>
  <speed>3.180000</speed>
</trkpt>
<trkpt lat="33.002040863" lon="35.509647369">
  <ele>655.223633</ele>
  <time>2011-10-15T06:20:10Z</time>
  <speed>3.020000</speed>
</trkpt>
<trkpt lat="33.002014160" lon="35.509639740">
  <ele>655.301758</ele>
  <time>2011-10-15T06:20:11Z</time>
  <speed>3.010000</speed>
</trkpt>
<trkpt lat="33.001960754" lon="35.509628296">
  <ele>655.473633</ele>
  <time>2011-10-15T06:20:13Z</time>
  <speed>3.020000</speed>
</trkpt>
<trkpt lat="33.001930237" lon="35.509620667">
  <ele>656.083008</ele>
  <time>2011-10-15T06:20:14Z</time>
  <speed>3.040000</speed>
</trkpt>
<trkpt lat="33.001903534" lon="35.509613037">
  <ele>656.926758</ele>
  <time>2011-10-15T06:20:15Z</time>
  <speed>2.990000</speed>
</trkpt>
<trkpt lat="33.001853943" lon="35.509593964">
  <ele>656.786133</ele>
  <time>2011-10-15T06:20:17Z</time>
  <speed>2.970000</speed>
</trkpt>
<trkpt lat="33.001808167" lon="35.509567261">
  <ele>657.286133</ele>
  <time>2011-10-15T06:20:19Z</time>
  <speed>3.030000</speed>
</trkpt>
<trkpt lat="33.001777649" lon="35.509552002">
  <ele>657.442383</ele>
  <time>2011-10-15T06:20:20Z</time>
  <speed>2.900000</speed>
</trkpt>
<trkpt lat="33.001750946" lon="35.509544373">
  <ele>658.051758</ele>
  <time>2011-10-15T06:20:21Z</time>
  <speed>2.740000</speed>
</trkpt>
<trkpt lat="33.001724243" lon="35.509532928">
  <ele>658.676758</ele>
  <time>2011-10-15T06:20:22Z</time>
  <speed>2.890000</speed>
</trkpt>
<trkpt lat="33.001674652" lon="35.509521484">
  <ele>658.379883</ele>
  <time>2011-10-15T06:20:24Z</time>
  <speed>2.780000</speed>
</trkpt>
<trkpt lat="33.001647949" lon="35.509517670">
  <ele>658.754883</ele>
  <time>2011-10-15T06:20:25Z</time>
  <speed>2.770000</speed>
</trkpt>
<trkpt lat="33.001590729" lon="35.509513855">
  <ele>659.020508</ele>
  <time>2011-10-15T06:20:27Z</time>
  <speed>2.990000</speed>
</trkpt>
<trkpt lat="33.001564026" lon="35.509513855">
  <ele>658.676758</ele>
  <time>2011-10-15T06:20:28Z</time>
  <speed>3.080000</speed>
</trkpt>
<trkpt lat="33.001533508" lon="35.509517670">
  <ele>659.239258</ele>
  <time>2011-10-15T06:20:29Z</time>
  <speed>3.030000</speed>
</trkpt>
<trkpt lat="33.001502991" lon="35.509521484">
  <ele>659.051758</ele>
  <time>2011-10-15T06:20:30Z</time>
  <speed>3.110000</speed>
</trkpt>
<trkpt lat="33.001476288" lon="35.509529114">
  <ele>658.708008</ele>
  <time>2011-10-15T06:20:31Z</time>
  <speed>3.160000</speed>
</trkpt>
<trkpt lat="33.001449585" lon="35.509536743">
  <ele>658.723633</ele>
  <time>2011-10-15T06:20:32Z</time>
  <speed>2.980000</speed>
</trkpt>
<trkpt lat="33.001422882" lon="35.509548187">
  <ele>658.754883</ele>
  <time>2011-10-15T06:20:33Z</time>
  <speed>2.700000</speed>
</trkpt>
<trkpt lat="33.001399994" lon="35.509552002">
  <ele>657.098633</ele>
  <time>2011-10-15T06:20:34Z</time>
  <speed>2.540000</speed>
</trkpt>
<trkpt lat="33.001354218" lon="35.509563446">
  <ele>657.504883</ele>
  <time>2011-10-15T06:20:36Z</time>
  <speed>2.190000</speed>
</trkpt>
<trkpt lat="33.001327515" lon="35.509582520">
  <ele>658.004883</ele>
  <time>2011-10-15T06:20:38Z</time>
  <speed>1.370000</speed>
</trkpt>
<trkpt lat="33.001289368" lon="35.509586334">
  <ele>657.879883</ele>
  <time>2011-10-15T06:20:41Z</time>
  <speed>1.620000</speed>
</trkpt>
<trkpt lat="33.001251221" lon="35.509597778">
  <ele>657.958008</ele>
  <time>2011-10-15T06:20:44Z</time>
  <speed>1.450000</speed>
</trkpt>
<trkpt lat="33.001220703" lon="35.509601593">
  <ele>657.520508</ele>
  <time>2011-10-15T06:20:47Z</time>
  <speed>1.330000</speed>
</trkpt>
<trkpt lat="33.001201630" lon="35.509624481">
  <ele>656.801758</ele>
  <time>2011-10-15T06:20:49Z</time>
  <speed>1.380000</speed>
</trkpt>
<trkpt lat="33.001182556" lon="35.509666443">
  <ele>657.036133</ele>
  <time>2011-10-15T06:20:52Z</time>
  <speed>1.190000</speed>
</trkpt>
<trkpt lat="33.001178741" lon="35.509704590">
  <ele>656.770508</ele>
  <time>2011-10-15T06:20:55Z</time>
  <speed>1.250000</speed>
</trkpt>
<trkpt lat="33.001205444" lon="35.509719849">
  <ele>656.723633</ele>
  <time>2011-10-15T06:20:57Z</time>
  <speed>1.340000</speed>
</trkpt>
<trkpt lat="33.001243591" lon="35.509735107">
  <ele>656.833008</ele>
  <time>2011-10-15T06:20:59Z</time>
  <speed>1.890000</speed>
</trkpt>
<trkpt lat="33.001289368" lon="35.509723663">
  <ele>656.083008</ele>
  <time>2011-10-15T06:21:01Z</time>
  <speed>2.340000</speed>
</trkpt>
<trkpt lat="33.001316071" lon="35.509681702">
  <ele>655.661133</ele>
  <time>2011-10-15T06:21:03Z</time>
  <speed>1.980000</speed>
</trkpt>
<trkpt lat="33.001323700" lon="35.509635925">
  <ele>655.004883</ele>
  <time>2011-10-15T06:21:05Z</time>
  <speed>1.550000</speed>
</trkpt>
<trkpt lat="33.001304626" lon="35.509609222">
  <ele>654.489258</ele>
  <time>2011-10-15T06:21:07Z</time>
  <speed>1.220000</speed>
</trkpt>
<trkpt lat="33.001274109" lon="35.509593964">
  <ele>654.379883</ele>
  <time>2011-10-15T06:21:10Z</time>
  <speed>1.240000</speed>
</trkpt>
<trkpt lat="33.001243591" lon="35.509593964">
  <ele>655.004883</ele>
  <time>2011-10-15T06:21:12Z</time>
  <speed>0.980000</speed>
</trkpt>
<trkpt lat="33.001220703" lon="35.509624481">
  <ele>654.348633</ele>
  <time>2011-10-15T06:21:15Z</time>
  <speed>0.980000</speed>
</trkpt>
<trkpt lat="33.001224518" lon="35.509658813">
  <ele>654.551758</ele>
  <time>2011-10-15T06:21:17Z</time>
  <speed>1.310000</speed>
</trkpt>
<trkpt lat="33.001228333" lon="35.509696960">
  <ele>654.895508</ele>
  <time>2011-10-15T06:21:19Z</time>
  <speed>1.720000</speed>
</trkpt>
<trkpt lat="33.001262665" lon="35.509719849">
  <ele>655.114258</ele>
  <time>2011-10-15T06:21:21Z</time>
  <speed>1.920000</speed>
</trkpt>
<trkpt lat="33.001300812" lon="35.509704590">
  <ele>655.864258</ele>
  <time>2011-10-15T06:21:23Z</time>
  <speed>2.280000</speed>
</trkpt>
<trkpt lat="33.001319885" lon="35.509677887">
  <ele>656.504883</ele>
  <time>2011-10-15T06:21:24Z</time>
  <speed>2.270000</speed>
</trkpt>
<trkpt lat="33.001323700" lon="35.509620667">
  <ele>656.739258</ele>
  <time>2011-10-15T06:21:26Z</time>
  <speed>1.530000</speed>
</trkpt>
<trkpt lat="33.001308441" lon="35.509578705">
  <ele>657.489258</ele>
  <time>2011-10-15T06:21:28Z</time>
  <speed>2.060000</speed>
</trkpt>
<trkpt lat="33.001296997" lon="35.509525299">
  <ele>658.426758</ele>
  <time>2011-10-15T06:21:30Z</time>
  <speed>2.090000</speed>
</trkpt>
<trkpt lat="33.001308441" lon="35.509471893">
  <ele>658.723633</ele>
  <time>2011-10-15T06:21:32Z</time>
  <speed>2.030000</speed>
</trkpt>
<trkpt lat="33.001327515" lon="35.509433746">
  <ele>659.629883</ele>
  <time>2011-10-15T06:21:34Z</time>
  <speed>2.120000</speed>
</trkpt>
<trkpt lat="33.001346588" lon="35.509407043">
  <ele>661.286133</ele>
  <time>2011-10-15T06:21:36Z</time>
  <speed>1.690000</speed>
</trkpt>
<trkpt lat="33.001377106" lon="35.509387970">
  <ele>661.520508</ele>
  <time>2011-10-15T06:21:38Z</time>
  <speed>1.790000</speed>
</trkpt>
<trkpt lat="33.001411438" lon="35.509372711">
  <ele>661.348633</ele>
  <time>2011-10-15T06:21:40Z</time>
  <speed>1.810000</speed>
</trkpt>
<trkpt lat="33.001441956" lon="35.509357452">
  <ele>662.676758</ele>
  <time>2011-10-15T06:21:42Z</time>
  <speed>1.870000</speed>
</trkpt>
<trkpt lat="33.001472473" lon="35.509342194">
  <ele>663.114258</ele>
  <time>2011-10-15T06:21:44Z</time>
  <speed>1.980000</speed>
</trkpt>
<trkpt lat="33.001514435" lon="35.509334564">
  <ele>663.911133</ele>
  <time>2011-10-15T06:21:46Z</time>
  <speed>1.890000</speed>
</trkpt>
<trkpt lat="33.001548767" lon="35.509323120">
  <ele>664.770508</ele>
  <time>2011-10-15T06:21:48Z</time>
  <speed>1.960000</speed>
</trkpt>
<trkpt lat="33.001583099" lon="35.509304047">
  <ele>665.551758</ele>
  <time>2011-10-15T06:21:50Z</time>
  <speed>2.050000</speed>
</trkpt>
<trkpt lat="33.001609802" lon="35.509292603">
  <ele>665.442383</ele>
  <time>2011-10-15T06:21:51Z</time>
  <speed>2.140000</speed>
</trkpt>
<trkpt lat="33.001640320" lon="35.509273529">
  <ele>666.270508</ele>
  <time>2011-10-15T06:21:53Z</time>
  <speed>1.940000</speed>
</trkpt>
<trkpt lat="33.001678467" lon="35.509254456">
  <ele>666.004883</ele>
  <time>2011-10-15T06:21:55Z</time>
  <speed>2.000000</speed>
</trkpt>
<trkpt lat="33.001708984" lon="35.509243011">
  <ele>665.942383</ele>
  <time>2011-10-15T06:21:57Z</time>
  <speed>2.110000</speed>
</trkpt>
<trkpt lat="33.001747131" lon="35.509231567">
  <ele>665.754883</ele>
  <time>2011-10-15T06:21:59Z</time>
  <speed>1.920000</speed>
</trkpt>
<trkpt lat="33.001789093" lon="35.509212494">
  <ele>665.504883</ele>
  <time>2011-10-15T06:22:01Z</time>
  <speed>2.050000</speed>
</trkpt>
<trkpt lat="33.001823425" lon="35.509201050">
  <ele>665.598633</ele>
  <time>2011-10-15T06:22:03Z</time>
  <speed>2.130000</speed>
</trkpt>
<trkpt lat="33.001865387" lon="35.509197235">
  <ele>665.926758</ele>
  <time>2011-10-15T06:22:05Z</time>
  <speed>2.290000</speed>
</trkpt>
<trkpt lat="33.001907349" lon="35.509185791">
  <ele>666.145508</ele>
  <time>2011-10-15T06:22:07Z</time>
  <speed>2.070000</speed>
</trkpt>
<trkpt lat="33.001934052" lon="35.509178162">
  <ele>666.176758</ele>
  <time>2011-10-15T06:22:08Z</time>
  <speed>2.100000</speed>
</trkpt>
<trkpt lat="33.001968384" lon="35.509166718">
  <ele>666.426758</ele>
  <time>2011-10-15T06:22:10Z</time>
  <speed>2.260000</speed>
</trkpt>
<trkpt lat="33.001995087" lon="35.509162903">
  <ele>666.895508</ele>
  <time>2011-10-15T06:22:12Z</time>
  <speed>1.890000</speed>
</trkpt>
<trkpt lat="33.002029419" lon="35.509147644">
  <ele>667.458008</ele>
  <time>2011-10-15T06:22:14Z</time>
  <speed>1.900000</speed>
</trkpt>
<trkpt lat="33.002056122" lon="35.509124756">
  <ele>666.583008</ele>
  <time>2011-10-15T06:22:15Z</time>
  <speed>2.090000</speed>
</trkpt>
<trkpt lat="33.002079010" lon="35.509113312">
  <ele>665.926758</ele>
  <time>2011-10-15T06:22:16Z</time>
  <speed>2.170000</speed>
</trkpt>
<trkpt lat="33.002117157" lon="35.509105682">
  <ele>666.004883</ele>
  <time>2011-10-15T06:22:18Z</time>
  <speed>1.960000</speed>
</trkpt>
<trkpt lat="33.002151489" lon="35.509094238">
  <ele>666.317383</ele>
  <time>2011-10-15T06:22:20Z</time>
  <speed>1.870000</speed>
</trkpt>
<trkpt lat="33.002185822" lon="35.509086609">
  <ele>666.661133</ele>
  <time>2011-10-15T06:22:22Z</time>
  <speed>1.790000</speed>
</trkpt>
<trkpt lat="33.002216339" lon="35.509071350">
  <ele>666.926758</ele>
  <time>2011-10-15T06:22:24Z</time>
  <speed>1.560000</speed>
</trkpt>
<trkpt lat="33.002246857" lon="35.509052277">
  <ele>666.754883</ele>
  <time>2011-10-15T06:22:26Z</time>
  <speed>1.370000</speed>
</trkpt>
<trkpt lat="33.002281189" lon="35.509037018">
  <ele>666.833008</ele>
  <time>2011-10-15T06:22:28Z</time>
  <speed>1.580000</speed>
</trkpt>
<trkpt lat="33.002307892" lon="35.509021759">
  <ele>666.864258</ele>
  <time>2011-10-15T06:22:30Z</time>
  <speed>1.300000</speed>
</trkpt>
<trkpt lat="33.002334595" lon="35.509002686">
  <ele>666.958008</ele>
  <time>2011-10-15T06:22:32Z</time>
  <speed>1.370000</speed>
</trkpt>
<trkpt lat="33.002365112" lon="35.508991241">
  <ele>667.286133</ele>
  <time>2011-10-15T06:22:34Z</time>
  <speed>1.230000</speed>
</trkpt>
<trkpt lat="33.002391815" lon="35.508972168">
  <ele>668.317383</ele>
  <time>2011-10-15T06:22:36Z</time>
  <speed>1.500000</speed>
</trkpt>
<trkpt lat="33.002418518" lon="35.508949280">
  <ele>670.364258</ele>
  <time>2011-10-15T06:22:38Z</time>
  <speed>1.990000</speed>
</trkpt>
<trkpt lat="33.002452850" lon="35.508926392">
  <ele>670.333008</ele>
  <time>2011-10-15T06:22:40Z</time>
  <speed>1.910000</speed>
</trkpt>
<trkpt lat="33.002487183" lon="35.508899689">
  <ele>670.551758</ele>
  <time>2011-10-15T06:22:42Z</time>
  <speed>2.000000</speed>
</trkpt>
<trkpt lat="33.002521515" lon="35.508872986">
  <ele>670.708008</ele>
  <time>2011-10-15T06:22:44Z</time>
  <speed>2.050000</speed>
</trkpt>
<trkpt lat="33.002548218" lon="35.508846283">
  <ele>670.489258</ele>
  <time>2011-10-15T06:22:46Z</time>
  <speed>2.190000</speed>
</trkpt>
<trkpt lat="33.002582550" lon="35.508815765">
  <ele>670.864258</ele>
  <time>2011-10-15T06:22:48Z</time>
  <speed>2.120000</speed>
</trkpt>
<trkpt lat="33.002613068" lon="35.508785248">
  <ele>671.567383</ele>
  <time>2011-10-15T06:22:50Z</time>
  <speed>1.970000</speed>
</trkpt>
<trkpt lat="33.002635956" lon="35.508750916">
  <ele>671.254883</ele>
  <time>2011-10-15T06:22:52Z</time>
  <speed>1.660000</speed>
</trkpt>
<trkpt lat="33.002662659" lon="35.508705139">
  <ele>671.239258</ele>
  <time>2011-10-15T06:22:54Z</time>
  <speed>1.800000</speed>
</trkpt>
<trkpt lat="33.002689362" lon="35.508678436">
  <ele>671.583008</ele>
  <time>2011-10-15T06:22:56Z</time>
  <speed>1.850000</speed>
</trkpt>
<trkpt lat="33.002712250" lon="35.508647919">
  <ele>672.036133</ele>
  <time>2011-10-15T06:22:58Z</time>
  <speed>1.880000</speed>
</trkpt>
<trkpt lat="33.002731323" lon="35.508609772">
  <ele>672.145508</ele>
  <time>2011-10-15T06:23:00Z</time>
  <speed>1.930000</speed>
</trkpt>
<trkpt lat="33.002754211" lon="35.508583069">
  <ele>672.129883</ele>
  <time>2011-10-15T06:23:02Z</time>
  <speed>1.690000</speed>
</trkpt>
<trkpt lat="33.002754211" lon="35.508548737">
  <ele>672.598633</ele>
  <time>2011-10-15T06:23:04Z</time>
  <speed>1.220000</speed>
</trkpt>
<trkpt lat="33.002769470" lon="35.508514404">
  <ele>672.817383</ele>
  <time>2011-10-15T06:23:07Z</time>
  <speed>0.800000</speed>
</trkpt>
<trkpt lat="33.002769470" lon="35.508472443">
  <ele>673.770508</ele>
  <time>2011-10-15T06:23:10Z</time>
  <speed>0.850000</speed>
</trkpt>
<trkpt lat="33.002788544" lon="35.508441925">
  <ele>673.551758</ele>
  <time>2011-10-15T06:23:14Z</time>
  <speed>0.760000</speed>
</trkpt>
<trkpt lat="33.002819061" lon="35.508415222">
  <ele>673.317383</ele>
  <time>2011-10-15T06:23:18Z</time>
  <speed>2.020000</speed>
</trkpt>
<trkpt lat="33.002861023" lon="35.508399963">
  <ele>672.958008</ele>
  <time>2011-10-15T06:23:20Z</time>
  <speed>2.150000</speed>
</trkpt>
<trkpt lat="33.002902985" lon="35.508392334">
  <ele>672.629883</ele>
  <time>2011-10-15T06:23:22Z</time>
  <speed>1.900000</speed>
</trkpt>
<trkpt lat="33.002948761" lon="35.508388519">
  <ele>673.192383</ele>
  <time>2011-10-15T06:23:23Z</time>
  <speed>2.990000</speed>
</trkpt>
<trkpt lat="33.002979279" lon="35.508388519">
  <ele>672.895508</ele>
  <time>2011-10-15T06:23:24Z</time>
  <speed>2.110000</speed>
</trkpt>
<trkpt lat="33.003025055" lon="35.508411407">
  <ele>672.114258</ele>
  <time>2011-10-15T06:23:26Z</time>
  <speed>2.190000</speed>
</trkpt>
<trkpt lat="33.003044128" lon="35.508441925">
  <ele>671.989258</ele>
  <time>2011-10-15T06:23:27Z</time>
  <speed>2.350000</speed>
</trkpt>
<trkpt lat="33.003078461" lon="35.508453369">
  <ele>671.598633</ele>
  <time>2011-10-15T06:23:28Z</time>
  <speed>2.050000</speed>
</trkpt>
<trkpt lat="33.003120422" lon="35.508480072">
  <ele>670.958008</ele>
  <time>2011-10-15T06:23:30Z</time>
  <speed>1.620000</speed>
</trkpt>
<trkpt lat="33.003150940" lon="35.508491516">
  <ele>670.645508</ele>
  <time>2011-10-15T06:23:32Z</time>
  <speed>1.330000</speed>
</trkpt>
<trkpt lat="33.003189087" lon="35.508495331">
  <ele>670.442383</ele>
  <time>2011-10-15T06:23:34Z</time>
  <speed>1.690000</speed>
</trkpt>
<trkpt lat="33.003227234" lon="35.508483887">
  <ele>670.254883</ele>
  <time>2011-10-15T06:23:36Z</time>
  <speed>2.080000</speed>
</trkpt>
<trkpt lat="33.003276825" lon="35.508460999">
  <ele>670.661133</ele>
  <time>2011-10-15T06:23:38Z</time>
  <speed>1.820000</speed>
</trkpt>
<trkpt lat="33.003303528" lon="35.508445740">
  <ele>670.754883</ele>
  <time>2011-10-15T06:23:39Z</time>
  <speed>2.520000</speed>
</trkpt>
<trkpt lat="33.003330231" lon="35.508422852">
  <ele>671.020508</ele>
  <time>2011-10-15T06:23:40Z</time>
  <speed>3.110000</speed>
</trkpt>
<trkpt lat="33.003349304" lon="35.508396149">
  <ele>670.754883</ele>
  <time>2011-10-15T06:23:41Z</time>
  <speed>3.120000</speed>
</trkpt>
<trkpt lat="33.003372192" lon="35.508369446">
  <ele>670.567383</ele>
  <time>2011-10-15T06:23:42Z</time>
  <speed>2.860000</speed>
</trkpt>
<trkpt lat="33.003395081" lon="35.508346558">
  <ele>670.536133</ele>
  <time>2011-10-15T06:23:43Z</time>
  <speed>3.150000</speed>
</trkpt>
<trkpt lat="33.003421783" lon="35.508342743">
  <ele>670.098633</ele>
  <time>2011-10-15T06:23:44Z</time>
  <speed>2.870000</speed>
</trkpt>
<trkpt lat="33.003452301" lon="35.508350372">
  <ele>669.051758</ele>
  <time>2011-10-15T06:23:45Z</time>
  <speed>2.590000</speed>
</trkpt>
<trkpt lat="33.003517151" lon="35.508354187">
  <ele>669.379883</ele>
  <time>2011-10-15T06:23:46Z</time>
  <speed>4.270000</speed>
</trkpt>
<trkpt lat="33.003555298" lon="35.508354187">
  <ele>669.208008</ele>
  <time>2011-10-15T06:23:47Z</time>
  <speed>3.550000</speed>
</trkpt>
<trkpt lat="33.003601074" lon="35.508369446">
  <ele>668.926758</ele>
  <time>2011-10-15T06:23:48Z</time>
  <speed>3.720000</speed>
</trkpt>
<trkpt lat="33.003643036" lon="35.508365631">
  <ele>669.098633</ele>
  <time>2011-10-15T06:23:49Z</time>
  <speed>3.450000</speed>
</trkpt>
<trkpt lat="33.003673553" lon="35.508350372">
  <ele>668.958008</ele>
  <time>2011-10-15T06:23:50Z</time>
  <speed>2.890000</speed>
</trkpt>
<trkpt lat="33.003696442" lon="35.508327484">
  <ele>668.723633</ele>
  <time>2011-10-15T06:23:51Z</time>
  <speed>2.600000</speed>
</trkpt>
<trkpt lat="33.003715515" lon="35.508300781">
  <ele>668.551758</ele>
  <time>2011-10-15T06:23:52Z</time>
  <speed>2.660000</speed>
</trkpt>
<trkpt lat="33.003715515" lon="35.508266449">
  <ele>667.911133</ele>
  <time>2011-10-15T06:23:53Z</time>
  <speed>2.850000</speed>
</trkpt>
<trkpt lat="33.003704071" lon="35.508235931">
  <ele>666.692383</ele>
  <time>2011-10-15T06:23:54Z</time>
  <speed>2.270000</speed>
</trkpt>
<trkpt lat="33.003696442" lon="35.508197784">
  <ele>666.098633</ele>
  <time>2011-10-15T06:23:57Z</time>
  <speed>0.900000</speed>
</trkpt>
<trkpt lat="33.003665924" lon="35.508193970">
  <ele>665.754883</ele>
  <time>2011-10-15T06:23:59Z</time>
  <speed>1.420000</speed>
</trkpt>
<trkpt lat="33.003635406" lon="35.508174896">
  <ele>665.239258</ele>
  <time>2011-10-15T06:24:00Z</time>
  <speed>3.310000</speed>
</trkpt>
<trkpt lat="33.003608704" lon="35.508159637">
  <ele>664.926758</ele>
  <time>2011-10-15T06:24:01Z</time>
  <speed>2.860000</speed>
</trkpt>
<trkpt lat="33.003566742" lon="35.508117676">
  <ele>663.442383</ele>
  <time>2011-10-15T06:24:02Z</time>
  <speed>4.620000</speed>
</trkpt>
<trkpt lat="33.003517151" lon="35.508071899">
  <ele>663.129883</ele>
  <time>2011-10-15T06:24:03Z</time>
  <speed>6.310000</speed>
</trkpt>
<trkpt lat="33.003479004" lon="35.508010864">
  <ele>662.583008</ele>
  <time>2011-10-15T06:24:04Z</time>
  <speed>6.660000</speed>
</trkpt>
<trkpt lat="33.003429413" lon="35.507938385">
  <ele>661.458008</ele>
  <time>2011-10-15T06:24:05Z</time>
  <speed>6.630000</speed>
</trkpt>
<trkpt lat="33.003391266" lon="35.507881165">
  <ele>660.895508</ele>
  <time>2011-10-15T06:24:06Z</time>
  <speed>5.500000</speed>
</trkpt>
<trkpt lat="33.003360748" lon="35.507843018">
  <ele>660.270508</ele>
  <time>2011-10-15T06:24:07Z</time>
  <speed>3.630000</speed>
</trkpt>
<trkpt lat="33.003330231" lon="35.507801056">
  <ele>659.645508</ele>
  <time>2011-10-15T06:24:08Z</time>
  <speed>4.110000</speed>
</trkpt>
<trkpt lat="33.003307343" lon="35.507774353">
  <ele>659.145508</ele>
  <time>2011-10-15T06:24:09Z</time>
  <speed>3.720000</speed>
</trkpt>
<trkpt lat="33.003269196" lon="35.507736206">
  <ele>659.192383</ele>
  <time>2011-10-15T06:24:10Z</time>
  <speed>2.550000</speed>
</trkpt>
<trkpt lat="33.003231049" lon="35.507743835">
  <ele>658.520508</ele>
  <time>2011-10-15T06:24:12Z</time>
  <speed>1.630000</speed>
</trkpt>
<trkpt lat="33.003181458" lon="35.507732391">
  <ele>657.708008</ele>
  <time>2011-10-15T06:24:14Z</time>
  <speed>2.430000</speed>
</trkpt>
<trkpt lat="33.003162384" lon="35.507675171">
  <ele>656.676758</ele>
  <time>2011-10-15T06:24:16Z</time>
  <speed>3.290000</speed>
</trkpt>
<trkpt lat="33.003162384" lon="35.507637024">
  <ele>656.286133</ele>
  <time>2011-10-15T06:24:17Z</time>
  <speed>3.550000</speed>
</trkpt>
<trkpt lat="33.003162384" lon="35.507587433">
  <ele>655.161133</ele>
  <time>2011-10-15T06:24:18Z</time>
  <speed>4.080000</speed>
</trkpt>
<trkpt lat="33.003166199" lon="35.507545471">
  <ele>654.645508</ele>
  <time>2011-10-15T06:24:19Z</time>
  <speed>3.590000</speed>
</trkpt>
<trkpt lat="33.003170013" lon="35.507507324">
  <ele>654.161133</ele>
  <time>2011-10-15T06:24:20Z</time>
  <speed>2.830000</speed>
</trkpt>
<trkpt lat="33.003170013" lon="35.507472992">
  <ele>653.301758</ele>
  <time>2011-10-15T06:24:21Z</time>
  <speed>2.810000</speed>
</trkpt>
<trkpt lat="33.003162384" lon="35.507442474">
  <ele>652.661133</ele>
  <time>2011-10-15T06:24:22Z</time>
  <speed>2.680000</speed>
</trkpt>
<trkpt lat="33.003147125" lon="35.507408142">
  <ele>653.239258</ele>
  <time>2011-10-15T06:24:23Z</time>
  <speed>2.270000</speed>
</trkpt>
<trkpt lat="33.003131866" lon="35.507354736">
  <ele>654.192383</ele>
  <time>2011-10-15T06:24:25Z</time>
  <speed>1.840000</speed>
</trkpt>
<trkpt lat="33.003128052" lon="35.507320404">
  <ele>654.723633</ele>
  <time>2011-10-15T06:24:26Z</time>
  <speed>2.590000</speed>
</trkpt>
<trkpt lat="33.003120422" lon="35.507282257">
  <ele>655.833008</ele>
  <time>2011-10-15T06:24:27Z</time>
  <speed>2.930000</speed>
</trkpt>
<trkpt lat="33.003124237" lon="35.507251740">
  <ele>655.036133</ele>
  <time>2011-10-15T06:24:28Z</time>
  <speed>2.610000</speed>
</trkpt>
<trkpt lat="33.003131866" lon="35.507198334">
  <ele>654.458008</ele>
  <time>2011-10-15T06:24:30Z</time>
  <speed>2.450000</speed>
</trkpt>
<trkpt lat="33.003150940" lon="35.507137299">
  <ele>653.770508</ele>
  <time>2011-10-15T06:24:32Z</time>
  <speed>2.980000</speed>
</trkpt>
<trkpt lat="33.003154755" lon="35.507099152">
  <ele>654.379883</ele>
  <time>2011-10-15T06:24:33Z</time>
  <speed>2.600000</speed>
</trkpt>
<trkpt lat="33.003185272" lon="35.507049561">
  <ele>654.083008</ele>
  <time>2011-10-15T06:24:35Z</time>
  <speed>2.450000</speed>
</trkpt>
<trkpt lat="33.003223419" lon="35.507011414">
  <ele>654.067383</ele>
  <time>2011-10-15T06:24:37Z</time>
  <speed>2.760000</speed>
</trkpt>
<trkpt lat="33.003276825" lon="35.507007599">
  <ele>652.192383</ele>
  <time>2011-10-15T06:24:39Z</time>
  <speed>2.060000</speed>
</trkpt>
<trkpt lat="33.003322601" lon="35.507034302">
  <ele>650.583008</ele>
  <time>2011-10-15T06:24:41Z</time>
  <speed>1.890000</speed>
</trkpt>
<trkpt lat="33.003360748" lon="35.507053375">
  <ele>648.786133</ele>
  <time>2011-10-15T06:24:43Z</time>
  <speed>1.380000</speed>
</trkpt>
<trkpt lat="33.003387451" lon="35.507061005">
  <ele>647.973633</ele>
  <time>2011-10-15T06:24:48Z</time>
  <speed>0.650000</speed>
</trkpt>
<trkpt lat="33.003395081" lon="35.507083893">
  <ele>646.176758</ele>
  <time>2011-10-15T06:25:02Z</time>
  <speed>0.070000</speed>
</trkpt>
<trkpt lat="33.003417969" lon="35.507068634">
  <ele>646.973633</ele>
  <time>2011-10-15T06:26:25Z</time>
  <speed>0.050000</speed>
</trkpt>
<trkpt lat="33.003463745" lon="35.507064819">
  <ele>648.098633</ele>
  <time>2011-10-15T06:27:21Z</time>
  <speed>2.720000</speed>
</trkpt>
<trkpt lat="33.003501892" lon="35.507083893">
  <ele>648.442383</ele>
  <time>2011-10-15T06:27:22Z</time>
  <speed>4.120000</speed>
</trkpt>
<trkpt lat="33.003547668" lon="35.507110596">
  <ele>648.020508</ele>
  <time>2011-10-15T06:27:23Z</time>
  <speed>5.410000</speed>
</trkpt>
<trkpt lat="33.003601074" lon="35.507137299">
  <ele>647.473633</ele>
  <time>2011-10-15T06:27:24Z</time>
  <speed>6.550000</speed>
</trkpt>
<trkpt lat="33.003662109" lon="35.507167816">
  <ele>647.098633</ele>
  <time>2011-10-15T06:27:25Z</time>
  <speed>6.920000</speed>
</trkpt>
<trkpt lat="33.003723145" lon="35.507202148">
  <ele>646.551758</ele>
  <time>2011-10-15T06:27:26Z</time>
  <speed>7.080000</speed>
</trkpt>
<trkpt lat="33.003784180" lon="35.507232666">
  <ele>646.098633</ele>
  <time>2011-10-15T06:27:27Z</time>
  <speed>6.900000</speed>
</trkpt>
<trkpt lat="33.003849030" lon="35.507251740">
  <ele>645.739258</ele>
  <time>2011-10-15T06:27:28Z</time>
  <speed>6.780000</speed>
</trkpt>
<trkpt lat="33.003910065" lon="35.507266998">
  <ele>645.348633</ele>
  <time>2011-10-15T06:27:29Z</time>
  <speed>6.130000</speed>
</trkpt>
<trkpt lat="33.003967285" lon="35.507266998">
  <ele>644.942383</ele>
  <time>2011-10-15T06:27:30Z</time>
  <speed>6.360000</speed>
</trkpt>
<trkpt lat="33.004024506" lon="35.507259369">
  <ele>644.629883</ele>
  <time>2011-10-15T06:27:31Z</time>
  <speed>5.940000</speed>
</trkpt>
<trkpt lat="33.004089355" lon="35.507228851">
  <ele>643.504883</ele>
  <time>2011-10-15T06:27:32Z</time>
  <speed>6.480000</speed>
</trkpt>
<trkpt lat="33.004150391" lon="35.507202148">
  <ele>642.973633</ele>
  <time>2011-10-15T06:27:33Z</time>
  <speed>6.790000</speed>
</trkpt>
<trkpt lat="33.004215240" lon="35.507164001">
  <ele>642.192383</ele>
  <time>2011-10-15T06:27:34Z</time>
  <speed>6.710000</speed>
</trkpt>
<trkpt lat="33.004261017" lon="35.507125854">
  <ele>642.083008</ele>
  <time>2011-10-15T06:27:35Z</time>
  <speed>5.990000</speed>
</trkpt>
<trkpt lat="33.004306793" lon="35.507083893">
  <ele>641.426758</ele>
  <time>2011-10-15T06:27:36Z</time>
  <speed>5.570000</speed>
</trkpt>
<trkpt lat="33.004344940" lon="35.507045746">
  <ele>641.129883</ele>
  <time>2011-10-15T06:27:37Z</time>
  <speed>4.880000</speed>
</trkpt>
<trkpt lat="33.004379272" lon="35.507007599">
  <ele>640.504883</ele>
  <time>2011-10-15T06:27:38Z</time>
  <speed>4.310000</speed>
</trkpt>
<trkpt lat="33.004409790" lon="35.506973267">
  <ele>640.208008</ele>
  <time>2011-10-15T06:27:39Z</time>
  <speed>3.400000</speed>
</trkpt>
<trkpt lat="33.004436493" lon="35.506950378">
  <ele>640.536133</ele>
  <time>2011-10-15T06:27:40Z</time>
  <speed>3.300000</speed>
</trkpt>
<trkpt lat="33.004459381" lon="35.506919861">
  <ele>640.661133</ele>
  <time>2011-10-15T06:27:41Z</time>
  <speed>3.540000</speed>
</trkpt>
<trkpt lat="33.004501343" lon="35.506889343">
  <ele>641.208008</ele>
  <time>2011-10-15T06:27:42Z</time>
  <speed>3.580000</speed>
</trkpt>
<trkpt lat="33.004524231" lon="35.506862640">
  <ele>641.458008</ele>
  <time>2011-10-15T06:27:43Z</time>
  <speed>3.540000</speed>
</trkpt>
<trkpt lat="33.004547119" lon="35.506843567">
  <ele>641.801758</ele>
  <time>2011-10-15T06:27:44Z</time>
  <speed>3.260000</speed>
</trkpt>
<trkpt lat="33.004550934" lon="35.506797791">
  <ele>642.161133</ele>
  <time>2011-10-15T06:27:45Z</time>
  <speed>2.830000</speed>
</trkpt>
<trkpt lat="33.004570007" lon="35.506771088">
  <ele>642.614258</ele>
  <time>2011-10-15T06:27:46Z</time>
  <speed>3.000000</speed>
</trkpt>
<trkpt lat="33.004585266" lon="35.506744385">
  <ele>642.926758</ele>
  <time>2011-10-15T06:27:47Z</time>
  <speed>2.470000</speed>
</trkpt>
<trkpt lat="33.004608154" lon="35.506690979">
  <ele>642.848633</ele>
  <time>2011-10-15T06:27:49Z</time>
  <speed>2.040000</speed>
</trkpt>
<trkpt lat="33.004623413" lon="35.506652832">
  <ele>642.708008</ele>
  <time>2011-10-15T06:27:51Z</time>
  <speed>1.790000</speed>
</trkpt>
<trkpt lat="33.004619598" lon="35.506614685">
  <ele>643.254883</ele>
  <time>2011-10-15T06:27:52Z</time>
  <speed>1.980000</speed>
</trkpt>
<trkpt lat="33.004627228" lon="35.506576538">
  <ele>643.520508</ele>
  <time>2011-10-15T06:27:54Z</time>
  <speed>1.640000</speed>
</trkpt>
<trkpt lat="33.004631042" lon="35.506534576">
  <ele>643.942383</ele>
  <time>2011-10-15T06:27:56Z</time>
  <speed>1.710000</speed>
</trkpt>
<trkpt lat="33.004642487" lon="35.506492615">
  <ele>644.083008</ele>
  <time>2011-10-15T06:27:58Z</time>
  <speed>1.710000</speed>
</trkpt>
<trkpt lat="33.004657745" lon="35.506462097">
  <ele>644.004883</ele>
  <time>2011-10-15T06:28:00Z</time>
  <speed>1.380000</speed>
</trkpt>
<trkpt lat="33.004680634" lon="35.506427765">
  <ele>644.239258</ele>
  <time>2011-10-15T06:28:02Z</time>
  <speed>1.450000</speed>
</trkpt>
<trkpt lat="33.004688263" lon="35.506385803">
  <ele>645.208008</ele>
  <time>2011-10-15T06:28:05Z</time>
  <speed>1.460000</speed>
</trkpt>
<trkpt lat="33.004695892" lon="35.506347656">
  <ele>645.786133</ele>
  <time>2011-10-15T06:28:07Z</time>
  <speed>1.970000</speed>
</trkpt>
<trkpt lat="33.004692078" lon="35.506305695">
  <ele>645.473633</ele>
  <time>2011-10-15T06:28:09Z</time>
  <speed>1.570000</speed>
</trkpt>
<trkpt lat="33.004695892" lon="35.506256104">
  <ele>646.067383</ele>
  <time>2011-10-15T06:28:11Z</time>
  <speed>1.470000</speed>
</trkpt>
<trkpt lat="33.004695892" lon="35.506210327">
  <ele>645.989258</ele>
  <time>2011-10-15T06:28:13Z</time>
  <speed>1.760000</speed>
</trkpt>
<trkpt lat="33.004703522" lon="35.506175995">
  <ele>645.864258</ele>
  <time>2011-10-15T06:28:15Z</time>
  <speed>1.770000</speed>
</trkpt>
<trkpt lat="33.004718781" lon="35.506145477">
  <ele>645.364258</ele>
  <time>2011-10-15T06:28:17Z</time>
  <speed>1.760000</speed>
</trkpt>
<trkpt lat="33.004730225" lon="35.506103516">
  <ele>645.708008</ele>
  <time>2011-10-15T06:28:19Z</time>
  <speed>1.800000</speed>
</trkpt>
<trkpt lat="33.004741669" lon="35.506069183">
  <ele>645.567383</ele>
  <time>2011-10-15T06:28:21Z</time>
  <speed>1.590000</speed>
</trkpt>
<trkpt lat="33.004753113" lon="35.506034851">
  <ele>645.379883</ele>
  <time>2011-10-15T06:28:23Z</time>
  <speed>1.450000</speed>
</trkpt>
<trkpt lat="33.004749298" lon="35.505989075">
  <ele>645.286133</ele>
  <time>2011-10-15T06:28:25Z</time>
  <speed>1.560000</speed>
</trkpt>
<trkpt lat="33.004772186" lon="35.505958557">
  <ele>645.458008</ele>
  <time>2011-10-15T06:28:27Z</time>
  <speed>1.910000</speed>
</trkpt>
<trkpt lat="33.004760742" lon="35.505912781">
  <ele>646.348633</ele>
  <time>2011-10-15T06:28:28Z</time>
  <speed>1.870000</speed>
</trkpt>
<trkpt lat="33.004741669" lon="35.505840302">
  <ele>647.551758</ele>
  <time>2011-10-15T06:28:30Z</time>
  <speed>1.950000</speed>
</trkpt>
<trkpt lat="33.004737854" lon="35.505805969">
  <ele>648.286133</ele>
  <time>2011-10-15T06:28:31Z</time>
  <speed>2.140000</speed>
</trkpt>
<trkpt lat="33.004734039" lon="35.505752563">
  <ele>649.067383</ele>
  <time>2011-10-15T06:28:33Z</time>
  <speed>1.820000</speed>
</trkpt>
<trkpt lat="33.004737854" lon="35.505710602">
  <ele>649.004883</ele>
  <time>2011-10-15T06:28:35Z</time>
  <speed>1.850000</speed>
</trkpt>
<trkpt lat="33.004741669" lon="35.505680084">
  <ele>648.567383</ele>
  <time>2011-10-15T06:28:37Z</time>
  <speed>1.770000</speed>
</trkpt>
<trkpt lat="33.004753113" lon="35.505630493">
  <ele>649.692383</ele>
  <time>2011-10-15T06:28:39Z</time>
  <speed>2.070000</speed>
</trkpt>
<trkpt lat="33.004745483" lon="35.505584717">
  <ele>649.911133</ele>
  <time>2011-10-15T06:28:41Z</time>
  <speed>1.500000</speed>
</trkpt>
<trkpt lat="33.004749298" lon="35.505546570">
  <ele>649.879883</ele>
  <time>2011-10-15T06:28:43Z</time>
  <speed>1.730000</speed>
</trkpt>
<trkpt lat="33.004756927" lon="35.505512238">
  <ele>649.286133</ele>
  <time>2011-10-15T06:28:45Z</time>
  <speed>1.600000</speed>
</trkpt>
<trkpt lat="33.004760742" lon="35.505466461">
  <ele>648.754883</ele>
  <time>2011-10-15T06:28:47Z</time>
  <speed>1.760000</speed>
</trkpt>
<trkpt lat="33.004756927" lon="35.505409241">
  <ele>649.551758</ele>
  <time>2011-10-15T06:28:49Z</time>
  <speed>1.720000</speed>
</trkpt>
<trkpt lat="33.004753113" lon="35.505363464">
  <ele>649.864258</ele>
  <time>2011-10-15T06:28:51Z</time>
  <speed>1.970000</speed>
</trkpt>
<trkpt lat="33.004756927" lon="35.505321503">
  <ele>651.036133</ele>
  <time>2011-10-15T06:28:53Z</time>
  <speed>1.390000</speed>
</trkpt>
<trkpt lat="33.004753113" lon="35.505287170">
  <ele>651.223633</ele>
  <time>2011-10-15T06:28:55Z</time>
  <speed>1.600000</speed>
</trkpt>
<trkpt lat="33.004756927" lon="35.505241394">
  <ele>651.786133</ele>
  <time>2011-10-15T06:28:57Z</time>
  <speed>1.640000</speed>
</trkpt>
<trkpt lat="33.004756927" lon="35.505203247">
  <ele>651.926758</ele>
  <time>2011-10-15T06:28:59Z</time>
  <speed>2.280000</speed>
</trkpt>
<trkpt lat="33.004764557" lon="35.505157471">
  <ele>652.004883</ele>
  <time>2011-10-15T06:29:01Z</time>
  <speed>2.560000</speed>
</trkpt>
<trkpt lat="33.004760742" lon="35.505111694">
  <ele>652.817383</ele>
  <time>2011-10-15T06:29:02Z</time>
  <speed>2.650000</speed>
</trkpt>
<trkpt lat="33.004768372" lon="35.505058289">
  <ele>652.489258</ele>
  <time>2011-10-15T06:29:04Z</time>
  <speed>3.060000</speed>
</trkpt>
<trkpt lat="33.004772186" lon="35.505023956">
  <ele>651.911133</ele>
  <time>2011-10-15T06:29:05Z</time>
  <speed>3.570000</speed>
</trkpt>
<trkpt lat="33.004768372" lon="35.504981995">
  <ele>652.301758</ele>
  <time>2011-10-15T06:29:06Z</time>
  <speed>3.030000</speed>
</trkpt>
<trkpt lat="33.004776001" lon="35.504920959">
  <ele>651.473633</ele>
  <time>2011-10-15T06:29:08Z</time>
  <speed>3.270000</speed>
</trkpt>
<trkpt lat="33.004772186" lon="35.504890442">
  <ele>650.833008</ele>
  <time>2011-10-15T06:29:09Z</time>
  <speed>3.180000</speed>
</trkpt>
<trkpt lat="33.004768372" lon="35.504844666">
  <ele>650.004883</ele>
  <time>2011-10-15T06:29:10Z</time>
  <speed>3.510000</speed>
</trkpt>
<trkpt lat="33.004753113" lon="35.504772186">
  <ele>648.926758</ele>
  <time>2011-10-15T06:29:12Z</time>
  <speed>3.770000</speed>
</trkpt>
<trkpt lat="33.004745483" lon="35.504741669">
  <ele>649.129883</ele>
  <time>2011-10-15T06:29:13Z</time>
  <speed>3.200000</speed>
</trkpt>
<trkpt lat="33.004730225" lon="35.504703522">
  <ele>649.098633</ele>
  <time>2011-10-15T06:29:14Z</time>
  <speed>2.990000</speed>
</trkpt>
<trkpt lat="33.004711151" lon="35.504657745">
  <ele>648.301758</ele>
  <time>2011-10-15T06:29:16Z</time>
  <speed>1.970000</speed>
</trkpt>
<trkpt lat="33.004695892" lon="35.504604340">
  <ele>647.989258</ele>
  <time>2011-10-15T06:29:18Z</time>
  <speed>2.010000</speed>
</trkpt>
<trkpt lat="33.004684448" lon="35.504554749">
  <ele>647.754883</ele>
  <time>2011-10-15T06:29:20Z</time>
  <speed>2.260000</speed>
</trkpt>
<trkpt lat="33.004676819" lon="35.504516602">
  <ele>647.083008</ele>
  <time>2011-10-15T06:29:22Z</time>
  <speed>2.600000</speed>
</trkpt>
<trkpt lat="33.004661560" lon="35.504440308">
  <ele>645.708008</ele>
  <time>2011-10-15T06:29:24Z</time>
  <speed>3.940000</speed>
</trkpt>
<trkpt lat="33.004653931" lon="35.504398346">
  <ele>644.973633</ele>
  <time>2011-10-15T06:29:25Z</time>
  <speed>4.030000</speed>
</trkpt>
<trkpt lat="33.004642487" lon="35.504356384">
  <ele>644.223633</ele>
  <time>2011-10-15T06:29:26Z</time>
  <speed>3.970000</speed>
</trkpt>
<trkpt lat="33.004634857" lon="35.504314423">
  <ele>643.958008</ele>
  <time>2011-10-15T06:29:27Z</time>
  <speed>3.360000</speed>
</trkpt>
<trkpt lat="33.004623413" lon="35.504280090">
  <ele>643.051758</ele>
  <time>2011-10-15T06:29:28Z</time>
  <speed>3.280000</speed>
</trkpt>
<trkpt lat="33.004608154" lon="35.504245758">
  <ele>642.458008</ele>
  <time>2011-10-15T06:29:29Z</time>
  <speed>3.440000</speed>
</trkpt>
<trkpt lat="33.004596710" lon="35.504215240">
  <ele>641.833008</ele>
  <time>2011-10-15T06:29:30Z</time>
  <speed>3.240000</speed>
</trkpt>
<trkpt lat="33.004573822" lon="35.504146576">
  <ele>642.067383</ele>
  <time>2011-10-15T06:29:31Z</time>
  <speed>3.760000</speed>
</trkpt>
<trkpt lat="33.004550934" lon="35.504108429">
  <ele>641.723633</ele>
  <time>2011-10-15T06:29:32Z</time>
  <speed>3.150000</speed>
</trkpt>
<trkpt lat="33.004539490" lon="35.504074097">
  <ele>641.192383</ele>
  <time>2011-10-15T06:29:33Z</time>
  <speed>2.910000</speed>
</trkpt>
<trkpt lat="33.004531860" lon="35.504043579">
  <ele>640.536133</ele>
  <time>2011-10-15T06:29:34Z</time>
  <speed>3.190000</speed>
</trkpt>
<trkpt lat="33.004520416" lon="35.504001617">
  <ele>639.770508</ele>
  <time>2011-10-15T06:29:35Z</time>
  <speed>3.330000</speed>
</trkpt>
<trkpt lat="33.004512787" lon="35.503963470">
  <ele>639.629883</ele>
  <time>2011-10-15T06:29:36Z</time>
  <speed>3.440000</speed>
</trkpt>
<trkpt lat="33.004493713" lon="35.503917694">
  <ele>638.598633</ele>
  <time>2011-10-15T06:29:37Z</time>
  <speed>3.530000</speed>
</trkpt>
<trkpt lat="33.004474640" lon="35.503864288">
  <ele>639.270508</ele>
  <time>2011-10-15T06:29:38Z</time>
  <speed>3.280000</speed>
</trkpt>
<trkpt lat="33.004459381" lon="35.503822327">
  <ele>638.520508</ele>
  <time>2011-10-15T06:29:39Z</time>
  <speed>4.180000</speed>
</trkpt>
<trkpt lat="33.004428864" lon="35.503757477">
  <ele>638.848633</ele>
  <time>2011-10-15T06:29:40Z</time>
  <speed>5.150000</speed>
</trkpt>
<trkpt lat="33.004405975" lon="35.503700256">
  <ele>638.942383</ele>
  <time>2011-10-15T06:29:41Z</time>
  <speed>4.720000</speed>
</trkpt>
<trkpt lat="33.004383087" lon="35.503658295">
  <ele>638.426758</ele>
  <time>2011-10-15T06:29:42Z</time>
  <speed>4.970000</speed>
</trkpt>
<trkpt lat="33.004341125" lon="35.503578186">
  <ele>638.817383</ele>
  <time>2011-10-15T06:29:43Z</time>
  <speed>6.830000</speed>
</trkpt>
<trkpt lat="33.004302979" lon="35.503520966">
  <ele>638.426758</ele>
  <time>2011-10-15T06:29:44Z</time>
  <speed>6.510000</speed>
</trkpt>
<trkpt lat="33.004261017" lon="35.503467560">
  <ele>637.598633</ele>
  <time>2011-10-15T06:29:45Z</time>
  <speed>6.330000</speed>
</trkpt>
<trkpt lat="33.004215240" lon="35.503410339">
  <ele>637.676758</ele>
  <time>2011-10-15T06:29:46Z</time>
  <speed>6.500000</speed>
</trkpt>
<trkpt lat="33.004169464" lon="35.503364563">
  <ele>636.864258</ele>
  <time>2011-10-15T06:29:47Z</time>
  <speed>6.060000</speed>
</trkpt>
<trkpt lat="33.004116058" lon="35.503322601">
  <ele>637.317383</ele>
  <time>2011-10-15T06:29:48Z</time>
  <speed>6.430000</speed>
</trkpt>
<trkpt lat="33.004070282" lon="35.503273010">
  <ele>636.567383</ele>
  <time>2011-10-15T06:29:49Z</time>
  <speed>6.760000</speed>
</trkpt>
<trkpt lat="33.004028320" lon="35.503196716">
  <ele>636.833008</ele>
  <time>2011-10-15T06:29:50Z</time>
  <speed>7.440000</speed>
</trkpt>
<trkpt lat="33.004005432" lon="35.503101349">
  <ele>636.301758</ele>
  <time>2011-10-15T06:29:51Z</time>
  <speed>7.890000</speed>
</trkpt>
<trkpt lat="33.003986359" lon="35.503017426">
  <ele>637.348633</ele>
  <time>2011-10-15T06:29:52Z</time>
  <speed>8.130000</speed>
</trkpt>
<trkpt lat="33.003982544" lon="35.502941132">
  <ele>637.239258</ele>
  <time>2011-10-15T06:29:53Z</time>
  <speed>6.640000</speed>
</trkpt>
<trkpt lat="33.003993988" lon="35.502872467">
  <ele>637.208008</ele>
  <time>2011-10-15T06:29:54Z</time>
  <speed>5.410000</speed>
</trkpt>
<trkpt lat="33.004001617" lon="35.502822876">
  <ele>637.145508</ele>
  <time>2011-10-15T06:29:55Z</time>
  <speed>3.920000</speed>
</trkpt>
<trkpt lat="33.004005432" lon="35.502788544">
  <ele>637.583008</ele>
  <time>2011-10-15T06:29:56Z</time>
  <speed>3.630000</speed>
</trkpt>
<trkpt lat="33.004009247" lon="35.502738953">
  <ele>638.317383</ele>
  <time>2011-10-15T06:29:57Z</time>
  <speed>3.500000</speed>
</trkpt>
<trkpt lat="33.004020691" lon="35.502708435">
  <ele>638.442383</ele>
  <time>2011-10-15T06:29:58Z</time>
  <speed>3.270000</speed>
</trkpt>
<trkpt lat="33.004024506" lon="35.502674103">
  <ele>638.942383</ele>
  <time>2011-10-15T06:29:59Z</time>
  <speed>2.690000</speed>
</trkpt>
<trkpt lat="33.004032135" lon="35.502635956">
  <ele>639.223633</ele>
  <time>2011-10-15T06:30:00Z</time>
  <speed>3.210000</speed>
</trkpt>
<trkpt lat="33.004035950" lon="35.502597809">
  <ele>639.958008</ele>
  <time>2011-10-15T06:30:01Z</time>
  <speed>2.790000</speed>
</trkpt>
<trkpt lat="33.004051208" lon="35.502540588">
  <ele>639.926758</ele>
  <time>2011-10-15T06:30:03Z</time>
  <speed>2.650000</speed>
</trkpt>
<trkpt lat="33.004085541" lon="35.502487183">
  <ele>640.020508</ele>
  <time>2011-10-15T06:30:05Z</time>
  <speed>3.070000</speed>
</trkpt>
<trkpt lat="33.004100800" lon="35.502456665">
  <ele>640.270508</ele>
  <time>2011-10-15T06:30:06Z</time>
  <speed>3.170000</speed>
</trkpt>
<trkpt lat="33.004116058" lon="35.502422333">
  <ele>640.770508</ele>
  <time>2011-10-15T06:30:07Z</time>
  <speed>2.940000</speed>
</trkpt>
<trkpt lat="33.004131317" lon="35.502395630">
  <ele>640.770508</ele>
  <time>2011-10-15T06:30:08Z</time>
  <speed>2.740000</speed>
</trkpt>
<trkpt lat="33.004150391" lon="35.502368927">
  <ele>641.083008</ele>
  <time>2011-10-15T06:30:09Z</time>
  <speed>2.650000</speed>
</trkpt>
<trkpt lat="33.004154205" lon="35.502307892">
  <ele>642.129883</ele>
  <time>2011-10-15T06:30:11Z</time>
  <speed>2.360000</speed>
</trkpt>
<trkpt lat="33.004173279" lon="35.502258301">
  <ele>642.520508</ele>
  <time>2011-10-15T06:30:13Z</time>
  <speed>2.870000</speed>
</trkpt>
<trkpt lat="33.004192352" lon="35.502235413">
  <ele>642.629883</ele>
  <time>2011-10-15T06:30:14Z</time>
  <speed>2.640000</speed>
</trkpt>
<trkpt lat="33.004215240" lon="35.502212524">
  <ele>642.614258</ele>
  <time>2011-10-15T06:30:15Z</time>
  <speed>2.410000</speed>
</trkpt>
<trkpt lat="33.004230499" lon="35.502155304">
  <ele>642.926758</ele>
  <time>2011-10-15T06:30:17Z</time>
  <speed>2.060000</speed>
</trkpt>
<trkpt lat="33.004245758" lon="35.502117157">
  <ele>643.708008</ele>
  <time>2011-10-15T06:30:19Z</time>
  <speed>1.980000</speed>
</trkpt>
<trkpt lat="33.004253387" lon="35.502067566">
  <ele>643.958008</ele>
  <time>2011-10-15T06:30:21Z</time>
  <speed>2.190000</speed>
</trkpt>
<trkpt lat="33.004276276" lon="35.502033234">
  <ele>644.739258</ele>
  <time>2011-10-15T06:30:23Z</time>
  <speed>1.950000</speed>
</trkpt>
<trkpt lat="33.004295349" lon="35.501995087">
  <ele>645.051758</ele>
  <time>2011-10-15T06:30:25Z</time>
  <speed>1.630000</speed>
</trkpt>
<trkpt lat="33.004295349" lon="35.501949310">
  <ele>645.317383</ele>
  <time>2011-10-15T06:30:27Z</time>
  <speed>1.820000</speed>
</trkpt>
<trkpt lat="33.004283905" lon="35.501888275">
  <ele>648.254883</ele>
  <time>2011-10-15T06:30:29Z</time>
  <speed>1.620000</speed>
</trkpt>
<trkpt lat="33.004295349" lon="35.501853943">
  <ele>649.348633</ele>
  <time>2011-10-15T06:30:31Z</time>
  <speed>1.890000</speed>
</trkpt>
<trkpt lat="33.004295349" lon="35.501800537">
  <ele>650.504883</ele>
  <time>2011-10-15T06:30:34Z</time>
  <speed>1.600000</speed>
</trkpt>
<trkpt lat="33.004314423" lon="35.501762390">
  <ele>650.629883</ele>
  <time>2011-10-15T06:30:37Z</time>
  <speed>1.700000</speed>
</trkpt>
<trkpt lat="33.004325867" lon="35.501731873">
  <ele>651.442383</ele>
  <time>2011-10-15T06:30:39Z</time>
  <speed>1.600000</speed>
</trkpt>
<trkpt lat="33.004341125" lon="35.501701355">
  <ele>651.520508</ele>
  <time>2011-10-15T06:30:41Z</time>
  <speed>1.600000</speed>
</trkpt>
<trkpt lat="33.004344940" lon="35.501667023">
  <ele>652.020508</ele>
  <time>2011-10-15T06:30:43Z</time>
  <speed>1.770000</speed>
</trkpt>
<trkpt lat="33.004348755" lon="35.501636505">
  <ele>652.067383</ele>
  <time>2011-10-15T06:30:44Z</time>
  <speed>2.490000</speed>
</trkpt>
<trkpt lat="33.004360199" lon="35.501605988">
  <ele>651.661133</ele>
  <time>2011-10-15T06:30:45Z</time>
  <speed>1.990000</speed>
</trkpt>
<trkpt lat="33.004360199" lon="35.501567841">
  <ele>652.036133</ele>
  <time>2011-10-15T06:30:46Z</time>
  <speed>2.210000</speed>
</trkpt>
<trkpt lat="33.004375458" lon="35.501518250">
  <ele>652.051758</ele>
  <time>2011-10-15T06:30:48Z</time>
  <speed>1.920000</speed>
</trkpt>
<trkpt lat="33.004386902" lon="35.501472473">
  <ele>652.833008</ele>
  <time>2011-10-15T06:30:50Z</time>
  <speed>2.010000</speed>
</trkpt>
<trkpt lat="33.004402161" lon="35.501438141">
  <ele>652.786133</ele>
  <time>2011-10-15T06:30:52Z</time>
  <speed>2.030000</speed>
</trkpt>
<trkpt lat="33.004413605" lon="35.501399994">
  <ele>653.067383</ele>
  <time>2011-10-15T06:30:54Z</time>
  <speed>1.590000</speed>
</trkpt>
<trkpt lat="33.004425049" lon="35.501358032">
  <ele>653.036133</ele>
  <time>2011-10-15T06:30:56Z</time>
  <speed>1.620000</speed>
</trkpt>
<trkpt lat="33.004432678" lon="35.501323700">
  <ele>653.067383</ele>
  <time>2011-10-15T06:30:58Z</time>
  <speed>1.460000</speed>
</trkpt>
<trkpt lat="33.004440308" lon="35.501293182">
  <ele>653.333008</ele>
  <time>2011-10-15T06:31:00Z</time>
  <speed>1.560000</speed>
</trkpt>
<trkpt lat="33.004432678" lon="35.501255035">
  <ele>654.786133</ele>
  <time>2011-10-15T06:31:02Z</time>
  <speed>1.450000</speed>
</trkpt>
<trkpt lat="33.004440308" lon="35.501220703">
  <ele>655.864258</ele>
  <time>2011-10-15T06:31:04Z</time>
  <speed>1.620000</speed>
</trkpt>
<trkpt lat="33.004447937" lon="35.501182556">
  <ele>656.676758</ele>
  <time>2011-10-15T06:31:07Z</time>
  <speed>0.960000</speed>
</trkpt>
<trkpt lat="33.004455566" lon="35.501144409">
  <ele>656.395508</ele>
  <time>2011-10-15T06:31:09Z</time>
  <speed>1.380000</speed>
</trkpt>
<trkpt lat="33.004440308" lon="35.501117706">
  <ele>657.520508</ele>
  <time>2011-10-15T06:31:10Z</time>
  <speed>1.380000</speed>
</trkpt>
<trkpt lat="33.004428864" lon="35.501075745">
  <ele>659.629883</ele>
  <time>2011-10-15T06:31:12Z</time>
  <speed>1.560000</speed>
</trkpt>
<trkpt lat="33.004428864" lon="35.501037598">
  <ele>659.817383</ele>
  <time>2011-10-15T06:31:14Z</time>
  <speed>1.700000</speed>
</trkpt>
<trkpt lat="33.004432678" lon="35.500991821">
  <ele>660.129883</ele>
  <time>2011-10-15T06:31:16Z</time>
  <speed>1.700000</speed>
</trkpt>
<trkpt lat="33.004432678" lon="35.500953674">
  <ele>660.411133</ele>
  <time>2011-10-15T06:31:18Z</time>
  <speed>1.520000</speed>
</trkpt>
<trkpt lat="33.004436493" lon="35.500919342">
  <ele>659.926758</ele>
  <time>2011-10-15T06:31:20Z</time>
  <speed>1.700000</speed>
</trkpt>
<trkpt lat="33.004428864" lon="35.500877380">
  <ele>661.473633</ele>
  <time>2011-10-15T06:31:23Z</time>
  <speed>1.630000</speed>
</trkpt>
<trkpt lat="33.004413605" lon="35.500843048">
  <ele>663.426758</ele>
  <time>2011-10-15T06:31:25Z</time>
  <speed>1.440000</speed>
</trkpt>
<trkpt lat="33.004409790" lon="35.500816345">
  <ele>664.551758</ele>
  <time>2011-10-15T06:31:27Z</time>
  <speed>1.430000</speed>
</trkpt>
<trkpt lat="33.004417419" lon="35.500782013">
  <ele>665.848633</ele>
  <time>2011-10-15T06:31:29Z</time>
  <speed>1.170000</speed>
</trkpt>
<trkpt lat="33.004405975" lon="35.500755310">
  <ele>666.348633</ele>
  <time>2011-10-15T06:31:31Z</time>
  <speed>1.350000</speed>
</trkpt>
<trkpt lat="33.004398346" lon="35.500724792">
  <ele>666.942383</ele>
  <time>2011-10-15T06:31:33Z</time>
  <speed>1.700000</speed>
</trkpt>
<trkpt lat="33.004398346" lon="35.500686646">
  <ele>667.926758</ele>
  <time>2011-10-15T06:31:35Z</time>
  <speed>1.560000</speed>
</trkpt>
<trkpt lat="33.004394531" lon="35.500656128">
  <ele>668.879883</ele>
  <time>2011-10-15T06:31:37Z</time>
  <speed>1.510000</speed>
</trkpt>
<trkpt lat="33.004386902" lon="35.500617981">
  <ele>669.629883</ele>
  <time>2011-10-15T06:31:39Z</time>
  <speed>1.340000</speed>
</trkpt>
<trkpt lat="33.004375458" lon="35.500587463">
  <ele>670.411133</ele>
  <time>2011-10-15T06:31:41Z</time>
  <speed>1.510000</speed>
</trkpt>
<trkpt lat="33.004367828" lon="35.500549316">
  <ele>670.926758</ele>
  <time>2011-10-15T06:31:43Z</time>
  <speed>1.660000</speed>
</trkpt>
<trkpt lat="33.004360199" lon="35.500503540">
  <ele>672.426758</ele>
  <time>2011-10-15T06:31:45Z</time>
  <speed>1.880000</speed>
</trkpt>
<trkpt lat="33.004356384" lon="35.500465393">
  <ele>672.786133</ele>
  <time>2011-10-15T06:31:47Z</time>
  <speed>1.630000</speed>
</trkpt>
<trkpt lat="33.004341125" lon="35.500434875">
  <ele>673.739258</ele>
  <time>2011-10-15T06:31:49Z</time>
  <speed>1.590000</speed>
</trkpt>
<trkpt lat="33.004333496" lon="35.500392914">
  <ele>674.145508</ele>
  <time>2011-10-15T06:31:51Z</time>
  <speed>1.800000</speed>
</trkpt>
<trkpt lat="33.004325867" lon="35.500354767">
  <ele>674.504883</ele>
  <time>2011-10-15T06:31:53Z</time>
  <speed>1.890000</speed>
</trkpt>
<trkpt lat="33.004329681" lon="35.500308990">
  <ele>676.348633</ele>
  <time>2011-10-15T06:31:55Z</time>
  <speed>1.650000</speed>
</trkpt>
<trkpt lat="33.004325867" lon="35.500270844">
  <ele>678.583008</ele>
  <time>2011-10-15T06:31:57Z</time>
  <speed>1.830000</speed>
</trkpt>
<trkpt lat="33.004325867" lon="35.500225067">
  <ele>681.192383</ele>
  <time>2011-10-15T06:31:59Z</time>
  <speed>1.730000</speed>
</trkpt>
<trkpt lat="33.004329681" lon="35.500186920">
  <ele>680.770508</ele>
  <time>2011-10-15T06:32:01Z</time>
  <speed>2.060000</speed>
</trkpt>
<trkpt lat="33.004337311" lon="35.500148773">
  <ele>680.973633</ele>
  <time>2011-10-15T06:32:03Z</time>
  <speed>1.710000</speed>
</trkpt>
<trkpt lat="33.004337311" lon="35.500110626">
  <ele>680.911133</ele>
  <time>2011-10-15T06:32:05Z</time>
  <speed>1.780000</speed>
</trkpt>
<trkpt lat="33.004314423" lon="35.500064850">
  <ele>681.708008</ele>
  <time>2011-10-15T06:32:07Z</time>
  <speed>1.810000</speed>
</trkpt>
<trkpt lat="33.004283905" lon="35.500022888">
  <ele>682.161133</ele>
  <time>2011-10-15T06:32:09Z</time>
  <speed>1.900000</speed>
</trkpt>
<trkpt lat="33.004253387" lon="35.499992371">
  <ele>681.661133</ele>
  <time>2011-10-15T06:32:11Z</time>
  <speed>1.830000</speed>
</trkpt>
<trkpt lat="33.004215240" lon="35.499969482">
  <ele>681.629883</ele>
  <time>2011-10-15T06:32:13Z</time>
  <speed>2.220000</speed>
</trkpt>
<trkpt lat="33.004180908" lon="35.499950409">
  <ele>681.551758</ele>
  <time>2011-10-15T06:32:15Z</time>
  <speed>2.020000</speed>
</trkpt>
<trkpt lat="33.004142761" lon="35.499938965">
  <ele>679.911133</ele>
  <time>2011-10-15T06:32:17Z</time>
  <speed>2.300000</speed>
</trkpt>
<trkpt lat="33.004100800" lon="35.499927521">
  <ele>679.364258</ele>
  <time>2011-10-15T06:32:19Z</time>
  <speed>2.640000</speed>
</trkpt>
<trkpt lat="33.004058838" lon="35.499912262">
  <ele>678.551758</ele>
  <time>2011-10-15T06:32:21Z</time>
  <speed>2.580000</speed>
</trkpt>
<trkpt lat="33.004013062" lon="35.499900818">
  <ele>678.161133</ele>
  <time>2011-10-15T06:32:23Z</time>
  <speed>2.480000</speed>
</trkpt>
<trkpt lat="33.003955841" lon="35.499893188">
  <ele>677.536133</ele>
  <time>2011-10-15T06:32:25Z</time>
  <speed>3.110000</speed>
</trkpt>
<trkpt lat="33.003929138" lon="35.499897003">
  <ele>676.473633</ele>
  <time>2011-10-15T06:32:26Z</time>
  <speed>2.990000</speed>
</trkpt>
<trkpt lat="33.003879547" lon="35.499900818">
  <ele>675.958008</ele>
  <time>2011-10-15T06:32:28Z</time>
  <speed>3.200000</speed>
</trkpt>
<trkpt lat="33.003849030" lon="35.499900818">
  <ele>675.208008</ele>
  <time>2011-10-15T06:32:29Z</time>
  <speed>3.170000</speed>
</trkpt>
<trkpt lat="33.003822327" lon="35.499900818">
  <ele>674.958008</ele>
  <time>2011-10-15T06:32:30Z</time>
  <speed>3.200000</speed>
</trkpt>
<trkpt lat="33.003768921" lon="35.499897003">
  <ele>674.536133</ele>
  <time>2011-10-15T06:32:32Z</time>
  <speed>2.680000</speed>
</trkpt>
<trkpt lat="33.003723145" lon="35.499881744">
  <ele>674.098633</ele>
  <time>2011-10-15T06:32:34Z</time>
  <speed>2.670000</speed>
</trkpt>
<trkpt lat="33.003681183" lon="35.499862671">
  <ele>674.098633</ele>
  <time>2011-10-15T06:32:36Z</time>
  <speed>2.380000</speed>
</trkpt>
<trkpt lat="33.003639221" lon="35.499843597">
  <ele>673.817383</ele>
  <time>2011-10-15T06:32:38Z</time>
  <speed>2.240000</speed>
</trkpt>
<trkpt lat="33.003608704" lon="35.499820709">
  <ele>673.676758</ele>
  <time>2011-10-15T06:32:40Z</time>
  <speed>2.160000</speed>
</trkpt>
<trkpt lat="33.003566742" lon="35.499801636">
  <ele>672.942383</ele>
  <time>2011-10-15T06:32:42Z</time>
  <speed>2.350000</speed>
</trkpt>
<trkpt lat="33.003528595" lon="35.499782562">
  <ele>672.551758</ele>
  <time>2011-10-15T06:32:44Z</time>
  <speed>2.510000</speed>
</trkpt>
<trkpt lat="33.003486633" lon="35.499767303">
  <ele>672.598633</ele>
  <time>2011-10-15T06:32:46Z</time>
  <speed>2.550000</speed>
</trkpt>
<trkpt lat="33.003444672" lon="35.499744415">
  <ele>672.817383</ele>
  <time>2011-10-15T06:32:48Z</time>
  <speed>2.540000</speed>
</trkpt>
<trkpt lat="33.003398895" lon="35.499729156">
  <ele>672.911133</ele>
  <time>2011-10-15T06:32:50Z</time>
  <speed>2.440000</speed>
</trkpt>
<trkpt lat="33.003349304" lon="35.499721527">
  <ele>673.583008</ele>
  <time>2011-10-15T06:32:52Z</time>
  <speed>2.510000</speed>
</trkpt>
<trkpt lat="33.003303528" lon="35.499706268">
  <ele>674.348633</ele>
  <time>2011-10-15T06:32:54Z</time>
  <speed>2.720000</speed>
</trkpt>
<trkpt lat="33.003257751" lon="35.499691010">
  <ele>674.801758</ele>
  <time>2011-10-15T06:32:56Z</time>
  <speed>2.800000</speed>
</trkpt>
<trkpt lat="33.003231049" lon="35.499679565">
  <ele>675.067383</ele>
  <time>2011-10-15T06:32:57Z</time>
  <speed>2.870000</speed>
</trkpt>
<trkpt lat="33.003208160" lon="35.499668121">
  <ele>675.520508</ele>
  <time>2011-10-15T06:32:58Z</time>
  <speed>2.560000</speed>
</trkpt>
<trkpt lat="33.003158569" lon="35.499652863">
  <ele>676.379883</ele>
  <time>2011-10-15T06:33:00Z</time>
  <speed>2.510000</speed>
</trkpt>
<trkpt lat="33.003120422" lon="35.499641418">
  <ele>676.348633</ele>
  <time>2011-10-15T06:33:02Z</time>
  <speed>2.110000</speed>
</trkpt>
<trkpt lat="33.003086090" lon="35.499618530">
  <ele>676.661133</ele>
  <time>2011-10-15T06:33:04Z</time>
  <speed>1.710000</speed>
</trkpt>
<trkpt lat="33.003067017" lon="35.499584198">
  <ele>677.051758</ele>
  <time>2011-10-15T06:33:06Z</time>
  <speed>2.020000</speed>
</trkpt>
<trkpt lat="33.003055573" lon="35.499542236">
  <ele>677.864258</ele>
  <time>2011-10-15T06:33:08Z</time>
  <speed>1.600000</speed>
</trkpt>
<trkpt lat="33.003025055" lon="35.499507904">
  <ele>679.504883</ele>
  <time>2011-10-15T06:33:10Z</time>
  <speed>1.620000</speed>
</trkpt>
<trkpt lat="33.002990723" lon="35.499485016">
  <ele>679.426758</ele>
  <time>2011-10-15T06:33:13Z</time>
  <speed>1.740000</speed>
</trkpt>
<trkpt lat="33.002971649" lon="35.499462128">
  <ele>679.817383</ele>
  <time>2011-10-15T06:33:14Z</time>
  <speed>1.870000</speed>
</trkpt>
<trkpt lat="33.002948761" lon="35.499423981">
  <ele>680.161133</ele>
  <time>2011-10-15T06:33:16Z</time>
  <speed>2.530000</speed>
</trkpt>
<trkpt lat="33.002918243" lon="35.499393463">
  <ele>680.364258</ele>
  <time>2011-10-15T06:33:18Z</time>
  <speed>1.790000</speed>
</trkpt>
<trkpt lat="33.002891541" lon="35.499362946">
  <ele>679.817383</ele>
  <time>2011-10-15T06:33:20Z</time>
  <speed>1.920000</speed>
</trkpt>
<trkpt lat="33.002853394" lon="35.499332428">
  <ele>678.942383</ele>
  <time>2011-10-15T06:33:22Z</time>
  <speed>2.430000</speed>
</trkpt>
<trkpt lat="33.002807617" lon="35.499305725">
  <ele>678.208008</ele>
  <time>2011-10-15T06:33:24Z</time>
  <speed>2.470000</speed>
</trkpt>
<trkpt lat="33.002765656" lon="35.499271393">
  <ele>678.176758</ele>
  <time>2011-10-15T06:33:26Z</time>
  <speed>2.370000</speed>
</trkpt>
<trkpt lat="33.002727509" lon="35.499237061">
  <ele>679.239258</ele>
  <time>2011-10-15T06:33:28Z</time>
  <speed>2.210000</speed>
</trkpt>
<trkpt lat="33.002708435" lon="35.499214172">
  <ele>679.676758</ele>
  <time>2011-10-15T06:33:29Z</time>
  <speed>2.360000</speed>
</trkpt>
<trkpt lat="33.002674103" lon="35.499176025">
  <ele>680.504883</ele>
  <time>2011-10-15T06:33:31Z</time>
  <speed>2.410000</speed>
</trkpt>
<trkpt lat="33.002643585" lon="35.499149323">
  <ele>679.208008</ele>
  <time>2011-10-15T06:33:33Z</time>
  <speed>2.250000</speed>
</trkpt>
<trkpt lat="33.002613068" lon="35.499114990">
  <ele>678.473633</ele>
  <time>2011-10-15T06:33:35Z</time>
  <speed>1.970000</speed>
</trkpt>
<trkpt lat="33.002586365" lon="35.499088287">
  <ele>678.723633</ele>
  <time>2011-10-15T06:33:37Z</time>
  <speed>1.410000</speed>
</trkpt>
<trkpt lat="33.002555847" lon="35.499065399">
  <ele>679.364258</ele>
  <time>2011-10-15T06:33:39Z</time>
  <speed>1.970000</speed>
</trkpt>
<trkpt lat="33.002521515" lon="35.499034882">
  <ele>678.801758</ele>
  <time>2011-10-15T06:33:41Z</time>
  <speed>2.190000</speed>
</trkpt>
<trkpt lat="33.002483368" lon="35.499008179">
  <ele>679.645508</ele>
  <time>2011-10-15T06:33:43Z</time>
  <speed>2.120000</speed>
</trkpt>
<trkpt lat="33.002449036" lon="35.498973846">
  <ele>679.239258</ele>
  <time>2011-10-15T06:33:45Z</time>
  <speed>2.090000</speed>
</trkpt>
<trkpt lat="33.002418518" lon="35.498958588">
  <ele>679.661133</ele>
  <time>2011-10-15T06:33:47Z</time>
  <speed>1.560000</speed>
</trkpt>
<trkpt lat="33.002380371" lon="35.498924255">
  <ele>679.895508</ele>
  <time>2011-10-15T06:33:49Z</time>
  <speed>1.980000</speed>
</trkpt>
<trkpt lat="33.002338409" lon="35.498905182">
  <ele>679.833008</ele>
  <time>2011-10-15T06:33:51Z</time>
  <speed>2.410000</speed>
</trkpt>
<trkpt lat="33.002296448" lon="35.498893738">
  <ele>679.567383</ele>
  <time>2011-10-15T06:33:53Z</time>
  <speed>2.300000</speed>
</trkpt>
<trkpt lat="33.002250671" lon="35.498878479">
  <ele>680.270508</ele>
  <time>2011-10-15T06:33:55Z</time>
  <speed>2.560000</speed>
</trkpt>
<trkpt lat="33.002220154" lon="35.498874664">
  <ele>681.786133</ele>
  <time>2011-10-15T06:33:56Z</time>
  <speed>2.470000</speed>
</trkpt>
<trkpt lat="33.002178192" lon="35.498855591">
  <ele>682.739258</ele>
  <time>2011-10-15T06:33:58Z</time>
  <speed>2.530000</speed>
</trkpt>
<trkpt lat="33.002136230" lon="35.498828888">
  <ele>682.270508</ele>
  <time>2011-10-15T06:34:00Z</time>
  <speed>2.490000</speed>
</trkpt>
<trkpt lat="33.002090454" lon="35.498825073">
  <ele>681.958008</ele>
  <time>2011-10-15T06:34:02Z</time>
  <speed>2.780000</speed>
</trkpt>
<trkpt lat="33.002044678" lon="35.498844147">
  <ele>683.801758</ele>
  <time>2011-10-15T06:34:04Z</time>
  <speed>1.860000</speed>
</trkpt>
<trkpt lat="33.001998901" lon="35.498847961">
  <ele>684.161133</ele>
  <time>2011-10-15T06:34:06Z</time>
  <speed>2.480000</speed>
</trkpt>
<trkpt lat="33.001956940" lon="35.498847961">
  <ele>684.176758</ele>
  <time>2011-10-15T06:34:08Z</time>
  <speed>2.060000</speed>
</trkpt>
<trkpt lat="33.001922607" lon="35.498844147">
  <ele>685.708008</ele>
  <time>2011-10-15T06:34:10Z</time>
  <speed>1.700000</speed>
</trkpt>
<trkpt lat="33.001880646" lon="35.498821259">
  <ele>686.395508</ele>
  <time>2011-10-15T06:34:12Z</time>
  <speed>2.160000</speed>
</trkpt>
<trkpt lat="33.001861572" lon="35.498771667">
  <ele>687.301758</ele>
  <time>2011-10-15T06:34:14Z</time>
  <speed>2.330000</speed>
</trkpt>
<trkpt lat="33.001834869" lon="35.498718262">
  <ele>687.895508</ele>
  <time>2011-10-15T06:34:16Z</time>
  <speed>2.130000</speed>
</trkpt>
<trkpt lat="33.001811981" lon="35.498672485">
  <ele>689.864258</ele>
  <time>2011-10-15T06:34:18Z</time>
  <speed>2.290000</speed>
</trkpt>
<trkpt lat="33.001777649" lon="35.498622894">
  <ele>691.442383</ele>
  <time>2011-10-15T06:34:20Z</time>
  <speed>2.410000</speed>
</trkpt>
<trkpt lat="33.001747131" lon="35.498588562">
  <ele>691.458008</ele>
  <time>2011-10-15T06:34:22Z</time>
  <speed>2.400000</speed>
</trkpt>
<trkpt lat="33.001708984" lon="35.498550415">
  <ele>692.223633</ele>
  <time>2011-10-15T06:34:24Z</time>
  <speed>2.400000</speed>
</trkpt>
<trkpt lat="33.001674652" lon="35.498523712">
  <ele>692.708008</ele>
  <time>2011-10-15T06:34:26Z</time>
  <speed>2.280000</speed>
</trkpt>
<trkpt lat="33.001644135" lon="35.498489380">
  <ele>691.708008</ele>
  <time>2011-10-15T06:34:28Z</time>
  <speed>2.250000</speed>
</trkpt>
<trkpt lat="33.001613617" lon="35.498435974">
  <ele>692.239258</ele>
  <time>2011-10-15T06:34:30Z</time>
  <speed>2.420000</speed>
</trkpt>
<trkpt lat="33.001594543" lon="35.498386383">
  <ele>692.348633</ele>
  <time>2011-10-15T06:34:32Z</time>
  <speed>2.350000</speed>
</trkpt>
<trkpt lat="33.001586914" lon="35.498344421">
  <ele>691.958008</ele>
  <time>2011-10-15T06:34:34Z</time>
  <speed>2.120000</speed>
</trkpt>
<trkpt lat="33.001571655" lon="35.498302460">
  <ele>692.879883</ele>
  <time>2011-10-15T06:34:36Z</time>
  <speed>2.220000</speed>
</trkpt>
<trkpt lat="33.001560211" lon="35.498271942">
  <ele>693.286133</ele>
  <time>2011-10-15T06:34:37Z</time>
  <speed>2.350000</speed>
</trkpt>
<trkpt lat="33.001560211" lon="35.498237610">
  <ele>693.583008</ele>
  <time>2011-10-15T06:34:38Z</time>
  <speed>2.370000</speed>
</trkpt>
<trkpt lat="33.001544952" lon="35.498184204">
  <ele>693.504883</ele>
  <time>2011-10-15T06:34:40Z</time>
  <speed>2.170000</speed>
</trkpt>
<trkpt lat="33.001529694" lon="35.498134613">
  <ele>692.551758</ele>
  <time>2011-10-15T06:34:42Z</time>
  <speed>2.640000</speed>
</trkpt>
<trkpt lat="33.001518250" lon="35.498104095">
  <ele>692.286133</ele>
  <time>2011-10-15T06:34:43Z</time>
  <speed>2.560000</speed>
</trkpt>
<trkpt lat="33.001510620" lon="35.498073578">
  <ele>691.176758</ele>
  <time>2011-10-15T06:34:44Z</time>
  <speed>2.770000</speed>
</trkpt>
<trkpt lat="33.001502991" lon="35.498020172">
  <ele>690.395508</ele>
  <time>2011-10-15T06:34:46Z</time>
  <speed>2.210000</speed>
</trkpt>
<trkpt lat="33.001495361" lon="35.497978210">
  <ele>690.239258</ele>
  <time>2011-10-15T06:34:48Z</time>
  <speed>2.160000</speed>
</trkpt>
<trkpt lat="33.001495361" lon="35.497924805">
  <ele>690.254883</ele>
  <time>2011-10-15T06:34:50Z</time>
  <speed>2.300000</speed>
</trkpt>
<trkpt lat="33.001502991" lon="35.497871399">
  <ele>689.848633</ele>
  <time>2011-10-15T06:34:52Z</time>
  <speed>2.020000</speed>
</trkpt>
<trkpt lat="33.001514435" lon="35.497833252">
  <ele>689.817383</ele>
  <time>2011-10-15T06:34:54Z</time>
  <speed>1.640000</speed>
</trkpt>
<trkpt lat="33.001529694" lon="35.497798920">
  <ele>690.473633</ele>
  <time>2011-10-15T06:34:56Z</time>
  <speed>2.150000</speed>
</trkpt>
<trkpt lat="33.001552582" lon="35.497756958">
  <ele>690.411133</ele>
  <time>2011-10-15T06:34:58Z</time>
  <speed>2.050000</speed>
</trkpt>
<trkpt lat="33.001575470" lon="35.497711182">
  <ele>690.301758</ele>
  <time>2011-10-15T06:35:00Z</time>
  <speed>1.760000</speed>
</trkpt>
<trkpt lat="33.001602173" lon="35.497688293">
  <ele>691.489258</ele>
  <time>2011-10-15T06:35:02Z</time>
  <speed>1.130000</speed>
</trkpt>
<trkpt lat="33.001625061" lon="35.497650146">
  <ele>692.786133</ele>
  <time>2011-10-15T06:35:08Z</time>
  <speed>1.230000</speed>
</trkpt>
<trkpt lat="33.001651764" lon="35.497631073">
  <ele>693.254883</ele>
  <time>2011-10-15T06:35:10Z</time>
  <speed>1.680000</speed>
</trkpt>
<trkpt lat="33.001689911" lon="35.497600555">
  <ele>692.958008</ele>
  <time>2011-10-15T06:35:12Z</time>
  <speed>2.420000</speed>
</trkpt>
<trkpt lat="33.001712799" lon="35.497577667">
  <ele>692.692383</ele>
  <time>2011-10-15T06:35:13Z</time>
  <speed>2.500000</speed>
</trkpt>
<trkpt lat="33.001754761" lon="35.497539520">
  <ele>692.348633</ele>
  <time>2011-10-15T06:35:15Z</time>
  <speed>2.380000</speed>
</trkpt>
<trkpt lat="33.001815796" lon="35.497516632">
  <ele>691.911133</ele>
  <time>2011-10-15T06:35:17Z</time>
  <speed>2.600000</speed>
</trkpt>
<trkpt lat="33.001842499" lon="35.497501373">
  <ele>691.817383</ele>
  <time>2011-10-15T06:35:18Z</time>
  <speed>2.160000</speed>
</trkpt>
<trkpt lat="33.001880646" lon="35.497478485">
  <ele>692.145508</ele>
  <time>2011-10-15T06:35:20Z</time>
  <speed>2.140000</speed>
</trkpt>
<trkpt lat="33.001926422" lon="35.497455597">
  <ele>692.520508</ele>
  <time>2011-10-15T06:35:22Z</time>
  <speed>2.510000</speed>
</trkpt>
<trkpt lat="33.001956940" lon="35.497447968">
  <ele>693.379883</ele>
  <time>2011-10-15T06:35:23Z</time>
  <speed>2.380000</speed>
</trkpt>
<trkpt lat="33.001998901" lon="35.497440338">
  <ele>693.911133</ele>
  <time>2011-10-15T06:35:25Z</time>
  <speed>2.210000</speed>
</trkpt>
<trkpt lat="33.002029419" lon="35.497436523">
  <ele>694.395508</ele>
  <time>2011-10-15T06:35:26Z</time>
  <speed>2.280000</speed>
</trkpt>
<trkpt lat="33.002056122" lon="35.497451782">
  <ele>693.879883</ele>
  <time>2011-10-15T06:35:28Z</time>
  <speed>2.020000</speed>
</trkpt>
<trkpt lat="33.002094269" lon="35.497482300">
  <ele>693.879883</ele>
  <time>2011-10-15T06:35:30Z</time>
  <speed>2.510000</speed>
</trkpt>
<trkpt lat="33.002136230" lon="35.497520447">
  <ele>694.411133</ele>
  <time>2011-10-15T06:35:32Z</time>
  <speed>2.420000</speed>
</trkpt>
<trkpt lat="33.002178192" lon="35.497554779">
  <ele>694.411133</ele>
  <time>2011-10-15T06:35:34Z</time>
  <speed>2.340000</speed>
</trkpt>
<trkpt lat="33.002208710" lon="35.497577667">
  <ele>694.958008</ele>
  <time>2011-10-15T06:35:36Z</time>
  <speed>1.720000</speed>
</trkpt>
<trkpt lat="33.002243042" lon="35.497592926">
  <ele>695.129883</ele>
  <time>2011-10-15T06:35:38Z</time>
  <speed>1.920000</speed>
</trkpt>
<trkpt lat="33.002285004" lon="35.497600555">
  <ele>695.004883</ele>
  <time>2011-10-15T06:35:40Z</time>
  <speed>1.970000</speed>
</trkpt>
<trkpt lat="33.002311707" lon="35.497608185">
  <ele>694.895508</ele>
  <time>2011-10-15T06:35:41Z</time>
  <speed>1.920000</speed>
</trkpt>
<trkpt lat="33.002376556" lon="35.497600555">
  <ele>694.270508</ele>
  <time>2011-10-15T06:35:43Z</time>
  <speed>2.570000</speed>
</trkpt>
<trkpt lat="33.002403259" lon="35.497596741">
  <ele>694.176758</ele>
  <time>2011-10-15T06:35:44Z</time>
  <speed>2.520000</speed>
</trkpt>
<trkpt lat="33.002449036" lon="35.497589111">
  <ele>694.895508</ele>
  <time>2011-10-15T06:35:46Z</time>
  <speed>1.690000</speed>
</trkpt>
<trkpt lat="33.002494812" lon="35.497558594">
  <ele>694.520508</ele>
  <time>2011-10-15T06:35:48Z</time>
  <speed>2.190000</speed>
</trkpt>
<trkpt lat="33.002529144" lon="35.497524261">
  <ele>694.536133</ele>
  <time>2011-10-15T06:35:50Z</time>
  <speed>2.480000</speed>
</trkpt>
<trkpt lat="33.002571106" lon="35.497489929">
  <ele>695.723633</ele>
  <time>2011-10-15T06:35:51Z</time>
  <speed>2.230000</speed>
</trkpt>
<trkpt lat="33.002590179" lon="35.497459412">
  <ele>696.192383</ele>
  <time>2011-10-15T06:35:52Z</time>
  <speed>1.600000</speed>
</trkpt>
<trkpt lat="33.002624512" lon="35.497413635">
  <ele>696.676758</ele>
  <time>2011-10-15T06:35:54Z</time>
  <speed>2.250000</speed>
</trkpt>
<trkpt lat="33.002647400" lon="35.497383118">
  <ele>696.723633</ele>
  <time>2011-10-15T06:35:55Z</time>
  <speed>2.460000</speed>
</trkpt>
<trkpt lat="33.002674103" lon="35.497341156">
  <ele>697.739258</ele>
  <time>2011-10-15T06:35:57Z</time>
  <speed>2.890000</speed>
</trkpt>
<trkpt lat="33.002696991" lon="35.497310638">
  <ele>698.145508</ele>
  <time>2011-10-15T06:35:58Z</time>
  <speed>2.840000</speed>
</trkpt>
<trkpt lat="33.002727509" lon="35.497261047">
  <ele>698.223633</ele>
  <time>2011-10-15T06:36:00Z</time>
  <speed>2.480000</speed>
</trkpt>
<trkpt lat="33.002746582" lon="35.497196198">
  <ele>697.786133</ele>
  <time>2011-10-15T06:36:02Z</time>
  <speed>2.670000</speed>
</trkpt>
<trkpt lat="33.002758026" lon="35.497165680">
  <ele>697.770508</ele>
  <time>2011-10-15T06:36:03Z</time>
  <speed>2.970000</speed>
</trkpt>
<trkpt lat="33.002761841" lon="35.497131348">
  <ele>697.676758</ele>
  <time>2011-10-15T06:36:04Z</time>
  <speed>3.160000</speed>
</trkpt>
<trkpt lat="33.002769470" lon="35.497100830">
  <ele>697.786133</ele>
  <time>2011-10-15T06:36:05Z</time>
  <speed>2.710000</speed>
</trkpt>
<trkpt lat="33.002780914" lon="35.497070313">
  <ele>697.708008</ele>
  <time>2011-10-15T06:36:06Z</time>
  <speed>3.250000</speed>
</trkpt>
<trkpt lat="33.002784729" lon="35.497032166">
  <ele>697.629883</ele>
  <time>2011-10-15T06:36:07Z</time>
  <speed>3.770000</speed>
</trkpt>
<trkpt lat="33.002799988" lon="35.496990204">
  <ele>697.161133</ele>
  <time>2011-10-15T06:36:08Z</time>
  <speed>4.800000</speed>
</trkpt>
<trkpt lat="33.002811432" lon="35.496936798">
  <ele>697.301758</ele>
  <time>2011-10-15T06:36:09Z</time>
  <speed>4.010000</speed>
</trkpt>
<trkpt lat="33.002830505" lon="35.496894836">
  <ele>697.504883</ele>
  <time>2011-10-15T06:36:10Z</time>
  <speed>4.350000</speed>
</trkpt>
<trkpt lat="33.002834320" lon="35.496845245">
  <ele>697.223633</ele>
  <time>2011-10-15T06:36:11Z</time>
  <speed>3.860000</speed>
</trkpt>
<trkpt lat="33.002845764" lon="35.496807098">
  <ele>697.161133</ele>
  <time>2011-10-15T06:36:12Z</time>
  <speed>3.310000</speed>
</trkpt>
<trkpt lat="33.002853394" lon="35.496765137">
  <ele>697.567383</ele>
  <time>2011-10-15T06:36:13Z</time>
  <speed>2.960000</speed>
</trkpt>
<trkpt lat="33.002861023" lon="35.496726990">
  <ele>697.442383</ele>
  <time>2011-10-15T06:36:14Z</time>
  <speed>3.080000</speed>
</trkpt>
<trkpt lat="33.002868652" lon="35.496688843">
  <ele>696.817383</ele>
  <time>2011-10-15T06:36:15Z</time>
  <speed>3.400000</speed>
</trkpt>
<trkpt lat="33.002872467" lon="35.496654510">
  <ele>696.504883</ele>
  <time>2011-10-15T06:36:16Z</time>
  <speed>2.870000</speed>
</trkpt>
<trkpt lat="33.002864838" lon="35.496616364">
  <ele>696.536133</ele>
  <time>2011-10-15T06:36:17Z</time>
  <speed>2.540000</speed>
</trkpt>
<trkpt lat="33.002857208" lon="35.496574402">
  <ele>696.364258</ele>
  <time>2011-10-15T06:36:18Z</time>
  <speed>2.510000</speed>
</trkpt>
<trkpt lat="33.002861023" lon="35.496505737">
  <ele>695.848633</ele>
  <time>2011-10-15T06:36:20Z</time>
  <speed>2.780000</speed>
</trkpt>
<trkpt lat="33.002880096" lon="35.496437073">
  <ele>695.598633</ele>
  <time>2011-10-15T06:36:22Z</time>
  <speed>2.920000</speed>
</trkpt>
<trkpt lat="33.002891541" lon="35.496406555">
  <ele>695.083008</ele>
  <time>2011-10-15T06:36:23Z</time>
  <speed>2.950000</speed>
</trkpt>
<trkpt lat="33.002906799" lon="35.496376038">
  <ele>694.426758</ele>
  <time>2011-10-15T06:36:24Z</time>
  <speed>2.930000</speed>
</trkpt>
<trkpt lat="33.002922058" lon="35.496341705">
  <ele>694.083008</ele>
  <time>2011-10-15T06:36:25Z</time>
  <speed>2.760000</speed>
</trkpt>
<trkpt lat="33.002929688" lon="35.496303558">
  <ele>693.723633</ele>
  <time>2011-10-15T06:36:26Z</time>
  <speed>2.450000</speed>
</trkpt>
<trkpt lat="33.002929688" lon="35.496242523">
  <ele>692.661133</ele>
  <time>2011-10-15T06:36:28Z</time>
  <speed>2.550000</speed>
</trkpt>
<trkpt lat="33.002925873" lon="35.496212006">
  <ele>692.270508</ele>
  <time>2011-10-15T06:36:29Z</time>
  <speed>2.130000</speed>
</trkpt>
<trkpt lat="33.002918243" lon="35.496181488">
  <ele>691.786133</ele>
  <time>2011-10-15T06:36:30Z</time>
  <speed>2.120000</speed>
</trkpt>
<trkpt lat="33.002929688" lon="35.496147156">
  <ele>690.958008</ele>
  <time>2011-10-15T06:36:31Z</time>
  <speed>2.330000</speed>
</trkpt>
<trkpt lat="33.002944946" lon="35.496093750">
  <ele>689.770508</ele>
  <time>2011-10-15T06:36:33Z</time>
  <speed>1.960000</speed>
</trkpt>
<trkpt lat="33.002948761" lon="35.496036530">
  <ele>689.176758</ele>
  <time>2011-10-15T06:36:35Z</time>
  <speed>2.110000</speed>
</trkpt>
<trkpt lat="33.002979279" lon="35.495998383">
  <ele>688.239258</ele>
  <time>2011-10-15T06:36:37Z</time>
  <speed>1.950000</speed>
</trkpt>
<trkpt lat="33.002994537" lon="35.495971680">
  <ele>688.004883</ele>
  <time>2011-10-15T06:36:38Z</time>
  <speed>2.250000</speed>
</trkpt>
<trkpt lat="33.003013611" lon="35.495941162">
  <ele>687.395508</ele>
  <time>2011-10-15T06:36:39Z</time>
  <speed>2.540000</speed>
</trkpt>
<trkpt lat="33.003028870" lon="35.495906830">
  <ele>686.833008</ele>
  <time>2011-10-15T06:36:40Z</time>
  <speed>2.530000</speed>
</trkpt>
<trkpt lat="33.003044128" lon="35.495807648">
  <ele>687.504883</ele>
  <time>2011-10-15T06:36:42Z</time>
  <speed>2.270000</speed>
</trkpt>
<trkpt lat="33.003070831" lon="35.495811462">
  <ele>686.301758</ele>
  <time>2011-10-15T06:36:44Z</time>
  <speed>1.070000</speed>
</trkpt>
<trkpt lat="33.003074646" lon="35.495857239">
  <ele>685.708008</ele>
  <time>2011-10-15T06:36:49Z</time>
  <speed>2.620000</speed>
</trkpt>
<trkpt lat="33.003082275" lon="35.495914459">
  <ele>685.645508</ele>
  <time>2011-10-15T06:36:51Z</time>
  <speed>2.510000</speed>
</trkpt>
<trkpt lat="33.003101349" lon="35.495960236">
  <ele>685.286133</ele>
  <time>2011-10-15T06:36:53Z</time>
  <speed>2.430000</speed>
</trkpt>
<trkpt lat="33.003124237" lon="35.495998383">
  <ele>685.129883</ele>
  <time>2011-10-15T06:36:55Z</time>
  <speed>2.360000</speed>
</trkpt>
<trkpt lat="33.003143311" lon="35.496040344">
  <ele>684.379883</ele>
  <time>2011-10-15T06:36:57Z</time>
  <speed>2.320000</speed>
</trkpt>
<trkpt lat="33.003154755" lon="35.496082306">
  <ele>684.504883</ele>
  <time>2011-10-15T06:36:58Z</time>
  <speed>2.730000</speed>
</trkpt>
<trkpt lat="33.003170013" lon="35.496116638">
  <ele>684.520508</ele>
  <time>2011-10-15T06:36:59Z</time>
  <speed>2.920000</speed>
</trkpt>
<trkpt lat="33.003196716" lon="35.496147156">
  <ele>684.583008</ele>
  <time>2011-10-15T06:37:00Z</time>
  <speed>2.730000</speed>
</trkpt>
<trkpt lat="33.003227234" lon="35.496170044">
  <ele>685.567383</ele>
  <time>2011-10-15T06:37:01Z</time>
  <speed>2.430000</speed>
</trkpt>
<trkpt lat="33.003265381" lon="35.496219635">
  <ele>685.426758</ele>
  <time>2011-10-15T06:37:03Z</time>
  <speed>2.700000</speed>
</trkpt>
<trkpt lat="33.003280640" lon="35.496250153">
  <ele>685.911133</ele>
  <time>2011-10-15T06:37:04Z</time>
  <speed>2.960000</speed>
</trkpt>
<trkpt lat="33.003288269" lon="35.496303558">
  <ele>687.223633</ele>
  <time>2011-10-15T06:37:05Z</time>
  <speed>2.610000</speed>
</trkpt>
<trkpt lat="33.003295898" lon="35.496341705">
  <ele>688.239258</ele>
  <time>2011-10-15T06:37:06Z</time>
  <speed>2.440000</speed>
</trkpt>
<trkpt lat="33.003311157" lon="35.496372223">
  <ele>688.176758</ele>
  <time>2011-10-15T06:37:07Z</time>
  <speed>2.490000</speed>
</trkpt>
<trkpt lat="33.003326416" lon="35.496398926">
  <ele>688.661133</ele>
  <time>2011-10-15T06:37:08Z</time>
  <speed>2.630000</speed>
</trkpt>
<trkpt lat="33.003334045" lon="35.496433258">
  <ele>688.942383</ele>
  <time>2011-10-15T06:37:09Z</time>
  <speed>2.560000</speed>
</trkpt>
<trkpt lat="33.003349304" lon="35.496459961">
  <ele>689.223633</ele>
  <time>2011-10-15T06:37:10Z</time>
  <speed>2.820000</speed>
</trkpt>
<trkpt lat="33.003364563" lon="35.496494293">
  <ele>689.536133</ele>
  <time>2011-10-15T06:37:11Z</time>
  <speed>3.220000</speed>
</trkpt>
<trkpt lat="33.003376007" lon="35.496528625">
  <ele>689.598633</ele>
  <time>2011-10-15T06:37:12Z</time>
  <speed>3.680000</speed>
</trkpt>
<trkpt lat="33.003387451" lon="35.496570587">
  <ele>690.020508</ele>
  <time>2011-10-15T06:37:13Z</time>
  <speed>3.860000</speed>
</trkpt>
<trkpt lat="33.003417969" lon="35.496604919">
  <ele>691.129883</ele>
  <time>2011-10-15T06:37:14Z</time>
  <speed>3.380000</speed>
</trkpt>
<trkpt lat="33.003452301" lon="35.496650696">
  <ele>690.817383</ele>
  <time>2011-10-15T06:37:16Z</time>
  <speed>2.360000</speed>
</trkpt>
<trkpt lat="33.003475189" lon="35.496673584">
  <ele>691.583008</ele>
  <time>2011-10-15T06:37:17Z</time>
  <speed>2.780000</speed>
</trkpt>
<trkpt lat="33.003501892" lon="35.496726990">
  <ele>692.161133</ele>
  <time>2011-10-15T06:37:19Z</time>
  <speed>2.650000</speed>
</trkpt>
<trkpt lat="33.003536224" lon="35.496776581">
  <ele>692.161133</ele>
  <time>2011-10-15T06:37:21Z</time>
  <speed>2.710000</speed>
</trkpt>
<trkpt lat="33.003566742" lon="35.496829987">
  <ele>693.192383</ele>
  <time>2011-10-15T06:37:23Z</time>
  <speed>2.700000</speed>
</trkpt>
<trkpt lat="33.003589630" lon="35.496891022">
  <ele>693.583008</ele>
  <time>2011-10-15T06:37:25Z</time>
  <speed>3.270000</speed>
</trkpt>
<trkpt lat="33.003589630" lon="35.496925354">
  <ele>693.395508</ele>
  <time>2011-10-15T06:37:26Z</time>
  <speed>3.600000</speed>
</trkpt>
<trkpt lat="33.003601074" lon="35.496967316">
  <ele>693.192383</ele>
  <time>2011-10-15T06:37:27Z</time>
  <speed>2.840000</speed>
</trkpt>
<trkpt lat="33.003612518" lon="35.496997833">
  <ele>692.786133</ele>
  <time>2011-10-15T06:37:28Z</time>
  <speed>2.370000</speed>
</trkpt>
<trkpt lat="33.003639221" lon="35.497051239">
  <ele>692.958008</ele>
  <time>2011-10-15T06:37:30Z</time>
  <speed>1.890000</speed>
</trkpt>
<trkpt lat="33.003658295" lon="35.497097015">
  <ele>693.004883</ele>
  <time>2011-10-15T06:37:32Z</time>
  <speed>2.320000</speed>
</trkpt>
<trkpt lat="33.003681183" lon="35.497150421">
  <ele>692.270508</ele>
  <time>2011-10-15T06:37:34Z</time>
  <speed>2.940000</speed>
</trkpt>
<trkpt lat="33.003692627" lon="35.497188568">
  <ele>692.473633</ele>
  <time>2011-10-15T06:37:35Z</time>
  <speed>3.210000</speed>
</trkpt>
<trkpt lat="33.003704071" lon="35.497219086">
  <ele>691.958008</ele>
  <time>2011-10-15T06:37:36Z</time>
  <speed>2.660000</speed>
</trkpt>
<trkpt lat="33.003738403" lon="35.497261047">
  <ele>690.754883</ele>
  <time>2011-10-15T06:37:38Z</time>
  <speed>1.810000</speed>
</trkpt>
<trkpt lat="33.003799438" lon="35.497280121">
  <ele>692.083008</ele>
  <time>2011-10-15T06:37:40Z</time>
  <speed>1.830000</speed>
</trkpt>
<trkpt lat="33.003849030" lon="35.497303009">
  <ele>694.504883</ele>
  <time>2011-10-15T06:37:42Z</time>
  <speed>1.830000</speed>
</trkpt>
<trkpt lat="33.003883362" lon="35.497303009">
  <ele>695.817383</ele>
  <time>2011-10-15T06:37:43Z</time>
  <speed>2.050000</speed>
</trkpt>
<trkpt lat="33.003921509" lon="35.497306824">
  <ele>696.348633</ele>
  <time>2011-10-15T06:37:45Z</time>
  <speed>1.520000</speed>
</trkpt>
<trkpt lat="33.003952026" lon="35.497325897">
  <ele>699.645508</ele>
  <time>2011-10-15T06:37:47Z</time>
  <speed>1.590000</speed>
</trkpt>
<trkpt lat="33.003974915" lon="35.497333527">
  <ele>701.708008</ele>
  <time>2011-10-15T06:37:48Z</time>
  <speed>1.250000</speed>
</trkpt>
<trkpt lat="33.003997803" lon="35.497337341">
  <ele>703.598633</ele>
  <time>2011-10-15T06:37:50Z</time>
  <speed>1.280000</speed>
</trkpt>
<trkpt lat="33.004028320" lon="35.497329712">
  <ele>704.629883</ele>
  <time>2011-10-15T06:37:52Z</time>
  <speed>2.230000</speed>
</trkpt>
<trkpt lat="33.004074097" lon="35.497318268">
  <ele>705.739258</ele>
  <time>2011-10-15T06:37:54Z</time>
  <speed>2.590000</speed>
</trkpt>
<trkpt lat="33.004116058" lon="35.497283936">
  <ele>706.036133</ele>
  <time>2011-10-15T06:37:56Z</time>
  <speed>2.560000</speed>
</trkpt>
<trkpt lat="33.004146576" lon="35.497257233">
  <ele>706.254883</ele>
  <time>2011-10-15T06:37:58Z</time>
  <speed>2.050000</speed>
</trkpt>
<trkpt lat="33.004177094" lon="35.497238159">
  <ele>706.395508</ele>
  <time>2011-10-15T06:38:00Z</time>
  <speed>1.820000</speed>
</trkpt>
<trkpt lat="33.004215240" lon="35.497230530">
  <ele>707.254883</ele>
  <time>2011-10-15T06:38:02Z</time>
  <speed>1.540000</speed>
</trkpt>
<trkpt lat="33.004264832" lon="35.497226715">
  <ele>707.848633</ele>
  <time>2011-10-15T06:38:04Z</time>
  <speed>2.390000</speed>
</trkpt>
<trkpt lat="33.004299164" lon="35.497200012">
  <ele>708.395508</ele>
  <time>2011-10-15T06:38:06Z</time>
  <speed>1.940000</speed>
</trkpt>
<trkpt lat="33.004337311" lon="35.497180939">
  <ele>708.004883</ele>
  <time>2011-10-15T06:38:08Z</time>
  <speed>1.430000</speed>
</trkpt>
<trkpt lat="33.004371643" lon="35.497180939">
  <ele>708.317383</ele>
  <time>2011-10-15T06:38:10Z</time>
  <speed>1.740000</speed>
</trkpt>
<trkpt lat="33.004405975" lon="35.497165680">
  <ele>708.973633</ele>
  <time>2011-10-15T06:38:12Z</time>
  <speed>1.750000</speed>
</trkpt>
<trkpt lat="33.004440308" lon="35.497150421">
  <ele>708.676758</ele>
  <time>2011-10-15T06:38:14Z</time>
  <speed>1.550000</speed>
</trkpt>
<trkpt lat="33.004470825" lon="35.497138977">
  <ele>708.864258</ele>
  <time>2011-10-15T06:38:16Z</time>
  <speed>1.770000</speed>
</trkpt>
<trkpt lat="33.004501343" lon="35.497116089">
  <ele>709.739258</ele>
  <time>2011-10-15T06:38:18Z</time>
  <speed>1.550000</speed>
</trkpt>
<trkpt lat="33.004535675" lon="35.497097015">
  <ele>709.973633</ele>
  <time>2011-10-15T06:38:20Z</time>
  <speed>1.240000</speed>
</trkpt>
<trkpt lat="33.004558563" lon="35.497070313">
  <ele>709.911133</ele>
  <time>2011-10-15T06:38:21Z</time>
  <speed>1.240000</speed>
</trkpt>
<trkpt lat="33.004592896" lon="35.497043610">
  <ele>709.958008</ele>
  <time>2011-10-15T06:38:23Z</time>
  <speed>1.340000</speed>
</trkpt>
<trkpt lat="33.004634857" lon="35.497035980">
  <ele>709.411133</ele>
  <time>2011-10-15T06:38:25Z</time>
  <speed>2.330000</speed>
</trkpt>
<trkpt lat="33.004661560" lon="35.497051239">
  <ele>711.192383</ele>
  <time>2011-10-15T06:38:26Z</time>
  <speed>2.140000</speed>
</trkpt>
<trkpt lat="33.004657745" lon="35.497013092">
  <ele>712.348633</ele>
  <time>2011-10-15T06:38:29Z</time>
  <speed>0.800000</speed>
</trkpt>
<trkpt lat="33.004623413" lon="35.496997833">
  <ele>712.598633</ele>
  <time>2011-10-15T06:38:31Z</time>
  <speed>2.030000</speed>
</trkpt>
<trkpt lat="33.004589081" lon="35.496986389">
  <ele>713.536133</ele>
  <time>2011-10-15T06:38:33Z</time>
  <speed>2.020000</speed>
</trkpt>
<trkpt lat="33.004550934" lon="35.496982574">
  <ele>713.708008</ele>
  <time>2011-10-15T06:38:35Z</time>
  <speed>1.820000</speed>
</trkpt>
<trkpt lat="33.004505157" lon="35.496978760">
  <ele>714.239258</ele>
  <time>2011-10-15T06:38:37Z</time>
  <speed>2.090000</speed>
</trkpt>
<trkpt lat="33.004459381" lon="35.496971130">
  <ele>713.848633</ele>
  <time>2011-10-15T06:38:39Z</time>
  <speed>2.540000</speed>
</trkpt>
<trkpt lat="33.004428864" lon="35.496974945">
  <ele>713.864258</ele>
  <time>2011-10-15T06:38:40Z</time>
  <speed>2.480000</speed>
</trkpt>
<trkpt lat="33.004379272" lon="35.496967316">
  <ele>713.770508</ele>
  <time>2011-10-15T06:38:42Z</time>
  <speed>2.430000</speed>
</trkpt>
<trkpt lat="33.004333496" lon="35.496971130">
  <ele>714.161133</ele>
  <time>2011-10-15T06:38:44Z</time>
  <speed>2.090000</speed>
</trkpt>
<trkpt lat="33.004295349" lon="35.496971130">
  <ele>713.879883</ele>
  <time>2011-10-15T06:38:46Z</time>
  <speed>1.650000</speed>
</trkpt>
<trkpt lat="33.004261017" lon="35.496967316">
  <ele>714.004883</ele>
  <time>2011-10-15T06:38:48Z</time>
  <speed>1.810000</speed>
</trkpt>
<trkpt lat="33.004215240" lon="35.496948242">
  <ele>714.192383</ele>
  <time>2011-10-15T06:38:50Z</time>
  <speed>2.680000</speed>
</trkpt>
<trkpt lat="33.004165649" lon="35.496932983">
  <ele>714.911133</ele>
  <time>2011-10-15T06:38:52Z</time>
  <speed>2.530000</speed>
</trkpt>
<trkpt lat="33.004138947" lon="35.496929169">
  <ele>714.239258</ele>
  <time>2011-10-15T06:38:53Z</time>
  <speed>2.440000</speed>
</trkpt>
<trkpt lat="33.004108429" lon="35.496929169">
  <ele>714.098633</ele>
  <time>2011-10-15T06:38:54Z</time>
  <speed>2.620000</speed>
</trkpt>
<trkpt lat="33.004081726" lon="35.496929169">
  <ele>714.661133</ele>
  <time>2011-10-15T06:38:55Z</time>
  <speed>2.850000</speed>
</trkpt>
<trkpt lat="33.004028320" lon="35.496917725">
  <ele>714.442383</ele>
  <time>2011-10-15T06:38:57Z</time>
  <speed>3.090000</speed>
</trkpt>
<trkpt lat="33.004001617" lon="35.496902466">
  <ele>715.129883</ele>
  <time>2011-10-15T06:38:58Z</time>
  <speed>2.890000</speed>
</trkpt>
<trkpt lat="33.003974915" lon="35.496894836">
  <ele>715.629883</ele>
  <time>2011-10-15T06:38:59Z</time>
  <speed>2.650000</speed>
</trkpt>
<trkpt lat="33.003929138" lon="35.496868134">
  <ele>715.536133</ele>
  <time>2011-10-15T06:39:01Z</time>
  <speed>2.210000</speed>
</trkpt>
<trkpt lat="33.003894806" lon="35.496845245">
  <ele>714.473633</ele>
  <time>2011-10-15T06:39:03Z</time>
  <speed>2.700000</speed>
</trkpt>
<trkpt lat="33.003860474" lon="35.496810913">
  <ele>714.286133</ele>
  <time>2011-10-15T06:39:05Z</time>
  <speed>2.600000</speed>
</trkpt>
<trkpt lat="33.003826141" lon="35.496780396">
  <ele>713.739258</ele>
  <time>2011-10-15T06:39:07Z</time>
  <speed>1.870000</speed>
</trkpt>
<trkpt lat="33.003803253" lon="35.496749878">
  <ele>713.067383</ele>
  <time>2011-10-15T06:39:09Z</time>
  <speed>1.810000</speed>
</trkpt>
<trkpt lat="33.003791809" lon="35.496700287">
  <ele>712.723633</ele>
  <time>2011-10-15T06:39:11Z</time>
  <speed>2.280000</speed>
</trkpt>
<trkpt lat="33.003784180" lon="35.496658325">
  <ele>712.145508</ele>
  <time>2011-10-15T06:39:12Z</time>
  <speed>2.540000</speed>
</trkpt>
<trkpt lat="33.003765106" lon="35.496612549">
  <ele>711.833008</ele>
  <time>2011-10-15T06:39:14Z</time>
  <speed>2.580000</speed>
</trkpt>
<trkpt lat="33.003757477" lon="35.496566772">
  <ele>710.473633</ele>
  <time>2011-10-15T06:39:16Z</time>
  <speed>2.250000</speed>
</trkpt>
<trkpt lat="33.003757477" lon="35.496520996">
  <ele>709.833008</ele>
  <time>2011-10-15T06:39:18Z</time>
  <speed>2.020000</speed>
</trkpt>
<trkpt lat="33.003753662" lon="35.496490479">
  <ele>709.504883</ele>
  <time>2011-10-15T06:39:20Z</time>
  <speed>1.980000</speed>
</trkpt>
<trkpt lat="33.003730774" lon="35.496444702">
  <ele>708.333008</ele>
  <time>2011-10-15T06:39:22Z</time>
  <speed>2.100000</speed>
</trkpt>
<trkpt lat="33.003692627" lon="35.496402740">
  <ele>707.442383</ele>
  <time>2011-10-15T06:39:24Z</time>
  <speed>2.640000</speed>
</trkpt>
<trkpt lat="33.003673553" lon="35.496360779">
  <ele>707.614258</ele>
  <time>2011-10-15T06:39:25Z</time>
  <speed>2.610000</speed>
</trkpt>
<trkpt lat="33.003662109" lon="35.496322632">
  <ele>707.708008</ele>
  <time>2011-10-15T06:39:26Z</time>
  <speed>2.270000</speed>
</trkpt>
<trkpt lat="33.003646851" lon="35.496276855">
  <ele>706.817383</ele>
  <time>2011-10-15T06:39:28Z</time>
  <speed>1.940000</speed>
</trkpt>
<trkpt lat="33.003639221" lon="35.496246338">
  <ele>706.067383</ele>
  <time>2011-10-15T06:39:30Z</time>
  <speed>1.390000</speed>
</trkpt>
<trkpt lat="33.003646851" lon="35.496212006">
  <ele>704.958008</ele>
  <time>2011-10-15T06:39:33Z</time>
  <speed>1.490000</speed>
</trkpt>
<trkpt lat="33.003677368" lon="35.496185303">
  <ele>705.051758</ele>
  <time>2011-10-15T06:39:36Z</time>
  <speed>1.440000</speed>
</trkpt>
<trkpt lat="33.003696442" lon="35.496158600">
  <ele>704.879883</ele>
  <time>2011-10-15T06:39:37Z</time>
  <speed>1.020000</speed>
</trkpt>
<trkpt lat="33.003711700" lon="35.496185303">
  <ele>704.145508</ele>
  <time>2011-10-15T06:39:40Z</time>
  <speed>1.320000</speed>
</trkpt>
<trkpt lat="33.003734589" lon="35.496215820">
  <ele>702.833008</ele>
  <time>2011-10-15T06:39:42Z</time>
  <speed>1.540000</speed>
</trkpt>
<trkpt lat="33.003757477" lon="35.496253967">
  <ele>703.833008</ele>
  <time>2011-10-15T06:39:44Z</time>
  <speed>1.130000</speed>
</trkpt>
<trkpt lat="33.003784180" lon="35.496273041">
  <ele>703.473633</ele>
  <time>2011-10-15T06:39:46Z</time>
  <speed>1.280000</speed>
</trkpt>
<trkpt lat="33.003810883" lon="35.496288300">
  <ele>701.926758</ele>
  <time>2011-10-15T06:39:48Z</time>
  <speed>1.490000</speed>
</trkpt>
<trkpt lat="33.003849030" lon="35.496303558">
  <ele>700.629883</ele>
  <time>2011-10-15T06:39:50Z</time>
  <speed>1.470000</speed>
</trkpt>
<trkpt lat="33.003890991" lon="35.496341705">
  <ele>701.629883</ele>
  <time>2011-10-15T06:39:52Z</time>
  <speed>1.280000</speed>
</trkpt>
<trkpt lat="33.003902435" lon="35.496368408">
  <ele>700.754883</ele>
  <time>2011-10-15T06:39:54Z</time>
  <speed>1.050000</speed>
</trkpt>
<trkpt lat="33.003917694" lon="35.496414185">
  <ele>700.536133</ele>
  <time>2011-10-15T06:39:56Z</time>
  <speed>1.640000</speed>
</trkpt>
<trkpt lat="33.003944397" lon="35.496444702">
  <ele>699.598633</ele>
  <time>2011-10-15T06:39:58Z</time>
  <speed>1.690000</speed>
</trkpt>
<trkpt lat="33.003993988" lon="35.496475220">
  <ele>702.286133</ele>
  <time>2011-10-15T06:40:00Z</time>
  <speed>1.960000</speed>
</trkpt>
<trkpt lat="33.004028320" lon="35.496486664">
  <ele>704.114258</ele>
  <time>2011-10-15T06:40:01Z</time>
  <speed>1.970000</speed>
</trkpt>
<trkpt lat="33.004062653" lon="35.496505737">
  <ele>707.020508</ele>
  <time>2011-10-15T06:40:02Z</time>
  <speed>2.170000</speed>
</trkpt>
<trkpt lat="33.004100800" lon="35.496509552">
  <ele>709.083008</ele>
  <time>2011-10-15T06:40:04Z</time>
  <speed>2.200000</speed>
</trkpt>
<trkpt lat="33.004127502" lon="35.496513367">
  <ele>710.333008</ele>
  <time>2011-10-15T06:40:05Z</time>
  <speed>2.510000</speed>
</trkpt>
<trkpt lat="33.004150391" lon="35.496532440">
  <ele>712.911133</ele>
  <time>2011-10-15T06:40:06Z</time>
  <speed>1.900000</speed>
</trkpt>
<trkpt lat="33.004169464" lon="35.496543884">
  <ele>715.004883</ele>
  <time>2011-10-15T06:40:07Z</time>
  <speed>2.220000</speed>
</trkpt>
<trkpt lat="33.004207611" lon="35.496532440">
  <ele>717.723633</ele>
  <time>2011-10-15T06:40:09Z</time>
  <speed>2.470000</speed>
</trkpt>
<trkpt lat="33.004253387" lon="35.496520996">
  <ele>719.458008</ele>
  <time>2011-10-15T06:40:11Z</time>
  <speed>2.150000</speed>
</trkpt>
<trkpt lat="33.004295349" lon="35.496490479">
  <ele>720.864258</ele>
  <time>2011-10-15T06:40:13Z</time>
  <speed>2.050000</speed>
</trkpt>
<trkpt lat="33.004322052" lon="35.496479034">
  <ele>721.129883</ele>
  <time>2011-10-15T06:40:14Z</time>
  <speed>2.460000</speed>
</trkpt>
<trkpt lat="33.004344940" lon="35.496463776">
  <ele>721.629883</ele>
  <time>2011-10-15T06:40:15Z</time>
  <speed>2.390000</speed>
</trkpt>
<trkpt lat="33.004386902" lon="35.496448517">
  <ele>723.020508</ele>
  <time>2011-10-15T06:40:17Z</time>
  <speed>2.220000</speed>
</trkpt>
<trkpt lat="33.004428864" lon="35.496425629">
  <ele>723.426758</ele>
  <time>2011-10-15T06:40:19Z</time>
  <speed>2.190000</speed>
</trkpt>
<trkpt lat="33.004474640" lon="35.496398926">
  <ele>723.598633</ele>
  <time>2011-10-15T06:40:21Z</time>
  <speed>2.350000</speed>
</trkpt>
<trkpt lat="33.004512787" lon="35.496376038">
  <ele>723.879883</ele>
  <time>2011-10-15T06:40:23Z</time>
  <speed>1.980000</speed>
</trkpt>
<trkpt lat="33.004531860" lon="35.496353149">
  <ele>724.864258</ele>
  <time>2011-10-15T06:40:24Z</time>
  <speed>2.090000</speed>
</trkpt>
<trkpt lat="33.004558563" lon="35.496330261">
  <ele>725.301758</ele>
  <time>2011-10-15T06:40:26Z</time>
  <speed>1.570000</speed>
</trkpt>
<trkpt lat="33.004592896" lon="35.496307373">
  <ele>725.442383</ele>
  <time>2011-10-15T06:40:29Z</time>
  <speed>1.240000</speed>
</trkpt>
<trkpt lat="33.004615784" lon="35.496284485">
  <ele>726.145508</ele>
  <time>2011-10-15T06:40:31Z</time>
  <speed>1.690000</speed>
</trkpt>
<trkpt lat="33.004653931" lon="35.496242523">
  <ele>726.411133</ele>
  <time>2011-10-15T06:40:33Z</time>
  <speed>1.550000</speed>
</trkpt>
<trkpt lat="33.004684448" lon="35.496223450">
  <ele>726.801758</ele>
  <time>2011-10-15T06:40:35Z</time>
  <speed>1.150000</speed>
</trkpt>
<trkpt lat="33.004726410" lon="35.496215820">
  <ele>726.661133</ele>
  <time>2011-10-15T06:40:37Z</time>
  <speed>1.050000</speed>
</trkpt>
<trkpt lat="33.004753113" lon="35.496192932">
  <ele>726.176758</ele>
  <time>2011-10-15T06:40:39Z</time>
  <speed>1.140000</speed>
</trkpt>
<trkpt lat="33.004783630" lon="35.496173859">
  <ele>727.036133</ele>
  <time>2011-10-15T06:40:42Z</time>
  <speed>1.030000</speed>
</trkpt>
<trkpt lat="33.004814148" lon="35.496154785">
  <ele>727.129883</ele>
  <time>2011-10-15T06:40:44Z</time>
  <speed>1.390000</speed>
</trkpt>
<trkpt lat="33.004844666" lon="35.496124268">
  <ele>727.583008</ele>
  <time>2011-10-15T06:40:47Z</time>
  <speed>1.230000</speed>
</trkpt>
<trkpt lat="33.004863739" lon="35.496101379">
  <ele>728.223633</ele>
  <time>2011-10-15T06:40:48Z</time>
  <speed>0.970000</speed>
</trkpt>
<trkpt lat="33.004898071" lon="35.496093750">
  <ele>729.161133</ele>
  <time>2011-10-15T06:40:51Z</time>
  <speed>1.090000</speed>
</trkpt>
<trkpt lat="33.004924774" lon="35.496082306">
  <ele>729.926758</ele>
  <time>2011-10-15T06:40:53Z</time>
  <speed>1.320000</speed>
</trkpt>
<trkpt lat="33.004947662" lon="35.496078491">
  <ele>732.270508</ele>
  <time>2011-10-15T06:40:56Z</time>
  <speed>1.190000</speed>
</trkpt>
<trkpt lat="33.004970551" lon="35.496067047">
  <ele>734.239258</ele>
  <time>2011-10-15T06:40:58Z</time>
  <speed>1.510000</speed>
</trkpt>
<trkpt lat="33.004997253" lon="35.496047974">
  <ele>735.348633</ele>
  <time>2011-10-15T06:41:00Z</time>
  <speed>1.230000</speed>
</trkpt>
<trkpt lat="33.005031586" lon="35.496036530">
  <ele>735.504883</ele>
  <time>2011-10-15T06:41:02Z</time>
  <speed>1.360000</speed>
</trkpt>
<trkpt lat="33.005073547" lon="35.495994568">
  <ele>736.301758</ele>
  <time>2011-10-15T06:41:05Z</time>
  <speed>1.540000</speed>
</trkpt>
<trkpt lat="33.005088806" lon="35.495956421">
  <ele>737.583008</ele>
  <time>2011-10-15T06:41:07Z</time>
  <speed>1.190000</speed>
</trkpt>
<trkpt lat="33.005107880" lon="35.495929718">
  <ele>737.567383</ele>
  <time>2011-10-15T06:41:09Z</time>
  <speed>1.280000</speed>
</trkpt>
<trkpt lat="33.005126953" lon="35.495910645">
  <ele>738.739258</ele>
  <time>2011-10-15T06:41:11Z</time>
  <speed>1.020000</speed>
</trkpt>
<trkpt lat="33.005153656" lon="35.495876312">
  <ele>739.645508</ele>
  <time>2011-10-15T06:41:14Z</time>
  <speed>1.370000</speed>
</trkpt>
<trkpt lat="33.005176544" lon="35.495857239">
  <ele>740.083008</ele>
  <time>2011-10-15T06:41:16Z</time>
  <speed>1.200000</speed>
</trkpt>
<trkpt lat="33.005199432" lon="35.495830536">
  <ele>741.879883</ele>
  <time>2011-10-15T06:41:19Z</time>
  <speed>1.250000</speed>
</trkpt>
<trkpt lat="33.005226135" lon="35.495811462">
  <ele>742.754883</ele>
  <time>2011-10-15T06:41:20Z</time>
  <speed>1.730000</speed>
</trkpt>
<trkpt lat="33.005260468" lon="35.495784760">
  <ele>743.629883</ele>
  <time>2011-10-15T06:41:22Z</time>
  <speed>1.540000</speed>
</trkpt>
<trkpt lat="33.005294800" lon="35.495765686">
  <ele>743.848633</ele>
  <time>2011-10-15T06:41:24Z</time>
  <speed>1.390000</speed>
</trkpt>
<trkpt lat="33.005317688" lon="35.495735168">
  <ele>745.098633</ele>
  <time>2011-10-15T06:41:27Z</time>
  <speed>1.540000</speed>
</trkpt>
<trkpt lat="33.005340576" lon="35.495708466">
  <ele>745.708008</ele>
  <time>2011-10-15T06:41:29Z</time>
  <speed>1.520000</speed>
</trkpt>
<trkpt lat="33.005359650" lon="35.495677948">
  <ele>745.817383</ele>
  <time>2011-10-15T06:41:31Z</time>
  <speed>1.430000</speed>
</trkpt>
<trkpt lat="33.005378723" lon="35.495643616">
  <ele>746.629883</ele>
  <time>2011-10-15T06:41:33Z</time>
  <speed>1.480000</speed>
</trkpt>
<trkpt lat="33.005401611" lon="35.495628357">
  <ele>747.223633</ele>
  <time>2011-10-15T06:41:35Z</time>
  <speed>1.380000</speed>
</trkpt>
<trkpt lat="33.005420685" lon="35.495594025">
  <ele>747.379883</ele>
  <time>2011-10-15T06:41:38Z</time>
  <speed>1.570000</speed>
</trkpt>
<trkpt lat="33.005432129" lon="35.495559692">
  <ele>747.208008</ele>
  <time>2011-10-15T06:41:40Z</time>
  <speed>1.740000</speed>
</trkpt>
<trkpt lat="33.005451202" lon="35.495525360">
  <ele>747.614258</ele>
  <time>2011-10-15T06:41:42Z</time>
  <speed>1.280000</speed>
</trkpt>
<trkpt lat="33.005477905" lon="35.495491028">
  <ele>746.973633</ele>
  <time>2011-10-15T06:41:45Z</time>
  <speed>1.900000</speed>
</trkpt>
<trkpt lat="33.005496979" lon="35.495456696">
  <ele>746.348633</ele>
  <time>2011-10-15T06:41:48Z</time>
  <speed>0.910000</speed>
</trkpt>
<trkpt lat="33.005519867" lon="35.495429993">
  <ele>746.364258</ele>
  <time>2011-10-15T06:41:51Z</time>
  <speed>1.130000</speed>
</trkpt>
<trkpt lat="33.005550385" lon="35.495399475">
  <ele>746.426758</ele>
  <time>2011-10-15T06:41:53Z</time>
  <speed>2.050000</speed>
</trkpt>
<trkpt lat="33.005569458" lon="35.495357513">
  <ele>747.426758</ele>
  <time>2011-10-15T06:41:55Z</time>
  <speed>1.920000</speed>
</trkpt>
<trkpt lat="33.005580902" lon="35.495307922">
  <ele>747.926758</ele>
  <time>2011-10-15T06:41:57Z</time>
  <speed>1.970000</speed>
</trkpt>
<trkpt lat="33.005592346" lon="35.495262146">
  <ele>748.411133</ele>
  <time>2011-10-15T06:41:59Z</time>
  <speed>2.080000</speed>
</trkpt>
<trkpt lat="33.005599976" lon="35.495216370">
  <ele>749.020508</ele>
  <time>2011-10-15T06:42:01Z</time>
  <speed>1.670000</speed>
</trkpt>
<trkpt lat="33.005611420" lon="35.495170593">
  <ele>750.051758</ele>
  <time>2011-10-15T06:42:03Z</time>
  <speed>1.950000</speed>
</trkpt>
<trkpt lat="33.005615234" lon="35.495113373">
  <ele>750.614258</ele>
  <time>2011-10-15T06:42:05Z</time>
  <speed>2.070000</speed>
</trkpt>
<trkpt lat="33.005622864" lon="35.495071411">
  <ele>751.270508</ele>
  <time>2011-10-15T06:42:07Z</time>
  <speed>1.730000</speed>
</trkpt>
<trkpt lat="33.005630493" lon="35.495029449">
  <ele>751.426758</ele>
  <time>2011-10-15T06:42:09Z</time>
  <speed>2.030000</speed>
</trkpt>
<trkpt lat="33.005634308" lon="35.494998932">
  <ele>751.817383</ele>
  <time>2011-10-15T06:42:11Z</time>
  <speed>1.440000</speed>
</trkpt>
<trkpt lat="33.005634308" lon="35.494949341">
  <ele>752.489258</ele>
  <time>2011-10-15T06:42:13Z</time>
  <speed>1.700000</speed>
</trkpt>
<trkpt lat="33.005638123" lon="35.494915009">
  <ele>752.270508</ele>
  <time>2011-10-15T06:42:15Z</time>
  <speed>1.510000</speed>
</trkpt>
<trkpt lat="33.005645752" lon="35.494880676">
  <ele>752.661133</ele>
  <time>2011-10-15T06:42:17Z</time>
  <speed>1.760000</speed>
</trkpt>
<trkpt lat="33.005641937" lon="35.494831085">
  <ele>752.254883</ele>
  <time>2011-10-15T06:42:19Z</time>
  <speed>1.890000</speed>
</trkpt>
<trkpt lat="33.005645752" lon="35.494796753">
  <ele>752.473633</ele>
  <time>2011-10-15T06:42:21Z</time>
  <speed>1.830000</speed>
</trkpt>
<trkpt lat="33.005634308" lon="35.494758606">
  <ele>752.614258</ele>
  <time>2011-10-15T06:42:23Z</time>
  <speed>1.590000</speed>
</trkpt>
<trkpt lat="33.005634308" lon="35.494720459">
  <ele>752.614258</ele>
  <time>2011-10-15T06:42:25Z</time>
  <speed>1.850000</speed>
</trkpt>
<trkpt lat="33.005630493" lon="35.494682312">
  <ele>753.692383</ele>
  <time>2011-10-15T06:42:27Z</time>
  <speed>1.800000</speed>
</trkpt>
<trkpt lat="33.005630493" lon="35.494636536">
  <ele>753.911133</ele>
  <time>2011-10-15T06:42:29Z</time>
  <speed>1.600000</speed>
</trkpt>
<trkpt lat="33.005634308" lon="35.494598389">
  <ele>753.426758</ele>
  <time>2011-10-15T06:42:31Z</time>
  <speed>1.710000</speed>
</trkpt>
<trkpt lat="33.005634308" lon="35.494560242">
  <ele>753.083008</ele>
  <time>2011-10-15T06:42:33Z</time>
  <speed>1.820000</speed>
</trkpt>
<trkpt lat="33.005630493" lon="35.494514465">
  <ele>753.145508</ele>
  <time>2011-10-15T06:42:35Z</time>
  <speed>2.020000</speed>
</trkpt>
<trkpt lat="33.005622864" lon="35.494468689">
  <ele>753.364258</ele>
  <time>2011-10-15T06:42:37Z</time>
  <speed>2.040000</speed>
</trkpt>
<trkpt lat="33.005603790" lon="35.494419098">
  <ele>752.911133</ele>
  <time>2011-10-15T06:42:39Z</time>
  <speed>1.930000</speed>
</trkpt>
<trkpt lat="33.005584717" lon="35.494373322">
  <ele>753.895508</ele>
  <time>2011-10-15T06:42:41Z</time>
  <speed>2.240000</speed>
</trkpt>
<trkpt lat="33.005569458" lon="35.494323730">
  <ele>754.458008</ele>
  <time>2011-10-15T06:42:43Z</time>
  <speed>1.940000</speed>
</trkpt>
<trkpt lat="33.005546570" lon="35.494281769">
  <ele>754.286133</ele>
  <time>2011-10-15T06:42:45Z</time>
  <speed>1.990000</speed>
</trkpt>
<trkpt lat="33.005523682" lon="35.494247437">
  <ele>754.926758</ele>
  <time>2011-10-15T06:42:47Z</time>
  <speed>1.940000</speed>
</trkpt>
<trkpt lat="33.005504608" lon="35.494205475">
  <ele>755.770508</ele>
  <time>2011-10-15T06:42:49Z</time>
  <speed>1.690000</speed>
</trkpt>
<trkpt lat="33.005489349" lon="35.494178772">
  <ele>755.989258</ele>
  <time>2011-10-15T06:42:51Z</time>
  <speed>1.200000</speed>
</trkpt>
<trkpt lat="33.005474091" lon="35.494129181">
  <ele>755.692383</ele>
  <time>2011-10-15T06:42:54Z</time>
  <speed>1.710000</speed>
</trkpt>
<trkpt lat="33.005470276" lon="35.494094849">
  <ele>756.364258</ele>
  <time>2011-10-15T06:42:56Z</time>
  <speed>1.690000</speed>
</trkpt>
<trkpt lat="33.005458832" lon="35.494060516">
  <ele>756.379883</ele>
  <time>2011-10-15T06:42:58Z</time>
  <speed>1.710000</speed>
</trkpt>
<trkpt lat="33.005443573" lon="35.494029999">
  <ele>756.051758</ele>
  <time>2011-10-15T06:43:00Z</time>
  <speed>1.520000</speed>
</trkpt>
<trkpt lat="33.005409241" lon="35.494003296">
  <ele>755.973633</ele>
  <time>2011-10-15T06:43:02Z</time>
  <speed>1.720000</speed>
</trkpt>
<trkpt lat="33.005382538" lon="35.493995667">
  <ele>756.583008</ele>
  <time>2011-10-15T06:43:04Z</time>
  <speed>1.150000</speed>
</trkpt>
<trkpt lat="33.005374908" lon="35.493957520">
  <ele>756.348633</ele>
  <time>2011-10-15T06:43:07Z</time>
  <speed>1.260000</speed>
</trkpt>
<trkpt lat="33.005352020" lon="35.493934631">
  <ele>755.739258</ele>
  <time>2011-10-15T06:43:10Z</time>
  <speed>0.840000</speed>
</trkpt>
<trkpt lat="33.005332947" lon="35.493911743">
  <ele>757.692383</ele>
  <time>2011-10-15T06:47:26Z</time>
  <speed>1.400000</speed>
</trkpt>
<trkpt lat="33.005336761" lon="35.493873596">
  <ele>756.911133</ele>
  <time>2011-10-15T06:47:31Z</time>
  <speed>0.880000</speed>
</trkpt>
<trkpt lat="33.005313873" lon="35.493858337">
  <ele>755.333008</ele>
  <time>2011-10-15T06:47:35Z</time>
  <speed>0.670000</speed>
</trkpt>
<trkpt lat="33.005298615" lon="35.493854523">
  <ele>752.926758</ele>
  <time>2011-10-15T06:48:07Z</time>
  <speed>0.050000</speed>
</trkpt>
<trkpt lat="33.005325317" lon="35.493869781">
  <ele>753.161133</ele>
  <time>2011-10-15T06:49:00Z</time>
  <speed>0.490000</speed>
</trkpt>
<trkpt lat="33.005302429" lon="35.493854523">
  <ele>754.239258</ele>
  <time>2011-10-15T06:49:09Z</time>
  <speed>1.780000</speed>
</trkpt>
<trkpt lat="33.005283356" lon="35.493824005">
  <ele>754.379883</ele>
  <time>2011-10-15T06:49:11Z</time>
  <speed>1.670000</speed>
</trkpt>
<trkpt lat="33.005260468" lon="35.493789673">
  <ele>754.536133</ele>
  <time>2011-10-15T06:49:13Z</time>
  <speed>2.400000</speed>
</trkpt>
<trkpt lat="33.005241394" lon="35.493762970">
  <ele>754.192383</ele>
  <time>2011-10-15T06:49:14Z</time>
  <speed>3.580000</speed>
</trkpt>
<trkpt lat="33.005218506" lon="35.493732452">
  <ele>753.801758</ele>
  <time>2011-10-15T06:49:15Z</time>
  <speed>3.520000</speed>
</trkpt>
<trkpt lat="33.005195618" lon="35.493698120">
  <ele>753.926758</ele>
  <time>2011-10-15T06:49:16Z</time>
  <speed>3.500000</speed>
</trkpt>
<trkpt lat="33.005172729" lon="35.493671417">
  <ele>753.583008</ele>
  <time>2011-10-15T06:49:17Z</time>
  <speed>3.370000</speed>
</trkpt>
<trkpt lat="33.005146027" lon="35.493652344">
  <ele>753.442383</ele>
  <time>2011-10-15T06:49:18Z</time>
  <speed>3.430000</speed>
</trkpt>
<trkpt lat="33.005111694" lon="35.493629456">
  <ele>753.692383</ele>
  <time>2011-10-15T06:49:19Z</time>
  <speed>3.280000</speed>
</trkpt>
<trkpt lat="33.005081177" lon="35.493614197">
  <ele>753.583008</ele>
  <time>2011-10-15T06:49:20Z</time>
  <speed>2.970000</speed>
</trkpt>
<trkpt lat="33.005054474" lon="35.493602753">
  <ele>752.645508</ele>
  <time>2011-10-15T06:49:21Z</time>
  <speed>2.810000</speed>
</trkpt>
<trkpt lat="33.005027771" lon="35.493583679">
  <ele>752.067383</ele>
  <time>2011-10-15T06:49:22Z</time>
  <speed>2.980000</speed>
</trkpt>
<trkpt lat="33.004997253" lon="35.493568420">
  <ele>752.364258</ele>
  <time>2011-10-15T06:49:23Z</time>
  <speed>3.100000</speed>
</trkpt>
<trkpt lat="33.004966736" lon="35.493556976">
  <ele>751.911133</ele>
  <time>2011-10-15T06:49:24Z</time>
  <speed>3.060000</speed>
</trkpt>
<trkpt lat="33.004940033" lon="35.493537903">
  <ele>752.004883</ele>
  <time>2011-10-15T06:49:25Z</time>
  <speed>2.700000</speed>
</trkpt>
<trkpt lat="33.004913330" lon="35.493518829">
  <ele>752.411133</ele>
  <time>2011-10-15T06:49:26Z</time>
  <speed>2.550000</speed>
</trkpt>
<trkpt lat="33.004882813" lon="35.493511200">
  <ele>752.801758</ele>
  <time>2011-10-15T06:49:27Z</time>
  <speed>2.550000</speed>
</trkpt>
<trkpt lat="33.004852295" lon="35.493503571">
  <ele>753.301758</ele>
  <time>2011-10-15T06:49:28Z</time>
  <speed>2.580000</speed>
</trkpt>
<trkpt lat="33.004795074" lon="35.493495941">
  <ele>753.864258</ele>
  <time>2011-10-15T06:49:30Z</time>
  <speed>2.850000</speed>
</trkpt>
<trkpt lat="33.004753113" lon="35.493488312">
  <ele>754.208008</ele>
  <time>2011-10-15T06:49:32Z</time>
  <speed>2.120000</speed>
</trkpt>
<trkpt lat="33.004703522" lon="35.493492126">
  <ele>754.333008</ele>
  <time>2011-10-15T06:49:34Z</time>
  <speed>2.590000</speed>
</trkpt>
<trkpt lat="33.004661560" lon="35.493473053">
  <ele>754.895508</ele>
  <time>2011-10-15T06:49:36Z</time>
  <speed>2.460000</speed>
</trkpt>
<trkpt lat="33.004619598" lon="35.493457794">
  <ele>755.129883</ele>
  <time>2011-10-15T06:49:38Z</time>
  <speed>1.790000</speed>
</trkpt>
<trkpt lat="33.004566193" lon="35.493457794">
  <ele>755.051758</ele>
  <time>2011-10-15T06:49:40Z</time>
  <speed>3.040000</speed>
</trkpt>
<trkpt lat="33.004535675" lon="35.493450165">
  <ele>755.129883</ele>
  <time>2011-10-15T06:49:41Z</time>
  <speed>2.960000</speed>
</trkpt>
<trkpt lat="33.004505157" lon="35.493438721">
  <ele>755.364258</ele>
  <time>2011-10-15T06:49:42Z</time>
  <speed>2.650000</speed>
</trkpt>
<trkpt lat="33.004478455" lon="35.493431091">
  <ele>755.786133</ele>
  <time>2011-10-15T06:49:43Z</time>
  <speed>2.650000</speed>
</trkpt>
<trkpt lat="33.004428864" lon="35.493408203">
  <ele>756.364258</ele>
  <time>2011-10-15T06:49:45Z</time>
  <speed>2.640000</speed>
</trkpt>
<trkpt lat="33.004379272" lon="35.493392944">
  <ele>755.989258</ele>
  <time>2011-10-15T06:49:47Z</time>
  <speed>2.900000</speed>
</trkpt>
<trkpt lat="33.004333496" lon="35.493381500">
  <ele>755.317383</ele>
  <time>2011-10-15T06:49:49Z</time>
  <speed>2.660000</speed>
</trkpt>
<trkpt lat="33.004302979" lon="35.493377686">
  <ele>755.004883</ele>
  <time>2011-10-15T06:49:50Z</time>
  <speed>2.920000</speed>
</trkpt>
<trkpt lat="33.004276276" lon="35.493370056">
  <ele>754.364258</ele>
  <time>2011-10-15T06:49:51Z</time>
  <speed>2.820000</speed>
</trkpt>
<trkpt lat="33.004249573" lon="35.493370056">
  <ele>753.973633</ele>
  <time>2011-10-15T06:49:52Z</time>
  <speed>2.490000</speed>
</trkpt>
<trkpt lat="33.004199982" lon="35.493373871">
  <ele>753.379883</ele>
  <time>2011-10-15T06:49:54Z</time>
  <speed>1.770000</speed>
</trkpt>
<trkpt lat="33.004154205" lon="35.493358612">
  <ele>752.504883</ele>
  <time>2011-10-15T06:49:56Z</time>
  <speed>2.600000</speed>
</trkpt>
<trkpt lat="33.004123688" lon="35.493343353">
  <ele>751.551758</ele>
  <time>2011-10-15T06:49:57Z</time>
  <speed>2.840000</speed>
</trkpt>
<trkpt lat="33.004085541" lon="35.493347168">
  <ele>751.489258</ele>
  <time>2011-10-15T06:49:58Z</time>
  <speed>2.510000</speed>
</trkpt>
<trkpt lat="33.004055023" lon="35.493339539">
  <ele>751.286133</ele>
  <time>2011-10-15T06:49:59Z</time>
  <speed>2.370000</speed>
</trkpt>
<trkpt lat="33.004009247" lon="35.493309021">
  <ele>750.645508</ele>
  <time>2011-10-15T06:50:01Z</time>
  <speed>1.870000</speed>
</trkpt>
<trkpt lat="33.003974915" lon="35.493289948">
  <ele>750.786133</ele>
  <time>2011-10-15T06:50:03Z</time>
  <speed>2.000000</speed>
</trkpt>
<trkpt lat="33.003948212" lon="35.493259430">
  <ele>751.520508</ele>
  <time>2011-10-15T06:50:04Z</time>
  <speed>2.640000</speed>
</trkpt>
<trkpt lat="33.003921509" lon="35.493217468">
  <ele>752.551758</ele>
  <time>2011-10-15T06:50:05Z</time>
  <speed>2.630000</speed>
</trkpt>
<trkpt lat="33.003887177" lon="35.493175507">
  <ele>753.879883</ele>
  <time>2011-10-15T06:50:07Z</time>
  <speed>2.040000</speed>
</trkpt>
<trkpt lat="33.003871918" lon="35.493152618">
  <ele>755.614258</ele>
  <time>2011-10-15T06:50:08Z</time>
  <speed>1.950000</speed>
</trkpt>
<trkpt lat="33.003860474" lon="35.493118286">
  <ele>756.239258</ele>
  <time>2011-10-15T06:50:10Z</time>
  <speed>1.860000</speed>
</trkpt>
<trkpt lat="33.003829956" lon="35.493083954">
  <ele>756.114258</ele>
  <time>2011-10-15T06:50:12Z</time>
  <speed>1.850000</speed>
</trkpt>
<trkpt lat="33.003814697" lon="35.493045807">
  <ele>756.958008</ele>
  <time>2011-10-15T06:50:14Z</time>
  <speed>1.500000</speed>
</trkpt>
<trkpt lat="33.003810883" lon="35.493007660">
  <ele>756.926758</ele>
  <time>2011-10-15T06:50:16Z</time>
  <speed>1.780000</speed>
</trkpt>
<trkpt lat="33.003803253" lon="35.492965698">
  <ele>757.426758</ele>
  <time>2011-10-15T06:50:18Z</time>
  <speed>2.040000</speed>
</trkpt>
<trkpt lat="33.003791809" lon="35.492935181">
  <ele>757.973633</ele>
  <time>2011-10-15T06:50:20Z</time>
  <speed>1.040000</speed>
</trkpt>
<trkpt lat="33.003772736" lon="35.492877960">
  <ele>759.567383</ele>
  <time>2011-10-15T06:50:22Z</time>
  <speed>2.210000</speed>
</trkpt>
<trkpt lat="33.003757477" lon="35.492843628">
  <ele>760.536133</ele>
  <time>2011-10-15T06:50:23Z</time>
  <speed>1.990000</speed>
</trkpt>
<trkpt lat="33.003742218" lon="35.492797852">
  <ele>761.848633</ele>
  <time>2011-10-15T06:50:25Z</time>
  <speed>2.340000</speed>
</trkpt>
<trkpt lat="33.003711700" lon="35.492755890">
  <ele>763.770508</ele>
  <time>2011-10-15T06:50:27Z</time>
  <speed>2.360000</speed>
</trkpt>
<trkpt lat="33.003684998" lon="35.492710114">
  <ele>764.598633</ele>
  <time>2011-10-15T06:50:29Z</time>
  <speed>2.430000</speed>
</trkpt>
<trkpt lat="33.003677368" lon="35.492679596">
  <ele>764.004883</ele>
  <time>2011-10-15T06:50:30Z</time>
  <speed>2.470000</speed>
</trkpt>
<trkpt lat="33.003665924" lon="35.492633820">
  <ele>765.020508</ele>
  <time>2011-10-15T06:50:32Z</time>
  <speed>1.740000</speed>
</trkpt>
<trkpt lat="33.003658295" lon="35.492588043">
  <ele>766.926758</ele>
  <time>2011-10-15T06:50:34Z</time>
  <speed>1.600000</speed>
</trkpt>
<trkpt lat="33.003639221" lon="35.492549896">
  <ele>768.301758</ele>
  <time>2011-10-15T06:50:36Z</time>
  <speed>2.120000</speed>
</trkpt>
<trkpt lat="33.003620148" lon="35.492515564">
  <ele>768.583008</ele>
  <time>2011-10-15T06:50:38Z</time>
  <speed>1.070000</speed>
</trkpt>
<trkpt lat="33.003601074" lon="35.492485046">
  <ele>768.364258</ele>
  <time>2011-10-15T06:50:40Z</time>
  <speed>1.900000</speed>
</trkpt>
<trkpt lat="33.003578186" lon="35.492446899">
  <ele>768.286133</ele>
  <time>2011-10-15T06:50:42Z</time>
  <speed>1.910000</speed>
</trkpt>
<trkpt lat="33.003555298" lon="35.492416382">
  <ele>768.489258</ele>
  <time>2011-10-15T06:50:44Z</time>
  <speed>1.700000</speed>
</trkpt>
<trkpt lat="33.003543854" lon="35.492385864">
  <ele>768.520508</ele>
  <time>2011-10-15T06:50:46Z</time>
  <speed>2.030000</speed>
</trkpt>
<trkpt lat="33.003532410" lon="35.492340088">
  <ele>768.864258</ele>
  <time>2011-10-15T06:50:48Z</time>
  <speed>2.230000</speed>
</trkpt>
<trkpt lat="33.003517151" lon="35.492301941">
  <ele>769.004883</ele>
  <time>2011-10-15T06:50:50Z</time>
  <speed>2.120000</speed>
</trkpt>
<trkpt lat="33.003498077" lon="35.492271423">
  <ele>769.629883</ele>
  <time>2011-10-15T06:50:52Z</time>
  <speed>1.990000</speed>
</trkpt>
<trkpt lat="33.003479004" lon="35.492237091">
  <ele>769.879883</ele>
  <time>2011-10-15T06:50:54Z</time>
  <speed>1.810000</speed>
</trkpt>
<trkpt lat="33.003452301" lon="35.492195129">
  <ele>769.879883</ele>
  <time>2011-10-15T06:50:56Z</time>
  <speed>1.970000</speed>
</trkpt>
<trkpt lat="33.003425598" lon="35.492153168">
  <ele>769.411133</ele>
  <time>2011-10-15T06:50:58Z</time>
  <speed>1.620000</speed>
</trkpt>
<trkpt lat="33.003398895" lon="35.492122650">
  <ele>769.973633</ele>
  <time>2011-10-15T06:51:00Z</time>
  <speed>1.680000</speed>
</trkpt>
<trkpt lat="33.003372192" lon="35.492111206">
  <ele>769.739258</ele>
  <time>2011-10-15T06:51:02Z</time>
  <speed>1.420000</speed>
</trkpt>
<trkpt lat="33.003337860" lon="35.492103577">
  <ele>769.520508</ele>
  <time>2011-10-15T06:51:04Z</time>
  <speed>1.730000</speed>
</trkpt>
<trkpt lat="33.003303528" lon="35.492076874">
  <ele>769.458008</ele>
  <time>2011-10-15T06:51:06Z</time>
  <speed>1.500000</speed>
</trkpt>
<trkpt lat="33.003276825" lon="35.492069244">
  <ele>770.114258</ele>
  <time>2011-10-15T06:51:08Z</time>
  <speed>1.620000</speed>
</trkpt>
<trkpt lat="33.003246307" lon="35.492057800">
  <ele>770.083008</ele>
  <time>2011-10-15T06:51:10Z</time>
  <speed>1.440000</speed>
</trkpt>
<trkpt lat="33.003208160" lon="35.492038727">
  <ele>770.176758</ele>
  <time>2011-10-15T06:51:13Z</time>
  <speed>1.460000</speed>
</trkpt>
<trkpt lat="33.003173828" lon="35.492023468">
  <ele>770.879883</ele>
  <time>2011-10-15T06:51:15Z</time>
  <speed>1.430000</speed>
</trkpt>
<trkpt lat="33.003143311" lon="35.492008209">
  <ele>770.926758</ele>
  <time>2011-10-15T06:51:17Z</time>
  <speed>1.310000</speed>
</trkpt>
<trkpt lat="33.003108978" lon="35.491992950">
  <ele>770.958008</ele>
  <time>2011-10-15T06:51:19Z</time>
  <speed>1.800000</speed>
</trkpt>
<trkpt lat="33.003082275" lon="35.491973877">
  <ele>771.645508</ele>
  <time>2011-10-15T06:51:21Z</time>
  <speed>1.540000</speed>
</trkpt>
<trkpt lat="33.003063202" lon="35.491947174">
  <ele>771.911133</ele>
  <time>2011-10-15T06:51:23Z</time>
  <speed>1.380000</speed>
</trkpt>
<trkpt lat="33.003040314" lon="35.491916656">
  <ele>771.973633</ele>
  <time>2011-10-15T06:51:26Z</time>
  <speed>1.160000</speed>
</trkpt>
<trkpt lat="33.003013611" lon="35.491889954">
  <ele>771.348633</ele>
  <time>2011-10-15T06:51:29Z</time>
  <speed>1.280000</speed>
</trkpt>
<trkpt lat="33.002994537" lon="35.491859436">
  <ele>770.958008</ele>
  <time>2011-10-15T06:51:32Z</time>
  <speed>1.250000</speed>
</trkpt>
<trkpt lat="33.002979279" lon="35.491825104">
  <ele>771.145508</ele>
  <time>2011-10-15T06:51:34Z</time>
  <speed>1.310000</speed>
</trkpt>
<trkpt lat="33.002952576" lon="35.491786957">
  <ele>770.395508</ele>
  <time>2011-10-15T06:51:36Z</time>
  <speed>1.760000</speed>
</trkpt>
<trkpt lat="33.002925873" lon="35.491756439">
  <ele>769.598633</ele>
  <time>2011-10-15T06:51:38Z</time>
  <speed>1.710000</speed>
</trkpt>
<trkpt lat="33.002902985" lon="35.491725922">
  <ele>769.426758</ele>
  <time>2011-10-15T06:51:40Z</time>
  <speed>1.470000</speed>
</trkpt>
<trkpt lat="33.002864838" lon="35.491706848">
  <ele>770.239258</ele>
  <time>2011-10-15T06:51:43Z</time>
  <speed>1.810000</speed>
</trkpt>
<trkpt lat="33.002838135" lon="35.491687775">
  <ele>769.942383</ele>
  <time>2011-10-15T06:51:45Z</time>
  <speed>2.020000</speed>
</trkpt>
<trkpt lat="33.002811432" lon="35.491668701">
  <ele>770.254883</ele>
  <time>2011-10-15T06:51:47Z</time>
  <speed>1.250000</speed>
</trkpt>
<trkpt lat="33.002780914" lon="35.491645813">
  <ele>770.239258</ele>
  <time>2011-10-15T06:51:50Z</time>
  <speed>1.030000</speed>
</trkpt>
<trkpt lat="33.002750397" lon="35.491622925">
  <ele>769.973633</ele>
  <time>2011-10-15T06:51:52Z</time>
  <speed>1.580000</speed>
</trkpt>
<trkpt lat="33.002716064" lon="35.491607666">
  <ele>769.692383</ele>
  <time>2011-10-15T06:51:54Z</time>
  <speed>1.160000</speed>
</trkpt>
<trkpt lat="33.002677917" lon="35.491596222">
  <ele>770.770508</ele>
  <time>2011-10-15T06:51:56Z</time>
  <speed>1.550000</speed>
</trkpt>
<trkpt lat="33.002635956" lon="35.491580963">
  <ele>771.411133</ele>
  <time>2011-10-15T06:51:58Z</time>
  <speed>2.070000</speed>
</trkpt>
<trkpt lat="33.002597809" lon="35.491565704">
  <ele>771.489258</ele>
  <time>2011-10-15T06:52:00Z</time>
  <speed>1.490000</speed>
</trkpt>
<trkpt lat="33.002571106" lon="35.491558075">
  <ele>772.208008</ele>
  <time>2011-10-15T06:52:01Z</time>
  <speed>1.560000</speed>
</trkpt>
<trkpt lat="33.002529144" lon="35.491550446">
  <ele>772.583008</ele>
  <time>2011-10-15T06:52:03Z</time>
  <speed>1.900000</speed>
</trkpt>
<trkpt lat="33.002475739" lon="35.491569519">
  <ele>774.004883</ele>
  <time>2011-10-15T06:52:05Z</time>
  <speed>2.070000</speed>
</trkpt>
<trkpt lat="33.002429962" lon="35.491577148">
  <ele>774.176758</ele>
  <time>2011-10-15T06:52:07Z</time>
  <speed>2.490000</speed>
</trkpt>
<trkpt lat="33.002391815" lon="35.491588593">
  <ele>774.067383</ele>
  <time>2011-10-15T06:52:09Z</time>
  <speed>2.240000</speed>
</trkpt>
<trkpt lat="33.002353668" lon="35.491611481">
  <ele>774.645508</ele>
  <time>2011-10-15T06:52:11Z</time>
  <speed>2.430000</speed>
</trkpt>
<trkpt lat="33.002304077" lon="35.491630554">
  <ele>774.895508</ele>
  <time>2011-10-15T06:52:13Z</time>
  <speed>2.570000</speed>
</trkpt>
<trkpt lat="33.002262115" lon="35.491649628">
  <ele>775.239258</ele>
  <time>2011-10-15T06:52:15Z</time>
  <speed>2.310000</speed>
</trkpt>
<trkpt lat="33.002220154" lon="35.491664886">
  <ele>775.442383</ele>
  <time>2011-10-15T06:52:17Z</time>
  <speed>2.490000</speed>
</trkpt>
<trkpt lat="33.002178192" lon="35.491691589">
  <ele>775.895508</ele>
  <time>2011-10-15T06:52:19Z</time>
  <speed>2.460000</speed>
</trkpt>
<trkpt lat="33.002136230" lon="35.491718292">
  <ele>776.348633</ele>
  <time>2011-10-15T06:52:21Z</time>
  <speed>2.880000</speed>
</trkpt>
<trkpt lat="33.002094269" lon="35.491748810">
  <ele>776.926758</ele>
  <time>2011-10-15T06:52:23Z</time>
  <speed>2.890000</speed>
</trkpt>
<trkpt lat="33.002067566" lon="35.491764069">
  <ele>776.614258</ele>
  <time>2011-10-15T06:52:24Z</time>
  <speed>2.960000</speed>
</trkpt>
<trkpt lat="33.002021790" lon="35.491794586">
  <ele>777.176758</ele>
  <time>2011-10-15T06:52:26Z</time>
  <speed>2.760000</speed>
</trkpt>
<trkpt lat="33.001995087" lon="35.491806030">
  <ele>777.629883</ele>
  <time>2011-10-15T06:52:27Z</time>
  <speed>2.620000</speed>
</trkpt>
<trkpt lat="33.001953125" lon="35.491825104">
  <ele>778.067383</ele>
  <time>2011-10-15T06:52:29Z</time>
  <speed>2.300000</speed>
</trkpt>
<trkpt lat="33.001911163" lon="35.491844177">
  <ele>778.176758</ele>
  <time>2011-10-15T06:52:31Z</time>
  <speed>2.650000</speed>
</trkpt>
<trkpt lat="33.001865387" lon="35.491870880">
  <ele>778.598633</ele>
  <time>2011-10-15T06:52:33Z</time>
  <speed>2.380000</speed>
</trkpt>
<trkpt lat="33.001838684" lon="35.491882324">
  <ele>777.973633</ele>
  <time>2011-10-15T06:52:34Z</time>
  <speed>2.480000</speed>
</trkpt>
<trkpt lat="33.001781464" lon="35.491901398">
  <ele>778.692383</ele>
  <time>2011-10-15T06:52:36Z</time>
  <speed>2.950000</speed>
</trkpt>
<trkpt lat="33.001750946" lon="35.491909027">
  <ele>779.129883</ele>
  <time>2011-10-15T06:52:37Z</time>
  <speed>2.670000</speed>
</trkpt>
<trkpt lat="33.001701355" lon="35.491920471">
  <ele>780.739258</ele>
  <time>2011-10-15T06:52:39Z</time>
  <speed>2.370000</speed>
</trkpt>
<trkpt lat="33.001647949" lon="35.491931915">
  <ele>781.536133</ele>
  <time>2011-10-15T06:52:41Z</time>
  <speed>2.360000</speed>
</trkpt>
<trkpt lat="33.001609802" lon="35.491939545">
  <ele>781.489258</ele>
  <time>2011-10-15T06:52:43Z</time>
  <speed>2.210000</speed>
</trkpt>
<trkpt lat="33.001571655" lon="35.491939545">
  <ele>781.145508</ele>
  <time>2011-10-15T06:52:45Z</time>
  <speed>2.380000</speed>
</trkpt>
<trkpt lat="33.001533508" lon="35.491943359">
  <ele>780.379883</ele>
  <time>2011-10-15T06:52:47Z</time>
  <speed>2.260000</speed>
</trkpt>
<trkpt lat="33.001491547" lon="35.491947174">
  <ele>780.473633</ele>
  <time>2011-10-15T06:52:49Z</time>
  <speed>2.350000</speed>
</trkpt>
<trkpt lat="33.001457214" lon="35.491966248">
  <ele>779.989258</ele>
  <time>2011-10-15T06:52:51Z</time>
  <speed>1.650000</speed>
</trkpt>
<trkpt lat="33.001426697" lon="35.491962433">
  <ele>779.598633</ele>
  <time>2011-10-15T06:52:53Z</time>
  <speed>1.880000</speed>
</trkpt>
<trkpt lat="33.001392365" lon="35.491958618">
  <ele>779.473633</ele>
  <time>2011-10-15T06:52:55Z</time>
  <speed>1.880000</speed>
</trkpt>
<trkpt lat="33.001354218" lon="35.491970062">
  <ele>779.629883</ele>
  <time>2011-10-15T06:52:57Z</time>
  <speed>1.800000</speed>
</trkpt>
<trkpt lat="33.001316071" lon="35.491966248">
  <ele>780.161133</ele>
  <time>2011-10-15T06:52:59Z</time>
  <speed>1.440000</speed>
</trkpt>
<trkpt lat="33.001281738" lon="35.491966248">
  <ele>780.426758</ele>
  <time>2011-10-15T06:53:01Z</time>
  <speed>1.870000</speed>
</trkpt>
<trkpt lat="33.001235962" lon="35.491973877">
  <ele>780.129883</ele>
  <time>2011-10-15T06:53:03Z</time>
  <speed>2.450000</speed>
</trkpt>
<trkpt lat="33.001186371" lon="35.491966248">
  <ele>779.739258</ele>
  <time>2011-10-15T06:53:05Z</time>
  <speed>3.000000</speed>
</trkpt>
<trkpt lat="33.001136780" lon="35.491954803">
  <ele>780.098633</ele>
  <time>2011-10-15T06:53:07Z</time>
  <speed>2.360000</speed>
</trkpt>
<trkpt lat="33.001102448" lon="35.491939545">
  <ele>780.301758</ele>
  <time>2011-10-15T06:53:09Z</time>
  <speed>1.930000</speed>
</trkpt>
<trkpt lat="33.001071930" lon="35.491931915">
  <ele>779.895508</ele>
  <time>2011-10-15T06:53:11Z</time>
  <speed>1.960000</speed>
</trkpt>
<trkpt lat="33.001037598" lon="35.491935730">
  <ele>779.786133</ele>
  <time>2011-10-15T06:53:13Z</time>
  <speed>2.120000</speed>
</trkpt>
<trkpt lat="33.001003265" lon="35.491962433">
  <ele>779.348633</ele>
  <time>2011-10-15T06:53:15Z</time>
  <speed>2.270000</speed>
</trkpt>
<trkpt lat="33.000968933" lon="35.491981506">
  <ele>779.004883</ele>
  <time>2011-10-15T06:53:17Z</time>
  <speed>2.130000</speed>
</trkpt>
<trkpt lat="33.000938416" lon="35.492004395">
  <ele>779.536133</ele>
  <time>2011-10-15T06:53:19Z</time>
  <speed>2.040000</speed>
</trkpt>
<trkpt lat="33.000904083" lon="35.492034912">
  <ele>780.692383</ele>
  <time>2011-10-15T06:53:21Z</time>
  <speed>2.340000</speed>
</trkpt>
<trkpt lat="33.000877380" lon="35.492076874">
  <ele>781.364258</ele>
  <time>2011-10-15T06:53:23Z</time>
  <speed>2.460000</speed>
</trkpt>
<trkpt lat="33.000862122" lon="35.492103577">
  <ele>781.598633</ele>
  <time>2011-10-15T06:53:24Z</time>
  <speed>2.320000</speed>
</trkpt>
<trkpt lat="33.000843048" lon="35.492130280">
  <ele>781.395508</ele>
  <time>2011-10-15T06:53:25Z</time>
  <speed>2.580000</speed>
</trkpt>
<trkpt lat="33.000820160" lon="35.492168427">
  <ele>781.786133</ele>
  <time>2011-10-15T06:53:27Z</time>
  <speed>1.660000</speed>
</trkpt>
<trkpt lat="33.000797272" lon="35.492202759">
  <ele>781.458008</ele>
  <time>2011-10-15T06:53:29Z</time>
  <speed>1.740000</speed>
</trkpt>
<trkpt lat="33.000770569" lon="35.492240906">
  <ele>781.317383</ele>
  <time>2011-10-15T06:53:31Z</time>
  <speed>2.030000</speed>
</trkpt>
<trkpt lat="33.000743866" lon="35.492286682">
  <ele>781.301758</ele>
  <time>2011-10-15T06:53:33Z</time>
  <speed>2.110000</speed>
</trkpt>
<trkpt lat="33.000728607" lon="35.492328644">
  <ele>780.786133</ele>
  <time>2011-10-15T06:53:35Z</time>
  <speed>2.080000</speed>
</trkpt>
<trkpt lat="33.000713348" lon="35.492366791">
  <ele>780.645508</ele>
  <time>2011-10-15T06:53:37Z</time>
  <speed>1.700000</speed>
</trkpt>
<trkpt lat="33.000701904" lon="35.492404938">
  <ele>779.598633</ele>
  <time>2011-10-15T06:53:39Z</time>
  <speed>2.010000</speed>
</trkpt>
<trkpt lat="33.000705719" lon="35.492458344">
  <ele>779.395508</ele>
  <time>2011-10-15T06:53:41Z</time>
  <speed>2.280000</speed>
</trkpt>
<trkpt lat="33.000713348" lon="35.492511749">
  <ele>780.051758</ele>
  <time>2011-10-15T06:53:43Z</time>
  <speed>2.430000</speed>
</trkpt>
<trkpt lat="33.000717163" lon="35.492549896">
  <ele>781.036133</ele>
  <time>2011-10-15T06:53:44Z</time>
  <speed>2.710000</speed>
</trkpt>
<trkpt lat="33.000728607" lon="35.492580414">
  <ele>781.567383</ele>
  <time>2011-10-15T06:53:45Z</time>
  <speed>2.770000</speed>
</trkpt>
<trkpt lat="33.000736237" lon="35.492618561">
  <ele>782.004883</ele>
  <time>2011-10-15T06:53:46Z</time>
  <speed>2.890000</speed>
</trkpt>
<trkpt lat="33.000747681" lon="35.492656708">
  <ele>782.473633</ele>
  <time>2011-10-15T06:53:47Z</time>
  <speed>3.470000</speed>
</trkpt>
<trkpt lat="33.000766754" lon="35.492687225">
  <ele>783.208008</ele>
  <time>2011-10-15T06:53:48Z</time>
  <speed>3.800000</speed>
</trkpt>
<trkpt lat="33.000782013" lon="35.492729187">
  <ele>783.754883</ele>
  <time>2011-10-15T06:53:49Z</time>
  <speed>3.800000</speed>
</trkpt>
<trkpt lat="33.000793457" lon="35.492771149">
  <ele>784.114258</ele>
  <time>2011-10-15T06:53:50Z</time>
  <speed>3.570000</speed>
</trkpt>
<trkpt lat="33.000804901" lon="35.492805481">
  <ele>784.567383</ele>
  <time>2011-10-15T06:53:51Z</time>
  <speed>3.090000</speed>
</trkpt>
<trkpt lat="33.000816345" lon="35.492839813">
  <ele>783.942383</ele>
  <time>2011-10-15T06:53:52Z</time>
  <speed>2.860000</speed>
</trkpt>
<trkpt lat="33.000823975" lon="35.492874146">
  <ele>783.645508</ele>
  <time>2011-10-15T06:53:53Z</time>
  <speed>3.080000</speed>
</trkpt>
<trkpt lat="33.000839233" lon="35.492904663">
  <ele>784.129883</ele>
  <time>2011-10-15T06:53:54Z</time>
  <speed>3.260000</speed>
</trkpt>
<trkpt lat="33.000862122" lon="35.492935181">
  <ele>784.489258</ele>
  <time>2011-10-15T06:53:55Z</time>
  <speed>3.420000</speed>
</trkpt>
<trkpt lat="33.000877380" lon="35.492969513">
  <ele>784.504883</ele>
  <time>2011-10-15T06:53:56Z</time>
  <speed>3.150000</speed>
</trkpt>
<trkpt lat="33.000896454" lon="35.493003845">
  <ele>785.161133</ele>
  <time>2011-10-15T06:53:57Z</time>
  <speed>3.270000</speed>
</trkpt>
<trkpt lat="33.000911713" lon="35.493038177">
  <ele>785.989258</ele>
  <time>2011-10-15T06:53:58Z</time>
  <speed>2.990000</speed>
</trkpt>
<trkpt lat="33.000926971" lon="35.493068695">
  <ele>786.301758</ele>
  <time>2011-10-15T06:53:59Z</time>
  <speed>3.160000</speed>
</trkpt>
<trkpt lat="33.000938416" lon="35.493110657">
  <ele>786.145508</ele>
  <time>2011-10-15T06:54:00Z</time>
  <speed>3.610000</speed>
</trkpt>
<trkpt lat="33.000949860" lon="35.493148804">
  <ele>786.645508</ele>
  <time>2011-10-15T06:54:01Z</time>
  <speed>4.000000</speed>
</trkpt>
<trkpt lat="33.000965118" lon="35.493194580">
  <ele>786.661133</ele>
  <time>2011-10-15T06:54:02Z</time>
  <speed>4.090000</speed>
</trkpt>
<trkpt lat="33.000980377" lon="35.493236542">
  <ele>787.083008</ele>
  <time>2011-10-15T06:54:03Z</time>
  <speed>3.860000</speed>
</trkpt>
<trkpt lat="33.000988007" lon="35.493278503">
  <ele>786.786133</ele>
  <time>2011-10-15T06:54:04Z</time>
  <speed>3.490000</speed>
</trkpt>
<trkpt lat="33.000991821" lon="35.493316650">
  <ele>787.067383</ele>
  <time>2011-10-15T06:54:05Z</time>
  <speed>3.560000</speed>
</trkpt>
<trkpt lat="33.000995636" lon="35.493350983">
  <ele>787.364258</ele>
  <time>2011-10-15T06:54:06Z</time>
  <speed>3.290000</speed>
</trkpt>
<trkpt lat="33.000991821" lon="35.493385315">
  <ele>787.317383</ele>
  <time>2011-10-15T06:54:07Z</time>
  <speed>3.270000</speed>
</trkpt>
<trkpt lat="33.000984192" lon="35.493450165">
  <ele>787.567383</ele>
  <time>2011-10-15T06:54:09Z</time>
  <speed>3.180000</speed>
</trkpt>
<trkpt lat="33.000984192" lon="35.493484497">
  <ele>787.020508</ele>
  <time>2011-10-15T06:54:10Z</time>
  <speed>3.480000</speed>
</trkpt>
<trkpt lat="33.000980377" lon="35.493522644">
  <ele>786.614258</ele>
  <time>2011-10-15T06:54:11Z</time>
  <speed>3.450000</speed>
</trkpt>
<trkpt lat="33.000976563" lon="35.493556976">
  <ele>785.926758</ele>
  <time>2011-10-15T06:54:12Z</time>
  <speed>3.430000</speed>
</trkpt>
<trkpt lat="33.000961304" lon="35.493598938">
  <ele>784.989258</ele>
  <time>2011-10-15T06:54:13Z</time>
  <speed>4.090000</speed>
</trkpt>
<trkpt lat="33.000930786" lon="35.493633270">
  <ele>783.551758</ele>
  <time>2011-10-15T06:54:14Z</time>
  <speed>4.620000</speed>
</trkpt>
<trkpt lat="33.000907898" lon="35.493675232">
  <ele>782.770508</ele>
  <time>2011-10-15T06:54:15Z</time>
  <speed>4.480000</speed>
</trkpt>
<trkpt lat="33.000885010" lon="35.493701935">
  <ele>781.348633</ele>
  <time>2011-10-15T06:54:16Z</time>
  <speed>3.360000</speed>
</trkpt>
<trkpt lat="33.000854492" lon="35.493740082">
  <ele>779.411133</ele>
  <time>2011-10-15T06:54:18Z</time>
  <speed>1.790000</speed>
</trkpt>
<trkpt lat="33.000823975" lon="35.493770599">
  <ele>777.067383</ele>
  <time>2011-10-15T06:54:20Z</time>
  <speed>2.410000</speed>
</trkpt>
<trkpt lat="33.000808716" lon="35.493797302">
  <ele>776.520508</ele>
  <time>2011-10-15T06:54:21Z</time>
  <speed>3.050000</speed>
</trkpt>
<trkpt lat="33.000785828" lon="35.493816376">
  <ele>775.723633</ele>
  <time>2011-10-15T06:54:22Z</time>
  <speed>3.180000</speed>
</trkpt>
<trkpt lat="33.000762939" lon="35.493843079">
  <ele>774.411133</ele>
  <time>2011-10-15T06:54:23Z</time>
  <speed>3.620000</speed>
</trkpt>
<trkpt lat="33.000743866" lon="35.493869781">
  <ele>773.426758</ele>
  <time>2011-10-15T06:54:24Z</time>
  <speed>2.910000</speed>
</trkpt>
<trkpt lat="33.000717163" lon="35.493896484">
  <ele>772.629883</ele>
  <time>2011-10-15T06:54:25Z</time>
  <speed>3.380000</speed>
</trkpt>
<trkpt lat="33.000694275" lon="35.493923187">
  <ele>771.629883</ele>
  <time>2011-10-15T06:54:26Z</time>
  <speed>3.690000</speed>
</trkpt>
<trkpt lat="33.000667572" lon="35.493957520">
  <ele>771.676758</ele>
  <time>2011-10-15T06:54:27Z</time>
  <speed>3.250000</speed>
</trkpt>
<trkpt lat="33.000644684" lon="35.493995667">
  <ele>771.145508</ele>
  <time>2011-10-15T06:54:28Z</time>
  <speed>3.330000</speed>
</trkpt>
<trkpt lat="33.000633240" lon="35.494045258">
  <ele>770.223633</ele>
  <time>2011-10-15T06:54:29Z</time>
  <speed>4.060000</speed>
</trkpt>
<trkpt lat="33.000629425" lon="35.494091034">
  <ele>769.895508</ele>
  <time>2011-10-15T06:54:30Z</time>
  <speed>3.710000</speed>
</trkpt>
<trkpt lat="33.000621796" lon="35.494163513">
  <ele>770.833008</ele>
  <time>2011-10-15T06:54:31Z</time>
  <speed>4.080000</speed>
</trkpt>
<trkpt lat="33.000614166" lon="35.494205475">
  <ele>770.301758</ele>
  <time>2011-10-15T06:54:32Z</time>
  <speed>3.720000</speed>
</trkpt>
<trkpt lat="33.000602722" lon="35.494247437">
  <ele>769.004883</ele>
  <time>2011-10-15T06:54:33Z</time>
  <speed>3.780000</speed>
</trkpt>
<trkpt lat="33.000602722" lon="35.494285583">
  <ele>769.036133</ele>
  <time>2011-10-15T06:54:34Z</time>
  <speed>3.970000</speed>
</trkpt>
<trkpt lat="33.000591278" lon="35.494327545">
  <ele>768.583008</ele>
  <time>2011-10-15T06:54:35Z</time>
  <speed>4.440000</speed>
</trkpt>
<trkpt lat="33.000568390" lon="35.494365692">
  <ele>767.864258</ele>
  <time>2011-10-15T06:54:36Z</time>
  <speed>4.700000</speed>
</trkpt>
<trkpt lat="33.000534058" lon="35.494400024">
  <ele>766.583008</ele>
  <time>2011-10-15T06:54:37Z</time>
  <speed>3.950000</speed>
</trkpt>
<trkpt lat="33.000507355" lon="35.494422913">
  <ele>765.911133</ele>
  <time>2011-10-15T06:54:38Z</time>
  <speed>4.110000</speed>
</trkpt>
<trkpt lat="33.000476837" lon="35.494449615">
  <ele>765.286133</ele>
  <time>2011-10-15T06:54:39Z</time>
  <speed>4.170000</speed>
</trkpt>
<trkpt lat="33.000446320" lon="35.494468689">
  <ele>764.598633</ele>
  <time>2011-10-15T06:54:40Z</time>
  <speed>3.790000</speed>
</trkpt>
<trkpt lat="33.000419617" lon="35.494491577">
  <ele>763.739258</ele>
  <time>2011-10-15T06:54:41Z</time>
  <speed>3.370000</speed>
</trkpt>
<trkpt lat="33.000377655" lon="35.494514465">
  <ele>763.067383</ele>
  <time>2011-10-15T06:54:42Z</time>
  <speed>4.590000</speed>
</trkpt>
<trkpt lat="33.000335693" lon="35.494541168">
  <ele>762.020508</ele>
  <time>2011-10-15T06:54:43Z</time>
  <speed>5.260000</speed>
</trkpt>
<trkpt lat="33.000278473" lon="35.494556427">
  <ele>761.442383</ele>
  <time>2011-10-15T06:54:44Z</time>
  <speed>5.600000</speed>
</trkpt>
<trkpt lat="33.000232697" lon="35.494571686">
  <ele>760.629883</ele>
  <time>2011-10-15T06:54:45Z</time>
  <speed>5.120000</speed>
</trkpt>
<trkpt lat="33.000183105" lon="35.494594574">
  <ele>760.333008</ele>
  <time>2011-10-15T06:54:46Z</time>
  <speed>5.620000</speed>
</trkpt>
<trkpt lat="33.000133514" lon="35.494613647">
  <ele>759.536133</ele>
  <time>2011-10-15T06:54:47Z</time>
  <speed>5.390000</speed>
</trkpt>
<trkpt lat="33.000080109" lon="35.494628906">
  <ele>759.129883</ele>
  <time>2011-10-15T06:54:48Z</time>
  <speed>5.180000</speed>
</trkpt>
<trkpt lat="33.000038147" lon="35.494636536">
  <ele>758.770508</ele>
  <time>2011-10-15T06:54:49Z</time>
  <speed>4.570000</speed>
</trkpt>
<trkpt lat="33.000000000" lon="35.494644165">
  <ele>758.270508</ele>
  <time>2011-10-15T06:54:50Z</time>
  <speed>4.050000</speed>
</trkpt>
<trkpt lat="32.999958038" lon="35.494651794">
  <ele>758.020508</ele>
  <time>2011-10-15T06:54:51Z</time>
  <speed>3.900000</speed>
</trkpt>
<trkpt lat="32.999904633" lon="35.494667053">
  <ele>757.895508</ele>
  <time>2011-10-15T06:54:52Z</time>
  <speed>4.790000</speed>
</trkpt>
<trkpt lat="32.999858856" lon="35.494678497">
  <ele>757.379883</ele>
  <time>2011-10-15T06:54:53Z</time>
  <speed>4.300000</speed>
</trkpt>
<trkpt lat="32.999824524" lon="35.494709015">
  <ele>757.004883</ele>
  <time>2011-10-15T06:54:54Z</time>
  <speed>4.540000</speed>
</trkpt>
<trkpt lat="32.999786377" lon="35.494739532">
  <ele>756.551758</ele>
  <time>2011-10-15T06:54:55Z</time>
  <speed>5.250000</speed>
</trkpt>
<trkpt lat="32.999736786" lon="35.494777679">
  <ele>756.114258</ele>
  <time>2011-10-15T06:54:56Z</time>
  <speed>5.420000</speed>
</trkpt>
<trkpt lat="32.999698639" lon="35.494827271">
  <ele>755.567383</ele>
  <time>2011-10-15T06:54:57Z</time>
  <speed>6.200000</speed>
</trkpt>
<trkpt lat="32.999649048" lon="35.494880676">
  <ele>755.458008</ele>
  <time>2011-10-15T06:54:58Z</time>
  <speed>6.460000</speed>
</trkpt>
<trkpt lat="32.999610901" lon="35.494937897">
  <ele>755.161133</ele>
  <time>2011-10-15T06:54:59Z</time>
  <speed>6.750000</speed>
</trkpt>
<trkpt lat="32.999565125" lon="35.494991302">
  <ele>754.348633</ele>
  <time>2011-10-15T06:55:00Z</time>
  <speed>6.560000</speed>
</trkpt>
<trkpt lat="32.999523163" lon="35.495059967">
  <ele>753.895508</ele>
  <time>2011-10-15T06:55:01Z</time>
  <speed>6.770000</speed>
</trkpt>
<trkpt lat="32.999481201" lon="35.495113373">
  <ele>753.129883</ele>
  <time>2011-10-15T06:55:02Z</time>
  <speed>7.200000</speed>
</trkpt>
<trkpt lat="32.999450684" lon="35.495178223">
  <ele>752.942383</ele>
  <time>2011-10-15T06:55:03Z</time>
  <speed>6.290000</speed>
</trkpt>
<trkpt lat="32.999416351" lon="35.495246887">
  <ele>752.817383</ele>
  <time>2011-10-15T06:55:04Z</time>
  <speed>7.340000</speed>
</trkpt>
<trkpt lat="32.999374390" lon="35.495319366">
  <ele>752.458008</ele>
  <time>2011-10-15T06:55:05Z</time>
  <speed>6.670000</speed>
</trkpt>
<trkpt lat="32.999336243" lon="35.495372772">
  <ele>751.770508</ele>
  <time>2011-10-15T06:55:06Z</time>
  <speed>6.440000</speed>
</trkpt>
<trkpt lat="32.999290466" lon="35.495433807">
  <ele>751.942383</ele>
  <time>2011-10-15T06:55:07Z</time>
  <speed>7.110000</speed>
</trkpt>
<trkpt lat="32.999244690" lon="35.495475769">
  <ele>751.958008</ele>
  <time>2011-10-15T06:55:08Z</time>
  <speed>7.180000</speed>
</trkpt>
<trkpt lat="32.999198914" lon="35.495532990">
  <ele>751.879883</ele>
  <time>2011-10-15T06:55:09Z</time>
  <speed>6.920000</speed>
</trkpt>
<trkpt lat="32.999153137" lon="35.495594025">
  <ele>751.614258</ele>
  <time>2011-10-15T06:55:10Z</time>
  <speed>7.210000</speed>
</trkpt>
<trkpt lat="32.999111176" lon="35.495647430">
  <ele>751.786133</ele>
  <time>2011-10-15T06:55:11Z</time>
  <speed>6.720000</speed>
</trkpt>
<trkpt lat="32.999069214" lon="35.495708466">
  <ele>752.083008</ele>
  <time>2011-10-15T06:55:12Z</time>
  <speed>6.190000</speed>
</trkpt>
<trkpt lat="32.999042511" lon="35.495769501">
  <ele>751.567383</ele>
  <time>2011-10-15T06:55:13Z</time>
  <speed>5.940000</speed>
</trkpt>
<trkpt lat="32.999015808" lon="35.495822906">
  <ele>751.317383</ele>
  <time>2011-10-15T06:55:14Z</time>
  <speed>6.070000</speed>
</trkpt>
<trkpt lat="32.998992920" lon="35.495903015">
  <ele>753.348633</ele>
  <time>2011-10-15T06:55:15Z</time>
  <speed>5.880000</speed>
</trkpt>
<trkpt lat="32.998977661" lon="35.495983124">
  <ele>755.489258</ele>
  <time>2011-10-15T06:55:16Z</time>
  <speed>5.740000</speed>
</trkpt>
<trkpt lat="32.998958588" lon="35.496044159">
  <ele>756.723633</ele>
  <time>2011-10-15T06:55:17Z</time>
  <speed>5.450000</speed>
</trkpt>
<trkpt lat="32.998943329" lon="35.496101379">
  <ele>757.614258</ele>
  <time>2011-10-15T06:55:18Z</time>
  <speed>5.280000</speed>
</trkpt>
<trkpt lat="32.998928070" lon="35.496150970">
  <ele>758.442383</ele>
  <time>2011-10-15T06:55:19Z</time>
  <speed>4.450000</speed>
</trkpt>
<trkpt lat="32.998916626" lon="35.496196747">
  <ele>758.661133</ele>
  <time>2011-10-15T06:55:20Z</time>
  <speed>3.790000</speed>
</trkpt>
<trkpt lat="32.998908997" lon="35.496234894">
  <ele>758.395508</ele>
  <time>2011-10-15T06:55:21Z</time>
  <speed>3.530000</speed>
</trkpt>
<trkpt lat="32.998905182" lon="35.496276855">
  <ele>758.676758</ele>
  <time>2011-10-15T06:55:22Z</time>
  <speed>4.050000</speed>
</trkpt>
<trkpt lat="32.998901367" lon="35.496318817">
  <ele>758.786133</ele>
  <time>2011-10-15T06:55:23Z</time>
  <speed>4.060000</speed>
</trkpt>
<trkpt lat="32.998901367" lon="35.496368408">
  <ele>758.520508</ele>
  <time>2011-10-15T06:55:24Z</time>
  <speed>5.030000</speed>
</trkpt>
<trkpt lat="32.998897552" lon="35.496425629">
  <ele>758.426758</ele>
  <time>2011-10-15T06:55:25Z</time>
  <speed>5.290000</speed>
</trkpt>
<trkpt lat="32.998893738" lon="35.496479034">
  <ele>758.739258</ele>
  <time>2011-10-15T06:55:26Z</time>
  <speed>4.730000</speed>
</trkpt>
<trkpt lat="32.998882294" lon="35.496536255">
  <ele>759.645508</ele>
  <time>2011-10-15T06:55:27Z</time>
  <speed>4.720000</speed>
</trkpt>
<trkpt lat="32.998878479" lon="35.496585846">
  <ele>760.536133</ele>
  <time>2011-10-15T06:55:28Z</time>
  <speed>4.530000</speed>
</trkpt>
<trkpt lat="32.998870850" lon="35.496635437">
  <ele>762.270508</ele>
  <time>2011-10-15T06:55:29Z</time>
  <speed>3.940000</speed>
</trkpt>
<trkpt lat="32.998867035" lon="35.496688843">
  <ele>763.458008</ele>
  <time>2011-10-15T06:55:30Z</time>
  <speed>3.900000</speed>
</trkpt>
<trkpt lat="32.998859406" lon="35.496730804">
  <ele>763.958008</ele>
  <time>2011-10-15T06:55:31Z</time>
  <speed>4.260000</speed>
</trkpt>
<trkpt lat="32.998851776" lon="35.496788025">
  <ele>764.270508</ele>
  <time>2011-10-15T06:55:32Z</time>
  <speed>5.590000</speed>
</trkpt>
<trkpt lat="32.998847961" lon="35.496852875">
  <ele>764.442383</ele>
  <time>2011-10-15T06:55:33Z</time>
  <speed>6.240000</speed>
</trkpt>
<trkpt lat="32.998840332" lon="35.496925354">
  <ele>764.458008</ele>
  <time>2011-10-15T06:55:34Z</time>
  <speed>7.060000</speed>
</trkpt>
<trkpt lat="32.998832703" lon="35.497001648">
  <ele>764.301758</ele>
  <time>2011-10-15T06:55:35Z</time>
  <speed>7.360000</speed>
</trkpt>
<trkpt lat="32.998825073" lon="35.497077942">
  <ele>764.270508</ele>
  <time>2011-10-15T06:55:36Z</time>
  <speed>6.820000</speed>
</trkpt>
<trkpt lat="32.998794556" lon="35.497154236">
  <ele>764.473633</ele>
  <time>2011-10-15T06:55:37Z</time>
  <speed>6.750000</speed>
</trkpt>
<trkpt lat="32.998771667" lon="35.497211456">
  <ele>764.473633</ele>
  <time>2011-10-15T06:55:38Z</time>
  <speed>5.850000</speed>
</trkpt>
<trkpt lat="32.998764038" lon="35.497276306">
  <ele>765.973633</ele>
  <time>2011-10-15T06:55:39Z</time>
  <speed>5.640000</speed>
</trkpt>
<trkpt lat="32.998748779" lon="35.497337341">
  <ele>765.895508</ele>
  <time>2011-10-15T06:55:40Z</time>
  <speed>5.210000</speed>
</trkpt>
<trkpt lat="32.998756409" lon="35.497394562">
  <ele>767.879883</ele>
  <time>2011-10-15T06:55:41Z</time>
  <speed>4.650000</speed>
</trkpt>
<trkpt lat="32.998756409" lon="35.497444153">
  <ele>767.942383</ele>
  <time>2011-10-15T06:55:42Z</time>
  <speed>4.510000</speed>
</trkpt>
<trkpt lat="32.998752594" lon="35.497493744">
  <ele>768.020508</ele>
  <time>2011-10-15T06:55:43Z</time>
  <speed>4.120000</speed>
</trkpt>
<trkpt lat="32.998752594" lon="35.497535706">
  <ele>767.754883</ele>
  <time>2011-10-15T06:55:44Z</time>
  <speed>4.290000</speed>
</trkpt>
<trkpt lat="32.998756409" lon="35.497585297">
  <ele>767.786133</ele>
  <time>2011-10-15T06:55:45Z</time>
  <speed>4.240000</speed>
</trkpt>
<trkpt lat="32.998756409" lon="35.497627258">
  <ele>768.098633</ele>
  <time>2011-10-15T06:55:46Z</time>
  <speed>3.940000</speed>
</trkpt>
<trkpt lat="32.998756409" lon="35.497676849">
  <ele>768.176758</ele>
  <time>2011-10-15T06:55:47Z</time>
  <speed>4.000000</speed>
</trkpt>
<trkpt lat="32.998756409" lon="35.497722626">
  <ele>767.989258</ele>
  <time>2011-10-15T06:55:48Z</time>
  <speed>4.020000</speed>
</trkpt>
<trkpt lat="32.998760223" lon="35.497768402">
  <ele>768.114258</ele>
  <time>2011-10-15T06:55:49Z</time>
  <speed>4.120000</speed>
</trkpt>
<trkpt lat="32.998771667" lon="35.497810364">
  <ele>768.145508</ele>
  <time>2011-10-15T06:55:50Z</time>
  <speed>3.740000</speed>
</trkpt>
<trkpt lat="32.998783112" lon="35.497844696">
  <ele>768.614258</ele>
  <time>2011-10-15T06:55:51Z</time>
  <speed>3.120000</speed>
</trkpt>
<trkpt lat="32.998794556" lon="35.497875214">
  <ele>768.442383</ele>
  <time>2011-10-15T06:55:52Z</time>
  <speed>2.550000</speed>
</trkpt>
<trkpt lat="32.998813629" lon="35.497924805">
  <ele>768.598633</ele>
  <time>2011-10-15T06:55:54Z</time>
  <speed>1.810000</speed>
</trkpt>
<trkpt lat="32.998840332" lon="35.497951508">
  <ele>767.786133</ele>
  <time>2011-10-15T06:55:56Z</time>
  <speed>2.100000</speed>
</trkpt>
<trkpt lat="32.998867035" lon="35.497989655">
  <ele>767.629883</ele>
  <time>2011-10-15T06:55:58Z</time>
  <speed>2.340000</speed>
</trkpt>
<trkpt lat="32.998893738" lon="35.498027802">
  <ele>766.817383</ele>
  <time>2011-10-15T06:56:00Z</time>
  <speed>2.520000</speed>
</trkpt>
<trkpt lat="32.998928070" lon="35.498069763">
  <ele>766.270508</ele>
  <time>2011-10-15T06:56:02Z</time>
  <speed>2.410000</speed>
</trkpt>
<trkpt lat="32.998962402" lon="35.498100281">
  <ele>765.770508</ele>
  <time>2011-10-15T06:56:04Z</time>
  <speed>2.110000</speed>
</trkpt>
<trkpt lat="32.999000549" lon="35.498130798">
  <ele>764.708008</ele>
  <time>2011-10-15T06:56:06Z</time>
  <speed>2.230000</speed>
</trkpt>
<trkpt lat="32.999038696" lon="35.498157501">
  <ele>762.942383</ele>
  <time>2011-10-15T06:56:08Z</time>
  <speed>2.850000</speed>
</trkpt>
<trkpt lat="32.999065399" lon="35.498176575">
  <ele>762.504883</ele>
  <time>2011-10-15T06:56:09Z</time>
  <speed>2.620000</speed>
</trkpt>
<trkpt lat="32.999095917" lon="35.498199463">
  <ele>762.536133</ele>
  <time>2011-10-15T06:56:10Z</time>
  <speed>2.720000</speed>
</trkpt>
<trkpt lat="32.999118805" lon="35.498214722">
  <ele>762.473633</ele>
  <time>2011-10-15T06:56:11Z</time>
  <speed>2.170000</speed>
</trkpt>
<trkpt lat="32.999156952" lon="35.498249054">
  <ele>762.942383</ele>
  <time>2011-10-15T06:56:13Z</time>
  <speed>1.730000</speed>
</trkpt>
<trkpt lat="32.999198914" lon="35.498279572">
  <ele>763.583008</ele>
  <time>2011-10-15T06:56:15Z</time>
  <speed>1.950000</speed>
</trkpt>
<trkpt lat="32.999233246" lon="35.498321533">
  <ele>764.286133</ele>
  <time>2011-10-15T06:56:17Z</time>
  <speed>2.170000</speed>
</trkpt>
<trkpt lat="32.999256134" lon="35.498336792">
  <ele>764.129883</ele>
  <time>2011-10-15T06:56:18Z</time>
  <speed>2.300000</speed>
</trkpt>
<trkpt lat="32.999279022" lon="35.498348236">
  <ele>763.895508</ele>
  <time>2011-10-15T06:56:19Z</time>
  <speed>2.430000</speed>
</trkpt>
<trkpt lat="32.999317169" lon="35.498394012">
  <ele>763.692383</ele>
  <time>2011-10-15T06:56:21Z</time>
  <speed>2.550000</speed>
</trkpt>
<trkpt lat="32.999351501" lon="35.498439789">
  <ele>763.598633</ele>
  <time>2011-10-15T06:56:23Z</time>
  <speed>2.250000</speed>
</trkpt>
<trkpt lat="32.999366760" lon="35.498489380">
  <ele>762.754883</ele>
  <time>2011-10-15T06:56:25Z</time>
  <speed>2.410000</speed>
</trkpt>
<trkpt lat="32.999389648" lon="35.498516083">
  <ele>764.145508</ele>
  <time>2011-10-15T06:56:26Z</time>
  <speed>2.670000</speed>
</trkpt>
<trkpt lat="32.999416351" lon="35.498561859">
  <ele>763.973633</ele>
  <time>2011-10-15T06:56:28Z</time>
  <speed>1.990000</speed>
</trkpt>
<trkpt lat="32.999439240" lon="35.498611450">
  <ele>763.176758</ele>
  <time>2011-10-15T06:56:30Z</time>
  <speed>2.150000</speed>
</trkpt>
<trkpt lat="32.999458313" lon="35.498664856">
  <ele>763.129883</ele>
  <time>2011-10-15T06:56:32Z</time>
  <speed>1.820000</speed>
</trkpt>
<trkpt lat="32.999473572" lon="35.498725891">
  <ele>763.098633</ele>
  <time>2011-10-15T06:56:34Z</time>
  <speed>2.100000</speed>
</trkpt>
<trkpt lat="32.999488831" lon="35.498790741">
  <ele>762.973633</ele>
  <time>2011-10-15T06:56:36Z</time>
  <speed>2.610000</speed>
</trkpt>
<trkpt lat="32.999500275" lon="35.498825073">
  <ele>763.098633</ele>
  <time>2011-10-15T06:56:37Z</time>
  <speed>2.550000</speed>
</trkpt>
<trkpt lat="32.999500275" lon="35.498878479">
  <ele>762.692383</ele>
  <time>2011-10-15T06:56:39Z</time>
  <speed>2.540000</speed>
</trkpt>
<trkpt lat="32.999496460" lon="35.498939514">
  <ele>761.489258</ele>
  <time>2011-10-15T06:56:41Z</time>
  <speed>2.600000</speed>
</trkpt>
<trkpt lat="32.999507904" lon="35.498996735">
  <ele>761.161133</ele>
  <time>2011-10-15T06:56:43Z</time>
  <speed>2.300000</speed>
</trkpt>
<trkpt lat="32.999519348" lon="35.499042511">
  <ele>760.879883</ele>
  <time>2011-10-15T06:56:45Z</time>
  <speed>1.980000</speed>
</trkpt>
<trkpt lat="32.999542236" lon="35.499088287">
  <ele>761.223633</ele>
  <time>2011-10-15T06:56:47Z</time>
  <speed>2.440000</speed>
</trkpt>
<trkpt lat="32.999546051" lon="35.499153137">
  <ele>761.567383</ele>
  <time>2011-10-15T06:56:49Z</time>
  <speed>1.710000</speed>
</trkpt>
<trkpt lat="32.999549866" lon="35.499210358">
  <ele>762.364258</ele>
  <time>2011-10-15T06:56:51Z</time>
  <speed>2.120000</speed>
</trkpt>
<trkpt lat="32.999576569" lon="35.499225616">
  <ele>763.895508</ele>
  <time>2011-10-15T06:56:52Z</time>
  <speed>2.250000</speed>
</trkpt>
<trkpt lat="32.999588013" lon="35.499256134">
  <ele>763.676758</ele>
  <time>2011-10-15T06:56:53Z</time>
  <speed>2.470000</speed>
</trkpt>
<trkpt lat="32.999622345" lon="35.499301910">
  <ele>764.833008</ele>
  <time>2011-10-15T06:56:55Z</time>
  <speed>2.510000</speed>
</trkpt>
<trkpt lat="32.999637604" lon="35.499332428">
  <ele>764.879883</ele>
  <time>2011-10-15T06:56:56Z</time>
  <speed>2.490000</speed>
</trkpt>
<trkpt lat="32.999660492" lon="35.499389648">
  <ele>764.723633</ele>
  <time>2011-10-15T06:56:58Z</time>
  <speed>2.400000</speed>
</trkpt>
<trkpt lat="32.999679565" lon="35.499408722">
  <ele>765.317383</ele>
  <time>2011-10-15T06:56:59Z</time>
  <speed>2.290000</speed>
</trkpt>
<trkpt lat="32.999710083" lon="35.499469757">
  <ele>766.473633</ele>
  <time>2011-10-15T06:57:01Z</time>
  <speed>2.530000</speed>
</trkpt>
<trkpt lat="32.999717712" lon="35.499500275">
  <ele>766.926758</ele>
  <time>2011-10-15T06:57:02Z</time>
  <speed>2.260000</speed>
</trkpt>
<trkpt lat="32.999732971" lon="35.499526978">
  <ele>766.942383</ele>
  <time>2011-10-15T06:57:03Z</time>
  <speed>2.410000</speed>
</trkpt>
<trkpt lat="32.999759674" lon="35.499568939">
  <ele>767.020508</ele>
  <time>2011-10-15T06:57:05Z</time>
  <speed>2.090000</speed>
</trkpt>
<trkpt lat="32.999794006" lon="35.499599457">
  <ele>768.114258</ele>
  <time>2011-10-15T06:57:07Z</time>
  <speed>2.140000</speed>
</trkpt>
<trkpt lat="32.999813080" lon="35.499626160">
  <ele>768.895508</ele>
  <time>2011-10-15T06:57:08Z</time>
  <speed>2.350000</speed>
</trkpt>
<trkpt lat="32.999851227" lon="35.499675751">
  <ele>768.661133</ele>
  <time>2011-10-15T06:57:10Z</time>
  <speed>2.590000</speed>
</trkpt>
<trkpt lat="32.999866486" lon="35.499698639">
  <ele>769.270508</ele>
  <time>2011-10-15T06:57:11Z</time>
  <speed>2.640000</speed>
</trkpt>
<trkpt lat="32.999897003" lon="35.499755859">
  <ele>769.333008</ele>
  <time>2011-10-15T06:57:13Z</time>
  <speed>2.700000</speed>
</trkpt>
<trkpt lat="32.999935150" lon="35.499809265">
  <ele>770.379883</ele>
  <time>2011-10-15T06:57:15Z</time>
  <speed>2.660000</speed>
</trkpt>
<trkpt lat="32.999954224" lon="35.499832153">
  <ele>771.520508</ele>
  <time>2011-10-15T06:57:16Z</time>
  <speed>2.540000</speed>
</trkpt>
<trkpt lat="32.999969482" lon="35.499862671">
  <ele>772.208008</ele>
  <time>2011-10-15T06:57:17Z</time>
  <speed>2.750000</speed>
</trkpt>
<trkpt lat="32.999988556" lon="35.499927521">
  <ele>772.754883</ele>
  <time>2011-10-15T06:57:19Z</time>
  <speed>2.810000</speed>
</trkpt>
<trkpt lat="33.000030518" lon="35.499973297">
  <ele>774.676758</ele>
  <time>2011-10-15T06:57:21Z</time>
  <speed>2.420000</speed>
</trkpt>
<trkpt lat="33.000038147" lon="35.500019073">
  <ele>774.051758</ele>
  <time>2011-10-15T06:57:23Z</time>
  <speed>1.580000</speed>
</trkpt>
<trkpt lat="33.000038147" lon="35.500053406">
  <ele>773.958008</ele>
  <time>2011-10-15T06:57:25Z</time>
  <speed>2.100000</speed>
</trkpt>
<trkpt lat="33.000015259" lon="35.500095367">
  <ele>772.676758</ele>
  <time>2011-10-15T06:57:27Z</time>
  <speed>2.070000</speed>
</trkpt>
<trkpt lat="33.000007629" lon="35.500133514">
  <ele>772.020508</ele>
  <time>2011-10-15T06:57:29Z</time>
  <speed>1.900000</speed>
</trkpt>
<trkpt lat="32.999988556" lon="35.500186920">
  <ele>771.692383</ele>
  <time>2011-10-15T06:57:31Z</time>
  <speed>2.560000</speed>
</trkpt>
<trkpt lat="32.999965668" lon="35.500228882">
  <ele>771.489258</ele>
  <time>2011-10-15T06:57:33Z</time>
  <speed>2.420000</speed>
</trkpt>
<trkpt lat="32.999935150" lon="35.500263214">
  <ele>771.598633</ele>
  <time>2011-10-15T06:57:35Z</time>
  <speed>2.200000</speed>
</trkpt>
<trkpt lat="32.999904633" lon="35.500297546">
  <ele>772.442383</ele>
  <time>2011-10-15T06:57:37Z</time>
  <speed>2.100000</speed>
</trkpt>
<trkpt lat="32.999877930" lon="35.500328064">
  <ele>771.723633</ele>
  <time>2011-10-15T06:57:39Z</time>
  <speed>2.130000</speed>
</trkpt>
<trkpt lat="32.999839783" lon="35.500358582">
  <ele>771.926758</ele>
  <time>2011-10-15T06:57:41Z</time>
  <speed>2.780000</speed>
</trkpt>
<trkpt lat="32.999794006" lon="35.500381470">
  <ele>771.520508</ele>
  <time>2011-10-15T06:57:43Z</time>
  <speed>2.450000</speed>
</trkpt>
<trkpt lat="32.999748230" lon="35.500408173">
  <ele>771.254883</ele>
  <time>2011-10-15T06:57:45Z</time>
  <speed>2.900000</speed>
</trkpt>
<trkpt lat="32.999702454" lon="35.500419617">
  <ele>771.208008</ele>
  <time>2011-10-15T06:57:47Z</time>
  <speed>2.820000</speed>
</trkpt>
<trkpt lat="32.999649048" lon="35.500434875">
  <ele>770.426758</ele>
  <time>2011-10-15T06:57:49Z</time>
  <speed>3.140000</speed>
</trkpt>
<trkpt lat="32.999595642" lon="35.500453949">
  <ele>770.317383</ele>
  <time>2011-10-15T06:57:51Z</time>
  <speed>3.460000</speed>
</trkpt>
<trkpt lat="32.999568939" lon="35.500461578">
  <ele>770.176758</ele>
  <time>2011-10-15T06:57:52Z</time>
  <speed>3.160000</speed>
</trkpt>
<trkpt lat="32.999534607" lon="35.500461578">
  <ele>770.254883</ele>
  <time>2011-10-15T06:57:53Z</time>
  <speed>3.450000</speed>
</trkpt>
<trkpt lat="32.999504089" lon="35.500465393">
  <ele>769.848633</ele>
  <time>2011-10-15T06:57:54Z</time>
  <speed>3.540000</speed>
</trkpt>
<trkpt lat="32.999465942" lon="35.500461578">
  <ele>769.176758</ele>
  <time>2011-10-15T06:57:55Z</time>
  <speed>3.340000</speed>
</trkpt>
<trkpt lat="32.999435425" lon="35.500469208">
  <ele>768.629883</ele>
  <time>2011-10-15T06:57:56Z</time>
  <speed>3.070000</speed>
</trkpt>
<trkpt lat="32.999389648" lon="35.500488281">
  <ele>767.973633</ele>
  <time>2011-10-15T06:57:58Z</time>
  <speed>2.650000</speed>
</trkpt>
<trkpt lat="32.999343872" lon="35.500503540">
  <ele>767.176758</ele>
  <time>2011-10-15T06:58:00Z</time>
  <speed>2.450000</speed>
</trkpt>
<trkpt lat="32.999305725" lon="35.500518799">
  <ele>766.801758</ele>
  <time>2011-10-15T06:58:02Z</time>
  <speed>2.300000</speed>
</trkpt>
<trkpt lat="32.999263763" lon="35.500537872">
  <ele>766.661133</ele>
  <time>2011-10-15T06:58:04Z</time>
  <speed>2.370000</speed>
</trkpt>
<trkpt lat="32.999225616" lon="35.500553131">
  <ele>766.161133</ele>
  <time>2011-10-15T06:58:06Z</time>
  <speed>2.100000</speed>
</trkpt>
<trkpt lat="32.999195099" lon="35.500572205">
  <ele>766.004883</ele>
  <time>2011-10-15T06:58:08Z</time>
  <speed>2.110000</speed>
</trkpt>
<trkpt lat="32.999164581" lon="35.500606537">
  <ele>765.270508</ele>
  <time>2011-10-15T06:58:10Z</time>
  <speed>2.120000</speed>
</trkpt>
<trkpt lat="32.999137878" lon="35.500633240">
  <ele>764.536133</ele>
  <time>2011-10-15T06:58:12Z</time>
  <speed>1.930000</speed>
</trkpt>
<trkpt lat="32.999111176" lon="35.500659943">
  <ele>763.676758</ele>
  <time>2011-10-15T06:58:14Z</time>
  <speed>2.060000</speed>
</trkpt>
<trkpt lat="32.999092102" lon="35.500690460">
  <ele>764.489258</ele>
  <time>2011-10-15T06:58:16Z</time>
  <speed>1.720000</speed>
</trkpt>
<trkpt lat="32.999076843" lon="35.500724792">
  <ele>763.942383</ele>
  <time>2011-10-15T06:58:18Z</time>
  <speed>1.520000</speed>
</trkpt>
<trkpt lat="32.999053955" lon="35.500747681">
  <ele>763.223633</ele>
  <time>2011-10-15T06:58:20Z</time>
  <speed>1.820000</speed>
</trkpt>
<trkpt lat="32.999023438" lon="35.500782013">
  <ele>762.411133</ele>
  <time>2011-10-15T06:58:22Z</time>
  <speed>2.240000</speed>
</trkpt>
<trkpt lat="32.999004364" lon="35.500812531">
  <ele>762.051758</ele>
  <time>2011-10-15T06:58:24Z</time>
  <speed>1.880000</speed>
</trkpt>
<trkpt lat="32.998985291" lon="35.500843048">
  <ele>761.036133</ele>
  <time>2011-10-15T06:58:26Z</time>
  <speed>1.680000</speed>
</trkpt>
<trkpt lat="32.998966217" lon="35.500873566">
  <ele>760.208008</ele>
  <time>2011-10-15T06:58:28Z</time>
  <speed>1.950000</speed>
</trkpt>
<trkpt lat="32.998950958" lon="35.500907898">
  <ele>759.458008</ele>
  <time>2011-10-15T06:58:30Z</time>
  <speed>1.900000</speed>
</trkpt>
<trkpt lat="32.998939514" lon="35.500965118">
  <ele>759.129883</ele>
  <time>2011-10-15T06:58:32Z</time>
  <speed>2.440000</speed>
</trkpt>
<trkpt lat="32.998920441" lon="35.501018524">
  <ele>758.879883</ele>
  <time>2011-10-15T06:58:34Z</time>
  <speed>2.460000</speed>
</trkpt>
<trkpt lat="32.998916626" lon="35.501060486">
  <ele>759.942383</ele>
  <time>2011-10-15T06:58:35Z</time>
  <speed>2.540000</speed>
</trkpt>
<trkpt lat="32.998912811" lon="35.501117706">
  <ele>763.286133</ele>
  <time>2011-10-15T06:58:36Z</time>
  <speed>2.620000</speed>
</trkpt>
<trkpt lat="32.998912811" lon="35.501171112">
  <ele>765.520508</ele>
  <time>2011-10-15T06:58:37Z</time>
  <speed>2.550000</speed>
</trkpt>
<trkpt lat="32.998912811" lon="35.501228333">
  <ele>766.161133</ele>
  <time>2011-10-15T06:58:39Z</time>
  <speed>2.520000</speed>
</trkpt>
<trkpt lat="32.998908997" lon="35.501277924">
  <ele>766.083008</ele>
  <time>2011-10-15T06:58:41Z</time>
  <speed>2.550000</speed>
</trkpt>
<trkpt lat="32.998893738" lon="35.501331329">
  <ele>766.145508</ele>
  <time>2011-10-15T06:58:43Z</time>
  <speed>2.480000</speed>
</trkpt>
<trkpt lat="32.998889923" lon="35.501369476">
  <ele>766.270508</ele>
  <time>2011-10-15T06:58:44Z</time>
  <speed>2.590000</speed>
</trkpt>
<trkpt lat="32.998901367" lon="35.501430511">
  <ele>767.879883</ele>
  <time>2011-10-15T06:58:46Z</time>
  <speed>2.720000</speed>
</trkpt>
<trkpt lat="32.998908997" lon="35.501464844">
  <ele>768.958008</ele>
  <time>2011-10-15T06:58:47Z</time>
  <speed>2.740000</speed>
</trkpt>
<trkpt lat="32.998924255" lon="35.501525879">
  <ele>770.348633</ele>
  <time>2011-10-15T06:58:49Z</time>
  <speed>2.990000</speed>
</trkpt>
<trkpt lat="32.998943329" lon="35.501560211">
  <ele>772.614258</ele>
  <time>2011-10-15T06:58:50Z</time>
  <speed>2.680000</speed>
</trkpt>
<trkpt lat="32.998958588" lon="35.501590729">
  <ele>773.551758</ele>
  <time>2011-10-15T06:58:51Z</time>
  <speed>2.960000</speed>
</trkpt>
<trkpt lat="32.998970032" lon="35.501621246">
  <ele>774.192383</ele>
  <time>2011-10-15T06:58:52Z</time>
  <speed>3.030000</speed>
</trkpt>
<trkpt lat="32.998989105" lon="35.501655579">
  <ele>775.286133</ele>
  <time>2011-10-15T06:58:53Z</time>
  <speed>3.230000</speed>
</trkpt>
<trkpt lat="32.999004364" lon="35.501682281">
  <ele>775.129883</ele>
  <time>2011-10-15T06:58:54Z</time>
  <speed>3.240000</speed>
</trkpt>
<trkpt lat="32.999023438" lon="35.501712799">
  <ele>775.692383</ele>
  <time>2011-10-15T06:58:55Z</time>
  <speed>3.220000</speed>
</trkpt>
<trkpt lat="32.999053955" lon="35.501762390">
  <ele>776.286133</ele>
  <time>2011-10-15T06:58:57Z</time>
  <speed>3.260000</speed>
</trkpt>
<trkpt lat="32.999065399" lon="35.501792908">
  <ele>775.926758</ele>
  <time>2011-10-15T06:58:58Z</time>
  <speed>3.280000</speed>
</trkpt>
<trkpt lat="32.999088287" lon="35.501827240">
  <ele>776.067383</ele>
  <time>2011-10-15T06:58:59Z</time>
  <speed>3.320000</speed>
</trkpt>
<trkpt lat="32.999107361" lon="35.501861572">
  <ele>776.348633</ele>
  <time>2011-10-15T06:59:00Z</time>
  <speed>3.320000</speed>
</trkpt>
<trkpt lat="32.999134064" lon="35.501892090">
  <ele>777.301758</ele>
  <time>2011-10-15T06:59:01Z</time>
  <speed>3.110000</speed>
</trkpt>
<trkpt lat="32.999153137" lon="35.501918793">
  <ele>777.192383</ele>
  <time>2011-10-15T06:59:02Z</time>
  <speed>2.930000</speed>
</trkpt>
<trkpt lat="32.999172211" lon="35.501949310">
  <ele>777.161133</ele>
  <time>2011-10-15T06:59:03Z</time>
  <speed>2.930000</speed>
</trkpt>
<trkpt lat="32.999206543" lon="35.501991272">
  <ele>777.426758</ele>
  <time>2011-10-15T06:59:05Z</time>
  <speed>2.680000</speed>
</trkpt>
<trkpt lat="32.999225616" lon="35.502014160">
  <ele>777.817383</ele>
  <time>2011-10-15T06:59:06Z</time>
  <speed>2.640000</speed>
</trkpt>
<trkpt lat="32.999259949" lon="35.502067566">
  <ele>778.317383</ele>
  <time>2011-10-15T06:59:08Z</time>
  <speed>2.670000</speed>
</trkpt>
<trkpt lat="32.999290466" lon="35.502105713">
  <ele>777.239258</ele>
  <time>2011-10-15T06:59:10Z</time>
  <speed>2.560000</speed>
</trkpt>
<trkpt lat="32.999320984" lon="35.502151489">
  <ele>777.333008</ele>
  <time>2011-10-15T06:59:12Z</time>
  <speed>2.450000</speed>
</trkpt>
<trkpt lat="32.999347687" lon="35.502189636">
  <ele>777.395508</ele>
  <time>2011-10-15T06:59:14Z</time>
  <speed>2.330000</speed>
</trkpt>
<trkpt lat="32.999374390" lon="35.502223969">
  <ele>777.208008</ele>
  <time>2011-10-15T06:59:16Z</time>
  <speed>2.100000</speed>
</trkpt>
<trkpt lat="32.999408722" lon="35.502262115">
  <ele>778.223633</ele>
  <time>2011-10-15T06:59:18Z</time>
  <speed>2.640000</speed>
</trkpt>
<trkpt lat="32.999443054" lon="35.502307892">
  <ele>779.083008</ele>
  <time>2011-10-15T06:59:20Z</time>
  <speed>2.930000</speed>
</trkpt>
<trkpt lat="32.999462128" lon="35.502330780">
  <ele>778.989258</ele>
  <time>2011-10-15T06:59:21Z</time>
  <speed>3.190000</speed>
</trkpt>
<trkpt lat="32.999481201" lon="35.502361298">
  <ele>779.192383</ele>
  <time>2011-10-15T06:59:22Z</time>
  <speed>3.340000</speed>
</trkpt>
<trkpt lat="32.999500275" lon="35.502391815">
  <ele>779.317383</ele>
  <time>2011-10-15T06:59:23Z</time>
  <speed>3.880000</speed>
</trkpt>
<trkpt lat="32.999523163" lon="35.502426147">
  <ele>778.973633</ele>
  <time>2011-10-15T06:59:24Z</time>
  <speed>4.310000</speed>
</trkpt>
<trkpt lat="32.999546051" lon="35.502460480">
  <ele>778.833008</ele>
  <time>2011-10-15T06:59:25Z</time>
  <speed>4.270000</speed>
</trkpt>
<trkpt lat="32.999565125" lon="35.502498627">
  <ele>778.739258</ele>
  <time>2011-10-15T06:59:26Z</time>
  <speed>4.500000</speed>
</trkpt>
<trkpt lat="32.999580383" lon="35.502540588">
  <ele>777.973633</ele>
  <time>2011-10-15T06:59:27Z</time>
  <speed>4.250000</speed>
</trkpt>
<trkpt lat="32.999595642" lon="35.502574921">
  <ele>777.020508</ele>
  <time>2011-10-15T06:59:28Z</time>
  <speed>4.020000</speed>
</trkpt>
<trkpt lat="32.999607086" lon="35.502616882">
  <ele>776.098633</ele>
  <time>2011-10-15T06:59:29Z</time>
  <speed>4.300000</speed>
</trkpt>
<trkpt lat="32.999603271" lon="35.502662659">
  <ele>774.114258</ele>
  <time>2011-10-15T06:59:30Z</time>
  <speed>4.200000</speed>
</trkpt>
<trkpt lat="32.999591827" lon="35.502712250">
  <ele>773.208008</ele>
  <time>2011-10-15T06:59:31Z</time>
  <speed>4.380000</speed>
</trkpt>
<trkpt lat="32.999584198" lon="35.502758026">
  <ele>772.176758</ele>
  <time>2011-10-15T06:59:32Z</time>
  <speed>4.550000</speed>
</trkpt>
<trkpt lat="32.999565125" lon="35.502803802">
  <ele>770.551758</ele>
  <time>2011-10-15T06:59:33Z</time>
  <speed>4.330000</speed>
</trkpt>
<trkpt lat="32.999549866" lon="35.502849579">
  <ele>770.051758</ele>
  <time>2011-10-15T06:59:34Z</time>
  <speed>4.330000</speed>
</trkpt>
<trkpt lat="32.999523163" lon="35.502891541">
  <ele>769.004883</ele>
  <time>2011-10-15T06:59:35Z</time>
  <speed>4.690000</speed>
</trkpt>
<trkpt lat="32.999492645" lon="35.502929688">
  <ele>767.614258</ele>
  <time>2011-10-15T06:59:36Z</time>
  <speed>4.890000</speed>
</trkpt>
<trkpt lat="32.999458313" lon="35.502967834">
  <ele>766.692383</ele>
  <time>2011-10-15T06:59:37Z</time>
  <speed>5.130000</speed>
</trkpt>
<trkpt lat="32.999420166" lon="35.503013611">
  <ele>766.192383</ele>
  <time>2011-10-15T06:59:38Z</time>
  <speed>5.420000</speed>
</trkpt>
<trkpt lat="32.999385834" lon="35.503051758">
  <ele>765.879883</ele>
  <time>2011-10-15T06:59:39Z</time>
  <speed>5.800000</speed>
</trkpt>
<trkpt lat="32.999347687" lon="35.503097534">
  <ele>765.536133</ele>
  <time>2011-10-15T06:59:40Z</time>
  <speed>5.930000</speed>
</trkpt>
<trkpt lat="32.999305725" lon="35.503128052">
  <ele>766.067383</ele>
  <time>2011-10-15T06:59:41Z</time>
  <speed>5.680000</speed>
</trkpt>
<trkpt lat="32.999259949" lon="35.503154755">
  <ele>766.254883</ele>
  <time>2011-10-15T06:59:42Z</time>
  <speed>5.760000</speed>
</trkpt>
<trkpt lat="32.999210358" lon="35.503177643">
  <ele>766.317383</ele>
  <time>2011-10-15T06:59:43Z</time>
  <speed>5.430000</speed>
</trkpt>
<trkpt lat="32.999160767" lon="35.503189087">
  <ele>765.958008</ele>
  <time>2011-10-15T06:59:44Z</time>
  <speed>5.300000</speed>
</trkpt>
<trkpt lat="32.999111176" lon="35.503192902">
  <ele>765.473633</ele>
  <time>2011-10-15T06:59:45Z</time>
  <speed>5.170000</speed>
</trkpt>
<trkpt lat="32.999065399" lon="35.503189087">
  <ele>765.567383</ele>
  <time>2011-10-15T06:59:46Z</time>
  <speed>5.160000</speed>
</trkpt>
<trkpt lat="32.999015808" lon="35.503181458">
  <ele>765.176758</ele>
  <time>2011-10-15T06:59:47Z</time>
  <speed>5.270000</speed>
</trkpt>
<trkpt lat="32.998966217" lon="35.503173828">
  <ele>764.692383</ele>
  <time>2011-10-15T06:59:48Z</time>
  <speed>5.120000</speed>
</trkpt>
<trkpt lat="32.998920441" lon="35.503158569">
  <ele>764.817383</ele>
  <time>2011-10-15T06:59:49Z</time>
  <speed>5.100000</speed>
</trkpt>
<trkpt lat="32.998867035" lon="35.503135681">
  <ele>764.379883</ele>
  <time>2011-10-15T06:59:50Z</time>
  <speed>5.710000</speed>
</trkpt>
<trkpt lat="32.998817444" lon="35.503116608">
  <ele>764.254883</ele>
  <time>2011-10-15T06:59:51Z</time>
  <speed>5.510000</speed>
</trkpt>
<trkpt lat="32.998767853" lon="35.503105164">
  <ele>763.661133</ele>
  <time>2011-10-15T06:59:52Z</time>
  <speed>5.450000</speed>
</trkpt>
<trkpt lat="32.998714447" lon="35.503097534">
  <ele>763.411133</ele>
  <time>2011-10-15T06:59:53Z</time>
  <speed>5.610000</speed>
</trkpt>
<trkpt lat="32.998649597" lon="35.503097534">
  <ele>762.848633</ele>
  <time>2011-10-15T06:59:54Z</time>
  <speed>6.090000</speed>
</trkpt>
<trkpt lat="32.998596191" lon="35.503112793">
  <ele>762.254883</ele>
  <time>2011-10-15T06:59:55Z</time>
  <speed>6.040000</speed>
</trkpt>
<trkpt lat="32.998531342" lon="35.503124237">
  <ele>761.192383</ele>
  <time>2011-10-15T06:59:56Z</time>
  <speed>5.910000</speed>
</trkpt>
<trkpt lat="32.998474121" lon="35.503158569">
  <ele>760.567383</ele>
  <time>2011-10-15T06:59:57Z</time>
  <speed>5.820000</speed>
</trkpt>
<trkpt lat="32.998443604" lon="35.503208160">
  <ele>760.270508</ele>
  <time>2011-10-15T06:59:58Z</time>
  <speed>5.630000</speed>
</trkpt>
<trkpt lat="32.998428345" lon="35.503257751">
  <ele>759.567383</ele>
  <time>2011-10-15T06:59:59Z</time>
  <speed>4.810000</speed>
</trkpt>
<trkpt lat="32.998439789" lon="35.503311157">
  <ele>758.567383</ele>
  <time>2011-10-15T07:00:00Z</time>
  <speed>4.380000</speed>
</trkpt>
<trkpt lat="32.998451233" lon="35.503360748">
  <ele>757.645508</ele>
  <time>2011-10-15T07:00:01Z</time>
  <speed>4.650000</speed>
</trkpt>
<trkpt lat="32.998470306" lon="35.503414154">
  <ele>757.536133</ele>
  <time>2011-10-15T07:00:02Z</time>
  <speed>4.840000</speed>
</trkpt>
<trkpt lat="32.998485565" lon="35.503471375">
  <ele>757.286133</ele>
  <time>2011-10-15T07:00:03Z</time>
  <speed>5.190000</speed>
</trkpt>
<trkpt lat="32.998500824" lon="35.503528595">
  <ele>757.254883</ele>
  <time>2011-10-15T07:00:04Z</time>
  <speed>5.190000</speed>
</trkpt>
<trkpt lat="32.998512268" lon="35.503589630">
  <ele>757.864258</ele>
  <time>2011-10-15T07:00:05Z</time>
  <speed>5.290000</speed>
</trkpt>
<trkpt lat="32.998535156" lon="35.503650665">
  <ele>758.301758</ele>
  <time>2011-10-15T07:00:06Z</time>
  <speed>5.380000</speed>
</trkpt>
<trkpt lat="32.998561859" lon="35.503704071">
  <ele>758.223633</ele>
  <time>2011-10-15T07:00:07Z</time>
  <speed>5.170000</speed>
</trkpt>
<trkpt lat="32.998588562" lon="35.503765106">
  <ele>758.614258</ele>
  <time>2011-10-15T07:00:08Z</time>
  <speed>5.290000</speed>
</trkpt>
<trkpt lat="32.998622894" lon="35.503807068">
  <ele>758.833008</ele>
  <time>2011-10-15T07:00:09Z</time>
  <speed>5.070000</speed>
</trkpt>
<trkpt lat="32.998664856" lon="35.503860474">
  <ele>760.020508</ele>
  <time>2011-10-15T07:00:10Z</time>
  <speed>5.190000</speed>
</trkpt>
<trkpt lat="32.998699188" lon="35.503910065">
  <ele>760.208008</ele>
  <time>2011-10-15T07:00:11Z</time>
  <speed>5.310000</speed>
</trkpt>
<trkpt lat="32.998733521" lon="35.503955841">
  <ele>760.926758</ele>
  <time>2011-10-15T07:00:12Z</time>
  <speed>4.890000</speed>
</trkpt>
<trkpt lat="32.998771667" lon="35.503997803">
  <ele>761.614258</ele>
  <time>2011-10-15T07:00:13Z</time>
  <speed>4.770000</speed>
</trkpt>
<trkpt lat="32.998806000" lon="35.504039764">
  <ele>761.692383</ele>
  <time>2011-10-15T07:00:14Z</time>
  <speed>4.600000</speed>
</trkpt>
<trkpt lat="32.998840332" lon="35.504077911">
  <ele>761.567383</ele>
  <time>2011-10-15T07:00:15Z</time>
  <speed>5.170000</speed>
</trkpt>
<trkpt lat="32.998882294" lon="35.504119873">
  <ele>762.286133</ele>
  <time>2011-10-15T07:00:16Z</time>
  <speed>5.160000</speed>
</trkpt>
<trkpt lat="32.998924255" lon="35.504165649">
  <ele>762.848633</ele>
  <time>2011-10-15T07:00:17Z</time>
  <speed>5.660000</speed>
</trkpt>
<trkpt lat="32.998966217" lon="35.504219055">
  <ele>763.473633</ele>
  <time>2011-10-15T07:00:18Z</time>
  <speed>6.090000</speed>
</trkpt>
<trkpt lat="32.999011993" lon="35.504264832">
  <ele>764.036133</ele>
  <time>2011-10-15T07:00:19Z</time>
  <speed>5.980000</speed>
</trkpt>
<trkpt lat="32.999053955" lon="35.504314423">
  <ele>764.801758</ele>
  <time>2011-10-15T07:00:20Z</time>
  <speed>5.580000</speed>
</trkpt>
<trkpt lat="32.999092102" lon="35.504360199">
  <ele>764.926758</ele>
  <time>2011-10-15T07:00:21Z</time>
  <speed>5.550000</speed>
</trkpt>
<trkpt lat="32.999130249" lon="35.504405975">
  <ele>765.411133</ele>
  <time>2011-10-15T07:00:22Z</time>
  <speed>5.530000</speed>
</trkpt>
<trkpt lat="32.999172211" lon="35.504447937">
  <ele>766.348633</ele>
  <time>2011-10-15T07:00:23Z</time>
  <speed>5.350000</speed>
</trkpt>
<trkpt lat="32.999214172" lon="35.504489899">
  <ele>767.286133</ele>
  <time>2011-10-15T07:00:24Z</time>
  <speed>5.210000</speed>
</trkpt>
<trkpt lat="32.999248505" lon="35.504531860">
  <ele>768.020508</ele>
  <time>2011-10-15T07:00:25Z</time>
  <speed>4.920000</speed>
</trkpt>
<trkpt lat="32.999286652" lon="35.504570007">
  <ele>768.254883</ele>
  <time>2011-10-15T07:00:26Z</time>
  <speed>4.970000</speed>
</trkpt>
<trkpt lat="32.999324799" lon="35.504596710">
  <ele>768.754883</ele>
  <time>2011-10-15T07:00:27Z</time>
  <speed>4.450000</speed>
</trkpt>
<trkpt lat="32.999355316" lon="35.504627228">
  <ele>769.208008</ele>
  <time>2011-10-15T07:00:28Z</time>
  <speed>4.620000</speed>
</trkpt>
<trkpt lat="32.999389648" lon="35.504657745">
  <ele>769.411133</ele>
  <time>2011-10-15T07:00:29Z</time>
  <speed>4.390000</speed>
</trkpt>
<trkpt lat="32.999427795" lon="35.504684448">
  <ele>769.458008</ele>
  <time>2011-10-15T07:00:30Z</time>
  <speed>4.410000</speed>
</trkpt>
<trkpt lat="32.999469757" lon="35.504714966">
  <ele>769.989258</ele>
  <time>2011-10-15T07:00:31Z</time>
  <speed>4.690000</speed>
</trkpt>
<trkpt lat="32.999500275" lon="35.504737854">
  <ele>769.958008</ele>
  <time>2011-10-15T07:00:32Z</time>
  <speed>4.690000</speed>
</trkpt>
<trkpt lat="32.999538422" lon="35.504764557">
  <ele>770.098633</ele>
  <time>2011-10-15T07:00:33Z</time>
  <speed>4.630000</speed>
</trkpt>
<trkpt lat="32.999580383" lon="35.504791260">
  <ele>770.129883</ele>
  <time>2011-10-15T07:00:34Z</time>
  <speed>5.060000</speed>
</trkpt>
<trkpt lat="32.999622345" lon="35.504825592">
  <ele>770.395508</ele>
  <time>2011-10-15T07:00:35Z</time>
  <speed>4.840000</speed>
</trkpt>
<trkpt lat="32.999664307" lon="35.504859924">
  <ele>770.411133</ele>
  <time>2011-10-15T07:00:36Z</time>
  <speed>5.000000</speed>
</trkpt>
<trkpt lat="32.999698639" lon="35.504890442">
  <ele>770.239258</ele>
  <time>2011-10-15T07:00:37Z</time>
  <speed>4.670000</speed>
</trkpt>
<trkpt lat="32.999740601" lon="35.504913330">
  <ele>770.114258</ele>
  <time>2011-10-15T07:00:38Z</time>
  <speed>4.270000</speed>
</trkpt>
<trkpt lat="32.999771118" lon="35.504940033">
  <ele>769.473633</ele>
  <time>2011-10-15T07:00:39Z</time>
  <speed>3.940000</speed>
</trkpt>
<trkpt lat="32.999801636" lon="35.504955292">
  <ele>769.692383</ele>
  <time>2011-10-15T07:00:40Z</time>
  <speed>4.130000</speed>
</trkpt>
<trkpt lat="32.999839783" lon="35.504978180">
  <ele>769.442383</ele>
  <time>2011-10-15T07:00:41Z</time>
  <speed>3.920000</speed>
</trkpt>
<trkpt lat="32.999874115" lon="35.504997253">
  <ele>768.895508</ele>
  <time>2011-10-15T07:00:42Z</time>
  <speed>3.770000</speed>
</trkpt>
<trkpt lat="32.999908447" lon="35.505012512">
  <ele>769.051758</ele>
  <time>2011-10-15T07:00:43Z</time>
  <speed>4.120000</speed>
</trkpt>
<trkpt lat="32.999935150" lon="35.505027771">
  <ele>767.973633</ele>
  <time>2011-10-15T07:00:44Z</time>
  <speed>4.060000</speed>
</trkpt>
<trkpt lat="33.000000000" lon="35.505039215">
  <ele>765.629883</ele>
  <time>2011-10-15T07:00:46Z</time>
  <speed>4.890000</speed>
</trkpt>
<trkpt lat="33.000045776" lon="35.505050659">
  <ele>764.958008</ele>
  <time>2011-10-15T07:00:47Z</time>
  <speed>5.440000</speed>
</trkpt>
<trkpt lat="33.000102997" lon="35.505054474">
  <ele>765.317383</ele>
  <time>2011-10-15T07:00:48Z</time>
  <speed>5.150000</speed>
</trkpt>
<trkpt lat="33.000148773" lon="35.505050659">
  <ele>765.989258</ele>
  <time>2011-10-15T07:00:49Z</time>
  <speed>4.910000</speed>
</trkpt>
<trkpt lat="33.000186920" lon="35.505054474">
  <ele>765.833008</ele>
  <time>2011-10-15T07:00:50Z</time>
  <speed>4.660000</speed>
</trkpt>
<trkpt lat="33.000228882" lon="35.505062103">
  <ele>765.379883</ele>
  <time>2011-10-15T07:00:51Z</time>
  <speed>4.910000</speed>
</trkpt>
<trkpt lat="33.000270844" lon="35.505069733">
  <ele>764.442383</ele>
  <time>2011-10-15T07:00:52Z</time>
  <speed>5.020000</speed>
</trkpt>
<trkpt lat="33.000308990" lon="35.505073547">
  <ele>763.786133</ele>
  <time>2011-10-15T07:00:53Z</time>
  <speed>4.900000</speed>
</trkpt>
<trkpt lat="33.000350952" lon="35.505065918">
  <ele>764.286133</ele>
  <time>2011-10-15T07:00:54Z</time>
  <speed>5.060000</speed>
</trkpt>
<trkpt lat="33.000392914" lon="35.505065918">
  <ele>764.301758</ele>
  <time>2011-10-15T07:00:55Z</time>
  <speed>4.780000</speed>
</trkpt>
<trkpt lat="33.000431061" lon="35.505073547">
  <ele>764.379883</ele>
  <time>2011-10-15T07:00:56Z</time>
  <speed>4.450000</speed>
</trkpt>
<trkpt lat="33.000469208" lon="35.505073547">
  <ele>764.879883</ele>
  <time>2011-10-15T07:00:57Z</time>
  <speed>4.370000</speed>
</trkpt>
<trkpt lat="33.000503540" lon="35.505073547">
  <ele>765.692383</ele>
  <time>2011-10-15T07:00:58Z</time>
  <speed>4.030000</speed>
</trkpt>
<trkpt lat="33.000537872" lon="35.505073547">
  <ele>765.583008</ele>
  <time>2011-10-15T07:00:59Z</time>
  <speed>4.230000</speed>
</trkpt>
<trkpt lat="33.000572205" lon="35.505081177">
  <ele>765.739258</ele>
  <time>2011-10-15T07:01:00Z</time>
  <speed>4.280000</speed>
</trkpt>
<trkpt lat="33.000610352" lon="35.505092621">
  <ele>765.489258</ele>
  <time>2011-10-15T07:01:01Z</time>
  <speed>4.280000</speed>
</trkpt>
<trkpt lat="33.000648499" lon="35.505107880">
  <ele>764.879883</ele>
  <time>2011-10-15T07:01:02Z</time>
  <speed>4.200000</speed>
</trkpt>
<trkpt lat="33.000682831" lon="35.505126953">
  <ele>764.458008</ele>
  <time>2011-10-15T07:01:03Z</time>
  <speed>3.910000</speed>
</trkpt>
<trkpt lat="33.000709534" lon="35.505149841">
  <ele>764.817383</ele>
  <time>2011-10-15T07:01:04Z</time>
  <speed>3.190000</speed>
</trkpt>
<trkpt lat="33.000743866" lon="35.505199432">
  <ele>763.958008</ele>
  <time>2011-10-15T07:01:06Z</time>
  <speed>3.460000</speed>
</trkpt>
<trkpt lat="33.000782013" lon="35.505237579">
  <ele>764.708008</ele>
  <time>2011-10-15T07:01:08Z</time>
  <speed>3.130000</speed>
</trkpt>
<trkpt lat="33.000804901" lon="35.505260468">
  <ele>764.364258</ele>
  <time>2011-10-15T07:01:09Z</time>
  <speed>3.100000</speed>
</trkpt>
<trkpt lat="33.000827789" lon="35.505279541">
  <ele>763.958008</ele>
  <time>2011-10-15T07:01:10Z</time>
  <speed>2.970000</speed>
</trkpt>
<trkpt lat="33.000858307" lon="35.505325317">
  <ele>763.708008</ele>
  <time>2011-10-15T07:01:12Z</time>
  <speed>2.330000</speed>
</trkpt>
<trkpt lat="33.000873566" lon="35.505374908">
  <ele>763.098633</ele>
  <time>2011-10-15T07:01:14Z</time>
  <speed>1.810000</speed>
</trkpt>
<trkpt lat="33.000900269" lon="35.505405426">
  <ele>762.208008</ele>
  <time>2011-10-15T07:01:16Z</time>
  <speed>1.760000</speed>
</trkpt>
<trkpt lat="33.000926971" lon="35.505443573">
  <ele>762.145508</ele>
  <time>2011-10-15T07:01:18Z</time>
  <speed>2.070000</speed>
</trkpt>
<trkpt lat="33.000957489" lon="35.505477905">
  <ele>762.739258</ele>
  <time>2011-10-15T07:01:20Z</time>
  <speed>2.140000</speed>
</trkpt>
<trkpt lat="33.000972748" lon="35.505531311">
  <ele>762.754883</ele>
  <time>2011-10-15T07:01:22Z</time>
  <speed>2.360000</speed>
</trkpt>
<trkpt lat="33.000980377" lon="35.505592346">
  <ele>763.067383</ele>
  <time>2011-10-15T07:01:24Z</time>
  <speed>2.590000</speed>
</trkpt>
<trkpt lat="33.000991821" lon="35.505649567">
  <ele>763.208008</ele>
  <time>2011-10-15T07:01:26Z</time>
  <speed>2.720000</speed>
</trkpt>
<trkpt lat="33.000984192" lon="35.505702972">
  <ele>762.848633</ele>
  <time>2011-10-15T07:01:28Z</time>
  <speed>1.350000</speed>
</trkpt>
<trkpt lat="33.000984192" lon="35.505737305">
  <ele>762.848633</ele>
  <time>2011-10-15T07:01:30Z</time>
  <speed>1.920000</speed>
</trkpt>
<trkpt lat="33.000988007" lon="35.505779266">
  <ele>763.114258</ele>
  <time>2011-10-15T07:01:32Z</time>
  <speed>1.930000</speed>
</trkpt>
<trkpt lat="33.000988007" lon="35.505832672">
  <ele>763.411133</ele>
  <time>2011-10-15T07:01:34Z</time>
  <speed>2.680000</speed>
</trkpt>
<trkpt lat="33.000991821" lon="35.505863190">
  <ele>763.583008</ele>
  <time>2011-10-15T07:01:35Z</time>
  <speed>2.990000</speed>
</trkpt>
<trkpt lat="33.000999451" lon="35.505924225">
  <ele>763.754883</ele>
  <time>2011-10-15T07:01:37Z</time>
  <speed>2.730000</speed>
</trkpt>
<trkpt lat="33.000972748" lon="35.505970001">
  <ele>762.723633</ele>
  <time>2011-10-15T07:01:39Z</time>
  <speed>2.200000</speed>
</trkpt>
<trkpt lat="33.000957489" lon="35.506004333">
  <ele>762.833008</ele>
  <time>2011-10-15T07:01:41Z</time>
  <speed>2.360000</speed>
</trkpt>
<trkpt lat="33.000946045" lon="35.506050110">
  <ele>762.770508</ele>
  <time>2011-10-15T07:01:43Z</time>
  <speed>2.130000</speed>
</trkpt>
<trkpt lat="33.000919342" lon="35.506088257">
  <ele>761.989258</ele>
  <time>2011-10-15T07:01:45Z</time>
  <speed>1.610000</speed>
</trkpt>
<trkpt lat="33.000907898" lon="35.506126404">
  <ele>760.817383</ele>
  <time>2011-10-15T07:01:47Z</time>
  <speed>2.750000</speed>
</trkpt>
<trkpt lat="33.000896454" lon="35.506156921">
  <ele>760.301758</ele>
  <time>2011-10-15T07:01:48Z</time>
  <speed>3.110000</speed>
</trkpt>
<trkpt lat="33.000881195" lon="35.506179810">
  <ele>759.239258</ele>
  <time>2011-10-15T07:01:49Z</time>
  <speed>3.130000</speed>
</trkpt>
<trkpt lat="33.000858307" lon="35.506210327">
  <ele>758.614258</ele>
  <time>2011-10-15T07:01:50Z</time>
  <speed>3.640000</speed>
</trkpt>
<trkpt lat="33.000839233" lon="35.506244659">
  <ele>758.020508</ele>
  <time>2011-10-15T07:01:51Z</time>
  <speed>3.880000</speed>
</trkpt>
<trkpt lat="33.000820160" lon="35.506278992">
  <ele>757.583008</ele>
  <time>2011-10-15T07:01:52Z</time>
  <speed>4.290000</speed>
</trkpt>
<trkpt lat="33.000797272" lon="35.506317139">
  <ele>756.926758</ele>
  <time>2011-10-15T07:01:53Z</time>
  <speed>4.370000</speed>
</trkpt>
<trkpt lat="33.000774384" lon="35.506351471">
  <ele>756.676758</ele>
  <time>2011-10-15T07:01:54Z</time>
  <speed>4.770000</speed>
</trkpt>
<trkpt lat="33.000743866" lon="35.506389618">
  <ele>755.911133</ele>
  <time>2011-10-15T07:01:55Z</time>
  <speed>5.050000</speed>
</trkpt>
<trkpt lat="33.000713348" lon="35.506427765">
  <ele>755.301758</ele>
  <time>2011-10-15T07:01:56Z</time>
  <speed>4.990000</speed>
</trkpt>
<trkpt lat="33.000682831" lon="35.506462097">
  <ele>754.770508</ele>
  <time>2011-10-15T07:01:57Z</time>
  <speed>4.920000</speed>
</trkpt>
<trkpt lat="33.000652313" lon="35.506496429">
  <ele>753.895508</ele>
  <time>2011-10-15T07:01:58Z</time>
  <speed>5.080000</speed>
</trkpt>
<trkpt lat="33.000617981" lon="35.506530762">
  <ele>753.442383</ele>
  <time>2011-10-15T07:01:59Z</time>
  <speed>5.240000</speed>
</trkpt>
<trkpt lat="33.000576019" lon="35.506561279">
  <ele>752.442383</ele>
  <time>2011-10-15T07:02:00Z</time>
  <speed>5.240000</speed>
</trkpt>
<trkpt lat="33.000534058" lon="35.506591797">
  <ele>751.411133</ele>
  <time>2011-10-15T07:02:01Z</time>
  <speed>5.360000</speed>
</trkpt>
<trkpt lat="33.000492096" lon="35.506626129">
  <ele>750.786133</ele>
  <time>2011-10-15T07:02:02Z</time>
  <speed>5.890000</speed>
</trkpt>
<trkpt lat="33.000450134" lon="35.506664276">
  <ele>750.317383</ele>
  <time>2011-10-15T07:02:03Z</time>
  <speed>5.910000</speed>
</trkpt>
<trkpt lat="33.000404358" lon="35.506702423">
  <ele>749.598633</ele>
  <time>2011-10-15T07:02:04Z</time>
  <speed>6.220000</speed>
</trkpt>
<trkpt lat="33.000362396" lon="35.506744385">
  <ele>749.114258</ele>
  <time>2011-10-15T07:02:05Z</time>
  <speed>5.970000</speed>
</trkpt>
<trkpt lat="33.000316620" lon="35.506782532">
  <ele>748.504883</ele>
  <time>2011-10-15T07:02:06Z</time>
  <speed>5.930000</speed>
</trkpt>
<trkpt lat="33.000278473" lon="35.506816864">
  <ele>747.958008</ele>
  <time>2011-10-15T07:02:07Z</time>
  <speed>5.680000</speed>
</trkpt>
<trkpt lat="33.000236511" lon="35.506855011">
  <ele>747.864258</ele>
  <time>2011-10-15T07:02:08Z</time>
  <speed>5.830000</speed>
</trkpt>
<trkpt lat="33.000194550" lon="35.506885529">
  <ele>747.520508</ele>
  <time>2011-10-15T07:02:09Z</time>
  <speed>5.710000</speed>
</trkpt>
<trkpt lat="33.000148773" lon="35.506916046">
  <ele>746.895508</ele>
  <time>2011-10-15T07:02:10Z</time>
  <speed>5.330000</speed>
</trkpt>
<trkpt lat="33.000110626" lon="35.506942749">
  <ele>746.364258</ele>
  <time>2011-10-15T07:02:11Z</time>
  <speed>5.430000</speed>
</trkpt>
<trkpt lat="33.000064850" lon="35.506961823">
  <ele>745.989258</ele>
  <time>2011-10-15T07:02:12Z</time>
  <speed>5.040000</speed>
</trkpt>
<trkpt lat="33.000026703" lon="35.506980896">
  <ele>745.333008</ele>
  <time>2011-10-15T07:02:13Z</time>
  <speed>4.520000</speed>
</trkpt>
<trkpt lat="32.999988556" lon="35.506992340">
  <ele>744.770508</ele>
  <time>2011-10-15T07:02:14Z</time>
  <speed>4.260000</speed>
</trkpt>
<trkpt lat="32.999950409" lon="35.506999969">
  <ele>744.239258</ele>
  <time>2011-10-15T07:02:15Z</time>
  <speed>3.780000</speed>
</trkpt>
<trkpt lat="32.999916077" lon="35.506999969">
  <ele>744.223633</ele>
  <time>2011-10-15T07:02:16Z</time>
  <speed>3.580000</speed>
</trkpt>
<trkpt lat="32.999881744" lon="35.506999969">
  <ele>743.989258</ele>
  <time>2011-10-15T07:02:17Z</time>
  <speed>3.980000</speed>
</trkpt>
<trkpt lat="32.999847412" lon="35.506992340">
  <ele>743.411133</ele>
  <time>2011-10-15T07:02:18Z</time>
  <speed>3.890000</speed>
</trkpt>
<trkpt lat="32.999820709" lon="35.506996155">
  <ele>745.520508</ele>
  <time>2011-10-15T07:02:19Z</time>
  <speed>3.800000</speed>
</trkpt>
<trkpt lat="32.999794006" lon="35.507003784">
  <ele>748.114258</ele>
  <time>2011-10-15T07:02:20Z</time>
  <speed>3.930000</speed>
</trkpt>
<trkpt lat="32.999755859" lon="35.506992340">
  <ele>748.473633</ele>
  <time>2011-10-15T07:02:21Z</time>
  <speed>4.150000</speed>
</trkpt>
<trkpt lat="32.999717712" lon="35.506984711">
  <ele>748.661133</ele>
  <time>2011-10-15T07:02:22Z</time>
  <speed>4.080000</speed>
</trkpt>
<trkpt lat="32.999679565" lon="35.506984711">
  <ele>749.973633</ele>
  <time>2011-10-15T07:02:23Z</time>
  <speed>4.040000</speed>
</trkpt>
<trkpt lat="32.999645233" lon="35.506969452">
  <ele>750.379883</ele>
  <time>2011-10-15T07:02:24Z</time>
  <speed>4.130000</speed>
</trkpt>
<trkpt lat="32.999610901" lon="35.506954193">
  <ele>750.614258</ele>
  <time>2011-10-15T07:02:25Z</time>
  <speed>4.040000</speed>
</trkpt>
<trkpt lat="32.999576569" lon="35.506938934">
  <ele>750.770508</ele>
  <time>2011-10-15T07:02:26Z</time>
  <speed>3.860000</speed>
</trkpt>
<trkpt lat="32.999542236" lon="35.506927490">
  <ele>751.192383</ele>
  <time>2011-10-15T07:02:27Z</time>
  <speed>3.790000</speed>
</trkpt>
<trkpt lat="32.999507904" lon="35.506916046">
  <ele>751.411133</ele>
  <time>2011-10-15T07:02:28Z</time>
  <speed>3.450000</speed>
</trkpt>
<trkpt lat="32.999473572" lon="35.506908417">
  <ele>751.723633</ele>
  <time>2011-10-15T07:02:29Z</time>
  <speed>3.580000</speed>
</trkpt>
<trkpt lat="32.999443054" lon="35.506904602">
  <ele>751.911133</ele>
  <time>2011-10-15T07:02:30Z</time>
  <speed>3.410000</speed>
</trkpt>
<trkpt lat="32.999408722" lon="35.506912231">
  <ele>751.895508</ele>
  <time>2011-10-15T07:02:31Z</time>
  <speed>4.530000</speed>
</trkpt>
<trkpt lat="32.999366760" lon="35.506916046">
  <ele>752.473633</ele>
  <time>2011-10-15T07:02:32Z</time>
  <speed>4.060000</speed>
</trkpt>
<trkpt lat="32.999336243" lon="35.506923676">
  <ele>752.676758</ele>
  <time>2011-10-15T07:02:33Z</time>
  <speed>2.560000</speed>
</trkpt>
<trkpt lat="32.999298096" lon="35.506950378">
  <ele>752.989258</ele>
  <time>2011-10-15T07:02:35Z</time>
  <speed>2.820000</speed>
</trkpt>
<trkpt lat="32.999252319" lon="35.506992340">
  <ele>753.754883</ele>
  <time>2011-10-15T07:02:37Z</time>
  <speed>3.300000</speed>
</trkpt>
<trkpt lat="32.999221802" lon="35.507015228">
  <ele>754.020508</ele>
  <time>2011-10-15T07:02:38Z</time>
  <speed>3.380000</speed>
</trkpt>
<trkpt lat="32.999198914" lon="35.507030487">
  <ele>754.223633</ele>
  <time>2011-10-15T07:02:39Z</time>
  <speed>3.390000</speed>
</trkpt>
<trkpt lat="32.999172211" lon="35.507049561">
  <ele>754.473633</ele>
  <time>2011-10-15T07:02:40Z</time>
  <speed>2.900000</speed>
</trkpt>
<trkpt lat="32.999134064" lon="35.507087708">
  <ele>755.692383</ele>
  <time>2011-10-15T07:02:42Z</time>
  <speed>2.770000</speed>
</trkpt>
<trkpt lat="32.999092102" lon="35.507118225">
  <ele>756.879883</ele>
  <time>2011-10-15T07:02:44Z</time>
  <speed>2.450000</speed>
</trkpt>
<trkpt lat="32.999053955" lon="35.507129669">
  <ele>757.770508</ele>
  <time>2011-10-15T07:02:46Z</time>
  <speed>2.610000</speed>
</trkpt>
<trkpt lat="32.999000549" lon="35.507156372">
  <ele>758.661133</ele>
  <time>2011-10-15T07:02:48Z</time>
  <speed>2.940000</speed>
</trkpt>
<trkpt lat="32.998973846" lon="35.507171631">
  <ele>759.129883</ele>
  <time>2011-10-15T07:02:49Z</time>
  <speed>2.660000</speed>
</trkpt>
<trkpt lat="32.998920441" lon="35.507175446">
  <ele>759.739258</ele>
  <time>2011-10-15T07:02:51Z</time>
  <speed>2.360000</speed>
</trkpt>
<trkpt lat="32.998878479" lon="35.507171631">
  <ele>760.254883</ele>
  <time>2011-10-15T07:02:53Z</time>
  <speed>2.110000</speed>
</trkpt>
<trkpt lat="32.998844147" lon="35.507144928">
  <ele>759.989258</ele>
  <time>2011-10-15T07:02:55Z</time>
  <speed>1.710000</speed>
</trkpt>
<trkpt lat="32.998806000" lon="35.507118225">
  <ele>759.879883</ele>
  <time>2011-10-15T07:02:57Z</time>
  <speed>2.510000</speed>
</trkpt>
<trkpt lat="32.998771667" lon="35.507091522">
  <ele>761.270508</ele>
  <time>2011-10-15T07:02:59Z</time>
  <speed>2.170000</speed>
</trkpt>
<trkpt lat="32.998729706" lon="35.507057190">
  <ele>761.270508</ele>
  <time>2011-10-15T07:03:01Z</time>
  <speed>2.760000</speed>
</trkpt>
<trkpt lat="32.998695374" lon="35.507015228">
  <ele>761.504883</ele>
  <time>2011-10-15T07:03:03Z</time>
  <speed>2.710000</speed>
</trkpt>
<trkpt lat="32.998657227" lon="35.506973267">
  <ele>761.192383</ele>
  <time>2011-10-15T07:03:05Z</time>
  <speed>2.520000</speed>
</trkpt>
<trkpt lat="32.998626709" lon="35.506931305">
  <ele>761.489258</ele>
  <time>2011-10-15T07:03:07Z</time>
  <speed>2.590000</speed>
</trkpt>
<trkpt lat="32.998592377" lon="35.506896973">
  <ele>761.551758</ele>
  <time>2011-10-15T07:03:09Z</time>
  <speed>2.710000</speed>
</trkpt>
<trkpt lat="32.998561859" lon="35.506847382">
  <ele>761.926758</ele>
  <time>2011-10-15T07:03:11Z</time>
  <speed>2.660000</speed>
</trkpt>
<trkpt lat="32.998535156" lon="35.506805420">
  <ele>761.676758</ele>
  <time>2011-10-15T07:03:13Z</time>
  <speed>2.720000</speed>
</trkpt>
<trkpt lat="32.998508453" lon="35.506759644">
  <ele>761.739258</ele>
  <time>2011-10-15T07:03:15Z</time>
  <speed>2.780000</speed>
</trkpt>
<trkpt lat="32.998477936" lon="35.506706238">
  <ele>762.067383</ele>
  <time>2011-10-15T07:03:17Z</time>
  <speed>2.800000</speed>
</trkpt>
<trkpt lat="32.998455048" lon="35.506660461">
  <ele>761.817383</ele>
  <time>2011-10-15T07:03:19Z</time>
  <speed>2.620000</speed>
</trkpt>
<trkpt lat="32.998424530" lon="35.506614685">
  <ele>762.551758</ele>
  <time>2011-10-15T07:03:21Z</time>
  <speed>2.600000</speed>
</trkpt>
<trkpt lat="32.998394012" lon="35.506572723">
  <ele>763.348633</ele>
  <time>2011-10-15T07:03:23Z</time>
  <speed>2.060000</speed>
</trkpt>
<trkpt lat="32.998367310" lon="35.506530762">
  <ele>763.629883</ele>
  <time>2011-10-15T07:03:25Z</time>
  <speed>2.460000</speed>
</trkpt>
<trkpt lat="32.998336792" lon="35.506484985">
  <ele>763.973633</ele>
  <time>2011-10-15T07:03:27Z</time>
  <speed>2.580000</speed>
</trkpt>
<trkpt lat="32.998310089" lon="35.506435394">
  <ele>763.661133</ele>
  <time>2011-10-15T07:03:29Z</time>
  <speed>2.720000</speed>
</trkpt>
<trkpt lat="32.998279572" lon="35.506385803">
  <ele>763.723633</ele>
  <time>2011-10-15T07:03:31Z</time>
  <speed>2.870000</speed>
</trkpt>
<trkpt lat="32.998245239" lon="35.506340027">
  <ele>764.176758</ele>
  <time>2011-10-15T07:03:33Z</time>
  <speed>2.890000</speed>
</trkpt>
<trkpt lat="32.998226166" lon="35.506317139">
  <ele>764.114258</ele>
  <time>2011-10-15T07:03:34Z</time>
  <speed>2.970000</speed>
</trkpt>
<trkpt lat="32.998191833" lon="35.506275177">
  <ele>764.333008</ele>
  <time>2011-10-15T07:03:36Z</time>
  <speed>2.960000</speed>
</trkpt>
<trkpt lat="32.998153687" lon="35.506233215">
  <ele>764.551758</ele>
  <time>2011-10-15T07:03:38Z</time>
  <speed>2.980000</speed>
</trkpt>
<trkpt lat="32.998130798" lon="35.506210327">
  <ele>764.739258</ele>
  <time>2011-10-15T07:03:39Z</time>
  <speed>3.040000</speed>
</trkpt>
<trkpt lat="32.998111725" lon="35.506187439">
  <ele>764.692383</ele>
  <time>2011-10-15T07:03:40Z</time>
  <speed>2.960000</speed>
</trkpt>
<trkpt lat="32.998069763" lon="35.506145477">
  <ele>764.301758</ele>
  <time>2011-10-15T07:03:42Z</time>
  <speed>3.090000</speed>
</trkpt>
<trkpt lat="32.998027802" lon="35.506107330">
  <ele>764.426758</ele>
  <time>2011-10-15T07:03:44Z</time>
  <speed>2.910000</speed>
</trkpt>
<trkpt lat="32.998008728" lon="35.506088257">
  <ele>764.504883</ele>
  <time>2011-10-15T07:03:45Z</time>
  <speed>2.980000</speed>
</trkpt>
<trkpt lat="32.997974396" lon="35.506050110">
  <ele>764.551758</ele>
  <time>2011-10-15T07:03:47Z</time>
  <speed>3.010000</speed>
</trkpt>
<trkpt lat="32.997940063" lon="35.506011963">
  <ele>765.239258</ele>
  <time>2011-10-15T07:03:49Z</time>
  <speed>3.080000</speed>
</trkpt>
<trkpt lat="32.997898102" lon="35.505973816">
  <ele>765.567383</ele>
  <time>2011-10-15T07:03:51Z</time>
  <speed>2.860000</speed>
</trkpt>
<trkpt lat="32.997863770" lon="35.505928040">
  <ele>765.192383</ele>
  <time>2011-10-15T07:03:53Z</time>
  <speed>2.990000</speed>
</trkpt>
<trkpt lat="32.997844696" lon="35.505901337">
  <ele>764.895508</ele>
  <time>2011-10-15T07:03:54Z</time>
  <speed>2.690000</speed>
</trkpt>
<trkpt lat="32.997825623" lon="35.505874634">
  <ele>764.723633</ele>
  <time>2011-10-15T07:03:55Z</time>
  <speed>2.950000</speed>
</trkpt>
<trkpt lat="32.997806549" lon="35.505844116">
  <ele>764.161133</ele>
  <time>2011-10-15T07:03:56Z</time>
  <speed>3.130000</speed>
</trkpt>
<trkpt lat="32.997787476" lon="35.505813599">
  <ele>764.051758</ele>
  <time>2011-10-15T07:03:57Z</time>
  <speed>3.160000</speed>
</trkpt>
<trkpt lat="32.997768402" lon="35.505783081">
  <ele>763.989258</ele>
  <time>2011-10-15T07:03:58Z</time>
  <speed>3.210000</speed>
</trkpt>
<trkpt lat="32.997753143" lon="35.505752563">
  <ele>763.958008</ele>
  <time>2011-10-15T07:03:59Z</time>
  <speed>3.110000</speed>
</trkpt>
<trkpt lat="32.997726440" lon="35.505718231">
  <ele>763.161133</ele>
  <time>2011-10-15T07:04:00Z</time>
  <speed>3.280000</speed>
</trkpt>
<trkpt lat="32.997703552" lon="35.505691528">
  <ele>763.536133</ele>
  <time>2011-10-15T07:04:01Z</time>
  <speed>3.270000</speed>
</trkpt>
<trkpt lat="32.997673035" lon="35.505676270">
  <ele>763.833008</ele>
  <time>2011-10-15T07:04:02Z</time>
  <speed>3.340000</speed>
</trkpt>
<trkpt lat="32.997646332" lon="35.505664825">
  <ele>764.395508</ele>
  <time>2011-10-15T07:04:03Z</time>
  <speed>3.330000</speed>
</trkpt>
<trkpt lat="32.997615814" lon="35.505661011">
  <ele>764.942383</ele>
  <time>2011-10-15T07:04:04Z</time>
  <speed>3.440000</speed>
</trkpt>
<trkpt lat="32.997585297" lon="35.505664825">
  <ele>765.348633</ele>
  <time>2011-10-15T07:04:05Z</time>
  <speed>3.040000</speed>
</trkpt>
<trkpt lat="32.997543335" lon="35.505687714">
  <ele>765.723633</ele>
  <time>2011-10-15T07:04:07Z</time>
  <speed>2.510000</speed>
</trkpt>
<trkpt lat="32.997509003" lon="35.505737305">
  <ele>766.301758</ele>
  <time>2011-10-15T07:04:09Z</time>
  <speed>3.170000</speed>
</trkpt>
<trkpt lat="32.997486115" lon="35.505764008">
  <ele>766.317383</ele>
  <time>2011-10-15T07:04:10Z</time>
  <speed>3.160000</speed>
</trkpt>
<trkpt lat="32.997470856" lon="35.505790710">
  <ele>766.473633</ele>
  <time>2011-10-15T07:04:11Z</time>
  <speed>3.300000</speed>
</trkpt>
<trkpt lat="32.997459412" lon="35.505825043">
  <ele>766.364258</ele>
  <time>2011-10-15T07:04:12Z</time>
  <speed>3.170000</speed>
</trkpt>
<trkpt lat="32.997447968" lon="35.505863190">
  <ele>767.020508</ele>
  <time>2011-10-15T07:04:13Z</time>
  <speed>3.240000</speed>
</trkpt>
<trkpt lat="32.997440338" lon="35.505897522">
  <ele>767.520508</ele>
  <time>2011-10-15T07:04:14Z</time>
  <speed>3.410000</speed>
</trkpt>
<trkpt lat="32.997432709" lon="35.505931854">
  <ele>767.645508</ele>
  <time>2011-10-15T07:04:15Z</time>
  <speed>3.410000</speed>
</trkpt>
<trkpt lat="32.997421265" lon="35.505962372">
  <ele>767.567383</ele>
  <time>2011-10-15T07:04:16Z</time>
  <speed>3.100000</speed>
</trkpt>
<trkpt lat="32.997409821" lon="35.505996704">
  <ele>767.848633</ele>
  <time>2011-10-15T07:04:17Z</time>
  <speed>3.030000</speed>
</trkpt>
<trkpt lat="32.997398376" lon="35.506027222">
  <ele>767.833008</ele>
  <time>2011-10-15T07:04:18Z</time>
  <speed>3.080000</speed>
</trkpt>
<trkpt lat="32.997386932" lon="35.506099701">
  <ele>769.348633</ele>
  <time>2011-10-15T07:04:20Z</time>
  <speed>3.250000</speed>
</trkpt>
<trkpt lat="32.997375488" lon="35.506149292">
  <ele>770.958008</ele>
  <time>2011-10-15T07:04:21Z</time>
  <speed>3.070000</speed>
</trkpt>
<trkpt lat="32.997371674" lon="35.506183624">
  <ele>771.708008</ele>
  <time>2011-10-15T07:04:22Z</time>
  <speed>3.160000</speed>
</trkpt>
<trkpt lat="32.997367859" lon="35.506221771">
  <ele>772.801758</ele>
  <time>2011-10-15T07:04:23Z</time>
  <speed>3.050000</speed>
</trkpt>
<trkpt lat="32.997364044" lon="35.506259918">
  <ele>773.989258</ele>
  <time>2011-10-15T07:04:24Z</time>
  <speed>3.110000</speed>
</trkpt>
<trkpt lat="32.997360229" lon="35.506298065">
  <ele>774.801758</ele>
  <time>2011-10-15T07:04:25Z</time>
  <speed>3.020000</speed>
</trkpt>
<trkpt lat="32.997356415" lon="35.506332397">
  <ele>775.645508</ele>
  <time>2011-10-15T07:04:26Z</time>
  <speed>2.840000</speed>
</trkpt>
<trkpt lat="32.997352600" lon="35.506366730">
  <ele>776.489258</ele>
  <time>2011-10-15T07:04:27Z</time>
  <speed>2.980000</speed>
</trkpt>
<trkpt lat="32.997344971" lon="35.506423950">
  <ele>777.348633</ele>
  <time>2011-10-15T07:04:29Z</time>
  <speed>2.750000</speed>
</trkpt>
<trkpt lat="32.997337341" lon="35.506481171">
  <ele>777.364258</ele>
  <time>2011-10-15T07:04:31Z</time>
  <speed>2.820000</speed>
</trkpt>
<trkpt lat="32.997325897" lon="35.506538391">
  <ele>777.208008</ele>
  <time>2011-10-15T07:04:33Z</time>
  <speed>3.140000</speed>
</trkpt>
<trkpt lat="32.997325897" lon="35.506576538">
  <ele>777.848633</ele>
  <time>2011-10-15T07:04:34Z</time>
  <speed>3.140000</speed>
</trkpt>
<trkpt lat="32.997306824" lon="35.506633759">
  <ele>778.161133</ele>
  <time>2011-10-15T07:04:36Z</time>
  <speed>3.070000</speed>
</trkpt>
<trkpt lat="32.997291565" lon="35.506694794">
  <ele>777.942383</ele>
  <time>2011-10-15T07:04:38Z</time>
  <speed>2.900000</speed>
</trkpt>
<trkpt lat="32.997264862" lon="35.506748199">
  <ele>776.989258</ele>
  <time>2011-10-15T07:04:40Z</time>
  <speed>2.970000</speed>
</trkpt>
<trkpt lat="32.997241974" lon="35.506797791">
  <ele>775.833008</ele>
  <time>2011-10-15T07:04:42Z</time>
  <speed>3.030000</speed>
</trkpt>
<trkpt lat="32.997226715" lon="35.506824493">
  <ele>774.879883</ele>
  <time>2011-10-15T07:04:43Z</time>
  <speed>3.020000</speed>
</trkpt>
<trkpt lat="32.997207642" lon="35.506847382">
  <ele>774.520508</ele>
  <time>2011-10-15T07:04:44Z</time>
  <speed>3.010000</speed>
</trkpt>
<trkpt lat="32.997192383" lon="35.506877899">
  <ele>774.926758</ele>
  <time>2011-10-15T07:04:45Z</time>
  <speed>3.150000</speed>
</trkpt>
<trkpt lat="32.997173309" lon="35.506908417">
  <ele>775.036133</ele>
  <time>2011-10-15T07:04:46Z</time>
  <speed>3.240000</speed>
</trkpt>
<trkpt lat="32.997154236" lon="35.506935120">
  <ele>774.833008</ele>
  <time>2011-10-15T07:04:47Z</time>
  <speed>3.040000</speed>
</trkpt>
<trkpt lat="32.997116089" lon="35.506980896">
  <ele>774.817383</ele>
  <time>2011-10-15T07:04:49Z</time>
  <speed>3.080000</speed>
</trkpt>
<trkpt lat="32.997093201" lon="35.506996155">
  <ele>774.114258</ele>
  <time>2011-10-15T07:04:50Z</time>
  <speed>2.910000</speed>
</trkpt>
<trkpt lat="32.997070313" lon="35.507019043">
  <ele>773.317383</ele>
  <time>2011-10-15T07:04:51Z</time>
  <speed>3.010000</speed>
</trkpt>
<trkpt lat="32.997047424" lon="35.507041931">
  <ele>772.973633</ele>
  <time>2011-10-15T07:04:52Z</time>
  <speed>2.960000</speed>
</trkpt>
<trkpt lat="32.997024536" lon="35.507057190">
  <ele>772.879883</ele>
  <time>2011-10-15T07:04:53Z</time>
  <speed>3.030000</speed>
</trkpt>
<trkpt lat="32.996997833" lon="35.507068634">
  <ele>773.208008</ele>
  <time>2011-10-15T07:04:54Z</time>
  <speed>2.940000</speed>
</trkpt>
<trkpt lat="32.996978760" lon="35.507095337">
  <ele>774.254883</ele>
  <time>2011-10-15T07:04:55Z</time>
  <speed>2.870000</speed>
</trkpt>
<trkpt lat="32.996955872" lon="35.507118225">
  <ele>774.926758</ele>
  <time>2011-10-15T07:04:56Z</time>
  <speed>2.750000</speed>
</trkpt>
<trkpt lat="32.996906281" lon="35.507133484">
  <ele>774.583008</ele>
  <time>2011-10-15T07:04:58Z</time>
  <speed>2.450000</speed>
</trkpt>
<trkpt lat="32.996875763" lon="35.507141113">
  <ele>774.083008</ele>
  <time>2011-10-15T07:04:59Z</time>
  <speed>2.460000</speed>
</trkpt>
<trkpt lat="32.996833801" lon="35.507160187">
  <ele>774.879883</ele>
  <time>2011-10-15T07:05:01Z</time>
  <speed>2.430000</speed>
</trkpt>
<trkpt lat="32.996795654" lon="35.507167816">
  <ele>776.583008</ele>
  <time>2011-10-15T07:05:03Z</time>
  <speed>2.320000</speed>
</trkpt>
<trkpt lat="32.996772766" lon="35.507175446">
  <ele>776.020508</ele>
  <time>2011-10-15T07:05:04Z</time>
  <speed>2.520000</speed>
</trkpt>
<trkpt lat="32.996726990" lon="35.507186890">
  <ele>775.973633</ele>
  <time>2011-10-15T07:05:06Z</time>
  <speed>1.640000</speed>
</trkpt>
<trkpt lat="32.996692657" lon="35.507171631">
  <ele>776.567383</ele>
  <time>2011-10-15T07:05:08Z</time>
  <speed>1.980000</speed>
</trkpt>
<trkpt lat="32.996665955" lon="35.507137299">
  <ele>776.129883</ele>
  <time>2011-10-15T07:05:10Z</time>
  <speed>2.280000</speed>
</trkpt>
<trkpt lat="32.996623993" lon="35.507118225">
  <ele>776.004883</ele>
  <time>2011-10-15T07:05:12Z</time>
  <speed>2.000000</speed>
</trkpt>
<trkpt lat="32.996582031" lon="35.507091522">
  <ele>776.301758</ele>
  <time>2011-10-15T07:05:14Z</time>
  <speed>2.470000</speed>
</trkpt>
<trkpt lat="32.996566772" lon="35.507068634">
  <ele>776.770508</ele>
  <time>2011-10-15T07:05:15Z</time>
  <speed>2.070000</speed>
</trkpt>
<trkpt lat="32.996540070" lon="35.507041931">
  <ele>777.692383</ele>
  <time>2011-10-15T07:05:17Z</time>
  <speed>1.340000</speed>
</trkpt>
<trkpt lat="32.996517181" lon="35.507022858">
  <ele>778.286133</ele>
  <time>2011-10-15T07:05:19Z</time>
  <speed>1.980000</speed>
</trkpt>
<trkpt lat="32.996482849" lon="35.506996155">
  <ele>778.458008</ele>
  <time>2011-10-15T07:05:21Z</time>
  <speed>2.330000</speed>
</trkpt>
<trkpt lat="32.996456146" lon="35.506961823">
  <ele>778.551758</ele>
  <time>2011-10-15T07:05:23Z</time>
  <speed>2.410000</speed>
</trkpt>
<trkpt lat="32.996433258" lon="35.506923676">
  <ele>778.551758</ele>
  <time>2011-10-15T07:05:25Z</time>
  <speed>1.880000</speed>
</trkpt>
<trkpt lat="32.996410370" lon="35.506889343">
  <ele>778.864258</ele>
  <time>2011-10-15T07:05:27Z</time>
  <speed>2.360000</speed>
</trkpt>
<trkpt lat="32.996376038" lon="35.506851196">
  <ele>779.645508</ele>
  <time>2011-10-15T07:05:29Z</time>
  <speed>2.530000</speed>
</trkpt>
<trkpt lat="32.996353149" lon="35.506813049">
  <ele>779.583008</ele>
  <time>2011-10-15T07:05:31Z</time>
  <speed>2.510000</speed>
</trkpt>
<trkpt lat="32.996318817" lon="35.506771088">
  <ele>780.473633</ele>
  <time>2011-10-15T07:05:33Z</time>
  <speed>2.280000</speed>
</trkpt>
<trkpt lat="32.996295929" lon="35.506725311">
  <ele>781.270508</ele>
  <time>2011-10-15T07:05:35Z</time>
  <speed>2.370000</speed>
</trkpt>
<trkpt lat="32.996265411" lon="35.506683350">
  <ele>782.004883</ele>
  <time>2011-10-15T07:05:37Z</time>
  <speed>2.500000</speed>
</trkpt>
<trkpt lat="32.996246338" lon="35.506637573">
  <ele>782.895508</ele>
  <time>2011-10-15T07:05:39Z</time>
  <speed>2.450000</speed>
</trkpt>
<trkpt lat="32.996227264" lon="35.506591797">
  <ele>783.239258</ele>
  <time>2011-10-15T07:05:41Z</time>
  <speed>2.380000</speed>
</trkpt>
<trkpt lat="32.996208191" lon="35.506542206">
  <ele>783.942383</ele>
  <time>2011-10-15T07:05:43Z</time>
  <speed>2.460000</speed>
</trkpt>
<trkpt lat="32.996192932" lon="35.506500244">
  <ele>784.661133</ele>
  <time>2011-10-15T07:05:45Z</time>
  <speed>2.440000</speed>
</trkpt>
<trkpt lat="32.996181488" lon="35.506454468">
  <ele>785.676758</ele>
  <time>2011-10-15T07:05:47Z</time>
  <speed>2.050000</speed>
</trkpt>
<trkpt lat="32.996162415" lon="35.506412506">
  <ele>785.926758</ele>
  <time>2011-10-15T07:05:49Z</time>
  <speed>2.240000</speed>
</trkpt>
<trkpt lat="32.996154785" lon="35.506366730">
  <ele>786.536133</ele>
  <time>2011-10-15T07:05:51Z</time>
  <speed>2.000000</speed>
</trkpt>
<trkpt lat="32.996143341" lon="35.506320953">
  <ele>786.864258</ele>
  <time>2011-10-15T07:05:53Z</time>
  <speed>2.150000</speed>
</trkpt>
<trkpt lat="32.996135712" lon="35.506278992">
  <ele>787.270508</ele>
  <time>2011-10-15T07:05:55Z</time>
  <speed>2.070000</speed>
</trkpt>
<trkpt lat="32.996120453" lon="35.506233215">
  <ele>787.879883</ele>
  <time>2011-10-15T07:05:57Z</time>
  <speed>2.150000</speed>
</trkpt>
<trkpt lat="32.996116638" lon="35.506183624">
  <ele>788.426758</ele>
  <time>2011-10-15T07:05:59Z</time>
  <speed>2.340000</speed>
</trkpt>
<trkpt lat="32.996120453" lon="35.506137848">
  <ele>789.020508</ele>
  <time>2011-10-15T07:06:01Z</time>
  <speed>2.480000</speed>
</trkpt>
<trkpt lat="32.996120453" lon="35.506080627">
  <ele>789.411133</ele>
  <time>2011-10-15T07:06:03Z</time>
  <speed>2.460000</speed>
</trkpt>
<trkpt lat="32.996124268" lon="35.506031036">
  <ele>789.520508</ele>
  <time>2011-10-15T07:06:05Z</time>
  <speed>2.430000</speed>
</trkpt>
<trkpt lat="32.996120453" lon="35.505981445">
  <ele>788.864258</ele>
  <time>2011-10-15T07:06:07Z</time>
  <speed>2.550000</speed>
</trkpt>
<trkpt lat="32.996109009" lon="35.505928040">
  <ele>788.879883</ele>
  <time>2011-10-15T07:06:09Z</time>
  <speed>2.780000</speed>
</trkpt>
<trkpt lat="32.996112823" lon="35.505870819">
  <ele>788.348633</ele>
  <time>2011-10-15T07:06:11Z</time>
  <speed>2.500000</speed>
</trkpt>
<trkpt lat="32.996109009" lon="35.505821228">
  <ele>788.020508</ele>
  <time>2011-10-15T07:06:13Z</time>
  <speed>2.900000</speed>
</trkpt>
<trkpt lat="32.996116638" lon="35.505760193">
  <ele>787.754883</ele>
  <time>2011-10-15T07:06:15Z</time>
  <speed>2.780000</speed>
</trkpt>
<trkpt lat="32.996116638" lon="35.505695343">
  <ele>788.239258</ele>
  <time>2011-10-15T07:06:17Z</time>
  <speed>2.720000</speed>
</trkpt>
<trkpt lat="32.996120453" lon="35.505641937">
  <ele>788.301758</ele>
  <time>2011-10-15T07:06:19Z</time>
  <speed>2.880000</speed>
</trkpt>
<trkpt lat="32.996124268" lon="35.505588531">
  <ele>787.317383</ele>
  <time>2011-10-15T07:06:21Z</time>
  <speed>2.700000</speed>
</trkpt>
<trkpt lat="32.996124268" lon="35.505558014">
  <ele>787.504883</ele>
  <time>2011-10-15T07:06:22Z</time>
  <speed>2.830000</speed>
</trkpt>
<trkpt lat="32.996120453" lon="35.505523682">
  <ele>788.958008</ele>
  <time>2011-10-15T07:06:23Z</time>
  <speed>3.070000</speed>
</trkpt>
<trkpt lat="32.996124268" lon="35.505466461">
  <ele>789.051758</ele>
  <time>2011-10-15T07:06:25Z</time>
  <speed>2.820000</speed>
</trkpt>
<trkpt lat="32.996120453" lon="35.505413055">
  <ele>788.661133</ele>
  <time>2011-10-15T07:06:27Z</time>
  <speed>2.630000</speed>
</trkpt>
<trkpt lat="32.996120453" lon="35.505352020">
  <ele>788.426758</ele>
  <time>2011-10-15T07:06:29Z</time>
  <speed>2.790000</speed>
</trkpt>
<trkpt lat="32.996116638" lon="35.505310059">
  <ele>788.583008</ele>
  <time>2011-10-15T07:06:30Z</time>
  <speed>2.810000</speed>
</trkpt>
<trkpt lat="32.996109009" lon="35.505275726">
  <ele>788.848633</ele>
  <time>2011-10-15T07:06:31Z</time>
  <speed>2.970000</speed>
</trkpt>
<trkpt lat="32.996097565" lon="35.505214691">
  <ele>789.083008</ele>
  <time>2011-10-15T07:06:33Z</time>
  <speed>2.790000</speed>
</trkpt>
<trkpt lat="32.996097565" lon="35.505184174">
  <ele>788.770508</ele>
  <time>2011-10-15T07:06:34Z</time>
  <speed>2.840000</speed>
</trkpt>
<trkpt lat="32.996101379" lon="35.505130768">
  <ele>788.395508</ele>
  <time>2011-10-15T07:06:36Z</time>
  <speed>2.590000</speed>
</trkpt>
<trkpt lat="32.996093750" lon="35.505062103">
  <ele>788.051758</ele>
  <time>2011-10-15T07:06:38Z</time>
  <speed>2.970000</speed>
</trkpt>
<trkpt lat="32.996097565" lon="35.505012512">
  <ele>787.129883</ele>
  <time>2011-10-15T07:06:40Z</time>
  <speed>2.740000</speed>
</trkpt>
<trkpt lat="32.996097565" lon="35.504978180">
  <ele>787.208008</ele>
  <time>2011-10-15T07:06:41Z</time>
  <speed>2.970000</speed>
</trkpt>
<trkpt lat="32.996097565" lon="35.504917145">
  <ele>787.301758</ele>
  <time>2011-10-15T07:06:43Z</time>
  <speed>2.720000</speed>
</trkpt>
<trkpt lat="32.996086121" lon="35.504856110">
  <ele>786.848633</ele>
  <time>2011-10-15T07:06:45Z</time>
  <speed>2.680000</speed>
</trkpt>
<trkpt lat="32.996070862" lon="35.504817963">
  <ele>787.411133</ele>
  <time>2011-10-15T07:06:46Z</time>
  <speed>2.960000</speed>
</trkpt>
<trkpt lat="32.996059418" lon="35.504791260">
  <ele>787.286133</ele>
  <time>2011-10-15T07:06:47Z</time>
  <speed>3.050000</speed>
</trkpt>
<trkpt lat="32.996036530" lon="35.504749298">
  <ele>787.958008</ele>
  <time>2011-10-15T07:06:48Z</time>
  <speed>3.180000</speed>
</trkpt>
<trkpt lat="32.996025085" lon="35.504711151">
  <ele>788.333008</ele>
  <time>2011-10-15T07:06:49Z</time>
  <speed>3.070000</speed>
</trkpt>
<trkpt lat="32.996017456" lon="35.504680634">
  <ele>788.536133</ele>
  <time>2011-10-15T07:06:50Z</time>
  <speed>2.840000</speed>
</trkpt>
<trkpt lat="32.996002197" lon="35.504631042">
  <ele>788.395508</ele>
  <time>2011-10-15T07:06:52Z</time>
  <speed>2.650000</speed>
</trkpt>
<trkpt lat="32.995979309" lon="35.504596710">
  <ele>788.333008</ele>
  <time>2011-10-15T07:06:53Z</time>
  <speed>3.100000</speed>
</trkpt>
<trkpt lat="32.995956421" lon="35.504562378">
  <ele>788.411133</ele>
  <time>2011-10-15T07:06:54Z</time>
  <speed>3.290000</speed>
</trkpt>
<trkpt lat="32.995933533" lon="35.504528046">
  <ele>789.004883</ele>
  <time>2011-10-15T07:06:55Z</time>
  <speed>3.290000</speed>
</trkpt>
<trkpt lat="32.995906830" lon="35.504486084">
  <ele>789.317383</ele>
  <time>2011-10-15T07:06:56Z</time>
  <speed>3.310000</speed>
</trkpt>
<trkpt lat="32.995887756" lon="35.504463196">
  <ele>789.426758</ele>
  <time>2011-10-15T07:06:57Z</time>
  <speed>3.050000</speed>
</trkpt>
<trkpt lat="32.995861053" lon="35.504428864">
  <ele>789.301758</ele>
  <time>2011-10-15T07:06:59Z</time>
  <speed>2.900000</speed>
</trkpt>
<trkpt lat="32.995834351" lon="35.504409790">
  <ele>789.817383</ele>
  <time>2011-10-15T07:07:00Z</time>
  <speed>2.750000</speed>
</trkpt>
<trkpt lat="32.995792389" lon="35.504398346">
  <ele>789.114258</ele>
  <time>2011-10-15T07:07:02Z</time>
  <speed>2.800000</speed>
</trkpt>
<trkpt lat="32.995761871" lon="35.504394531">
  <ele>788.926758</ele>
  <time>2011-10-15T07:07:03Z</time>
  <speed>3.130000</speed>
</trkpt>
<trkpt lat="32.995731354" lon="35.504394531">
  <ele>788.754883</ele>
  <time>2011-10-15T07:07:04Z</time>
  <speed>3.540000</speed>
</trkpt>
<trkpt lat="32.995700836" lon="35.504402161">
  <ele>788.536133</ele>
  <time>2011-10-15T07:07:05Z</time>
  <speed>2.980000</speed>
</trkpt>
<trkpt lat="32.995670319" lon="35.504413605">
  <ele>788.395508</ele>
  <time>2011-10-15T07:07:06Z</time>
  <speed>2.630000</speed>
</trkpt>
<trkpt lat="32.995639801" lon="35.504432678">
  <ele>788.723633</ele>
  <time>2011-10-15T07:07:07Z</time>
  <speed>2.840000</speed>
</trkpt>
<trkpt lat="32.995620728" lon="35.504459381">
  <ele>789.020508</ele>
  <time>2011-10-15T07:07:08Z</time>
  <speed>3.150000</speed>
</trkpt>
<trkpt lat="32.995601654" lon="35.504489899">
  <ele>789.583008</ele>
  <time>2011-10-15T07:07:09Z</time>
  <speed>3.130000</speed>
</trkpt>
<trkpt lat="32.995590210" lon="35.504520416">
  <ele>789.895508</ele>
  <time>2011-10-15T07:07:10Z</time>
  <speed>3.290000</speed>
</trkpt>
<trkpt lat="32.995567322" lon="35.504550934">
  <ele>790.395508</ele>
  <time>2011-10-15T07:07:11Z</time>
  <speed>3.320000</speed>
</trkpt>
<trkpt lat="32.995548248" lon="35.504581451">
  <ele>791.458008</ele>
  <time>2011-10-15T07:07:12Z</time>
  <speed>3.200000</speed>
</trkpt>
<trkpt lat="32.995532990" lon="35.504615784">
  <ele>792.333008</ele>
  <time>2011-10-15T07:07:13Z</time>
  <speed>3.380000</speed>
</trkpt>
<trkpt lat="32.995513916" lon="35.504642487">
  <ele>792.770508</ele>
  <time>2011-10-15T07:07:14Z</time>
  <speed>3.120000</speed>
</trkpt>
<trkpt lat="32.995502472" lon="35.504676819">
  <ele>793.426758</ele>
  <time>2011-10-15T07:07:15Z</time>
  <speed>3.090000</speed>
</trkpt>
<trkpt lat="32.995487213" lon="35.504711151">
  <ele>794.051758</ele>
  <time>2011-10-15T07:07:16Z</time>
  <speed>3.160000</speed>
</trkpt>
<trkpt lat="32.995471954" lon="35.504741669">
  <ele>794.161133</ele>
  <time>2011-10-15T07:07:17Z</time>
  <speed>3.090000</speed>
</trkpt>
<trkpt lat="32.995456696" lon="35.504768372">
  <ele>794.942383</ele>
  <time>2011-10-15T07:07:18Z</time>
  <speed>3.030000</speed>
</trkpt>
<trkpt lat="32.995441437" lon="35.504795074">
  <ele>795.161133</ele>
  <time>2011-10-15T07:07:19Z</time>
  <speed>3.000000</speed>
</trkpt>
<trkpt lat="32.995422363" lon="35.504821777">
  <ele>795.598633</ele>
  <time>2011-10-15T07:07:20Z</time>
  <speed>3.160000</speed>
</trkpt>
<trkpt lat="32.995403290" lon="35.504852295">
  <ele>795.708008</ele>
  <time>2011-10-15T07:07:21Z</time>
  <speed>3.090000</speed>
</trkpt>
<trkpt lat="32.995376587" lon="35.504878998">
  <ele>795.348633</ele>
  <time>2011-10-15T07:07:22Z</time>
  <speed>3.000000</speed>
</trkpt>
<trkpt lat="32.995330811" lon="35.504905701">
  <ele>795.598633</ele>
  <time>2011-10-15T07:07:24Z</time>
  <speed>2.630000</speed>
</trkpt>
<trkpt lat="32.995307922" lon="35.504936218">
  <ele>796.864258</ele>
  <time>2011-10-15T07:07:25Z</time>
  <speed>2.970000</speed>
</trkpt>
<trkpt lat="32.995258331" lon="35.504959106">
  <ele>797.020508</ele>
  <time>2011-10-15T07:07:27Z</time>
  <speed>3.020000</speed>
</trkpt>
<trkpt lat="32.995231628" lon="35.504970551">
  <ele>797.567383</ele>
  <time>2011-10-15T07:07:28Z</time>
  <speed>2.930000</speed>
</trkpt>
<trkpt lat="32.995182037" lon="35.504989624">
  <ele>798.036133</ele>
  <time>2011-10-15T07:07:30Z</time>
  <speed>2.730000</speed>
</trkpt>
<trkpt lat="32.995147705" lon="35.505012512">
  <ele>798.114258</ele>
  <time>2011-10-15T07:07:32Z</time>
  <speed>2.090000</speed>
</trkpt>
<trkpt lat="32.995113373" lon="35.505035400">
  <ele>799.239258</ele>
  <time>2011-10-15T07:07:34Z</time>
  <speed>2.460000</speed>
</trkpt>
<trkpt lat="32.995086670" lon="35.505050659">
  <ele>799.333008</ele>
  <time>2011-10-15T07:07:35Z</time>
  <speed>2.770000</speed>
</trkpt>
<trkpt lat="32.995056152" lon="35.505062103">
  <ele>799.348633</ele>
  <time>2011-10-15T07:07:36Z</time>
  <speed>2.820000</speed>
</trkpt>
<trkpt lat="32.995014191" lon="35.505084991">
  <ele>799.692383</ele>
  <time>2011-10-15T07:07:38Z</time>
  <speed>2.760000</speed>
</trkpt>
<trkpt lat="32.994983673" lon="35.505096436">
  <ele>799.754883</ele>
  <time>2011-10-15T07:07:39Z</time>
  <speed>2.700000</speed>
</trkpt>
<trkpt lat="32.994953156" lon="35.505107880">
  <ele>799.817383</ele>
  <time>2011-10-15T07:07:40Z</time>
  <speed>2.780000</speed>
</trkpt>
<trkpt lat="32.994918823" lon="35.505111694">
  <ele>798.926758</ele>
  <time>2011-10-15T07:07:41Z</time>
  <speed>2.490000</speed>
</trkpt>
<trkpt lat="32.994869232" lon="35.505119324">
  <ele>799.520508</ele>
  <time>2011-10-15T07:07:43Z</time>
  <speed>2.470000</speed>
</trkpt>
<trkpt lat="32.994815826" lon="35.505138397">
  <ele>799.973633</ele>
  <time>2011-10-15T07:07:45Z</time>
  <speed>2.530000</speed>
</trkpt>
<trkpt lat="32.994770050" lon="35.505153656">
  <ele>800.754883</ele>
  <time>2011-10-15T07:07:47Z</time>
  <speed>2.430000</speed>
</trkpt>
<trkpt lat="32.994712830" lon="35.505146027">
  <ele>799.879883</ele>
  <time>2011-10-15T07:07:49Z</time>
  <speed>2.310000</speed>
</trkpt>
<trkpt lat="32.994670868" lon="35.505142212">
  <ele>799.645508</ele>
  <time>2011-10-15T07:07:51Z</time>
  <speed>2.520000</speed>
</trkpt>
<trkpt lat="32.994625092" lon="35.505130768">
  <ele>800.254883</ele>
  <time>2011-10-15T07:07:53Z</time>
  <speed>2.510000</speed>
</trkpt>
<trkpt lat="32.994594574" lon="35.505096436">
  <ele>800.864258</ele>
  <time>2011-10-15T07:07:55Z</time>
  <speed>2.310000</speed>
</trkpt>
<trkpt lat="32.994571686" lon="35.505050659">
  <ele>801.723633</ele>
  <time>2011-10-15T07:07:57Z</time>
  <speed>2.210000</speed>
</trkpt>
<trkpt lat="32.994548798" lon="35.505012512">
  <ele>802.176758</ele>
  <time>2011-10-15T07:07:59Z</time>
  <speed>2.130000</speed>
</trkpt>
<trkpt lat="32.994541168" lon="35.504974365">
  <ele>803.348633</ele>
  <time>2011-10-15T07:08:01Z</time>
  <speed>1.980000</speed>
</trkpt>
<trkpt lat="32.994537354" lon="35.504928589">
  <ele>805.036133</ele>
  <time>2011-10-15T07:08:03Z</time>
  <speed>2.090000</speed>
</trkpt>
<trkpt lat="32.994537354" lon="35.504882813">
  <ele>806.645508</ele>
  <time>2011-10-15T07:08:05Z</time>
  <speed>2.480000</speed>
</trkpt>
<trkpt lat="32.994533539" lon="35.504852295">
  <ele>807.801758</ele>
  <time>2011-10-15T07:08:07Z</time>
  <speed>1.720000</speed>
</trkpt>
<trkpt lat="32.994544983" lon="35.504802704">
  <ele>810.395508</ele>
  <time>2011-10-15T07:08:33Z</time>
  <speed>2.440000</speed>
</trkpt>
<trkpt lat="32.994548798" lon="35.504741669">
  <ele>811.442383</ele>
  <time>2011-10-15T07:08:35Z</time>
  <speed>3.350000</speed>
</trkpt>
<trkpt lat="32.994544983" lon="35.504707336">
  <ele>811.551758</ele>
  <time>2011-10-15T07:08:36Z</time>
  <speed>2.940000</speed>
</trkpt>
<trkpt lat="32.994533539" lon="35.504673004">
  <ele>811.536133</ele>
  <time>2011-10-15T07:08:37Z</time>
  <speed>2.730000</speed>
</trkpt>
<trkpt lat="32.994514465" lon="35.504627228">
  <ele>811.723633</ele>
  <time>2011-10-15T07:08:39Z</time>
  <speed>2.110000</speed>
</trkpt>
<trkpt lat="32.994476318" lon="35.504573822">
  <ele>811.801758</ele>
  <time>2011-10-15T07:08:41Z</time>
  <speed>2.240000</speed>
</trkpt>
<trkpt lat="32.994457245" lon="35.504550934">
  <ele>811.833008</ele>
  <time>2011-10-15T07:08:42Z</time>
  <speed>2.470000</speed>
</trkpt>
<trkpt lat="32.994434357" lon="35.504528046">
  <ele>811.911133</ele>
  <time>2011-10-15T07:08:43Z</time>
  <speed>2.150000</speed>
</trkpt>
<trkpt lat="32.994388580" lon="35.504501343">
  <ele>812.145508</ele>
  <time>2011-10-15T07:08:45Z</time>
  <speed>2.000000</speed>
</trkpt>
<trkpt lat="32.994338989" lon="35.504489899">
  <ele>812.067383</ele>
  <time>2011-10-15T07:08:47Z</time>
  <speed>2.300000</speed>
</trkpt>
<trkpt lat="32.994304657" lon="35.504463196">
  <ele>811.848633</ele>
  <time>2011-10-15T07:08:49Z</time>
  <speed>1.840000</speed>
</trkpt>
<trkpt lat="32.994266510" lon="35.504432678">
  <ele>811.645508</ele>
  <time>2011-10-15T07:08:51Z</time>
  <speed>2.120000</speed>
</trkpt>
<trkpt lat="32.994239807" lon="35.504405975">
  <ele>811.458008</ele>
  <time>2011-10-15T07:08:53Z</time>
  <speed>1.990000</speed>
</trkpt>
<trkpt lat="32.994220734" lon="35.504371643">
  <ele>811.364258</ele>
  <time>2011-10-15T07:08:55Z</time>
  <speed>1.900000</speed>
</trkpt>
<trkpt lat="32.994190216" lon="35.504337311">
  <ele>810.426758</ele>
  <time>2011-10-15T07:08:57Z</time>
  <speed>2.420000</speed>
</trkpt>
<trkpt lat="32.994144440" lon="35.504314423">
  <ele>809.848633</ele>
  <time>2011-10-15T07:08:59Z</time>
  <speed>2.450000</speed>
</trkpt>
<trkpt lat="32.994091034" lon="35.504310608">
  <ele>809.176758</ele>
  <time>2011-10-15T07:09:01Z</time>
  <speed>3.750000</speed>
</trkpt>
<trkpt lat="32.994056702" lon="35.504310608">
  <ele>808.942383</ele>
  <time>2011-10-15T07:09:02Z</time>
  <speed>3.650000</speed>
</trkpt>
<trkpt lat="32.994026184" lon="35.504322052">
  <ele>808.442383</ele>
  <time>2011-10-15T07:09:03Z</time>
  <speed>2.780000</speed>
</trkpt>
<trkpt lat="32.993988037" lon="35.504344940">
  <ele>807.926758</ele>
  <time>2011-10-15T07:09:05Z</time>
  <speed>2.000000</speed>
</trkpt>
<trkpt lat="32.993953705" lon="35.504375458">
  <ele>807.395508</ele>
  <time>2011-10-15T07:09:07Z</time>
  <speed>2.110000</speed>
</trkpt>
<trkpt lat="32.993923187" lon="35.504413605">
  <ele>806.301758</ele>
  <time>2011-10-15T07:09:09Z</time>
  <speed>2.650000</speed>
</trkpt>
<trkpt lat="32.993900299" lon="35.504463196">
  <ele>806.114258</ele>
  <time>2011-10-15T07:09:11Z</time>
  <speed>2.490000</speed>
</trkpt>
<trkpt lat="32.993869781" lon="35.504512787">
  <ele>805.020508</ele>
  <time>2011-10-15T07:09:13Z</time>
  <speed>2.640000</speed>
</trkpt>
<trkpt lat="32.993839264" lon="35.504558563">
  <ele>804.270508</ele>
  <time>2011-10-15T07:09:15Z</time>
  <speed>2.540000</speed>
</trkpt>
<trkpt lat="32.993812561" lon="35.504604340">
  <ele>804.161133</ele>
  <time>2011-10-15T07:09:17Z</time>
  <speed>2.220000</speed>
</trkpt>
<trkpt lat="32.993770599" lon="35.504642487">
  <ele>803.583008</ele>
  <time>2011-10-15T07:09:19Z</time>
  <speed>2.500000</speed>
</trkpt>
<trkpt lat="32.993732452" lon="35.504665375">
  <ele>803.723633</ele>
  <time>2011-10-15T07:09:21Z</time>
  <speed>2.520000</speed>
</trkpt>
<trkpt lat="32.993686676" lon="35.504684448">
  <ele>803.161133</ele>
  <time>2011-10-15T07:09:23Z</time>
  <speed>2.510000</speed>
</trkpt>
<trkpt lat="32.993640900" lon="35.504695892">
  <ele>802.723633</ele>
  <time>2011-10-15T07:09:25Z</time>
  <speed>2.500000</speed>
</trkpt>
<trkpt lat="32.993591309" lon="35.504699707">
  <ele>802.301758</ele>
  <time>2011-10-15T07:09:27Z</time>
  <speed>2.270000</speed>
</trkpt>
<trkpt lat="32.993564606" lon="35.504711151">
  <ele>803.270508</ele>
  <time>2011-10-15T07:09:28Z</time>
  <speed>2.600000</speed>
</trkpt>
<trkpt lat="32.993537903" lon="35.504707336">
  <ele>802.817383</ele>
  <time>2011-10-15T07:09:29Z</time>
  <speed>2.620000</speed>
</trkpt>
<trkpt lat="32.993495941" lon="35.504703522">
  <ele>803.379883</ele>
  <time>2011-10-15T07:09:31Z</time>
  <speed>2.250000</speed>
</trkpt>
<trkpt lat="32.993450165" lon="35.504714966">
  <ele>803.598633</ele>
  <time>2011-10-15T07:09:33Z</time>
  <speed>2.220000</speed>
</trkpt>
<trkpt lat="32.993408203" lon="35.504711151">
  <ele>804.036133</ele>
  <time>2011-10-15T07:09:35Z</time>
  <speed>2.510000</speed>
</trkpt>
<trkpt lat="32.993370056" lon="35.504692078">
  <ele>804.879883</ele>
  <time>2011-10-15T07:09:37Z</time>
  <speed>2.350000</speed>
</trkpt>
<trkpt lat="32.993328094" lon="35.504692078">
  <ele>805.395508</ele>
  <time>2011-10-15T07:09:39Z</time>
  <speed>2.520000</speed>
</trkpt>
<trkpt lat="32.993278503" lon="35.504684448">
  <ele>805.942383</ele>
  <time>2011-10-15T07:09:41Z</time>
  <speed>2.970000</speed>
</trkpt>
<trkpt lat="32.993236542" lon="35.504661560">
  <ele>806.145508</ele>
  <time>2011-10-15T07:09:43Z</time>
  <speed>2.270000</speed>
</trkpt>
<trkpt lat="32.993206024" lon="35.504653931">
  <ele>805.083008</ele>
  <time>2011-10-15T07:09:44Z</time>
  <speed>2.450000</speed>
</trkpt>
<trkpt lat="32.993160248" lon="35.504634857">
  <ele>805.426758</ele>
  <time>2011-10-15T07:09:46Z</time>
  <speed>2.790000</speed>
</trkpt>
<trkpt lat="32.993114471" lon="35.504623413">
  <ele>805.817383</ele>
  <time>2011-10-15T07:09:48Z</time>
  <speed>2.650000</speed>
</trkpt>
<trkpt lat="32.993057251" lon="35.504608154">
  <ele>806.411133</ele>
  <time>2011-10-15T07:09:50Z</time>
  <speed>3.550000</speed>
</trkpt>
<trkpt lat="32.993026733" lon="35.504600525">
  <ele>806.739258</ele>
  <time>2011-10-15T07:09:51Z</time>
  <speed>3.480000</speed>
</trkpt>
<trkpt lat="32.992973328" lon="35.504600525">
  <ele>807.520508</ele>
  <time>2011-10-15T07:09:53Z</time>
  <speed>2.980000</speed>
</trkpt>
<trkpt lat="32.992935181" lon="35.504604340">
  <ele>807.989258</ele>
  <time>2011-10-15T07:09:55Z</time>
  <speed>1.960000</speed>
</trkpt>
<trkpt lat="32.992938995" lon="35.504642487">
  <ele>809.020508</ele>
  <time>2011-10-15T07:09:58Z</time>
  <speed>2.090000</speed>
</trkpt>
<trkpt lat="32.992954254" lon="35.504673004">
  <ele>810.176758</ele>
  <time>2011-10-15T07:09:59Z</time>
  <speed>2.640000</speed>
</trkpt>
<trkpt lat="32.992965698" lon="35.504703522">
  <ele>809.504883</ele>
  <time>2011-10-15T07:10:00Z</time>
  <speed>2.840000</speed>
</trkpt>
<trkpt lat="32.992980957" lon="35.504760742">
  <ele>810.004883</ele>
  <time>2011-10-15T07:10:02Z</time>
  <speed>2.600000</speed>
</trkpt>
<trkpt lat="32.992980957" lon="35.504795074">
  <ele>809.973633</ele>
  <time>2011-10-15T07:10:03Z</time>
  <speed>2.830000</speed>
</trkpt>
<trkpt lat="32.992980957" lon="35.504825592">
  <ele>810.614258</ele>
  <time>2011-10-15T07:10:04Z</time>
  <speed>2.630000</speed>
</trkpt>
<trkpt lat="32.992988586" lon="35.504863739">
  <ele>812.176758</ele>
  <time>2011-10-15T07:10:05Z</time>
  <speed>2.530000</speed>
</trkpt>
<trkpt lat="32.993000031" lon="35.504917145">
  <ele>815.411133</ele>
  <time>2011-10-15T07:10:06Z</time>
  <speed>2.450000</speed>
</trkpt>
<trkpt lat="32.993011475" lon="35.504962921">
  <ele>818.254883</ele>
  <time>2011-10-15T07:10:07Z</time>
  <speed>2.380000</speed>
</trkpt>
<trkpt lat="32.993026733" lon="35.505023956">
  <ele>820.801758</ele>
  <time>2011-10-15T07:10:09Z</time>
  <speed>2.350000</speed>
</trkpt>
<trkpt lat="32.993015289" lon="35.505069733">
  <ele>820.676758</ele>
  <time>2011-10-15T07:10:11Z</time>
  <speed>2.040000</speed>
</trkpt>
<trkpt lat="32.993011475" lon="35.505107880">
  <ele>821.583008</ele>
  <time>2011-10-15T07:10:13Z</time>
  <speed>1.780000</speed>
</trkpt>
<trkpt lat="32.992996216" lon="35.505142212">
  <ele>822.051758</ele>
  <time>2011-10-15T07:10:15Z</time>
  <speed>2.090000</speed>
</trkpt>
<trkpt lat="32.992984772" lon="35.505180359">
  <ele>822.333008</ele>
  <time>2011-10-15T07:10:17Z</time>
  <speed>2.420000</speed>
</trkpt>
<trkpt lat="32.992965698" lon="35.505226135">
  <ele>823.317383</ele>
  <time>2011-10-15T07:10:19Z</time>
  <speed>2.280000</speed>
</trkpt>
<trkpt lat="32.992942810" lon="35.505268097">
  <ele>823.504883</ele>
  <time>2011-10-15T07:10:21Z</time>
  <speed>2.270000</speed>
</trkpt>
<trkpt lat="32.992912292" lon="35.505302429">
  <ele>823.286133</ele>
  <time>2011-10-15T07:10:23Z</time>
  <speed>1.980000</speed>
</trkpt>
<trkpt lat="32.992874146" lon="35.505336761">
  <ele>823.286133</ele>
  <time>2011-10-15T07:10:25Z</time>
  <speed>2.310000</speed>
</trkpt>
<trkpt lat="32.992843628" lon="35.505363464">
  <ele>822.770508</ele>
  <time>2011-10-15T07:10:27Z</time>
  <speed>2.280000</speed>
</trkpt>
<trkpt lat="32.992805481" lon="35.505382538">
  <ele>821.036133</ele>
  <time>2011-10-15T07:10:29Z</time>
  <speed>2.240000</speed>
</trkpt>
<trkpt lat="32.992763519" lon="35.505405426">
  <ele>820.473633</ele>
  <time>2011-10-15T07:10:31Z</time>
  <speed>1.860000</speed>
</trkpt>
<trkpt lat="32.992725372" lon="35.505432129">
  <ele>820.895508</ele>
  <time>2011-10-15T07:10:33Z</time>
  <speed>2.450000</speed>
</trkpt>
<trkpt lat="32.992683411" lon="35.505455017">
  <ele>820.458008</ele>
  <time>2011-10-15T07:10:35Z</time>
  <speed>2.450000</speed>
</trkpt>
<trkpt lat="32.992660522" lon="35.505474091">
  <ele>820.161133</ele>
  <time>2011-10-15T07:10:36Z</time>
  <speed>2.520000</speed>
</trkpt>
<trkpt lat="32.992618561" lon="35.505504608">
  <ele>820.723633</ele>
  <time>2011-10-15T07:10:38Z</time>
  <speed>2.640000</speed>
</trkpt>
<trkpt lat="32.992572784" lon="35.505523682">
  <ele>820.754883</ele>
  <time>2011-10-15T07:10:40Z</time>
  <speed>2.630000</speed>
</trkpt>
<trkpt lat="32.992523193" lon="35.505538940">
  <ele>819.989258</ele>
  <time>2011-10-15T07:10:42Z</time>
  <speed>2.450000</speed>
</trkpt>
<trkpt lat="32.992481232" lon="35.505569458">
  <ele>819.817383</ele>
  <time>2011-10-15T07:10:44Z</time>
  <speed>2.580000</speed>
</trkpt>
<trkpt lat="32.992439270" lon="35.505592346">
  <ele>819.489258</ele>
  <time>2011-10-15T07:10:46Z</time>
  <speed>2.620000</speed>
</trkpt>
<trkpt lat="32.992389679" lon="35.505607605">
  <ele>819.161133</ele>
  <time>2011-10-15T07:10:48Z</time>
  <speed>2.840000</speed>
</trkpt>
<trkpt lat="32.992347717" lon="35.505630493">
  <ele>818.864258</ele>
  <time>2011-10-15T07:10:50Z</time>
  <speed>2.390000</speed>
</trkpt>
<trkpt lat="32.992317200" lon="35.505664825">
  <ele>819.208008</ele>
  <time>2011-10-15T07:10:52Z</time>
  <speed>2.220000</speed>
</trkpt>
<trkpt lat="32.992282867" lon="35.505699158">
  <ele>819.786133</ele>
  <time>2011-10-15T07:10:54Z</time>
  <speed>2.710000</speed>
</trkpt>
<trkpt lat="32.992237091" lon="35.505729675">
  <ele>819.254883</ele>
  <time>2011-10-15T07:10:56Z</time>
  <speed>2.670000</speed>
</trkpt>
<trkpt lat="32.992198944" lon="35.505767822">
  <ele>818.661133</ele>
  <time>2011-10-15T07:10:58Z</time>
  <speed>2.570000</speed>
</trkpt>
<trkpt lat="32.992168427" lon="35.505809784">
  <ele>819.192383</ele>
  <time>2011-10-15T07:11:00Z</time>
  <speed>2.410000</speed>
</trkpt>
<trkpt lat="32.992134094" lon="35.505847931">
  <ele>819.567383</ele>
  <time>2011-10-15T07:11:02Z</time>
  <speed>2.540000</speed>
</trkpt>
<trkpt lat="32.992099762" lon="35.505882263">
  <ele>819.161133</ele>
  <time>2011-10-15T07:11:04Z</time>
  <speed>2.410000</speed>
</trkpt>
<trkpt lat="32.992065430" lon="35.505920410">
  <ele>819.645508</ele>
  <time>2011-10-15T07:11:06Z</time>
  <speed>2.650000</speed>
</trkpt>
<trkpt lat="32.992034912" lon="35.505958557">
  <ele>819.536133</ele>
  <time>2011-10-15T07:11:08Z</time>
  <speed>2.290000</speed>
</trkpt>
<trkpt lat="32.992012024" lon="35.505992889">
  <ele>819.692383</ele>
  <time>2011-10-15T07:11:10Z</time>
  <speed>2.020000</speed>
</trkpt>
<trkpt lat="32.992015839" lon="35.506038666">
  <ele>823.364258</ele>
  <time>2011-10-15T07:11:12Z</time>
  <speed>2.220000</speed>
</trkpt>
<trkpt lat="32.992027283" lon="35.506065369">
  <ele>825.489258</ele>
  <time>2011-10-15T07:11:13Z</time>
  <speed>2.180000</speed>
</trkpt>
<trkpt lat="32.992050171" lon="35.506114960">
  <ele>827.723633</ele>
  <time>2011-10-15T07:11:15Z</time>
  <speed>2.400000</speed>
</trkpt>
<trkpt lat="32.992069244" lon="35.506145477">
  <ele>828.629883</ele>
  <time>2011-10-15T07:11:16Z</time>
  <speed>2.590000</speed>
</trkpt>
<trkpt lat="32.992107391" lon="35.506187439">
  <ele>830.192383</ele>
  <time>2011-10-15T07:11:18Z</time>
  <speed>2.390000</speed>
</trkpt>
<trkpt lat="32.992134094" lon="35.506206512">
  <ele>830.614258</ele>
  <time>2011-10-15T07:11:19Z</time>
  <speed>2.730000</speed>
</trkpt>
<trkpt lat="32.992168427" lon="35.506240845">
  <ele>829.817383</ele>
  <time>2011-10-15T07:11:21Z</time>
  <speed>2.710000</speed>
</trkpt>
<trkpt lat="32.992195129" lon="35.506259918">
  <ele>830.317383</ele>
  <time>2011-10-15T07:11:22Z</time>
  <speed>3.080000</speed>
</trkpt>
<trkpt lat="32.992229462" lon="35.506278992">
  <ele>831.067383</ele>
  <time>2011-10-15T07:11:23Z</time>
  <speed>3.500000</speed>
</trkpt>
<trkpt lat="32.992263794" lon="35.506294250">
  <ele>831.520508</ele>
  <time>2011-10-15T07:11:24Z</time>
  <speed>3.870000</speed>
</trkpt>
<trkpt lat="32.992301941" lon="35.506305695">
  <ele>831.629883</ele>
  <time>2011-10-15T07:11:25Z</time>
  <speed>4.630000</speed>
</trkpt>
<trkpt lat="32.992351532" lon="35.506317139">
  <ele>832.317383</ele>
  <time>2011-10-15T07:11:26Z</time>
  <speed>5.190000</speed>
</trkpt>
<trkpt lat="32.992401123" lon="35.506328583">
  <ele>832.458008</ele>
  <time>2011-10-15T07:11:27Z</time>
  <speed>5.280000</speed>
</trkpt>
<trkpt lat="32.992450714" lon="35.506347656">
  <ele>832.473633</ele>
  <time>2011-10-15T07:11:28Z</time>
  <speed>5.640000</speed>
</trkpt>
<trkpt lat="32.992500305" lon="35.506370544">
  <ele>832.114258</ele>
  <time>2011-10-15T07:11:29Z</time>
  <speed>5.820000</speed>
</trkpt>
<trkpt lat="32.992546082" lon="35.506401062">
  <ele>832.317383</ele>
  <time>2011-10-15T07:11:30Z</time>
  <speed>5.760000</speed>
</trkpt>
<trkpt lat="32.992591858" lon="35.506435394">
  <ele>832.754883</ele>
  <time>2011-10-15T07:11:31Z</time>
  <speed>5.540000</speed>
</trkpt>
<trkpt lat="32.992637634" lon="35.506465912">
  <ele>833.192383</ele>
  <time>2011-10-15T07:11:32Z</time>
  <speed>5.470000</speed>
</trkpt>
<trkpt lat="32.992683411" lon="35.506492615">
  <ele>833.489258</ele>
  <time>2011-10-15T07:11:33Z</time>
  <speed>5.230000</speed>
</trkpt>
<trkpt lat="32.992721558" lon="35.506523132">
  <ele>833.911133</ele>
  <time>2011-10-15T07:11:34Z</time>
  <speed>4.790000</speed>
</trkpt>
<trkpt lat="32.992759705" lon="35.506546021">
  <ele>834.333008</ele>
  <time>2011-10-15T07:11:35Z</time>
  <speed>4.280000</speed>
</trkpt>
<trkpt lat="32.992797852" lon="35.506565094">
  <ele>835.708008</ele>
  <time>2011-10-15T07:11:36Z</time>
  <speed>3.740000</speed>
</trkpt>
<trkpt lat="32.992832184" lon="35.506580353">
  <ele>836.270508</ele>
  <time>2011-10-15T07:11:37Z</time>
  <speed>3.630000</speed>
</trkpt>
<trkpt lat="32.992855072" lon="35.506614685">
  <ele>836.286133</ele>
  <time>2011-10-15T07:11:39Z</time>
  <speed>3.090000</speed>
</trkpt>
<trkpt lat="32.992893219" lon="35.506660461">
  <ele>836.161133</ele>
  <time>2011-10-15T07:11:41Z</time>
  <speed>3.400000</speed>
</trkpt>
<trkpt lat="32.992919922" lon="35.506687164">
  <ele>836.739258</ele>
  <time>2011-10-15T07:11:42Z</time>
  <speed>3.660000</speed>
</trkpt>
<trkpt lat="32.992954254" lon="35.506713867">
  <ele>837.458008</ele>
  <time>2011-10-15T07:11:43Z</time>
  <speed>4.120000</speed>
</trkpt>
<trkpt lat="32.992984772" lon="35.506740570">
  <ele>837.317383</ele>
  <time>2011-10-15T07:11:44Z</time>
  <speed>4.500000</speed>
</trkpt>
<trkpt lat="32.993019104" lon="35.506771088">
  <ele>837.504883</ele>
  <time>2011-10-15T07:11:45Z</time>
  <speed>4.650000</speed>
</trkpt>
<trkpt lat="32.993057251" lon="35.506797791">
  <ele>837.848633</ele>
  <time>2011-10-15T07:11:46Z</time>
  <speed>4.810000</speed>
</trkpt>
<trkpt lat="32.993087769" lon="35.506835938">
  <ele>837.411133</ele>
  <time>2011-10-15T07:11:47Z</time>
  <speed>4.890000</speed>
</trkpt>
<trkpt lat="32.993099213" lon="35.506870270">
  <ele>836.379883</ele>
  <time>2011-10-15T07:11:48Z</time>
  <speed>4.180000</speed>
</trkpt>
<trkpt lat="32.993118286" lon="35.506908417">
  <ele>835.864258</ele>
  <time>2011-10-15T07:11:49Z</time>
  <speed>4.530000</speed>
</trkpt>
<trkpt lat="32.993129730" lon="35.506950378">
  <ele>835.348633</ele>
  <time>2011-10-15T07:11:50Z</time>
  <speed>4.180000</speed>
</trkpt>
<trkpt lat="32.993144989" lon="35.506996155">
  <ele>834.739258</ele>
  <time>2011-10-15T07:11:51Z</time>
  <speed>4.020000</speed>
</trkpt>
<trkpt lat="32.993152618" lon="35.507041931">
  <ele>834.067383</ele>
  <time>2011-10-15T07:11:52Z</time>
  <speed>3.920000</speed>
</trkpt>
<trkpt lat="32.993160248" lon="35.507083893">
  <ele>833.567383</ele>
  <time>2011-10-15T07:11:53Z</time>
  <speed>4.220000</speed>
</trkpt>
<trkpt lat="32.993148804" lon="35.507125854">
  <ele>831.770508</ele>
  <time>2011-10-15T07:11:54Z</time>
  <speed>4.350000</speed>
</trkpt>
<trkpt lat="32.993137360" lon="35.507171631">
  <ele>829.754883</ele>
  <time>2011-10-15T07:11:55Z</time>
  <speed>4.460000</speed>
</trkpt>
<trkpt lat="32.993133545" lon="35.507221222">
  <ele>829.583008</ele>
  <time>2011-10-15T07:11:56Z</time>
  <speed>4.020000</speed>
</trkpt>
<trkpt lat="32.993125916" lon="35.507255554">
  <ele>828.379883</ele>
  <time>2011-10-15T07:11:57Z</time>
  <speed>3.340000</speed>
</trkpt>
<trkpt lat="32.993118286" lon="35.507289886">
  <ele>827.645508</ele>
  <time>2011-10-15T07:11:58Z</time>
  <speed>3.430000</speed>
</trkpt>
<trkpt lat="32.993110657" lon="35.507335663">
  <ele>827.317383</ele>
  <time>2011-10-15T07:11:59Z</time>
  <speed>3.770000</speed>
</trkpt>
<trkpt lat="32.993118286" lon="35.507381439">
  <ele>827.348633</ele>
  <time>2011-10-15T07:12:00Z</time>
  <speed>4.080000</speed>
</trkpt>
<trkpt lat="32.993129730" lon="35.507431030">
  <ele>826.879883</ele>
  <time>2011-10-15T07:12:01Z</time>
  <speed>4.690000</speed>
</trkpt>
<trkpt lat="32.993137360" lon="35.507480621">
  <ele>825.629883</ele>
  <time>2011-10-15T07:12:02Z</time>
  <speed>5.130000</speed>
</trkpt>
<trkpt lat="32.993148804" lon="35.507541656">
  <ele>825.036133</ele>
  <time>2011-10-15T07:12:03Z</time>
  <speed>5.530000</speed>
</trkpt>
<trkpt lat="32.993160248" lon="35.507602692">
  <ele>825.036133</ele>
  <time>2011-10-15T07:12:04Z</time>
  <speed>5.940000</speed>
</trkpt>
<trkpt lat="32.993175507" lon="35.507675171">
  <ele>824.145508</ele>
  <time>2011-10-15T07:12:05Z</time>
  <speed>6.530000</speed>
</trkpt>
<trkpt lat="32.993206024" lon="35.507743835">
  <ele>823.348633</ele>
  <time>2011-10-15T07:12:06Z</time>
  <speed>7.620000</speed>
</trkpt>
<trkpt lat="32.993225098" lon="35.507820129">
  <ele>821.989258</ele>
  <time>2011-10-15T07:12:07Z</time>
  <speed>7.980000</speed>
</trkpt>
<trkpt lat="32.993259430" lon="35.507892609">
  <ele>822.426758</ele>
  <time>2011-10-15T07:12:08Z</time>
  <speed>8.380000</speed>
</trkpt>
<trkpt lat="32.993293762" lon="35.507968903">
  <ele>822.426758</ele>
  <time>2011-10-15T07:12:09Z</time>
  <speed>8.210000</speed>
</trkpt>
<trkpt lat="32.993347168" lon="35.508041382">
  <ele>822.864258</ele>
  <time>2011-10-15T07:12:10Z</time>
  <speed>8.100000</speed>
</trkpt>
<trkpt lat="32.993400574" lon="35.508106232">
  <ele>823.645508</ele>
  <time>2011-10-15T07:12:11Z</time>
  <speed>8.110000</speed>
</trkpt>
<trkpt lat="32.993457794" lon="35.508171082">
  <ele>824.098633</ele>
  <time>2011-10-15T07:12:12Z</time>
  <speed>8.310000</speed>
</trkpt>
<trkpt lat="32.993518829" lon="35.508228302">
  <ele>824.411133</ele>
  <time>2011-10-15T07:12:13Z</time>
  <speed>8.190000</speed>
</trkpt>
<trkpt lat="32.993572235" lon="35.508277893">
  <ele>824.036133</ele>
  <time>2011-10-15T07:12:14Z</time>
  <speed>7.720000</speed>
</trkpt>
<trkpt lat="32.993629456" lon="35.508331299">
  <ele>823.411133</ele>
  <time>2011-10-15T07:12:15Z</time>
  <speed>7.530000</speed>
</trkpt>
<trkpt lat="32.993675232" lon="35.508380890">
  <ele>823.176758</ele>
  <time>2011-10-15T07:12:16Z</time>
  <speed>6.580000</speed>
</trkpt>
<trkpt lat="32.993698120" lon="35.508438110">
  <ele>822.848633</ele>
  <time>2011-10-15T07:12:17Z</time>
  <speed>6.010000</speed>
</trkpt>
<trkpt lat="32.993698120" lon="35.508491516">
  <ele>822.692383</ele>
  <time>2011-10-15T07:12:18Z</time>
  <speed>4.680000</speed>
</trkpt>
<trkpt lat="32.993690491" lon="35.508533478">
  <ele>822.426758</ele>
  <time>2011-10-15T07:12:19Z</time>
  <speed>4.040000</speed>
</trkpt>
<trkpt lat="32.993679047" lon="35.508563995">
  <ele>821.942383</ele>
  <time>2011-10-15T07:12:20Z</time>
  <speed>3.430000</speed>
</trkpt>
<trkpt lat="32.993659973" lon="35.508594513">
  <ele>821.770508</ele>
  <time>2011-10-15T07:12:21Z</time>
  <speed>3.310000</speed>
</trkpt>
<trkpt lat="32.993637085" lon="35.508632660">
  <ele>821.176758</ele>
  <time>2011-10-15T07:12:22Z</time>
  <speed>3.920000</speed>
</trkpt>
<trkpt lat="32.993610382" lon="35.508663177">
  <ele>820.833008</ele>
  <time>2011-10-15T07:12:23Z</time>
  <speed>3.720000</speed>
</trkpt>
<trkpt lat="32.993591309" lon="35.508689880">
  <ele>820.442383</ele>
  <time>2011-10-15T07:12:24Z</time>
  <speed>3.450000</speed>
</trkpt>
<trkpt lat="32.993560791" lon="35.508720398">
  <ele>819.911133</ele>
  <time>2011-10-15T07:12:25Z</time>
  <speed>3.840000</speed>
</trkpt>
<trkpt lat="32.993530273" lon="35.508750916">
  <ele>819.395508</ele>
  <time>2011-10-15T07:12:26Z</time>
  <speed>4.010000</speed>
</trkpt>
<trkpt lat="32.993495941" lon="35.508785248">
  <ele>818.692383</ele>
  <time>2011-10-15T07:12:27Z</time>
  <speed>4.480000</speed>
</trkpt>
<trkpt lat="32.993465424" lon="35.508819580">
  <ele>818.083008</ele>
  <time>2011-10-15T07:12:28Z</time>
  <speed>4.340000</speed>
</trkpt>
<trkpt lat="32.993438721" lon="35.508853912">
  <ele>817.598633</ele>
  <time>2011-10-15T07:12:29Z</time>
  <speed>4.890000</speed>
</trkpt>
<trkpt lat="32.993404388" lon="35.508888245">
  <ele>817.333008</ele>
  <time>2011-10-15T07:12:30Z</time>
  <speed>4.620000</speed>
</trkpt>
<trkpt lat="32.993362427" lon="35.508922577">
  <ele>816.801758</ele>
  <time>2011-10-15T07:12:31Z</time>
  <speed>4.900000</speed>
</trkpt>
<trkpt lat="32.993320465" lon="35.508956909">
  <ele>816.645508</ele>
  <time>2011-10-15T07:12:32Z</time>
  <speed>5.500000</speed>
</trkpt>
<trkpt lat="32.993274689" lon="35.508991241">
  <ele>816.286133</ele>
  <time>2011-10-15T07:12:33Z</time>
  <speed>5.150000</speed>
</trkpt>
<trkpt lat="32.993228912" lon="35.509021759">
  <ele>815.895508</ele>
  <time>2011-10-15T07:12:34Z</time>
  <speed>5.340000</speed>
</trkpt>
<trkpt lat="32.993179321" lon="35.509052277">
  <ele>815.911133</ele>
  <time>2011-10-15T07:12:35Z</time>
  <speed>5.400000</speed>
</trkpt>
<trkpt lat="32.993141174" lon="35.509086609">
  <ele>815.911133</ele>
  <time>2011-10-15T07:12:36Z</time>
  <speed>5.040000</speed>
</trkpt>
<trkpt lat="32.993103027" lon="35.509120941">
  <ele>815.458008</ele>
  <time>2011-10-15T07:12:37Z</time>
  <speed>5.090000</speed>
</trkpt>
<trkpt lat="32.993053436" lon="35.509166718">
  <ele>815.270508</ele>
  <time>2011-10-15T07:12:38Z</time>
  <speed>5.250000</speed>
</trkpt>
<trkpt lat="32.993015289" lon="35.509204865">
  <ele>814.708008</ele>
  <time>2011-10-15T07:12:39Z</time>
  <speed>5.560000</speed>
</trkpt>
<trkpt lat="32.992973328" lon="35.509250641">
  <ele>814.817383</ele>
  <time>2011-10-15T07:12:40Z</time>
  <speed>5.430000</speed>
</trkpt>
<trkpt lat="32.992927551" lon="35.509300232">
  <ele>814.301758</ele>
  <time>2011-10-15T07:12:41Z</time>
  <speed>5.490000</speed>
</trkpt>
<trkpt lat="32.992893219" lon="35.509368896">
  <ele>814.645508</ele>
  <time>2011-10-15T07:12:42Z</time>
  <speed>5.210000</speed>
</trkpt>
<trkpt lat="32.992866516" lon="35.509410858">
  <ele>814.379883</ele>
  <time>2011-10-15T07:12:43Z</time>
  <speed>4.950000</speed>
</trkpt>
<trkpt lat="32.992839813" lon="35.509452820">
  <ele>814.239258</ele>
  <time>2011-10-15T07:12:44Z</time>
  <speed>4.150000</speed>
</trkpt>
<trkpt lat="32.992824554" lon="35.509483337">
  <ele>814.020508</ele>
  <time>2011-10-15T07:12:45Z</time>
  <speed>3.630000</speed>
</trkpt>
<trkpt lat="32.992801666" lon="35.509510040">
  <ele>813.926758</ele>
  <time>2011-10-15T07:12:46Z</time>
  <speed>2.300000</speed>
</trkpt>
<trkpt lat="32.992771149" lon="35.509555817">
  <ele>813.379883</ele>
  <time>2011-10-15T07:12:48Z</time>
  <speed>3.500000</speed>
</trkpt>
<trkpt lat="32.992752075" lon="35.509582520">
  <ele>813.536133</ele>
  <time>2011-10-15T07:12:49Z</time>
  <speed>3.510000</speed>
</trkpt>
<trkpt lat="32.992736816" lon="35.509616852">
  <ele>813.567383</ele>
  <time>2011-10-15T07:12:50Z</time>
  <speed>2.950000</speed>
</trkpt>
<trkpt lat="32.992706299" lon="35.509674072">
  <ele>813.754883</ele>
  <time>2011-10-15T07:12:52Z</time>
  <speed>2.840000</speed>
</trkpt>
<trkpt lat="32.992698669" lon="35.509704590">
  <ele>813.458008</ele>
  <time>2011-10-15T07:12:53Z</time>
  <speed>2.840000</speed>
</trkpt>
<trkpt lat="32.992683411" lon="35.509742737">
  <ele>813.395508</ele>
  <time>2011-10-15T07:12:54Z</time>
  <speed>3.460000</speed>
</trkpt>
<trkpt lat="32.992671967" lon="35.509780884">
  <ele>813.442383</ele>
  <time>2011-10-15T07:12:55Z</time>
  <speed>3.520000</speed>
</trkpt>
<trkpt lat="32.992656708" lon="35.509807587">
  <ele>813.004883</ele>
  <time>2011-10-15T07:12:56Z</time>
  <speed>2.510000</speed>
</trkpt>
<trkpt lat="32.992645264" lon="35.509845734">
  <ele>812.989258</ele>
  <time>2011-10-15T07:12:57Z</time>
  <speed>2.580000</speed>
</trkpt>
<trkpt lat="32.992618561" lon="35.509895325">
  <ele>812.833008</ele>
  <time>2011-10-15T07:12:59Z</time>
  <speed>2.410000</speed>
</trkpt>
<trkpt lat="32.992584229" lon="35.509944916">
  <ele>812.489258</ele>
  <time>2011-10-15T07:13:01Z</time>
  <speed>3.110000</speed>
</trkpt>
<trkpt lat="32.992572784" lon="35.509975433">
  <ele>812.754883</ele>
  <time>2011-10-15T07:13:02Z</time>
  <speed>3.390000</speed>
</trkpt>
<trkpt lat="32.992565155" lon="35.510013580">
  <ele>813.020508</ele>
  <time>2011-10-15T07:13:03Z</time>
  <speed>3.300000</speed>
</trkpt>
<trkpt lat="32.992561340" lon="35.510055542">
  <ele>812.958008</ele>
  <time>2011-10-15T07:13:04Z</time>
  <speed>3.640000</speed>
</trkpt>
<trkpt lat="32.992538452" lon="35.510120392">
  <ele>813.020508</ele>
  <time>2011-10-15T07:13:06Z</time>
  <speed>2.900000</speed>
</trkpt>
<trkpt lat="32.992530823" lon="35.510154724">
  <ele>813.426758</ele>
  <time>2011-10-15T07:13:07Z</time>
  <speed>4.160000</speed>
</trkpt>
<trkpt lat="32.992515564" lon="35.510200500">
  <ele>813.458008</ele>
  <time>2011-10-15T07:13:08Z</time>
  <speed>4.620000</speed>
</trkpt>
<trkpt lat="32.992504120" lon="35.510246277">
  <ele>813.551758</ele>
  <time>2011-10-15T07:13:09Z</time>
  <speed>4.260000</speed>
</trkpt>
<trkpt lat="32.992500305" lon="35.510322571">
  <ele>816.317383</ele>
  <time>2011-10-15T07:13:10Z</time>
  <speed>3.980000</speed>
</trkpt>
<trkpt lat="32.992504120" lon="35.510379791">
  <ele>817.504883</ele>
  <time>2011-10-15T07:13:11Z</time>
  <speed>4.420000</speed>
</trkpt>
<trkpt lat="32.992504120" lon="35.510425568">
  <ele>817.676758</ele>
  <time>2011-10-15T07:13:12Z</time>
  <speed>4.270000</speed>
</trkpt>
<trkpt lat="32.992511749" lon="35.510486603">
  <ele>818.004883</ele>
  <time>2011-10-15T07:13:13Z</time>
  <speed>5.050000</speed>
</trkpt>
<trkpt lat="32.992511749" lon="35.510536194">
  <ele>817.879883</ele>
  <time>2011-10-15T07:13:14Z</time>
  <speed>4.600000</speed>
</trkpt>
<trkpt lat="32.992504120" lon="35.510581970">
  <ele>817.661133</ele>
  <time>2011-10-15T07:13:15Z</time>
  <speed>4.480000</speed>
</trkpt>
<trkpt lat="32.992496490" lon="35.510627747">
  <ele>817.801758</ele>
  <time>2011-10-15T07:13:16Z</time>
  <speed>4.150000</speed>
</trkpt>
<trkpt lat="32.992488861" lon="35.510665894">
  <ele>818.020508</ele>
  <time>2011-10-15T07:13:17Z</time>
  <speed>3.630000</speed>
</trkpt>
<trkpt lat="32.992481232" lon="35.510700226">
  <ele>818.223633</ele>
  <time>2011-10-15T07:13:18Z</time>
  <speed>3.130000</speed>
</trkpt>
<trkpt lat="32.992477417" lon="35.510734558">
  <ele>818.051758</ele>
  <time>2011-10-15T07:13:19Z</time>
  <speed>3.680000</speed>
</trkpt>
<trkpt lat="32.992465973" lon="35.510765076">
  <ele>818.083008</ele>
  <time>2011-10-15T07:13:20Z</time>
  <speed>3.310000</speed>
</trkpt>
<trkpt lat="32.992450714" lon="35.510810852">
  <ele>818.192383</ele>
  <time>2011-10-15T07:13:21Z</time>
  <speed>4.660000</speed>
</trkpt>
<trkpt lat="32.992435455" lon="35.510852814">
  <ele>818.317383</ele>
  <time>2011-10-15T07:13:22Z</time>
  <speed>3.750000</speed>
</trkpt>
<trkpt lat="32.992404938" lon="35.510898590">
  <ele>818.723633</ele>
  <time>2011-10-15T07:13:23Z</time>
  <speed>4.740000</speed>
</trkpt>
<trkpt lat="32.992378235" lon="35.510944366">
  <ele>818.817383</ele>
  <time>2011-10-15T07:13:24Z</time>
  <speed>4.850000</speed>
</trkpt>
<trkpt lat="32.992351532" lon="35.510978699">
  <ele>818.848633</ele>
  <time>2011-10-15T07:13:25Z</time>
  <speed>3.870000</speed>
</trkpt>
<trkpt lat="32.992336273" lon="35.511016846">
  <ele>818.614258</ele>
  <time>2011-10-15T07:13:26Z</time>
  <speed>3.400000</speed>
</trkpt>
<trkpt lat="32.992321014" lon="35.511054993">
  <ele>818.661133</ele>
  <time>2011-10-15T07:13:27Z</time>
  <speed>3.140000</speed>
</trkpt>
<trkpt lat="32.992301941" lon="35.511089325">
  <ele>818.770508</ele>
  <time>2011-10-15T07:13:28Z</time>
  <speed>3.780000</speed>
</trkpt>
<trkpt lat="32.992286682" lon="35.511123657">
  <ele>818.520508</ele>
  <time>2011-10-15T07:13:29Z</time>
  <speed>2.970000</speed>
</trkpt>
<trkpt lat="32.992279053" lon="35.511199951">
  <ele>818.442383</ele>
  <time>2011-10-15T07:13:31Z</time>
  <speed>3.130000</speed>
</trkpt>
<trkpt lat="32.992263794" lon="35.511241913">
  <ele>818.379883</ele>
  <time>2011-10-15T07:13:32Z</time>
  <speed>3.440000</speed>
</trkpt>
<trkpt lat="32.992248535" lon="35.511283875">
  <ele>818.270508</ele>
  <time>2011-10-15T07:13:33Z</time>
  <speed>3.460000</speed>
</trkpt>
<trkpt lat="32.992252350" lon="35.511356354">
  <ele>817.348633</ele>
  <time>2011-10-15T07:13:34Z</time>
  <speed>5.120000</speed>
</trkpt>
<trkpt lat="32.992259979" lon="35.511428833">
  <ele>817.176758</ele>
  <time>2011-10-15T07:13:35Z</time>
  <speed>5.560000</speed>
</trkpt>
<trkpt lat="32.992252350" lon="35.511497498">
  <ele>817.270508</ele>
  <time>2011-10-15T07:13:36Z</time>
  <speed>5.680000</speed>
</trkpt>
<trkpt lat="32.992229462" lon="35.511566162">
  <ele>816.817383</ele>
  <time>2011-10-15T07:13:37Z</time>
  <speed>5.310000</speed>
</trkpt>
<trkpt lat="32.992225647" lon="35.511627197">
  <ele>816.473633</ele>
  <time>2011-10-15T07:13:38Z</time>
  <speed>4.520000</speed>
</trkpt>
<trkpt lat="32.992221832" lon="35.511676788">
  <ele>816.395508</ele>
  <time>2011-10-15T07:13:39Z</time>
  <speed>3.840000</speed>
</trkpt>
<trkpt lat="32.992218018" lon="35.511726379">
  <ele>816.161133</ele>
  <time>2011-10-15T07:13:40Z</time>
  <speed>3.350000</speed>
</trkpt>
<trkpt lat="32.992221832" lon="35.511768341">
  <ele>815.708008</ele>
  <time>2011-10-15T07:13:41Z</time>
  <speed>3.210000</speed>
</trkpt>
<trkpt lat="32.992210388" lon="35.511806488">
  <ele>815.286133</ele>
  <time>2011-10-15T07:13:42Z</time>
  <speed>2.880000</speed>
</trkpt>
<trkpt lat="32.992214203" lon="35.511848450">
  <ele>815.176758</ele>
  <time>2011-10-15T07:13:43Z</time>
  <speed>3.270000</speed>
</trkpt>
<trkpt lat="32.992210388" lon="35.511894226">
  <ele>814.833008</ele>
  <time>2011-10-15T07:13:44Z</time>
  <speed>3.950000</speed>
</trkpt>
<trkpt lat="32.992198944" lon="35.511932373">
  <ele>814.598633</ele>
  <time>2011-10-15T07:13:45Z</time>
  <speed>3.840000</speed>
</trkpt>
<trkpt lat="32.992187500" lon="35.511978149">
  <ele>814.926758</ele>
  <time>2011-10-15T07:13:46Z</time>
  <speed>3.780000</speed>
</trkpt>
<trkpt lat="32.992183685" lon="35.512039185">
  <ele>817.473633</ele>
  <time>2011-10-15T07:13:47Z</time>
  <speed>3.950000</speed>
</trkpt>
<trkpt lat="32.992183685" lon="35.512081146">
  <ele>819.379883</ele>
  <time>2011-10-15T07:13:48Z</time>
  <speed>3.980000</speed>
</trkpt>
<trkpt lat="32.992176056" lon="35.512134552">
  <ele>820.020508</ele>
  <time>2011-10-15T07:13:49Z</time>
  <speed>4.130000</speed>
</trkpt>
<trkpt lat="32.992176056" lon="35.512184143">
  <ele>821.629883</ele>
  <time>2011-10-15T07:13:50Z</time>
  <speed>3.870000</speed>
</trkpt>
<trkpt lat="32.992183685" lon="35.512226105">
  <ele>823.051758</ele>
  <time>2011-10-15T07:13:51Z</time>
  <speed>3.760000</speed>
</trkpt>
<trkpt lat="32.992191315" lon="35.512271881">
  <ele>823.973633</ele>
  <time>2011-10-15T07:13:52Z</time>
  <speed>3.010000</speed>
</trkpt>
<trkpt lat="32.992198944" lon="35.512306213">
  <ele>824.223633</ele>
  <time>2011-10-15T07:13:53Z</time>
  <speed>2.920000</speed>
</trkpt>
<trkpt lat="32.992229462" lon="35.512355804">
  <ele>824.739258</ele>
  <time>2011-10-15T07:13:55Z</time>
  <speed>2.520000</speed>
</trkpt>
<trkpt lat="32.992271423" lon="35.512378693">
  <ele>824.583008</ele>
  <time>2011-10-15T07:13:58Z</time>
  <speed>2.180000</speed>
</trkpt>
<trkpt lat="32.992298126" lon="35.512390137">
  <ele>824.926758</ele>
  <time>2011-10-15T07:13:59Z</time>
  <speed>3.030000</speed>
</trkpt>
<trkpt lat="32.992328644" lon="35.512405396">
  <ele>824.973633</ele>
  <time>2011-10-15T07:14:00Z</time>
  <speed>4.130000</speed>
</trkpt>
<trkpt lat="32.992382050" lon="35.512413025">
  <ele>825.629883</ele>
  <time>2011-10-15T07:14:01Z</time>
  <speed>4.780000</speed>
</trkpt>
<trkpt lat="32.992427826" lon="35.512420654">
  <ele>825.473633</ele>
  <time>2011-10-15T07:14:02Z</time>
  <speed>4.380000</speed>
</trkpt>
<trkpt lat="32.992469788" lon="35.512424469">
  <ele>825.379883</ele>
  <time>2011-10-15T07:14:03Z</time>
  <speed>4.800000</speed>
</trkpt>
<trkpt lat="32.992515564" lon="35.512428284">
  <ele>825.426758</ele>
  <time>2011-10-15T07:14:04Z</time>
  <speed>4.650000</speed>
</trkpt>
<trkpt lat="32.992553711" lon="35.512439728">
  <ele>825.348633</ele>
  <time>2011-10-15T07:14:05Z</time>
  <speed>4.360000</speed>
</trkpt>
<trkpt lat="32.992607117" lon="35.512443542">
  <ele>826.426758</ele>
  <time>2011-10-15T07:14:06Z</time>
  <speed>4.200000</speed>
</trkpt>
<trkpt lat="32.992645264" lon="35.512447357">
  <ele>826.239258</ele>
  <time>2011-10-15T07:14:07Z</time>
  <speed>3.990000</speed>
</trkpt>
<trkpt lat="32.992679596" lon="35.512443542">
  <ele>826.379883</ele>
  <time>2011-10-15T07:14:08Z</time>
  <speed>3.000000</speed>
</trkpt>
<trkpt lat="32.992736816" lon="35.512416840">
  <ele>826.036133</ele>
  <time>2011-10-15T07:14:10Z</time>
  <speed>2.670000</speed>
</trkpt>
<trkpt lat="32.992771149" lon="35.512409210">
  <ele>825.801758</ele>
  <time>2011-10-15T07:14:11Z</time>
  <speed>2.610000</speed>
</trkpt>
<trkpt lat="32.992816925" lon="35.512378693">
  <ele>825.442383</ele>
  <time>2011-10-15T07:14:13Z</time>
  <speed>2.880000</speed>
</trkpt>
<trkpt lat="32.992858887" lon="35.512359619">
  <ele>824.864258</ele>
  <time>2011-10-15T07:14:15Z</time>
  <speed>1.840000</speed>
</trkpt>
<trkpt lat="32.992885590" lon="35.512340546">
  <ele>824.458008</ele>
  <time>2011-10-15T07:14:51Z</time>
  <speed>2.080000</speed>
</trkpt>
<trkpt lat="32.992908478" lon="35.512321472">
  <ele>824.036133</ele>
  <time>2011-10-15T07:14:52Z</time>
  <speed>2.710000</speed>
</trkpt>
<trkpt lat="32.992946625" lon="35.512290955">
  <ele>824.317383</ele>
  <time>2011-10-15T07:14:54Z</time>
  <speed>2.620000</speed>
</trkpt>
<trkpt lat="32.992973328" lon="35.512256622">
  <ele>823.661133</ele>
  <time>2011-10-15T07:14:55Z</time>
  <speed>4.350000</speed>
</trkpt>
<trkpt lat="32.993007660" lon="35.512214661">
  <ele>823.723633</ele>
  <time>2011-10-15T07:14:56Z</time>
  <speed>5.220000</speed>
</trkpt>
<trkpt lat="32.993038177" lon="35.512168884">
  <ele>823.879883</ele>
  <time>2011-10-15T07:14:57Z</time>
  <speed>5.520000</speed>
</trkpt>
<trkpt lat="32.993076324" lon="35.512126923">
  <ele>823.973633</ele>
  <time>2011-10-15T07:14:58Z</time>
  <speed>5.740000</speed>
</trkpt>
<trkpt lat="32.993110657" lon="35.512077332">
  <ele>824.083008</ele>
  <time>2011-10-15T07:14:59Z</time>
  <speed>6.520000</speed>
</trkpt>
<trkpt lat="32.993160248" lon="35.512027740">
  <ele>823.723633</ele>
  <time>2011-10-15T07:15:00Z</time>
  <speed>6.910000</speed>
</trkpt>
<trkpt lat="32.993209839" lon="35.511978149">
  <ele>823.583008</ele>
  <time>2011-10-15T07:15:01Z</time>
  <speed>6.970000</speed>
</trkpt>
<trkpt lat="32.993259430" lon="35.511882782">
  <ele>822.098633</ele>
  <time>2011-10-15T07:15:02Z</time>
  <speed>6.940000</speed>
</trkpt>
<trkpt lat="32.993293762" lon="35.511817932">
  <ele>821.536133</ele>
  <time>2011-10-15T07:15:03Z</time>
  <speed>6.260000</speed>
</trkpt>
<trkpt lat="32.993343353" lon="35.511772156">
  <ele>821.489258</ele>
  <time>2011-10-15T07:15:04Z</time>
  <speed>5.990000</speed>
</trkpt>
<trkpt lat="32.993392944" lon="35.511756897">
  <ele>821.348633</ele>
  <time>2011-10-15T07:15:05Z</time>
  <speed>5.230000</speed>
</trkpt>
<trkpt lat="32.993438721" lon="35.511741638">
  <ele>821.161133</ele>
  <time>2011-10-15T07:15:06Z</time>
  <speed>4.930000</speed>
</trkpt>
<trkpt lat="32.993488312" lon="35.511718750">
  <ele>820.317383</ele>
  <time>2011-10-15T07:15:07Z</time>
  <speed>4.440000</speed>
</trkpt>
<trkpt lat="32.993541718" lon="35.511707306">
  <ele>819.426758</ele>
  <time>2011-10-15T07:15:08Z</time>
  <speed>4.120000</speed>
</trkpt>
<trkpt lat="32.993579865" lon="35.511703491">
  <ele>819.004883</ele>
  <time>2011-10-15T07:15:09Z</time>
  <speed>4.090000</speed>
</trkpt>
<trkpt lat="32.993618011" lon="35.511703491">
  <ele>818.801758</ele>
  <time>2011-10-15T07:15:10Z</time>
  <speed>4.050000</speed>
</trkpt>
<trkpt lat="32.993659973" lon="35.511703491">
  <ele>817.958008</ele>
  <time>2011-10-15T07:15:11Z</time>
  <speed>4.080000</speed>
</trkpt>
<trkpt lat="32.993709564" lon="35.511703491">
  <ele>816.942383</ele>
  <time>2011-10-15T07:15:12Z</time>
  <speed>4.300000</speed>
</trkpt>
<trkpt lat="32.993747711" lon="35.511703491">
  <ele>816.208008</ele>
  <time>2011-10-15T07:15:13Z</time>
  <speed>4.400000</speed>
</trkpt>
<trkpt lat="32.993785858" lon="35.511711121">
  <ele>815.442383</ele>
  <time>2011-10-15T07:15:14Z</time>
  <speed>4.680000</speed>
</trkpt>
<trkpt lat="32.993824005" lon="35.511711121">
  <ele>814.489258</ele>
  <time>2011-10-15T07:15:15Z</time>
  <speed>5.030000</speed>
</trkpt>
<trkpt lat="32.993873596" lon="35.511707306">
  <ele>814.442383</ele>
  <time>2011-10-15T07:15:16Z</time>
  <speed>5.400000</speed>
</trkpt>
<trkpt lat="32.993915558" lon="35.511714935">
  <ele>812.926758</ele>
  <time>2011-10-15T07:15:17Z</time>
  <speed>4.360000</speed>
</trkpt>
<trkpt lat="32.993953705" lon="35.511726379">
  <ele>811.895508</ele>
  <time>2011-10-15T07:15:18Z</time>
  <speed>4.140000</speed>
</trkpt>
<trkpt lat="32.993991852" lon="35.511730194">
  <ele>811.129883</ele>
  <time>2011-10-15T07:15:19Z</time>
  <speed>4.000000</speed>
</trkpt>
<trkpt lat="32.994026184" lon="35.511737823">
  <ele>809.942383</ele>
  <time>2011-10-15T07:15:20Z</time>
  <speed>4.620000</speed>
</trkpt>
<trkpt lat="32.994068146" lon="35.511741638">
  <ele>809.254883</ele>
  <time>2011-10-15T07:15:21Z</time>
  <speed>4.420000</speed>
</trkpt>
<trkpt lat="32.994110107" lon="35.511749268">
  <ele>808.411133</ele>
  <time>2011-10-15T07:15:22Z</time>
  <speed>5.080000</speed>
</trkpt>
<trkpt lat="32.994159698" lon="35.511779785">
  <ele>806.833008</ele>
  <time>2011-10-15T07:15:23Z</time>
  <speed>5.250000</speed>
</trkpt>
<trkpt lat="32.994201660" lon="35.511787415">
  <ele>806.645508</ele>
  <time>2011-10-15T07:15:24Z</time>
  <speed>4.820000</speed>
</trkpt>
<trkpt lat="32.994247437" lon="35.511783600">
  <ele>806.629883</ele>
  <time>2011-10-15T07:15:25Z</time>
  <speed>4.640000</speed>
</trkpt>
<trkpt lat="32.994281769" lon="35.511798859">
  <ele>804.989258</ele>
  <time>2011-10-15T07:15:26Z</time>
  <speed>4.370000</speed>
</trkpt>
<trkpt lat="32.994323730" lon="35.511787415">
  <ele>807.223633</ele>
  <time>2011-10-15T07:15:27Z</time>
  <speed>4.070000</speed>
</trkpt>
<trkpt lat="32.994358063" lon="35.511791229">
  <ele>808.333008</ele>
  <time>2011-10-15T07:15:28Z</time>
  <speed>3.430000</speed>
</trkpt>
<trkpt lat="32.994388580" lon="35.511779785">
  <ele>809.645508</ele>
  <time>2011-10-15T07:15:29Z</time>
  <speed>3.520000</speed>
</trkpt>
<trkpt lat="32.994422913" lon="35.511791229">
  <ele>808.661133</ele>
  <time>2011-10-15T07:15:30Z</time>
  <speed>3.810000</speed>
</trkpt>
<trkpt lat="32.994457245" lon="35.511798859">
  <ele>809.020508</ele>
  <time>2011-10-15T07:15:31Z</time>
  <speed>3.590000</speed>
</trkpt>
<trkpt lat="32.994491577" lon="35.511745453">
  <ele>813.286133</ele>
  <time>2011-10-15T07:15:32Z</time>
  <speed>3.700000</speed>
</trkpt>
<trkpt lat="32.994533539" lon="35.511737823">
  <ele>813.989258</ele>
  <time>2011-10-15T07:15:33Z</time>
  <speed>4.000000</speed>
</trkpt>
<trkpt lat="32.994575500" lon="35.511730194">
  <ele>813.770508</ele>
  <time>2011-10-15T07:15:34Z</time>
  <speed>3.790000</speed>
</trkpt>
<trkpt lat="32.994609833" lon="35.511711121">
  <ele>815.598633</ele>
  <time>2011-10-15T07:15:35Z</time>
  <speed>3.950000</speed>
</trkpt>
<trkpt lat="32.994659424" lon="35.511722565">
  <ele>815.348633</ele>
  <time>2011-10-15T07:15:37Z</time>
  <speed>2.690000</speed>
</trkpt>
<trkpt lat="32.994716644" lon="35.511714935">
  <ele>814.239258</ele>
  <time>2011-10-15T07:15:39Z</time>
  <speed>2.980000</speed>
</trkpt>
<trkpt lat="32.994754791" lon="35.511711121">
  <ele>815.895508</ele>
  <time>2011-10-15T07:15:40Z</time>
  <speed>3.020000</speed>
</trkpt>
<trkpt lat="32.994789124" lon="35.511714935">
  <ele>814.786133</ele>
  <time>2011-10-15T07:15:41Z</time>
  <speed>3.750000</speed>
</trkpt>
<trkpt lat="32.994827271" lon="35.511718750">
  <ele>814.833008</ele>
  <time>2011-10-15T07:15:42Z</time>
  <speed>3.880000</speed>
</trkpt>
<trkpt lat="32.994869232" lon="35.511718750">
  <ele>816.223633</ele>
  <time>2011-10-15T07:15:43Z</time>
  <speed>4.330000</speed>
</trkpt>
<trkpt lat="32.994911194" lon="35.511722565">
  <ele>816.051758</ele>
  <time>2011-10-15T07:15:44Z</time>
  <speed>4.600000</speed>
</trkpt>
<trkpt lat="32.994953156" lon="35.511692047">
  <ele>820.489258</ele>
  <time>2011-10-15T07:15:45Z</time>
  <speed>4.240000</speed>
</trkpt>
<trkpt lat="32.994995117" lon="35.511695862">
  <ele>821.473633</ele>
  <time>2011-10-15T07:15:46Z</time>
  <speed>3.400000</speed>
</trkpt>
<trkpt lat="32.995021820" lon="35.511703491">
  <ele>821.614258</ele>
  <time>2011-10-15T07:15:47Z</time>
  <speed>2.900000</speed>
</trkpt>
<trkpt lat="32.995063782" lon="35.511707306">
  <ele>822.161133</ele>
  <time>2011-10-15T07:15:49Z</time>
  <speed>2.630000</speed>
</trkpt>
<trkpt lat="32.995086670" lon="35.511707306">
  <ele>823.317383</ele>
  <time>2011-10-15T07:15:50Z</time>
  <speed>2.900000</speed>
</trkpt>
<trkpt lat="32.995117188" lon="35.511703491">
  <ele>824.254883</ele>
  <time>2011-10-15T07:15:51Z</time>
  <speed>3.170000</speed>
</trkpt>
<trkpt lat="32.995147705" lon="35.511695862">
  <ele>824.504883</ele>
  <time>2011-10-15T07:15:52Z</time>
  <speed>2.960000</speed>
</trkpt>
<trkpt lat="32.995185852" lon="35.511692047">
  <ele>822.254883</ele>
  <time>2011-10-15T07:15:53Z</time>
  <speed>2.830000</speed>
</trkpt>
<trkpt lat="32.995216370" lon="35.511676788">
  <ele>820.504883</ele>
  <time>2011-10-15T07:15:54Z</time>
  <speed>2.370000</speed>
</trkpt>
<trkpt lat="32.995254517" lon="35.511650085">
  <ele>820.161133</ele>
  <time>2011-10-15T07:15:56Z</time>
  <speed>1.950000</speed>
</trkpt>
<trkpt lat="32.995288849" lon="35.511604309">
  <ele>822.520508</ele>
  <time>2011-10-15T07:15:58Z</time>
  <speed>2.200000</speed>
</trkpt>
<trkpt lat="32.995342255" lon="35.511589050">
  <ele>820.629883</ele>
  <time>2011-10-15T07:16:00Z</time>
  <speed>2.780000</speed>
</trkpt>
<trkpt lat="32.995368958" lon="35.511573792">
  <ele>818.129883</ele>
  <time>2011-10-15T07:16:01Z</time>
  <speed>2.770000</speed>
</trkpt>
<trkpt lat="32.995399475" lon="35.511535645">
  <ele>817.286133</ele>
  <time>2011-10-15T07:16:03Z</time>
  <speed>2.440000</speed>
</trkpt>
<trkpt lat="32.995422363" lon="35.511508942">
  <ele>816.426758</ele>
  <time>2011-10-15T07:16:04Z</time>
  <speed>2.210000</speed>
</trkpt>
<trkpt lat="32.995445251" lon="35.511463165">
  <ele>816.942383</ele>
  <time>2011-10-15T07:16:06Z</time>
  <speed>2.480000</speed>
</trkpt>
<trkpt lat="32.995464325" lon="35.511436462">
  <ele>817.301758</ele>
  <time>2011-10-15T07:16:07Z</time>
  <speed>2.740000</speed>
</trkpt>
<trkpt lat="32.995506287" lon="35.511398315">
  <ele>817.442383</ele>
  <time>2011-10-15T07:16:09Z</time>
  <speed>2.790000</speed>
</trkpt>
<trkpt lat="32.995529175" lon="35.511363983">
  <ele>818.489258</ele>
  <time>2011-10-15T07:16:10Z</time>
  <speed>3.530000</speed>
</trkpt>
<trkpt lat="32.995563507" lon="35.511341095">
  <ele>817.848633</ele>
  <time>2011-10-15T07:16:11Z</time>
  <speed>3.550000</speed>
</trkpt>
<trkpt lat="32.995590210" lon="35.511322021">
  <ele>817.129883</ele>
  <time>2011-10-15T07:16:12Z</time>
  <speed>3.600000</speed>
</trkpt>
<trkpt lat="32.995616913" lon="35.511310577">
  <ele>816.786133</ele>
  <time>2011-10-15T07:16:13Z</time>
  <speed>3.420000</speed>
</trkpt>
<trkpt lat="32.995647430" lon="35.511295319">
  <ele>816.208008</ele>
  <time>2011-10-15T07:16:14Z</time>
  <speed>3.850000</speed>
</trkpt>
<trkpt lat="32.995685577" lon="35.511280060">
  <ele>815.192383</ele>
  <time>2011-10-15T07:16:15Z</time>
  <speed>4.300000</speed>
</trkpt>
<trkpt lat="32.995719910" lon="35.511257172">
  <ele>814.348633</ele>
  <time>2011-10-15T07:16:16Z</time>
  <speed>4.350000</speed>
</trkpt>
<trkpt lat="32.995758057" lon="35.511245728">
  <ele>813.708008</ele>
  <time>2011-10-15T07:16:17Z</time>
  <speed>5.120000</speed>
</trkpt>
<trkpt lat="32.995803833" lon="35.511234283">
  <ele>813.129883</ele>
  <time>2011-10-15T07:16:18Z</time>
  <speed>4.840000</speed>
</trkpt>
<trkpt lat="32.995849609" lon="35.511230469">
  <ele>812.458008</ele>
  <time>2011-10-15T07:16:19Z</time>
  <speed>4.940000</speed>
</trkpt>
<trkpt lat="32.995891571" lon="35.511219025">
  <ele>812.426758</ele>
  <time>2011-10-15T07:16:20Z</time>
  <speed>5.130000</speed>
</trkpt>
<trkpt lat="32.995937347" lon="35.511215210">
  <ele>811.911133</ele>
  <time>2011-10-15T07:16:21Z</time>
  <speed>4.880000</speed>
</trkpt>
<trkpt lat="32.995979309" lon="35.511207581">
  <ele>812.161133</ele>
  <time>2011-10-15T07:16:22Z</time>
  <speed>4.440000</speed>
</trkpt>
<trkpt lat="32.996009827" lon="35.511177063">
  <ele>814.145508</ele>
  <time>2011-10-15T07:16:23Z</time>
  <speed>4.320000</speed>
</trkpt>
<trkpt lat="32.996047974" lon="35.511177063">
  <ele>814.301758</ele>
  <time>2011-10-15T07:16:24Z</time>
  <speed>4.100000</speed>
</trkpt>
<trkpt lat="32.996082306" lon="35.511169434">
  <ele>815.442383</ele>
  <time>2011-10-15T07:16:25Z</time>
  <speed>3.720000</speed>
</trkpt>
<trkpt lat="32.996112823" lon="35.511173248">
  <ele>816.442383</ele>
  <time>2011-10-15T07:16:26Z</time>
  <speed>3.550000</speed>
</trkpt>
<trkpt lat="32.996139526" lon="35.511180878">
  <ele>816.270508</ele>
  <time>2011-10-15T07:16:27Z</time>
  <speed>3.090000</speed>
</trkpt>
<trkpt lat="32.996170044" lon="35.511184692">
  <ele>815.004883</ele>
  <time>2011-10-15T07:16:28Z</time>
  <speed>3.240000</speed>
</trkpt>
<trkpt lat="32.996200562" lon="35.511188507">
  <ele>814.739258</ele>
  <time>2011-10-15T07:16:29Z</time>
  <speed>2.950000</speed>
</trkpt>
<trkpt lat="32.996223450" lon="35.511184692">
  <ele>816.192383</ele>
  <time>2011-10-15T07:16:30Z</time>
  <speed>3.070000</speed>
</trkpt>
<trkpt lat="32.996257782" lon="35.511188507">
  <ele>816.379883</ele>
  <time>2011-10-15T07:16:31Z</time>
  <speed>2.970000</speed>
</trkpt>
<trkpt lat="32.996284485" lon="35.511199951">
  <ele>815.770508</ele>
  <time>2011-10-15T07:16:32Z</time>
  <speed>2.850000</speed>
</trkpt>
<trkpt lat="32.996311188" lon="35.511192322">
  <ele>816.629883</ele>
  <time>2011-10-15T07:16:33Z</time>
  <speed>3.370000</speed>
</trkpt>
<trkpt lat="32.996341705" lon="35.511199951">
  <ele>816.192383</ele>
  <time>2011-10-15T07:16:34Z</time>
  <speed>3.350000</speed>
</trkpt>
<trkpt lat="32.996398926" lon="35.511222839">
  <ele>814.754883</ele>
  <time>2011-10-15T07:16:36Z</time>
  <speed>3.320000</speed>
</trkpt>
<trkpt lat="32.996429443" lon="35.511222839">
  <ele>815.176758</ele>
  <time>2011-10-15T07:16:37Z</time>
  <speed>3.400000</speed>
</trkpt>
<trkpt lat="32.996459961" lon="35.511234283">
  <ele>815.176758</ele>
  <time>2011-10-15T07:16:38Z</time>
  <speed>3.220000</speed>
</trkpt>
<trkpt lat="32.996490479" lon="35.511245728">
  <ele>814.989258</ele>
  <time>2011-10-15T07:16:39Z</time>
  <speed>3.190000</speed>
</trkpt>
<trkpt lat="32.996520996" lon="35.511257172">
  <ele>815.129883</ele>
  <time>2011-10-15T07:16:40Z</time>
  <speed>3.460000</speed>
</trkpt>
<trkpt lat="32.996555328" lon="35.511280060">
  <ele>814.145508</ele>
  <time>2011-10-15T07:16:41Z</time>
  <speed>3.640000</speed>
</trkpt>
<trkpt lat="32.996589661" lon="35.511291504">
  <ele>814.098633</ele>
  <time>2011-10-15T07:16:42Z</time>
  <speed>3.830000</speed>
</trkpt>
<trkpt lat="32.996620178" lon="35.511314392">
  <ele>813.567383</ele>
  <time>2011-10-15T07:16:43Z</time>
  <speed>3.510000</speed>
</trkpt>
<trkpt lat="32.996665955" lon="35.511337280">
  <ele>813.817383</ele>
  <time>2011-10-15T07:16:45Z</time>
  <speed>2.880000</speed>
</trkpt>
<trkpt lat="32.996711731" lon="35.511363983">
  <ele>813.676758</ele>
  <time>2011-10-15T07:16:47Z</time>
  <speed>2.750000</speed>
</trkpt>
<trkpt lat="32.996742249" lon="35.511383057">
  <ele>812.083008</ele>
  <time>2011-10-15T07:16:48Z</time>
  <speed>3.400000</speed>
</trkpt>
<trkpt lat="32.996765137" lon="35.511402130">
  <ele>811.379883</ele>
  <time>2011-10-15T07:16:49Z</time>
  <speed>3.410000</speed>
</trkpt>
<trkpt lat="32.996788025" lon="35.511432648">
  <ele>810.864258</ele>
  <time>2011-10-15T07:16:50Z</time>
  <speed>3.780000</speed>
</trkpt>
<trkpt lat="32.996818542" lon="35.511466980">
  <ele>810.176758</ele>
  <time>2011-10-15T07:16:51Z</time>
  <speed>3.810000</speed>
</trkpt>
<trkpt lat="32.996837616" lon="35.511501312">
  <ele>809.426758</ele>
  <time>2011-10-15T07:16:52Z</time>
  <speed>3.610000</speed>
</trkpt>
<trkpt lat="32.996860504" lon="35.511535645">
  <ele>808.739258</ele>
  <time>2011-10-15T07:16:53Z</time>
  <speed>3.520000</speed>
</trkpt>
<trkpt lat="32.996875763" lon="35.511569977">
  <ele>807.754883</ele>
  <time>2011-10-15T07:16:54Z</time>
  <speed>3.600000</speed>
</trkpt>
<trkpt lat="32.996898651" lon="35.511608124">
  <ele>807.129883</ele>
  <time>2011-10-15T07:16:55Z</time>
  <speed>3.390000</speed>
</trkpt>
<trkpt lat="32.996906281" lon="35.511646271">
  <ele>807.083008</ele>
  <time>2011-10-15T07:16:56Z</time>
  <speed>2.700000</speed>
</trkpt>
<trkpt lat="32.996917725" lon="35.511692047">
  <ele>807.426758</ele>
  <time>2011-10-15T07:16:58Z</time>
  <speed>1.270000</speed>
</trkpt>
<trkpt lat="32.996925354" lon="35.511722565">
  <ele>808.161133</ele>
  <time>2011-10-15T07:17:02Z</time>
  <speed>0.320000</speed>
</trkpt>
<trkpt lat="32.996921539" lon="35.511768341">
  <ele>807.895508</ele>
  <time>2011-10-15T07:17:06Z</time>
  <speed>2.450000</speed>
</trkpt>
<trkpt lat="32.996913910" lon="35.511814117">
  <ele>807.895508</ele>
  <time>2011-10-15T07:17:08Z</time>
  <speed>2.150000</speed>
</trkpt>
<trkpt lat="32.996902466" lon="35.511852264">
  <ele>807.551758</ele>
  <time>2011-10-15T07:17:10Z</time>
  <speed>2.300000</speed>
</trkpt>
<trkpt lat="32.996883392" lon="35.511920929">
  <ele>807.801758</ele>
  <time>2011-10-15T07:17:12Z</time>
  <speed>2.280000</speed>
</trkpt>
<trkpt lat="32.996852875" lon="35.511970520">
  <ele>807.270508</ele>
  <time>2011-10-15T07:17:14Z</time>
  <speed>3.130000</speed>
</trkpt>
<trkpt lat="32.996841431" lon="35.512004852">
  <ele>807.270508</ele>
  <time>2011-10-15T07:17:15Z</time>
  <speed>3.430000</speed>
</trkpt>
<trkpt lat="32.996818542" lon="35.512039185">
  <ele>807.098633</ele>
  <time>2011-10-15T07:17:16Z</time>
  <speed>3.720000</speed>
</trkpt>
<trkpt lat="32.996791840" lon="35.512065887">
  <ele>806.926758</ele>
  <time>2011-10-15T07:17:17Z</time>
  <speed>3.670000</speed>
</trkpt>
<trkpt lat="32.996772766" lon="35.512092590">
  <ele>806.458008</ele>
  <time>2011-10-15T07:17:18Z</time>
  <speed>3.630000</speed>
</trkpt>
<trkpt lat="32.996749878" lon="35.512115479">
  <ele>806.348633</ele>
  <time>2011-10-15T07:17:19Z</time>
  <speed>3.160000</speed>
</trkpt>
<trkpt lat="32.996723175" lon="35.512138367">
  <ele>805.942383</ele>
  <time>2011-10-15T07:17:20Z</time>
  <speed>3.520000</speed>
</trkpt>
<trkpt lat="32.996692657" lon="35.512161255">
  <ele>805.817383</ele>
  <time>2011-10-15T07:17:21Z</time>
  <speed>3.820000</speed>
</trkpt>
<trkpt lat="32.996658325" lon="35.512184143">
  <ele>805.426758</ele>
  <time>2011-10-15T07:17:22Z</time>
  <speed>4.390000</speed>
</trkpt>
<trkpt lat="32.996623993" lon="35.512218475">
  <ele>805.208008</ele>
  <time>2011-10-15T07:17:23Z</time>
  <speed>4.310000</speed>
</trkpt>
<trkpt lat="32.996585846" lon="35.512252808">
  <ele>804.989258</ele>
  <time>2011-10-15T07:17:24Z</time>
  <speed>5.420000</speed>
</trkpt>
<trkpt lat="32.996547699" lon="35.512287140">
  <ele>804.801758</ele>
  <time>2011-10-15T07:17:25Z</time>
  <speed>5.270000</speed>
</trkpt>
<trkpt lat="32.996505737" lon="35.512332916">
  <ele>804.473633</ele>
  <time>2011-10-15T07:17:26Z</time>
  <speed>5.500000</speed>
</trkpt>
<trkpt lat="32.996463776" lon="35.512378693">
  <ele>804.004883</ele>
  <time>2011-10-15T07:17:27Z</time>
  <speed>6.020000</speed>
</trkpt>
<trkpt lat="32.996421814" lon="35.512420654">
  <ele>803.661133</ele>
  <time>2011-10-15T07:17:28Z</time>
  <speed>5.270000</speed>
</trkpt>
<trkpt lat="32.996387482" lon="35.512470245">
  <ele>802.926758</ele>
  <time>2011-10-15T07:17:29Z</time>
  <speed>5.580000</speed>
</trkpt>
<trkpt lat="32.996349335" lon="35.512508392">
  <ele>802.442383</ele>
  <time>2011-10-15T07:17:30Z</time>
  <speed>5.270000</speed>
</trkpt>
<trkpt lat="32.996307373" lon="35.512550354">
  <ele>801.848633</ele>
  <time>2011-10-15T07:17:31Z</time>
  <speed>5.730000</speed>
</trkpt>
<trkpt lat="32.996265411" lon="35.512588501">
  <ele>801.489258</ele>
  <time>2011-10-15T07:17:32Z</time>
  <speed>5.360000</speed>
</trkpt>
<trkpt lat="32.996219635" lon="35.512634277">
  <ele>800.629883</ele>
  <time>2011-10-15T07:17:33Z</time>
  <speed>5.500000</speed>
</trkpt>
<trkpt lat="32.996170044" lon="35.512672424">
  <ele>800.176758</ele>
  <time>2011-10-15T07:17:34Z</time>
  <speed>6.160000</speed>
</trkpt>
<trkpt lat="32.996112823" lon="35.512710571">
  <ele>799.661133</ele>
  <time>2011-10-15T07:17:35Z</time>
  <speed>6.700000</speed>
</trkpt>
<trkpt lat="32.996055603" lon="35.512741089">
  <ele>799.239258</ele>
  <time>2011-10-15T07:17:36Z</time>
  <speed>6.590000</speed>
</trkpt>
<trkpt lat="32.995998383" lon="35.512775421">
  <ele>798.801758</ele>
  <time>2011-10-15T07:17:37Z</time>
  <speed>5.310000</speed>
</trkpt>
<trkpt lat="32.995956421" lon="35.512825012">
  <ele>798.051758</ele>
  <time>2011-10-15T07:17:38Z</time>
  <speed>5.230000</speed>
</trkpt>
<trkpt lat="32.995906830" lon="35.512859344">
  <ele>797.067383</ele>
  <time>2011-10-15T07:17:39Z</time>
  <speed>5.260000</speed>
</trkpt>
<trkpt lat="32.995857239" lon="35.512901306">
  <ele>796.598633</ele>
  <time>2011-10-15T07:17:40Z</time>
  <speed>5.860000</speed>
</trkpt>
<trkpt lat="32.995811462" lon="35.512939453">
  <ele>796.129883</ele>
  <time>2011-10-15T07:17:41Z</time>
  <speed>5.690000</speed>
</trkpt>
<trkpt lat="32.995765686" lon="35.512996674">
  <ele>795.426758</ele>
  <time>2011-10-15T07:17:42Z</time>
  <speed>6.030000</speed>
</trkpt>
<trkpt lat="32.995716095" lon="35.513050079">
  <ele>794.426758</ele>
  <time>2011-10-15T07:17:43Z</time>
  <speed>6.290000</speed>
</trkpt>
<trkpt lat="32.995689392" lon="35.513092041">
  <ele>793.926758</ele>
  <time>2011-10-15T07:17:44Z</time>
  <speed>5.310000</speed>
</trkpt>
<trkpt lat="32.995662689" lon="35.513137817">
  <ele>793.036133</ele>
  <time>2011-10-15T07:17:45Z</time>
  <speed>5.090000</speed>
</trkpt>
<trkpt lat="32.995628357" lon="35.513187408">
  <ele>792.176758</ele>
  <time>2011-10-15T07:17:46Z</time>
  <speed>5.350000</speed>
</trkpt>
<trkpt lat="32.995597839" lon="35.513229370">
  <ele>791.614258</ele>
  <time>2011-10-15T07:17:47Z</time>
  <speed>4.980000</speed>
</trkpt>
<trkpt lat="32.995567322" lon="35.513286591">
  <ele>791.036133</ele>
  <time>2011-10-15T07:17:48Z</time>
  <speed>4.590000</speed>
</trkpt>
<trkpt lat="32.995536804" lon="35.513404846">
  <ele>789.817383</ele>
  <time>2011-10-15T07:17:49Z</time>
  <speed>7.040000</speed>
</trkpt>
<trkpt lat="32.995525360" lon="35.513473511">
  <ele>788.645508</ele>
  <time>2011-10-15T07:17:50Z</time>
  <speed>5.860000</speed>
</trkpt>
<trkpt lat="32.995517731" lon="35.513549805">
  <ele>787.864258</ele>
  <time>2011-10-15T07:17:51Z</time>
  <speed>5.640000</speed>
</trkpt>
<trkpt lat="32.995521545" lon="35.513626099">
  <ele>786.911133</ele>
  <time>2011-10-15T07:17:52Z</time>
  <speed>5.760000</speed>
</trkpt>
<trkpt lat="32.995491028" lon="35.513839722">
  <ele>785.676758</ele>
  <time>2011-10-15T07:17:53Z</time>
  <speed>6.080000</speed>
</trkpt>
<trkpt lat="32.995498657" lon="35.513946533">
  <ele>784.786133</ele>
  <time>2011-10-15T07:17:54Z</time>
  <speed>5.650000</speed>
</trkpt>
<trkpt lat="32.995513916" lon="35.514057159">
  <ele>783.629883</ele>
  <time>2011-10-15T07:17:55Z</time>
  <speed>4.380000</speed>
</trkpt>
<trkpt lat="32.995544434" lon="35.514091492">
  <ele>782.489258</ele>
  <time>2011-10-15T07:17:56Z</time>
  <speed>3.910000</speed>
</trkpt>
<trkpt lat="32.995567322" lon="35.514125824">
  <ele>781.958008</ele>
  <time>2011-10-15T07:17:57Z</time>
  <speed>3.310000</speed>
</trkpt>
<trkpt lat="32.995578766" lon="35.514167786">
  <ele>781.614258</ele>
  <time>2011-10-15T07:17:58Z</time>
  <speed>3.020000</speed>
</trkpt>
<trkpt lat="32.995594025" lon="35.514205933">
  <ele>781.051758</ele>
  <time>2011-10-15T07:17:59Z</time>
  <speed>2.740000</speed>
</trkpt>
<trkpt lat="32.995609283" lon="35.514236450">
  <ele>781.442383</ele>
  <time>2011-10-15T07:18:00Z</time>
  <speed>2.770000</speed>
</trkpt>
<trkpt lat="32.995643616" lon="35.514324188">
  <ele>781.504883</ele>
  <time>2011-10-15T07:18:02Z</time>
  <speed>3.130000</speed>
</trkpt>
<trkpt lat="32.995632172" lon="35.514366150">
  <ele>780.864258</ele>
  <time>2011-10-15T07:18:03Z</time>
  <speed>4.330000</speed>
</trkpt>
<trkpt lat="32.995639801" lon="35.514427185">
  <ele>780.942383</ele>
  <time>2011-10-15T07:18:04Z</time>
  <speed>4.570000</speed>
</trkpt>
<trkpt lat="32.995655060" lon="35.514495850">
  <ele>780.364258</ele>
  <time>2011-10-15T07:18:05Z</time>
  <speed>5.150000</speed>
</trkpt>
<trkpt lat="32.995658875" lon="35.514564514">
  <ele>780.114258</ele>
  <time>2011-10-15T07:18:06Z</time>
  <speed>5.310000</speed>
</trkpt>
<trkpt lat="32.995651245" lon="35.514621735">
  <ele>779.770508</ele>
  <time>2011-10-15T07:18:07Z</time>
  <speed>4.840000</speed>
</trkpt>
<trkpt lat="32.995639801" lon="35.514678955">
  <ele>779.895508</ele>
  <time>2011-10-15T07:18:08Z</time>
  <speed>4.520000</speed>
</trkpt>
<trkpt lat="32.995628357" lon="35.514724731">
  <ele>779.520508</ele>
  <time>2011-10-15T07:18:09Z</time>
  <speed>4.680000</speed>
</trkpt>
<trkpt lat="32.995613098" lon="35.514759064">
  <ele>780.301758</ele>
  <time>2011-10-15T07:18:10Z</time>
  <speed>3.300000</speed>
</trkpt>
<trkpt lat="32.995601654" lon="35.514789581">
  <ele>779.551758</ele>
  <time>2011-10-15T07:18:11Z</time>
  <speed>3.160000</speed>
</trkpt>
<trkpt lat="32.995582581" lon="35.514812469">
  <ele>779.708008</ele>
  <time>2011-10-15T07:18:12Z</time>
  <speed>2.200000</speed>
</trkpt>
<trkpt lat="32.995563507" lon="35.514862061">
  <ele>780.114258</ele>
  <time>2011-10-15T07:18:14Z</time>
  <speed>2.210000</speed>
</trkpt>
<trkpt lat="32.995555878" lon="35.514907837">
  <ele>782.442383</ele>
  <time>2011-10-15T07:18:15Z</time>
  <speed>2.820000</speed>
</trkpt>
<trkpt lat="32.995536804" lon="35.514934540">
  <ele>782.676758</ele>
  <time>2011-10-15T07:18:16Z</time>
  <speed>2.930000</speed>
</trkpt>
<trkpt lat="32.995532990" lon="35.514976501">
  <ele>784.551758</ele>
  <time>2011-10-15T07:18:17Z</time>
  <speed>3.030000</speed>
</trkpt>
<trkpt lat="32.995536804" lon="35.515010834">
  <ele>785.223633</ele>
  <time>2011-10-15T07:18:18Z</time>
  <speed>3.060000</speed>
</trkpt>
<trkpt lat="32.995536804" lon="35.515060425">
  <ele>786.739258</ele>
  <time>2011-10-15T07:18:19Z</time>
  <speed>3.350000</speed>
</trkpt>
<trkpt lat="32.995544434" lon="35.515102386">
  <ele>788.614258</ele>
  <time>2011-10-15T07:18:20Z</time>
  <speed>2.880000</speed>
</trkpt>
<trkpt lat="32.995559692" lon="35.515171051">
  <ele>791.020508</ele>
  <time>2011-10-15T07:18:22Z</time>
  <speed>2.060000</speed>
</trkpt>
<trkpt lat="32.995563507" lon="35.515197754">
  <ele>792.551758</ele>
  <time>2011-10-15T07:18:23Z</time>
  <speed>2.160000</speed>
</trkpt>
<trkpt lat="32.995567322" lon="35.515270233">
  <ele>793.473633</ele>
  <time>2011-10-15T07:18:25Z</time>
  <speed>3.130000</speed>
</trkpt>
<trkpt lat="32.995571136" lon="35.515300751">
  <ele>794.286133</ele>
  <time>2011-10-15T07:18:26Z</time>
  <speed>2.950000</speed>
</trkpt>
<trkpt lat="32.995578766" lon="35.515335083">
  <ele>795.567383</ele>
  <time>2011-10-15T07:18:27Z</time>
  <speed>3.060000</speed>
</trkpt>
<trkpt lat="32.995574951" lon="35.515373230">
  <ele>796.129883</ele>
  <time>2011-10-15T07:18:28Z</time>
  <speed>2.950000</speed>
</trkpt>
<trkpt lat="32.995571136" lon="35.515426636">
  <ele>795.973633</ele>
  <time>2011-10-15T07:18:30Z</time>
  <speed>2.110000</speed>
</trkpt>
<trkpt lat="32.995552063" lon="35.515487671">
  <ele>795.942383</ele>
  <time>2011-10-15T07:18:32Z</time>
  <speed>2.620000</speed>
</trkpt>
<trkpt lat="32.995540619" lon="35.515541077">
  <ele>795.286133</ele>
  <time>2011-10-15T07:18:34Z</time>
  <speed>2.230000</speed>
</trkpt>
<trkpt lat="32.995513916" lon="35.515586853">
  <ele>795.645508</ele>
  <time>2011-10-15T07:18:36Z</time>
  <speed>2.560000</speed>
</trkpt>
<trkpt lat="32.995487213" lon="35.515632629">
  <ele>794.114258</ele>
  <time>2011-10-15T07:18:38Z</time>
  <speed>2.400000</speed>
</trkpt>
<trkpt lat="32.995456696" lon="35.515663147">
  <ele>793.333008</ele>
  <time>2011-10-15T07:18:40Z</time>
  <speed>1.950000</speed>
</trkpt>
<trkpt lat="32.995429993" lon="35.515705109">
  <ele>793.739258</ele>
  <time>2011-10-15T07:18:42Z</time>
  <speed>2.010000</speed>
</trkpt>
<trkpt lat="32.995410919" lon="35.515754700">
  <ele>793.395508</ele>
  <time>2011-10-15T07:18:44Z</time>
  <speed>2.580000</speed>
</trkpt>
<trkpt lat="32.995395660" lon="35.515792847">
  <ele>793.208008</ele>
  <time>2011-10-15T07:18:45Z</time>
  <speed>2.280000</speed>
</trkpt>
<trkpt lat="32.995388031" lon="35.515838623">
  <ele>794.333008</ele>
  <time>2011-10-15T07:18:46Z</time>
  <speed>2.580000</speed>
</trkpt>
<trkpt lat="32.995384216" lon="35.515880585">
  <ele>795.801758</ele>
  <time>2011-10-15T07:18:48Z</time>
  <speed>2.150000</speed>
</trkpt>
<trkpt lat="32.995380402" lon="35.515937805">
  <ele>795.567383</ele>
  <time>2011-10-15T07:18:50Z</time>
  <speed>2.210000</speed>
</trkpt>
<trkpt lat="32.995372772" lon="35.515987396">
  <ele>796.004883</ele>
  <time>2011-10-15T07:18:52Z</time>
  <speed>2.370000</speed>
</trkpt>
<trkpt lat="32.995372772" lon="35.516052246">
  <ele>796.129883</ele>
  <time>2011-10-15T07:18:54Z</time>
  <speed>2.700000</speed>
</trkpt>
<trkpt lat="32.995372772" lon="35.516105652">
  <ele>796.051758</ele>
  <time>2011-10-15T07:18:56Z</time>
  <speed>1.840000</speed>
</trkpt>
<trkpt lat="32.995368958" lon="35.516151428">
  <ele>796.004883</ele>
  <time>2011-10-15T07:18:58Z</time>
  <speed>1.930000</speed>
</trkpt>
<trkpt lat="32.995357513" lon="35.516193390">
  <ele>795.989258</ele>
  <time>2011-10-15T07:19:00Z</time>
  <speed>2.080000</speed>
</trkpt>
<trkpt lat="32.995346069" lon="35.516250610">
  <ele>795.629883</ele>
  <time>2011-10-15T07:19:02Z</time>
  <speed>2.420000</speed>
</trkpt>
<trkpt lat="32.995338440" lon="35.516319275">
  <ele>795.879883</ele>
  <time>2011-10-15T07:19:04Z</time>
  <speed>2.740000</speed>
</trkpt>
<trkpt lat="32.995334625" lon="35.516384125">
  <ele>797.114258</ele>
  <time>2011-10-15T07:19:06Z</time>
  <speed>3.040000</speed>
</trkpt>
<trkpt lat="32.995326996" lon="35.516422272">
  <ele>796.958008</ele>
  <time>2011-10-15T07:19:07Z</time>
  <speed>3.290000</speed>
</trkpt>
<trkpt lat="32.995319366" lon="35.516452789">
  <ele>796.739258</ele>
  <time>2011-10-15T07:19:08Z</time>
  <speed>3.250000</speed>
</trkpt>
<trkpt lat="32.995307922" lon="35.516483307">
  <ele>796.317383</ele>
  <time>2011-10-15T07:19:09Z</time>
  <speed>3.290000</speed>
</trkpt>
<trkpt lat="32.995300293" lon="35.516513824">
  <ele>796.239258</ele>
  <time>2011-10-15T07:19:10Z</time>
  <speed>3.150000</speed>
</trkpt>
<trkpt lat="32.995292664" lon="35.516548157">
  <ele>796.254883</ele>
  <time>2011-10-15T07:19:11Z</time>
  <speed>3.010000</speed>
</trkpt>
<trkpt lat="32.995281219" lon="35.516582489">
  <ele>796.239258</ele>
  <time>2011-10-15T07:19:12Z</time>
  <speed>2.800000</speed>
</trkpt>
<trkpt lat="32.995258331" lon="35.516628265">
  <ele>796.145508</ele>
  <time>2011-10-15T07:19:14Z</time>
  <speed>2.080000</speed>
</trkpt>
<trkpt lat="32.995239258" lon="35.516662598">
  <ele>796.036133</ele>
  <time>2011-10-15T07:19:16Z</time>
  <speed>1.830000</speed>
</trkpt>
<trkpt lat="32.995216370" lon="35.516681671">
  <ele>795.364258</ele>
  <time>2011-10-15T07:19:18Z</time>
  <speed>1.610000</speed>
</trkpt>
<trkpt lat="32.995189667" lon="35.516712189">
  <ele>796.598633</ele>
  <time>2011-10-15T07:19:20Z</time>
  <speed>1.410000</speed>
</trkpt>
<trkpt lat="32.995166779" lon="35.516750336">
  <ele>797.676758</ele>
  <time>2011-10-15T07:19:23Z</time>
  <speed>1.870000</speed>
</trkpt>
<trkpt lat="32.995155334" lon="35.516788483">
  <ele>799.551758</ele>
  <time>2011-10-15T07:19:25Z</time>
  <speed>2.570000</speed>
</trkpt>
<trkpt lat="32.995140076" lon="35.516830444">
  <ele>800.520508</ele>
  <time>2011-10-15T07:19:27Z</time>
  <speed>2.060000</speed>
</trkpt>
<trkpt lat="32.995113373" lon="35.516872406">
  <ele>800.661133</ele>
  <time>2011-10-15T07:19:29Z</time>
  <speed>1.990000</speed>
</trkpt>
<trkpt lat="32.995098114" lon="35.516902924">
  <ele>800.348633</ele>
  <time>2011-10-15T07:19:31Z</time>
  <speed>1.680000</speed>
</trkpt>
<trkpt lat="32.995075226" lon="35.516941071">
  <ele>800.864258</ele>
  <time>2011-10-15T07:19:33Z</time>
  <speed>2.110000</speed>
</trkpt>
<trkpt lat="32.995059967" lon="35.516971588">
  <ele>800.989258</ele>
  <time>2011-10-15T07:19:35Z</time>
  <speed>1.800000</speed>
</trkpt>
<trkpt lat="32.995033264" lon="35.516998291">
  <ele>800.833008</ele>
  <time>2011-10-15T07:19:37Z</time>
  <speed>1.550000</speed>
</trkpt>
<trkpt lat="32.995006561" lon="35.517021179">
  <ele>800.426758</ele>
  <time>2011-10-15T07:19:39Z</time>
  <speed>1.790000</speed>
</trkpt>
<trkpt lat="32.994979858" lon="35.517051697">
  <ele>800.458008</ele>
  <time>2011-10-15T07:19:41Z</time>
  <speed>1.490000</speed>
</trkpt>
<trkpt lat="32.994960785" lon="35.517097473">
  <ele>800.645508</ele>
  <time>2011-10-15T07:19:43Z</time>
  <speed>1.990000</speed>
</trkpt>
<trkpt lat="32.994941711" lon="35.517154694">
  <ele>800.833008</ele>
  <time>2011-10-15T07:19:44Z</time>
  <speed>1.560000</speed>
</trkpt>
<trkpt lat="32.994922638" lon="35.517189026">
  <ele>800.567383</ele>
  <time>2011-10-15T07:19:46Z</time>
  <speed>1.670000</speed>
</trkpt>
<trkpt lat="32.994903564" lon="35.517219543">
  <ele>800.770508</ele>
  <time>2011-10-15T07:19:48Z</time>
  <speed>1.720000</speed>
</trkpt>
<trkpt lat="32.994876862" lon="35.517250061">
  <ele>800.817383</ele>
  <time>2011-10-15T07:19:50Z</time>
  <speed>1.880000</speed>
</trkpt>
<trkpt lat="32.994861603" lon="35.517280579">
  <ele>801.348633</ele>
  <time>2011-10-15T07:19:52Z</time>
  <speed>1.300000</speed>
</trkpt>
<trkpt lat="32.994846344" lon="35.517318726">
  <ele>802.176758</ele>
  <time>2011-10-15T07:19:54Z</time>
  <speed>2.310000</speed>
</trkpt>
<trkpt lat="32.994842529" lon="35.517360687">
  <ele>803.411133</ele>
  <time>2011-10-15T07:19:56Z</time>
  <speed>2.590000</speed>
</trkpt>
<trkpt lat="32.994834900" lon="35.517395020">
  <ele>803.879883</ele>
  <time>2011-10-15T07:19:57Z</time>
  <speed>2.210000</speed>
</trkpt>
<trkpt lat="32.994823456" lon="35.517425537">
  <ele>803.723633</ele>
  <time>2011-10-15T07:19:58Z</time>
  <speed>3.070000</speed>
</trkpt>
<trkpt lat="32.994815826" lon="35.517467499">
  <ele>804.754883</ele>
  <time>2011-10-15T07:19:59Z</time>
  <speed>3.280000</speed>
</trkpt>
<trkpt lat="32.994808197" lon="35.517498016">
  <ele>804.645508</ele>
  <time>2011-10-15T07:20:00Z</time>
  <speed>3.150000</speed>
</trkpt>
<trkpt lat="32.994796753" lon="35.517532349">
  <ele>804.348633</ele>
  <time>2011-10-15T07:20:01Z</time>
  <speed>3.360000</speed>
</trkpt>
<trkpt lat="32.994796753" lon="35.517566681">
  <ele>804.270508</ele>
  <time>2011-10-15T07:20:02Z</time>
  <speed>3.320000</speed>
</trkpt>
<trkpt lat="32.994777679" lon="35.517597198">
  <ele>804.364258</ele>
  <time>2011-10-15T07:20:03Z</time>
  <speed>2.900000</speed>
</trkpt>
<trkpt lat="32.994750977" lon="35.517646790">
  <ele>804.833008</ele>
  <time>2011-10-15T07:20:05Z</time>
  <speed>2.420000</speed>
</trkpt>
<trkpt lat="32.994728088" lon="35.517688751">
  <ele>805.129883</ele>
  <time>2011-10-15T07:20:07Z</time>
  <speed>2.220000</speed>
</trkpt>
<trkpt lat="32.994716644" lon="35.517734528">
  <ele>804.833008</ele>
  <time>2011-10-15T07:20:09Z</time>
  <speed>2.250000</speed>
</trkpt>
<trkpt lat="32.994686127" lon="35.517787933">
  <ele>804.770508</ele>
  <time>2011-10-15T07:20:11Z</time>
  <speed>2.850000</speed>
</trkpt>
<trkpt lat="32.994670868" lon="35.517814636">
  <ele>804.645508</ele>
  <time>2011-10-15T07:20:12Z</time>
  <speed>2.820000</speed>
</trkpt>
<trkpt lat="32.994655609" lon="35.517845154">
  <ele>804.879883</ele>
  <time>2011-10-15T07:20:13Z</time>
  <speed>2.930000</speed>
</trkpt>
<trkpt lat="32.994636536" lon="35.517875671">
  <ele>805.426758</ele>
  <time>2011-10-15T07:20:14Z</time>
  <speed>3.430000</speed>
</trkpt>
<trkpt lat="32.994628906" lon="35.517906189">
  <ele>805.364258</ele>
  <time>2011-10-15T07:20:15Z</time>
  <speed>3.420000</speed>
</trkpt>
<trkpt lat="32.994621277" lon="35.517944336">
  <ele>806.036133</ele>
  <time>2011-10-15T07:20:16Z</time>
  <speed>3.850000</speed>
</trkpt>
<trkpt lat="32.994617462" lon="35.517997742">
  <ele>807.536133</ele>
  <time>2011-10-15T07:20:17Z</time>
  <speed>3.060000</speed>
</trkpt>
<trkpt lat="32.994606018" lon="35.518032074">
  <ele>807.489258</ele>
  <time>2011-10-15T07:20:18Z</time>
  <speed>3.240000</speed>
</trkpt>
<trkpt lat="32.994594574" lon="35.518066406">
  <ele>807.645508</ele>
  <time>2011-10-15T07:20:19Z</time>
  <speed>3.240000</speed>
</trkpt>
<trkpt lat="32.994579315" lon="35.518096924">
  <ele>808.192383</ele>
  <time>2011-10-15T07:20:20Z</time>
  <speed>3.240000</speed>
</trkpt>
<trkpt lat="32.994564056" lon="35.518131256">
  <ele>808.504883</ele>
  <time>2011-10-15T07:20:21Z</time>
  <speed>3.250000</speed>
</trkpt>
<trkpt lat="32.994548798" lon="35.518161774">
  <ele>808.583008</ele>
  <time>2011-10-15T07:20:22Z</time>
  <speed>2.770000</speed>
</trkpt>
<trkpt lat="32.994529724" lon="35.518196106">
  <ele>809.364258</ele>
  <time>2011-10-15T07:20:23Z</time>
  <speed>2.940000</speed>
</trkpt>
<trkpt lat="32.994529724" lon="35.518241882">
  <ele>810.426758</ele>
  <time>2011-10-15T07:20:24Z</time>
  <speed>2.820000</speed>
</trkpt>
<trkpt lat="32.994525909" lon="35.518291473">
  <ele>812.379883</ele>
  <time>2011-10-15T07:20:25Z</time>
  <speed>2.960000</speed>
</trkpt>
<trkpt lat="32.994503021" lon="35.518341064">
  <ele>811.364258</ele>
  <time>2011-10-15T07:20:27Z</time>
  <speed>2.820000</speed>
</trkpt>
<trkpt lat="32.994491577" lon="35.518367767">
  <ele>811.239258</ele>
  <time>2011-10-15T07:20:28Z</time>
  <speed>2.960000</speed>
</trkpt>
<trkpt lat="32.994487762" lon="35.518402100">
  <ele>811.317383</ele>
  <time>2011-10-15T07:20:29Z</time>
  <speed>2.690000</speed>
</trkpt>
<trkpt lat="32.994483948" lon="35.518440247">
  <ele>812.458008</ele>
  <time>2011-10-15T07:20:30Z</time>
  <speed>3.390000</speed>
</trkpt>
<trkpt lat="32.994476318" lon="35.518474579">
  <ele>813.536133</ele>
  <time>2011-10-15T07:20:31Z</time>
  <speed>3.200000</speed>
</trkpt>
<trkpt lat="32.994468689" lon="35.518508911">
  <ele>813.786133</ele>
  <time>2011-10-15T07:20:32Z</time>
  <speed>2.640000</speed>
</trkpt>
<trkpt lat="32.994449615" lon="35.518535614">
  <ele>813.723633</ele>
  <time>2011-10-15T07:20:33Z</time>
  <speed>2.890000</speed>
</trkpt>
<trkpt lat="32.994445801" lon="35.518569946">
  <ele>814.067383</ele>
  <time>2011-10-15T07:20:34Z</time>
  <speed>2.760000</speed>
</trkpt>
<trkpt lat="32.994438171" lon="35.518634796">
  <ele>815.676758</ele>
  <time>2011-10-15T07:20:36Z</time>
  <speed>3.180000</speed>
</trkpt>
<trkpt lat="32.994426727" lon="35.518676758">
  <ele>815.614258</ele>
  <time>2011-10-15T07:20:37Z</time>
  <speed>2.990000</speed>
</trkpt>
<trkpt lat="32.994419098" lon="35.518711090">
  <ele>815.629883</ele>
  <time>2011-10-15T07:20:38Z</time>
  <speed>2.860000</speed>
</trkpt>
<trkpt lat="32.994415283" lon="35.518768311">
  <ele>816.208008</ele>
  <time>2011-10-15T07:20:40Z</time>
  <speed>2.480000</speed>
</trkpt>
<trkpt lat="32.994411469" lon="35.518817902">
  <ele>816.458008</ele>
  <time>2011-10-15T07:20:42Z</time>
  <speed>2.620000</speed>
</trkpt>
<trkpt lat="32.994396210" lon="35.518875122">
  <ele>816.833008</ele>
  <time>2011-10-15T07:20:44Z</time>
  <speed>2.330000</speed>
</trkpt>
<trkpt lat="32.994396210" lon="35.518909454">
  <ele>817.301758</ele>
  <time>2011-10-15T07:20:45Z</time>
  <speed>2.420000</speed>
</trkpt>
<trkpt lat="32.994392395" lon="35.518974304">
  <ele>817.036133</ele>
  <time>2011-10-15T07:20:47Z</time>
  <speed>2.660000</speed>
</trkpt>
<trkpt lat="32.994411469" lon="35.519016266">
  <ele>816.004883</ele>
  <time>2011-10-15T07:20:48Z</time>
  <speed>3.020000</speed>
</trkpt>
<trkpt lat="32.994411469" lon="35.519069672">
  <ele>816.458008</ele>
  <time>2011-10-15T07:20:50Z</time>
  <speed>2.340000</speed>
</trkpt>
<trkpt lat="32.994422913" lon="35.519123077">
  <ele>816.598633</ele>
  <time>2011-10-15T07:20:52Z</time>
  <speed>2.460000</speed>
</trkpt>
<trkpt lat="32.994449615" lon="35.519180298">
  <ele>817.817383</ele>
  <time>2011-10-15T07:20:54Z</time>
  <speed>2.670000</speed>
</trkpt>
<trkpt lat="32.994464874" lon="35.519229889">
  <ele>817.989258</ele>
  <time>2011-10-15T07:20:56Z</time>
  <speed>2.360000</speed>
</trkpt>
<trkpt lat="32.994480133" lon="35.519256592">
  <ele>818.536133</ele>
  <time>2011-10-15T07:20:57Z</time>
  <speed>2.370000</speed>
</trkpt>
<trkpt lat="32.994499207" lon="35.519294739">
  <ele>818.567383</ele>
  <time>2011-10-15T07:20:59Z</time>
  <speed>1.890000</speed>
</trkpt>
<trkpt lat="32.994514465" lon="35.519340515">
  <ele>818.395508</ele>
  <time>2011-10-15T07:21:01Z</time>
  <speed>1.980000</speed>
</trkpt>
<trkpt lat="32.994544983" lon="35.519386292">
  <ele>819.973633</ele>
  <time>2011-10-15T07:21:03Z</time>
  <speed>1.990000</speed>
</trkpt>
<trkpt lat="32.994579315" lon="35.519428253">
  <ele>821.442383</ele>
  <time>2011-10-15T07:21:05Z</time>
  <speed>2.160000</speed>
</trkpt>
<trkpt lat="32.994594574" lon="35.519458771">
  <ele>821.129883</ele>
  <time>2011-10-15T07:21:07Z</time>
  <speed>2.010000</speed>
</trkpt>
<trkpt lat="32.994598389" lon="35.519496918">
  <ele>820.692383</ele>
  <time>2011-10-15T07:21:09Z</time>
  <speed>1.920000</speed>
</trkpt>
<trkpt lat="32.994602203" lon="35.519535065">
  <ele>821.129883</ele>
  <time>2011-10-15T07:21:11Z</time>
  <speed>1.840000</speed>
</trkpt>
<trkpt lat="32.994594574" lon="35.519584656">
  <ele>820.614258</ele>
  <time>2011-10-15T07:21:13Z</time>
  <speed>1.840000</speed>
</trkpt>
<trkpt lat="32.994583130" lon="35.519615173">
  <ele>819.379883</ele>
  <time>2011-10-15T07:21:15Z</time>
  <speed>1.670000</speed>
</trkpt>
<trkpt lat="32.994598389" lon="35.519649506">
  <ele>819.114258</ele>
  <time>2011-10-15T07:21:18Z</time>
  <speed>1.700000</speed>
</trkpt>
<trkpt lat="32.994636536" lon="35.519676208">
  <ele>819.504883</ele>
  <time>2011-10-15T07:21:21Z</time>
  <speed>1.860000</speed>
</trkpt>
<trkpt lat="32.994663239" lon="35.519706726">
  <ele>819.426758</ele>
  <time>2011-10-15T07:21:24Z</time>
  <speed>1.680000</speed>
</trkpt>
<trkpt lat="32.994682312" lon="35.519741058">
  <ele>819.442383</ele>
  <time>2011-10-15T07:21:26Z</time>
  <speed>1.980000</speed>
</trkpt>
<trkpt lat="32.994705200" lon="35.519775391">
  <ele>820.036133</ele>
  <time>2011-10-15T07:21:28Z</time>
  <speed>1.570000</speed>
</trkpt>
<trkpt lat="32.994701385" lon="35.519813538">
  <ele>818.989258</ele>
  <time>2011-10-15T07:21:31Z</time>
  <speed>0.570000</speed>
</trkpt>
<trkpt lat="32.994716644" lon="35.519836426">
  <ele>817.458008</ele>
  <time>2011-10-15T07:21:58Z</time>
  <speed>0.520000</speed>
</trkpt>
<trkpt lat="32.994728088" lon="35.519874573">
  <ele>817.395508</ele>
  <time>2011-10-15T07:22:03Z</time>
  <speed>0.990000</speed>
</trkpt>
<trkpt lat="32.994731903" lon="35.519908905">
  <ele>816.864258</ele>
  <time>2011-10-15T07:22:06Z</time>
  <speed>0.930000</speed>
</trkpt>
<trkpt lat="32.994735718" lon="35.519939423">
  <ele>816.004883</ele>
  <time>2011-10-15T07:22:08Z</time>
  <speed>1.290000</speed>
</trkpt>
<trkpt lat="32.994728088" lon="35.519977570">
  <ele>815.598633</ele>
  <time>2011-10-15T07:22:11Z</time>
  <speed>0.400000</speed>
</trkpt>
<trkpt lat="32.994731903" lon="35.520008087">
  <ele>816.333008</ele>
  <time>2011-10-15T07:22:20Z</time>
  <speed>0.100000</speed>
</trkpt>
<trkpt lat="32.994770050" lon="35.520011902">
  <ele>815.926758</ele>
  <time>2011-10-15T07:22:34Z</time>
  <speed>0.070000</speed>
</trkpt>
<trkpt lat="32.994800568" lon="35.520008087">
  <ele>815.567383</ele>
  <time>2011-10-15T07:22:46Z</time>
  <speed>0.070000</speed>
</trkpt>
<trkpt lat="32.994789124" lon="35.519977570">
  <ele>815.051758</ele>
  <time>2011-10-15T07:22:50Z</time>
  <speed>0.020000</speed>
</trkpt>
<trkpt lat="32.994750977" lon="35.519981384">
  <ele>814.614258</ele>
  <time>2011-10-15T07:23:00Z</time>
  <speed>0.070000</speed>
</trkpt>
<trkpt lat="32.994728088" lon="35.520008087">
  <ele>813.786133</ele>
  <time>2011-10-15T07:23:11Z</time>
  <speed>0.060000</speed>
</trkpt>
<trkpt lat="32.994697571" lon="35.520019531">
  <ele>813.473633</ele>
  <time>2011-10-15T07:23:14Z</time>
  <speed>0.060000</speed>
</trkpt>
<trkpt lat="32.994667053" lon="35.520030975">
  <ele>813.176758</ele>
  <time>2011-10-15T07:23:18Z</time>
  <speed>0.090000</speed>
</trkpt>
<trkpt lat="32.994636536" lon="35.520034790">
  <ele>813.020508</ele>
  <time>2011-10-15T07:23:22Z</time>
  <speed>0.100000</speed>
</trkpt>
<trkpt lat="32.994609833" lon="35.520034790">
  <ele>812.879883</ele>
  <time>2011-10-15T07:23:26Z</time>
  <speed>0.110000</speed>
</trkpt>
<trkpt lat="32.994583130" lon="35.520038605">
  <ele>812.942383</ele>
  <time>2011-10-15T07:23:28Z</time>
  <speed>0.230000</speed>
</trkpt>
<trkpt lat="32.994552612" lon="35.520046234">
  <ele>812.989258</ele>
  <time>2011-10-15T07:23:30Z</time>
  <speed>0.170000</speed>
</trkpt>
<trkpt lat="32.994510651" lon="35.520050049">
  <ele>812.958008</ele>
  <time>2011-10-15T07:23:33Z</time>
  <speed>0.160000</speed>
</trkpt>
<trkpt lat="32.994533539" lon="35.520061493">
  <ele>813.223633</ele>
  <time>2011-10-15T07:24:13Z</time>
  <speed>0.070000</speed>
</trkpt>
<trkpt lat="32.994560242" lon="35.520076752">
  <ele>813.333008</ele>
  <time>2011-10-15T07:24:57Z</time>
</trkpt>
<trkpt lat="32.994590759" lon="35.520069122">
  <ele>813.614258</ele>
  <time>2011-10-15T07:25:26Z</time>
  <speed>0.310000</speed>
</trkpt>
<trkpt lat="32.994621277" lon="35.520061493">
  <ele>813.223633</ele>
  <time>2011-10-15T07:25:32Z</time>
  <speed>0.260000</speed>
</trkpt>
<trkpt lat="32.994651794" lon="35.520065308">
  <ele>813.286133</ele>
  <time>2011-10-15T07:26:25Z</time>
  <speed>0.210000</speed>
</trkpt>
<trkpt lat="32.994670868" lon="35.520088196">
  <ele>813.286133</ele>
  <time>2011-10-15T07:26:37Z</time>
  <speed>1.780000</speed>
</trkpt>
<trkpt lat="32.994632721" lon="35.520099640">
  <ele>812.442383</ele>
  <time>2011-10-15T07:26:39Z</time>
  <speed>1.880000</speed>
</trkpt>
<trkpt lat="32.994606018" lon="35.520095825">
  <ele>811.879883</ele>
  <time>2011-10-15T07:26:40Z</time>
  <speed>2.910000</speed>
</trkpt>
<trkpt lat="32.994567871" lon="35.520072937">
  <ele>811.364258</ele>
  <time>2011-10-15T07:26:41Z</time>
  <speed>3.830000</speed>
</trkpt>
<trkpt lat="32.994537354" lon="35.520042419">
  <ele>811.098633</ele>
  <time>2011-10-15T07:26:42Z</time>
  <speed>3.880000</speed>
</trkpt>
<trkpt lat="32.994518280" lon="35.520008087">
  <ele>810.801758</ele>
  <time>2011-10-15T07:26:43Z</time>
  <speed>3.690000</speed>
</trkpt>
<trkpt lat="32.994495392" lon="35.519966125">
  <ele>810.395508</ele>
  <time>2011-10-15T07:26:44Z</time>
  <speed>4.380000</speed>
</trkpt>
<trkpt lat="32.994472504" lon="35.519924164">
  <ele>809.958008</ele>
  <time>2011-10-15T07:26:45Z</time>
  <speed>4.520000</speed>
</trkpt>
<trkpt lat="32.994445801" lon="35.519874573">
  <ele>809.192383</ele>
  <time>2011-10-15T07:26:46Z</time>
  <speed>4.810000</speed>
</trkpt>
<trkpt lat="32.994422913" lon="35.519821167">
  <ele>809.129883</ele>
  <time>2011-10-15T07:26:47Z</time>
  <speed>5.290000</speed>
</trkpt>
<trkpt lat="32.994400024" lon="35.519767761">
  <ele>808.786133</ele>
  <time>2011-10-15T07:26:48Z</time>
  <speed>5.070000</speed>
</trkpt>
<trkpt lat="32.994377136" lon="35.519718170">
  <ele>808.145508</ele>
  <time>2011-10-15T07:26:49Z</time>
  <speed>5.230000</speed>
</trkpt>
<trkpt lat="32.994350433" lon="35.519664764">
  <ele>807.848633</ele>
  <time>2011-10-15T07:26:50Z</time>
  <speed>5.140000</speed>
</trkpt>
<trkpt lat="32.994323730" lon="35.519615173">
  <ele>807.536133</ele>
  <time>2011-10-15T07:26:51Z</time>
  <speed>5.190000</speed>
</trkpt>
<trkpt lat="32.994300842" lon="35.519557953">
  <ele>807.317383</ele>
  <time>2011-10-15T07:26:52Z</time>
  <speed>5.870000</speed>
</trkpt>
<trkpt lat="32.994266510" lon="35.519500732">
  <ele>807.254883</ele>
  <time>2011-10-15T07:26:53Z</time>
  <speed>6.180000</speed>
</trkpt>
<trkpt lat="32.994232178" lon="35.519451141">
  <ele>807.004883</ele>
  <time>2011-10-15T07:26:54Z</time>
  <speed>5.800000</speed>
</trkpt>
<trkpt lat="32.994205475" lon="35.519397736">
  <ele>806.833008</ele>
  <time>2011-10-15T07:26:55Z</time>
  <speed>5.590000</speed>
</trkpt>
<trkpt lat="32.994186401" lon="35.519348145">
  <ele>806.801758</ele>
  <time>2011-10-15T07:26:56Z</time>
  <speed>4.770000</speed>
</trkpt>
<trkpt lat="32.994167328" lon="35.519294739">
  <ele>806.629883</ele>
  <time>2011-10-15T07:26:57Z</time>
  <speed>5.350000</speed>
</trkpt>
<trkpt lat="32.994152069" lon="35.519248962">
  <ele>806.645508</ele>
  <time>2011-10-15T07:26:58Z</time>
  <speed>4.320000</speed>
</trkpt>
<trkpt lat="32.994125366" lon="35.519203186">
  <ele>806.551758</ele>
  <time>2011-10-15T07:26:59Z</time>
  <speed>5.120000</speed>
</trkpt>
<trkpt lat="32.994094849" lon="35.519153595">
  <ele>806.458008</ele>
  <time>2011-10-15T07:27:00Z</time>
  <speed>5.550000</speed>
</trkpt>
<trkpt lat="32.994071960" lon="35.519107819">
  <ele>806.645508</ele>
  <time>2011-10-15T07:27:01Z</time>
  <speed>4.490000</speed>
</trkpt>
<trkpt lat="32.994029999" lon="35.519062042">
  <ele>806.598633</ele>
  <time>2011-10-15T07:27:02Z</time>
  <speed>5.460000</speed>
</trkpt>
<trkpt lat="32.993991852" lon="35.519023895">
  <ele>806.504883</ele>
  <time>2011-10-15T07:27:03Z</time>
  <speed>5.500000</speed>
</trkpt>
<trkpt lat="32.993953705" lon="35.518989563">
  <ele>806.473633</ele>
  <time>2011-10-15T07:27:04Z</time>
  <speed>5.030000</speed>
</trkpt>
<trkpt lat="32.993907928" lon="35.518978119">
  <ele>806.426758</ele>
  <time>2011-10-15T07:27:05Z</time>
  <speed>3.080000</speed>
</trkpt>
<trkpt lat="32.993881226" lon="35.518981934">
  <ele>806.239258</ele>
  <time>2011-10-15T07:27:06Z</time>
  <speed>2.750000</speed>
</trkpt>
<trkpt lat="32.993835449" lon="35.518974304">
  <ele>806.020508</ele>
  <time>2011-10-15T07:27:07Z</time>
  <speed>4.120000</speed>
</trkpt>
<trkpt lat="32.993797302" lon="35.518959045">
  <ele>805.833008</ele>
  <time>2011-10-15T07:27:08Z</time>
  <speed>4.550000</speed>
</trkpt>
<trkpt lat="32.993762970" lon="35.518939972">
  <ele>805.708008</ele>
  <time>2011-10-15T07:27:09Z</time>
  <speed>4.320000</speed>
</trkpt>
<trkpt lat="32.993717194" lon="35.518917084">
  <ele>805.583008</ele>
  <time>2011-10-15T07:27:10Z</time>
  <speed>4.700000</speed>
</trkpt>
<trkpt lat="32.993679047" lon="35.518901825">
  <ele>805.067383</ele>
  <time>2011-10-15T07:27:11Z</time>
  <speed>4.580000</speed>
</trkpt>
<trkpt lat="32.993633270" lon="35.518886566">
  <ele>805.004883</ele>
  <time>2011-10-15T07:27:12Z</time>
  <speed>4.660000</speed>
</trkpt>
<trkpt lat="32.993587494" lon="35.518863678">
  <ele>804.911133</ele>
  <time>2011-10-15T07:27:13Z</time>
  <speed>4.960000</speed>
</trkpt>
<trkpt lat="32.993537903" lon="35.518856049">
  <ele>804.739258</ele>
  <time>2011-10-15T07:27:14Z</time>
  <speed>5.020000</speed>
</trkpt>
<trkpt lat="32.993495941" lon="35.518852234">
  <ele>804.676758</ele>
  <time>2011-10-15T07:27:15Z</time>
  <speed>4.620000</speed>
</trkpt>
<trkpt lat="32.993373871" lon="35.518802643">
  <ele>804.520508</ele>
  <time>2011-10-15T07:27:16Z</time>
  <speed>5.640000</speed>
</trkpt>
<trkpt lat="32.993316650" lon="35.518798828">
  <ele>804.473633</ele>
  <time>2011-10-15T07:27:17Z</time>
  <speed>5.210000</speed>
</trkpt>
<trkpt lat="32.993263245" lon="35.518825531">
  <ele>804.176758</ele>
  <time>2011-10-15T07:27:18Z</time>
  <speed>5.220000</speed>
</trkpt>
<trkpt lat="32.993171692" lon="35.518829346">
  <ele>803.989258</ele>
  <time>2011-10-15T07:27:19Z</time>
  <speed>5.850000</speed>
</trkpt>
<trkpt lat="32.993095398" lon="35.518875122">
  <ele>803.520508</ele>
  <time>2011-10-15T07:27:20Z</time>
  <speed>6.490000</speed>
</trkpt>
<trkpt lat="32.993030548" lon="35.518924713">
  <ele>803.004883</ele>
  <time>2011-10-15T07:27:21Z</time>
  <speed>6.790000</speed>
</trkpt>
<trkpt lat="32.992973328" lon="35.518970490">
  <ele>802.848633</ele>
  <time>2011-10-15T07:27:22Z</time>
  <speed>7.190000</speed>
</trkpt>
<trkpt lat="32.992908478" lon="35.519016266">
  <ele>802.676758</ele>
  <time>2011-10-15T07:27:23Z</time>
  <speed>7.920000</speed>
</trkpt>
<trkpt lat="32.992851257" lon="35.519054413">
  <ele>802.567383</ele>
  <time>2011-10-15T07:27:24Z</time>
  <speed>7.480000</speed>
</trkpt>
<trkpt lat="32.992794037" lon="35.519088745">
  <ele>802.442383</ele>
  <time>2011-10-15T07:27:25Z</time>
  <speed>6.890000</speed>
</trkpt>
<trkpt lat="32.992740631" lon="35.519123077">
  <ele>802.333008</ele>
  <time>2011-10-15T07:27:26Z</time>
  <speed>5.910000</speed>
</trkpt>
<trkpt lat="32.992698669" lon="35.519165039">
  <ele>802.208008</ele>
  <time>2011-10-15T07:27:27Z</time>
  <speed>5.960000</speed>
</trkpt>
<trkpt lat="32.992664337" lon="35.519195557">
  <ele>802.083008</ele>
  <time>2011-10-15T07:27:28Z</time>
  <speed>5.000000</speed>
</trkpt>
<trkpt lat="32.992610931" lon="35.519256592">
  <ele>801.895508</ele>
  <time>2011-10-15T07:27:29Z</time>
  <speed>7.080000</speed>
</trkpt>
<trkpt lat="32.992553711" lon="35.519306183">
  <ele>801.786133</ele>
  <time>2011-10-15T07:27:30Z</time>
  <speed>7.210000</speed>
</trkpt>
<trkpt lat="32.992496490" lon="35.519397736">
  <ele>801.333008</ele>
  <time>2011-10-15T07:27:31Z</time>
  <speed>7.430000</speed>
</trkpt>
<trkpt lat="32.992439270" lon="35.519454956">
  <ele>801.239258</ele>
  <time>2011-10-15T07:27:32Z</time>
  <speed>7.620000</speed>
</trkpt>
<trkpt lat="32.992385864" lon="35.519512177">
  <ele>801.004883</ele>
  <time>2011-10-15T07:27:33Z</time>
  <speed>7.860000</speed>
</trkpt>
<trkpt lat="32.992340088" lon="35.519569397">
  <ele>800.801758</ele>
  <time>2011-10-15T07:27:34Z</time>
  <speed>7.580000</speed>
</trkpt>
<trkpt lat="32.992321014" lon="35.519645691">
  <ele>800.723633</ele>
  <time>2011-10-15T07:27:35Z</time>
  <speed>7.020000</speed>
</trkpt>
<trkpt lat="32.992248535" lon="35.519699097">
  <ele>800.254883</ele>
  <time>2011-10-15T07:27:36Z</time>
  <speed>7.390000</speed>
</trkpt>
<trkpt lat="32.992202759" lon="35.519763947">
  <ele>800.036133</ele>
  <time>2011-10-15T07:27:37Z</time>
  <speed>7.270000</speed>
</trkpt>
<trkpt lat="32.992164612" lon="35.519817352">
  <ele>799.786133</ele>
  <time>2011-10-15T07:27:38Z</time>
  <speed>6.930000</speed>
</trkpt>
<trkpt lat="32.992115021" lon="35.519866943">
  <ele>799.583008</ele>
  <time>2011-10-15T07:27:39Z</time>
  <speed>6.740000</speed>
</trkpt>
<trkpt lat="32.992061615" lon="35.519912720">
  <ele>799.301758</ele>
  <time>2011-10-15T07:27:40Z</time>
  <speed>6.200000</speed>
</trkpt>
<trkpt lat="32.992027283" lon="35.519969940">
  <ele>799.129883</ele>
  <time>2011-10-15T07:27:41Z</time>
  <speed>6.450000</speed>
</trkpt>
<trkpt lat="32.991989136" lon="35.520015717">
  <ele>798.942383</ele>
  <time>2011-10-15T07:27:42Z</time>
  <speed>5.580000</speed>
</trkpt>
<trkpt lat="32.991939545" lon="35.520099640">
  <ele>798.254883</ele>
  <time>2011-10-15T07:27:43Z</time>
  <speed>6.540000</speed>
</trkpt>
<trkpt lat="32.991893768" lon="35.520149231">
  <ele>798.004883</ele>
  <time>2011-10-15T07:27:44Z</time>
  <speed>6.400000</speed>
</trkpt>
<trkpt lat="32.991851807" lon="35.520202637">
  <ele>797.739258</ele>
  <time>2011-10-15T07:27:45Z</time>
  <speed>6.260000</speed>
</trkpt>
<trkpt lat="32.991809845" lon="35.520252228">
  <ele>797.301758</ele>
  <time>2011-10-15T07:27:46Z</time>
  <speed>5.920000</speed>
</trkpt>
<trkpt lat="32.991748810" lon="35.520275116">
  <ele>796.958008</ele>
  <time>2011-10-15T07:27:47Z</time>
  <speed>5.830000</speed>
</trkpt>
<trkpt lat="32.991699219" lon="35.520305634">
  <ele>796.692383</ele>
  <time>2011-10-15T07:27:48Z</time>
  <speed>5.750000</speed>
</trkpt>
<trkpt lat="32.991657257" lon="35.520336151">
  <ele>796.395508</ele>
  <time>2011-10-15T07:27:49Z</time>
  <speed>5.860000</speed>
</trkpt>
<trkpt lat="32.991607666" lon="35.520378113">
  <ele>795.926758</ele>
  <time>2011-10-15T07:27:50Z</time>
  <speed>5.240000</speed>
</trkpt>
<trkpt lat="32.991569519" lon="35.520412445">
  <ele>795.551758</ele>
  <time>2011-10-15T07:27:51Z</time>
  <speed>4.520000</speed>
</trkpt>
<trkpt lat="32.991535187" lon="35.520420074">
  <ele>795.317383</ele>
  <time>2011-10-15T07:27:52Z</time>
  <speed>4.120000</speed>
</trkpt>
<trkpt lat="32.991474152" lon="35.520427704">
  <ele>794.989258</ele>
  <time>2011-10-15T07:27:53Z</time>
  <speed>5.460000</speed>
</trkpt>
<trkpt lat="32.991386414" lon="35.520416260">
  <ele>794.692383</ele>
  <time>2011-10-15T07:27:54Z</time>
  <speed>6.390000</speed>
</trkpt>
<trkpt lat="32.991279602" lon="35.520416260">
  <ele>794.411133</ele>
  <time>2011-10-15T07:27:55Z</time>
  <speed>6.290000</speed>
</trkpt>
<trkpt lat="32.991226196" lon="35.520412445">
  <ele>794.161133</ele>
  <time>2011-10-15T07:27:56Z</time>
  <speed>5.640000</speed>
</trkpt>
<trkpt lat="32.991165161" lon="35.520412445">
  <ele>793.879883</ele>
  <time>2011-10-15T07:27:57Z</time>
  <speed>5.480000</speed>
</trkpt>
<trkpt lat="32.991115570" lon="35.520408630">
  <ele>793.598633</ele>
  <time>2011-10-15T07:27:58Z</time>
  <speed>4.830000</speed>
</trkpt>
<trkpt lat="32.991077423" lon="35.520431519">
  <ele>793.192383</ele>
  <time>2011-10-15T07:27:59Z</time>
  <speed>4.460000</speed>
</trkpt>
<trkpt lat="32.991001129" lon="35.520431519">
  <ele>792.879883</ele>
  <time>2011-10-15T07:28:00Z</time>
  <speed>5.220000</speed>
</trkpt>
<trkpt lat="32.990955353" lon="35.520442963">
  <ele>792.614258</ele>
  <time>2011-10-15T07:28:01Z</time>
  <speed>5.210000</speed>
</trkpt>
<trkpt lat="32.990905762" lon="35.520450592">
  <ele>792.333008</ele>
  <time>2011-10-15T07:28:02Z</time>
  <speed>5.180000</speed>
</trkpt>
<trkpt lat="32.990852356" lon="35.520462036">
  <ele>792.020508</ele>
  <time>2011-10-15T07:28:03Z</time>
  <speed>5.500000</speed>
</trkpt>
<trkpt lat="32.990810394" lon="35.520503998">
  <ele>791.786133</ele>
  <time>2011-10-15T07:28:04Z</time>
  <speed>5.620000</speed>
</trkpt>
<trkpt lat="32.990768433" lon="35.520610809">
  <ele>791.379883</ele>
  <time>2011-10-15T07:28:05Z</time>
  <speed>6.240000</speed>
</trkpt>
<trkpt lat="32.990699768" lon="35.520660400">
  <ele>791.067383</ele>
  <time>2011-10-15T07:28:06Z</time>
  <speed>7.970000</speed>
</trkpt>
<trkpt lat="32.990623474" lon="35.520725250">
  <ele>790.786133</ele>
  <time>2011-10-15T07:28:07Z</time>
  <speed>7.930000</speed>
</trkpt>
<trkpt lat="32.990562439" lon="35.520774841">
  <ele>790.458008</ele>
  <time>2011-10-15T07:28:08Z</time>
  <speed>8.270000</speed>
</trkpt>
<trkpt lat="32.990482330" lon="35.520854950">
  <ele>790.067383</ele>
  <time>2011-10-15T07:28:09Z</time>
  <speed>8.930000</speed>
</trkpt>
<trkpt lat="32.990409851" lon="35.520915985">
  <ele>789.739258</ele>
  <time>2011-10-15T07:28:10Z</time>
  <speed>9.620000</speed>
</trkpt>
<trkpt lat="32.990341187" lon="35.520980835">
  <ele>789.458008</ele>
  <time>2011-10-15T07:28:11Z</time>
  <speed>9.440000</speed>
</trkpt>
<trkpt lat="32.990295410" lon="35.521011353">
  <ele>789.208008</ele>
  <time>2011-10-15T07:28:12Z</time>
  <speed>7.100000</speed>
</trkpt>
<trkpt lat="32.990242004" lon="35.521080017">
  <ele>788.926758</ele>
  <time>2011-10-15T07:28:13Z</time>
  <speed>7.650000</speed>
</trkpt>
<trkpt lat="32.990184784" lon="35.521133423">
  <ele>788.583008</ele>
  <time>2011-10-15T07:28:14Z</time>
  <speed>7.490000</speed>
</trkpt>
<trkpt lat="32.990112305" lon="35.521175385">
  <ele>788.286133</ele>
  <time>2011-10-15T07:28:15Z</time>
  <speed>7.590000</speed>
</trkpt>
<trkpt lat="32.990055084" lon="35.521247864">
  <ele>787.895508</ele>
  <time>2011-10-15T07:28:16Z</time>
  <speed>6.790000</speed>
</trkpt>
<trkpt lat="32.989978790" lon="35.521354675">
  <ele>787.536133</ele>
  <time>2011-10-15T07:28:17Z</time>
  <speed>9.310000</speed>
</trkpt>
<trkpt lat="32.989898682" lon="35.521430969">
  <ele>787.145508</ele>
  <time>2011-10-15T07:28:18Z</time>
  <speed>8.860000</speed>
</trkpt>
<trkpt lat="32.989830017" lon="35.521492004">
  <ele>786.817383</ele>
  <time>2011-10-15T07:28:19Z</time>
  <speed>8.850000</speed>
</trkpt>
<trkpt lat="32.989776611" lon="35.521572113">
  <ele>786.504883</ele>
  <time>2011-10-15T07:28:20Z</time>
  <speed>8.410000</speed>
</trkpt>
<trkpt lat="32.989730835" lon="35.521633148">
  <ele>786.145508</ele>
  <time>2011-10-15T07:28:21Z</time>
  <speed>7.770000</speed>
</trkpt>
<trkpt lat="32.989688873" lon="35.521690369">
  <ele>785.754883</ele>
  <time>2011-10-15T07:28:22Z</time>
  <speed>7.390000</speed>
</trkpt>
<trkpt lat="32.989646912" lon="35.521751404">
  <ele>785.442383</ele>
  <time>2011-10-15T07:28:23Z</time>
  <speed>6.900000</speed>
</trkpt>
<trkpt lat="32.989604950" lon="35.521766663">
  <ele>784.504883</ele>
  <time>2011-10-15T07:28:24Z</time>
  <speed>7.900000</speed>
</trkpt>
<trkpt lat="32.989570618" lon="35.521827698">
  <ele>784.145508</ele>
  <time>2011-10-15T07:28:25Z</time>
  <speed>7.260000</speed>
</trkpt>
<trkpt lat="32.989517212" lon="35.521865845">
  <ele>783.645508</ele>
  <time>2011-10-15T07:28:26Z</time>
  <speed>7.300000</speed>
</trkpt>
<trkpt lat="32.989459991" lon="35.521896362">
  <ele>783.129883</ele>
  <time>2011-10-15T07:28:27Z</time>
  <speed>7.000000</speed>
</trkpt>
<trkpt lat="32.989418030" lon="35.521942139">
  <ele>782.708008</ele>
  <time>2011-10-15T07:28:28Z</time>
  <speed>5.950000</speed>
</trkpt>
<trkpt lat="32.989368439" lon="35.521991730">
  <ele>782.270508</ele>
  <time>2011-10-15T07:28:29Z</time>
  <speed>6.360000</speed>
</trkpt>
<trkpt lat="32.989322662" lon="35.522037506">
  <ele>781.895508</ele>
  <time>2011-10-15T07:28:30Z</time>
  <speed>6.660000</speed>
</trkpt>
<trkpt lat="32.989288330" lon="35.522087097">
  <ele>781.504883</ele>
  <time>2011-10-15T07:28:31Z</time>
  <speed>6.890000</speed>
</trkpt>
<trkpt lat="32.989246368" lon="35.522174835">
  <ele>780.770508</ele>
  <time>2011-10-15T07:28:32Z</time>
  <speed>7.210000</speed>
</trkpt>
<trkpt lat="32.989185333" lon="35.522220612">
  <ele>780.301758</ele>
  <time>2011-10-15T07:28:33Z</time>
  <speed>7.130000</speed>
</trkpt>
<trkpt lat="32.989151001" lon="35.522266388">
  <ele>779.942383</ele>
  <time>2011-10-15T07:28:34Z</time>
  <speed>7.120000</speed>
</trkpt>
<trkpt lat="32.989093781" lon="35.522308350">
  <ele>779.536133</ele>
  <time>2011-10-15T07:28:35Z</time>
  <speed>7.020000</speed>
</trkpt>
<trkpt lat="32.989044189" lon="35.522365570">
  <ele>779.129883</ele>
  <time>2011-10-15T07:28:36Z</time>
  <speed>7.350000</speed>
</trkpt>
<trkpt lat="32.989006042" lon="35.522422791">
  <ele>778.801758</ele>
  <time>2011-10-15T07:28:37Z</time>
  <speed>7.390000</speed>
</trkpt>
<trkpt lat="32.988945007" lon="35.522472382">
  <ele>778.317383</ele>
  <time>2011-10-15T07:28:38Z</time>
  <speed>6.580000</speed>
</trkpt>
<trkpt lat="32.988895416" lon="35.522521973">
  <ele>778.004883</ele>
  <time>2011-10-15T07:28:39Z</time>
  <speed>6.930000</speed>
</trkpt>
<trkpt lat="32.988853455" lon="35.522563934">
  <ele>777.614258</ele>
  <time>2011-10-15T07:28:40Z</time>
  <speed>7.000000</speed>
</trkpt>
<trkpt lat="32.988811493" lon="35.522598267">
  <ele>777.239258</ele>
  <time>2011-10-15T07:28:41Z</time>
  <speed>6.160000</speed>
</trkpt>
<trkpt lat="32.988758087" lon="35.522697449">
  <ele>776.598633</ele>
  <time>2011-10-15T07:28:42Z</time>
  <speed>6.320000</speed>
</trkpt>
<trkpt lat="32.988704681" lon="35.522789001">
  <ele>775.833008</ele>
  <time>2011-10-15T07:28:43Z</time>
  <speed>7.420000</speed>
</trkpt>
<trkpt lat="32.988655090" lon="35.522838593">
  <ele>775.333008</ele>
  <time>2011-10-15T07:28:44Z</time>
  <speed>6.420000</speed>
</trkpt>
<trkpt lat="32.988605499" lon="35.522888184">
  <ele>775.036133</ele>
  <time>2011-10-15T07:28:45Z</time>
  <speed>6.190000</speed>
</trkpt>
<trkpt lat="32.988578796" lon="35.522922516">
  <ele>774.692383</ele>
  <time>2011-10-15T07:28:46Z</time>
  <speed>3.400000</speed>
</trkpt>
<trkpt lat="32.988555908" lon="35.522953033">
  <ele>773.754883</ele>
  <time>2011-10-15T07:28:48Z</time>
  <speed>1.880000</speed>
</trkpt>
<trkpt lat="32.988536835" lon="35.522964478">
  <ele>772.145508</ele>
  <time>2011-10-15T07:28:51Z</time>
  <speed>0.180000</speed>
</trkpt>
<trkpt lat="32.988513947" lon="35.522941589">
  <ele>770.395508</ele>
  <time>2011-10-15T07:29:07Z</time>
  <speed>1.170000</speed>
</trkpt>
<trkpt lat="32.988491058" lon="35.522933960">
  <ele>769.239258</ele>
  <time>2011-10-15T07:29:09Z</time>
  <speed>1.700000</speed>
</trkpt>
<trkpt lat="32.988464355" lon="35.522953033">
  <ele>768.848633</ele>
  <time>2011-10-15T07:29:11Z</time>
  <speed>0.960000</speed>
</trkpt>
<trkpt lat="32.988445282" lon="35.522930145">
  <ele>765.426758</ele>
  <time>2011-10-15T07:29:14Z</time>
  <speed>0.260000</speed>
</trkpt>
<trkpt lat="32.988445282" lon="35.522933960">
  <ele>762.223633</ele>
  <time>2011-10-15T07:29:18Z</time>
  <speed>0.030000</speed>
</trkpt>
<trkpt lat="32.988471985" lon="35.522930145">
  <ele>760.676758</ele>
  <time>2011-10-15T07:29:25Z</time>
  <speed>0.020000</speed>
</trkpt>
<trkpt lat="32.988471985" lon="35.522922516">
  <ele>757.723633</ele>
  <time>2011-10-15T07:29:28Z</time>
</trkpt>
<trkpt lat="32.988456726" lon="35.522926331">
  <ele>755.161133</ele>
  <time>2011-10-15T07:29:32Z</time>
</trkpt>
<trkpt lat="32.988441467" lon="35.522956848">
  <ele>754.239258</ele>
  <time>2011-10-15T07:29:59Z</time>
  <speed>0.120000</speed>
</trkpt>
<trkpt lat="32.988460541" lon="35.522979736">
  <ele>754.989258</ele>
  <time>2011-10-15T07:30:06Z</time>
  <speed>0.110000</speed>
</trkpt>
<trkpt lat="32.988445282" lon="35.522945404">
  <ele>754.036133</ele>
  <time>2011-10-15T07:30:18Z</time>
  <speed>0.060000</speed>
</trkpt>
<trkpt lat="32.988433838" lon="35.522983551">
  <ele>755.911133</ele>
  <time>2011-10-15T07:31:11Z</time>
  <speed>1.620000</speed>
</trkpt>
<trkpt lat="32.988407135" lon="35.523040771">
  <ele>755.833008</ele>
  <time>2011-10-15T07:31:13Z</time>
  <speed>3.880000</speed>
</trkpt>
<trkpt lat="32.988388062" lon="35.523094177">
  <ele>755.848633</ele>
  <time>2011-10-15T07:31:14Z</time>
  <speed>5.230000</speed>
</trkpt>
<trkpt lat="32.988368988" lon="35.523159027">
  <ele>755.864258</ele>
  <time>2011-10-15T07:31:15Z</time>
  <speed>6.240000</speed>
</trkpt>
<trkpt lat="32.988349915" lon="35.523239136">
  <ele>755.833008</ele>
  <time>2011-10-15T07:31:16Z</time>
  <speed>7.440000</speed>
</trkpt>
<trkpt lat="32.988330841" lon="35.523334503">
  <ele>755.567383</ele>
  <time>2011-10-15T07:31:17Z</time>
  <speed>8.210000</speed>
</trkpt>
<trkpt lat="32.988315582" lon="35.523418427">
  <ele>755.536133</ele>
  <time>2011-10-15T07:31:18Z</time>
  <speed>7.670000</speed>
</trkpt>
<trkpt lat="32.988296509" lon="35.523494720">
  <ele>755.458008</ele>
  <time>2011-10-15T07:31:19Z</time>
  <speed>7.170000</speed>
</trkpt>
<trkpt lat="32.988254547" lon="35.523567200">
  <ele>755.192383</ele>
  <time>2011-10-15T07:31:20Z</time>
  <speed>6.810000</speed>
</trkpt>
<trkpt lat="32.988216400" lon="35.523628235">
  <ele>755.098633</ele>
  <time>2011-10-15T07:31:21Z</time>
  <speed>6.890000</speed>
</trkpt>
<trkpt lat="32.988178253" lon="35.523681641">
  <ele>754.989258</ele>
  <time>2011-10-15T07:31:22Z</time>
  <speed>6.640000</speed>
</trkpt>
<trkpt lat="32.988143921" lon="35.523731232">
  <ele>754.895508</ele>
  <time>2011-10-15T07:31:23Z</time>
  <speed>6.010000</speed>
</trkpt>
<trkpt lat="32.988113403" lon="35.523796082">
  <ele>754.786133</ele>
  <time>2011-10-15T07:31:24Z</time>
  <speed>6.530000</speed>
</trkpt>
<trkpt lat="32.988094330" lon="35.523857117">
  <ele>754.567383</ele>
  <time>2011-10-15T07:31:25Z</time>
  <speed>6.250000</speed>
</trkpt>
<trkpt lat="32.988082886" lon="35.523918152">
  <ele>754.333008</ele>
  <time>2011-10-15T07:31:26Z</time>
  <speed>6.030000</speed>
</trkpt>
<trkpt lat="32.988071442" lon="35.524002075">
  <ele>754.020508</ele>
  <time>2011-10-15T07:31:27Z</time>
  <speed>6.100000</speed>
</trkpt>
<trkpt lat="32.988059998" lon="35.524059296">
  <ele>753.879883</ele>
  <time>2011-10-15T07:31:28Z</time>
  <speed>5.130000</speed>
</trkpt>
<trkpt lat="32.988052368" lon="35.524135590">
  <ele>753.489258</ele>
  <time>2011-10-15T07:31:29Z</time>
  <speed>5.750000</speed>
</trkpt>
<trkpt lat="32.988044739" lon="35.524196625">
  <ele>753.239258</ele>
  <time>2011-10-15T07:31:30Z</time>
  <speed>5.960000</speed>
</trkpt>
<trkpt lat="32.988052368" lon="35.524280548">
  <ele>752.614258</ele>
  <time>2011-10-15T07:31:31Z</time>
  <speed>5.970000</speed>
</trkpt>
<trkpt lat="32.988037109" lon="35.524345398">
  <ele>752.379883</ele>
  <time>2011-10-15T07:31:32Z</time>
  <speed>6.260000</speed>
</trkpt>
<trkpt lat="32.988010406" lon="35.524406433">
  <ele>752.192383</ele>
  <time>2011-10-15T07:31:33Z</time>
  <speed>6.100000</speed>
</trkpt>
<trkpt lat="32.987972260" lon="35.524459839">
  <ele>751.911133</ele>
  <time>2011-10-15T07:31:34Z</time>
  <speed>5.120000</speed>
</trkpt>
<trkpt lat="32.987926483" lon="35.524513245">
  <ele>751.458008</ele>
  <time>2011-10-15T07:31:35Z</time>
  <speed>6.200000</speed>
</trkpt>
<trkpt lat="32.987854004" lon="35.524566650">
  <ele>750.879883</ele>
  <time>2011-10-15T07:31:36Z</time>
  <speed>7.390000</speed>
</trkpt>
<trkpt lat="32.987804413" lon="35.524620056">
  <ele>750.583008</ele>
  <time>2011-10-15T07:31:37Z</time>
  <speed>7.070000</speed>
</trkpt>
<trkpt lat="32.987754822" lon="35.524681091">
  <ele>750.379883</ele>
  <time>2011-10-15T07:31:38Z</time>
  <speed>7.000000</speed>
</trkpt>
<trkpt lat="32.987670898" lon="35.524761200">
  <ele>749.629883</ele>
  <time>2011-10-15T07:31:39Z</time>
  <speed>7.800000</speed>
</trkpt>
<trkpt lat="32.987583160" lon="35.524864197">
  <ele>748.036133</ele>
  <time>2011-10-15T07:31:40Z</time>
  <speed>7.810000</speed>
</trkpt>
<trkpt lat="32.987571716" lon="35.524974823">
  <ele>746.598633</ele>
  <time>2011-10-15T07:31:41Z</time>
  <speed>7.550000</speed>
</trkpt>
<trkpt lat="32.987556458" lon="35.525058746">
  <ele>745.426758</ele>
  <time>2011-10-15T07:31:42Z</time>
  <speed>6.850000</speed>
</trkpt>
<trkpt lat="32.987545013" lon="35.525135040">
  <ele>744.426758</ele>
  <time>2011-10-15T07:31:43Z</time>
  <speed>7.010000</speed>
</trkpt>
<trkpt lat="32.987518311" lon="35.525218964">
  <ele>744.067383</ele>
  <time>2011-10-15T07:31:44Z</time>
  <speed>6.750000</speed>
</trkpt>
<trkpt lat="32.987457275" lon="35.525260925">
  <ele>740.333008</ele>
  <time>2011-10-15T07:31:45Z</time>
  <speed>6.250000</speed>
</trkpt>
<trkpt lat="32.987419128" lon="35.525302887">
  <ele>737.723633</ele>
  <time>2011-10-15T07:31:46Z</time>
  <speed>7.040000</speed>
</trkpt>
<trkpt lat="32.987388611" lon="35.525375366">
  <ele>734.379883</ele>
  <time>2011-10-15T07:31:47Z</time>
  <speed>7.200000</speed>
</trkpt>
<trkpt lat="32.987339020" lon="35.525428772">
  <ele>733.254883</ele>
  <time>2011-10-15T07:31:48Z</time>
  <speed>7.420000</speed>
</trkpt>
<trkpt lat="32.987285614" lon="35.525463104">
  <ele>731.645508</ele>
  <time>2011-10-15T07:31:49Z</time>
  <speed>5.880000</speed>
</trkpt>
<trkpt lat="32.987258911" lon="35.525520325">
  <ele>728.458008</ele>
  <time>2011-10-15T07:31:50Z</time>
  <speed>5.290000</speed>
</trkpt>
<trkpt lat="32.987239838" lon="35.525558472">
  <ele>727.176758</ele>
  <time>2011-10-15T07:31:51Z</time>
  <speed>3.830000</speed>
</trkpt>
<trkpt lat="32.987224579" lon="35.525592804">
  <ele>726.192383</ele>
  <time>2011-10-15T07:31:52Z</time>
  <speed>3.250000</speed>
</trkpt>
<trkpt lat="32.987209320" lon="35.525646210">
  <ele>723.661133</ele>
  <time>2011-10-15T07:31:53Z</time>
  <speed>4.940000</speed>
</trkpt>
<trkpt lat="32.987186432" lon="35.525699615">
  <ele>721.473633</ele>
  <time>2011-10-15T07:31:54Z</time>
  <speed>5.130000</speed>
</trkpt>
<trkpt lat="32.987163544" lon="35.525745392">
  <ele>720.426758</ele>
  <time>2011-10-15T07:31:55Z</time>
  <speed>4.620000</speed>
</trkpt>
<trkpt lat="32.987136841" lon="35.525802612">
  <ele>718.036133</ele>
  <time>2011-10-15T07:31:56Z</time>
  <speed>5.610000</speed>
</trkpt>
<trkpt lat="32.987110138" lon="35.525859833">
  <ele>716.036133</ele>
  <time>2011-10-15T07:31:57Z</time>
  <speed>5.600000</speed>
</trkpt>
<trkpt lat="32.987064362" lon="35.525905609">
  <ele>713.411133</ele>
  <time>2011-10-15T07:31:58Z</time>
  <speed>5.580000</speed>
</trkpt>
<trkpt lat="32.987033844" lon="35.525959015">
  <ele>712.036133</ele>
  <time>2011-10-15T07:31:59Z</time>
  <speed>5.130000</speed>
</trkpt>
<trkpt lat="32.987007141" lon="35.526000977">
  <ele>711.145508</ele>
  <time>2011-10-15T07:32:00Z</time>
  <speed>5.160000</speed>
</trkpt>
<trkpt lat="32.986976624" lon="35.526046753">
  <ele>710.254883</ele>
  <time>2011-10-15T07:32:01Z</time>
  <speed>5.110000</speed>
</trkpt>
<trkpt lat="32.986961365" lon="35.526100159">
  <ele>709.254883</ele>
  <time>2011-10-15T07:32:02Z</time>
  <speed>4.740000</speed>
</trkpt>
<trkpt lat="32.986968994" lon="35.526161194">
  <ele>707.864258</ele>
  <time>2011-10-15T07:32:03Z</time>
  <speed>5.150000</speed>
</trkpt>
<trkpt lat="32.986976624" lon="35.526214600">
  <ele>706.661133</ele>
  <time>2011-10-15T07:32:04Z</time>
  <speed>4.020000</speed>
</trkpt>
<trkpt lat="32.987007141" lon="35.526256561">
  <ele>705.301758</ele>
  <time>2011-10-15T07:32:05Z</time>
  <speed>3.370000</speed>
</trkpt>
<trkpt lat="32.987041473" lon="35.526283264">
  <ele>704.379883</ele>
  <time>2011-10-15T07:32:06Z</time>
  <speed>3.310000</speed>
</trkpt>
<trkpt lat="32.987071991" lon="35.526294708">
  <ele>703.395508</ele>
  <time>2011-10-15T07:32:07Z</time>
  <speed>2.850000</speed>
</trkpt>
<trkpt lat="32.987091064" lon="35.526313782">
  <ele>702.379883</ele>
  <time>2011-10-15T07:32:08Z</time>
  <speed>3.990000</speed>
</trkpt>
<trkpt lat="32.987129211" lon="35.526317596">
  <ele>701.754883</ele>
  <time>2011-10-15T07:32:09Z</time>
  <speed>3.310000</speed>
</trkpt>
<trkpt lat="32.987163544" lon="35.526313782">
  <ele>701.004883</ele>
  <time>2011-10-15T07:32:10Z</time>
  <speed>3.480000</speed>
</trkpt>
<trkpt lat="32.987194061" lon="35.526306152">
  <ele>700.364258</ele>
  <time>2011-10-15T07:32:11Z</time>
  <speed>3.210000</speed>
</trkpt>
<trkpt lat="32.987224579" lon="35.526313782">
  <ele>700.301758</ele>
  <time>2011-10-15T07:32:12Z</time>
  <speed>3.340000</speed>
</trkpt>
<trkpt lat="32.987251282" lon="35.526317596">
  <ele>700.317383</ele>
  <time>2011-10-15T07:32:13Z</time>
  <speed>3.390000</speed>
</trkpt>
<trkpt lat="32.987289429" lon="35.526309967">
  <ele>699.911133</ele>
  <time>2011-10-15T07:32:14Z</time>
  <speed>3.740000</speed>
</trkpt>
<trkpt lat="32.987339020" lon="35.526279449">
  <ele>700.489258</ele>
  <time>2011-10-15T07:32:15Z</time>
  <speed>3.360000</speed>
</trkpt>
<trkpt lat="32.987373352" lon="35.526275635">
  <ele>700.333008</ele>
  <time>2011-10-15T07:32:16Z</time>
  <speed>2.430000</speed>
</trkpt>
<trkpt lat="32.987403870" lon="35.526268005">
  <ele>700.192383</ele>
  <time>2011-10-15T07:32:17Z</time>
  <speed>2.830000</speed>
</trkpt>
<trkpt lat="32.987430573" lon="35.526264191">
  <ele>700.208008</ele>
  <time>2011-10-15T07:32:18Z</time>
  <speed>3.070000</speed>
</trkpt>
<trkpt lat="32.987472534" lon="35.526260376">
  <ele>701.333008</ele>
  <time>2011-10-15T07:32:19Z</time>
  <speed>3.710000</speed>
</trkpt>
<trkpt lat="32.987514496" lon="35.526264191">
  <ele>701.301758</ele>
  <time>2011-10-15T07:32:20Z</time>
  <speed>4.080000</speed>
</trkpt>
<trkpt lat="32.987556458" lon="35.526268005">
  <ele>701.254883</ele>
  <time>2011-10-15T07:32:21Z</time>
  <speed>4.210000</speed>
</trkpt>
<trkpt lat="32.987598419" lon="35.526264191">
  <ele>702.817383</ele>
  <time>2011-10-15T07:32:22Z</time>
  <speed>4.500000</speed>
</trkpt>
<trkpt lat="32.987648010" lon="35.526268005">
  <ele>703.161133</ele>
  <time>2011-10-15T07:32:23Z</time>
  <speed>4.390000</speed>
</trkpt>
<trkpt lat="32.987689972" lon="35.526264191">
  <ele>703.473633</ele>
  <time>2011-10-15T07:32:24Z</time>
  <speed>4.080000</speed>
</trkpt>
<trkpt lat="32.987720490" lon="35.526256561">
  <ele>704.348633</ele>
  <time>2011-10-15T07:32:25Z</time>
  <speed>3.450000</speed>
</trkpt>
<trkpt lat="32.987754822" lon="35.526245117">
  <ele>704.395508</ele>
  <time>2011-10-15T07:32:26Z</time>
  <speed>2.940000</speed>
</trkpt>
<trkpt lat="32.987789154" lon="35.526237488">
  <ele>704.411133</ele>
  <time>2011-10-15T07:32:27Z</time>
  <speed>2.680000</speed>
</trkpt>
<trkpt lat="32.987823486" lon="35.526229858">
  <ele>705.208008</ele>
  <time>2011-10-15T07:32:28Z</time>
  <speed>2.020000</speed>
</trkpt>
<trkpt lat="32.987857819" lon="35.526233673">
  <ele>705.458008</ele>
  <time>2011-10-15T07:32:29Z</time>
  <speed>2.480000</speed>
</trkpt>
<trkpt lat="32.987892151" lon="35.526222229">
  <ele>705.567383</ele>
  <time>2011-10-15T07:32:30Z</time>
  <speed>2.500000</speed>
</trkpt>
<trkpt lat="32.987937927" lon="35.526222229">
  <ele>705.348633</ele>
  <time>2011-10-15T07:32:31Z</time>
  <speed>2.530000</speed>
</trkpt>
<trkpt lat="32.987972260" lon="35.526214600">
  <ele>705.176758</ele>
  <time>2011-10-15T07:32:32Z</time>
  <speed>2.640000</speed>
</trkpt>
<trkpt lat="32.988002777" lon="35.526203156">
  <ele>704.879883</ele>
  <time>2011-10-15T07:32:33Z</time>
  <speed>2.410000</speed>
</trkpt>
<trkpt lat="32.988037109" lon="35.526191711">
  <ele>703.926758</ele>
  <time>2011-10-15T07:32:34Z</time>
  <speed>2.400000</speed>
</trkpt>
<trkpt lat="32.988094330" lon="35.526172638">
  <ele>703.895508</ele>
  <time>2011-10-15T07:32:36Z</time>
  <speed>2.310000</speed>
</trkpt>
<trkpt lat="32.988132477" lon="35.526165009">
  <ele>704.098633</ele>
  <time>2011-10-15T07:32:37Z</time>
  <speed>2.400000</speed>
</trkpt>
<trkpt lat="32.988166809" lon="35.526149750">
  <ele>704.239258</ele>
  <time>2011-10-15T07:32:38Z</time>
  <speed>2.950000</speed>
</trkpt>
<trkpt lat="32.988201141" lon="35.526145935">
  <ele>704.286133</ele>
  <time>2011-10-15T07:32:39Z</time>
  <speed>2.880000</speed>
</trkpt>
<trkpt lat="32.988231659" lon="35.526130676">
  <ele>704.770508</ele>
  <time>2011-10-15T07:32:40Z</time>
  <speed>3.000000</speed>
</trkpt>
<trkpt lat="32.988269806" lon="35.526111603">
  <ele>705.020508</ele>
  <time>2011-10-15T07:32:41Z</time>
  <speed>3.250000</speed>
</trkpt>
<trkpt lat="32.988334656" lon="35.526096344">
  <ele>704.348633</ele>
  <time>2011-10-15T07:32:42Z</time>
  <speed>3.240000</speed>
</trkpt>
<trkpt lat="32.988391876" lon="35.526077271">
  <ele>704.192383</ele>
  <time>2011-10-15T07:32:43Z</time>
  <speed>3.580000</speed>
</trkpt>
<trkpt lat="32.988418579" lon="35.526058197">
  <ele>704.364258</ele>
  <time>2011-10-15T07:32:44Z</time>
  <speed>3.290000</speed>
</trkpt>
<trkpt lat="32.988449097" lon="35.526031494">
  <ele>704.395508</ele>
  <time>2011-10-15T07:32:45Z</time>
  <speed>3.380000</speed>
</trkpt>
<trkpt lat="32.988491058" lon="35.526012421">
  <ele>704.567383</ele>
  <time>2011-10-15T07:32:46Z</time>
  <speed>3.500000</speed>
</trkpt>
<trkpt lat="32.988517761" lon="35.525974274">
  <ele>705.239258</ele>
  <time>2011-10-15T07:32:47Z</time>
  <speed>3.790000</speed>
</trkpt>
<trkpt lat="32.988540649" lon="35.525947571">
  <ele>705.333008</ele>
  <time>2011-10-15T07:32:48Z</time>
  <speed>3.610000</speed>
</trkpt>
<trkpt lat="32.988574982" lon="35.525913239">
  <ele>705.395508</ele>
  <time>2011-10-15T07:32:49Z</time>
  <speed>3.990000</speed>
</trkpt>
<trkpt lat="32.988605499" lon="35.525886536">
  <ele>705.661133</ele>
  <time>2011-10-15T07:32:50Z</time>
  <speed>4.380000</speed>
</trkpt>
<trkpt lat="32.988636017" lon="35.525859833">
  <ele>706.067383</ele>
  <time>2011-10-15T07:32:51Z</time>
  <speed>4.010000</speed>
</trkpt>
<trkpt lat="32.988662720" lon="35.525833130">
  <ele>706.317383</ele>
  <time>2011-10-15T07:32:52Z</time>
  <speed>4.290000</speed>
</trkpt>
<trkpt lat="32.988685608" lon="35.525798798">
  <ele>706.817383</ele>
  <time>2011-10-15T07:32:53Z</time>
  <speed>4.330000</speed>
</trkpt>
<trkpt lat="32.988700867" lon="35.525756836">
  <ele>706.864258</ele>
  <time>2011-10-15T07:32:54Z</time>
  <speed>4.300000</speed>
</trkpt>
<trkpt lat="32.988716125" lon="35.525726318">
  <ele>707.083008</ele>
  <time>2011-10-15T07:32:55Z</time>
  <speed>4.100000</speed>
</trkpt>
<trkpt lat="32.988742828" lon="35.525688171">
  <ele>707.223633</ele>
  <time>2011-10-15T07:32:56Z</time>
  <speed>3.930000</speed>
</trkpt>
<trkpt lat="32.988765717" lon="35.525657654">
  <ele>707.661133</ele>
  <time>2011-10-15T07:32:57Z</time>
  <speed>4.150000</speed>
</trkpt>
<trkpt lat="32.988784790" lon="35.525615692">
  <ele>708.176758</ele>
  <time>2011-10-15T07:32:58Z</time>
  <speed>3.770000</speed>
</trkpt>
<trkpt lat="32.988807678" lon="35.525581360">
  <ele>708.645508</ele>
  <time>2011-10-15T07:32:59Z</time>
  <speed>3.560000</speed>
</trkpt>
<trkpt lat="32.988834381" lon="35.525543213">
  <ele>708.786133</ele>
  <time>2011-10-15T07:33:00Z</time>
  <speed>3.960000</speed>
</trkpt>
<trkpt lat="32.988861084" lon="35.525520325">
  <ele>708.708008</ele>
  <time>2011-10-15T07:33:01Z</time>
  <speed>3.800000</speed>
</trkpt>
<trkpt lat="32.988891602" lon="35.525482178">
  <ele>708.958008</ele>
  <time>2011-10-15T07:33:02Z</time>
  <speed>3.850000</speed>
</trkpt>
<trkpt lat="32.988914490" lon="35.525444031">
  <ele>709.036133</ele>
  <time>2011-10-15T07:33:03Z</time>
  <speed>3.660000</speed>
</trkpt>
<trkpt lat="32.988945007" lon="35.525402069">
  <ele>708.661133</ele>
  <time>2011-10-15T07:33:04Z</time>
  <speed>3.470000</speed>
</trkpt>
<trkpt lat="32.988964081" lon="35.525375366">
  <ele>708.161133</ele>
  <time>2011-10-15T07:33:05Z</time>
  <speed>3.640000</speed>
</trkpt>
<trkpt lat="32.988983154" lon="35.525329590">
  <ele>707.692383</ele>
  <time>2011-10-15T07:33:06Z</time>
  <speed>3.350000</speed>
</trkpt>
<trkpt lat="32.989002228" lon="35.525302887">
  <ele>707.661133</ele>
  <time>2011-10-15T07:33:07Z</time>
  <speed>3.150000</speed>
</trkpt>
<trkpt lat="32.989021301" lon="35.525276184">
  <ele>706.442383</ele>
  <time>2011-10-15T07:33:08Z</time>
  <speed>3.020000</speed>
</trkpt>
<trkpt lat="32.989040375" lon="35.525226593">
  <ele>706.395508</ele>
  <time>2011-10-15T07:33:10Z</time>
  <speed>2.120000</speed>
</trkpt>
<trkpt lat="32.989051819" lon="35.525169373">
  <ele>706.551758</ele>
  <time>2011-10-15T07:33:12Z</time>
  <speed>2.370000</speed>
</trkpt>
<trkpt lat="32.989063263" lon="35.525135040">
  <ele>705.708008</ele>
  <time>2011-10-15T07:33:13Z</time>
  <speed>2.140000</speed>
</trkpt>
<trkpt lat="32.989089966" lon="35.525077820">
  <ele>705.083008</ele>
  <time>2011-10-15T07:33:15Z</time>
  <speed>2.540000</speed>
</trkpt>
<trkpt lat="32.989109039" lon="35.525028229">
  <ele>704.708008</ele>
  <time>2011-10-15T07:33:17Z</time>
  <speed>2.370000</speed>
</trkpt>
<trkpt lat="32.989120483" lon="35.524959564">
  <ele>703.692383</ele>
  <time>2011-10-15T07:33:19Z</time>
  <speed>2.860000</speed>
</trkpt>
<trkpt lat="32.989128113" lon="35.524917603">
  <ele>703.317383</ele>
  <time>2011-10-15T07:33:20Z</time>
  <speed>3.130000</speed>
</trkpt>
<trkpt lat="32.989135742" lon="35.524883270">
  <ele>702.833008</ele>
  <time>2011-10-15T07:33:21Z</time>
  <speed>2.850000</speed>
</trkpt>
<trkpt lat="32.989143372" lon="35.524852753">
  <ele>702.051758</ele>
  <time>2011-10-15T07:33:22Z</time>
  <speed>2.890000</speed>
</trkpt>
<trkpt lat="32.989143372" lon="35.524810791">
  <ele>702.020508</ele>
  <time>2011-10-15T07:33:23Z</time>
  <speed>2.650000</speed>
</trkpt>
<trkpt lat="32.989139557" lon="35.524776459">
  <ele>702.192383</ele>
  <time>2011-10-15T07:33:24Z</time>
  <speed>2.220000</speed>
</trkpt>
<trkpt lat="32.989135742" lon="35.524700165">
  <ele>701.411133</ele>
  <time>2011-10-15T07:33:26Z</time>
  <speed>2.020000</speed>
</trkpt>
<trkpt lat="32.989131927" lon="35.524642944">
  <ele>702.536133</ele>
  <time>2011-10-15T07:33:27Z</time>
  <speed>2.200000</speed>
</trkpt>
<trkpt lat="32.989139557" lon="35.524600983">
  <ele>701.864258</ele>
  <time>2011-10-15T07:33:29Z</time>
  <speed>1.810000</speed>
</trkpt>
<trkpt lat="32.989151001" lon="35.524559021">
  <ele>701.895508</ele>
  <time>2011-10-15T07:33:31Z</time>
  <speed>2.170000</speed>
</trkpt>
<trkpt lat="32.989158630" lon="35.524528503">
  <ele>701.614258</ele>
  <time>2011-10-15T07:33:32Z</time>
  <speed>2.190000</speed>
</trkpt>
<trkpt lat="32.989162445" lon="35.524478912">
  <ele>700.426758</ele>
  <time>2011-10-15T07:33:34Z</time>
  <speed>2.180000</speed>
</trkpt>
<trkpt lat="32.989181519" lon="35.524425507">
  <ele>700.270508</ele>
  <time>2011-10-15T07:33:36Z</time>
  <speed>2.570000</speed>
</trkpt>
<trkpt lat="32.989196777" lon="35.524398804">
  <ele>700.145508</ele>
  <time>2011-10-15T07:33:37Z</time>
  <speed>2.450000</speed>
</trkpt>
<trkpt lat="32.989189148" lon="35.524349213">
  <ele>699.598633</ele>
  <time>2011-10-15T07:33:39Z</time>
  <speed>1.940000</speed>
</trkpt>
<trkpt lat="32.989170074" lon="35.524303436">
  <ele>699.692383</ele>
  <time>2011-10-15T07:33:41Z</time>
  <speed>1.980000</speed>
</trkpt>
<trkpt lat="32.989170074" lon="35.524238586">
  <ele>700.364258</ele>
  <time>2011-10-15T07:33:43Z</time>
  <speed>2.360000</speed>
</trkpt>
<trkpt lat="32.989162445" lon="35.524192810">
  <ele>700.270508</ele>
  <time>2011-10-15T07:33:45Z</time>
  <speed>1.560000</speed>
</trkpt>
<trkpt lat="32.989170074" lon="35.524143219">
  <ele>700.536133</ele>
  <time>2011-10-15T07:33:48Z</time>
  <speed>2.010000</speed>
</trkpt>
<trkpt lat="32.989185333" lon="35.524108887">
  <ele>700.286133</ele>
  <time>2011-10-15T07:33:50Z</time>
  <speed>2.000000</speed>
</trkpt>
<trkpt lat="32.989192963" lon="35.524044037">
  <ele>699.317383</ele>
  <time>2011-10-15T07:33:52Z</time>
  <speed>2.430000</speed>
</trkpt>
<trkpt lat="32.989196777" lon="35.524009705">
  <ele>699.051758</ele>
  <time>2011-10-15T07:33:53Z</time>
  <speed>2.900000</speed>
</trkpt>
<trkpt lat="32.989208221" lon="35.523975372">
  <ele>698.989258</ele>
  <time>2011-10-15T07:33:54Z</time>
  <speed>3.100000</speed>
</trkpt>
<trkpt lat="32.989227295" lon="35.523952484">
  <ele>698.848633</ele>
  <time>2011-10-15T07:33:55Z</time>
  <speed>2.800000</speed>
</trkpt>
<trkpt lat="32.989261627" lon="35.523914337">
  <ele>699.333008</ele>
  <time>2011-10-15T07:33:57Z</time>
  <speed>1.600000</speed>
</trkpt>
<trkpt lat="32.989295959" lon="35.523895264">
  <ele>700.411133</ele>
  <time>2011-10-15T07:33:59Z</time>
  <speed>1.590000</speed>
</trkpt>
<trkpt lat="32.989322662" lon="35.523883820">
  <ele>701.129883</ele>
  <time>2011-10-15T07:34:01Z</time>
  <speed>1.220000</speed>
</trkpt>
<trkpt lat="32.989349365" lon="35.523883820">
  <ele>700.817383</ele>
  <time>2011-10-15T07:34:03Z</time>
  <speed>1.660000</speed>
</trkpt>
<trkpt lat="32.989379883" lon="35.523883820">
  <ele>700.817383</ele>
  <time>2011-10-15T07:34:05Z</time>
  <speed>2.110000</speed>
</trkpt>
<trkpt lat="32.989410400" lon="35.523864746">
  <ele>702.192383</ele>
  <time>2011-10-15T07:34:07Z</time>
  <speed>1.820000</speed>
</trkpt>
<trkpt lat="32.989433289" lon="35.523857117">
  <ele>703.270508</ele>
  <time>2011-10-15T07:34:16Z</time>
  <speed>0.060000</speed>
</trkpt>
<trkpt lat="32.989498138" lon="35.523887634">
  <ele>704.442383</ele>
  <time>2011-10-15T07:35:18Z</time>
  <speed>1.550000</speed>
</trkpt>
<trkpt lat="32.989616394" lon="35.523902893">
  <ele>705.145508</ele>
  <time>2011-10-15T07:35:19Z</time>
  <speed>5.690000</speed>
</trkpt>
<trkpt lat="32.989685059" lon="35.523914337">
  <ele>705.739258</ele>
  <time>2011-10-15T07:35:20Z</time>
  <speed>5.250000</speed>
</trkpt>
<trkpt lat="32.989723206" lon="35.523910522">
  <ele>706.208008</ele>
  <time>2011-10-15T07:35:21Z</time>
  <speed>4.800000</speed>
</trkpt>
<trkpt lat="32.989772797" lon="35.523910522">
  <ele>706.098633</ele>
  <time>2011-10-15T07:35:22Z</time>
  <speed>4.360000</speed>
</trkpt>
<trkpt lat="32.989810944" lon="35.523921967">
  <ele>705.708008</ele>
  <time>2011-10-15T07:35:23Z</time>
  <speed>3.870000</speed>
</trkpt>
<trkpt lat="32.989849091" lon="35.523921967">
  <ele>705.879883</ele>
  <time>2011-10-15T07:35:24Z</time>
  <speed>3.340000</speed>
</trkpt>
<trkpt lat="32.989894867" lon="35.523914337">
  <ele>705.708008</ele>
  <time>2011-10-15T07:35:25Z</time>
  <speed>2.870000</speed>
</trkpt>
<trkpt lat="32.989921570" lon="35.523910522">
  <ele>706.754883</ele>
  <time>2011-10-15T07:35:26Z</time>
  <speed>3.030000</speed>
</trkpt>
<trkpt lat="32.989952087" lon="35.523906708">
  <ele>707.270508</ele>
  <time>2011-10-15T07:35:27Z</time>
  <speed>2.920000</speed>
</trkpt>
<trkpt lat="32.989990234" lon="35.523906708">
  <ele>707.083008</ele>
  <time>2011-10-15T07:35:28Z</time>
  <speed>2.900000</speed>
</trkpt>
<trkpt lat="32.990016937" lon="35.523902893">
  <ele>707.395508</ele>
  <time>2011-10-15T07:35:29Z</time>
  <speed>2.750000</speed>
</trkpt>
<trkpt lat="32.990066528" lon="35.523887634">
  <ele>707.364258</ele>
  <time>2011-10-15T07:35:31Z</time>
  <speed>2.780000</speed>
</trkpt>
<trkpt lat="32.990097046" lon="35.523880005">
  <ele>707.833008</ele>
  <time>2011-10-15T07:35:32Z</time>
  <speed>3.080000</speed>
</trkpt>
<trkpt lat="32.990127563" lon="35.523868561">
  <ele>708.911133</ele>
  <time>2011-10-15T07:35:33Z</time>
  <speed>2.970000</speed>
</trkpt>
<trkpt lat="32.990158081" lon="35.523860931">
  <ele>709.614258</ele>
  <time>2011-10-15T07:35:34Z</time>
  <speed>2.980000</speed>
</trkpt>
<trkpt lat="32.990184784" lon="35.523845673">
  <ele>709.958008</ele>
  <time>2011-10-15T07:35:35Z</time>
  <speed>3.050000</speed>
</trkpt>
<trkpt lat="32.990207672" lon="35.523830414">
  <ele>710.473633</ele>
  <time>2011-10-15T07:35:36Z</time>
  <speed>3.290000</speed>
</trkpt>
<trkpt lat="32.990234375" lon="35.523811340">
  <ele>710.629883</ele>
  <time>2011-10-15T07:35:37Z</time>
  <speed>3.230000</speed>
</trkpt>
<trkpt lat="32.990261078" lon="35.523799896">
  <ele>710.551758</ele>
  <time>2011-10-15T07:35:38Z</time>
  <speed>3.020000</speed>
</trkpt>
<trkpt lat="32.990291595" lon="35.523777008">
  <ele>711.192383</ele>
  <time>2011-10-15T07:35:39Z</time>
  <speed>3.440000</speed>
</trkpt>
<trkpt lat="32.990322113" lon="35.523761749">
  <ele>712.129883</ele>
  <time>2011-10-15T07:35:40Z</time>
  <speed>3.380000</speed>
</trkpt>
<trkpt lat="32.990356445" lon="35.523761749">
  <ele>712.583008</ele>
  <time>2011-10-15T07:35:41Z</time>
  <speed>3.580000</speed>
</trkpt>
<trkpt lat="32.990390778" lon="35.523750305">
  <ele>713.208008</ele>
  <time>2011-10-15T07:35:42Z</time>
  <speed>3.780000</speed>
</trkpt>
<trkpt lat="32.990421295" lon="35.523731232">
  <ele>713.895508</ele>
  <time>2011-10-15T07:35:43Z</time>
  <speed>3.450000</speed>
</trkpt>
<trkpt lat="32.990451813" lon="35.523712158">
  <ele>714.270508</ele>
  <time>2011-10-15T07:35:44Z</time>
  <speed>3.420000</speed>
</trkpt>
<trkpt lat="32.990478516" lon="35.523693085">
  <ele>714.911133</ele>
  <time>2011-10-15T07:35:45Z</time>
  <speed>3.570000</speed>
</trkpt>
<trkpt lat="32.990509033" lon="35.523677826">
  <ele>715.051758</ele>
  <time>2011-10-15T07:35:46Z</time>
  <speed>3.410000</speed>
</trkpt>
<trkpt lat="32.990539551" lon="35.523662567">
  <ele>715.192383</ele>
  <time>2011-10-15T07:35:47Z</time>
  <speed>3.440000</speed>
</trkpt>
<trkpt lat="32.990570068" lon="35.523643494">
  <ele>715.661133</ele>
  <time>2011-10-15T07:35:48Z</time>
  <speed>3.420000</speed>
</trkpt>
<trkpt lat="32.990596771" lon="35.523624420">
  <ele>716.286133</ele>
  <time>2011-10-15T07:35:49Z</time>
  <speed>3.470000</speed>
</trkpt>
<trkpt lat="32.990623474" lon="35.523597717">
  <ele>716.973633</ele>
  <time>2011-10-15T07:35:50Z</time>
  <speed>3.560000</speed>
</trkpt>
<trkpt lat="32.990653992" lon="35.523590088">
  <ele>717.083008</ele>
  <time>2011-10-15T07:35:51Z</time>
  <speed>3.780000</speed>
</trkpt>
<trkpt lat="32.990680695" lon="35.523578644">
  <ele>716.879883</ele>
  <time>2011-10-15T07:35:52Z</time>
  <speed>2.920000</speed>
</trkpt>
<trkpt lat="32.990711212" lon="35.523571014">
  <ele>717.083008</ele>
  <time>2011-10-15T07:35:53Z</time>
  <speed>2.610000</speed>
</trkpt>
<trkpt lat="32.990749359" lon="35.523551941">
  <ele>717.817383</ele>
  <time>2011-10-15T07:35:55Z</time>
  <speed>2.700000</speed>
</trkpt>
<trkpt lat="32.990776062" lon="35.523551941">
  <ele>718.083008</ele>
  <time>2011-10-15T07:35:56Z</time>
  <speed>2.760000</speed>
</trkpt>
<trkpt lat="32.990806580" lon="35.523548126">
  <ele>718.426758</ele>
  <time>2011-10-15T07:35:57Z</time>
  <speed>2.920000</speed>
</trkpt>
<trkpt lat="32.990833282" lon="35.523536682">
  <ele>718.583008</ele>
  <time>2011-10-15T07:35:58Z</time>
  <speed>2.890000</speed>
</trkpt>
<trkpt lat="32.990882874" lon="35.523517609">
  <ele>718.739258</ele>
  <time>2011-10-15T07:36:00Z</time>
  <speed>2.960000</speed>
</trkpt>
<trkpt lat="32.990932465" lon="35.523506165">
  <ele>718.848633</ele>
  <time>2011-10-15T07:36:02Z</time>
  <speed>2.780000</speed>
</trkpt>
<trkpt lat="32.990974426" lon="35.523483276">
  <ele>719.239258</ele>
  <time>2011-10-15T07:36:04Z</time>
  <speed>2.560000</speed>
</trkpt>
<trkpt lat="32.991004944" lon="35.523471832">
  <ele>719.317383</ele>
  <time>2011-10-15T07:36:05Z</time>
  <speed>2.530000</speed>
</trkpt>
<trkpt lat="32.991035461" lon="35.523456573">
  <ele>719.629883</ele>
  <time>2011-10-15T07:36:07Z</time>
  <speed>2.190000</speed>
</trkpt>
<trkpt lat="32.991058350" lon="35.523433685">
  <ele>719.692383</ele>
  <time>2011-10-15T07:36:08Z</time>
  <speed>2.570000</speed>
</trkpt>
<trkpt lat="32.991085052" lon="35.523426056">
  <ele>720.364258</ele>
  <time>2011-10-15T07:36:09Z</time>
  <speed>2.640000</speed>
</trkpt>
<trkpt lat="32.991123199" lon="35.523422241">
  <ele>720.958008</ele>
  <time>2011-10-15T07:36:10Z</time>
  <speed>2.710000</speed>
</trkpt>
<trkpt lat="32.991146088" lon="35.523403168">
  <ele>721.208008</ele>
  <time>2011-10-15T07:36:11Z</time>
  <speed>2.960000</speed>
</trkpt>
<trkpt lat="32.991176605" lon="35.523380280">
  <ele>721.520508</ele>
  <time>2011-10-15T07:36:12Z</time>
  <speed>3.500000</speed>
</trkpt>
<trkpt lat="32.991195679" lon="35.523334503">
  <ele>722.426758</ele>
  <time>2011-10-15T07:36:13Z</time>
  <speed>3.950000</speed>
</trkpt>
<trkpt lat="32.991226196" lon="35.523315430">
  <ele>722.504883</ele>
  <time>2011-10-15T07:36:14Z</time>
  <speed>4.320000</speed>
</trkpt>
<trkpt lat="32.991268158" lon="35.523296356">
  <ele>722.754883</ele>
  <time>2011-10-15T07:36:15Z</time>
  <speed>4.810000</speed>
</trkpt>
<trkpt lat="32.991310120" lon="35.523296356">
  <ele>722.098633</ele>
  <time>2011-10-15T07:36:16Z</time>
  <speed>4.760000</speed>
</trkpt>
<trkpt lat="32.991352081" lon="35.523288727">
  <ele>722.942383</ele>
  <time>2011-10-15T07:36:17Z</time>
  <speed>5.120000</speed>
</trkpt>
<trkpt lat="32.991397858" lon="35.523284912">
  <ele>723.254883</ele>
  <time>2011-10-15T07:36:18Z</time>
  <speed>5.270000</speed>
</trkpt>
<trkpt lat="32.991447449" lon="35.523292542">
  <ele>723.020508</ele>
  <time>2011-10-15T07:36:19Z</time>
  <speed>5.060000</speed>
</trkpt>
<trkpt lat="32.991489410" lon="35.523288727">
  <ele>722.442383</ele>
  <time>2011-10-15T07:36:20Z</time>
  <speed>4.320000</speed>
</trkpt>
<trkpt lat="32.991527557" lon="35.523300171">
  <ele>721.364258</ele>
  <time>2011-10-15T07:36:21Z</time>
  <speed>3.580000</speed>
</trkpt>
<trkpt lat="32.991580963" lon="35.523319244">
  <ele>720.114258</ele>
  <time>2011-10-15T07:36:22Z</time>
  <speed>3.260000</speed>
</trkpt>
<trkpt lat="32.991603851" lon="35.523345947">
  <ele>719.395508</ele>
  <time>2011-10-15T07:36:23Z</time>
  <speed>2.930000</speed>
</trkpt>
<trkpt lat="32.991607666" lon="35.523384094">
  <ele>717.739258</ele>
  <time>2011-10-15T07:36:24Z</time>
  <speed>3.370000</speed>
</trkpt>
<trkpt lat="32.991634369" lon="35.523426056">
  <ele>716.786133</ele>
  <time>2011-10-15T07:36:25Z</time>
  <speed>4.410000</speed>
</trkpt>
<trkpt lat="32.991668701" lon="35.523483276">
  <ele>715.551758</ele>
  <time>2011-10-15T07:36:26Z</time>
  <speed>6.370000</speed>
</trkpt>
<trkpt lat="32.991676331" lon="35.523555756">
  <ele>714.254883</ele>
  <time>2011-10-15T07:36:27Z</time>
  <speed>6.710000</speed>
</trkpt>
<trkpt lat="32.991687775" lon="35.523620605">
  <ele>713.520508</ele>
  <time>2011-10-15T07:36:28Z</time>
  <speed>5.730000</speed>
</trkpt>
<trkpt lat="32.991691589" lon="35.523666382">
  <ele>712.801758</ele>
  <time>2011-10-15T07:36:29Z</time>
  <speed>3.820000</speed>
</trkpt>
<trkpt lat="32.991703033" lon="35.523719788">
  <ele>712.333008</ele>
  <time>2011-10-15T07:36:30Z</time>
  <speed>3.540000</speed>
</trkpt>
<trkpt lat="32.991718292" lon="35.523754120">
  <ele>711.551758</ele>
  <time>2011-10-15T07:36:31Z</time>
  <speed>3.040000</speed>
</trkpt>
<trkpt lat="32.991741180" lon="35.523803711">
  <ele>710.786133</ele>
  <time>2011-10-15T07:36:32Z</time>
  <speed>3.590000</speed>
</trkpt>
<trkpt lat="32.991752625" lon="35.523838043">
  <ele>710.270508</ele>
  <time>2011-10-15T07:36:33Z</time>
  <speed>3.670000</speed>
</trkpt>
<trkpt lat="32.991775513" lon="35.523876190">
  <ele>709.395508</ele>
  <time>2011-10-15T07:36:34Z</time>
  <speed>3.790000</speed>
</trkpt>
<trkpt lat="32.991806030" lon="35.523906708">
  <ele>708.661133</ele>
  <time>2011-10-15T07:36:35Z</time>
  <speed>3.670000</speed>
</trkpt>
<trkpt lat="32.991832733" lon="35.523941040">
  <ele>707.926758</ele>
  <time>2011-10-15T07:36:36Z</time>
  <speed>4.350000</speed>
</trkpt>
<trkpt lat="32.991874695" lon="35.523979187">
  <ele>707.254883</ele>
  <time>2011-10-15T07:36:37Z</time>
  <speed>5.280000</speed>
</trkpt>
<trkpt lat="32.991916656" lon="35.524017334">
  <ele>706.520508</ele>
  <time>2011-10-15T07:36:38Z</time>
  <speed>5.020000</speed>
</trkpt>
<trkpt lat="32.991954803" lon="35.524066925">
  <ele>705.786133</ele>
  <time>2011-10-15T07:36:39Z</time>
  <speed>4.730000</speed>
</trkpt>
<trkpt lat="32.991992950" lon="35.524093628">
  <ele>705.145508</ele>
  <time>2011-10-15T07:36:40Z</time>
  <speed>4.620000</speed>
</trkpt>
<trkpt lat="32.992027283" lon="35.524135590">
  <ele>704.379883</ele>
  <time>2011-10-15T07:36:41Z</time>
  <speed>5.370000</speed>
</trkpt>
<trkpt lat="32.992092133" lon="35.524177551">
  <ele>704.286133</ele>
  <time>2011-10-15T07:36:42Z</time>
  <speed>5.520000</speed>
</trkpt>
<trkpt lat="32.992126465" lon="35.524215698">
  <ele>703.817383</ele>
  <time>2011-10-15T07:36:43Z</time>
  <speed>5.340000</speed>
</trkpt>
<trkpt lat="32.992198944" lon="35.524257660">
  <ele>702.692383</ele>
  <time>2011-10-15T07:36:44Z</time>
  <speed>4.840000</speed>
</trkpt>
<trkpt lat="32.992229462" lon="35.524303436">
  <ele>701.895508</ele>
  <time>2011-10-15T07:36:45Z</time>
  <speed>4.100000</speed>
</trkpt>
<trkpt lat="32.992282867" lon="35.524353027">
  <ele>701.614258</ele>
  <time>2011-10-15T07:36:46Z</time>
  <speed>3.980000</speed>
</trkpt>
<trkpt lat="32.992309570" lon="35.524383545">
  <ele>701.083008</ele>
  <time>2011-10-15T07:36:47Z</time>
  <speed>4.130000</speed>
</trkpt>
<trkpt lat="32.992359161" lon="35.524410248">
  <ele>700.551758</ele>
  <time>2011-10-15T07:36:48Z</time>
  <speed>5.030000</speed>
</trkpt>
<trkpt lat="32.992408752" lon="35.524433136">
  <ele>700.567383</ele>
  <time>2011-10-15T07:36:49Z</time>
  <speed>5.020000</speed>
</trkpt>
<trkpt lat="32.992454529" lon="35.524459839">
  <ele>699.833008</ele>
  <time>2011-10-15T07:36:50Z</time>
  <speed>4.750000</speed>
</trkpt>
<trkpt lat="32.992496490" lon="35.524486542">
  <ele>700.317383</ele>
  <time>2011-10-15T07:36:51Z</time>
  <speed>5.200000</speed>
</trkpt>
<trkpt lat="32.992534637" lon="35.524513245">
  <ele>700.145508</ele>
  <time>2011-10-15T07:36:52Z</time>
  <speed>4.910000</speed>
</trkpt>
<trkpt lat="32.992568970" lon="35.524536133">
  <ele>699.989258</ele>
  <time>2011-10-15T07:36:53Z</time>
  <speed>4.920000</speed>
</trkpt>
<trkpt lat="32.992603302" lon="35.524559021">
  <ele>699.661133</ele>
  <time>2011-10-15T07:36:54Z</time>
  <speed>5.050000</speed>
</trkpt>
<trkpt lat="32.992630005" lon="35.524612427">
  <ele>699.458008</ele>
  <time>2011-10-15T07:36:55Z</time>
  <speed>5.640000</speed>
</trkpt>
<trkpt lat="32.992660522" lon="35.524658203">
  <ele>698.786133</ele>
  <time>2011-10-15T07:36:56Z</time>
  <speed>4.820000</speed>
</trkpt>
<trkpt lat="32.992713928" lon="35.524703979">
  <ele>698.270508</ele>
  <time>2011-10-15T07:36:57Z</time>
  <speed>6.490000</speed>
</trkpt>
<trkpt lat="32.992759705" lon="35.524749756">
  <ele>697.754883</ele>
  <time>2011-10-15T07:36:58Z</time>
  <speed>6.580000</speed>
</trkpt>
<trkpt lat="32.992813110" lon="35.524787903">
  <ele>697.083008</ele>
  <time>2011-10-15T07:36:59Z</time>
  <speed>6.380000</speed>
</trkpt>
<trkpt lat="32.992866516" lon="35.524818420">
  <ele>696.676758</ele>
  <time>2011-10-15T07:37:00Z</time>
  <speed>6.210000</speed>
</trkpt>
<trkpt lat="32.992916107" lon="35.524864197">
  <ele>696.239258</ele>
  <time>2011-10-15T07:37:01Z</time>
  <speed>6.280000</speed>
</trkpt>
<trkpt lat="32.992961884" lon="35.524898529">
  <ele>695.676758</ele>
  <time>2011-10-15T07:37:02Z</time>
  <speed>5.750000</speed>
</trkpt>
<trkpt lat="32.993026733" lon="35.524932861">
  <ele>695.004883</ele>
  <time>2011-10-15T07:37:03Z</time>
  <speed>6.750000</speed>
</trkpt>
<trkpt lat="32.993080139" lon="35.524959564">
  <ele>694.379883</ele>
  <time>2011-10-15T07:37:04Z</time>
  <speed>6.500000</speed>
</trkpt>
<trkpt lat="32.993125916" lon="35.524971008">
  <ele>693.911133</ele>
  <time>2011-10-15T07:37:05Z</time>
  <speed>6.220000</speed>
</trkpt>
<trkpt lat="32.993183136" lon="35.524990082">
  <ele>693.239258</ele>
  <time>2011-10-15T07:37:06Z</time>
  <speed>6.120000</speed>
</trkpt>
<trkpt lat="32.993244171" lon="35.524997711">
  <ele>692.942383</ele>
  <time>2011-10-15T07:37:07Z</time>
  <speed>6.480000</speed>
</trkpt>
<trkpt lat="32.993301392" lon="35.525012970">
  <ele>692.395508</ele>
  <time>2011-10-15T07:37:08Z</time>
  <speed>6.530000</speed>
</trkpt>
<trkpt lat="32.993350983" lon="35.525054932">
  <ele>691.989258</ele>
  <time>2011-10-15T07:37:09Z</time>
  <speed>6.360000</speed>
</trkpt>
<trkpt lat="32.993423462" lon="35.525077820">
  <ele>692.176758</ele>
  <time>2011-10-15T07:37:10Z</time>
  <speed>6.790000</speed>
</trkpt>
<trkpt lat="32.993495941" lon="35.525108337">
  <ele>692.161133</ele>
  <time>2011-10-15T07:37:11Z</time>
  <speed>7.500000</speed>
</trkpt>
<trkpt lat="32.993568420" lon="35.525135040">
  <ele>691.567383</ele>
  <time>2011-10-15T07:37:12Z</time>
  <speed>7.490000</speed>
</trkpt>
<trkpt lat="32.993656158" lon="35.525154114">
  <ele>690.801758</ele>
  <time>2011-10-15T07:37:13Z</time>
  <speed>7.930000</speed>
</trkpt>
<trkpt lat="32.993728638" lon="35.525165558">
  <ele>690.473633</ele>
  <time>2011-10-15T07:37:14Z</time>
  <speed>7.480000</speed>
</trkpt>
<trkpt lat="32.993785858" lon="35.525161743">
  <ele>689.942383</ele>
  <time>2011-10-15T07:37:15Z</time>
  <speed>6.310000</speed>
</trkpt>
<trkpt lat="32.993843079" lon="35.525138855">
  <ele>689.770508</ele>
  <time>2011-10-15T07:37:16Z</time>
  <speed>6.000000</speed>
</trkpt>
<trkpt lat="32.993900299" lon="35.525127411">
  <ele>689.458008</ele>
  <time>2011-10-15T07:37:17Z</time>
  <speed>6.030000</speed>
</trkpt>
<trkpt lat="32.993957520" lon="35.525127411">
  <ele>689.676758</ele>
  <time>2011-10-15T07:37:18Z</time>
  <speed>5.370000</speed>
</trkpt>
<trkpt lat="32.993999481" lon="35.525138855">
  <ele>690.192383</ele>
  <time>2011-10-15T07:37:19Z</time>
  <speed>4.910000</speed>
</trkpt>
<trkpt lat="32.994083405" lon="35.525115967">
  <ele>690.567383</ele>
  <time>2011-10-15T07:37:20Z</time>
  <speed>5.930000</speed>
</trkpt>
<trkpt lat="32.994132996" lon="35.525115967">
  <ele>690.286133</ele>
  <time>2011-10-15T07:37:21Z</time>
  <speed>4.880000</speed>
</trkpt>
<trkpt lat="32.994171143" lon="35.525127411">
  <ele>690.270508</ele>
  <time>2011-10-15T07:37:22Z</time>
  <speed>4.060000</speed>
</trkpt>
<trkpt lat="32.994224548" lon="35.525157928">
  <ele>689.286133</ele>
  <time>2011-10-15T07:37:23Z</time>
  <speed>4.510000</speed>
</trkpt>
<trkpt lat="32.994285583" lon="35.525215149">
  <ele>687.926758</ele>
  <time>2011-10-15T07:37:24Z</time>
  <speed>5.150000</speed>
</trkpt>
<trkpt lat="32.994297028" lon="35.525272369">
  <ele>687.504883</ele>
  <time>2011-10-15T07:37:25Z</time>
  <speed>5.030000</speed>
</trkpt>
<trkpt lat="32.994289398" lon="35.525325775">
  <ele>687.317383</ele>
  <time>2011-10-15T07:37:26Z</time>
  <speed>4.980000</speed>
</trkpt>
<trkpt lat="32.994300842" lon="35.525375366">
  <ele>686.801758</ele>
  <time>2011-10-15T07:37:27Z</time>
  <speed>4.400000</speed>
</trkpt>
<trkpt lat="32.994297028" lon="35.525417328">
  <ele>686.536133</ele>
  <time>2011-10-15T07:37:28Z</time>
  <speed>4.720000</speed>
</trkpt>
<trkpt lat="32.994281769" lon="35.525478363">
  <ele>687.379883</ele>
  <time>2011-10-15T07:37:29Z</time>
  <speed>6.080000</speed>
</trkpt>
<trkpt lat="32.994285583" lon="35.525550842">
  <ele>686.895508</ele>
  <time>2011-10-15T07:37:30Z</time>
  <speed>6.450000</speed>
</trkpt>
<trkpt lat="32.994285583" lon="35.525619507">
  <ele>686.536133</ele>
  <time>2011-10-15T07:37:31Z</time>
  <speed>5.980000</speed>
</trkpt>
<trkpt lat="32.994285583" lon="35.525676727">
  <ele>686.161133</ele>
  <time>2011-10-15T07:37:32Z</time>
  <speed>5.180000</speed>
</trkpt>
<trkpt lat="32.994274139" lon="35.525718689">
  <ele>685.786133</ele>
  <time>2011-10-15T07:37:33Z</time>
  <speed>3.790000</speed>
</trkpt>
<trkpt lat="32.994255066" lon="35.525760651">
  <ele>685.458008</ele>
  <time>2011-10-15T07:37:34Z</time>
  <speed>4.160000</speed>
</trkpt>
<trkpt lat="32.994247437" lon="35.525817871">
  <ele>685.020508</ele>
  <time>2011-10-15T07:37:35Z</time>
  <speed>4.550000</speed>
</trkpt>
<trkpt lat="32.994232178" lon="35.525863647">
  <ele>684.723633</ele>
  <time>2011-10-15T07:37:36Z</time>
  <speed>4.230000</speed>
</trkpt>
<trkpt lat="32.994186401" lon="35.525905609">
  <ele>684.723633</ele>
  <time>2011-10-15T07:37:37Z</time>
  <speed>4.910000</speed>
</trkpt>
<trkpt lat="32.994163513" lon="35.525970459">
  <ele>684.348633</ele>
  <time>2011-10-15T07:37:38Z</time>
  <speed>5.110000</speed>
</trkpt>
<trkpt lat="32.994136810" lon="35.526020050">
  <ele>683.879883</ele>
  <time>2011-10-15T07:37:39Z</time>
  <speed>4.770000</speed>
</trkpt>
<trkpt lat="32.994121552" lon="35.526062012">
  <ele>683.473633</ele>
  <time>2011-10-15T07:37:40Z</time>
  <speed>3.950000</speed>
</trkpt>
<trkpt lat="32.994113922" lon="35.526138306">
  <ele>682.770508</ele>
  <time>2011-10-15T07:37:41Z</time>
  <speed>4.750000</speed>
</trkpt>
<trkpt lat="32.994087219" lon="35.526172638">
  <ele>682.442383</ele>
  <time>2011-10-15T07:37:42Z</time>
  <speed>3.190000</speed>
</trkpt>
<trkpt lat="32.994060516" lon="35.526199341">
  <ele>681.817383</ele>
  <time>2011-10-15T07:37:43Z</time>
  <speed>3.330000</speed>
</trkpt>
<trkpt lat="32.994026184" lon="35.526218414">
  <ele>681.364258</ele>
  <time>2011-10-15T07:37:44Z</time>
  <speed>3.630000</speed>
</trkpt>
<trkpt lat="32.993965149" lon="35.526241302">
  <ele>680.504883</ele>
  <time>2011-10-15T07:37:45Z</time>
  <speed>4.620000</speed>
</trkpt>
<trkpt lat="32.993900299" lon="35.526260376">
  <ele>680.129883</ele>
  <time>2011-10-15T07:37:46Z</time>
  <speed>4.880000</speed>
</trkpt>
<trkpt lat="32.993858337" lon="35.526283264">
  <ele>679.458008</ele>
  <time>2011-10-15T07:37:47Z</time>
  <speed>3.700000</speed>
</trkpt>
<trkpt lat="32.993820190" lon="35.526332855">
  <ele>678.379883</ele>
  <time>2011-10-15T07:37:48Z</time>
  <speed>5.470000</speed>
</trkpt>
<trkpt lat="32.993747711" lon="35.526386261">
  <ele>676.989258</ele>
  <time>2011-10-15T07:37:49Z</time>
  <speed>4.860000</speed>
</trkpt>
<trkpt lat="32.993721008" lon="35.526428223">
  <ele>676.395508</ele>
  <time>2011-10-15T07:37:50Z</time>
  <speed>4.960000</speed>
</trkpt>
<trkpt lat="32.993675232" lon="35.526485443">
  <ele>675.708008</ele>
  <time>2011-10-15T07:37:51Z</time>
  <speed>5.920000</speed>
</trkpt>
<trkpt lat="32.993614197" lon="35.526561737">
  <ele>674.989258</ele>
  <time>2011-10-15T07:37:52Z</time>
  <speed>6.540000</speed>
</trkpt>
<trkpt lat="32.993583679" lon="35.526622772">
  <ele>674.286133</ele>
  <time>2011-10-15T07:37:53Z</time>
  <speed>6.000000</speed>
</trkpt>
<trkpt lat="32.993534088" lon="35.526699066">
  <ele>672.723633</ele>
  <time>2011-10-15T07:37:54Z</time>
  <speed>7.360000</speed>
</trkpt>
<trkpt lat="32.993492126" lon="35.526763916">
  <ele>671.958008</ele>
  <time>2011-10-15T07:37:55Z</time>
  <speed>7.370000</speed>
</trkpt>
<trkpt lat="32.993438721" lon="35.526847839">
  <ele>670.661133</ele>
  <time>2011-10-15T07:37:56Z</time>
  <speed>7.430000</speed>
</trkpt>
<trkpt lat="32.993423462" lon="35.526920319">
  <ele>669.504883</ele>
  <time>2011-10-15T07:37:57Z</time>
  <speed>6.210000</speed>
</trkpt>
<trkpt lat="32.993396759" lon="35.526985168">
  <ele>668.864258</ele>
  <time>2011-10-15T07:37:58Z</time>
  <speed>6.560000</speed>
</trkpt>
<trkpt lat="32.993377686" lon="35.527061462">
  <ele>668.004883</ele>
  <time>2011-10-15T07:37:59Z</time>
  <speed>5.930000</speed>
</trkpt>
<trkpt lat="32.993358612" lon="35.527122498">
  <ele>667.098633</ele>
  <time>2011-10-15T07:38:00Z</time>
  <speed>5.980000</speed>
</trkpt>
<trkpt lat="32.993339539" lon="35.527194977">
  <ele>666.661133</ele>
  <time>2011-10-15T07:38:01Z</time>
  <speed>6.380000</speed>
</trkpt>
<trkpt lat="32.993331909" lon="35.527271271">
  <ele>665.958008</ele>
  <time>2011-10-15T07:38:02Z</time>
  <speed>6.610000</speed>
</trkpt>
<trkpt lat="32.993328094" lon="35.527347565">
  <ele>665.254883</ele>
  <time>2011-10-15T07:38:03Z</time>
  <speed>6.750000</speed>
</trkpt>
<trkpt lat="32.993312836" lon="35.527439117">
  <ele>663.551758</ele>
  <time>2011-10-15T07:38:04Z</time>
  <speed>6.380000</speed>
</trkpt>
<trkpt lat="32.993309021" lon="35.527534485">
  <ele>663.286133</ele>
  <time>2011-10-15T07:38:05Z</time>
  <speed>7.470000</speed>
</trkpt>
<trkpt lat="32.993305206" lon="35.527637482">
  <ele>663.926758</ele>
  <time>2011-10-15T07:38:06Z</time>
  <speed>7.960000</speed>
</trkpt>
<trkpt lat="32.993309021" lon="35.527717590">
  <ele>663.254883</ele>
  <time>2011-10-15T07:38:07Z</time>
  <speed>6.980000</speed>
</trkpt>
<trkpt lat="32.993297577" lon="35.527812958">
  <ele>662.536133</ele>
  <time>2011-10-15T07:38:08Z</time>
  <speed>7.500000</speed>
</trkpt>
<trkpt lat="32.993293762" lon="35.527893066">
  <ele>661.739258</ele>
  <time>2011-10-15T07:38:09Z</time>
  <speed>7.920000</speed>
</trkpt>
<trkpt lat="32.993305206" lon="35.527992249">
  <ele>660.270508</ele>
  <time>2011-10-15T07:38:10Z</time>
  <speed>7.250000</speed>
</trkpt>
<trkpt lat="32.993320465" lon="35.528060913">
  <ele>659.973633</ele>
  <time>2011-10-15T07:38:11Z</time>
  <speed>6.610000</speed>
</trkpt>
<trkpt lat="32.993328094" lon="35.528133392">
  <ele>659.317383</ele>
  <time>2011-10-15T07:38:12Z</time>
  <speed>6.480000</speed>
</trkpt>
<trkpt lat="32.993354797" lon="35.528190613">
  <ele>659.551758</ele>
  <time>2011-10-15T07:38:13Z</time>
  <speed>5.920000</speed>
</trkpt>
<trkpt lat="32.993381500" lon="35.528247833">
  <ele>658.676758</ele>
  <time>2011-10-15T07:38:14Z</time>
  <speed>5.580000</speed>
</trkpt>
<trkpt lat="32.993450165" lon="35.528312683">
  <ele>660.379883</ele>
  <time>2011-10-15T07:38:15Z</time>
  <speed>6.260000</speed>
</trkpt>
<trkpt lat="32.993492126" lon="35.528354645">
  <ele>660.661133</ele>
  <time>2011-10-15T07:38:16Z</time>
  <speed>6.070000</speed>
</trkpt>
<trkpt lat="32.993526459" lon="35.528408051">
  <ele>660.598633</ele>
  <time>2011-10-15T07:38:17Z</time>
  <speed>6.200000</speed>
</trkpt>
<trkpt lat="32.993564606" lon="35.528461456">
  <ele>660.004883</ele>
  <time>2011-10-15T07:38:18Z</time>
  <speed>6.100000</speed>
</trkpt>
<trkpt lat="32.993595123" lon="35.528526306">
  <ele>659.833008</ele>
  <time>2011-10-15T07:38:19Z</time>
  <speed>6.700000</speed>
</trkpt>
<trkpt lat="32.993640900" lon="35.528583527">
  <ele>659.879883</ele>
  <time>2011-10-15T07:38:20Z</time>
  <speed>6.820000</speed>
</trkpt>
<trkpt lat="32.993682861" lon="35.528644562">
  <ele>659.926758</ele>
  <time>2011-10-15T07:38:21Z</time>
  <speed>7.510000</speed>
</trkpt>
<trkpt lat="32.993732452" lon="35.528728485">
  <ele>661.223633</ele>
  <time>2011-10-15T07:38:22Z</time>
  <speed>8.460000</speed>
</trkpt>
<trkpt lat="32.993778229" lon="35.528812408">
  <ele>661.161133</ele>
  <time>2011-10-15T07:38:23Z</time>
  <speed>8.740000</speed>
</trkpt>
<trkpt lat="32.993808746" lon="35.528903961">
  <ele>660.723633</ele>
  <time>2011-10-15T07:38:24Z</time>
  <speed>8.880000</speed>
</trkpt>
<trkpt lat="32.993835449" lon="35.528995514">
  <ele>660.723633</ele>
  <time>2011-10-15T07:38:25Z</time>
  <speed>8.810000</speed>
</trkpt>
<trkpt lat="32.993839264" lon="35.529098511">
  <ele>660.442383</ele>
  <time>2011-10-15T07:38:26Z</time>
  <speed>9.090000</speed>
</trkpt>
<trkpt lat="32.993839264" lon="35.529205322">
  <ele>660.254883</ele>
  <time>2011-10-15T07:38:27Z</time>
  <speed>9.430001</speed>
</trkpt>
<trkpt lat="32.993843079" lon="35.529308319">
  <ele>659.973633</ele>
  <time>2011-10-15T07:38:28Z</time>
  <speed>9.270000</speed>
</trkpt>
<trkpt lat="32.993843079" lon="35.529407501">
  <ele>659.411133</ele>
  <time>2011-10-15T07:38:29Z</time>
  <speed>9.120000</speed>
</trkpt>
<trkpt lat="32.993839264" lon="35.529495239">
  <ele>659.223633</ele>
  <time>2011-10-15T07:38:30Z</time>
  <speed>7.610000</speed>
</trkpt>
<trkpt lat="32.993827820" lon="35.529579163">
  <ele>658.848633</ele>
  <time>2011-10-15T07:38:31Z</time>
  <speed>8.040000</speed>
</trkpt>
<trkpt lat="32.993854523" lon="35.529682159">
  <ele>657.754883</ele>
  <time>2011-10-15T07:38:32Z</time>
  <speed>8.310000</speed>
</trkpt>
<trkpt lat="32.993801117" lon="35.529720306">
  <ele>657.661133</ele>
  <time>2011-10-15T07:38:33Z</time>
  <speed>6.490000</speed>
</trkpt>
<trkpt lat="32.993804932" lon="35.529769897">
  <ele>657.161133</ele>
  <time>2011-10-15T07:38:34Z</time>
  <speed>4.160000</speed>
</trkpt>
<trkpt lat="32.993797302" lon="35.529819489">
  <ele>656.661133</ele>
  <time>2011-10-15T07:38:35Z</time>
  <speed>3.670000</speed>
</trkpt>
<trkpt lat="32.993774414" lon="35.529869080">
  <ele>656.317383</ele>
  <time>2011-10-15T07:38:36Z</time>
  <speed>4.380000</speed>
</trkpt>
<trkpt lat="32.993747711" lon="35.529914856">
  <ele>656.067383</ele>
  <time>2011-10-15T07:38:37Z</time>
  <speed>4.280000</speed>
</trkpt>
<trkpt lat="32.993713379" lon="35.529960632">
  <ele>655.676758</ele>
  <time>2011-10-15T07:38:38Z</time>
  <speed>4.700000</speed>
</trkpt>
<trkpt lat="32.993675232" lon="35.529991150">
  <ele>655.270508</ele>
  <time>2011-10-15T07:38:39Z</time>
  <speed>4.390000</speed>
</trkpt>
<trkpt lat="32.993629456" lon="35.530033112">
  <ele>654.692383</ele>
  <time>2011-10-15T07:38:40Z</time>
  <speed>6.040000</speed>
</trkpt>
<trkpt lat="32.993579865" lon="35.530067444">
  <ele>654.254883</ele>
  <time>2011-10-15T07:38:41Z</time>
  <speed>5.390000</speed>
</trkpt>
<trkpt lat="32.993541718" lon="35.530105591">
  <ele>653.739258</ele>
  <time>2011-10-15T07:38:42Z</time>
  <speed>5.140000</speed>
</trkpt>
<trkpt lat="32.993499756" lon="35.530139923">
  <ele>653.223633</ele>
  <time>2011-10-15T07:38:43Z</time>
  <speed>5.180000</speed>
</trkpt>
<trkpt lat="32.993480682" lon="35.530170441">
  <ele>652.723633</ele>
  <time>2011-10-15T07:38:44Z</time>
  <speed>3.360000</speed>
</trkpt>
<trkpt lat="32.993423462" lon="35.530204773">
  <ele>652.348633</ele>
  <time>2011-10-15T07:38:45Z</time>
  <speed>3.960000</speed>
</trkpt>
<trkpt lat="32.993404388" lon="35.530242920">
  <ele>651.817383</ele>
  <time>2011-10-15T07:38:46Z</time>
  <speed>3.070000</speed>
</trkpt>
<trkpt lat="32.993350983" lon="35.530296326">
  <ele>650.583008</ele>
  <time>2011-10-15T07:38:47Z</time>
  <speed>3.920000</speed>
</trkpt>
<trkpt lat="32.993358612" lon="35.530353546">
  <ele>649.926758</ele>
  <time>2011-10-15T07:38:48Z</time>
  <speed>4.120000</speed>
</trkpt>
<trkpt lat="32.993301392" lon="35.530448914">
  <ele>648.129883</ele>
  <time>2011-10-15T07:38:49Z</time>
  <speed>4.660000</speed>
</trkpt>
<trkpt lat="32.993347168" lon="35.530487061">
  <ele>647.098633</ele>
  <time>2011-10-15T07:38:50Z</time>
  <speed>5.040000</speed>
</trkpt>
<trkpt lat="32.993377686" lon="35.530536652">
  <ele>646.442383</ele>
  <time>2011-10-15T07:38:51Z</time>
  <speed>5.420000</speed>
</trkpt>
<trkpt lat="32.993415833" lon="35.530605316">
  <ele>645.067383</ele>
  <time>2011-10-15T07:38:52Z</time>
  <speed>5.460000</speed>
</trkpt>
<trkpt lat="32.993442535" lon="35.530662537">
  <ele>643.942383</ele>
  <time>2011-10-15T07:38:53Z</time>
  <speed>5.560000</speed>
</trkpt>
<trkpt lat="32.993473053" lon="35.530719757">
  <ele>643.067383</ele>
  <time>2011-10-15T07:38:54Z</time>
  <speed>5.490000</speed>
</trkpt>
<trkpt lat="32.993484497" lon="35.530780792">
  <ele>642.036133</ele>
  <time>2011-10-15T07:38:55Z</time>
  <speed>5.000000</speed>
</trkpt>
<trkpt lat="32.993469238" lon="35.530906677">
  <ele>643.395508</ele>
  <time>2011-10-15T07:38:56Z</time>
  <speed>6.000000</speed>
</trkpt>
<trkpt lat="32.993465424" lon="35.531002045">
  <ele>643.489258</ele>
  <time>2011-10-15T07:38:57Z</time>
  <speed>6.840000</speed>
</trkpt>
<trkpt lat="32.993473053" lon="35.531074524">
  <ele>642.942383</ele>
  <time>2011-10-15T07:38:58Z</time>
  <speed>6.290000</speed>
</trkpt>
<trkpt lat="32.993480682" lon="35.531135559">
  <ele>642.208008</ele>
  <time>2011-10-15T07:38:59Z</time>
  <speed>5.390000</speed>
</trkpt>
<trkpt lat="32.993507385" lon="35.531208038">
  <ele>641.145508</ele>
  <time>2011-10-15T07:39:00Z</time>
  <speed>6.540000</speed>
</trkpt>
<trkpt lat="32.993522644" lon="35.531272888">
  <ele>640.348633</ele>
  <time>2011-10-15T07:39:01Z</time>
  <speed>6.060000</speed>
</trkpt>
<trkpt lat="32.993534088" lon="35.531352997">
  <ele>639.473633</ele>
  <time>2011-10-15T07:39:02Z</time>
  <speed>6.340000</speed>
</trkpt>
<trkpt lat="32.993518829" lon="35.531406403">
  <ele>638.661133</ele>
  <time>2011-10-15T07:39:03Z</time>
  <speed>5.390000</speed>
</trkpt>
<trkpt lat="32.993488312" lon="35.531440735">
  <ele>638.051758</ele>
  <time>2011-10-15T07:39:04Z</time>
  <speed>4.100000</speed>
</trkpt>
<trkpt lat="32.993450165" lon="35.531455994">
  <ele>637.301758</ele>
  <time>2011-10-15T07:39:05Z</time>
  <speed>4.400000</speed>
</trkpt>
<trkpt lat="32.993419647" lon="35.531467438">
  <ele>636.504883</ele>
  <time>2011-10-15T07:39:06Z</time>
  <speed>4.140000</speed>
</trkpt>
<trkpt lat="32.993377686" lon="35.531475067">
  <ele>635.739258</ele>
  <time>2011-10-15T07:39:07Z</time>
  <speed>4.660000</speed>
</trkpt>
<trkpt lat="32.993324280" lon="35.531486511">
  <ele>634.989258</ele>
  <time>2011-10-15T07:39:08Z</time>
  <speed>5.590000</speed>
</trkpt>
<trkpt lat="32.993278503" lon="35.531494141">
  <ele>634.192383</ele>
  <time>2011-10-15T07:39:09Z</time>
  <speed>4.990000</speed>
</trkpt>
<trkpt lat="32.993240356" lon="35.531494141">
  <ele>633.489258</ele>
  <time>2011-10-15T07:39:10Z</time>
  <speed>4.160000</speed>
</trkpt>
<trkpt lat="32.993175507" lon="35.531505585">
  <ele>632.661133</ele>
  <time>2011-10-15T07:39:11Z</time>
  <speed>3.230000</speed>
</trkpt>
<trkpt lat="32.993141174" lon="35.531414032">
  <ele>630.786133</ele>
  <time>2011-10-15T07:39:13Z</time>
  <speed>3.960000</speed>
</trkpt>
<trkpt lat="32.993110657" lon="35.531368256">
  <ele>630.161133</ele>
  <time>2011-10-15T07:39:14Z</time>
  <speed>4.240000</speed>
</trkpt>
<trkpt lat="32.993068695" lon="35.531337738">
  <ele>629.520508</ele>
  <time>2011-10-15T07:39:15Z</time>
  <speed>3.420000</speed>
</trkpt>
<trkpt lat="32.993026733" lon="35.531356812">
  <ele>627.583008</ele>
  <time>2011-10-15T07:39:17Z</time>
  <speed>2.290000</speed>
</trkpt>
<trkpt lat="32.992992401" lon="35.531375885">
  <ele>626.926758</ele>
  <time>2011-10-15T07:39:18Z</time>
  <speed>2.440000</speed>
</trkpt>
<trkpt lat="32.992931366" lon="35.531398773">
  <ele>626.551758</ele>
  <time>2011-10-15T07:39:19Z</time>
  <speed>3.050000</speed>
</trkpt>
<trkpt lat="32.992904663" lon="35.531440735">
  <ele>625.786133</ele>
  <time>2011-10-15T07:39:20Z</time>
  <speed>3.550000</speed>
</trkpt>
<trkpt lat="32.992904663" lon="35.531490326">
  <ele>624.692383</ele>
  <time>2011-10-15T07:39:21Z</time>
  <speed>2.900000</speed>
</trkpt>
<trkpt lat="32.992893219" lon="35.531528473">
  <ele>623.833008</ele>
  <time>2011-10-15T07:39:22Z</time>
  <speed>3.070000</speed>
</trkpt>
<trkpt lat="32.992809296" lon="35.531593323">
  <ele>622.036133</ele>
  <time>2011-10-15T07:39:23Z</time>
  <speed>4.130000</speed>
</trkpt>
<trkpt lat="32.992755890" lon="35.531661987">
  <ele>619.864258</ele>
  <time>2011-10-15T07:39:24Z</time>
  <speed>3.970000</speed>
</trkpt>
<trkpt lat="32.992744446" lon="35.531730652">
  <ele>619.051758</ele>
  <time>2011-10-15T07:39:25Z</time>
  <speed>4.470000</speed>
</trkpt>
<trkpt lat="32.992729187" lon="35.531791687">
  <ele>618.129883</ele>
  <time>2011-10-15T07:39:26Z</time>
  <speed>5.120000</speed>
</trkpt>
<trkpt lat="32.992710114" lon="35.531860352">
  <ele>617.239258</ele>
  <time>2011-10-15T07:39:27Z</time>
  <speed>5.690000</speed>
</trkpt>
<trkpt lat="32.992691040" lon="35.531955719">
  <ele>618.411133</ele>
  <time>2011-10-15T07:39:28Z</time>
  <speed>5.690000</speed>
</trkpt>
<trkpt lat="32.992641449" lon="35.532009125">
  <ele>617.333008</ele>
  <time>2011-10-15T07:39:29Z</time>
  <speed>5.910000</speed>
</trkpt>
<trkpt lat="32.992607117" lon="35.532062531">
  <ele>617.551758</ele>
  <time>2011-10-15T07:39:30Z</time>
  <speed>5.320000</speed>
</trkpt>
<trkpt lat="32.992572784" lon="35.532093048">
  <ele>616.973633</ele>
  <time>2011-10-15T07:39:31Z</time>
  <speed>4.040000</speed>
</trkpt>
<trkpt lat="32.992546082" lon="35.532146454">
  <ele>615.942383</ele>
  <time>2011-10-15T07:39:33Z</time>
  <speed>1.760000</speed>
</trkpt>
<trkpt lat="32.992546082" lon="35.532169342">
  <ele>613.129883</ele>
  <time>2011-10-15T07:39:36Z</time>
  <speed>0.410000</speed>
</trkpt>
<trkpt lat="32.992530823" lon="35.532192230">
  <ele>611.926758</ele>
  <time>2011-10-15T07:39:43Z</time>
  <speed>0.100000</speed>
</trkpt>
<trkpt lat="32.992511749" lon="35.532215118">
  <ele>611.770508</ele>
  <time>2011-10-15T07:40:18Z</time>
  <speed>0.260000</speed>
</trkpt>
<trkpt lat="32.992492676" lon="35.532238007">
  <ele>612.161133</ele>
  <time>2011-10-15T07:40:36Z</time>
</trkpt>
<trkpt lat="32.992477417" lon="35.532264709">
  <ele>612.317383</ele>
  <time>2011-10-15T07:40:44Z</time>
  <speed>2.150000</speed>
</trkpt>
<trkpt lat="32.992431641" lon="35.532329559">
  <ele>612.911133</ele>
  <time>2011-10-15T07:40:46Z</time>
  <speed>4.660000</speed>
</trkpt>
<trkpt lat="32.992404938" lon="35.532386780">
  <ele>612.989258</ele>
  <time>2011-10-15T07:40:47Z</time>
  <speed>5.090000</speed>
</trkpt>
<trkpt lat="32.992385864" lon="35.532447815">
  <ele>612.614258</ele>
  <time>2011-10-15T07:40:48Z</time>
  <speed>5.760000</speed>
</trkpt>
<trkpt lat="32.992359161" lon="35.532520294">
  <ele>612.629883</ele>
  <time>2011-10-15T07:40:49Z</time>
  <speed>6.610000</speed>
</trkpt>
<trkpt lat="32.992328644" lon="35.532585144">
  <ele>612.708008</ele>
  <time>2011-10-15T07:40:50Z</time>
  <speed>6.070000</speed>
</trkpt>
<trkpt lat="32.992298126" lon="35.532646179">
  <ele>613.051758</ele>
  <time>2011-10-15T07:40:51Z</time>
  <speed>5.850000</speed>
</trkpt>
<trkpt lat="32.992271423" lon="35.532699585">
  <ele>613.020508</ele>
  <time>2011-10-15T07:40:52Z</time>
  <speed>5.420000</speed>
</trkpt>
<trkpt lat="32.992233276" lon="35.532737732">
  <ele>613.004883</ele>
  <time>2011-10-15T07:40:53Z</time>
  <speed>5.270000</speed>
</trkpt>
<trkpt lat="32.992172241" lon="35.532802582">
  <ele>613.208008</ele>
  <time>2011-10-15T07:40:54Z</time>
  <speed>7.930000</speed>
</trkpt>
<trkpt lat="32.992103577" lon="35.532878876">
  <ele>613.333008</ele>
  <time>2011-10-15T07:40:55Z</time>
  <speed>8.490000</speed>
</trkpt>
<trkpt lat="32.992050171" lon="35.532966614">
  <ele>612.864258</ele>
  <time>2011-10-15T07:40:56Z</time>
  <speed>8.670000</speed>
</trkpt>
<trkpt lat="32.992004395" lon="35.533050537">
  <ele>612.551758</ele>
  <time>2011-10-15T07:40:57Z</time>
  <speed>8.570000</speed>
</trkpt>
<trkpt lat="32.991950989" lon="35.533126831">
  <ele>612.301758</ele>
  <time>2011-10-15T07:40:58Z</time>
  <speed>8.560000</speed>
</trkpt>
<trkpt lat="32.991886139" lon="35.533180237">
  <ele>612.286133</ele>
  <time>2011-10-15T07:40:59Z</time>
  <speed>8.540000</speed>
</trkpt>
<trkpt lat="32.991817474" lon="35.533222198">
  <ele>612.239258</ele>
  <time>2011-10-15T07:41:00Z</time>
  <speed>8.550000</speed>
</trkpt>
<trkpt lat="32.991752625" lon="35.533264160">
  <ele>612.145508</ele>
  <time>2011-10-15T07:41:01Z</time>
  <speed>8.210000</speed>
</trkpt>
<trkpt lat="32.991683960" lon="35.533298492">
  <ele>611.958008</ele>
  <time>2011-10-15T07:41:02Z</time>
  <speed>8.310000</speed>
</trkpt>
<trkpt lat="32.991611481" lon="35.533351898">
  <ele>611.926758</ele>
  <time>2011-10-15T07:41:03Z</time>
  <speed>9.460000</speed>
</trkpt>
<trkpt lat="32.991569519" lon="35.533393860">
  <ele>611.692383</ele>
  <time>2011-10-15T07:41:04Z</time>
  <speed>6.100000</speed>
</trkpt>
<trkpt lat="32.991516113" lon="35.533435822">
  <ele>611.348633</ele>
  <time>2011-10-15T07:41:05Z</time>
  <speed>6.660000</speed>
</trkpt>
<trkpt lat="32.991462708" lon="35.533473969">
  <ele>611.286133</ele>
  <time>2011-10-15T07:41:06Z</time>
  <speed>5.800000</speed>
</trkpt>
<trkpt lat="32.991428375" lon="35.533508301">
  <ele>611.067383</ele>
  <time>2011-10-15T07:41:07Z</time>
  <speed>3.690000</speed>
</trkpt>
<trkpt lat="32.991413116" lon="35.533573151">
  <ele>610.817383</ele>
  <time>2011-10-15T07:41:08Z</time>
  <speed>4.740000</speed>
</trkpt>
<trkpt lat="32.991382599" lon="35.533630371">
  <ele>610.286133</ele>
  <time>2011-10-15T07:41:09Z</time>
  <speed>5.140000</speed>
</trkpt>
<trkpt lat="32.991313934" lon="35.533710480">
  <ele>608.004883</ele>
  <time>2011-10-15T07:41:10Z</time>
  <speed>5.940000</speed>
</trkpt>
<trkpt lat="32.991291046" lon="35.533763885">
  <ele>607.817383</ele>
  <time>2011-10-15T07:41:11Z</time>
  <speed>4.770000</speed>
</trkpt>
<trkpt lat="32.991252899" lon="35.533824921">
  <ele>607.958008</ele>
  <time>2011-10-15T07:41:12Z</time>
  <speed>5.610000</speed>
</trkpt>
<trkpt lat="32.991226196" lon="35.533870697">
  <ele>607.598633</ele>
  <time>2011-10-15T07:41:13Z</time>
  <speed>4.680000</speed>
</trkpt>
<trkpt lat="32.991207123" lon="35.533924103">
  <ele>607.239258</ele>
  <time>2011-10-15T07:41:14Z</time>
  <speed>5.310000</speed>
</trkpt>
<trkpt lat="32.991157532" lon="35.533996582">
  <ele>606.364258</ele>
  <time>2011-10-15T07:41:15Z</time>
  <speed>7.140000</speed>
</trkpt>
<trkpt lat="32.991115570" lon="35.534088135">
  <ele>605.223633</ele>
  <time>2011-10-15T07:41:16Z</time>
  <speed>7.460000</speed>
</trkpt>
<trkpt lat="32.991088867" lon="35.534164429">
  <ele>604.958008</ele>
  <time>2011-10-15T07:41:17Z</time>
  <speed>7.050000</speed>
</trkpt>
<trkpt lat="32.991054535" lon="35.534244537">
  <ele>603.926758</ele>
  <time>2011-10-15T07:41:18Z</time>
  <speed>6.970000</speed>
</trkpt>
<trkpt lat="32.991027832" lon="35.534313202">
  <ele>603.848633</ele>
  <time>2011-10-15T07:41:19Z</time>
  <speed>6.490000</speed>
</trkpt>
<trkpt lat="32.991001129" lon="35.534374237">
  <ele>603.645508</ele>
  <time>2011-10-15T07:41:20Z</time>
  <speed>5.890000</speed>
</trkpt>
<trkpt lat="32.990943909" lon="35.534458160">
  <ele>601.333008</ele>
  <time>2011-10-15T07:41:21Z</time>
  <speed>6.810000</speed>
</trkpt>
<trkpt lat="32.990921021" lon="35.534538269">
  <ele>600.129883</ele>
  <time>2011-10-15T07:41:22Z</time>
  <speed>7.460000</speed>
</trkpt>
<trkpt lat="32.990913391" lon="35.534622192">
  <ele>599.145508</ele>
  <time>2011-10-15T07:41:23Z</time>
  <speed>7.890000</speed>
</trkpt>
<trkpt lat="32.990894318" lon="35.534713745">
  <ele>597.911133</ele>
  <time>2011-10-15T07:41:24Z</time>
  <speed>7.850000</speed>
</trkpt>
<trkpt lat="32.990882874" lon="35.534793854">
  <ele>597.129883</ele>
  <time>2011-10-15T07:41:25Z</time>
  <speed>7.330000</speed>
</trkpt>
<trkpt lat="32.990863800" lon="35.534877777">
  <ele>596.473633</ele>
  <time>2011-10-15T07:41:26Z</time>
  <speed>7.720000</speed>
</trkpt>
<trkpt lat="32.990859985" lon="35.534969330">
  <ele>595.692383</ele>
  <time>2011-10-15T07:41:27Z</time>
  <speed>7.850000</speed>
</trkpt>
<trkpt lat="32.990848541" lon="35.535053253">
  <ele>594.926758</ele>
  <time>2011-10-15T07:41:28Z</time>
  <speed>6.990000</speed>
</trkpt>
<trkpt lat="32.990825653" lon="35.535114288">
  <ele>594.145508</ele>
  <time>2011-10-15T07:41:29Z</time>
  <speed>6.050000</speed>
</trkpt>
<trkpt lat="32.990734100" lon="35.535186768">
  <ele>591.911133</ele>
  <time>2011-10-15T07:41:30Z</time>
  <speed>7.830000</speed>
</trkpt>
<trkpt lat="32.990676880" lon="35.535213470">
  <ele>591.567383</ele>
  <time>2011-10-15T07:41:31Z</time>
  <speed>6.650000</speed>
</trkpt>
<trkpt lat="32.990627289" lon="35.535224915">
  <ele>590.504883</ele>
  <time>2011-10-15T07:41:32Z</time>
  <speed>5.960000</speed>
</trkpt>
<trkpt lat="32.990570068" lon="35.535186768">
  <ele>588.973633</ele>
  <time>2011-10-15T07:41:33Z</time>
  <speed>5.230000</speed>
</trkpt>
<trkpt lat="32.990528107" lon="35.535152435">
  <ele>587.879883</ele>
  <time>2011-10-15T07:41:34Z</time>
  <speed>4.840000</speed>
</trkpt>
<trkpt lat="32.990493774" lon="35.535114288">
  <ele>587.551758</ele>
  <time>2011-10-15T07:41:35Z</time>
  <speed>4.690000</speed>
</trkpt>
<trkpt lat="32.990459442" lon="35.535076141">
  <ele>585.989258</ele>
  <time>2011-10-15T07:41:36Z</time>
  <speed>3.570000</speed>
</trkpt>
<trkpt lat="32.990436554" lon="35.535045624">
  <ele>584.520508</ele>
  <time>2011-10-15T07:41:37Z</time>
  <speed>3.060000</speed>
</trkpt>
<trkpt lat="32.990413666" lon="35.535026550">
  <ele>583.208008</ele>
  <time>2011-10-15T07:41:38Z</time>
  <speed>3.300000</speed>
</trkpt>
<trkpt lat="32.990386963" lon="35.535011292">
  <ele>582.348633</ele>
  <time>2011-10-15T07:41:39Z</time>
  <speed>3.010000</speed>
</trkpt>
<trkpt lat="32.990360260" lon="35.534999847">
  <ele>581.426758</ele>
  <time>2011-10-15T07:41:40Z</time>
  <speed>3.130000</speed>
</trkpt>
<trkpt lat="32.990329742" lon="35.534992218">
  <ele>580.567383</ele>
  <time>2011-10-15T07:41:41Z</time>
  <speed>2.480000</speed>
</trkpt>
<trkpt lat="32.990299225" lon="35.534988403">
  <ele>580.426758</ele>
  <time>2011-10-15T07:41:42Z</time>
  <speed>2.910000</speed>
</trkpt>
<trkpt lat="32.990257263" lon="35.534980774">
  <ele>580.645508</ele>
  <time>2011-10-15T07:41:43Z</time>
  <speed>3.000000</speed>
</trkpt>
<trkpt lat="32.990207672" lon="35.534984589">
  <ele>580.645508</ele>
  <time>2011-10-15T07:41:44Z</time>
  <speed>3.970000</speed>
</trkpt>
<trkpt lat="32.990173340" lon="35.534996033">
  <ele>579.864258</ele>
  <time>2011-10-15T07:41:45Z</time>
  <speed>3.230000</speed>
</trkpt>
<trkpt lat="32.990142822" lon="35.535007477">
  <ele>579.145508</ele>
  <time>2011-10-15T07:41:46Z</time>
  <speed>3.050000</speed>
</trkpt>
<trkpt lat="32.990108490" lon="35.535026550">
  <ele>578.395508</ele>
  <time>2011-10-15T07:41:47Z</time>
  <speed>4.150000</speed>
</trkpt>
<trkpt lat="32.990077972" lon="35.535041809">
  <ele>577.786133</ele>
  <time>2011-10-15T07:41:48Z</time>
  <speed>2.780000</speed>
</trkpt>
<trkpt lat="32.990039825" lon="35.535057068">
  <ele>577.317383</ele>
  <time>2011-10-15T07:41:49Z</time>
  <speed>4.370000</speed>
</trkpt>
<trkpt lat="32.989986420" lon="35.535095215">
  <ele>576.676758</ele>
  <time>2011-10-15T07:41:50Z</time>
  <speed>5.940000</speed>
</trkpt>
<trkpt lat="32.989936829" lon="35.535156250">
  <ele>576.223633</ele>
  <time>2011-10-15T07:41:51Z</time>
  <speed>6.340000</speed>
</trkpt>
<trkpt lat="32.989936829" lon="35.535217285">
  <ele>575.208008</ele>
  <time>2011-10-15T07:41:52Z</time>
  <speed>5.490000</speed>
</trkpt>
<trkpt lat="32.989822388" lon="35.535282135">
  <ele>574.348633</ele>
  <time>2011-10-15T07:41:53Z</time>
  <speed>6.030000</speed>
</trkpt>
<trkpt lat="32.989768982" lon="35.535335541">
  <ele>573.583008</ele>
  <time>2011-10-15T07:41:54Z</time>
  <speed>5.030000</speed>
</trkpt>
<trkpt lat="32.989734650" lon="35.535423279">
  <ele>573.208008</ele>
  <time>2011-10-15T07:41:55Z</time>
  <speed>4.570000</speed>
</trkpt>
<trkpt lat="32.989707947" lon="35.535469055">
  <ele>572.208008</ele>
  <time>2011-10-15T07:41:56Z</time>
  <speed>3.900000</speed>
</trkpt>
<trkpt lat="32.989646912" lon="35.535488129">
  <ele>571.317383</ele>
  <time>2011-10-15T07:41:57Z</time>
  <speed>4.360000</speed>
</trkpt>
<trkpt lat="32.989585876" lon="35.535488129">
  <ele>570.333008</ele>
  <time>2011-10-15T07:41:58Z</time>
  <speed>5.150000</speed>
</trkpt>
<trkpt lat="32.989505768" lon="35.535507202">
  <ele>571.083008</ele>
  <time>2011-10-15T07:41:59Z</time>
  <speed>4.060000</speed>
</trkpt>
<trkpt lat="32.989475250" lon="35.535511017">
  <ele>569.973633</ele>
  <time>2011-10-15T07:42:00Z</time>
  <speed>2.290000</speed>
</trkpt>
<trkpt lat="32.989429474" lon="35.535530090">
  <ele>568.645508</ele>
  <time>2011-10-15T07:42:02Z</time>
  <speed>1.630000</speed>
</trkpt>
<trkpt lat="32.989387512" lon="35.535552979">
  <ele>568.083008</ele>
  <time>2011-10-15T07:42:03Z</time>
  <speed>2.910000</speed>
</trkpt>
<trkpt lat="32.989330292" lon="35.535602570">
  <ele>565.098633</ele>
  <time>2011-10-15T07:42:04Z</time>
  <speed>3.310000</speed>
</trkpt>
<trkpt lat="32.989303589" lon="35.535629272">
  <ele>564.442383</ele>
  <time>2011-10-15T07:42:05Z</time>
  <speed>3.580000</speed>
</trkpt>
<trkpt lat="32.989292145" lon="35.535655975">
  <ele>563.708008</ele>
  <time>2011-10-15T07:42:06Z</time>
  <speed>2.880000</speed>
</trkpt>
<trkpt lat="32.989273071" lon="35.535724640">
  <ele>562.223633</ele>
  <time>2011-10-15T07:42:07Z</time>
  <speed>5.490000</speed>
</trkpt>
<trkpt lat="32.989265442" lon="35.535789490">
  <ele>560.708008</ele>
  <time>2011-10-15T07:42:08Z</time>
  <speed>4.660000</speed>
</trkpt>
<trkpt lat="32.989288330" lon="35.535839081">
  <ele>559.192383</ele>
  <time>2011-10-15T07:42:09Z</time>
  <speed>3.920000</speed>
</trkpt>
<trkpt lat="32.989307404" lon="35.535926819">
  <ele>559.614258</ele>
  <time>2011-10-15T07:42:10Z</time>
  <speed>4.690000</speed>
</trkpt>
<trkpt lat="32.989337921" lon="35.535980225">
  <ele>558.754883</ele>
  <time>2011-10-15T07:42:11Z</time>
  <speed>4.200000</speed>
</trkpt>
<trkpt lat="32.989379883" lon="35.536037445">
  <ele>559.551758</ele>
  <time>2011-10-15T07:42:12Z</time>
  <speed>4.920000</speed>
</trkpt>
<trkpt lat="32.989414215" lon="35.536079407">
  <ele>559.208008</ele>
  <time>2011-10-15T07:42:13Z</time>
  <speed>4.800000</speed>
</trkpt>
<trkpt lat="32.989448547" lon="35.536132813">
  <ele>559.786133</ele>
  <time>2011-10-15T07:42:14Z</time>
  <speed>4.540000</speed>
</trkpt>
<trkpt lat="32.989490509" lon="35.536163330">
  <ele>559.676758</ele>
  <time>2011-10-15T07:42:15Z</time>
  <speed>4.080000</speed>
</trkpt>
<trkpt lat="32.989532471" lon="35.536212921">
  <ele>559.379883</ele>
  <time>2011-10-15T07:42:16Z</time>
  <speed>5.040000</speed>
</trkpt>
<trkpt lat="32.989601135" lon="35.536270142">
  <ele>561.786133</ele>
  <time>2011-10-15T07:42:17Z</time>
  <speed>4.300000</speed>
</trkpt>
<trkpt lat="32.989643097" lon="35.536300659">
  <ele>561.911133</ele>
  <time>2011-10-15T07:42:18Z</time>
  <speed>5.120000</speed>
</trkpt>
<trkpt lat="32.989700317" lon="35.536323547">
  <ele>562.801758</ele>
  <time>2011-10-15T07:42:19Z</time>
  <speed>5.180000</speed>
</trkpt>
<trkpt lat="32.989749908" lon="35.536334991">
  <ele>562.848633</ele>
  <time>2011-10-15T07:42:20Z</time>
  <speed>4.860000</speed>
</trkpt>
<trkpt lat="32.989799500" lon="35.536342621">
  <ele>562.348633</ele>
  <time>2011-10-15T07:42:21Z</time>
  <speed>5.730000</speed>
</trkpt>
<trkpt lat="32.989856720" lon="35.536331177">
  <ele>561.754883</ele>
  <time>2011-10-15T07:42:22Z</time>
  <speed>5.620000</speed>
</trkpt>
<trkpt lat="32.989902496" lon="35.536319733">
  <ele>561.114258</ele>
  <time>2011-10-15T07:42:23Z</time>
  <speed>5.190000</speed>
</trkpt>
<trkpt lat="32.989936829" lon="35.536319733">
  <ele>560.973633</ele>
  <time>2011-10-15T07:42:24Z</time>
  <speed>3.990000</speed>
</trkpt>
<trkpt lat="32.989982605" lon="35.536304474">
  <ele>561.145508</ele>
  <time>2011-10-15T07:42:25Z</time>
  <speed>3.330000</speed>
</trkpt>
<trkpt lat="32.990024567" lon="35.536270142">
  <ele>562.786133</ele>
  <time>2011-10-15T07:42:26Z</time>
  <speed>2.810000</speed>
</trkpt>
<trkpt lat="32.990051270" lon="35.536262512">
  <ele>563.489258</ele>
  <time>2011-10-15T07:42:27Z</time>
  <speed>2.180000</speed>
</trkpt>
<trkpt lat="32.990081787" lon="35.536251068">
  <ele>564.067383</ele>
  <time>2011-10-15T07:42:28Z</time>
  <speed>2.830000</speed>
</trkpt>
<trkpt lat="32.990135193" lon="35.536239624">
  <ele>565.223633</ele>
  <time>2011-10-15T07:42:30Z</time>
  <speed>3.560000</speed>
</trkpt>
<trkpt lat="32.990154266" lon="35.536254883">
  <ele>566.879883</ele>
  <time>2011-10-15T07:42:31Z</time>
  <speed>3.440000</speed>
</trkpt>
<trkpt lat="32.990184784" lon="35.536254883">
  <ele>567.270508</ele>
  <time>2011-10-15T07:42:32Z</time>
  <speed>2.610000</speed>
</trkpt>
<trkpt lat="32.990219116" lon="35.536258698">
  <ele>566.473633</ele>
  <time>2011-10-15T07:42:34Z</time>
  <speed>0.390000</speed>
</trkpt>
<trkpt lat="32.990242004" lon="35.536262512">
  <ele>567.739258</ele>
  <time>2011-10-15T07:42:40Z</time>
  <speed>0.200000</speed>
</trkpt>
<trkpt lat="32.990268707" lon="35.536251068">
  <ele>567.692383</ele>
  <time>2011-10-15T07:42:53Z</time>
  <speed>0.240000</speed>
</trkpt>
<trkpt lat="32.990287781" lon="35.536228180">
  <ele>568.942383</ele>
  <time>2011-10-15T07:45:15Z</time>
  <speed>0.370000</speed>
</trkpt>
<trkpt lat="32.990329742" lon="35.536216736">
  <ele>568.723633</ele>
  <time>2011-10-15T07:45:18Z</time>
  <speed>1.570000</speed>
</trkpt>
<trkpt lat="32.990386963" lon="35.536212921">
  <ele>568.442383</ele>
  <time>2011-10-15T07:45:20Z</time>
  <speed>3.330000</speed>
</trkpt>
<trkpt lat="32.990428925" lon="35.536216736">
  <ele>569.254883</ele>
  <time>2011-10-15T07:45:21Z</time>
  <speed>3.690000</speed>
</trkpt>
<trkpt lat="32.990463257" lon="35.536216736">
  <ele>569.926758</ele>
  <time>2011-10-15T07:45:22Z</time>
  <speed>3.220000</speed>
</trkpt>
<trkpt lat="32.990493774" lon="35.536212921">
  <ele>570.770508</ele>
  <time>2011-10-15T07:45:23Z</time>
  <speed>2.780000</speed>
</trkpt>
<trkpt lat="32.990524292" lon="35.536201477">
  <ele>571.004883</ele>
  <time>2011-10-15T07:45:24Z</time>
  <speed>2.810000</speed>
</trkpt>
<trkpt lat="32.990562439" lon="35.536209106">
  <ele>571.801758</ele>
  <time>2011-10-15T07:45:25Z</time>
  <speed>3.200000</speed>
</trkpt>
<trkpt lat="32.990604401" lon="35.536205292">
  <ele>571.676758</ele>
  <time>2011-10-15T07:45:26Z</time>
  <speed>3.710000</speed>
</trkpt>
<trkpt lat="32.990653992" lon="35.536201477">
  <ele>571.895508</ele>
  <time>2011-10-15T07:45:27Z</time>
  <speed>3.720000</speed>
</trkpt>
<trkpt lat="32.990695953" lon="35.536201477">
  <ele>571.879883</ele>
  <time>2011-10-15T07:45:28Z</time>
  <speed>3.360000</speed>
</trkpt>
<trkpt lat="32.990730286" lon="35.536209106">
  <ele>571.676758</ele>
  <time>2011-10-15T07:45:29Z</time>
  <speed>3.200000</speed>
</trkpt>
<trkpt lat="32.990768433" lon="35.536209106">
  <ele>573.145508</ele>
  <time>2011-10-15T07:45:30Z</time>
  <speed>3.270000</speed>
</trkpt>
<trkpt lat="32.990798950" lon="35.536212921">
  <ele>574.301758</ele>
  <time>2011-10-15T07:45:31Z</time>
  <speed>2.570000</speed>
</trkpt>
<trkpt lat="32.990833282" lon="35.536216736">
  <ele>575.911133</ele>
  <time>2011-10-15T07:45:32Z</time>
  <speed>2.620000</speed>
</trkpt>
<trkpt lat="32.990890503" lon="35.536216736">
  <ele>576.614258</ele>
  <time>2011-10-15T07:45:33Z</time>
  <speed>3.380000</speed>
</trkpt>
<trkpt lat="32.990932465" lon="35.536220551">
  <ele>577.176758</ele>
  <time>2011-10-15T07:45:34Z</time>
  <speed>3.220000</speed>
</trkpt>
<trkpt lat="32.990970612" lon="35.536231995">
  <ele>577.536133</ele>
  <time>2011-10-15T07:45:35Z</time>
  <speed>3.350000</speed>
</trkpt>
<trkpt lat="32.991008759" lon="35.536243439">
  <ele>577.708008</ele>
  <time>2011-10-15T07:45:36Z</time>
  <speed>3.500000</speed>
</trkpt>
<trkpt lat="32.991046906" lon="35.536266327">
  <ele>578.754883</ele>
  <time>2011-10-15T07:45:37Z</time>
  <speed>3.870000</speed>
</trkpt>
<trkpt lat="32.991088867" lon="35.536277771">
  <ele>578.692383</ele>
  <time>2011-10-15T07:45:38Z</time>
  <speed>3.940000</speed>
</trkpt>
<trkpt lat="32.991153717" lon="35.536304474">
  <ele>578.067383</ele>
  <time>2011-10-15T07:45:39Z</time>
  <speed>4.490000</speed>
</trkpt>
<trkpt lat="32.991191864" lon="35.536323547">
  <ele>578.004883</ele>
  <time>2011-10-15T07:45:40Z</time>
  <speed>4.020000</speed>
</trkpt>
<trkpt lat="32.991252899" lon="35.536357880">
  <ele>577.379883</ele>
  <time>2011-10-15T07:45:41Z</time>
  <speed>4.510000</speed>
</trkpt>
<trkpt lat="32.991294861" lon="35.536380768">
  <ele>577.583008</ele>
  <time>2011-10-15T07:45:42Z</time>
  <speed>4.510000</speed>
</trkpt>
<trkpt lat="32.991336823" lon="35.536392212">
  <ele>577.629883</ele>
  <time>2011-10-15T07:45:43Z</time>
  <speed>4.160000</speed>
</trkpt>
<trkpt lat="32.991386414" lon="35.536403656">
  <ele>578.504883</ele>
  <time>2011-10-15T07:45:44Z</time>
  <speed>3.940000</speed>
</trkpt>
<trkpt lat="32.991432190" lon="35.536430359">
  <ele>578.583008</ele>
  <time>2011-10-15T07:45:45Z</time>
  <speed>4.980000</speed>
</trkpt>
<trkpt lat="32.991500854" lon="35.536449432">
  <ele>579.004883</ele>
  <time>2011-10-15T07:45:46Z</time>
  <speed>5.170000</speed>
</trkpt>
<trkpt lat="32.991580963" lon="35.536434174">
  <ele>578.723633</ele>
  <time>2011-10-15T07:45:47Z</time>
  <speed>5.750000</speed>
</trkpt>
<trkpt lat="32.991638184" lon="35.536418915">
  <ele>578.379883</ele>
  <time>2011-10-15T07:45:48Z</time>
  <speed>5.440000</speed>
</trkpt>
<trkpt lat="32.991687775" lon="35.536407471">
  <ele>578.629883</ele>
  <time>2011-10-15T07:45:49Z</time>
  <speed>5.010000</speed>
</trkpt>
<trkpt lat="32.991733551" lon="35.536388397">
  <ele>578.708008</ele>
  <time>2011-10-15T07:45:50Z</time>
  <speed>4.500000</speed>
</trkpt>
<trkpt lat="32.991790771" lon="35.536373138">
  <ele>578.770508</ele>
  <time>2011-10-15T07:45:51Z</time>
  <speed>4.080000</speed>
</trkpt>
<trkpt lat="32.991825104" lon="35.536346436">
  <ele>578.473633</ele>
  <time>2011-10-15T07:45:52Z</time>
  <speed>3.910000</speed>
</trkpt>
<trkpt lat="32.991889954" lon="35.536323547">
  <ele>578.520508</ele>
  <time>2011-10-15T07:45:53Z</time>
  <speed>4.210000</speed>
</trkpt>
<trkpt lat="32.991973877" lon="35.536296844">
  <ele>578.286133</ele>
  <time>2011-10-15T07:45:54Z</time>
  <speed>4.040000</speed>
</trkpt>
<trkpt lat="32.992015839" lon="35.536296844">
  <ele>577.676758</ele>
  <time>2011-10-15T07:45:55Z</time>
  <speed>3.690000</speed>
</trkpt>
<trkpt lat="32.992046356" lon="35.536300659">
  <ele>578.504883</ele>
  <time>2011-10-15T07:45:56Z</time>
  <speed>3.380000</speed>
</trkpt>
<trkpt lat="32.992073059" lon="35.536300659">
  <ele>578.504883</ele>
  <time>2011-10-15T07:45:57Z</time>
  <speed>2.760000</speed>
</trkpt>
<trkpt lat="32.992103577" lon="35.536289215">
  <ele>578.504883</ele>
  <time>2011-10-15T07:45:58Z</time>
  <speed>2.410000</speed>
</trkpt>
<trkpt lat="32.992130280" lon="35.536281586">
  <ele>578.645508</ele>
  <time>2011-10-15T07:45:59Z</time>
  <speed>2.500000</speed>
</trkpt>
<trkpt lat="32.992164612" lon="35.536266327">
  <ele>578.817383</ele>
  <time>2011-10-15T07:46:00Z</time>
  <speed>2.890000</speed>
</trkpt>
<trkpt lat="32.992202759" lon="35.536247253">
  <ele>578.223633</ele>
  <time>2011-10-15T07:46:01Z</time>
  <speed>2.900000</speed>
</trkpt>
<trkpt lat="32.992233276" lon="35.536224365">
  <ele>578.504883</ele>
  <time>2011-10-15T07:46:02Z</time>
  <speed>3.130000</speed>
</trkpt>
<trkpt lat="32.992267609" lon="35.536212921">
  <ele>578.770508</ele>
  <time>2011-10-15T07:46:03Z</time>
  <speed>2.830000</speed>
</trkpt>
<trkpt lat="32.992301941" lon="35.536193848">
  <ele>579.286133</ele>
  <time>2011-10-15T07:46:04Z</time>
  <speed>2.610000</speed>
</trkpt>
<trkpt lat="32.992328644" lon="35.536190033">
  <ele>579.692383</ele>
  <time>2011-10-15T07:46:05Z</time>
  <speed>2.410000</speed>
</trkpt>
<trkpt lat="32.992362976" lon="35.536186218">
  <ele>580.583008</ele>
  <time>2011-10-15T07:46:06Z</time>
  <speed>2.590000</speed>
</trkpt>
<trkpt lat="32.992393494" lon="35.536182404">
  <ele>581.458008</ele>
  <time>2011-10-15T07:46:07Z</time>
  <speed>2.420000</speed>
</trkpt>
<trkpt lat="32.992424011" lon="35.536174774">
  <ele>583.301758</ele>
  <time>2011-10-15T07:46:08Z</time>
  <speed>2.010000</speed>
</trkpt>
<trkpt lat="32.992485046" lon="35.536178589">
  <ele>583.583008</ele>
  <time>2011-10-15T07:46:09Z</time>
  <speed>2.900000</speed>
</trkpt>
<trkpt lat="32.992523193" lon="35.536178589">
  <ele>583.489258</ele>
  <time>2011-10-15T07:46:10Z</time>
  <speed>2.610000</speed>
</trkpt>
<trkpt lat="32.992557526" lon="35.536182404">
  <ele>583.676758</ele>
  <time>2011-10-15T07:46:11Z</time>
  <speed>2.670000</speed>
</trkpt>
<trkpt lat="32.992588043" lon="35.536178589">
  <ele>583.223633</ele>
  <time>2011-10-15T07:46:12Z</time>
  <speed>2.310000</speed>
</trkpt>
<trkpt lat="32.992630005" lon="35.536178589">
  <ele>583.208008</ele>
  <time>2011-10-15T07:46:14Z</time>
  <speed>1.710000</speed>
</trkpt>
<trkpt lat="32.992668152" lon="35.536178589">
  <ele>583.801758</ele>
  <time>2011-10-15T07:46:16Z</time>
  <speed>1.410000</speed>
</trkpt>
<trkpt lat="32.992691040" lon="35.536163330">
  <ele>585.301758</ele>
  <time>2011-10-15T07:46:18Z</time>
  <speed>1.020000</speed>
</trkpt>
<trkpt lat="32.992725372" lon="35.536159515">
  <ele>586.223633</ele>
  <time>2011-10-15T07:46:20Z</time>
  <speed>1.670000</speed>
</trkpt>
<trkpt lat="32.992759705" lon="35.536144257">
  <ele>587.895508</ele>
  <time>2011-10-15T07:46:22Z</time>
  <speed>1.600000</speed>
</trkpt>
<trkpt lat="32.992786407" lon="35.536167145">
  <ele>586.801758</ele>
  <time>2011-10-15T07:46:24Z</time>
  <speed>1.590000</speed>
</trkpt>
<trkpt lat="32.992820740" lon="35.536159515">
  <ele>587.129883</ele>
  <time>2011-10-15T07:46:26Z</time>
  <speed>1.780000</speed>
</trkpt>
<trkpt lat="32.992858887" lon="35.536151886">
  <ele>587.629883</ele>
  <time>2011-10-15T07:46:28Z</time>
  <speed>1.580000</speed>
</trkpt>
<trkpt lat="32.992889404" lon="35.536136627">
  <ele>587.817383</ele>
  <time>2011-10-15T07:46:31Z</time>
  <speed>1.440000</speed>
</trkpt>
<trkpt lat="32.992919922" lon="35.536140442">
  <ele>587.629883</ele>
  <time>2011-10-15T07:46:33Z</time>
  <speed>1.690000</speed>
</trkpt>
<trkpt lat="32.992954254" lon="35.536128998">
  <ele>587.161133</ele>
  <time>2011-10-15T07:46:35Z</time>
  <speed>1.550000</speed>
</trkpt>
<trkpt lat="32.992996216" lon="35.536128998">
  <ele>587.145508</ele>
  <time>2011-10-15T07:46:38Z</time>
  <speed>1.300000</speed>
</trkpt>
<trkpt lat="32.993034363" lon="35.536125183">
  <ele>586.911133</ele>
  <time>2011-10-15T07:46:40Z</time>
  <speed>2.270000</speed>
</trkpt>
<trkpt lat="32.993080139" lon="35.536117554">
  <ele>587.333008</ele>
  <time>2011-10-15T07:46:42Z</time>
  <speed>2.460000</speed>
</trkpt>
<trkpt lat="32.993118286" lon="35.536128998">
  <ele>589.473633</ele>
  <time>2011-10-15T07:46:44Z</time>
  <speed>2.810000</speed>
</trkpt>
<trkpt lat="32.993179321" lon="35.536144257">
  <ele>589.426758</ele>
  <time>2011-10-15T07:46:46Z</time>
  <speed>2.410000</speed>
</trkpt>
<trkpt lat="32.993206024" lon="35.536163330">
  <ele>590.567383</ele>
  <time>2011-10-15T07:46:47Z</time>
  <speed>2.140000</speed>
</trkpt>
<trkpt lat="32.993225098" lon="35.536193848">
  <ele>589.270508</ele>
  <time>2011-10-15T07:46:49Z</time>
  <speed>2.230000</speed>
</trkpt>
<trkpt lat="32.993247986" lon="35.536224365">
  <ele>588.676758</ele>
  <time>2011-10-15T07:46:51Z</time>
  <speed>1.150000</speed>
</trkpt>
<trkpt lat="32.993270874" lon="35.536231995">
  <ele>586.864258</ele>
  <time>2011-10-15T07:47:06Z</time>
  <speed>0.040000</speed>
</trkpt>
<trkpt lat="32.993251801" lon="35.536224365">
  <ele>584.551758</ele>
  <time>2011-10-15T07:49:07Z</time>
  <speed>0.500000</speed>
</trkpt>
<trkpt lat="32.993232727" lon="35.536201477">
  <ele>584.379883</ele>
  <time>2011-10-15T07:49:12Z</time>
  <speed>0.480000</speed>
</trkpt>
<trkpt lat="32.993206024" lon="35.536193848">
  <ele>584.145508</ele>
  <time>2011-10-15T07:49:23Z</time>
  <speed>0.400000</speed>
</trkpt>
<trkpt lat="32.993175507" lon="35.536190033">
  <ele>583.989258</ele>
  <time>2011-10-15T07:49:52Z</time>
  <speed>0.370000</speed>
</trkpt>
<trkpt lat="32.993148804" lon="35.536186218">
  <ele>583.926758</ele>
  <time>2011-10-15T07:49:59Z</time>
  <speed>0.470000</speed>
</trkpt>
<trkpt lat="32.993118286" lon="35.536178589">
  <ele>583.848633</ele>
  <time>2011-10-15T07:50:04Z</time>
  <speed>0.620000</speed>
</trkpt>
<trkpt lat="32.993087769" lon="35.536182404">
  <ele>583.833008</ele>
  <time>2011-10-15T07:50:08Z</time>
  <speed>0.970000</speed>
</trkpt>
<trkpt lat="32.993053436" lon="35.536182404">
  <ele>583.192383</ele>
  <time>2011-10-15T07:50:12Z</time>
  <speed>0.490000</speed>
</trkpt>
<trkpt lat="32.993022919" lon="35.536178589">
  <ele>582.739258</ele>
  <time>2011-10-15T07:50:15Z</time>
  <speed>0.270000</speed>
</trkpt>
<trkpt lat="32.993000031" lon="35.536167145">
  <ele>582.817383</ele>
  <time>2011-10-15T07:50:18Z</time>
  <speed>0.630000</speed>
</trkpt>
<trkpt lat="32.992961884" lon="35.536151886">
  <ele>583.379883</ele>
  <time>2011-10-15T07:50:21Z</time>
  <speed>0.690000</speed>
</trkpt>
<trkpt lat="32.992935181" lon="35.536140442">
  <ele>583.458008</ele>
  <time>2011-10-15T07:50:23Z</time>
  <speed>0.930000</speed>
</trkpt>
<trkpt lat="32.992908478" lon="35.536128998">
  <ele>583.208008</ele>
  <time>2011-10-15T07:50:25Z</time>
  <speed>0.920000</speed>
</trkpt>
<trkpt lat="32.992877960" lon="35.536132813">
  <ele>582.942383</ele>
  <time>2011-10-15T07:50:28Z</time>
  <speed>0.910000</speed>
</trkpt>
<trkpt lat="32.992847443" lon="35.536140442">
  <ele>582.614258</ele>
  <time>2011-10-15T07:50:32Z</time>
  <speed>0.270000</speed>
</trkpt>
<trkpt lat="32.992820740" lon="35.536132813">
  <ele>582.473633</ele>
  <time>2011-10-15T07:50:35Z</time>
  <speed>0.640000</speed>
</trkpt>
<trkpt lat="32.992786407" lon="35.536128998">
  <ele>582.598633</ele>
  <time>2011-10-15T07:50:37Z</time>
  <speed>1.380000</speed>
</trkpt>
<trkpt lat="32.992748260" lon="35.536113739">
  <ele>582.536133</ele>
  <time>2011-10-15T07:50:39Z</time>
  <speed>1.620000</speed>
</trkpt>
<trkpt lat="32.992713928" lon="35.536117554">
  <ele>582.708008</ele>
  <time>2011-10-15T07:50:40Z</time>
  <speed>1.680000</speed>
</trkpt>
<trkpt lat="32.992671967" lon="35.536117554">
  <ele>582.692383</ele>
  <time>2011-10-15T07:50:42Z</time>
  <speed>1.680000</speed>
</trkpt>
<trkpt lat="32.992626190" lon="35.536132813">
  <ele>582.583008</ele>
  <time>2011-10-15T07:50:44Z</time>
  <speed>2.920000</speed>
</trkpt>
<trkpt lat="32.992588043" lon="35.536144257">
  <ele>582.504883</ele>
  <time>2011-10-15T07:50:45Z</time>
  <speed>2.940000</speed>
</trkpt>
<trkpt lat="32.992557526" lon="35.536148071">
  <ele>582.395508</ele>
  <time>2011-10-15T07:50:46Z</time>
  <speed>3.030000</speed>
</trkpt>
<trkpt lat="32.992523193" lon="35.536155701">
  <ele>582.223633</ele>
  <time>2011-10-15T07:50:47Z</time>
  <speed>2.840000</speed>
</trkpt>
<trkpt lat="32.992465973" lon="35.536163330">
  <ele>582.114258</ele>
  <time>2011-10-15T07:50:49Z</time>
  <speed>2.510000</speed>
</trkpt>
<trkpt lat="32.992439270" lon="35.536151886">
  <ele>581.942383</ele>
  <time>2011-10-15T07:50:50Z</time>
  <speed>3.070000</speed>
</trkpt>
<trkpt lat="32.992397308" lon="35.536151886">
  <ele>582.051758</ele>
  <time>2011-10-15T07:50:51Z</time>
  <speed>2.430000</speed>
</trkpt>
<trkpt lat="32.992340088" lon="35.536159515">
  <ele>581.895508</ele>
  <time>2011-10-15T07:50:53Z</time>
  <speed>2.540000</speed>
</trkpt>
<trkpt lat="32.992313385" lon="35.536163330">
  <ele>581.973633</ele>
  <time>2011-10-15T07:50:54Z</time>
  <speed>2.960000</speed>
</trkpt>
<trkpt lat="32.992282867" lon="35.536170959">
  <ele>581.911133</ele>
  <time>2011-10-15T07:50:55Z</time>
  <speed>2.860000</speed>
</trkpt>
<trkpt lat="32.992229462" lon="35.536167145">
  <ele>582.114258</ele>
  <time>2011-10-15T07:50:56Z</time>
  <speed>3.270000</speed>
</trkpt>
<trkpt lat="32.992195129" lon="35.536178589">
  <ele>581.989258</ele>
  <time>2011-10-15T07:50:57Z</time>
  <speed>3.340000</speed>
</trkpt>
<trkpt lat="32.992160797" lon="35.536182404">
  <ele>581.911133</ele>
  <time>2011-10-15T07:50:58Z</time>
  <speed>3.650000</speed>
</trkpt>
<trkpt lat="32.992122650" lon="35.536190033">
  <ele>581.801758</ele>
  <time>2011-10-15T07:50:59Z</time>
  <speed>2.930000</speed>
</trkpt>
<trkpt lat="32.992095947" lon="35.536182404">
  <ele>581.536133</ele>
  <time>2011-10-15T07:51:00Z</time>
  <speed>2.240000</speed>
</trkpt>
<trkpt lat="32.992065430" lon="35.536197662">
  <ele>581.254883</ele>
  <time>2011-10-15T07:51:01Z</time>
  <speed>1.980000</speed>
</trkpt>
<trkpt lat="32.992023468" lon="35.536231995">
  <ele>581.020508</ele>
  <time>2011-10-15T07:51:03Z</time>
  <speed>2.460000</speed>
</trkpt>
<trkpt lat="32.991996765" lon="35.536247253">
  <ele>580.801758</ele>
  <time>2011-10-15T07:51:04Z</time>
  <speed>2.680000</speed>
</trkpt>
<trkpt lat="32.991970062" lon="35.536251068">
  <ele>580.754883</ele>
  <time>2011-10-15T07:51:05Z</time>
  <speed>3.210000</speed>
</trkpt>
<trkpt lat="32.991931915" lon="35.536254883">
  <ele>580.614258</ele>
  <time>2011-10-15T07:51:06Z</time>
  <speed>3.400000</speed>
</trkpt>
<trkpt lat="32.991878510" lon="35.536273956">
  <ele>580.254883</ele>
  <time>2011-10-15T07:51:07Z</time>
  <speed>4.200000</speed>
</trkpt>
<trkpt lat="32.991836548" lon="35.536289215">
  <ele>580.254883</ele>
  <time>2011-10-15T07:51:08Z</time>
  <speed>3.950000</speed>
</trkpt>
<trkpt lat="32.991783142" lon="35.536308289">
  <ele>579.879883</ele>
  <time>2011-10-15T07:51:09Z</time>
  <speed>3.650000</speed>
</trkpt>
<trkpt lat="32.991741180" lon="35.536312103">
  <ele>579.786133</ele>
  <time>2011-10-15T07:51:10Z</time>
  <speed>3.790000</speed>
</trkpt>
<trkpt lat="32.991687775" lon="35.536323547">
  <ele>579.286133</ele>
  <time>2011-10-15T07:51:11Z</time>
  <speed>3.280000</speed>
</trkpt>
<trkpt lat="32.991641998" lon="35.536323547">
  <ele>578.942383</ele>
  <time>2011-10-15T07:51:12Z</time>
  <speed>3.090000</speed>
</trkpt>
<trkpt lat="32.991607666" lon="35.536319733">
  <ele>578.848633</ele>
  <time>2011-10-15T07:51:13Z</time>
  <speed>2.560000</speed>
</trkpt>
<trkpt lat="32.991577148" lon="35.536304474">
  <ele>578.254883</ele>
  <time>2011-10-15T07:51:14Z</time>
  <speed>2.550000</speed>
</trkpt>
<trkpt lat="32.991527557" lon="35.536285400">
  <ele>577.739258</ele>
  <time>2011-10-15T07:51:16Z</time>
  <speed>1.760000</speed>
</trkpt>
<trkpt lat="32.991485596" lon="35.536273956">
  <ele>577.317383</ele>
  <time>2011-10-15T07:51:18Z</time>
  <speed>1.980000</speed>
</trkpt>
<trkpt lat="32.991420746" lon="35.536239624">
  <ele>577.114258</ele>
  <time>2011-10-15T07:51:20Z</time>
  <speed>3.250000</speed>
</trkpt>
<trkpt lat="32.991386414" lon="35.536216736">
  <ele>577.020508</ele>
  <time>2011-10-15T07:51:21Z</time>
  <speed>3.610000</speed>
</trkpt>
<trkpt lat="32.991359711" lon="35.536205292">
  <ele>576.723633</ele>
  <time>2011-10-15T07:51:22Z</time>
  <speed>3.670000</speed>
</trkpt>
<trkpt lat="32.991333008" lon="35.536190033">
  <ele>576.442383</ele>
  <time>2011-10-15T07:51:23Z</time>
  <speed>3.410000</speed>
</trkpt>
<trkpt lat="32.991298676" lon="35.536174774">
  <ele>576.348633</ele>
  <time>2011-10-15T07:51:24Z</time>
  <speed>3.290000</speed>
</trkpt>
<trkpt lat="32.991256714" lon="35.536167145">
  <ele>576.239258</ele>
  <time>2011-10-15T07:51:25Z</time>
  <speed>3.160000</speed>
</trkpt>
<trkpt lat="32.991226196" lon="35.536151886">
  <ele>575.926758</ele>
  <time>2011-10-15T07:51:26Z</time>
  <speed>3.220000</speed>
</trkpt>
<trkpt lat="32.991191864" lon="35.536151886">
  <ele>575.708008</ele>
  <time>2011-10-15T07:51:27Z</time>
  <speed>3.100000</speed>
</trkpt>
<trkpt lat="32.991153717" lon="35.536155701">
  <ele>575.161133</ele>
  <time>2011-10-15T07:51:28Z</time>
  <speed>2.870000</speed>
</trkpt>
<trkpt lat="32.991111755" lon="35.536155701">
  <ele>574.504883</ele>
  <time>2011-10-15T07:51:29Z</time>
  <speed>2.940000</speed>
</trkpt>
<trkpt lat="32.991058350" lon="35.536163330">
  <ele>573.254883</ele>
  <time>2011-10-15T07:51:30Z</time>
  <speed>2.890000</speed>
</trkpt>
<trkpt lat="32.991008759" lon="35.536151886">
  <ele>573.004883</ele>
  <time>2011-10-15T07:51:32Z</time>
  <speed>2.380000</speed>
</trkpt>
<trkpt lat="32.990966797" lon="35.536128998">
  <ele>573.114258</ele>
  <time>2011-10-15T07:51:34Z</time>
  <speed>2.570000</speed>
</trkpt>
<trkpt lat="32.990921021" lon="35.536109924">
  <ele>573.958008</ele>
  <time>2011-10-15T07:51:35Z</time>
  <speed>3.860000</speed>
</trkpt>
<trkpt lat="32.990871429" lon="35.536090851">
  <ele>573.848633</ele>
  <time>2011-10-15T07:51:36Z</time>
  <speed>3.750000</speed>
</trkpt>
<trkpt lat="32.990806580" lon="35.536083221">
  <ele>573.536133</ele>
  <time>2011-10-15T07:51:38Z</time>
  <speed>4.670000</speed>
</trkpt>
<trkpt lat="32.990760803" lon="35.536083221">
  <ele>573.473633</ele>
  <time>2011-10-15T07:51:39Z</time>
  <speed>3.870000</speed>
</trkpt>
<trkpt lat="32.990726471" lon="35.536087036">
  <ele>573.333008</ele>
  <time>2011-10-15T07:51:40Z</time>
  <speed>3.400000</speed>
</trkpt>
<trkpt lat="32.990688324" lon="35.536094666">
  <ele>573.239258</ele>
  <time>2011-10-15T07:51:41Z</time>
  <speed>2.940000</speed>
</trkpt>
<trkpt lat="32.990661621" lon="35.536102295">
  <ele>573.192383</ele>
  <time>2011-10-15T07:51:42Z</time>
  <speed>2.940000</speed>
</trkpt>
<trkpt lat="32.990634918" lon="35.536113739">
  <ele>572.895508</ele>
  <time>2011-10-15T07:51:43Z</time>
  <speed>2.800000</speed>
</trkpt>
<trkpt lat="32.990604401" lon="35.536128998">
  <ele>573.036133</ele>
  <time>2011-10-15T07:51:44Z</time>
  <speed>2.710000</speed>
</trkpt>
<trkpt lat="32.990573883" lon="35.536136627">
  <ele>572.926758</ele>
  <time>2011-10-15T07:51:45Z</time>
  <speed>2.460000</speed>
</trkpt>
<trkpt lat="32.990501404" lon="35.536121368">
  <ele>573.176758</ele>
  <time>2011-10-15T07:51:47Z</time>
  <speed>2.750000</speed>
</trkpt>
<trkpt lat="32.990440369" lon="35.536132813">
  <ele>572.879883</ele>
  <time>2011-10-15T07:51:49Z</time>
  <speed>2.680000</speed>
</trkpt>
<trkpt lat="32.990409851" lon="35.536140442">
  <ele>572.551758</ele>
  <time>2011-10-15T07:51:50Z</time>
  <speed>3.170000</speed>
</trkpt>
<trkpt lat="32.990364075" lon="35.536140442">
  <ele>572.317383</ele>
  <time>2011-10-15T07:51:51Z</time>
  <speed>3.040000</speed>
</trkpt>
<trkpt lat="32.990318298" lon="35.536144257">
  <ele>571.989258</ele>
  <time>2011-10-15T07:51:53Z</time>
  <speed>2.360000</speed>
</trkpt>
<trkpt lat="32.990276337" lon="35.536151886">
  <ele>571.817383</ele>
  <time>2011-10-15T07:51:55Z</time>
  <speed>2.280000</speed>
</trkpt>
<trkpt lat="32.990245819" lon="35.536155701">
  <ele>571.801758</ele>
  <time>2011-10-15T07:51:56Z</time>
  <speed>2.870000</speed>
</trkpt>
<trkpt lat="32.990211487" lon="35.536151886">
  <ele>571.801758</ele>
  <time>2011-10-15T07:51:57Z</time>
  <speed>3.850000</speed>
</trkpt>
<trkpt lat="32.990173340" lon="35.536159515">
  <ele>571.551758</ele>
  <time>2011-10-15T07:51:58Z</time>
  <speed>3.100000</speed>
</trkpt>
<trkpt lat="32.990139008" lon="35.536159515">
  <ele>571.676758</ele>
  <time>2011-10-15T07:51:59Z</time>
  <speed>2.060000</speed>
</trkpt>
<trkpt lat="32.990104675" lon="35.536163330">
  <ele>571.911133</ele>
  <time>2011-10-15T07:52:00Z</time>
  <speed>1.750000</speed>
</trkpt>
<trkpt lat="32.990058899" lon="35.536193848">
  <ele>571.864258</ele>
  <time>2011-10-15T07:52:02Z</time>
  <speed>1.980000</speed>
</trkpt>
<trkpt lat="32.990009308" lon="35.536224365">
  <ele>571.723633</ele>
  <time>2011-10-15T07:52:04Z</time>
  <speed>2.040000</speed>
</trkpt>
<trkpt lat="32.989978790" lon="35.536235809">
  <ele>571.536133</ele>
  <time>2011-10-15T07:52:05Z</time>
  <speed>2.490000</speed>
</trkpt>
<trkpt lat="32.989910126" lon="35.536243439">
  <ele>572.098633</ele>
  <time>2011-10-15T07:52:07Z</time>
  <speed>1.370000</speed>
</trkpt>
<trkpt lat="32.989887238" lon="35.536262512">
  <ele>572.551758</ele>
  <time>2011-10-15T07:52:09Z</time>
  <speed>0.190000</speed>
</trkpt>
<trkpt lat="32.989871979" lon="35.536293030">
  <ele>572.833008</ele>
  <time>2011-10-15T07:52:10Z</time>
  <speed>0.170000</speed>
</trkpt>
<trkpt lat="32.989849091" lon="35.536312103">
  <ele>572.708008</ele>
  <time>2011-10-15T07:52:38Z</time>
  <speed>0.070000</speed>
</trkpt>
<trkpt lat="32.989818573" lon="35.536312103">
  <ele>572.676758</ele>
  <time>2011-10-15T07:52:56Z</time>
  <speed>0.360000</speed>
</trkpt>
<trkpt lat="32.989791870" lon="35.536319733">
  <ele>572.098633</ele>
  <time>2011-10-15T07:53:39Z</time>
  <speed>0.150000</speed>
</trkpt>
<trkpt lat="32.989765167" lon="35.536327362">
  <ele>571.973633</ele>
  <time>2011-10-15T07:53:53Z</time>
  <speed>0.230000</speed>
</trkpt>
<trkpt lat="32.989795685" lon="35.536338806">
  <ele>572.754883</ele>
  <time>2011-10-15T07:54:23Z</time>
  <speed>1.960000</speed>
</trkpt>
<trkpt lat="32.989826202" lon="35.536350250">
  <ele>573.864258</ele>
  <time>2011-10-15T07:54:24Z</time>
  <speed>2.160000</speed>
</trkpt>
<trkpt lat="32.989860535" lon="35.536384583">
  <ele>574.676758</ele>
  <time>2011-10-15T07:54:26Z</time>
  <speed>2.160000</speed>
</trkpt>
<trkpt lat="32.989906311" lon="35.536418915">
  <ele>574.504883</ele>
  <time>2011-10-15T07:54:28Z</time>
  <speed>2.380000</speed>
</trkpt>
<trkpt lat="32.989913940" lon="35.536464691">
  <ele>574.114258</ele>
  <time>2011-10-15T07:54:30Z</time>
  <speed>2.270000</speed>
</trkpt>
<trkpt lat="32.989883423" lon="35.536487579">
  <ele>573.551758</ele>
  <time>2011-10-15T07:54:32Z</time>
  <speed>2.460000</speed>
</trkpt>
<trkpt lat="32.989841461" lon="35.536506653">
  <ele>573.176758</ele>
  <time>2011-10-15T07:54:34Z</time>
  <speed>2.630000</speed>
</trkpt>
<trkpt lat="32.989810944" lon="35.536544800">
  <ele>572.145508</ele>
  <time>2011-10-15T07:54:36Z</time>
  <speed>1.800000</speed>
</trkpt>
<trkpt lat="32.989803314" lon="35.536598206">
  <ele>570.942383</ele>
  <time>2011-10-15T07:54:38Z</time>
  <speed>1.800000</speed>
</trkpt>
<trkpt lat="32.989837646" lon="35.536636353">
  <ele>569.692383</ele>
  <time>2011-10-15T07:54:40Z</time>
  <speed>1.970000</speed>
</trkpt>
<trkpt lat="32.989875793" lon="35.536655426">
  <ele>568.895508</ele>
  <time>2011-10-15T07:54:42Z</time>
  <speed>1.560000</speed>
</trkpt>
<trkpt lat="32.989891052" lon="35.536682129">
  <ele>568.676758</ele>
  <time>2011-10-15T07:54:49Z</time>
  <speed>0.110000</speed>
</trkpt>
<trkpt lat="32.989868164" lon="35.536666870">
  <ele>567.754883</ele>
  <time>2011-10-15T07:54:59Z</time>
  <speed>0.690000</speed>
</trkpt>
<trkpt lat="32.989833832" lon="35.536659241">
  <ele>566.942383</ele>
  <time>2011-10-15T07:55:02Z</time>
  <speed>0.660000</speed>
</trkpt>
<trkpt lat="32.989810944" lon="35.536643982">
  <ele>566.770508</ele>
  <time>2011-10-15T07:55:04Z</time>
  <speed>0.420000</speed>
</trkpt>
<trkpt lat="32.989784241" lon="35.536640167">
  <ele>565.973633</ele>
  <time>2011-10-15T07:55:06Z</time>
  <speed>0.620000</speed>
</trkpt>
<trkpt lat="32.989757538" lon="35.536636353">
  <ele>565.504883</ele>
  <time>2011-10-15T07:55:09Z</time>
  <speed>0.680000</speed>
</trkpt>
<trkpt lat="32.989727020" lon="35.536643982">
  <ele>564.895508</ele>
  <time>2011-10-15T07:55:14Z</time>
  <speed>0.450000</speed>
</trkpt>
<trkpt lat="32.989746094" lon="35.536617279">
  <ele>564.536133</ele>
  <time>2011-10-15T07:56:58Z</time>
  <speed>0.220000</speed>
</trkpt>
<trkpt lat="32.989723206" lon="35.536586761">
  <ele>565.426758</ele>
  <time>2011-10-15T07:57:05Z</time>
  <speed>0.480000</speed>
</trkpt>
<trkpt lat="32.989700317" lon="35.536552429">
  <ele>565.333008</ele>
  <time>2011-10-15T07:57:09Z</time>
  <speed>0.760000</speed>
</trkpt>
<trkpt lat="32.989673615" lon="35.536544800">
  <ele>565.473633</ele>
  <time>2011-10-15T07:57:12Z</time>
  <speed>0.930000</speed>
</trkpt>
<trkpt lat="32.989643097" lon="35.536548615">
  <ele>565.598633</ele>
  <time>2011-10-15T07:57:15Z</time>
  <speed>0.980000</speed>
</trkpt>
<trkpt lat="32.989624023" lon="35.536518097">
  <ele>565.333008</ele>
  <time>2011-10-15T07:57:21Z</time>
  <speed>0.610000</speed>
</trkpt>
<trkpt lat="32.989620209" lon="35.536472321">
  <ele>565.411133</ele>
  <time>2011-10-15T07:57:25Z</time>
  <speed>0.750000</speed>
</trkpt>
<trkpt lat="32.989604950" lon="35.536437988">
  <ele>565.504883</ele>
  <time>2011-10-15T07:57:29Z</time>
  <speed>0.690000</speed>
</trkpt>
<trkpt lat="32.989585876" lon="35.536407471">
  <ele>565.879883</ele>
  <time>2011-10-15T07:57:33Z</time>
  <speed>0.380000</speed>
</trkpt>
<trkpt lat="32.989570618" lon="35.536369324">
  <ele>566.270508</ele>
  <time>2011-10-15T07:57:37Z</time>
  <speed>0.800000</speed>
</trkpt>
<trkpt lat="32.989543915" lon="35.536342621">
  <ele>565.973633</ele>
  <time>2011-10-15T07:57:40Z</time>
  <speed>0.720000</speed>
</trkpt>
<trkpt lat="32.989543915" lon="35.536308289">
  <ele>566.442383</ele>
  <time>2011-10-15T07:57:44Z</time>
  <speed>0.540000</speed>
</trkpt>
<trkpt lat="32.989532471" lon="35.536266327">
  <ele>567.333008</ele>
  <time>2011-10-15T07:57:47Z</time>
  <speed>0.670000</speed>
</trkpt>
<trkpt lat="32.989524841" lon="35.536231995">
  <ele>567.426758</ele>
  <time>2011-10-15T07:57:50Z</time>
  <speed>0.770000</speed>
</trkpt>
<trkpt lat="32.989521027" lon="35.536201477">
  <ele>567.254883</ele>
  <time>2011-10-15T07:57:53Z</time>
  <speed>0.790000</speed>
</trkpt>
<trkpt lat="32.989501953" lon="35.536174774">
  <ele>567.426758</ele>
  <time>2011-10-15T07:57:56Z</time>
  <speed>0.690000</speed>
</trkpt>
<trkpt lat="32.989467621" lon="35.536170959">
  <ele>567.473633</ele>
  <time>2011-10-15T07:58:00Z</time>
  <speed>0.680000</speed>
</trkpt>
<trkpt lat="32.989437103" lon="35.536174774">
  <ele>567.958008</ele>
  <time>2011-10-15T07:58:06Z</time>
  <speed>0.410000</speed>
</trkpt>
<trkpt lat="32.989410400" lon="35.536197662">
  <ele>567.958008</ele>
  <time>2011-10-15T07:58:09Z</time>
  <speed>0.700000</speed>
</trkpt>
<trkpt lat="32.989391327" lon="35.536220551">
  <ele>568.833008</ele>
  <time>2011-10-15T07:58:11Z</time>
  <speed>1.000000</speed>
</trkpt>
<trkpt lat="32.989372253" lon="35.536251068">
  <ele>569.661133</ele>
  <time>2011-10-15T07:58:14Z</time>
  <speed>0.730000</speed>
</trkpt>
<trkpt lat="32.989345551" lon="35.536289215">
  <ele>570.395508</ele>
  <time>2011-10-15T07:58:17Z</time>
  <speed>1.000000</speed>
</trkpt>
<trkpt lat="32.989322662" lon="35.536312103">
  <ele>570.567383</ele>
  <time>2011-10-15T07:58:20Z</time>
  <speed>1.000000</speed>
</trkpt>
<trkpt lat="32.989295959" lon="35.536327362">
  <ele>570.411133</ele>
  <time>2011-10-15T07:58:22Z</time>
  <speed>0.770000</speed>
</trkpt>
<trkpt lat="32.989273071" lon="35.536338806">
  <ele>570.426758</ele>
  <time>2011-10-15T07:58:25Z</time>
  <speed>0.790000</speed>
</trkpt>
<trkpt lat="32.989238739" lon="35.536354065">
  <ele>570.536133</ele>
  <time>2011-10-15T07:58:29Z</time>
  <speed>0.680000</speed>
</trkpt>
<trkpt lat="32.989212036" lon="35.536384583">
  <ele>570.692383</ele>
  <time>2011-10-15T07:58:32Z</time>
  <speed>0.860000</speed>
</trkpt>
<trkpt lat="32.989189148" lon="35.536407471">
  <ele>571.051758</ele>
  <time>2011-10-15T07:58:35Z</time>
  <speed>0.680000</speed>
</trkpt>
<trkpt lat="32.989151001" lon="35.536437988">
  <ele>571.583008</ele>
  <time>2011-10-15T07:58:38Z</time>
  <speed>1.100000</speed>
</trkpt>
<trkpt lat="32.989120483" lon="35.536445618">
  <ele>571.770508</ele>
  <time>2011-10-15T07:58:40Z</time>
  <speed>1.490000</speed>
</trkpt>
<trkpt lat="32.989093781" lon="35.536457062">
  <ele>571.770508</ele>
  <time>2011-10-15T07:58:42Z</time>
  <speed>1.160000</speed>
</trkpt>
<trkpt lat="32.989067078" lon="35.536441803">
  <ele>571.442383</ele>
  <time>2011-10-15T07:58:46Z</time>
  <speed>0.780000</speed>
</trkpt>
<trkpt lat="32.989051819" lon="35.536407471">
  <ele>570.989258</ele>
  <time>2011-10-15T07:58:49Z</time>
  <speed>0.930000</speed>
</trkpt>
<trkpt lat="32.989036560" lon="35.536376953">
  <ele>570.551758</ele>
  <time>2011-10-15T07:58:53Z</time>
  <speed>0.870000</speed>
</trkpt>
<trkpt lat="32.989006042" lon="35.536357880">
  <ele>569.770508</ele>
  <time>2011-10-15T07:58:55Z</time>
  <speed>0.960000</speed>
</trkpt>
<trkpt lat="32.988990784" lon="35.536331177">
  <ele>569.364258</ele>
  <time>2011-10-15T07:58:58Z</time>
  <speed>0.750000</speed>
</trkpt>
<trkpt lat="32.988964081" lon="35.536327362">
  <ele>569.676758</ele>
  <time>2011-10-15T07:59:04Z</time>
  <speed>0.120000</speed>
</trkpt>
<trkpt lat="32.988967896" lon="35.536327362">
  <ele>566.629883</ele>
  <time>2011-10-15T07:59:52Z</time>
  <speed>0.030000</speed>
</trkpt>
<trkpt lat="32.988971710" lon="35.536338806">
  <ele>563.661133</ele>
  <time>2011-10-15T08:00:11Z</time>
  <speed>0.150000</speed>
</trkpt>
<trkpt lat="32.988964081" lon="35.536361694">
  <ele>561.583008</ele>
  <time>2011-10-15T08:00:23Z</time>
  <speed>0.180000</speed>
</trkpt>
<trkpt lat="32.988967896" lon="35.536338806">
  <ele>563.879883</ele>
  <time>2011-10-15T08:01:22Z</time>
  <speed>0.090000</speed>
</trkpt>
<trkpt lat="32.988967896" lon="35.536334991">
  <ele>566.973633</ele>
  <time>2011-10-15T08:01:40Z</time>
  <speed>0.080000</speed>
</trkpt>
<trkpt lat="32.988945007" lon="35.536338806">
  <ele>568.958008</ele>
  <time>2011-10-15T08:01:53Z</time>
  <speed>0.200000</speed>
</trkpt>
<trkpt lat="32.988922119" lon="35.536342621">
  <ele>570.770508</ele>
  <time>2011-10-15T08:02:09Z</time>
  <speed>0.140000</speed>
</trkpt>
<trkpt lat="32.988941193" lon="35.536319733">
  <ele>570.489258</ele>
  <time>2011-10-15T08:02:57Z</time>
  <speed>0.090000</speed>
</trkpt>
<trkpt lat="32.988933563" lon="35.536308289">
  <ele>567.911133</ele>
  <time>2011-10-15T08:03:20Z</time>
</trkpt>
<trkpt lat="32.988960266" lon="35.536296844">
  <ele>565.567383</ele>
  <time>2011-10-15T08:03:38Z</time>
  <speed>0.780000</speed>
</trkpt>
<trkpt lat="32.988986969" lon="35.536273956">
  <ele>565.286133</ele>
  <time>2011-10-15T08:03:41Z</time>
  <speed>0.490000</speed>
</trkpt>
<trkpt lat="32.989013672" lon="35.536251068">
  <ele>565.301758</ele>
  <time>2011-10-15T08:03:45Z</time>
  <speed>0.600000</speed>
</trkpt>
<trkpt lat="32.989013672" lon="35.536209106">
  <ele>564.879883</ele>
  <time>2011-10-15T08:03:48Z</time>
  <speed>0.900000</speed>
</trkpt>
<trkpt lat="32.989028931" lon="35.536174774">
  <ele>563.895508</ele>
  <time>2011-10-15T08:03:52Z</time>
  <speed>0.790000</speed>
</trkpt>
<trkpt lat="32.989051819" lon="35.536155701">
  <ele>563.583008</ele>
  <time>2011-10-15T08:03:55Z</time>
  <speed>0.870000</speed>
</trkpt>
<trkpt lat="32.989078522" lon="35.536128998">
  <ele>563.192383</ele>
  <time>2011-10-15T08:03:58Z</time>
  <speed>0.850000</speed>
</trkpt>
<trkpt lat="32.989105225" lon="35.536098480">
  <ele>563.786133</ele>
  <time>2011-10-15T08:04:01Z</time>
  <speed>1.040000</speed>
</trkpt>
<trkpt lat="32.989139557" lon="35.536079407">
  <ele>563.567383</ele>
  <time>2011-10-15T08:04:04Z</time>
  <speed>0.950000</speed>
</trkpt>
<trkpt lat="32.989158630" lon="35.536048889">
  <ele>563.754883</ele>
  <time>2011-10-15T08:04:07Z</time>
  <speed>0.770000</speed>
</trkpt>
<trkpt lat="32.989185333" lon="35.536026001">
  <ele>563.567383</ele>
  <time>2011-10-15T08:04:10Z</time>
  <speed>0.890000</speed>
</trkpt>
<trkpt lat="32.989208221" lon="35.536006927">
  <ele>563.504883</ele>
  <time>2011-10-15T08:04:12Z</time>
  <speed>0.950000</speed>
</trkpt>
<trkpt lat="32.989231110" lon="35.535980225">
  <ele>563.458008</ele>
  <time>2011-10-15T08:04:16Z</time>
  <speed>0.680000</speed>
</trkpt>
<trkpt lat="32.989261627" lon="35.535968781">
  <ele>564.114258</ele>
  <time>2011-10-15T08:04:20Z</time>
  <speed>0.790000</speed>
</trkpt>
<trkpt lat="32.989288330" lon="35.535961151">
  <ele>564.489258</ele>
  <time>2011-10-15T08:04:23Z</time>
  <speed>0.960000</speed>
</trkpt>
<trkpt lat="32.989315033" lon="35.535949707">
  <ele>565.489258</ele>
  <time>2011-10-15T08:04:26Z</time>
  <speed>0.640000</speed>
</trkpt>
<trkpt lat="32.989353180" lon="35.535938263">
  <ele>566.801758</ele>
  <time>2011-10-15T08:04:30Z</time>
  <speed>0.800000</speed>
</trkpt>
<trkpt lat="32.989379883" lon="35.535953522">
  <ele>566.770508</ele>
  <time>2011-10-15T08:04:33Z</time>
  <speed>0.670000</speed>
</trkpt>
<trkpt lat="32.989406586" lon="35.535961151">
  <ele>567.458008</ele>
  <time>2011-10-15T08:04:35Z</time>
  <speed>0.240000</speed>
</trkpt>
<trkpt lat="32.989414215" lon="35.535980225">
  <ele>569.708008</ele>
  <time>2011-10-15T08:04:50Z</time>
  <speed>0.110000</speed>
</trkpt>
<trkpt lat="32.989433289" lon="35.536014557">
  <ele>571.083008</ele>
  <time>2011-10-15T08:04:57Z</time>
  <speed>1.680000</speed>
</trkpt>
<trkpt lat="32.989456177" lon="35.536064148">
  <ele>572.536133</ele>
  <time>2011-10-15T08:04:59Z</time>
  <speed>2.360000</speed>
</trkpt>
<trkpt lat="32.989475250" lon="35.536090851">
  <ele>572.801758</ele>
  <time>2011-10-15T08:05:00Z</time>
  <speed>2.840000</speed>
</trkpt>
<trkpt lat="32.989513397" lon="35.536132813">
  <ele>572.973633</ele>
  <time>2011-10-15T08:05:02Z</time>
  <speed>2.150000</speed>
</trkpt>
<trkpt lat="32.989551544" lon="35.536170959">
  <ele>573.770508</ele>
  <time>2011-10-15T08:05:04Z</time>
  <speed>2.860000</speed>
</trkpt>
<trkpt lat="32.989589691" lon="35.536205292">
  <ele>572.614258</ele>
  <time>2011-10-15T08:05:06Z</time>
  <speed>3.030000</speed>
</trkpt>
<trkpt lat="32.989616394" lon="35.536224365">
  <ele>572.504883</ele>
  <time>2011-10-15T08:05:07Z</time>
  <speed>2.930000</speed>
</trkpt>
<trkpt lat="32.989639282" lon="35.536247253">
  <ele>572.286133</ele>
  <time>2011-10-15T08:05:08Z</time>
  <speed>2.660000</speed>
</trkpt>
<trkpt lat="32.989662170" lon="35.536266327">
  <ele>571.879883</ele>
  <time>2011-10-15T08:05:09Z</time>
  <speed>2.890000</speed>
</trkpt>
<trkpt lat="32.989688873" lon="35.536281586">
  <ele>571.520508</ele>
  <time>2011-10-15T08:05:10Z</time>
  <speed>3.320000</speed>
</trkpt>
<trkpt lat="32.989723206" lon="35.536296844">
  <ele>571.051758</ele>
  <time>2011-10-15T08:05:11Z</time>
  <speed>3.830000</speed>
</trkpt>
<trkpt lat="32.989761353" lon="35.536315918">
  <ele>570.989258</ele>
  <time>2011-10-15T08:05:12Z</time>
  <speed>3.470000</speed>
</trkpt>
<trkpt lat="32.989795685" lon="35.536327362">
  <ele>570.676758</ele>
  <time>2011-10-15T08:05:13Z</time>
  <speed>3.930000</speed>
</trkpt>
<trkpt lat="32.989837646" lon="35.536327362">
  <ele>569.692383</ele>
  <time>2011-10-15T08:05:14Z</time>
  <speed>4.250000</speed>
</trkpt>
<trkpt lat="32.989883423" lon="35.536319733">
  <ele>569.395508</ele>
  <time>2011-10-15T08:05:15Z</time>
  <speed>4.930000</speed>
</trkpt>
<trkpt lat="32.989925385" lon="35.536312103">
  <ele>568.911133</ele>
  <time>2011-10-15T08:05:16Z</time>
  <speed>4.690000</speed>
</trkpt>
<trkpt lat="32.989959717" lon="35.536289215">
  <ele>568.489258</ele>
  <time>2011-10-15T08:05:17Z</time>
  <speed>4.040000</speed>
</trkpt>
<trkpt lat="32.989997864" lon="35.536270142">
  <ele>567.833008</ele>
  <time>2011-10-15T08:05:18Z</time>
  <speed>2.970000</speed>
</trkpt>
<trkpt lat="32.990028381" lon="35.536258698">
  <ele>567.270508</ele>
  <time>2011-10-15T08:05:19Z</time>
  <speed>2.540000</speed>
</trkpt>
<trkpt lat="32.990066528" lon="35.536231995">
  <ele>566.926758</ele>
  <time>2011-10-15T08:05:21Z</time>
  <speed>1.480000</speed>
</trkpt>
<trkpt lat="32.990108490" lon="35.536212921">
  <ele>566.145508</ele>
  <time>2011-10-15T08:05:23Z</time>
  <speed>2.180000</speed>
</trkpt>
<trkpt lat="32.990150452" lon="35.536190033">
  <ele>565.583008</ele>
  <time>2011-10-15T08:05:25Z</time>
  <speed>1.880000</speed>
</trkpt>
<trkpt lat="32.990192413" lon="35.536190033">
  <ele>565.973633</ele>
  <time>2011-10-15T08:05:27Z</time>
  <speed>1.600000</speed>
</trkpt>
<trkpt lat="32.990226746" lon="35.536193848">
  <ele>565.692383</ele>
  <time>2011-10-15T08:05:28Z</time>
  <speed>2.140000</speed>
</trkpt>
<trkpt lat="32.990268707" lon="35.536190033">
  <ele>565.411133</ele>
  <time>2011-10-15T08:05:30Z</time>
  <speed>2.010000</speed>
</trkpt>
<trkpt lat="32.990314484" lon="35.536182404">
  <ele>565.379883</ele>
  <time>2011-10-15T08:05:32Z</time>
  <speed>2.370000</speed>
</trkpt>
<trkpt lat="32.990348816" lon="35.536182404">
  <ele>564.973633</ele>
  <time>2011-10-15T08:05:33Z</time>
  <speed>2.570000</speed>
</trkpt>
<trkpt lat="32.990379333" lon="35.536174774">
  <ele>565.567383</ele>
  <time>2011-10-15T08:05:34Z</time>
  <speed>2.700000</speed>
</trkpt>
<trkpt lat="32.990417480" lon="35.536170959">
  <ele>565.958008</ele>
  <time>2011-10-15T08:05:35Z</time>
  <speed>2.780000</speed>
</trkpt>
<trkpt lat="32.990463257" lon="35.536167145">
  <ele>566.645508</ele>
  <time>2011-10-15T08:05:36Z</time>
  <speed>2.900000</speed>
</trkpt>
<trkpt lat="32.990497589" lon="35.536167145">
  <ele>565.083008</ele>
  <time>2011-10-15T08:05:37Z</time>
  <speed>2.880000</speed>
</trkpt>
<trkpt lat="32.990535736" lon="35.536167145">
  <ele>565.817383</ele>
  <time>2011-10-15T08:05:38Z</time>
  <speed>3.070000</speed>
</trkpt>
<trkpt lat="32.990573883" lon="35.536167145">
  <ele>566.051758</ele>
  <time>2011-10-15T08:05:39Z</time>
  <speed>3.490000</speed>
</trkpt>
<trkpt lat="32.990612030" lon="35.536163330">
  <ele>566.036133</ele>
  <time>2011-10-15T08:05:40Z</time>
  <speed>2.730000</speed>
</trkpt>
<trkpt lat="32.990650177" lon="35.536167145">
  <ele>565.723633</ele>
  <time>2011-10-15T08:05:41Z</time>
  <speed>2.390000</speed>
</trkpt>
<trkpt lat="32.990676880" lon="35.536167145">
  <ele>564.676758</ele>
  <time>2011-10-15T08:05:42Z</time>
  <speed>2.860000</speed>
</trkpt>
<trkpt lat="32.990707397" lon="35.536170959">
  <ele>564.848633</ele>
  <time>2011-10-15T08:05:43Z</time>
  <speed>2.310000</speed>
</trkpt>
<trkpt lat="32.990753174" lon="35.536170959">
  <ele>565.270508</ele>
  <time>2011-10-15T08:05:44Z</time>
  <speed>1.900000</speed>
</trkpt>
<trkpt lat="32.990791321" lon="35.536163330">
  <ele>567.333008</ele>
  <time>2011-10-15T08:05:46Z</time>
  <speed>0.490000</speed>
</trkpt>
<trkpt lat="32.990810394" lon="35.536144257">
  <ele>571.254883</ele>
  <time>2011-10-15T08:05:47Z</time>
  <speed>0.360000</speed>
</trkpt>
<trkpt lat="32.990818024" lon="35.536117554">
  <ele>574.208008</ele>
  <time>2011-10-15T08:05:48Z</time>
  <speed>0.140000</speed>
</trkpt>
<trkpt lat="32.990825653" lon="35.536090851">
  <ele>575.864258</ele>
  <time>2011-10-15T08:05:55Z</time>
  <speed>0.130000</speed>
</trkpt>
<trkpt lat="32.990852356" lon="35.536075592">
  <ele>576.051758</ele>
  <time>2011-10-15T08:06:25Z</time>
  <speed>0.240000</speed>
</trkpt>
<trkpt lat="32.990886688" lon="35.536071777">
  <ele>576.067383</ele>
  <time>2011-10-15T08:06:35Z</time>
  <speed>1.020000</speed>
</trkpt>
<trkpt lat="32.990917206" lon="35.536079407">
  <ele>577.020508</ele>
  <time>2011-10-15T08:06:37Z</time>
  <speed>1.320000</speed>
</trkpt>
<trkpt lat="32.990947723" lon="35.536083221">
  <ele>577.879883</ele>
  <time>2011-10-15T08:06:39Z</time>
  <speed>1.300000</speed>
</trkpt>
<trkpt lat="32.990989685" lon="35.536117554">
  <ele>577.833008</ele>
  <time>2011-10-15T08:06:41Z</time>
  <speed>1.410000</speed>
</trkpt>
<trkpt lat="32.991027832" lon="35.536136627">
  <ele>577.551758</ele>
  <time>2011-10-15T08:06:43Z</time>
  <speed>2.010000</speed>
</trkpt>
<trkpt lat="32.991069794" lon="35.536151886">
  <ele>577.614258</ele>
  <time>2011-10-15T08:06:45Z</time>
  <speed>2.340000</speed>
</trkpt>
<trkpt lat="32.991104126" lon="35.536167145">
  <ele>577.895508</ele>
  <time>2011-10-15T08:06:46Z</time>
  <speed>2.500000</speed>
</trkpt>
<trkpt lat="32.991153717" lon="35.536190033">
  <ele>577.864258</ele>
  <time>2011-10-15T08:06:48Z</time>
  <speed>2.250000</speed>
</trkpt>
<trkpt lat="32.991180420" lon="35.536216736">
  <ele>577.192383</ele>
  <time>2011-10-15T08:06:49Z</time>
  <speed>2.370000</speed>
</trkpt>
<trkpt lat="32.991210938" lon="35.536235809">
  <ele>576.833008</ele>
  <time>2011-10-15T08:06:50Z</time>
  <speed>2.700000</speed>
</trkpt>
<trkpt lat="32.991237640" lon="35.536254883">
  <ele>576.442383</ele>
  <time>2011-10-15T08:06:51Z</time>
  <speed>2.570000</speed>
</trkpt>
<trkpt lat="32.991271973" lon="35.536289215">
  <ele>576.411133</ele>
  <time>2011-10-15T08:06:53Z</time>
  <speed>2.210000</speed>
</trkpt>
<trkpt lat="32.991302490" lon="35.536300659">
  <ele>576.473633</ele>
  <time>2011-10-15T08:06:54Z</time>
  <speed>2.140000</speed>
</trkpt>
<trkpt lat="32.991329193" lon="35.536308289">
  <ele>576.676758</ele>
  <time>2011-10-15T08:06:55Z</time>
  <speed>1.800000</speed>
</trkpt>
<trkpt lat="32.991352081" lon="35.536327362">
  <ele>576.333008</ele>
  <time>2011-10-15T08:06:56Z</time>
  <speed>1.770000</speed>
</trkpt>
<trkpt lat="32.991390228" lon="35.536350250">
  <ele>575.817383</ele>
  <time>2011-10-15T08:06:58Z</time>
  <speed>1.760000</speed>
</trkpt>
<trkpt lat="32.991420746" lon="35.536357880">
  <ele>575.708008</ele>
  <time>2011-10-15T08:06:59Z</time>
  <speed>2.080000</speed>
</trkpt>
<trkpt lat="32.991451263" lon="35.536369324">
  <ele>575.536133</ele>
  <time>2011-10-15T08:07:00Z</time>
  <speed>2.640000</speed>
</trkpt>
<trkpt lat="32.991493225" lon="35.536384583">
  <ele>575.301758</ele>
  <time>2011-10-15T08:07:01Z</time>
  <speed>3.130000</speed>
</trkpt>
<trkpt lat="32.991539001" lon="35.536392212">
  <ele>574.895508</ele>
  <time>2011-10-15T08:07:02Z</time>
  <speed>3.440000</speed>
</trkpt>
<trkpt lat="32.991584778" lon="35.536411285">
  <ele>574.676758</ele>
  <time>2011-10-15T08:07:03Z</time>
  <speed>3.650000</speed>
</trkpt>
<trkpt lat="32.991630554" lon="35.536415100">
  <ele>575.004883</ele>
  <time>2011-10-15T08:07:04Z</time>
  <speed>3.710000</speed>
</trkpt>
<trkpt lat="32.991676331" lon="35.536415100">
  <ele>574.926758</ele>
  <time>2011-10-15T08:07:05Z</time>
  <speed>3.530000</speed>
</trkpt>
<trkpt lat="32.991725922" lon="35.536392212">
  <ele>574.661133</ele>
  <time>2011-10-15T08:07:06Z</time>
  <speed>4.620000</speed>
</trkpt>
<trkpt lat="32.991771698" lon="35.536373138">
  <ele>574.598633</ele>
  <time>2011-10-15T08:07:07Z</time>
  <speed>3.240000</speed>
</trkpt>
<trkpt lat="32.991809845" lon="35.536354065">
  <ele>574.426758</ele>
  <time>2011-10-15T08:07:08Z</time>
  <speed>2.990000</speed>
</trkpt>
<trkpt lat="32.991844177" lon="35.536327362">
  <ele>574.911133</ele>
  <time>2011-10-15T08:07:09Z</time>
  <speed>3.330000</speed>
</trkpt>
<trkpt lat="32.991882324" lon="35.536308289">
  <ele>575.301758</ele>
  <time>2011-10-15T08:07:10Z</time>
  <speed>2.980000</speed>
</trkpt>
<trkpt lat="32.991909027" lon="35.536281586">
  <ele>575.583008</ele>
  <time>2011-10-15T08:07:11Z</time>
  <speed>2.330000</speed>
</trkpt>
<trkpt lat="32.991939545" lon="35.536266327">
  <ele>575.645508</ele>
  <time>2011-10-15T08:07:12Z</time>
  <speed>2.600000</speed>
</trkpt>
<trkpt lat="32.991973877" lon="35.536254883">
  <ele>575.645508</ele>
  <time>2011-10-15T08:07:13Z</time>
  <speed>2.430000</speed>
</trkpt>
<trkpt lat="32.992000580" lon="35.536243439">
  <ele>575.661133</ele>
  <time>2011-10-15T08:07:14Z</time>
  <speed>2.240000</speed>
</trkpt>
<trkpt lat="32.992034912" lon="35.536243439">
  <ele>575.520508</ele>
  <time>2011-10-15T08:07:15Z</time>
  <speed>2.340000</speed>
</trkpt>
<trkpt lat="32.992069244" lon="35.536251068">
  <ele>575.067383</ele>
  <time>2011-10-15T08:07:16Z</time>
  <speed>2.240000</speed>
</trkpt>
<trkpt lat="32.992103577" lon="35.536239624">
  <ele>574.661133</ele>
  <time>2011-10-15T08:07:17Z</time>
  <speed>2.360000</speed>
</trkpt>
<trkpt lat="32.992149353" lon="35.536239624">
  <ele>574.020508</ele>
  <time>2011-10-15T08:07:18Z</time>
  <speed>1.820000</speed>
</trkpt>
<trkpt lat="32.992176056" lon="35.536220551">
  <ele>573.739258</ele>
  <time>2011-10-15T08:07:19Z</time>
  <speed>2.400000</speed>
</trkpt>
<trkpt lat="32.992214203" lon="35.536197662">
  <ele>573.520508</ele>
  <time>2011-10-15T08:07:20Z</time>
  <speed>2.580000</speed>
</trkpt>
<trkpt lat="32.992240906" lon="35.536174774">
  <ele>573.895508</ele>
  <time>2011-10-15T08:07:21Z</time>
  <speed>2.270000</speed>
</trkpt>
<trkpt lat="32.992271423" lon="35.536155701">
  <ele>573.770508</ele>
  <time>2011-10-15T08:07:22Z</time>
  <speed>1.920000</speed>
</trkpt>
<trkpt lat="32.992301941" lon="35.536159515">
  <ele>573.723633</ele>
  <time>2011-10-15T08:07:23Z</time>
  <speed>1.820000</speed>
</trkpt>
<trkpt lat="32.992370605" lon="35.536163330">
  <ele>573.567383</ele>
  <time>2011-10-15T08:07:25Z</time>
  <speed>2.070000</speed>
</trkpt>
<trkpt lat="32.992431641" lon="35.536151886">
  <ele>572.958008</ele>
  <time>2011-10-15T08:07:27Z</time>
  <speed>2.100000</speed>
</trkpt>
<trkpt lat="32.992462158" lon="35.536144257">
  <ele>573.661133</ele>
  <time>2011-10-15T08:07:28Z</time>
  <speed>1.800000</speed>
</trkpt>
<trkpt lat="32.992504120" lon="35.536140442">
  <ele>574.395508</ele>
  <time>2011-10-15T08:07:30Z</time>
  <speed>1.280000</speed>
</trkpt>
<trkpt lat="32.992557526" lon="35.536148071">
  <ele>573.942383</ele>
  <time>2011-10-15T08:07:32Z</time>
  <speed>1.580000</speed>
</trkpt>
<trkpt lat="32.992588043" lon="35.536144257">
  <ele>573.723633</ele>
  <time>2011-10-15T08:07:33Z</time>
  <speed>1.490000</speed>
</trkpt>
<trkpt lat="32.992641449" lon="35.536121368">
  <ele>572.286133</ele>
  <time>2011-10-15T08:07:35Z</time>
  <speed>0.860000</speed>
</trkpt>
<trkpt lat="32.992630005" lon="35.536094666">
  <ele>573.270508</ele>
  <time>2011-10-15T08:07:36Z</time>
  <speed>0.320000</speed>
</trkpt>
<trkpt lat="32.992652893" lon="35.536083221">
  <ele>574.708008</ele>
  <time>2011-10-15T08:07:46Z</time>
  <speed>0.350000</speed>
</trkpt>
<trkpt lat="32.992702484" lon="35.536083221">
  <ele>574.458008</ele>
  <time>2011-10-15T08:07:51Z</time>
  <speed>1.800000</speed>
</trkpt>
<trkpt lat="32.992748260" lon="35.536064148">
  <ele>575.239258</ele>
  <time>2011-10-15T08:07:53Z</time>
  <speed>2.220000</speed>
</trkpt>
<trkpt lat="32.992797852" lon="35.536052704">
  <ele>576.333008</ele>
  <time>2011-10-15T08:07:55Z</time>
  <speed>2.710000</speed>
</trkpt>
<trkpt lat="32.992828369" lon="35.536052704">
  <ele>576.661133</ele>
  <time>2011-10-15T08:07:56Z</time>
  <speed>2.660000</speed>
</trkpt>
<trkpt lat="32.992885590" lon="35.536045074">
  <ele>576.895508</ele>
  <time>2011-10-15T08:07:58Z</time>
  <speed>2.630000</speed>
</trkpt>
<trkpt lat="32.992946625" lon="35.536056519">
  <ele>576.958008</ele>
  <time>2011-10-15T08:08:00Z</time>
  <speed>3.050000</speed>
</trkpt>
<trkpt lat="32.992973328" lon="35.536056519">
  <ele>577.239258</ele>
  <time>2011-10-15T08:08:01Z</time>
  <speed>2.450000</speed>
</trkpt>
<trkpt lat="32.993000031" lon="35.536060333">
  <ele>576.942383</ele>
  <time>2011-10-15T08:08:02Z</time>
  <speed>2.380000</speed>
</trkpt>
<trkpt lat="32.993064880" lon="35.536071777">
  <ele>576.114258</ele>
  <time>2011-10-15T08:08:04Z</time>
  <speed>3.240000</speed>
</trkpt>
<trkpt lat="32.993114471" lon="35.536083221">
  <ele>575.645508</ele>
  <time>2011-10-15T08:08:05Z</time>
  <speed>3.500000</speed>
</trkpt>
<trkpt lat="32.993160248" lon="35.536106110">
  <ele>574.973633</ele>
  <time>2011-10-15T08:08:06Z</time>
  <speed>3.470000</speed>
</trkpt>
<trkpt lat="32.993190765" lon="35.536140442">
  <ele>573.895508</ele>
  <time>2011-10-15T08:08:07Z</time>
  <speed>3.190000</speed>
</trkpt>
<trkpt lat="32.993206024" lon="35.536170959">
  <ele>573.411133</ele>
  <time>2011-10-15T08:08:08Z</time>
  <speed>2.820000</speed>
</trkpt>
<trkpt lat="32.993221283" lon="35.536235809">
  <ele>572.661133</ele>
  <time>2011-10-15T08:08:10Z</time>
  <speed>3.410000</speed>
</trkpt>
<trkpt lat="32.993225098" lon="35.536281586">
  <ele>572.317383</ele>
  <time>2011-10-15T08:08:11Z</time>
  <speed>3.330000</speed>
</trkpt>
<trkpt lat="32.993221283" lon="35.536327362">
  <ele>571.426758</ele>
  <time>2011-10-15T08:08:12Z</time>
  <speed>3.530000</speed>
</trkpt>
<trkpt lat="32.993209839" lon="35.536365509">
  <ele>571.129883</ele>
  <time>2011-10-15T08:08:13Z</time>
  <speed>2.960000</speed>
</trkpt>
<trkpt lat="32.993202209" lon="35.536399841">
  <ele>570.473633</ele>
  <time>2011-10-15T08:08:14Z</time>
  <speed>3.490000</speed>
</trkpt>
<trkpt lat="32.993198395" lon="35.536445618">
  <ele>570.442383</ele>
  <time>2011-10-15T08:08:15Z</time>
  <speed>4.190000</speed>
</trkpt>
<trkpt lat="32.993202209" lon="35.536495209">
  <ele>570.364258</ele>
  <time>2011-10-15T08:08:16Z</time>
  <speed>4.800000</speed>
</trkpt>
<trkpt lat="32.993198395" lon="35.536560059">
  <ele>569.520508</ele>
  <time>2011-10-15T08:08:17Z</time>
  <speed>6.410000</speed>
</trkpt>
<trkpt lat="32.993198395" lon="35.536621094">
  <ele>568.833008</ele>
  <time>2011-10-15T08:08:18Z</time>
  <speed>5.490000</speed>
</trkpt>
<trkpt lat="32.993198395" lon="35.536678314">
  <ele>568.036133</ele>
  <time>2011-10-15T08:08:19Z</time>
  <speed>5.090000</speed>
</trkpt>
<trkpt lat="32.993202209" lon="35.536724091">
  <ele>567.004883</ele>
  <time>2011-10-15T08:08:20Z</time>
  <speed>4.410000</speed>
</trkpt>
<trkpt lat="32.993209839" lon="35.536758423">
  <ele>565.926758</ele>
  <time>2011-10-15T08:08:21Z</time>
  <speed>3.260000</speed>
</trkpt>
<trkpt lat="32.993221283" lon="35.536796570">
  <ele>565.395508</ele>
  <time>2011-10-15T08:08:22Z</time>
  <speed>3.020000</speed>
</trkpt>
<trkpt lat="32.993236542" lon="35.536827087">
  <ele>564.911133</ele>
  <time>2011-10-15T08:08:23Z</time>
  <speed>2.610000</speed>
</trkpt>
<trkpt lat="32.993255615" lon="35.536849976">
  <ele>564.083008</ele>
  <time>2011-10-15T08:08:24Z</time>
  <speed>2.350000</speed>
</trkpt>
<trkpt lat="32.993289948" lon="35.536891937">
  <ele>562.676758</ele>
  <time>2011-10-15T08:08:26Z</time>
  <speed>2.630000</speed>
</trkpt>
<trkpt lat="32.993309021" lon="35.536926270">
  <ele>562.676758</ele>
  <time>2011-10-15T08:08:27Z</time>
  <speed>3.050000</speed>
</trkpt>
<trkpt lat="32.993316650" lon="35.536960602">
  <ele>562.270508</ele>
  <time>2011-10-15T08:08:28Z</time>
  <speed>3.210000</speed>
</trkpt>
<trkpt lat="32.993328094" lon="35.536998749">
  <ele>562.239258</ele>
  <time>2011-10-15T08:08:29Z</time>
  <speed>3.070000</speed>
</trkpt>
<trkpt lat="32.993324280" lon="35.537055969">
  <ele>561.817383</ele>
  <time>2011-10-15T08:08:31Z</time>
  <speed>3.460000</speed>
</trkpt>
<trkpt lat="32.993324280" lon="35.537094116">
  <ele>560.848633</ele>
  <time>2011-10-15T08:08:32Z</time>
  <speed>3.330000</speed>
</trkpt>
<trkpt lat="32.993328094" lon="35.537139893">
  <ele>560.614258</ele>
  <time>2011-10-15T08:08:33Z</time>
  <speed>3.970000</speed>
</trkpt>
<trkpt lat="32.993331909" lon="35.537185669">
  <ele>560.333008</ele>
  <time>2011-10-15T08:08:34Z</time>
  <speed>3.880000</speed>
</trkpt>
<trkpt lat="32.993335724" lon="35.537223816">
  <ele>559.551758</ele>
  <time>2011-10-15T08:08:35Z</time>
  <speed>3.130000</speed>
</trkpt>
<trkpt lat="32.993328094" lon="35.537281036">
  <ele>558.629883</ele>
  <time>2011-10-15T08:08:37Z</time>
  <speed>1.830000</speed>
</trkpt>
<trkpt lat="32.993316650" lon="35.537311554">
  <ele>557.051758</ele>
  <time>2011-10-15T08:08:40Z</time>
  <speed>0.410000</speed>
</trkpt>
<trkpt lat="32.993293762" lon="35.537345886">
  <ele>555.629883</ele>
  <time>2011-10-15T08:08:57Z</time>
  <speed>1.590000</speed>
</trkpt>
<trkpt lat="32.993263245" lon="35.537395477">
  <ele>555.223633</ele>
  <time>2011-10-15T08:08:59Z</time>
  <speed>3.250000</speed>
</trkpt>
<trkpt lat="32.993232727" lon="35.537422180">
  <ele>555.036133</ele>
  <time>2011-10-15T08:09:00Z</time>
  <speed>3.940000</speed>
</trkpt>
<trkpt lat="32.993198395" lon="35.537452698">
  <ele>554.754883</ele>
  <time>2011-10-15T08:09:01Z</time>
  <speed>5.010000</speed>
</trkpt>
<trkpt lat="32.993160248" lon="35.537475586">
  <ele>554.333008</ele>
  <time>2011-10-15T08:09:02Z</time>
  <speed>4.650000</speed>
</trkpt>
<trkpt lat="32.993118286" lon="35.537502289">
  <ele>553.645508</ele>
  <time>2011-10-15T08:09:03Z</time>
  <speed>5.500000</speed>
</trkpt>
<trkpt lat="32.993068695" lon="35.537525177">
  <ele>553.161133</ele>
  <time>2011-10-15T08:09:04Z</time>
  <speed>5.510000</speed>
</trkpt>
<trkpt lat="32.993015289" lon="35.537540436">
  <ele>552.676758</ele>
  <time>2011-10-15T08:09:05Z</time>
  <speed>4.870000</speed>
</trkpt>
<trkpt lat="32.992969513" lon="35.537559509">
  <ele>552.036133</ele>
  <time>2011-10-15T08:09:06Z</time>
  <speed>5.020000</speed>
</trkpt>
<trkpt lat="32.992919922" lon="35.537570953">
  <ele>550.676758</ele>
  <time>2011-10-15T08:09:07Z</time>
  <speed>5.450000</speed>
</trkpt>
<trkpt lat="32.992870331" lon="35.537586212">
  <ele>550.067383</ele>
  <time>2011-10-15T08:09:08Z</time>
  <speed>5.270000</speed>
</trkpt>
<trkpt lat="32.992816925" lon="35.537609100">
  <ele>549.489258</ele>
  <time>2011-10-15T08:09:09Z</time>
  <speed>6.020000</speed>
</trkpt>
<trkpt lat="32.992763519" lon="35.537624359">
  <ele>548.895508</ele>
  <time>2011-10-15T08:09:10Z</time>
  <speed>5.940000</speed>
</trkpt>
<trkpt lat="32.992713928" lon="35.537639618">
  <ele>548.379883</ele>
  <time>2011-10-15T08:09:11Z</time>
  <speed>5.230000</speed>
</trkpt>
<trkpt lat="32.992660522" lon="35.537673950">
  <ele>547.801758</ele>
  <time>2011-10-15T08:09:12Z</time>
  <speed>5.530000</speed>
</trkpt>
<trkpt lat="32.992603302" lon="35.537712097">
  <ele>547.551758</ele>
  <time>2011-10-15T08:09:13Z</time>
  <speed>6.210000</speed>
</trkpt>
<trkpt lat="32.992534637" lon="35.537773132">
  <ele>546.379883</ele>
  <time>2011-10-15T08:09:14Z</time>
  <speed>6.400000</speed>
</trkpt>
<trkpt lat="32.992477417" lon="35.537834167">
  <ele>546.051758</ele>
  <time>2011-10-15T08:09:15Z</time>
  <speed>6.130000</speed>
</trkpt>
<trkpt lat="32.992431641" lon="35.537891388">
  <ele>545.583008</ele>
  <time>2011-10-15T08:09:16Z</time>
  <speed>6.270000</speed>
</trkpt>
<trkpt lat="32.992378235" lon="35.537956238">
  <ele>544.723633</ele>
  <time>2011-10-15T08:09:17Z</time>
  <speed>6.320000</speed>
</trkpt>
<trkpt lat="32.992332458" lon="35.538002014">
  <ele>544.004883</ele>
  <time>2011-10-15T08:09:18Z</time>
  <speed>5.840000</speed>
</trkpt>
<trkpt lat="32.992290497" lon="35.538043976">
  <ele>543.129883</ele>
  <time>2011-10-15T08:09:19Z</time>
  <speed>5.370000</speed>
</trkpt>
<trkpt lat="32.992252350" lon="35.538093567">
  <ele>544.661133</ele>
  <time>2011-10-15T08:09:20Z</time>
  <speed>4.620000</speed>
</trkpt>
<trkpt lat="32.992210388" lon="35.538143158">
  <ele>544.270508</ele>
  <time>2011-10-15T08:09:21Z</time>
  <speed>5.270000</speed>
</trkpt>
<trkpt lat="32.992168427" lon="35.538188934">
  <ele>543.739258</ele>
  <time>2011-10-15T08:09:22Z</time>
  <speed>5.610000</speed>
</trkpt>
<trkpt lat="32.992126465" lon="35.538215637">
  <ele>543.442383</ele>
  <time>2011-10-15T08:09:23Z</time>
  <speed>5.470000</speed>
</trkpt>
<trkpt lat="32.992076874" lon="35.538242340">
  <ele>543.786133</ele>
  <time>2011-10-15T08:09:24Z</time>
  <speed>5.630000</speed>
</trkpt>
<trkpt lat="32.992023468" lon="35.538276672">
  <ele>543.911133</ele>
  <time>2011-10-15T08:09:25Z</time>
  <speed>6.410000</speed>
</trkpt>
<trkpt lat="32.991966248" lon="35.538311005">
  <ele>543.364258</ele>
  <time>2011-10-15T08:09:26Z</time>
  <speed>6.310000</speed>
</trkpt>
<trkpt lat="32.991916656" lon="35.538341522">
  <ele>543.723633</ele>
  <time>2011-10-15T08:09:27Z</time>
  <speed>4.870000</speed>
</trkpt>
<trkpt lat="32.991878510" lon="35.538352966">
  <ele>543.833008</ele>
  <time>2011-10-15T08:09:28Z</time>
  <speed>4.180000</speed>
</trkpt>
<trkpt lat="32.991840363" lon="35.538368225">
  <ele>543.754883</ele>
  <time>2011-10-15T08:09:29Z</time>
  <speed>3.170000</speed>
</trkpt>
<trkpt lat="32.991813660" lon="35.538375854">
  <ele>543.536133</ele>
  <time>2011-10-15T08:09:30Z</time>
  <speed>2.830000</speed>
</trkpt>
<trkpt lat="32.991783142" lon="35.538394928">
  <ele>542.458008</ele>
  <time>2011-10-15T08:09:31Z</time>
  <speed>2.690000</speed>
</trkpt>
<trkpt lat="32.991756439" lon="35.538414001">
  <ele>541.958008</ele>
  <time>2011-10-15T08:09:32Z</time>
  <speed>2.050000</speed>
</trkpt>
<trkpt lat="32.991775513" lon="35.538436890">
  <ele>540.301758</ele>
  <time>2011-10-15T08:09:48Z</time>
  <speed>2.190000</speed>
</trkpt>
<trkpt lat="32.991790771" lon="35.538471222">
  <ele>539.676758</ele>
  <time>2011-10-15T08:09:49Z</time>
  <speed>2.660000</speed>
</trkpt>
<trkpt lat="32.991802216" lon="35.538513184">
  <ele>539.926758</ele>
  <time>2011-10-15T08:09:50Z</time>
  <speed>3.030000</speed>
</trkpt>
<trkpt lat="32.991809845" lon="35.538543701">
  <ele>540.051758</ele>
  <time>2011-10-15T08:09:51Z</time>
  <speed>3.050000</speed>
</trkpt>
<trkpt lat="32.991802216" lon="35.538578033">
  <ele>539.598633</ele>
  <time>2011-10-15T08:09:52Z</time>
  <speed>3.490000</speed>
</trkpt>
<trkpt lat="32.991783142" lon="35.538623810">
  <ele>538.926758</ele>
  <time>2011-10-15T08:09:53Z</time>
  <speed>4.940000</speed>
</trkpt>
<trkpt lat="32.991764069" lon="35.538673401">
  <ele>537.989258</ele>
  <time>2011-10-15T08:09:54Z</time>
  <speed>5.800000</speed>
</trkpt>
<trkpt lat="32.991718292" lon="35.538722992">
  <ele>536.958008</ele>
  <time>2011-10-15T08:09:55Z</time>
  <speed>6.850000</speed>
</trkpt>
<trkpt lat="32.991657257" lon="35.538768768">
  <ele>535.926758</ele>
  <time>2011-10-15T08:09:56Z</time>
  <speed>7.320000</speed>
</trkpt>
<trkpt lat="32.991588593" lon="35.538795471">
  <ele>535.129883</ele>
  <time>2011-10-15T08:09:57Z</time>
  <speed>7.760000</speed>
</trkpt>
<trkpt lat="32.991519928" lon="35.538799286">
  <ele>534.723633</ele>
  <time>2011-10-15T08:09:58Z</time>
  <speed>7.900000</speed>
</trkpt>
<trkpt lat="32.991451263" lon="35.538787842">
  <ele>534.129883</ele>
  <time>2011-10-15T08:09:59Z</time>
  <speed>7.040000</speed>
</trkpt>
<trkpt lat="32.991394043" lon="35.538772583">
  <ele>533.583008</ele>
  <time>2011-10-15T08:10:00Z</time>
  <speed>6.110000</speed>
</trkpt>
<trkpt lat="32.991344452" lon="35.538764954">
  <ele>533.145508</ele>
  <time>2011-10-15T08:10:01Z</time>
  <speed>5.050000</speed>
</trkpt>
<trkpt lat="32.991298676" lon="35.538764954">
  <ele>532.567383</ele>
  <time>2011-10-15T08:10:02Z</time>
  <speed>4.710000</speed>
</trkpt>
<trkpt lat="32.991256714" lon="35.538768768">
  <ele>531.973633</ele>
  <time>2011-10-15T08:10:03Z</time>
  <speed>3.810000</speed>
</trkpt>
<trkpt lat="32.991230011" lon="35.538787842">
  <ele>531.911133</ele>
  <time>2011-10-15T08:10:04Z</time>
  <speed>4.190000</speed>
</trkpt>
<trkpt lat="32.991188049" lon="35.538825989">
  <ele>531.176758</ele>
  <time>2011-10-15T08:10:05Z</time>
  <speed>5.980000</speed>
</trkpt>
<trkpt lat="32.991138458" lon="35.538875580">
  <ele>529.864258</ele>
  <time>2011-10-15T08:10:06Z</time>
  <speed>6.560000</speed>
</trkpt>
<trkpt lat="32.991100311" lon="35.538936615">
  <ele>528.723633</ele>
  <time>2011-10-15T08:10:07Z</time>
  <speed>7.950000</speed>
</trkpt>
<trkpt lat="32.991058350" lon="35.539001465">
  <ele>526.958008</ele>
  <time>2011-10-15T08:10:08Z</time>
  <speed>9.240000</speed>
</trkpt>
<trkpt lat="32.991008759" lon="35.539081573">
  <ele>525.286133</ele>
  <time>2011-10-15T08:10:09Z</time>
  <speed>9.380000</speed>
</trkpt>
<trkpt lat="32.990955353" lon="35.539165497">
  <ele>524.129883</ele>
  <time>2011-10-15T08:10:10Z</time>
  <speed>9.740000</speed>
</trkpt>
<trkpt lat="32.990901947" lon="35.539257050">
  <ele>522.567383</ele>
  <time>2011-10-15T08:10:11Z</time>
  <speed>10.250000</speed>
</trkpt>
<trkpt lat="32.990844727" lon="35.539352417">
  <ele>522.098633</ele>
  <time>2011-10-15T08:10:12Z</time>
  <speed>10.670000</speed>
</trkpt>
<trkpt lat="32.990787506" lon="35.539451599">
  <ele>520.817383</ele>
  <time>2011-10-15T08:10:13Z</time>
  <speed>10.010000</speed>
</trkpt>
<trkpt lat="32.990737915" lon="35.539531708">
  <ele>519.848633</ele>
  <time>2011-10-15T08:10:14Z</time>
  <speed>8.380000</speed>
</trkpt>
<trkpt lat="32.990684509" lon="35.539604187">
  <ele>518.614258</ele>
  <time>2011-10-15T08:10:15Z</time>
  <speed>9.380000</speed>
</trkpt>
<trkpt lat="32.990634918" lon="35.539684296">
  <ele>516.583008</ele>
  <time>2011-10-15T08:10:16Z</time>
  <speed>8.130000</speed>
</trkpt>
<trkpt lat="32.990585327" lon="35.539756775">
  <ele>515.489258</ele>
  <time>2011-10-15T08:10:17Z</time>
  <speed>8.450000</speed>
</trkpt>
<trkpt lat="32.990535736" lon="35.539813995">
  <ele>513.020508</ele>
  <time>2011-10-15T08:10:18Z</time>
  <speed>8.040000</speed>
</trkpt>
<trkpt lat="32.990474701" lon="35.539855957">
  <ele>511.838379</ele>
  <time>2011-10-15T08:10:19Z</time>
  <speed>8.610000</speed>
</trkpt>
<trkpt lat="32.990398407" lon="35.539863586">
  <ele>510.479004</ele>
  <time>2011-10-15T08:10:20Z</time>
  <speed>9.120000</speed>
</trkpt>
<trkpt lat="32.990306854" lon="35.539867401">
  <ele>510.143066</ele>
  <time>2011-10-15T08:10:21Z</time>
  <speed>9.560000</speed>
</trkpt>
<trkpt lat="32.990219116" lon="35.539840698">
  <ele>508.557129</ele>
  <time>2011-10-15T08:10:22Z</time>
  <speed>9.560000</speed>
</trkpt>
<trkpt lat="32.990135193" lon="35.539810181">
  <ele>506.916504</ele>
  <time>2011-10-15T08:10:23Z</time>
  <speed>9.319999</speed>
</trkpt>
<trkpt lat="32.990051270" lon="35.539798737">
  <ele>506.393066</ele>
  <time>2011-10-15T08:10:24Z</time>
  <speed>8.890000</speed>
</trkpt>
<trkpt lat="32.989978790" lon="35.539775848">
  <ele>504.877441</ele>
  <time>2011-10-15T08:10:25Z</time>
  <speed>8.650000</speed>
</trkpt>
<trkpt lat="32.989902496" lon="35.539752960">
  <ele>502.924316</ele>
  <time>2011-10-15T08:10:26Z</time>
  <speed>8.750000</speed>
</trkpt>
<trkpt lat="32.989818573" lon="35.539733887">
  <ele>500.713379</ele>
  <time>2011-10-15T08:10:27Z</time>
  <speed>9.050001</speed>
</trkpt>
<trkpt lat="32.989734650" lon="35.539722443">
  <ele>500.064941</ele>
  <time>2011-10-15T08:10:28Z</time>
  <speed>9.170000</speed>
</trkpt>
<trkpt lat="32.989643097" lon="35.539699554">
  <ele>497.736816</ele>
  <time>2011-10-15T08:10:29Z</time>
  <speed>9.720000</speed>
</trkpt>
<trkpt lat="32.989555359" lon="35.539688110">
  <ele>496.705566</ele>
  <time>2011-10-15T08:10:30Z</time>
  <speed>9.790000</speed>
</trkpt>
<trkpt lat="32.989463806" lon="35.539680481">
  <ele>496.439941</ele>
  <time>2011-10-15T08:10:31Z</time>
  <speed>10.240000</speed>
</trkpt>
<trkpt lat="32.989372253" lon="35.539680481">
  <ele>495.150879</ele>
  <time>2011-10-15T08:10:32Z</time>
  <speed>10.270000</speed>
</trkpt>
<trkpt lat="32.989292145" lon="35.539684296">
  <ele>493.729004</ele>
  <time>2011-10-15T08:10:33Z</time>
  <speed>7.890000</speed>
</trkpt>
<trkpt lat="32.989231110" lon="35.539710999">
  <ele>493.229004</ele>
  <time>2011-10-15T08:10:34Z</time>
  <speed>6.490000</speed>
</trkpt>
<trkpt lat="32.989185333" lon="35.539733887">
  <ele>492.596191</ele>
  <time>2011-10-15T08:10:35Z</time>
  <speed>5.220000</speed>
</trkpt>
<trkpt lat="32.989147186" lon="35.539764404">
  <ele>492.752441</ele>
  <time>2011-10-15T08:10:36Z</time>
  <speed>4.380000</speed>
</trkpt>
<trkpt lat="32.989112854" lon="35.539798737">
  <ele>492.619629</ele>
  <time>2011-10-15T08:10:37Z</time>
  <speed>4.300000</speed>
</trkpt>
<trkpt lat="32.989078522" lon="35.539833069">
  <ele>492.885254</ele>
  <time>2011-10-15T08:10:38Z</time>
  <speed>3.830000</speed>
</trkpt>
<trkpt lat="32.989051819" lon="35.539859772">
  <ele>492.432129</ele>
  <time>2011-10-15T08:10:39Z</time>
  <speed>3.300000</speed>
</trkpt>
<trkpt lat="32.989013672" lon="35.539901733">
  <ele>492.564941</ele>
  <time>2011-10-15T08:10:41Z</time>
  <speed>2.510000</speed>
</trkpt>
<trkpt lat="32.988975525" lon="35.539932251">
  <ele>493.174316</ele>
  <time>2011-10-15T08:10:43Z</time>
  <speed>2.200000</speed>
</trkpt>
<trkpt lat="32.988941193" lon="35.539962769">
  <ele>493.189941</ele>
  <time>2011-10-15T08:10:45Z</time>
  <speed>2.210000</speed>
</trkpt>
<trkpt lat="32.988906860" lon="35.539993286">
  <ele>493.104004</ele>
  <time>2011-10-15T08:10:47Z</time>
  <speed>2.750000</speed>
</trkpt>
<trkpt lat="32.988883972" lon="35.540012360">
  <ele>492.971191</ele>
  <time>2011-10-15T08:10:48Z</time>
  <speed>2.790000</speed>
</trkpt>
<trkpt lat="32.988834381" lon="35.540016174">
  <ele>491.619629</ele>
  <time>2011-10-15T08:10:50Z</time>
  <speed>3.230000</speed>
</trkpt>
<trkpt lat="32.988803864" lon="35.540019989">
  <ele>491.111816</ele>
  <time>2011-10-15T08:10:51Z</time>
  <speed>3.890000</speed>
</trkpt>
<trkpt lat="32.988769531" lon="35.540027618">
  <ele>491.299316</ele>
  <time>2011-10-15T08:10:52Z</time>
  <speed>4.090000</speed>
</trkpt>
<trkpt lat="32.988727570" lon="35.540035248">
  <ele>491.205566</ele>
  <time>2011-10-15T08:10:53Z</time>
  <speed>4.220000</speed>
</trkpt>
<trkpt lat="32.988689423" lon="35.540050507">
  <ele>490.986816</ele>
  <time>2011-10-15T08:10:54Z</time>
  <speed>4.690000</speed>
</trkpt>
<trkpt lat="32.988643646" lon="35.540073395">
  <ele>490.354004</ele>
  <time>2011-10-15T08:10:55Z</time>
  <speed>5.640000</speed>
</trkpt>
<trkpt lat="32.988594055" lon="35.540096283">
  <ele>489.518066</ele>
  <time>2011-10-15T08:10:56Z</time>
  <speed>6.150000</speed>
</trkpt>
<trkpt lat="32.988536835" lon="35.540119171">
  <ele>488.111816</ele>
  <time>2011-10-15T08:10:57Z</time>
  <speed>7.350000</speed>
</trkpt>
<trkpt lat="32.988475800" lon="35.540145874">
  <ele>486.494629</ele>
  <time>2011-10-15T08:10:58Z</time>
  <speed>7.490000</speed>
</trkpt>
<trkpt lat="32.988410950" lon="35.540180206">
  <ele>485.010254</ele>
  <time>2011-10-15T08:10:59Z</time>
  <speed>7.970000</speed>
</trkpt>
<trkpt lat="32.988342285" lon="35.540210724">
  <ele>484.494629</ele>
  <time>2011-10-15T08:11:00Z</time>
  <speed>8.350000</speed>
</trkpt>
<trkpt lat="32.988265991" lon="35.540252686">
  <ele>483.252441</ele>
  <time>2011-10-15T08:11:01Z</time>
  <speed>8.730000</speed>
</trkpt>
<trkpt lat="32.988189697" lon="35.540287018">
  <ele>482.330566</ele>
  <time>2011-10-15T08:11:02Z</time>
  <speed>9.270000</speed>
</trkpt>
<trkpt lat="32.988105774" lon="35.540317535">
  <ele>480.635254</ele>
  <time>2011-10-15T08:11:03Z</time>
  <speed>9.440000</speed>
</trkpt>
<trkpt lat="32.988021851" lon="35.540351868">
  <ele>478.947754</ele>
  <time>2011-10-15T08:11:04Z</time>
  <speed>10.040000</speed>
</trkpt>
<trkpt lat="32.987934113" lon="35.540382385">
  <ele>476.182129</ele>
  <time>2011-10-15T08:11:05Z</time>
  <speed>10.360000</speed>
</trkpt>
<trkpt lat="32.987842560" lon="35.540420532">
  <ele>474.424316</ele>
  <time>2011-10-15T08:11:06Z</time>
  <speed>10.780000</speed>
</trkpt>
<trkpt lat="32.987747192" lon="35.540466309">
  <ele>472.658691</ele>
  <time>2011-10-15T08:11:07Z</time>
  <speed>11.560000</speed>
</trkpt>
<trkpt lat="32.987640381" lon="35.540515900">
  <ele>470.885254</ele>
  <time>2011-10-15T08:11:08Z</time>
  <speed>12.330000</speed>
</trkpt>
<trkpt lat="32.987529755" lon="35.540565491">
  <ele>468.869629</ele>
  <time>2011-10-15T08:11:09Z</time>
  <speed>12.760000</speed>
</trkpt>
<trkpt lat="32.987415314" lon="35.540607452">
  <ele>466.846191</ele>
  <time>2011-10-15T08:11:10Z</time>
  <speed>12.870000</speed>
</trkpt>
<trkpt lat="32.987300873" lon="35.540653229">
  <ele>466.221191</ele>
  <time>2011-10-15T08:11:11Z</time>
  <speed>12.860000</speed>
</trkpt>
<trkpt lat="32.987186432" lon="35.540691376">
  <ele>465.791504</ele>
  <time>2011-10-15T08:11:12Z</time>
  <speed>12.830000</speed>
</trkpt>
<trkpt lat="32.987075806" lon="35.540706635">
  <ele>463.932129</ele>
  <time>2011-10-15T08:11:13Z</time>
  <speed>11.980000</speed>
</trkpt>
<trkpt lat="32.986972809" lon="35.540725708">
  <ele>461.963379</ele>
  <time>2011-10-15T08:11:14Z</time>
  <speed>11.080000</speed>
</trkpt>
<trkpt lat="32.986885071" lon="35.540710449">
  <ele>459.518066</ele>
  <time>2011-10-15T08:11:15Z</time>
  <speed>9.540000</speed>
</trkpt>
<trkpt lat="32.986804962" lon="35.540710449">
  <ele>458.299316</ele>
  <time>2011-10-15T08:11:16Z</time>
  <speed>7.920000</speed>
</trkpt>
<trkpt lat="32.986740112" lon="35.540710449">
  <ele>457.439941</ele>
  <time>2011-10-15T08:11:17Z</time>
  <speed>7.290000</speed>
</trkpt>
<trkpt lat="32.986675262" lon="35.540706635">
  <ele>456.197754</ele>
  <time>2011-10-15T08:11:18Z</time>
  <speed>6.660000</speed>
</trkpt>
<trkpt lat="32.986621857" lon="35.540710449">
  <ele>455.197754</ele>
  <time>2011-10-15T08:11:19Z</time>
  <speed>6.380000</speed>
</trkpt>
<trkpt lat="32.986560822" lon="35.540725708">
  <ele>454.080566</ele>
  <time>2011-10-15T08:11:20Z</time>
  <speed>7.690000</speed>
</trkpt>
<trkpt lat="32.986488342" lon="35.540740967">
  <ele>452.635254</ele>
  <time>2011-10-15T08:11:21Z</time>
  <speed>8.170000</speed>
</trkpt>
<trkpt lat="32.986415863" lon="35.540756226">
  <ele>451.197754</ele>
  <time>2011-10-15T08:11:22Z</time>
  <speed>8.690000</speed>
</trkpt>
<trkpt lat="32.986339569" lon="35.540786743">
  <ele>450.283691</ele>
  <time>2011-10-15T08:11:23Z</time>
  <speed>8.720000</speed>
</trkpt>
<trkpt lat="32.986263275" lon="35.540817261">
  <ele>449.166504</ele>
  <time>2011-10-15T08:11:24Z</time>
  <speed>8.680000</speed>
</trkpt>
<trkpt lat="32.986183167" lon="35.540843964">
  <ele>448.736816</ele>
  <time>2011-10-15T08:11:25Z</time>
  <speed>8.910000</speed>
</trkpt>
<trkpt lat="32.986110687" lon="35.540863037">
  <ele>447.658691</ele>
  <time>2011-10-15T08:11:26Z</time>
  <speed>8.760000</speed>
</trkpt>
<trkpt lat="32.986038208" lon="35.540882111">
  <ele>446.338379</ele>
  <time>2011-10-15T08:11:27Z</time>
  <speed>8.120000</speed>
</trkpt>
<trkpt lat="32.985969543" lon="35.540893555">
  <ele>444.533691</ele>
  <time>2011-10-15T08:11:28Z</time>
  <speed>7.640000</speed>
</trkpt>
<trkpt lat="32.985900879" lon="35.540912628">
  <ele>443.721191</ele>
  <time>2011-10-15T08:11:29Z</time>
  <speed>7.600000</speed>
</trkpt>
<trkpt lat="32.985832214" lon="35.540920258">
  <ele>442.150879</ele>
  <time>2011-10-15T08:11:30Z</time>
  <speed>7.380000</speed>
</trkpt>
<trkpt lat="32.985774994" lon="35.540924072">
  <ele>441.822754</ele>
  <time>2011-10-15T08:11:31Z</time>
  <speed>6.060000</speed>
</trkpt>
<trkpt lat="32.985729218" lon="35.540927887">
  <ele>441.432129</ele>
  <time>2011-10-15T08:11:32Z</time>
  <speed>4.320000</speed>
</trkpt>
<trkpt lat="32.985691071" lon="35.540927887">
  <ele>440.619629</ele>
  <time>2011-10-15T08:11:33Z</time>
  <speed>3.960000</speed>
</trkpt>
<trkpt lat="32.985656738" lon="35.540916443">
  <ele>439.971191</ele>
  <time>2011-10-15T08:11:34Z</time>
  <speed>4.350000</speed>
</trkpt>
<trkpt lat="32.985622406" lon="35.540904999">
  <ele>439.158691</ele>
  <time>2011-10-15T08:11:35Z</time>
  <speed>4.780000</speed>
</trkpt>
<trkpt lat="32.985584259" lon="35.540866852">
  <ele>437.111816</ele>
  <time>2011-10-15T08:11:36Z</time>
  <speed>4.870000</speed>
</trkpt>
<trkpt lat="32.985542297" lon="35.540851593">
  <ele>436.604004</ele>
  <time>2011-10-15T08:11:37Z</time>
  <speed>5.310000</speed>
</trkpt>
<trkpt lat="32.985492706" lon="35.540832520">
  <ele>436.119629</ele>
  <time>2011-10-15T08:11:38Z</time>
  <speed>5.480000</speed>
</trkpt>
<trkpt lat="32.985439301" lon="35.540817261">
  <ele>435.619629</ele>
  <time>2011-10-15T08:11:39Z</time>
  <speed>5.910000</speed>
</trkpt>
<trkpt lat="32.985389709" lon="35.540798187">
  <ele>434.768066</ele>
  <time>2011-10-15T08:11:40Z</time>
  <speed>6.330000</speed>
</trkpt>
<trkpt lat="32.985336304" lon="35.540771484">
  <ele>434.119629</ele>
  <time>2011-10-15T08:11:41Z</time>
  <speed>6.090000</speed>
</trkpt>
<trkpt lat="32.985279083" lon="35.540737152">
  <ele>433.674316</ele>
  <time>2011-10-15T08:11:42Z</time>
  <speed>7.060000</speed>
</trkpt>
<trkpt lat="32.985218048" lon="35.540710449">
  <ele>433.104004</ele>
  <time>2011-10-15T08:11:43Z</time>
  <speed>7.140000</speed>
</trkpt>
<trkpt lat="32.985153198" lon="35.540679932">
  <ele>432.338379</ele>
  <time>2011-10-15T08:11:44Z</time>
  <speed>7.520000</speed>
</trkpt>
<trkpt lat="32.985084534" lon="35.540645599">
  <ele>431.947754</ele>
  <time>2011-10-15T08:11:45Z</time>
  <speed>7.480000</speed>
</trkpt>
<trkpt lat="32.985019684" lon="35.540611267">
  <ele>430.939941</ele>
  <time>2011-10-15T08:11:46Z</time>
  <speed>8.270000</speed>
</trkpt>
<trkpt lat="32.984947205" lon="35.540576935">
  <ele>430.057129</ele>
  <time>2011-10-15T08:11:47Z</time>
  <speed>8.820000</speed>
</trkpt>
<trkpt lat="32.984870911" lon="35.540542603">
  <ele>429.221191</ele>
  <time>2011-10-15T08:11:48Z</time>
  <speed>8.820000</speed>
</trkpt>
<trkpt lat="32.984790802" lon="35.540504456">
  <ele>427.557129</ele>
  <time>2011-10-15T08:11:49Z</time>
  <speed>9.470000</speed>
</trkpt>
<trkpt lat="32.984706879" lon="35.540462494">
  <ele>426.525879</ele>
  <time>2011-10-15T08:11:50Z</time>
  <speed>9.980000</speed>
</trkpt>
<trkpt lat="32.984619141" lon="35.540428162">
  <ele>425.502441</ele>
  <time>2011-10-15T08:11:51Z</time>
  <speed>10.350000</speed>
</trkpt>
<trkpt lat="32.984531403" lon="35.540390015">
  <ele>424.494629</ele>
  <time>2011-10-15T08:11:52Z</time>
  <speed>9.940000</speed>
</trkpt>
<trkpt lat="32.984439850" lon="35.540348053">
  <ele>423.322754</ele>
  <time>2011-10-15T08:11:53Z</time>
  <speed>10.460000</speed>
</trkpt>
<trkpt lat="32.984352112" lon="35.540309906">
  <ele>422.533691</ele>
  <time>2011-10-15T08:11:54Z</time>
  <speed>10.140000</speed>
</trkpt>
<trkpt lat="32.984264374" lon="35.540271759">
  <ele>421.775879</ele>
  <time>2011-10-15T08:11:55Z</time>
  <speed>10.330000</speed>
</trkpt>
<trkpt lat="32.984176636" lon="35.540233612">
  <ele>420.979004</ele>
  <time>2011-10-15T08:11:56Z</time>
  <speed>10.370000</speed>
</trkpt>
<trkpt lat="32.984085083" lon="35.540191650">
  <ele>420.119629</ele>
  <time>2011-10-15T08:11:57Z</time>
  <speed>10.370000</speed>
</trkpt>
<trkpt lat="32.983997345" lon="35.540145874">
  <ele>419.221191</ele>
  <time>2011-10-15T08:11:58Z</time>
  <speed>10.550000</speed>
</trkpt>
<trkpt lat="32.983909607" lon="35.540107727">
  <ele>418.119629</ele>
  <time>2011-10-15T08:11:59Z</time>
  <speed>10.390000</speed>
</trkpt>
<trkpt lat="32.983821869" lon="35.540069580">
  <ele>417.330566</ele>
  <time>2011-10-15T08:12:00Z</time>
  <speed>10.700000</speed>
</trkpt>
<trkpt lat="32.983730316" lon="35.540027618">
  <ele>416.330566</ele>
  <time>2011-10-15T08:12:01Z</time>
  <speed>10.790000</speed>
</trkpt>
<trkpt lat="32.983638763" lon="35.539985657">
  <ele>415.564941</ele>
  <time>2011-10-15T08:12:02Z</time>
  <speed>11.100000</speed>
</trkpt>
<trkpt lat="32.983543396" lon="35.539939880">
  <ele>414.268066</ele>
  <time>2011-10-15T08:12:03Z</time>
  <speed>11.090000</speed>
</trkpt>
<trkpt lat="32.983448029" lon="35.539894104">
  <ele>413.166504</ele>
  <time>2011-10-15T08:12:04Z</time>
  <speed>10.960000</speed>
</trkpt>
<trkpt lat="32.983352661" lon="35.539852142">
  <ele>411.986816</ele>
  <time>2011-10-15T08:12:05Z</time>
  <speed>11.260000</speed>
</trkpt>
<trkpt lat="32.983257294" lon="35.539810181">
  <ele>410.916504</ele>
  <time>2011-10-15T08:12:06Z</time>
  <speed>10.590000</speed>
</trkpt>
<trkpt lat="32.983165741" lon="35.539768219">
  <ele>409.846191</ele>
  <time>2011-10-15T08:12:07Z</time>
  <speed>11.010000</speed>
</trkpt>
<trkpt lat="32.983066559" lon="35.539730072">
  <ele>408.752441</ele>
  <time>2011-10-15T08:12:08Z</time>
  <speed>10.280000</speed>
</trkpt>
<trkpt lat="32.982978821" lon="35.539699554">
  <ele>407.760254</ele>
  <time>2011-10-15T08:12:09Z</time>
  <speed>9.450000</speed>
</trkpt>
<trkpt lat="32.982894897" lon="35.539676666">
  <ele>406.955566</ele>
  <time>2011-10-15T08:12:10Z</time>
  <speed>8.800000</speed>
</trkpt>
<trkpt lat="32.982826233" lon="35.539665222">
  <ele>405.854004</ele>
  <time>2011-10-15T08:12:11Z</time>
  <speed>7.380000</speed>
</trkpt>
<trkpt lat="32.982769012" lon="35.539642334">
  <ele>404.908691</ele>
  <time>2011-10-15T08:12:12Z</time>
  <speed>5.780000</speed>
</trkpt>
<trkpt lat="32.982734680" lon="35.539611816">
  <ele>404.557129</ele>
  <time>2011-10-15T08:12:13Z</time>
  <speed>4.640000</speed>
</trkpt>
<trkpt lat="32.982711792" lon="35.539577484">
  <ele>405.174316</ele>
  <time>2011-10-15T08:12:14Z</time>
  <speed>3.830000</speed>
</trkpt>
<trkpt lat="32.982696533" lon="35.539546967">
  <ele>405.018066</ele>
  <time>2011-10-15T08:12:15Z</time>
  <speed>3.420000</speed>
</trkpt>
<trkpt lat="32.982715607" lon="35.539482117">
  <ele>405.346191</ele>
  <time>2011-10-15T08:12:17Z</time>
  <speed>2.670000</speed>
</trkpt>
<trkpt lat="32.982723236" lon="35.539451599">
  <ele>405.666504</ele>
  <time>2011-10-15T08:12:18Z</time>
  <speed>2.610000</speed>
</trkpt>
<trkpt lat="32.982730865" lon="35.539417267">
  <ele>406.791504</ele>
  <time>2011-10-15T08:12:19Z</time>
  <speed>2.770000</speed>
</trkpt>
<trkpt lat="32.982753754" lon="35.539379120">
  <ele>406.869629</ele>
  <time>2011-10-15T08:12:21Z</time>
  <speed>1.760000</speed>
</trkpt>
<trkpt lat="32.982772827" lon="35.539352417">
  <ele>407.838379</ele>
  <time>2011-10-15T08:12:23Z</time>
  <speed>1.370000</speed>
</trkpt>
<trkpt lat="32.982791901" lon="35.539318085">
  <ele>408.689941</ele>
  <time>2011-10-15T08:12:26Z</time>
  <speed>0.820000</speed>
</trkpt>
<trkpt lat="32.982791901" lon="35.539287567">
  <ele>407.893066</ele>
  <time>2011-10-15T08:12:50Z</time>
  <speed>0.310000</speed>
</trkpt>
<trkpt lat="32.982807159" lon="35.539325714">
  <ele>409.041504</ele>
  <time>2011-10-15T08:13:09Z</time>
  <speed>0.350000</speed>
</trkpt>
<trkpt lat="32.982818604" lon="35.539356232">
  <ele>411.283691</ele>
  <time>2011-10-15T08:13:10Z</time>
  <speed>0.090000</speed>
</trkpt>
<trkpt lat="32.982837677" lon="35.539379120">
  <ele>412.650879</ele>
  <time>2011-10-15T08:13:10Z</time>
  <speed>0.050000</speed>
</trkpt>
<trkpt lat="32.982841492" lon="35.539390564">
  <ele>414.533691</ele>
  <time>2011-10-15T08:13:11Z</time>
  <speed>0.040000</speed>
</trkpt>
<trkpt lat="32.982826233" lon="35.539405823">
  <ele>417.158691</ele>
  <time>2011-10-15T08:13:13Z</time>
  <speed>0.040000</speed>
</trkpt>
<trkpt lat="32.982803345" lon="35.539417267">
  <ele>418.627441</ele>
  <time>2011-10-15T08:13:17Z</time>
  <speed>0.030000</speed>
</trkpt>
</trkseg>
</trk>
</gpx>
